<?xml version='1.0' encoding='UTF-8'?><gpx version="1.1" creator="JPX - https://github.com/jenetics/jpx" xmlns="http://www.topografix.com/GPX/1/1"><trk><trkseg><trkpt lat="37.921285" lon="15.9909667"><ele>35.0</ele><time>2026-04-12T06:22:33.252Z</time></trkpt><trkpt lat="37.9212283" lon="15.99074"><ele>35.0</ele><time>2026-04-12T06:22:34.251Z</time></trkpt><trkpt lat="37.9212433" lon="15.99087"><ele>35.0</ele><time>2026-04-12T06:22:36.251Z</time></trkpt><trkpt lat="37.921185" lon="15.9907983"><ele>35.0</ele><time>2026-04-12T06:22:44.98Z</time></trkpt><trkpt lat="37.9213117" lon="15.9908583"><ele>35.0</ele><time>2026-04-12T06:24:35.98Z</time></trkpt><trkpt lat="37.9212733" lon="15.9909217"><ele>35.0</ele><time>2026-04-12T06:25:31.979Z</time></trkpt><trkpt lat="37.9211967" lon="15.9909817"><ele>35.0</ele><time>2026-04-12T06:25:34.98Z</time></trkpt><trkpt lat="37.9210933" lon="15.9909583"><ele>35.0</ele><time>2026-04-12T06:25:36.979Z</time></trkpt><trkpt lat="37.9209767" lon="15.9909533"><ele>35.0</ele><time>2026-04-12T06:25:38.979Z</time></trkpt><trkpt lat="37.9209117" lon="15.990965"><ele>35.0</ele><time>2026-04-12T06:25:39.979Z</time></trkpt><trkpt lat="37.92079" lon="15.9909417"><ele>33.6</ele><time>2026-04-12T06:25:41.979Z</time></trkpt><trkpt lat="37.9206883" lon="15.9909283"><ele>32.2</ele><time>2026-04-12T06:25:43.979Z</time></trkpt><trkpt lat="37.9206217" lon="15.9909367"><ele>30.799999999999997</ele><time>2026-04-12T06:25:44.98Z</time></trkpt><trkpt lat="37.9205533" lon="15.9909217"><ele>29.4</ele><time>2026-04-12T06:25:45.979Z</time></trkpt><trkpt lat="37.9204383" lon="15.990895"><ele>28.0</ele><time>2026-04-12T06:25:47.979Z</time></trkpt><trkpt lat="37.92034" lon="15.9908733"><ele>28.0</ele><time>2026-04-12T06:25:49.979Z</time></trkpt><trkpt lat="37.9202367" lon="15.9908667"><ele>27.999999999999996</ele><time>2026-04-12T06:25:51.979Z</time></trkpt><trkpt lat="37.9201317" lon="15.9908517"><ele>27.999999999999996</ele><time>2026-04-12T06:25:53.979Z</time></trkpt><trkpt lat="37.920035" lon="15.9908233"><ele>28.0</ele><time>2026-04-12T06:25:55.979Z</time></trkpt><trkpt lat="37.9199183" lon="15.9908067"><ele>28.0</ele><time>2026-04-12T06:25:57.979Z</time></trkpt><trkpt lat="37.9198183" lon="15.9908017"><ele>26.4</ele><time>2026-04-12T06:25:59.979Z</time></trkpt><trkpt lat="37.9197183" lon="15.9907833"><ele>24.799999999999997</ele><time>2026-04-12T06:26:01.979Z</time></trkpt><trkpt lat="37.9196167" lon="15.9907633"><ele>23.2</ele><time>2026-04-12T06:26:03.979Z</time></trkpt><trkpt lat="37.9195333" lon="15.9907383"><ele>21.6</ele><time>2026-04-12T06:26:05.979Z</time></trkpt><trkpt lat="37.9195133" lon="15.9906233"><ele>20.0</ele><time>2026-04-12T06:26:07.979Z</time></trkpt><trkpt lat="37.919525" lon="15.9904767"><ele>20.0</ele><time>2026-04-12T06:26:09.979Z</time></trkpt><trkpt lat="37.91953" lon="15.9903317"><ele>20.0</ele><time>2026-04-12T06:26:11.979Z</time></trkpt><trkpt lat="37.9195333" lon="15.9901867"><ele>20.0</ele><time>2026-04-12T06:26:13.979Z</time></trkpt><trkpt lat="37.91951" lon="15.9900867"><ele>20.0</ele><time>2026-04-12T06:26:15.979Z</time></trkpt><trkpt lat="37.9194267" lon="15.9900567"><ele>20.0</ele><time>2026-04-12T06:26:17.98Z</time></trkpt><trkpt lat="37.9193133" lon="15.9900433"><ele>20.0</ele><time>2026-04-12T06:26:19.979Z</time></trkpt><trkpt lat="37.9192467" lon="15.9900317"><ele>20.0</ele><time>2026-04-12T06:26:20.98Z</time></trkpt><trkpt lat="37.9191767" lon="15.9900217"><ele>20.0</ele><time>2026-04-12T06:26:21.979Z</time></trkpt><trkpt lat="37.91911" lon="15.9900167"><ele>20.0</ele><time>2026-04-12T06:26:22.979Z</time></trkpt><trkpt lat="37.9190217" lon="15.99001"><ele>20.0</ele><time>2026-04-12T06:26:24.979Z</time></trkpt><trkpt lat="37.9189183" lon="15.98999"><ele>20.0</ele><time>2026-04-12T06:26:26.979Z</time></trkpt><trkpt lat="37.9188117" lon="15.989975"><ele>18.666666666666668</ele><time>2026-04-12T06:26:28.979Z</time></trkpt><trkpt lat="37.918735" lon="15.9899633"><ele>17.333333333333336</ele><time>2026-04-12T06:26:30.98Z</time></trkpt><trkpt lat="37.9186717" lon="15.9899933"><ele>16.0</ele><time>2026-04-12T06:26:34.979Z</time></trkpt><trkpt lat="37.9186317" lon="15.9900867"><ele>14.666666666666668</ele><time>2026-04-12T06:26:36.979Z</time></trkpt><trkpt lat="37.91863" lon="15.9902333"><ele>13.333333333333334</ele><time>2026-04-12T06:26:38.979Z</time></trkpt><trkpt lat="37.9186167" lon="15.9903367"><ele>12.0</ele><time>2026-04-12T06:26:39.979Z</time></trkpt><trkpt lat="37.9186017" lon="15.990445"><ele>12.0</ele><time>2026-04-12T06:26:40.979Z</time></trkpt><trkpt lat="37.918595" lon="15.9905467"><ele>12.0</ele><time>2026-04-12T06:26:41.979Z</time></trkpt><trkpt lat="37.9185867" lon="15.9906533"><ele>12.0</ele><time>2026-04-12T06:26:42.979Z</time></trkpt><trkpt lat="37.9185783" lon="15.990765"><ele>12.0</ele><time>2026-04-12T06:26:43.979Z</time></trkpt><trkpt lat="37.9185767" lon="15.9908767"><ele>12.0</ele><time>2026-04-12T06:26:44.979Z</time></trkpt><trkpt lat="37.9185733" lon="15.9909883"><ele>12.0</ele><time>2026-04-12T06:26:45.979Z</time></trkpt><trkpt lat="37.918575" lon="15.9911083"><ele>13.2</ele><time>2026-04-12T06:26:46.979Z</time></trkpt><trkpt lat="37.918575" lon="15.99123"><ele>14.399999999999999</ele><time>2026-04-12T06:26:47.979Z</time></trkpt><trkpt lat="37.91857" lon="15.991355"><ele>15.600000000000001</ele><time>2026-04-12T06:26:48.979Z</time></trkpt><trkpt lat="37.9185583" lon="15.9914817"><ele>16.8</ele><time>2026-04-12T06:26:49.979Z</time></trkpt><trkpt lat="37.9185483" lon="15.9916117"><ele>18.0</ele><time>2026-04-12T06:26:50.979Z</time></trkpt><trkpt lat="37.9185317" lon="15.9917583"><ele>18.0</ele><time>2026-04-12T06:26:51.979Z</time></trkpt><trkpt lat="37.918515" lon="15.991895"><ele>18.0</ele><time>2026-04-12T06:26:52.979Z</time></trkpt><trkpt lat="37.9185033" lon="15.9920283"><ele>18.0</ele><time>2026-04-12T06:26:53.979Z</time></trkpt><trkpt lat="37.9184933" lon="15.9921667"><ele>18.0</ele><time>2026-04-12T06:26:54.979Z</time></trkpt><trkpt lat="37.9184817" lon="15.992315"><ele>18.0</ele><time>2026-04-12T06:26:55.98Z</time></trkpt><trkpt lat="37.9184667" lon="15.992455"><ele>16.5</ele><time>2026-04-12T06:26:56.979Z</time></trkpt><trkpt lat="37.91845" lon="15.9926017"><ele>15.0</ele><time>2026-04-12T06:26:57.98Z</time></trkpt><trkpt lat="37.918425" lon="15.9927483"><ele>13.5</ele><time>2026-04-12T06:26:58.98Z</time></trkpt><trkpt lat="37.9183983" lon="15.9928967"><ele>12.0</ele><time>2026-04-12T06:26:59.979Z</time></trkpt><trkpt lat="37.9183667" lon="15.9930417"><ele>10.75</ele><time>2026-04-12T06:27:00.979Z</time></trkpt><trkpt lat="37.91833" lon="15.993195"><ele>9.5</ele><time>2026-04-12T06:27:01.979Z</time></trkpt><trkpt lat="37.9182883" lon="15.9933467"><ele>8.25</ele><time>2026-04-12T06:27:02.979Z</time></trkpt><trkpt lat="37.9182417" lon="15.9934983"><ele>7.0</ele><time>2026-04-12T06:27:03.979Z</time></trkpt><trkpt lat="37.9181967" lon="15.9936483"><ele>7.0</ele><time>2026-04-12T06:27:04.979Z</time></trkpt><trkpt lat="37.9181433" lon="15.993795"><ele>7.0</ele><time>2026-04-12T06:27:05.979Z</time></trkpt><trkpt lat="37.9180867" lon="15.9939483"><ele>7.0</ele><time>2026-04-12T06:27:06.98Z</time></trkpt><trkpt lat="37.9180317" lon="15.9941"><ele>7.0</ele><time>2026-04-12T06:27:07.98Z</time></trkpt><trkpt lat="37.9179817" lon="15.9942567"><ele>7.5</ele><time>2026-04-12T06:27:08.979Z</time></trkpt><trkpt lat="37.9179333" lon="15.994405"><ele>8.0</ele><time>2026-04-12T06:27:09.979Z</time></trkpt><trkpt lat="37.9178967" lon="15.9945567"><ele>8.5</ele><time>2026-04-12T06:27:10.979Z</time></trkpt><trkpt lat="37.917865" lon="15.9947183"><ele>9.0</ele><time>2026-04-12T06:27:11.979Z</time></trkpt><trkpt lat="37.9178533" lon="15.9948767"><ele>9.5</ele><time>2026-04-12T06:27:12.979Z</time></trkpt><trkpt lat="37.9178583" lon="15.9950383"><ele>10.0</ele><time>2026-04-12T06:27:13.979Z</time></trkpt><trkpt lat="37.917875" lon="15.9952117"><ele>10.5</ele><time>2026-04-12T06:27:14.98Z</time></trkpt><trkpt lat="37.9178933" lon="15.99538"><ele>11.0</ele><time>2026-04-12T06:27:15.98Z</time></trkpt><trkpt lat="37.9179117" lon="15.9955433"><ele>11.0</ele><time>2026-04-12T06:27:16.98Z</time></trkpt><trkpt lat="37.9179333" lon="15.9957"><ele>11.0</ele><time>2026-04-12T06:27:17.98Z</time></trkpt><trkpt lat="37.9179467" lon="15.9958567"><ele>11.0</ele><time>2026-04-12T06:27:18.979Z</time></trkpt><trkpt lat="37.9179583" lon="15.9960183"><ele>11.0</ele><time>2026-04-12T06:27:19.979Z</time></trkpt><trkpt lat="37.9179617" lon="15.9961867"><ele>11.5</ele><time>2026-04-12T06:27:20.979Z</time></trkpt><trkpt lat="37.91797" lon="15.996345"><ele>12.0</ele><time>2026-04-12T06:27:21.979Z</time></trkpt><trkpt lat="37.9179483" lon="15.9965017"><ele>12.5</ele><time>2026-04-12T06:27:22.979Z</time></trkpt><trkpt lat="37.9179" lon="15.99666"><ele>13.0</ele><time>2026-04-12T06:27:23.979Z</time></trkpt><trkpt lat="37.91783" lon="15.9967883"><ele>14.25</ele><time>2026-04-12T06:27:24.979Z</time></trkpt><trkpt lat="37.9177533" lon="15.9969167"><ele>15.5</ele><time>2026-04-12T06:27:25.979Z</time></trkpt><trkpt lat="37.9176633" lon="15.99704"><ele>16.75</ele><time>2026-04-12T06:27:26.979Z</time></trkpt><trkpt lat="37.9175817" lon="15.9971617"><ele>18.0</ele><time>2026-04-12T06:27:27.979Z</time></trkpt><trkpt lat="37.9174933" lon="15.997295"><ele>18.0</ele><time>2026-04-12T06:27:28.98Z</time></trkpt><trkpt lat="37.9174" lon="15.997415"><ele>18.0</ele><time>2026-04-12T06:27:29.978Z</time></trkpt><trkpt lat="37.9172917" lon="15.997505"><ele>18.0</ele><time>2026-04-12T06:27:30.979Z</time></trkpt><trkpt lat="37.9171567" lon="15.9975417"><ele>18.0</ele><time>2026-04-12T06:27:31.979Z</time></trkpt><trkpt lat="37.91702" lon="15.9975233"><ele>18.0</ele><time>2026-04-12T06:27:32.979Z</time></trkpt><trkpt lat="37.91689" lon="15.9974983"><ele>18.0</ele><time>2026-04-12T06:27:33.979Z</time></trkpt><trkpt lat="37.9167617" lon="15.9974833"><ele>18.0</ele><time>2026-04-12T06:27:34.979Z</time></trkpt><trkpt lat="37.9166283" lon="15.9975117"><ele>18.0</ele><time>2026-04-12T06:27:35.979Z</time></trkpt><trkpt lat="37.9165117" lon="15.9975783"><ele>18.25</ele><time>2026-04-12T06:27:36.98Z</time></trkpt><trkpt lat="37.9164017" lon="15.9976933"><ele>18.5</ele><time>2026-04-12T06:27:37.979Z</time></trkpt><trkpt lat="37.9163267" lon="15.997835"><ele>18.75</ele><time>2026-04-12T06:27:38.979Z</time></trkpt><trkpt lat="37.9162967" lon="15.9979967"><ele>19.0</ele><time>2026-04-12T06:27:39.979Z</time></trkpt><trkpt lat="37.916295" lon="15.9981667"><ele>17.0</ele><time>2026-04-12T06:27:40.98Z</time></trkpt><trkpt lat="37.9163217" lon="15.9983433"><ele>15.0</ele><time>2026-04-12T06:27:41.979Z</time></trkpt><trkpt lat="37.91638" lon="15.99849"><ele>13.0</ele><time>2026-04-12T06:27:42.979Z</time></trkpt><trkpt lat="37.9164533" lon="15.9986333"><ele>11.0</ele><time>2026-04-12T06:27:43.979Z</time></trkpt><trkpt lat="37.9165333" lon="15.9987783"><ele>11.0</ele><time>2026-04-12T06:27:44.979Z</time></trkpt><trkpt lat="37.9166217" lon="15.9989083"><ele>11.0</ele><time>2026-04-12T06:27:45.979Z</time></trkpt><trkpt lat="37.9167317" lon="15.9990117"><ele>11.0</ele><time>2026-04-12T06:27:46.979Z</time></trkpt><trkpt lat="37.916855" lon="15.9990833"><ele>11.0</ele><time>2026-04-12T06:27:47.979Z</time></trkpt><trkpt lat="37.9169667" lon="15.9991817"><ele>12.25</ele><time>2026-04-12T06:27:48.98Z</time></trkpt><trkpt lat="37.9170567" lon="15.9993067"><ele>13.5</ele><time>2026-04-12T06:27:49.979Z</time></trkpt><trkpt lat="37.9171317" lon="15.99946"><ele>14.75</ele><time>2026-04-12T06:27:50.979Z</time></trkpt><trkpt lat="37.9172133" lon="15.9996017"><ele>16.0</ele><time>2026-04-12T06:27:51.98Z</time></trkpt><trkpt lat="37.9173067" lon="15.999735"><ele>16.0</ele><time>2026-04-12T06:27:52.979Z</time></trkpt><trkpt lat="37.917405" lon="15.9998683"><ele>16.0</ele><time>2026-04-12T06:27:53.979Z</time></trkpt><trkpt lat="37.9175083" lon="16.0000133"><ele>16.0</ele><time>2026-04-12T06:27:54.979Z</time></trkpt><trkpt lat="37.9176033" lon="16.0001667"><ele>22.666666666666664</ele><time>2026-04-12T06:27:55.98Z</time></trkpt><trkpt lat="37.9176917" lon="16.0003433"><ele>29.333333333333332</ele><time>2026-04-12T06:27:56.979Z</time></trkpt><trkpt lat="37.917785" lon="16.00053"><ele>36.0</ele><time>2026-04-12T06:27:57.98Z</time></trkpt><trkpt lat="37.9178783" lon="16.00071"><ele>32.0</ele><time>2026-04-12T06:27:58.979Z</time></trkpt><trkpt lat="37.9179617" lon="16.0008967"><ele>28.0</ele><time>2026-04-12T06:27:59.98Z</time></trkpt><trkpt lat="37.91805" lon="16.0010783"><ele>24.0</ele><time>2026-04-12T06:28:00.979Z</time></trkpt><trkpt lat="37.918145" lon="16.0012717"><ele>24.0</ele><time>2026-04-12T06:28:01.979Z</time></trkpt><trkpt lat="37.9182467" lon="16.0014617"><ele>24.0</ele><time>2026-04-12T06:28:02.979Z</time></trkpt><trkpt lat="37.9183433" lon="16.0016483"><ele>24.0</ele><time>2026-04-12T06:28:03.98Z</time></trkpt><trkpt lat="37.9184417" lon="16.0018433"><ele>30.333333333333336</ele><time>2026-04-12T06:28:04.98Z</time></trkpt><trkpt lat="37.91854" lon="16.0020317"><ele>36.66666666666667</ele><time>2026-04-12T06:28:05.979Z</time></trkpt><trkpt lat="37.9186417" lon="16.002225"><ele>43.0</ele><time>2026-04-12T06:28:06.979Z</time></trkpt><trkpt lat="37.9187367" lon="16.00242"><ele>36.66666666666667</ele><time>2026-04-12T06:28:07.979Z</time></trkpt><trkpt lat="37.9188233" lon="16.0026133"><ele>30.333333333333336</ele><time>2026-04-12T06:28:08.979Z</time></trkpt><trkpt lat="37.9188967" lon="16.0028167"><ele>24.0</ele><time>2026-04-12T06:28:09.979Z</time></trkpt><trkpt lat="37.91897" lon="16.00304"><ele>24.0</ele><time>2026-04-12T06:28:10.98Z</time></trkpt><trkpt lat="37.9190083" lon="16.003265"><ele>24.0</ele><time>2026-04-12T06:28:11.98Z</time></trkpt><trkpt lat="37.9190383" lon="16.0034933"><ele>24.0</ele><time>2026-04-12T06:28:12.979Z</time></trkpt><trkpt lat="37.91908" lon="16.0037167"><ele>20.666666666666668</ele><time>2026-04-12T06:28:13.979Z</time></trkpt><trkpt lat="37.919125" lon="16.003945"><ele>17.333333333333336</ele><time>2026-04-12T06:28:14.979Z</time></trkpt><trkpt lat="37.91917" lon="16.0041617"><ele>14.0</ele><time>2026-04-12T06:28:15.979Z</time></trkpt><trkpt lat="37.919215" lon="16.0043817"><ele>15.333333333333334</ele><time>2026-04-12T06:28:16.979Z</time></trkpt><trkpt lat="37.919255" lon="16.004605"><ele>16.666666666666668</ele><time>2026-04-12T06:28:17.979Z</time></trkpt><trkpt lat="37.9192983" lon="16.0048333"><ele>18.0</ele><time>2026-04-12T06:28:18.979Z</time></trkpt><trkpt lat="37.9193483" lon="16.0050567"><ele>18.0</ele><time>2026-04-12T06:28:19.98Z</time></trkpt><trkpt lat="37.9193933" lon="16.0052717"><ele>18.0</ele><time>2026-04-12T06:28:20.979Z</time></trkpt><trkpt lat="37.9194367" lon="16.0055017"><ele>18.0</ele><time>2026-04-12T06:28:21.979Z</time></trkpt><trkpt lat="37.919475" lon="16.00573"><ele>17.333333333333332</ele><time>2026-04-12T06:28:22.979Z</time></trkpt><trkpt lat="37.91952" lon="16.00596"><ele>16.666666666666664</ele><time>2026-04-12T06:28:23.98Z</time></trkpt><trkpt lat="37.9195567" lon="16.006185"><ele>16.0</ele><time>2026-04-12T06:28:24.979Z</time></trkpt><trkpt lat="37.9195867" lon="16.0064033"><ele>16.0</ele><time>2026-04-12T06:28:25.979Z</time></trkpt><trkpt lat="37.9196167" lon="16.0066317"><ele>16.0</ele><time>2026-04-12T06:28:26.979Z</time></trkpt><trkpt lat="37.91964" lon="16.00686"><ele>16.0</ele><time>2026-04-12T06:28:27.979Z</time></trkpt><trkpt lat="37.9196767" lon="16.0070867"><ele>15.666666666666666</ele><time>2026-04-12T06:28:28.979Z</time></trkpt><trkpt lat="37.91972" lon="16.0073167"><ele>15.333333333333332</ele><time>2026-04-12T06:28:29.98Z</time></trkpt><trkpt lat="37.9197667" lon="16.0075433"><ele>15.0</ele><time>2026-04-12T06:28:30.979Z</time></trkpt><trkpt lat="37.9198083" lon="16.0077717"><ele>14.666666666666668</ele><time>2026-04-12T06:28:31.979Z</time></trkpt><trkpt lat="37.91984" lon="16.00799"><ele>14.333333333333334</ele><time>2026-04-12T06:28:32.979Z</time></trkpt><trkpt lat="37.919865" lon="16.0082167"><ele>14.0</ele><time>2026-04-12T06:28:33.979Z</time></trkpt><trkpt lat="37.919895" lon="16.0084483"><ele>13.666666666666668</ele><time>2026-04-12T06:28:34.98Z</time></trkpt><trkpt lat="37.91993" lon="16.0086783"><ele>13.333333333333332</ele><time>2026-04-12T06:28:35.98Z</time></trkpt><trkpt lat="37.919975" lon="16.0089117"><ele>13.0</ele><time>2026-04-12T06:28:36.979Z</time></trkpt><trkpt lat="37.9200083" lon="16.0091483"><ele>13.333333333333332</ele><time>2026-04-12T06:28:37.98Z</time></trkpt><trkpt lat="37.9200483" lon="16.00937"><ele>13.666666666666668</ele><time>2026-04-12T06:28:38.979Z</time></trkpt><trkpt lat="37.920105" lon="16.0096017"><ele>14.0</ele><time>2026-04-12T06:28:39.979Z</time></trkpt><trkpt lat="37.9201583" lon="16.0098267"><ele>12.666666666666668</ele><time>2026-04-12T06:28:40.98Z</time></trkpt><trkpt lat="37.9202167" lon="16.0100433"><ele>11.333333333333334</ele><time>2026-04-12T06:28:41.979Z</time></trkpt><trkpt lat="37.9202733" lon="16.01027"><ele>10.0</ele><time>2026-04-12T06:28:42.98Z</time></trkpt><trkpt lat="37.9203383" lon="16.01048"><ele>10.0</ele><time>2026-04-12T06:28:43.979Z</time></trkpt><trkpt lat="37.9204033" lon="16.010695"><ele>10.0</ele><time>2026-04-12T06:28:44.979Z</time></trkpt><trkpt lat="37.9204633" lon="16.0109117"><ele>10.0</ele><time>2026-04-12T06:28:45.98Z</time></trkpt><trkpt lat="37.92053" lon="16.01111"><ele>9.0</ele><time>2026-04-12T06:28:46.979Z</time></trkpt><trkpt lat="37.92062" lon="16.0113067"><ele>8.0</ele><time>2026-04-12T06:28:47.979Z</time></trkpt><trkpt lat="37.9207233" lon="16.0114817"><ele>7.0</ele><time>2026-04-12T06:28:48.979Z</time></trkpt><trkpt lat="37.9208533" lon="16.011645"><ele>8.0</ele><time>2026-04-12T06:28:49.979Z</time></trkpt><trkpt lat="37.92099" lon="16.0117967"><ele>9.0</ele><time>2026-04-12T06:28:50.979Z</time></trkpt><trkpt lat="37.9211267" lon="16.011955"><ele>10.0</ele><time>2026-04-12T06:28:51.979Z</time></trkpt><trkpt lat="37.9212533" lon="16.0121167"><ele>10.0</ele><time>2026-04-12T06:28:52.979Z</time></trkpt><trkpt lat="37.9213683" lon="16.0122817"><ele>10.0</ele><time>2026-04-12T06:28:53.979Z</time></trkpt><trkpt lat="37.92148" lon="16.0124533"><ele>10.0</ele><time>2026-04-12T06:28:54.979Z</time></trkpt><trkpt lat="37.921585" lon="16.0126283"><ele>9.333333333333334</ele><time>2026-04-12T06:28:55.979Z</time></trkpt><trkpt lat="37.9216867" lon="16.0128083"><ele>8.666666666666666</ele><time>2026-04-12T06:28:56.979Z</time></trkpt><trkpt lat="37.92177" lon="16.0130067"><ele>8.0</ele><time>2026-04-12T06:28:57.979Z</time></trkpt><trkpt lat="37.9218433" lon="16.0132167"><ele>9.666666666666666</ele><time>2026-04-12T06:28:58.98Z</time></trkpt><trkpt lat="37.921905" lon="16.0134283"><ele>11.333333333333332</ele><time>2026-04-12T06:28:59.979Z</time></trkpt><trkpt lat="37.9219483" lon="16.01364"><ele>13.0</ele><time>2026-04-12T06:29:00.979Z</time></trkpt><trkpt lat="37.9219783" lon="16.0138567"><ele>13.0</ele><time>2026-04-12T06:29:01.979Z</time></trkpt><trkpt lat="37.9220233" lon="16.0140783"><ele>13.0</ele><time>2026-04-12T06:29:02.98Z</time></trkpt><trkpt lat="37.9220633" lon="16.0143017"><ele>13.0</ele><time>2026-04-12T06:29:03.979Z</time></trkpt><trkpt lat="37.9221167" lon="16.01453"><ele>13.0</ele><time>2026-04-12T06:29:04.979Z</time></trkpt><trkpt lat="37.9221683" lon="16.014755"><ele>13.0</ele><time>2026-04-12T06:29:05.98Z</time></trkpt><trkpt lat="37.92222" lon="16.01499"><ele>13.0</ele><time>2026-04-12T06:29:06.98Z</time></trkpt><trkpt lat="37.9222817" lon="16.0152233"><ele>12.333333333333332</ele><time>2026-04-12T06:29:07.98Z</time></trkpt><trkpt lat="37.9223417" lon="16.01545"><ele>11.666666666666666</ele><time>2026-04-12T06:29:08.979Z</time></trkpt><trkpt lat="37.9223967" lon="16.0156917"><ele>11.0</ele><time>2026-04-12T06:29:09.979Z</time></trkpt><trkpt lat="37.9224533" lon="16.01592"><ele>10.333333333333332</ele><time>2026-04-12T06:29:10.98Z</time></trkpt><trkpt lat="37.9225033" lon="16.016165"><ele>9.666666666666666</ele><time>2026-04-12T06:29:11.98Z</time></trkpt><trkpt lat="37.922545" lon="16.016395"><ele>9.0</ele><time>2026-04-12T06:29:12.979Z</time></trkpt><trkpt lat="37.922585" lon="16.0166367"><ele>11.333333333333332</ele><time>2026-04-12T06:29:13.98Z</time></trkpt><trkpt lat="37.9226317" lon="16.01687"><ele>13.666666666666666</ele><time>2026-04-12T06:29:14.979Z</time></trkpt><trkpt lat="37.9226783" lon="16.0171067"><ele>16.0</ele><time>2026-04-12T06:29:15.979Z</time></trkpt><trkpt lat="37.9227183" lon="16.017335"><ele>16.0</ele><time>2026-04-12T06:29:16.979Z</time></trkpt><trkpt lat="37.9227567" lon="16.0175733"><ele>16.0</ele><time>2026-04-12T06:29:17.98Z</time></trkpt><trkpt lat="37.9228" lon="16.0178067"><ele>16.0</ele><time>2026-04-12T06:29:18.979Z</time></trkpt><trkpt lat="37.9228417" lon="16.018045"><ele>16.0</ele><time>2026-04-12T06:29:19.979Z</time></trkpt><trkpt lat="37.9228867" lon="16.0182833"><ele>16.0</ele><time>2026-04-12T06:29:20.979Z</time></trkpt><trkpt lat="37.9229333" lon="16.0185183"><ele>16.0</ele><time>2026-04-12T06:29:21.979Z</time></trkpt><trkpt lat="37.9229733" lon="16.018755"><ele>15.333333333333332</ele><time>2026-04-12T06:29:22.979Z</time></trkpt><trkpt lat="37.9230183" lon="16.0189917"><ele>14.666666666666668</ele><time>2026-04-12T06:29:23.979Z</time></trkpt><trkpt lat="37.923065" lon="16.0192317"><ele>14.0</ele><time>2026-04-12T06:29:24.979Z</time></trkpt><trkpt lat="37.9231083" lon="16.0194667"><ele>12.666666666666668</ele><time>2026-04-12T06:29:25.979Z</time></trkpt><trkpt lat="37.9231467" lon="16.0197067"><ele>11.333333333333334</ele><time>2026-04-12T06:29:26.979Z</time></trkpt><trkpt lat="37.92319" lon="16.0199367"><ele>10.0</ele><time>2026-04-12T06:29:27.979Z</time></trkpt><trkpt lat="37.92323" lon="16.02017"><ele>10.0</ele><time>2026-04-12T06:29:28.979Z</time></trkpt><trkpt lat="37.9232717" lon="16.0204033"><ele>10.0</ele><time>2026-04-12T06:29:29.979Z</time></trkpt><trkpt lat="37.923315" lon="16.02064"><ele>10.0</ele><time>2026-04-12T06:29:30.979Z</time></trkpt><trkpt lat="37.9233567" lon="16.020885"><ele>9.333333333333334</ele><time>2026-04-12T06:29:31.979Z</time></trkpt><trkpt lat="37.9233967" lon="16.02113"><ele>8.666666666666666</ele><time>2026-04-12T06:29:32.98Z</time></trkpt><trkpt lat="37.9234417" lon="16.0213867"><ele>8.0</ele><time>2026-04-12T06:29:33.979Z</time></trkpt><trkpt lat="37.9234783" lon="16.021635"><ele>10.666666666666666</ele><time>2026-04-12T06:29:34.979Z</time></trkpt><trkpt lat="37.9235267" lon="16.0218817"><ele>13.333333333333332</ele><time>2026-04-12T06:29:35.979Z</time></trkpt><trkpt lat="37.9235717" lon="16.0221383"><ele>16.0</ele><time>2026-04-12T06:29:36.979Z</time></trkpt><trkpt lat="37.9236133" lon="16.0223917"><ele>16.333333333333332</ele><time>2026-04-12T06:29:37.979Z</time></trkpt><trkpt lat="37.9236533" lon="16.0226483"><ele>16.666666666666668</ele><time>2026-04-12T06:29:38.979Z</time></trkpt><trkpt lat="37.9236967" lon="16.0229033"><ele>17.0</ele><time>2026-04-12T06:29:39.979Z</time></trkpt><trkpt lat="37.9237383" lon="16.0231533"><ele>16.333333333333336</ele><time>2026-04-12T06:29:40.979Z</time></trkpt><trkpt lat="37.9237833" lon="16.02341"><ele>15.666666666666668</ele><time>2026-04-12T06:29:41.979Z</time></trkpt><trkpt lat="37.923835" lon="16.0236667"><ele>15.0</ele><time>2026-04-12T06:29:42.98Z</time></trkpt><trkpt lat="37.9238883" lon="16.0239233"><ele>13.666666666666666</ele><time>2026-04-12T06:29:43.979Z</time></trkpt><trkpt lat="37.9239483" lon="16.0241817"><ele>12.333333333333332</ele><time>2026-04-12T06:29:44.979Z</time></trkpt><trkpt lat="37.924005" lon="16.0244367"><ele>11.0</ele><time>2026-04-12T06:29:45.979Z</time></trkpt><trkpt lat="37.9240517" lon="16.02469"><ele>11.0</ele><time>2026-04-12T06:29:46.979Z</time></trkpt><trkpt lat="37.924105" lon="16.024945"><ele>11.0</ele><time>2026-04-12T06:29:47.979Z</time></trkpt><trkpt lat="37.9241517" lon="16.0251983"><ele>11.0</ele><time>2026-04-12T06:29:48.98Z</time></trkpt><trkpt lat="37.9241733" lon="16.0254483"><ele>10.666666666666666</ele><time>2026-04-12T06:29:49.98Z</time></trkpt><trkpt lat="37.9241717" lon="16.0257117"><ele>10.333333333333334</ele><time>2026-04-12T06:29:50.979Z</time></trkpt><trkpt lat="37.9241517" lon="16.0259667"><ele>10.0</ele><time>2026-04-12T06:29:51.979Z</time></trkpt><trkpt lat="37.9241267" lon="16.0262233"><ele>10.666666666666668</ele><time>2026-04-12T06:29:52.98Z</time></trkpt><trkpt lat="37.9241183" lon="16.0264833"><ele>11.333333333333334</ele><time>2026-04-12T06:29:53.979Z</time></trkpt><trkpt lat="37.9241233" lon="16.0267417"><ele>12.0</ele><time>2026-04-12T06:29:54.979Z</time></trkpt><trkpt lat="37.92413" lon="16.0270017"><ele>12.666666666666668</ele><time>2026-04-12T06:29:55.979Z</time></trkpt><trkpt lat="37.9241283" lon="16.0272683"><ele>13.333333333333334</ele><time>2026-04-12T06:29:56.979Z</time></trkpt><trkpt lat="37.924125" lon="16.0275217"><ele>14.0</ele><time>2026-04-12T06:29:57.979Z</time></trkpt><trkpt lat="37.9241183" lon="16.0277767"><ele>14.0</ele><time>2026-04-12T06:29:58.979Z</time></trkpt><trkpt lat="37.9241033" lon="16.0280317"><ele>14.0</ele><time>2026-04-12T06:29:59.979Z</time></trkpt><trkpt lat="37.9240783" lon="16.0282967"><ele>14.0</ele><time>2026-04-12T06:30:00.98Z</time></trkpt><trkpt lat="37.9240367" lon="16.0285483"><ele>14.0</ele><time>2026-04-12T06:30:01.979Z</time></trkpt><trkpt lat="37.9239967" lon="16.0288"><ele>14.0</ele><time>2026-04-12T06:30:02.979Z</time></trkpt><trkpt lat="37.9239667" lon="16.0290683"><ele>14.0</ele><time>2026-04-12T06:30:03.98Z</time></trkpt><trkpt lat="37.9239433" lon="16.0293433"><ele>14.0</ele><time>2026-04-12T06:30:04.979Z</time></trkpt><trkpt lat="37.9239317" lon="16.029625"><ele>14.0</ele><time>2026-04-12T06:30:05.98Z</time></trkpt><trkpt lat="37.9239517" lon="16.0298967"><ele>14.0</ele><time>2026-04-12T06:30:06.979Z</time></trkpt><trkpt lat="37.9239683" lon="16.0301783"><ele>13.666666666666668</ele><time>2026-04-12T06:30:07.979Z</time></trkpt><trkpt lat="37.9239917" lon="16.030455"><ele>13.333333333333332</ele><time>2026-04-12T06:30:08.98Z</time></trkpt><trkpt lat="37.924005" lon="16.0307367"><ele>13.0</ele><time>2026-04-12T06:30:09.979Z</time></trkpt><trkpt lat="37.9240217" lon="16.0310283"><ele>13.0</ele><time>2026-04-12T06:30:10.979Z</time></trkpt><trkpt lat="37.92404" lon="16.0313083"><ele>13.0</ele><time>2026-04-12T06:30:11.98Z</time></trkpt><trkpt lat="37.92407" lon="16.03158"><ele>13.0</ele><time>2026-04-12T06:30:12.98Z</time></trkpt><trkpt lat="37.92411" lon="16.0318583"><ele>12.666666666666666</ele><time>2026-04-12T06:30:13.98Z</time></trkpt><trkpt lat="37.9241633" lon="16.0321267"><ele>12.333333333333332</ele><time>2026-04-12T06:30:14.979Z</time></trkpt><trkpt lat="37.9242133" lon="16.0323967"><ele>12.0</ele><time>2026-04-12T06:30:15.979Z</time></trkpt><trkpt lat="37.9242367" lon="16.0326617"><ele>11.666666666666666</ele><time>2026-04-12T06:30:16.979Z</time></trkpt><trkpt lat="37.9242367" lon="16.0329267"><ele>11.333333333333332</ele><time>2026-04-12T06:30:17.979Z</time></trkpt><trkpt lat="37.9242183" lon="16.0332033"><ele>11.0</ele><time>2026-04-12T06:30:18.979Z</time></trkpt><trkpt lat="37.924205" lon="16.0334767"><ele>11.666666666666666</ele><time>2026-04-12T06:30:19.979Z</time></trkpt><trkpt lat="37.9242233" lon="16.0337483"><ele>12.333333333333332</ele><time>2026-04-12T06:30:20.979Z</time></trkpt><trkpt lat="37.924275" lon="16.0340117"><ele>13.0</ele><time>2026-04-12T06:30:21.979Z</time></trkpt><trkpt lat="37.924345" lon="16.03428"><ele>16.666666666666664</ele><time>2026-04-12T06:30:22.98Z</time></trkpt><trkpt lat="37.9244133" lon="16.03455"><ele>20.333333333333332</ele><time>2026-04-12T06:30:23.98Z</time></trkpt><trkpt lat="37.92448" lon="16.0348217"><ele>24.0</ele><time>2026-04-12T06:30:24.979Z</time></trkpt><trkpt lat="37.9245517" lon="16.035095"><ele>24.0</ele><time>2026-04-12T06:30:25.979Z</time></trkpt><trkpt lat="37.924625" lon="16.03535"><ele>24.0</ele><time>2026-04-12T06:30:26.98Z</time></trkpt><trkpt lat="37.9247117" lon="16.0355967"><ele>24.0</ele><time>2026-04-12T06:30:27.979Z</time></trkpt><trkpt lat="37.9247867" lon="16.03585"><ele>20.666666666666668</ele><time>2026-04-12T06:30:28.979Z</time></trkpt><trkpt lat="37.924825" lon="16.0361133"><ele>17.333333333333336</ele><time>2026-04-12T06:30:29.979Z</time></trkpt><trkpt lat="37.9248383" lon="16.0363883"><ele>14.0</ele><time>2026-04-12T06:30:30.979Z</time></trkpt><trkpt lat="37.9248" lon="16.0366533"><ele>14.0</ele><time>2026-04-12T06:30:31.979Z</time></trkpt><trkpt lat="37.9247717" lon="16.03692"><ele>14.0</ele><time>2026-04-12T06:30:32.979Z</time></trkpt><trkpt lat="37.9247283" lon="16.0372"><ele>14.0</ele><time>2026-04-12T06:30:33.979Z</time></trkpt><trkpt lat="37.9246967" lon="16.03748"><ele>14.0</ele><time>2026-04-12T06:30:34.979Z</time></trkpt><trkpt lat="37.924675" lon="16.0377667"><ele>14.0</ele><time>2026-04-12T06:30:35.98Z</time></trkpt><trkpt lat="37.9246417" lon="16.038045"><ele>14.0</ele><time>2026-04-12T06:30:36.979Z</time></trkpt><trkpt lat="37.9246117" lon="16.0383283"><ele>14.0</ele><time>2026-04-12T06:30:37.979Z</time></trkpt><trkpt lat="37.9245867" lon="16.0386167"><ele>14.0</ele><time>2026-04-12T06:30:38.98Z</time></trkpt><trkpt lat="37.924565" lon="16.0389"><ele>15.333333333333334</ele><time>2026-04-12T06:30:39.98Z</time></trkpt><trkpt lat="37.9245383" lon="16.0391767"><ele>16.666666666666668</ele><time>2026-04-12T06:30:40.981Z</time></trkpt><trkpt lat="37.9245033" lon="16.0394517"><ele>18.0</ele><time>2026-04-12T06:30:41.98Z</time></trkpt><trkpt lat="37.9244783" lon="16.0397117"><ele>18.666666666666668</ele><time>2026-04-12T06:30:42.98Z</time></trkpt><trkpt lat="37.9244367" lon="16.0399733"><ele>19.333333333333336</ele><time>2026-04-12T06:30:43.98Z</time></trkpt><trkpt lat="37.9243467" lon="16.0402067"><ele>20.0</ele><time>2026-04-12T06:30:44.98Z</time></trkpt><trkpt lat="37.924255" lon="16.0404383"><ele>17.666666666666668</ele><time>2026-04-12T06:30:45.98Z</time></trkpt><trkpt lat="37.9241417" lon="16.0406667"><ele>15.333333333333332</ele><time>2026-04-12T06:30:46.98Z</time></trkpt><trkpt lat="37.92403" lon="16.0409083"><ele>13.0</ele><time>2026-04-12T06:30:47.98Z</time></trkpt><trkpt lat="37.923915" lon="16.041155"><ele>13.0</ele><time>2026-04-12T06:30:48.98Z</time></trkpt><trkpt lat="37.923795" lon="16.0414083"><ele>13.0</ele><time>2026-04-12T06:30:49.98Z</time></trkpt><trkpt lat="37.9236717" lon="16.0416583"><ele>14.0</ele><time>2026-04-12T06:30:50.98Z</time></trkpt><trkpt lat="37.9235517" lon="16.041905"><ele>15.0</ele><time>2026-04-12T06:30:51.98Z</time></trkpt><trkpt lat="37.9234317" lon="16.042155"><ele>12.5</ele><time>2026-04-12T06:30:52.981Z</time></trkpt><trkpt lat="37.9233317" lon="16.0424183"><ele>10.0</ele><time>2026-04-12T06:30:53.98Z</time></trkpt><trkpt lat="37.9232583" lon="16.04269"><ele>10.0</ele><time>2026-04-12T06:30:54.98Z</time></trkpt><trkpt lat="37.9232083" lon="16.0429717"><ele>10.0</ele><time>2026-04-12T06:30:55.98Z</time></trkpt><trkpt lat="37.923185" lon="16.043255"><ele>9.5</ele><time>2026-04-12T06:30:56.981Z</time></trkpt><trkpt lat="37.923175" lon="16.043545"><ele>9.0</ele><time>2026-04-12T06:30:57.98Z</time></trkpt><trkpt lat="37.9231533" lon="16.0438383"><ele>9.0</ele><time>2026-04-12T06:30:58.98Z</time></trkpt><trkpt lat="37.9231383" lon="16.0441233"><ele>9.0</ele><time>2026-04-12T06:30:59.98Z</time></trkpt><trkpt lat="37.9231217" lon="16.0444117"><ele>9.0</ele><time>2026-04-12T06:31:00.98Z</time></trkpt><trkpt lat="37.9231067" lon="16.0446833"><ele>9.0</ele><time>2026-04-12T06:31:01.98Z</time></trkpt><trkpt lat="37.9230967" lon="16.0449433"><ele>9.0</ele><time>2026-04-12T06:31:02.98Z</time></trkpt><trkpt lat="37.92312" lon="16.0452083"><ele>9.666666666666666</ele><time>2026-04-12T06:31:03.98Z</time></trkpt><trkpt lat="37.9231867" lon="16.0454467"><ele>10.333333333333332</ele><time>2026-04-12T06:31:04.98Z</time></trkpt><trkpt lat="37.9232767" lon="16.045695"><ele>11.0</ele><time>2026-04-12T06:31:05.98Z</time></trkpt><trkpt lat="37.923365" lon="16.0459517"><ele>15.0</ele><time>2026-04-12T06:31:06.98Z</time></trkpt><trkpt lat="37.9234567" lon="16.04622"><ele>19.0</ele><time>2026-04-12T06:31:07.98Z</time></trkpt><trkpt lat="37.9235417" lon="16.0464883"><ele>18.5</ele><time>2026-04-12T06:31:08.98Z</time></trkpt><trkpt lat="37.923625" lon="16.0467567"><ele>18.0</ele><time>2026-04-12T06:31:09.98Z</time></trkpt><trkpt lat="37.92371" lon="16.0470217"><ele>18.0</ele><time>2026-04-12T06:31:10.981Z</time></trkpt><trkpt lat="37.92379" lon="16.0472967"><ele>18.0</ele><time>2026-04-12T06:31:11.98Z</time></trkpt><trkpt lat="37.923865" lon="16.047575"><ele>16.5</ele><time>2026-04-12T06:31:12.98Z</time></trkpt><trkpt lat="37.9239267" lon="16.0478683"><ele>15.0</ele><time>2026-04-12T06:31:13.98Z</time></trkpt><trkpt lat="37.92398" lon="16.0481733"><ele>13.0</ele><time>2026-04-12T06:31:14.98Z</time></trkpt><trkpt lat="37.924025" lon="16.04848"><ele>11.0</ele><time>2026-04-12T06:31:15.98Z</time></trkpt><trkpt lat="37.9240683" lon="16.04879"><ele>11.0</ele><time>2026-04-12T06:31:16.98Z</time></trkpt><trkpt lat="37.9241117" lon="16.049105"><ele>11.0</ele><time>2026-04-12T06:31:17.98Z</time></trkpt><trkpt lat="37.9241667" lon="16.04942"><ele>10.0</ele><time>2026-04-12T06:31:18.98Z</time></trkpt><trkpt lat="37.9242167" lon="16.0497317"><ele>9.0</ele><time>2026-04-12T06:31:19.98Z</time></trkpt><trkpt lat="37.9242633" lon="16.05005"><ele>14.0</ele><time>2026-04-12T06:31:20.981Z</time></trkpt><trkpt lat="37.9242967" lon="16.0503633"><ele>19.0</ele><time>2026-04-12T06:31:21.981Z</time></trkpt><trkpt lat="37.9243133" lon="16.0506883"><ele>20.5</ele><time>2026-04-12T06:31:22.981Z</time></trkpt><trkpt lat="37.9243167" lon="16.0510083"><ele>22.0</ele><time>2026-04-12T06:31:23.98Z</time></trkpt><trkpt lat="37.92432" lon="16.0513267"><ele>22.5</ele><time>2026-04-12T06:31:24.981Z</time></trkpt><trkpt lat="37.92433" lon="16.0516333"><ele>23.0</ele><time>2026-04-12T06:31:25.98Z</time></trkpt><trkpt lat="37.9243433" lon="16.0519433"><ele>23.0</ele><time>2026-04-12T06:31:26.98Z</time></trkpt><trkpt lat="37.92437" lon="16.0522517"><ele>23.0</ele><time>2026-04-12T06:31:27.981Z</time></trkpt><trkpt lat="37.924405" lon="16.052555"><ele>20.5</ele><time>2026-04-12T06:31:28.98Z</time></trkpt><trkpt lat="37.9244433" lon="16.0528483"><ele>18.0</ele><time>2026-04-12T06:31:29.98Z</time></trkpt><trkpt lat="37.92448" lon="16.053145"><ele>15.0</ele><time>2026-04-12T06:31:30.981Z</time></trkpt><trkpt lat="37.924515" lon="16.0534333"><ele>12.0</ele><time>2026-04-12T06:31:31.981Z</time></trkpt><trkpt lat="37.924545" lon="16.0537317"><ele>12.0</ele><time>2026-04-12T06:31:32.98Z</time></trkpt><trkpt lat="37.9245733" lon="16.0540317"><ele>12.0</ele><time>2026-04-12T06:31:33.98Z</time></trkpt><trkpt lat="37.9246033" lon="16.0543333"><ele>15.5</ele><time>2026-04-12T06:31:34.98Z</time></trkpt><trkpt lat="37.9246183" lon="16.0546417"><ele>19.0</ele><time>2026-04-12T06:31:35.981Z</time></trkpt><trkpt lat="37.9246367" lon="16.0549433"><ele>24.5</ele><time>2026-04-12T06:31:36.98Z</time></trkpt><trkpt lat="37.92465" lon="16.0552483"><ele>30.0</ele><time>2026-04-12T06:31:37.98Z</time></trkpt><trkpt lat="37.92467" lon="16.0555567"><ele>30.0</ele><time>2026-04-12T06:31:38.98Z</time></trkpt><trkpt lat="37.924695" lon="16.0558717"><ele>30.0</ele><time>2026-04-12T06:31:39.98Z</time></trkpt><trkpt lat="37.9247333" lon="16.056185"><ele>30.0</ele><time>2026-04-12T06:31:40.981Z</time></trkpt><trkpt lat="37.92478" lon="16.0565017"><ele>30.0</ele><time>2026-04-12T06:31:41.98Z</time></trkpt><trkpt lat="37.924825" lon="16.05681"><ele>26.5</ele><time>2026-04-12T06:31:42.98Z</time></trkpt><trkpt lat="37.9248683" lon="16.057125"><ele>23.0</ele><time>2026-04-12T06:31:43.981Z</time></trkpt><trkpt lat="37.9249067" lon="16.0574417"><ele>21.0</ele><time>2026-04-12T06:31:44.98Z</time></trkpt><trkpt lat="37.9249517" lon="16.0577633"><ele>19.0</ele><time>2026-04-12T06:31:45.98Z</time></trkpt><trkpt lat="37.9249867" lon="16.0580767"><ele>17.5</ele><time>2026-04-12T06:31:46.981Z</time></trkpt><trkpt lat="37.9250183" lon="16.0583917"><ele>16.0</ele><time>2026-04-12T06:31:47.98Z</time></trkpt><trkpt lat="37.9250467" lon="16.05871"><ele>31.0</ele><time>2026-04-12T06:31:48.98Z</time></trkpt><trkpt lat="37.92507" lon="16.059035"><ele>46.0</ele><time>2026-04-12T06:31:49.98Z</time></trkpt><trkpt lat="37.92509" lon="16.0593633"><ele>46.0</ele><time>2026-04-12T06:31:50.98Z</time></trkpt><trkpt lat="37.92511" lon="16.05969"><ele>46.0</ele><time>2026-04-12T06:31:51.981Z</time></trkpt><trkpt lat="37.92512" lon="16.0600183"><ele>41.5</ele><time>2026-04-12T06:31:52.981Z</time></trkpt><trkpt lat="37.9251183" lon="16.06034"><ele>37.0</ele><time>2026-04-12T06:31:53.98Z</time></trkpt><trkpt lat="37.92512" lon="16.06066"><ele>34.5</ele><time>2026-04-12T06:31:54.981Z</time></trkpt><trkpt lat="37.9251383" lon="16.0609733"><ele>32.0</ele><time>2026-04-12T06:31:55.98Z</time></trkpt><trkpt lat="37.92518" lon="16.0612717"><ele>32.0</ele><time>2026-04-12T06:31:56.981Z</time></trkpt><trkpt lat="37.9252433" lon="16.06157"><ele>32.0</ele><time>2026-04-12T06:31:57.98Z</time></trkpt><trkpt lat="37.925335" lon="16.0618667"><ele>24.0</ele><time>2026-04-12T06:31:58.98Z</time></trkpt><trkpt lat="37.925435" lon="16.0621417"><ele>16.0</ele><time>2026-04-12T06:31:59.98Z</time></trkpt><trkpt lat="37.92554" lon="16.0624217"><ele>11.5</ele><time>2026-04-12T06:32:00.98Z</time></trkpt><trkpt lat="37.9256567" lon="16.0627"><ele>7.0</ele><time>2026-04-12T06:32:01.98Z</time></trkpt><trkpt lat="37.9257867" lon="16.06296"><ele>7.0</ele><time>2026-04-12T06:32:02.98Z</time></trkpt><trkpt lat="37.9259367" lon="16.0632033"><ele>7.0</ele><time>2026-04-12T06:32:03.98Z</time></trkpt><trkpt lat="37.9261067" lon="16.0634217"><ele>6.0</ele><time>2026-04-12T06:32:04.981Z</time></trkpt><trkpt lat="37.926295" lon="16.0636167"><ele>5.0</ele><time>2026-04-12T06:32:05.98Z</time></trkpt><trkpt lat="37.9264867" lon="16.0638083"><ele>5.0</ele><time>2026-04-12T06:32:06.98Z</time></trkpt><trkpt lat="37.926675" lon="16.064005"><ele>5.0</ele><time>2026-04-12T06:32:07.98Z</time></trkpt><trkpt lat="37.9268533" lon="16.0642033"><ele>7.333333333333334</ele><time>2026-04-12T06:32:08.98Z</time></trkpt><trkpt lat="37.9270183" lon="16.0644033"><ele>9.666666666666666</ele><time>2026-04-12T06:32:09.98Z</time></trkpt><trkpt lat="37.927165" lon="16.0646067"><ele>12.0</ele><time>2026-04-12T06:32:10.981Z</time></trkpt><trkpt lat="37.92731" lon="16.0648117"><ele>11.0</ele><time>2026-04-12T06:32:11.98Z</time></trkpt><trkpt lat="37.927465" lon="16.06501"><ele>10.0</ele><time>2026-04-12T06:32:12.981Z</time></trkpt><trkpt lat="37.9276367" lon="16.0651767"><ele>9.0</ele><time>2026-04-12T06:32:13.98Z</time></trkpt><trkpt lat="37.9278283" lon="16.06533"><ele>15.5</ele><time>2026-04-12T06:32:14.98Z</time></trkpt><trkpt lat="37.9280417" lon="16.0654683"><ele>22.0</ele><time>2026-04-12T06:32:15.98Z</time></trkpt><trkpt lat="37.928255" lon="16.0656283"><ele>18.5</ele><time>2026-04-12T06:32:16.98Z</time></trkpt><trkpt lat="37.9284783" lon="16.0657833"><ele>15.0</ele><time>2026-04-12T06:32:17.98Z</time></trkpt><trkpt lat="37.9286983" lon="16.0659267"><ele>15.0</ele><time>2026-04-12T06:32:18.981Z</time></trkpt><trkpt lat="37.9289167" lon="16.06607"><ele>15.0</ele><time>2026-04-12T06:32:19.981Z</time></trkpt><trkpt lat="37.929135" lon="16.0662167"><ele>19.0</ele><time>2026-04-12T06:32:20.981Z</time></trkpt><trkpt lat="37.9293617" lon="16.0663567"><ele>23.0</ele><time>2026-04-12T06:32:21.981Z</time></trkpt><trkpt lat="37.92959" lon="16.0665017"><ele>20.0</ele><time>2026-04-12T06:32:22.98Z</time></trkpt><trkpt lat="37.9298217" lon="16.066645"><ele>17.0</ele><time>2026-04-12T06:32:23.981Z</time></trkpt><trkpt lat="37.93006" lon="16.0667983"><ele>17.0</ele><time>2026-04-12T06:32:24.981Z</time></trkpt><trkpt lat="37.9302967" lon="16.0669583"><ele>17.0</ele><time>2026-04-12T06:32:25.98Z</time></trkpt><trkpt lat="37.93053" lon="16.0671183"><ele>17.0</ele><time>2026-04-12T06:32:26.98Z</time></trkpt><trkpt lat="37.9307467" lon="16.0672783"><ele>17.0</ele><time>2026-04-12T06:32:27.98Z</time></trkpt><trkpt lat="37.930975" lon="16.0674383"><ele>14.5</ele><time>2026-04-12T06:32:28.98Z</time></trkpt><trkpt lat="37.9311933" lon="16.0676067"><ele>12.0</ele><time>2026-04-12T06:32:29.98Z</time></trkpt><trkpt lat="37.9314117" lon="16.06779"><ele>12.0</ele><time>2026-04-12T06:32:30.98Z</time></trkpt><trkpt lat="37.9316217" lon="16.0679783"><ele>12.0</ele><time>2026-04-12T06:32:31.98Z</time></trkpt><trkpt lat="37.9318267" lon="16.0681833"><ele>11.5</ele><time>2026-04-12T06:32:32.98Z</time></trkpt><trkpt lat="37.93202" lon="16.0684283"><ele>11.0</ele><time>2026-04-12T06:32:33.98Z</time></trkpt><trkpt lat="37.9322217" lon="16.0686717"><ele>11.0</ele><time>2026-04-12T06:32:34.98Z</time></trkpt><trkpt lat="37.9324083" lon="16.0689167"><ele>11.0</ele><time>2026-04-12T06:32:35.98Z</time></trkpt><trkpt lat="37.93259" lon="16.0691617"><ele>10.5</ele><time>2026-04-12T06:32:36.98Z</time></trkpt><trkpt lat="37.9327783" lon="16.0694083"><ele>10.0</ele><time>2026-04-12T06:32:37.98Z</time></trkpt><trkpt lat="37.932965" lon="16.0696533"><ele>10.0</ele><time>2026-04-12T06:32:38.98Z</time></trkpt><trkpt lat="37.9331433" lon="16.0699017"><ele>10.0</ele><time>2026-04-12T06:32:39.98Z</time></trkpt><trkpt lat="37.9333233" lon="16.070145"><ele>11.0</ele><time>2026-04-12T06:32:40.98Z</time></trkpt><trkpt lat="37.933505" lon="16.070385"><ele>12.0</ele><time>2026-04-12T06:32:41.981Z</time></trkpt><trkpt lat="37.9336867" lon="16.0706217"><ele>9.5</ele><time>2026-04-12T06:32:42.98Z</time></trkpt><trkpt lat="37.9338717" lon="16.0708617"><ele>7.0</ele><time>2026-04-12T06:32:43.981Z</time></trkpt><trkpt lat="37.9340533" lon="16.0710967"><ele>9.0</ele><time>2026-04-12T06:32:44.98Z</time></trkpt><trkpt lat="37.9342317" lon="16.0713317"><ele>11.0</ele><time>2026-04-12T06:32:45.98Z</time></trkpt><trkpt lat="37.9344217" lon="16.0715683"><ele>10.5</ele><time>2026-04-12T06:32:46.98Z</time></trkpt><trkpt lat="37.934615" lon="16.0718117"><ele>10.0</ele><time>2026-04-12T06:32:47.981Z</time></trkpt><trkpt lat="37.9348133" lon="16.0720517"><ele>10.0</ele><time>2026-04-12T06:32:48.98Z</time></trkpt><trkpt lat="37.935" lon="16.072295"><ele>10.0</ele><time>2026-04-12T06:32:49.98Z</time></trkpt><trkpt lat="37.93519" lon="16.0725417"><ele>10.0</ele><time>2026-04-12T06:32:50.98Z</time></trkpt><trkpt lat="37.93538" lon="16.0727783"><ele>10.0</ele><time>2026-04-12T06:32:51.98Z</time></trkpt><trkpt lat="37.9355783" lon="16.0730217"><ele>10.0</ele><time>2026-04-12T06:32:52.98Z</time></trkpt><trkpt lat="37.935765" lon="16.0732633"><ele>10.0</ele><time>2026-04-12T06:32:53.98Z</time></trkpt><trkpt lat="37.9359517" lon="16.0735067"><ele>11.0</ele><time>2026-04-12T06:32:54.981Z</time></trkpt><trkpt lat="37.93614" lon="16.073755"><ele>12.0</ele><time>2026-04-12T06:32:55.98Z</time></trkpt><trkpt lat="37.9363267" lon="16.074005"><ele>9.5</ele><time>2026-04-12T06:32:56.981Z</time></trkpt><trkpt lat="37.9365183" lon="16.07425"><ele>7.0</ele><time>2026-04-12T06:32:57.98Z</time></trkpt><trkpt lat="37.9367" lon="16.074495"><ele>7.5</ele><time>2026-04-12T06:32:58.98Z</time></trkpt><trkpt lat="37.9368933" lon="16.07474"><ele>8.0</ele><time>2026-04-12T06:32:59.98Z</time></trkpt><trkpt lat="37.9370833" lon="16.0749767"><ele>8.0</ele><time>2026-04-12T06:33:00.981Z</time></trkpt><trkpt lat="37.937265" lon="16.0752233"><ele>8.0</ele><time>2026-04-12T06:33:01.98Z</time></trkpt><trkpt lat="37.9374517" lon="16.075475"><ele>10.5</ele><time>2026-04-12T06:33:02.98Z</time></trkpt><trkpt lat="37.9376367" lon="16.0757233"><ele>13.0</ele><time>2026-04-12T06:33:03.98Z</time></trkpt><trkpt lat="37.9378333" lon="16.0759633"><ele>13.0</ele><time>2026-04-12T06:33:04.98Z</time></trkpt><trkpt lat="37.9380283" lon="16.0762067"><ele>13.0</ele><time>2026-04-12T06:33:05.98Z</time></trkpt><trkpt lat="37.938215" lon="16.0764533"><ele>15.0</ele><time>2026-04-12T06:33:06.98Z</time></trkpt><trkpt lat="37.9383983" lon="16.0766883"><ele>17.0</ele><time>2026-04-12T06:33:07.98Z</time></trkpt><trkpt lat="37.9385917" lon="16.07692"><ele>17.0</ele><time>2026-04-12T06:33:08.98Z</time></trkpt><trkpt lat="37.9387883" lon="16.07714"><ele>17.0</ele><time>2026-04-12T06:33:09.98Z</time></trkpt><trkpt lat="37.9389933" lon="16.0773617"><ele>14.0</ele><time>2026-04-12T06:33:10.98Z</time></trkpt><trkpt lat="37.9392017" lon="16.0775783"><ele>11.0</ele><time>2026-04-12T06:33:11.98Z</time></trkpt><trkpt lat="37.9394217" lon="16.0777833"><ele>11.0</ele><time>2026-04-12T06:33:12.98Z</time></trkpt><trkpt lat="37.9396367" lon="16.077995"><ele>11.0</ele><time>2026-04-12T06:33:13.98Z</time></trkpt><trkpt lat="37.9398483" lon="16.0782083"><ele>10.0</ele><time>2026-04-12T06:33:14.98Z</time></trkpt><trkpt lat="37.9400617" lon="16.0784133"><ele>9.0</ele><time>2026-04-12T06:33:15.98Z</time></trkpt><trkpt lat="37.9402783" lon="16.0786183"><ele>9.0</ele><time>2026-04-12T06:33:16.98Z</time></trkpt><trkpt lat="37.940495" lon="16.0788217"><ele>9.0</ele><time>2026-04-12T06:33:17.98Z</time></trkpt><trkpt lat="37.9407167" lon="16.07903"><ele>9.5</ele><time>2026-04-12T06:33:18.98Z</time></trkpt><trkpt lat="37.940935" lon="16.0792367"><ele>10.0</ele><time>2026-04-12T06:33:19.98Z</time></trkpt><trkpt lat="37.9411517" lon="16.079455"><ele>10.0</ele><time>2026-04-12T06:33:20.98Z</time></trkpt><trkpt lat="37.9413667" lon="16.07968"><ele>10.0</ele><time>2026-04-12T06:33:21.981Z</time></trkpt><trkpt lat="37.941585" lon="16.07991"><ele>10.0</ele><time>2026-04-12T06:33:22.98Z</time></trkpt><trkpt lat="37.9418" lon="16.0801483"><ele>10.0</ele><time>2026-04-12T06:33:23.98Z</time></trkpt><trkpt lat="37.9420067" lon="16.0803983"><ele>10.0</ele><time>2026-04-12T06:33:24.98Z</time></trkpt><trkpt lat="37.94221" lon="16.0806533"><ele>10.0</ele><time>2026-04-12T06:33:25.98Z</time></trkpt><trkpt lat="37.942405" lon="16.0809"><ele>11.0</ele><time>2026-04-12T06:33:26.98Z</time></trkpt><trkpt lat="37.9425967" lon="16.0811467"><ele>12.0</ele><time>2026-04-12T06:33:27.98Z</time></trkpt><trkpt lat="37.9427933" lon="16.0813917"><ele>9.5</ele><time>2026-04-12T06:33:28.98Z</time></trkpt><trkpt lat="37.94299" lon="16.08163"><ele>7.0</ele><time>2026-04-12T06:33:29.98Z</time></trkpt><trkpt lat="37.9431833" lon="16.0818683"><ele>7.0</ele><time>2026-04-12T06:33:30.98Z</time></trkpt><trkpt lat="37.9433733" lon="16.08211"><ele>7.0</ele><time>2026-04-12T06:33:31.98Z</time></trkpt><trkpt lat="37.9435667" lon="16.082355"><ele>8.5</ele><time>2026-04-12T06:33:32.98Z</time></trkpt><trkpt lat="37.94376" lon="16.082595"><ele>10.0</ele><time>2026-04-12T06:33:33.98Z</time></trkpt><trkpt lat="37.9439717" lon="16.0828283"><ele>10.0</ele><time>2026-04-12T06:33:34.98Z</time></trkpt><trkpt lat="37.9441833" lon="16.083055"><ele>10.0</ele><time>2026-04-12T06:33:35.98Z</time></trkpt><trkpt lat="37.944405" lon="16.0832617"><ele>9.0</ele><time>2026-04-12T06:33:36.98Z</time></trkpt><trkpt lat="37.9446317" lon="16.0834433"><ele>8.0</ele><time>2026-04-12T06:33:37.98Z</time></trkpt><trkpt lat="37.9448717" lon="16.08363"><ele>8.5</ele><time>2026-04-12T06:33:38.98Z</time></trkpt><trkpt lat="37.945095" lon="16.083815"><ele>9.0</ele><time>2026-04-12T06:33:39.981Z</time></trkpt><trkpt lat="37.9453167" lon="16.083995"><ele>8.5</ele><time>2026-04-12T06:33:40.98Z</time></trkpt><trkpt lat="37.94553" lon="16.0841633"><ele>8.0</ele><time>2026-04-12T06:33:41.981Z</time></trkpt><trkpt lat="37.9457267" lon="16.0843267"><ele>8.333333333333332</ele><time>2026-04-12T06:33:42.98Z</time></trkpt><trkpt lat="37.945915" lon="16.084485"><ele>8.666666666666666</ele><time>2026-04-12T06:33:43.98Z</time></trkpt><trkpt lat="37.9461017" lon="16.0846333"><ele>9.0</ele><time>2026-04-12T06:33:44.981Z</time></trkpt><trkpt lat="37.9462767" lon="16.08478"><ele>9.0</ele><time>2026-04-12T06:33:45.98Z</time></trkpt><trkpt lat="37.9464667" lon="16.0849133"><ele>9.0</ele><time>2026-04-12T06:33:46.98Z</time></trkpt><trkpt lat="37.946675" lon="16.0850767"><ele>9.0</ele><time>2026-04-12T06:33:47.98Z</time></trkpt><trkpt lat="37.9468933" lon="16.0852733"><ele>9.0</ele><time>2026-04-12T06:33:48.98Z</time></trkpt><trkpt lat="37.9471133" lon="16.0854617"><ele>9.0</ele><time>2026-04-12T06:33:49.981Z</time></trkpt><trkpt lat="37.947345" lon="16.0856617"><ele>9.0</ele><time>2026-04-12T06:33:50.981Z</time></trkpt><trkpt lat="37.947575" lon="16.0858583"><ele>9.0</ele><time>2026-04-12T06:33:51.98Z</time></trkpt><trkpt lat="37.9478267" lon="16.0860567"><ele>9.0</ele><time>2026-04-12T06:33:52.98Z</time></trkpt><trkpt lat="37.9480883" lon="16.08626"><ele>9.0</ele><time>2026-04-12T06:33:53.981Z</time></trkpt><trkpt lat="37.9483517" lon="16.0864633"><ele>9.0</ele><time>2026-04-12T06:33:54.98Z</time></trkpt><trkpt lat="37.9486017" lon="16.0866733"><ele>8.0</ele><time>2026-04-12T06:33:55.98Z</time></trkpt><trkpt lat="37.94884" lon="16.086865"><ele>7.0</ele><time>2026-04-12T06:33:56.98Z</time></trkpt><trkpt lat="37.9490833" lon="16.0870533"><ele>8.0</ele><time>2026-04-12T06:33:57.981Z</time></trkpt><trkpt lat="37.9493233" lon="16.0872533"><ele>9.0</ele><time>2026-04-12T06:33:58.98Z</time></trkpt><trkpt lat="37.9495717" lon="16.0874667"><ele>9.0</ele><time>2026-04-12T06:33:59.98Z</time></trkpt><trkpt lat="37.9498267" lon="16.0876767"><ele>9.0</ele><time>2026-04-12T06:34:00.98Z</time></trkpt><trkpt lat="37.9500767" lon="16.08788"><ele>10.5</ele><time>2026-04-12T06:34:01.981Z</time></trkpt><trkpt lat="37.9503283" lon="16.0880867"><ele>12.0</ele><time>2026-04-12T06:34:02.98Z</time></trkpt><trkpt lat="37.95058" lon="16.0882883"><ele>12.0</ele><time>2026-04-12T06:34:03.98Z</time></trkpt><trkpt lat="37.9508333" lon="16.0884933"><ele>12.0</ele><time>2026-04-12T06:34:04.98Z</time></trkpt><trkpt lat="37.9510833" lon="16.0886933"><ele>12.0</ele><time>2026-04-12T06:34:05.98Z</time></trkpt><trkpt lat="37.95133" lon="16.0889017"><ele>12.0</ele><time>2026-04-12T06:34:06.98Z</time></trkpt><trkpt lat="37.9515783" lon="16.0891083"><ele>13.5</ele><time>2026-04-12T06:34:07.98Z</time></trkpt><trkpt lat="37.9518117" lon="16.089325"><ele>15.0</ele><time>2026-04-12T06:34:08.981Z</time></trkpt><trkpt lat="37.9520433" lon="16.089535"><ele>15.0</ele><time>2026-04-12T06:34:09.981Z</time></trkpt><trkpt lat="37.9522783" lon="16.0897633"><ele>15.0</ele><time>2026-04-12T06:34:10.98Z</time></trkpt><trkpt lat="37.95251" lon="16.089995"><ele>16.0</ele><time>2026-04-12T06:34:11.981Z</time></trkpt><trkpt lat="37.9527383" lon="16.0902317"><ele>17.0</ele><time>2026-04-12T06:34:12.98Z</time></trkpt><trkpt lat="37.952955" lon="16.0904817"><ele>17.0</ele><time>2026-04-12T06:34:13.98Z</time></trkpt><trkpt lat="37.9531817" lon="16.0907183"><ele>17.0</ele><time>2026-04-12T06:34:14.98Z</time></trkpt><trkpt lat="37.9533983" lon="16.090965"><ele>15.5</ele><time>2026-04-12T06:34:15.98Z</time></trkpt><trkpt lat="37.95362" lon="16.09122"><ele>14.0</ele><time>2026-04-12T06:34:16.98Z</time></trkpt><trkpt lat="37.9538367" lon="16.091475"><ele>13.5</ele><time>2026-04-12T06:34:17.981Z</time></trkpt><trkpt lat="37.95406" lon="16.0917383"><ele>13.0</ele><time>2026-04-12T06:34:18.981Z</time></trkpt><trkpt lat="37.954285" lon="16.0920033"><ele>13.0</ele><time>2026-04-12T06:34:19.98Z</time></trkpt><trkpt lat="37.954505" lon="16.0922617"><ele>13.0</ele><time>2026-04-12T06:34:20.98Z</time></trkpt><trkpt lat="37.9547283" lon="16.0925233"><ele>14.0</ele><time>2026-04-12T06:34:21.98Z</time></trkpt><trkpt lat="37.9549483" lon="16.0927917"><ele>15.0</ele><time>2026-04-12T06:34:22.98Z</time></trkpt><trkpt lat="37.9551717" lon="16.093055"><ele>12.5</ele><time>2026-04-12T06:34:23.98Z</time></trkpt><trkpt lat="37.9553967" lon="16.0933117"><ele>10.0</ele><time>2026-04-12T06:34:24.98Z</time></trkpt><trkpt lat="37.9556233" lon="16.0935733"><ele>10.0</ele><time>2026-04-12T06:34:25.98Z</time></trkpt><trkpt lat="37.955835" lon="16.093825"><ele>10.0</ele><time>2026-04-12T06:34:26.981Z</time></trkpt><trkpt lat="37.95605" lon="16.0940733"><ele>11.5</ele><time>2026-04-12T06:34:27.98Z</time></trkpt><trkpt lat="37.9562583" lon="16.094325"><ele>13.0</ele><time>2026-04-12T06:34:28.981Z</time></trkpt><trkpt lat="37.9564767" lon="16.0945767"><ele>13.0</ele><time>2026-04-12T06:34:29.98Z</time></trkpt><trkpt lat="37.956695" lon="16.094815"><ele>13.0</ele><time>2026-04-12T06:34:30.98Z</time></trkpt><trkpt lat="37.956905" lon="16.0950683"><ele>15.0</ele><time>2026-04-12T06:34:31.981Z</time></trkpt><trkpt lat="37.957125" lon="16.095315"><ele>17.0</ele><time>2026-04-12T06:34:32.98Z</time></trkpt><trkpt lat="37.9573367" lon="16.09557"><ele>17.0</ele><time>2026-04-12T06:34:33.98Z</time></trkpt><trkpt lat="37.9575533" lon="16.0958183"><ele>17.0</ele><time>2026-04-12T06:34:34.98Z</time></trkpt><trkpt lat="37.95778" lon="16.0960617"><ele>17.0</ele><time>2026-04-12T06:34:35.98Z</time></trkpt><trkpt lat="37.9579933" lon="16.0963067"><ele>17.0</ele><time>2026-04-12T06:34:36.98Z</time></trkpt><trkpt lat="37.9582283" lon="16.0965617"><ele>14.0</ele><time>2026-04-12T06:34:37.98Z</time></trkpt><trkpt lat="37.9584533" lon="16.0968067"><ele>11.0</ele><time>2026-04-12T06:34:38.98Z</time></trkpt><trkpt lat="37.95866" lon="16.097045"><ele>11.0</ele><time>2026-04-12T06:34:39.98Z</time></trkpt><trkpt lat="37.9588667" lon="16.09727"><ele>11.0</ele><time>2026-04-12T06:34:40.98Z</time></trkpt><trkpt lat="37.9590733" lon="16.0975067"><ele>11.5</ele><time>2026-04-12T06:34:41.98Z</time></trkpt><trkpt lat="37.959285" lon="16.097715"><ele>12.0</ele><time>2026-04-12T06:34:42.98Z</time></trkpt><trkpt lat="37.9594983" lon="16.09792"><ele>12.0</ele><time>2026-04-12T06:34:43.98Z</time></trkpt><trkpt lat="37.9597033" lon="16.098115"><ele>12.0</ele><time>2026-04-12T06:34:44.98Z</time></trkpt><trkpt lat="37.9599117" lon="16.0983083"><ele>13.5</ele><time>2026-04-12T06:34:45.981Z</time></trkpt><trkpt lat="37.9601367" lon="16.0985067"><ele>15.0</ele><time>2026-04-12T06:34:46.981Z</time></trkpt><trkpt lat="37.9603517" lon="16.0987033"><ele>15.0</ele><time>2026-04-12T06:34:47.98Z</time></trkpt><trkpt lat="37.9605867" lon="16.0989067"><ele>15.0</ele><time>2026-04-12T06:34:48.98Z</time></trkpt><trkpt lat="37.9608217" lon="16.09911"><ele>16.5</ele><time>2026-04-12T06:34:49.981Z</time></trkpt><trkpt lat="37.96105" lon="16.0993183"><ele>18.0</ele><time>2026-04-12T06:34:50.98Z</time></trkpt><trkpt lat="37.9612733" lon="16.0995033"><ele>18.0</ele><time>2026-04-12T06:34:51.98Z</time></trkpt><trkpt lat="37.9614967" lon="16.09968"><ele>18.0</ele><time>2026-04-12T06:34:52.98Z</time></trkpt><trkpt lat="37.9616883" lon="16.099845"><ele>18.333333333333332</ele><time>2026-04-12T06:34:53.98Z</time></trkpt><trkpt lat="37.9618667" lon="16.0999833"><ele>18.666666666666664</ele><time>2026-04-12T06:34:54.981Z</time></trkpt><trkpt lat="37.9620267" lon="16.10011"><ele>19.0</ele><time>2026-04-12T06:34:55.981Z</time></trkpt><trkpt lat="37.9621833" lon="16.1002417"><ele>19.0</ele><time>2026-04-12T06:34:56.981Z</time></trkpt><trkpt lat="37.9623383" lon="16.10038"><ele>19.0</ele><time>2026-04-12T06:34:57.98Z</time></trkpt><trkpt lat="37.96249" lon="16.1005317"><ele>19.0</ele><time>2026-04-12T06:34:58.981Z</time></trkpt><trkpt lat="37.9626783" lon="16.10069"><ele>17.0</ele><time>2026-04-12T06:34:59.981Z</time></trkpt><trkpt lat="37.9628733" lon="16.1008533"><ele>15.0</ele><time>2026-04-12T06:35:00.98Z</time></trkpt><trkpt lat="37.96307" lon="16.1010117"><ele>15.0</ele><time>2026-04-12T06:35:01.981Z</time></trkpt><trkpt lat="37.9632567" lon="16.1011583"><ele>15.0</ele><time>2026-04-12T06:35:02.98Z</time></trkpt><trkpt lat="37.96342" lon="16.1012883"><ele>15.0</ele><time>2026-04-12T06:35:03.98Z</time></trkpt><trkpt lat="37.9635733" lon="16.1013917"><ele>14.75</ele><time>2026-04-12T06:35:04.98Z</time></trkpt><trkpt lat="37.9636967" lon="16.1014767"><ele>14.5</ele><time>2026-04-12T06:35:05.981Z</time></trkpt><trkpt lat="37.96382" lon="16.10157"><ele>14.25</ele><time>2026-04-12T06:35:06.981Z</time></trkpt><trkpt lat="37.96393" lon="16.1016467"><ele>14.0</ele><time>2026-04-12T06:35:07.981Z</time></trkpt><trkpt lat="37.9640467" lon="16.1017183"><ele>14.0</ele><time>2026-04-12T06:35:08.98Z</time></trkpt><trkpt lat="37.9641633" lon="16.10181"><ele>14.0</ele><time>2026-04-12T06:35:09.98Z</time></trkpt><trkpt lat="37.9642733" lon="16.1018917"><ele>14.0</ele><time>2026-04-12T06:35:10.98Z</time></trkpt><trkpt lat="37.96438" lon="16.1019483"><ele>14.0</ele><time>2026-04-12T06:35:11.98Z</time></trkpt><trkpt lat="37.9644783" lon="16.1020183"><ele>13.833333333333334</ele><time>2026-04-12T06:35:12.98Z</time></trkpt><trkpt lat="37.9645667" lon="16.1020933"><ele>13.666666666666668</ele><time>2026-04-12T06:35:13.98Z</time></trkpt><trkpt lat="37.9646483" lon="16.1021517"><ele>13.5</ele><time>2026-04-12T06:35:14.98Z</time></trkpt><trkpt lat="37.96472" lon="16.10221"><ele>13.333333333333332</ele><time>2026-04-12T06:35:15.981Z</time></trkpt><trkpt lat="37.9647933" lon="16.102255"><ele>13.166666666666666</ele><time>2026-04-12T06:35:16.981Z</time></trkpt><trkpt lat="37.9648517" lon="16.1023033"><ele>13.0</ele><time>2026-04-12T06:35:17.981Z</time></trkpt><trkpt lat="37.9649417" lon="16.1023783"><ele>12.8</ele><time>2026-04-12T06:35:19.98Z</time></trkpt><trkpt lat="37.9650183" lon="16.1024217"><ele>12.600000000000001</ele><time>2026-04-12T06:35:21.98Z</time></trkpt><trkpt lat="37.965105" lon="16.1024733"><ele>12.399999999999999</ele><time>2026-04-12T06:35:23.98Z</time></trkpt><trkpt lat="37.9651667" lon="16.1025283"><ele>12.2</ele><time>2026-04-12T06:35:24.98Z</time></trkpt><trkpt lat="37.965265" lon="16.1025983"><ele>12.0</ele><time>2026-04-12T06:35:25.981Z</time></trkpt><trkpt lat="37.9653733" lon="16.10266"><ele>12.0</ele><time>2026-04-12T06:35:26.98Z</time></trkpt><trkpt lat="37.9654633" lon="16.1027317"><ele>12.0</ele><time>2026-04-12T06:35:27.981Z</time></trkpt><trkpt lat="37.9655383" lon="16.1027917"><ele>12.0</ele><time>2026-04-12T06:35:28.98Z</time></trkpt><trkpt lat="37.9656083" lon="16.102835"><ele>12.0</ele><time>2026-04-12T06:35:29.98Z</time></trkpt><trkpt lat="37.9656733" lon="16.1028767"><ele>12.0</ele><time>2026-04-12T06:35:30.981Z</time></trkpt><trkpt lat="37.965745" lon="16.1029217"><ele>12.0</ele><time>2026-04-12T06:35:31.98Z</time></trkpt><trkpt lat="37.965815" lon="16.1029667"><ele>12.0</ele><time>2026-04-12T06:35:32.98Z</time></trkpt><trkpt lat="37.9658767" lon="16.10301"><ele>12.0</ele><time>2026-04-12T06:35:33.98Z</time></trkpt><trkpt lat="37.9659433" lon="16.1030617"><ele>12.0</ele><time>2026-04-12T06:35:34.981Z</time></trkpt><trkpt lat="37.9660217" lon="16.1031283"><ele>12.0</ele><time>2026-04-12T06:35:35.981Z</time></trkpt><trkpt lat="37.9661133" lon="16.10319"><ele>12.0</ele><time>2026-04-12T06:35:36.98Z</time></trkpt><trkpt lat="37.9662483" lon="16.1032867"><ele>12.0</ele><time>2026-04-12T06:35:37.98Z</time></trkpt><trkpt lat="37.9664217" lon="16.10343"><ele>12.0</ele><time>2026-04-12T06:35:38.98Z</time></trkpt><trkpt lat="37.9666167" lon="16.1035783"><ele>12.0</ele><time>2026-04-12T06:35:39.98Z</time></trkpt><trkpt lat="37.96682" lon="16.1037117"><ele>12.0</ele><time>2026-04-12T06:35:40.981Z</time></trkpt><trkpt lat="37.9670183" lon="16.1038467"><ele>12.0</ele><time>2026-04-12T06:35:41.98Z</time></trkpt><trkpt lat="37.9672117" lon="16.1039783"><ele>12.0</ele><time>2026-04-12T06:35:42.981Z</time></trkpt><trkpt lat="37.96741" lon="16.104115"><ele>12.0</ele><time>2026-04-12T06:35:43.98Z</time></trkpt><trkpt lat="37.9676" lon="16.1042483"><ele>12.0</ele><time>2026-04-12T06:35:44.98Z</time></trkpt><trkpt lat="37.96778" lon="16.1043617"><ele>12.0</ele><time>2026-04-12T06:35:45.98Z</time></trkpt><trkpt lat="37.96795" lon="16.1044567"><ele>12.0</ele><time>2026-04-12T06:35:46.98Z</time></trkpt><trkpt lat="37.9681067" lon="16.104565"><ele>12.0</ele><time>2026-04-12T06:35:47.98Z</time></trkpt><trkpt lat="37.9682667" lon="16.1046633"><ele>12.0</ele><time>2026-04-12T06:35:48.98Z</time></trkpt><trkpt lat="37.9684" lon="16.104765"><ele>11.2</ele><time>2026-04-12T06:35:49.98Z</time></trkpt><trkpt lat="37.9684967" lon="16.1048633"><ele>10.399999999999999</ele><time>2026-04-12T06:35:50.981Z</time></trkpt><trkpt lat="37.9685817" lon="16.1049433"><ele>9.600000000000001</ele><time>2026-04-12T06:35:51.98Z</time></trkpt><trkpt lat="37.9686567" lon="16.1050017"><ele>8.8</ele><time>2026-04-12T06:35:52.981Z</time></trkpt><trkpt lat="37.968715" lon="16.10504"><ele>8.0</ele><time>2026-04-12T06:35:53.981Z</time></trkpt><trkpt lat="37.9687883" lon="16.1050883"><ele>7.75</ele><time>2026-04-12T06:35:55.981Z</time></trkpt><trkpt lat="37.968855" lon="16.1051383"><ele>7.5</ele><time>2026-04-12T06:36:51.98Z</time></trkpt><trkpt lat="37.9689417" lon="16.105185"><ele>7.25</ele><time>2026-04-12T06:36:52.981Z</time></trkpt><trkpt lat="37.9690717" lon="16.1052817"><ele>7.0</ele><time>2026-04-12T06:36:53.98Z</time></trkpt><trkpt lat="37.9692567" lon="16.1054183"><ele>5.5</ele><time>2026-04-12T06:36:54.98Z</time></trkpt><trkpt lat="37.96946" lon="16.1055783"><ele>4.0</ele><time>2026-04-12T06:36:55.981Z</time></trkpt><trkpt lat="37.9696633" lon="16.1057367"><ele>5.0</ele><time>2026-04-12T06:36:56.981Z</time></trkpt><trkpt lat="37.9698633" lon="16.10589"><ele>6.0</ele><time>2026-04-12T06:36:57.981Z</time></trkpt><trkpt lat="37.970075" lon="16.1060367"><ele>6.5</ele><time>2026-04-12T06:36:58.98Z</time></trkpt><trkpt lat="37.9702967" lon="16.1062017"><ele>7.0</ele><time>2026-04-12T06:36:59.98Z</time></trkpt><trkpt lat="37.9705167" lon="16.1063683"><ele>7.0</ele><time>2026-04-12T06:37:00.981Z</time></trkpt><trkpt lat="37.9707467" lon="16.1065367"><ele>7.0</ele><time>2026-04-12T06:37:01.981Z</time></trkpt><trkpt lat="37.9709783" lon="16.1067133"><ele>7.5</ele><time>2026-04-12T06:37:02.98Z</time></trkpt><trkpt lat="37.9712083" lon="16.106895"><ele>8.0</ele><time>2026-04-12T06:37:03.98Z</time></trkpt><trkpt lat="37.97145" lon="16.107065"><ele>8.0</ele><time>2026-04-12T06:37:04.981Z</time></trkpt><trkpt lat="37.97169" lon="16.1072333"><ele>8.0</ele><time>2026-04-12T06:37:05.98Z</time></trkpt><trkpt lat="37.971925" lon="16.1074017"><ele>8.0</ele><time>2026-04-12T06:37:06.981Z</time></trkpt><trkpt lat="37.9721583" lon="16.1075767"><ele>8.0</ele><time>2026-04-12T06:37:07.98Z</time></trkpt><trkpt lat="37.9723933" lon="16.1077583"><ele>9.5</ele><time>2026-04-12T06:37:08.98Z</time></trkpt><trkpt lat="37.9726317" lon="16.1079267"><ele>11.0</ele><time>2026-04-12T06:37:09.981Z</time></trkpt><trkpt lat="37.972875" lon="16.1081083"><ele>9.0</ele><time>2026-04-12T06:37:10.98Z</time></trkpt><trkpt lat="37.9731083" lon="16.1082933"><ele>7.0</ele><time>2026-04-12T06:37:11.98Z</time></trkpt><trkpt lat="37.9733483" lon="16.10849"><ele>8.5</ele><time>2026-04-12T06:37:12.98Z</time></trkpt><trkpt lat="37.973575" lon="16.108715"><ele>10.0</ele><time>2026-04-12T06:37:13.98Z</time></trkpt><trkpt lat="37.9738017" lon="16.1089467"><ele>9.5</ele><time>2026-04-12T06:37:14.981Z</time></trkpt><trkpt lat="37.9740183" lon="16.1091783"><ele>9.0</ele><time>2026-04-12T06:37:15.98Z</time></trkpt><trkpt lat="37.9742267" lon="16.1094083"><ele>9.0</ele><time>2026-04-12T06:37:16.98Z</time></trkpt><trkpt lat="37.9744383" lon="16.1096233"><ele>9.0</ele><time>2026-04-12T06:37:17.98Z</time></trkpt><trkpt lat="37.9746517" lon="16.10984"><ele>8.0</ele><time>2026-04-12T06:37:18.98Z</time></trkpt><trkpt lat="37.9748617" lon="16.1100583"><ele>7.0</ele><time>2026-04-12T06:37:19.98Z</time></trkpt><trkpt lat="37.9750633" lon="16.110275"><ele>9.5</ele><time>2026-04-12T06:37:20.98Z</time></trkpt><trkpt lat="37.9752667" lon="16.1104883"><ele>12.0</ele><time>2026-04-12T06:37:21.98Z</time></trkpt><trkpt lat="37.97547" lon="16.1107083"><ele>12.0</ele><time>2026-04-12T06:37:22.981Z</time></trkpt><trkpt lat="37.9756817" lon="16.1109217"><ele>12.0</ele><time>2026-04-12T06:37:23.981Z</time></trkpt><trkpt lat="37.97589" lon="16.111135"><ele>12.0</ele><time>2026-04-12T06:37:24.98Z</time></trkpt><trkpt lat="37.9760983" lon="16.1113517"><ele>12.0</ele><time>2026-04-12T06:37:25.98Z</time></trkpt><trkpt lat="37.976305" lon="16.1115633"><ele>11.5</ele><time>2026-04-12T06:37:26.98Z</time></trkpt><trkpt lat="37.9765217" lon="16.1117567"><ele>11.0</ele><time>2026-04-12T06:37:27.98Z</time></trkpt><trkpt lat="37.9767433" lon="16.111935"><ele>11.0</ele><time>2026-04-12T06:37:28.98Z</time></trkpt><trkpt lat="37.9769583" lon="16.1121133"><ele>11.0</ele><time>2026-04-12T06:37:29.98Z</time></trkpt><trkpt lat="37.9771767" lon="16.1122967"><ele>10.0</ele><time>2026-04-12T06:37:30.981Z</time></trkpt><trkpt lat="37.9773967" lon="16.1124733"><ele>9.0</ele><time>2026-04-12T06:37:31.981Z</time></trkpt><trkpt lat="37.9776167" lon="16.1126367"><ele>9.0</ele><time>2026-04-12T06:37:32.98Z</time></trkpt><trkpt lat="37.9778467" lon="16.112775"><ele>9.0</ele><time>2026-04-12T06:37:33.981Z</time></trkpt><trkpt lat="37.97808" lon="16.1129067"><ele>9.0</ele><time>2026-04-12T06:37:34.98Z</time></trkpt><trkpt lat="37.9783133" lon="16.1130333"><ele>9.0</ele><time>2026-04-12T06:37:35.98Z</time></trkpt><trkpt lat="37.9785483" lon="16.11316"><ele>9.0</ele><time>2026-04-12T06:37:36.98Z</time></trkpt><trkpt lat="37.9787783" lon="16.1132967"><ele>9.0</ele><time>2026-04-12T06:37:37.98Z</time></trkpt><trkpt lat="37.979015" lon="16.1134383"><ele>10.0</ele><time>2026-04-12T06:37:38.981Z</time></trkpt><trkpt lat="37.979255" lon="16.113575"><ele>11.0</ele><time>2026-04-12T06:37:39.98Z</time></trkpt><trkpt lat="37.9794917" lon="16.1137167"><ele>11.0</ele><time>2026-04-12T06:37:40.98Z</time></trkpt><trkpt lat="37.9797417" lon="16.1138583"><ele>11.0</ele><time>2026-04-12T06:37:41.98Z</time></trkpt><trkpt lat="37.9799833" lon="16.11399"><ele>9.0</ele><time>2026-04-12T06:37:42.981Z</time></trkpt><trkpt lat="37.9802233" lon="16.1141267"><ele>7.0</ele><time>2026-04-12T06:37:43.98Z</time></trkpt><trkpt lat="37.9804617" lon="16.1142683"><ele>7.0</ele><time>2026-04-12T06:37:44.98Z</time></trkpt><trkpt lat="37.9807067" lon="16.1144067"><ele>7.0</ele><time>2026-04-12T06:37:45.98Z</time></trkpt><trkpt lat="37.9809467" lon="16.1145433"><ele>6.5</ele><time>2026-04-12T06:37:46.98Z</time></trkpt><trkpt lat="37.9811917" lon="16.1146867"><ele>6.0</ele><time>2026-04-12T06:37:47.981Z</time></trkpt><trkpt lat="37.9814367" lon="16.1148367"><ele>5.0</ele><time>2026-04-12T06:37:48.98Z</time></trkpt><trkpt lat="37.9816883" lon="16.1149833"><ele>4.0</ele><time>2026-04-12T06:37:49.98Z</time></trkpt><trkpt lat="37.981945" lon="16.1151333"><ele>4.0</ele><time>2026-04-12T06:37:50.98Z</time></trkpt><trkpt lat="37.9822067" lon="16.11529"><ele>4.0</ele><time>2026-04-12T06:37:51.981Z</time></trkpt><trkpt lat="37.98248" lon="16.1154417"><ele>4.5</ele><time>2026-04-12T06:37:52.98Z</time></trkpt><trkpt lat="37.9827583" lon="16.1156"><ele>5.0</ele><time>2026-04-12T06:37:53.981Z</time></trkpt><trkpt lat="37.9830433" lon="16.115765"><ele>5.0</ele><time>2026-04-12T06:37:54.98Z</time></trkpt><trkpt lat="37.9833267" lon="16.1159367"><ele>5.0</ele><time>2026-04-12T06:37:55.98Z</time></trkpt><trkpt lat="37.9836133" lon="16.1161017"><ele>5.0</ele><time>2026-04-12T06:37:56.98Z</time></trkpt><trkpt lat="37.9839083" lon="16.116265"><ele>5.0</ele><time>2026-04-12T06:37:57.98Z</time></trkpt><trkpt lat="37.98419" lon="16.1164333"><ele>5.0</ele><time>2026-04-12T06:37:58.98Z</time></trkpt><trkpt lat="37.9844817" lon="16.116605"><ele>5.0</ele><time>2026-04-12T06:37:59.98Z</time></trkpt><trkpt lat="37.9847733" lon="16.1167683"><ele>5.0</ele><time>2026-04-12T06:38:00.98Z</time></trkpt><trkpt lat="37.9850667" lon="16.116935"><ele>5.0</ele><time>2026-04-12T06:38:01.98Z</time></trkpt><trkpt lat="37.985365" lon="16.1171"><ele>5.0</ele><time>2026-04-12T06:38:02.98Z</time></trkpt><trkpt lat="37.9856817" lon="16.1172617"><ele>5.0</ele><time>2026-04-12T06:38:03.98Z</time></trkpt><trkpt lat="37.9859983" lon="16.1174333"><ele>5.5</ele><time>2026-04-12T06:38:04.98Z</time></trkpt><trkpt lat="37.9863233" lon="16.1176217"><ele>6.0</ele><time>2026-04-12T06:38:05.98Z</time></trkpt><trkpt lat="37.98664" lon="16.117835"><ele>6.5</ele><time>2026-04-12T06:38:06.98Z</time></trkpt><trkpt lat="37.9869667" lon="16.11805"><ele>7.0</ele><time>2026-04-12T06:38:07.98Z</time></trkpt><trkpt lat="37.987315" lon="16.1182667"><ele>7.5</ele><time>2026-04-12T06:38:08.98Z</time></trkpt><trkpt lat="37.9876733" lon="16.1184767"><ele>8.0</ele><time>2026-04-12T06:38:09.98Z</time></trkpt><trkpt lat="37.9880367" lon="16.118685"><ele>7.5</ele><time>2026-04-12T06:38:10.98Z</time></trkpt><trkpt lat="37.9884033" lon="16.118905"><ele>7.0</ele><time>2026-04-12T06:38:11.98Z</time></trkpt><trkpt lat="37.988775" lon="16.1191267"><ele>7.0</ele><time>2026-04-12T06:38:12.98Z</time></trkpt><trkpt lat="37.9891433" lon="16.11935"><ele>7.0</ele><time>2026-04-12T06:38:13.98Z</time></trkpt><trkpt lat="37.9895133" lon="16.1195717"><ele>7.0</ele><time>2026-04-12T06:38:14.98Z</time></trkpt><trkpt lat="37.9898733" lon="16.1197817"><ele>7.0</ele><time>2026-04-12T06:38:15.98Z</time></trkpt><trkpt lat="37.990235" lon="16.1199917"><ele>7.0</ele><time>2026-04-12T06:38:16.98Z</time></trkpt><trkpt lat="37.990585" lon="16.1201867"><ele>7.0</ele><time>2026-04-12T06:38:17.981Z</time></trkpt><trkpt lat="37.9909283" lon="16.1203733"><ele>9.0</ele><time>2026-04-12T06:38:18.981Z</time></trkpt><trkpt lat="37.99128" lon="16.120535"><ele>11.0</ele><time>2026-04-12T06:38:19.98Z</time></trkpt><trkpt lat="37.9916483" lon="16.1206783"><ele>10.5</ele><time>2026-04-12T06:38:20.981Z</time></trkpt><trkpt lat="37.9920283" lon="16.120825"><ele>10.0</ele><time>2026-04-12T06:38:21.98Z</time></trkpt><trkpt lat="37.9924033" lon="16.1209517"><ele>11.5</ele><time>2026-04-12T06:38:22.98Z</time></trkpt><trkpt lat="37.9927783" lon="16.12108"><ele>13.0</ele><time>2026-04-12T06:38:23.981Z</time></trkpt><trkpt lat="37.99315" lon="16.1212117"><ele>15.5</ele><time>2026-04-12T06:38:24.981Z</time></trkpt><trkpt lat="37.9935267" lon="16.121345"><ele>18.0</ele><time>2026-04-12T06:38:25.98Z</time></trkpt><trkpt lat="37.9939" lon="16.1214817"><ele>14.5</ele><time>2026-04-12T06:38:26.981Z</time></trkpt><trkpt lat="37.9942833" lon="16.1216183"><ele>11.0</ele><time>2026-04-12T06:38:27.981Z</time></trkpt><trkpt lat="37.9946633" lon="16.1217517"><ele>13.0</ele><time>2026-04-12T06:38:28.98Z</time></trkpt><trkpt lat="37.99503" lon="16.12189"><ele>15.0</ele><time>2026-04-12T06:38:29.98Z</time></trkpt><trkpt lat="37.99539" lon="16.12202"><ele>15.0</ele><time>2026-04-12T06:38:30.98Z</time></trkpt><trkpt lat="37.99575" lon="16.1221433"><ele>15.0</ele><time>2026-04-12T06:38:31.981Z</time></trkpt><trkpt lat="37.9961017" lon="16.1222667"><ele>13.5</ele><time>2026-04-12T06:38:32.98Z</time></trkpt><trkpt lat="37.9964417" lon="16.1223967"><ele>12.0</ele><time>2026-04-12T06:38:33.98Z</time></trkpt><trkpt lat="37.9967617" lon="16.12251"><ele>12.0</ele><time>2026-04-12T06:38:34.98Z</time></trkpt><trkpt lat="37.99706" lon="16.1226167"><ele>12.0</ele><time>2026-04-12T06:38:35.98Z</time></trkpt><trkpt lat="37.99735" lon="16.1227133"><ele>11.0</ele><time>2026-04-12T06:38:36.98Z</time></trkpt><trkpt lat="37.9976267" lon="16.122805"><ele>10.0</ele><time>2026-04-12T06:38:37.98Z</time></trkpt><trkpt lat="37.9978983" lon="16.1228833"><ele>10.0</ele><time>2026-04-12T06:38:38.98Z</time></trkpt><trkpt lat="37.9981867" lon="16.1229383"><ele>10.0</ele><time>2026-04-12T06:38:39.98Z</time></trkpt><trkpt lat="37.9984833" lon="16.1229367"><ele>8.5</ele><time>2026-04-12T06:38:40.98Z</time></trkpt><trkpt lat="37.99879" lon="16.1228917"><ele>7.0</ele><time>2026-04-12T06:38:41.981Z</time></trkpt><trkpt lat="37.9990983" lon="16.12288"><ele>8.0</ele><time>2026-04-12T06:38:42.98Z</time></trkpt><trkpt lat="37.9994033" lon="16.1229133"><ele>9.0</ele><time>2026-04-12T06:38:43.98Z</time></trkpt><trkpt lat="37.9996933" lon="16.122995"><ele>9.0</ele><time>2026-04-12T06:38:44.98Z</time></trkpt><trkpt lat="37.9999717" lon="16.123135"><ele>9.0</ele><time>2026-04-12T06:38:45.981Z</time></trkpt><trkpt lat="38.00023" lon="16.1233183"><ele>8.0</ele><time>2026-04-12T06:38:46.98Z</time></trkpt><trkpt lat="38.0004483" lon="16.1235633"><ele>7.0</ele><time>2026-04-12T06:38:47.98Z</time></trkpt><trkpt lat="38.00066" lon="16.1238517"><ele>7.5</ele><time>2026-04-12T06:38:48.98Z</time></trkpt><trkpt lat="38.0008783" lon="16.1241567"><ele>8.0</ele><time>2026-04-12T06:38:49.981Z</time></trkpt><trkpt lat="38.0011" lon="16.1244683"><ele>8.0</ele><time>2026-04-12T06:38:50.98Z</time></trkpt><trkpt lat="38.001325" lon="16.1247683"><ele>8.0</ele><time>2026-04-12T06:38:51.98Z</time></trkpt><trkpt lat="38.00155" lon="16.1250783"><ele>9.0</ele><time>2026-04-12T06:38:52.98Z</time></trkpt><trkpt lat="38.001775" lon="16.1253767"><ele>10.0</ele><time>2026-04-12T06:38:53.98Z</time></trkpt><trkpt lat="38.002005" lon="16.125655"><ele>10.5</ele><time>2026-04-12T06:38:54.98Z</time></trkpt><trkpt lat="38.00225" lon="16.125885"><ele>11.0</ele><time>2026-04-12T06:38:55.98Z</time></trkpt><trkpt lat="38.0025283" lon="16.1260717"><ele>11.0</ele><time>2026-04-12T06:38:56.981Z</time></trkpt><trkpt lat="38.002825" lon="16.1262583"><ele>11.0</ele><time>2026-04-12T06:38:57.98Z</time></trkpt><trkpt lat="38.003135" lon="16.1264467"><ele>9.5</ele><time>2026-04-12T06:38:58.98Z</time></trkpt><trkpt lat="38.0034583" lon="16.1266283"><ele>8.0</ele><time>2026-04-12T06:38:59.98Z</time></trkpt><trkpt lat="38.0037917" lon="16.1268033"><ele>8.0</ele><time>2026-04-12T06:39:00.98Z</time></trkpt><trkpt lat="38.004135" lon="16.1269817"><ele>8.0</ele><time>2026-04-12T06:39:01.98Z</time></trkpt><trkpt lat="38.004485" lon="16.1271517"><ele>9.5</ele><time>2026-04-12T06:39:02.98Z</time></trkpt><trkpt lat="38.0048433" lon="16.1273117"><ele>11.0</ele><time>2026-04-12T06:39:03.98Z</time></trkpt><trkpt lat="38.005215" lon="16.1274783"><ele>11.0</ele><time>2026-04-12T06:39:04.98Z</time></trkpt><trkpt lat="38.0055817" lon="16.12764"><ele>11.0</ele><time>2026-04-12T06:39:05.98Z</time></trkpt><trkpt lat="38.0059517" lon="16.1278033"><ele>11.0</ele><time>2026-04-12T06:39:06.98Z</time></trkpt><trkpt lat="38.0063333" lon="16.1279733"><ele>11.0</ele><time>2026-04-12T06:39:07.98Z</time></trkpt><trkpt lat="38.0067017" lon="16.1281667"><ele>10.0</ele><time>2026-04-12T06:39:08.98Z</time></trkpt><trkpt lat="38.0070733" lon="16.1283783"><ele>9.0</ele><time>2026-04-12T06:39:09.98Z</time></trkpt><trkpt lat="38.0074483" lon="16.1285983"><ele>12.5</ele><time>2026-04-12T06:39:10.98Z</time></trkpt><trkpt lat="38.00782" lon="16.12882"><ele>16.0</ele><time>2026-04-12T06:39:11.98Z</time></trkpt><trkpt lat="38.0082" lon="16.12905"><ele>13.0</ele><time>2026-04-12T06:39:12.98Z</time></trkpt><trkpt lat="38.0085817" lon="16.12928"><ele>10.0</ele><time>2026-04-12T06:39:13.98Z</time></trkpt><trkpt lat="38.00896" lon="16.1295067"><ele>10.5</ele><time>2026-04-12T06:39:14.98Z</time></trkpt><trkpt lat="38.0093333" lon="16.12973"><ele>11.0</ele><time>2026-04-12T06:39:15.98Z</time></trkpt><trkpt lat="38.009705" lon="16.129955"><ele>10.0</ele><time>2026-04-12T06:39:16.98Z</time></trkpt><trkpt lat="38.010075" lon="16.1301883"><ele>9.0</ele><time>2026-04-12T06:39:17.98Z</time></trkpt><trkpt lat="38.0104333" lon="16.1304233"><ele>9.0</ele><time>2026-04-12T06:39:18.981Z</time></trkpt><trkpt lat="38.0107933" lon="16.1306533"><ele>9.0</ele><time>2026-04-12T06:39:19.98Z</time></trkpt><trkpt lat="38.0111417" lon="16.130875"><ele>10.0</ele><time>2026-04-12T06:39:20.98Z</time></trkpt><trkpt lat="38.0114883" lon="16.1310983"><ele>11.0</ele><time>2026-04-12T06:39:21.98Z</time></trkpt><trkpt lat="38.0118433" lon="16.1313133"><ele>13.0</ele><time>2026-04-12T06:39:22.981Z</time></trkpt><trkpt lat="38.0121917" lon="16.13152"><ele>15.0</ele><time>2026-04-12T06:39:23.98Z</time></trkpt><trkpt lat="38.01254" lon="16.1317333"><ele>15.0</ele><time>2026-04-12T06:39:24.98Z</time></trkpt><trkpt lat="38.0128833" lon="16.1319317"><ele>15.0</ele><time>2026-04-12T06:39:25.981Z</time></trkpt><trkpt lat="38.0132167" lon="16.1321283"><ele>13.5</ele><time>2026-04-12T06:39:26.98Z</time></trkpt><trkpt lat="38.0135267" lon="16.13232"><ele>12.0</ele><time>2026-04-12T06:39:27.98Z</time></trkpt><trkpt lat="38.013815" lon="16.1324983"><ele>12.0</ele><time>2026-04-12T06:39:28.981Z</time></trkpt><trkpt lat="38.01408" lon="16.1326533"><ele>12.0</ele><time>2026-04-12T06:39:29.98Z</time></trkpt><trkpt lat="38.014345" lon="16.1328067"><ele>15.5</ele><time>2026-04-12T06:39:30.981Z</time></trkpt><trkpt lat="38.0145967" lon="16.1329517"><ele>19.0</ele><time>2026-04-12T06:39:31.98Z</time></trkpt><trkpt lat="38.0148517" lon="16.1331033"><ele>17.0</ele><time>2026-04-12T06:39:32.98Z</time></trkpt><trkpt lat="38.015115" lon="16.133265"><ele>15.0</ele><time>2026-04-12T06:39:33.98Z</time></trkpt><trkpt lat="38.0153633" lon="16.13341"><ele>15.0</ele><time>2026-04-12T06:39:34.981Z</time></trkpt><trkpt lat="38.015595" lon="16.1335567"><ele>15.0</ele><time>2026-04-12T06:39:35.98Z</time></trkpt><trkpt lat="38.0158133" lon="16.1336933"><ele>17.666666666666668</ele><time>2026-04-12T06:39:36.98Z</time></trkpt><trkpt lat="38.0160217" lon="16.1338117"><ele>20.333333333333336</ele><time>2026-04-12T06:39:37.98Z</time></trkpt><trkpt lat="38.01622" lon="16.1338733"><ele>23.0</ele><time>2026-04-12T06:39:38.98Z</time></trkpt><trkpt lat="38.0164317" lon="16.1339"><ele>23.0</ele><time>2026-04-12T06:39:39.98Z</time></trkpt><trkpt lat="38.016645" lon="16.1338617"><ele>23.0</ele><time>2026-04-12T06:39:40.98Z</time></trkpt><trkpt lat="38.0168617" lon="16.1337633"><ele>23.0</ele><time>2026-04-12T06:39:41.981Z</time></trkpt><trkpt lat="38.01708" lon="16.1336383"><ele>22.0</ele><time>2026-04-12T06:39:42.98Z</time></trkpt><trkpt lat="38.0172717" lon="16.1335067"><ele>21.0</ele><time>2026-04-12T06:39:43.981Z</time></trkpt><trkpt lat="38.0174817" lon="16.13341"><ele>20.0</ele><time>2026-04-12T06:39:44.98Z</time></trkpt><trkpt lat="38.0176933" lon="16.133385"><ele>16.0</ele><time>2026-04-12T06:39:45.98Z</time></trkpt><trkpt lat="38.0179233" lon="16.1334267"><ele>12.0</ele><time>2026-04-12T06:39:46.98Z</time></trkpt><trkpt lat="38.0181733" lon="16.1335067"><ele>10.0</ele><time>2026-04-12T06:39:47.98Z</time></trkpt><trkpt lat="38.0184467" lon="16.1336517"><ele>8.0</ele><time>2026-04-12T06:39:48.98Z</time></trkpt><trkpt lat="38.0187367" lon="16.1337917"><ele>8.0</ele><time>2026-04-12T06:39:49.98Z</time></trkpt><trkpt lat="38.0190283" lon="16.1339383"><ele>8.0</ele><time>2026-04-12T06:39:50.981Z</time></trkpt><trkpt lat="38.0193233" lon="16.1340717"><ele>8.5</ele><time>2026-04-12T06:39:51.98Z</time></trkpt><trkpt lat="38.01959" lon="16.1341967"><ele>9.0</ele><time>2026-04-12T06:39:52.98Z</time></trkpt><trkpt lat="38.019825" lon="16.13433"><ele>11.0</ele><time>2026-04-12T06:39:53.98Z</time></trkpt><trkpt lat="38.0200183" lon="16.1344967"><ele>13.0</ele><time>2026-04-12T06:39:54.98Z</time></trkpt><trkpt lat="38.02019" lon="16.1347"><ele>12.0</ele><time>2026-04-12T06:39:55.98Z</time></trkpt><trkpt lat="38.0203467" lon="16.1349733"><ele>11.0</ele><time>2026-04-12T06:39:56.98Z</time></trkpt><trkpt lat="38.0205117" lon="16.1352783"><ele>11.0</ele><time>2026-04-12T06:39:57.981Z</time></trkpt><trkpt lat="38.0207067" lon="16.1355833"><ele>11.0</ele><time>2026-04-12T06:39:58.98Z</time></trkpt><trkpt lat="38.0209117" lon="16.135885"><ele>13.0</ele><time>2026-04-12T06:39:59.98Z</time></trkpt><trkpt lat="38.02114" lon="16.136175"><ele>15.0</ele><time>2026-04-12T06:40:00.98Z</time></trkpt><trkpt lat="38.021385" lon="16.13647"><ele>16.5</ele><time>2026-04-12T06:40:01.98Z</time></trkpt><trkpt lat="38.0216467" lon="16.1367667"><ele>18.0</ele><time>2026-04-12T06:40:02.98Z</time></trkpt><trkpt lat="38.021905" lon="16.13707"><ele>18.0</ele><time>2026-04-12T06:40:03.98Z</time></trkpt><trkpt lat="38.0221517" lon="16.137355"><ele>18.0</ele><time>2026-04-12T06:40:04.98Z</time></trkpt><trkpt lat="38.02238" lon="16.137625"><ele>17.5</ele><time>2026-04-12T06:40:05.98Z</time></trkpt><trkpt lat="38.0226133" lon="16.1378683"><ele>17.0</ele><time>2026-04-12T06:40:06.981Z</time></trkpt><trkpt lat="38.0228633" lon="16.1380833"><ele>14.5</ele><time>2026-04-12T06:40:07.98Z</time></trkpt><trkpt lat="38.023145" lon="16.1382633"><ele>12.0</ele><time>2026-04-12T06:40:08.981Z</time></trkpt><trkpt lat="38.0234583" lon="16.13843"><ele>12.0</ele><time>2026-04-12T06:40:09.98Z</time></trkpt><trkpt lat="38.0237867" lon="16.1385883"><ele>12.0</ele><time>2026-04-12T06:40:10.98Z</time></trkpt><trkpt lat="38.0241267" lon="16.138765"><ele>9.5</ele><time>2026-04-12T06:40:11.98Z</time></trkpt><trkpt lat="38.0244733" lon="16.1389367"><ele>7.0</ele><time>2026-04-12T06:40:12.981Z</time></trkpt><trkpt lat="38.0248283" lon="16.1390983"><ele>10.0</ele><time>2026-04-12T06:40:13.98Z</time></trkpt><trkpt lat="38.02518" lon="16.1392333"><ele>13.0</ele><time>2026-04-12T06:40:14.98Z</time></trkpt><trkpt lat="38.025505" lon="16.13935"><ele>13.0</ele><time>2026-04-12T06:40:15.98Z</time></trkpt><trkpt lat="38.0257967" lon="16.139465"><ele>13.0</ele><time>2026-04-12T06:40:16.981Z</time></trkpt><trkpt lat="38.0260567" lon="16.1395883"><ele>10.5</ele><time>2026-04-12T06:40:17.981Z</time></trkpt><trkpt lat="38.02629" lon="16.1397383"><ele>8.0</ele><time>2026-04-12T06:40:18.98Z</time></trkpt><trkpt lat="38.0264933" lon="16.139895"><ele>12.0</ele><time>2026-04-12T06:40:19.981Z</time></trkpt><trkpt lat="38.0266767" lon="16.1400367"><ele>16.0</ele><time>2026-04-12T06:40:20.981Z</time></trkpt><trkpt lat="38.0268317" lon="16.1401583"><ele>20.0</ele><time>2026-04-12T06:40:21.98Z</time></trkpt><trkpt lat="38.02696" lon="16.1402817"><ele>20.0</ele><time>2026-04-12T06:40:22.98Z</time></trkpt><trkpt lat="38.02707" lon="16.1403867"><ele>20.0</ele><time>2026-04-12T06:40:23.98Z</time></trkpt><trkpt lat="38.0271467" lon="16.1404867"><ele>20.0</ele><time>2026-04-12T06:40:24.98Z</time></trkpt><trkpt lat="38.027205" lon="16.1405617"><ele>20.0</ele><time>2026-04-12T06:40:25.98Z</time></trkpt><trkpt lat="38.0272817" lon="16.1406367"><ele>20.0</ele><time>2026-04-12T06:40:27.981Z</time></trkpt><trkpt lat="38.027335" lon="16.140695"><ele>20.5</ele><time>2026-04-12T06:40:57.981Z</time></trkpt><trkpt lat="38.0274133" lon="16.1407617"><ele>21.0</ele><time>2026-04-12T06:40:58.981Z</time></trkpt><trkpt lat="38.0275317" lon="16.1408633"><ele>21.5</ele><time>2026-04-12T06:40:59.98Z</time></trkpt><trkpt lat="38.0276983" lon="16.1410167"><ele>22.0</ele><time>2026-04-12T06:41:00.98Z</time></trkpt><trkpt lat="38.0279" lon="16.1412033"><ele>22.0</ele><time>2026-04-12T06:41:01.981Z</time></trkpt><trkpt lat="38.0281417" lon="16.1414583"><ele>22.0</ele><time>2026-04-12T06:41:02.98Z</time></trkpt><trkpt lat="38.0284133" lon="16.1417183"><ele>25.5</ele><time>2026-04-12T06:41:03.981Z</time></trkpt><trkpt lat="38.0286733" lon="16.1419383"><ele>29.0</ele><time>2026-04-12T06:41:04.98Z</time></trkpt><trkpt lat="38.0289117" lon="16.1421283"><ele>29.0</ele><time>2026-04-12T06:41:05.98Z</time></trkpt><trkpt lat="38.02912" lon="16.1422783"><ele>29.0</ele><time>2026-04-12T06:41:06.981Z</time></trkpt><trkpt lat="38.0293217" lon="16.1423567"><ele>20.5</ele><time>2026-04-12T06:41:07.981Z</time></trkpt><trkpt lat="38.0295483" lon="16.1423833"><ele>12.0</ele><time>2026-04-12T06:41:08.98Z</time></trkpt><trkpt lat="38.0297883" lon="16.1423817"><ele>17.5</ele><time>2026-04-12T06:41:09.98Z</time></trkpt><trkpt lat="38.0300533" lon="16.1423883"><ele>23.0</ele><time>2026-04-12T06:41:10.98Z</time></trkpt><trkpt lat="38.0303167" lon="16.1424217"><ele>23.0</ele><time>2026-04-12T06:41:11.98Z</time></trkpt><trkpt lat="38.0305683" lon="16.1424667"><ele>23.0</ele><time>2026-04-12T06:41:12.98Z</time></trkpt><trkpt lat="38.0308017" lon="16.1425433"><ele>26.0</ele><time>2026-04-12T06:41:13.98Z</time></trkpt><trkpt lat="38.0310167" lon="16.1426583"><ele>29.0</ele><time>2026-04-12T06:41:14.98Z</time></trkpt><trkpt lat="38.0312183" lon="16.1427983"><ele>29.0</ele><time>2026-04-12T06:41:15.981Z</time></trkpt><trkpt lat="38.0314283" lon="16.14294"><ele>29.0</ele><time>2026-04-12T06:41:16.98Z</time></trkpt><trkpt lat="38.0316733" lon="16.1430733"><ele>24.5</ele><time>2026-04-12T06:41:17.98Z</time></trkpt><trkpt lat="38.0319367" lon="16.14318"><ele>20.0</ele><time>2026-04-12T06:41:18.98Z</time></trkpt><trkpt lat="38.0322083" lon="16.14326"><ele>22.5</ele><time>2026-04-12T06:41:19.98Z</time></trkpt><trkpt lat="38.0324933" lon="16.143305"><ele>25.0</ele><time>2026-04-12T06:41:20.981Z</time></trkpt><trkpt lat="38.032775" lon="16.1433133"><ele>25.0</ele><time>2026-04-12T06:41:21.98Z</time></trkpt><trkpt lat="38.0330417" lon="16.143265"><ele>25.0</ele><time>2026-04-12T06:41:22.98Z</time></trkpt><trkpt lat="38.03331" lon="16.1431433"><ele>40.0</ele><time>2026-04-12T06:41:23.98Z</time></trkpt><trkpt lat="38.03358" lon="16.1430133"><ele>55.0</ele><time>2026-04-12T06:41:24.981Z</time></trkpt><trkpt lat="38.0338717" lon="16.142895"><ele>49.0</ele><time>2026-04-12T06:41:25.98Z</time></trkpt><trkpt lat="38.0341867" lon="16.142805"><ele>43.0</ele><time>2026-04-12T06:41:26.98Z</time></trkpt><trkpt lat="38.0345233" lon="16.1427383"><ele>43.0</ele><time>2026-04-12T06:41:27.98Z</time></trkpt><trkpt lat="38.03486" lon="16.1426867"><ele>43.0</ele><time>2026-04-12T06:41:28.981Z</time></trkpt><trkpt lat="38.03517" lon="16.1426233"><ele>37.0</ele><time>2026-04-12T06:41:29.98Z</time></trkpt><trkpt lat="38.0354667" lon="16.1425683"><ele>31.0</ele><time>2026-04-12T06:41:30.98Z</time></trkpt><trkpt lat="38.0357533" lon="16.1425383"><ele>26.0</ele><time>2026-04-12T06:41:31.98Z</time></trkpt><trkpt lat="38.0360383" lon="16.1425417"><ele>21.0</ele><time>2026-04-12T06:41:32.98Z</time></trkpt><trkpt lat="38.0363333" lon="16.1425817"><ele>21.0</ele><time>2026-04-12T06:41:33.98Z</time></trkpt><trkpt lat="38.036635" lon="16.1426317"><ele>21.0</ele><time>2026-04-12T06:41:34.98Z</time></trkpt><trkpt lat="38.03694" lon="16.1426783"><ele>24.0</ele><time>2026-04-12T06:41:35.98Z</time></trkpt><trkpt lat="38.0372233" lon="16.1427117"><ele>27.0</ele><time>2026-04-12T06:41:36.98Z</time></trkpt><trkpt lat="38.0374667" lon="16.1427433"><ele>28.0</ele><time>2026-04-12T06:41:37.981Z</time></trkpt><trkpt lat="38.037695" lon="16.1427833"><ele>29.0</ele><time>2026-04-12T06:41:38.98Z</time></trkpt><trkpt lat="38.037895" lon="16.1428517"><ele>30.0</ele><time>2026-04-12T06:41:39.98Z</time></trkpt><trkpt lat="38.0380767" lon="16.1429733"><ele>30.0</ele><time>2026-04-12T06:41:40.98Z</time></trkpt><trkpt lat="38.0382467" lon="16.1431467"><ele>30.0</ele><time>2026-04-12T06:41:41.98Z</time></trkpt><trkpt lat="38.03841" lon="16.1434067"><ele>32.0</ele><time>2026-04-12T06:41:42.98Z</time></trkpt><trkpt lat="38.0385767" lon="16.1436767"><ele>34.0</ele><time>2026-04-12T06:41:43.98Z</time></trkpt><trkpt lat="38.038745" lon="16.143945"><ele>21.5</ele><time>2026-04-12T06:41:44.98Z</time></trkpt><trkpt lat="38.0388967" lon="16.14419"><ele>9.0</ele><time>2026-04-12T06:41:45.981Z</time></trkpt><trkpt lat="38.0390317" lon="16.144395"><ele>19.666666666666664</ele><time>2026-04-12T06:41:46.981Z</time></trkpt><trkpt lat="38.0391517" lon="16.144575"><ele>30.333333333333332</ele><time>2026-04-12T06:41:47.981Z</time></trkpt><trkpt lat="38.0392617" lon="16.1447133"><ele>41.0</ele><time>2026-04-12T06:41:48.981Z</time></trkpt><trkpt lat="38.0393733" lon="16.1447883"><ele>41.0</ele><time>2026-04-12T06:41:49.98Z</time></trkpt><trkpt lat="38.0395083" lon="16.1448083"><ele>41.0</ele><time>2026-04-12T06:41:50.981Z</time></trkpt><trkpt lat="38.039645" lon="16.1447733"><ele>41.0</ele><time>2026-04-12T06:41:51.98Z</time></trkpt><trkpt lat="38.0397833" lon="16.1446967"><ele>41.0</ele><time>2026-04-12T06:41:52.98Z</time></trkpt><trkpt lat="38.0398967" lon="16.1445783"><ele>43.666666666666664</ele><time>2026-04-12T06:41:53.981Z</time></trkpt><trkpt lat="38.0399983" lon="16.1444117"><ele>46.33333333333333</ele><time>2026-04-12T06:41:54.98Z</time></trkpt><trkpt lat="38.0400933" lon="16.1441917"><ele>49.0</ele><time>2026-04-12T06:41:55.981Z</time></trkpt><trkpt lat="38.0401833" lon="16.1439667"><ele>49.0</ele><time>2026-04-12T06:41:56.98Z</time></trkpt><trkpt lat="38.0402517" lon="16.143715"><ele>49.0</ele><time>2026-04-12T06:41:57.98Z</time></trkpt><trkpt lat="38.0403233" lon="16.14344"><ele>49.0</ele><time>2026-04-12T06:41:58.98Z</time></trkpt><trkpt lat="38.0403817" lon="16.14315"><ele>56.0</ele><time>2026-04-12T06:41:59.98Z</time></trkpt><trkpt lat="38.04046" lon="16.14288"><ele>63.0</ele><time>2026-04-12T06:42:00.981Z</time></trkpt><trkpt lat="38.040565" lon="16.1426217"><ele>63.0</ele><time>2026-04-12T06:42:01.98Z</time></trkpt><trkpt lat="38.04074" lon="16.142385"><ele>63.0</ele><time>2026-04-12T06:42:02.98Z</time></trkpt><trkpt lat="38.0409583" lon="16.1421617"><ele>57.0</ele><time>2026-04-12T06:42:03.981Z</time></trkpt><trkpt lat="38.0411983" lon="16.14192"><ele>51.0</ele><time>2026-04-12T06:42:04.98Z</time></trkpt><trkpt lat="38.041465" lon="16.14167"><ele>44.0</ele><time>2026-04-12T06:42:05.98Z</time></trkpt><trkpt lat="38.0417483" lon="16.1414183"><ele>37.0</ele><time>2026-04-12T06:42:06.98Z</time></trkpt><trkpt lat="38.0420183" lon="16.1411867"><ele>37.0</ele><time>2026-04-12T06:42:07.981Z</time></trkpt><trkpt lat="38.0422917" lon="16.1409967"><ele>37.0</ele><time>2026-04-12T06:42:08.98Z</time></trkpt><trkpt lat="38.0425733" lon="16.1408467"><ele>34.5</ele><time>2026-04-12T06:42:09.98Z</time></trkpt><trkpt lat="38.0428633" lon="16.1407417"><ele>32.0</ele><time>2026-04-12T06:42:10.98Z</time></trkpt><trkpt lat="38.0431917" lon="16.14066"><ele>28.0</ele><time>2026-04-12T06:42:11.981Z</time></trkpt><trkpt lat="38.0435383" lon="16.1405883"><ele>24.0</ele><time>2026-04-12T06:42:12.98Z</time></trkpt><trkpt lat="38.0439017" lon="16.14048"><ele>19.0</ele><time>2026-04-12T06:42:13.98Z</time></trkpt><trkpt lat="38.044275" lon="16.1403317"><ele>14.0</ele><time>2026-04-12T06:42:14.98Z</time></trkpt><trkpt lat="38.0446567" lon="16.1401633"><ele>13.0</ele><time>2026-04-12T06:42:15.981Z</time></trkpt><trkpt lat="38.04504" lon="16.140005"><ele>12.0</ele><time>2026-04-12T06:42:16.981Z</time></trkpt><trkpt lat="38.0453833" lon="16.1398583"><ele>12.0</ele><time>2026-04-12T06:42:17.98Z</time></trkpt><trkpt lat="38.0457117" lon="16.1397283"><ele>12.0</ele><time>2026-04-12T06:42:18.98Z</time></trkpt><trkpt lat="38.0460117" lon="16.1396017"><ele>10.5</ele><time>2026-04-12T06:42:19.98Z</time></trkpt><trkpt lat="38.04631" lon="16.13951"><ele>9.0</ele><time>2026-04-12T06:42:20.98Z</time></trkpt><trkpt lat="38.0466033" lon="16.13944"><ele>8.5</ele><time>2026-04-12T06:42:21.98Z</time></trkpt><trkpt lat="38.046925" lon="16.1394067"><ele>8.0</ele><time>2026-04-12T06:42:22.98Z</time></trkpt><trkpt lat="38.0472617" lon="16.1394067"><ele>7.5</ele><time>2026-04-12T06:42:23.98Z</time></trkpt><trkpt lat="38.04761" lon="16.139395"><ele>7.0</ele><time>2026-04-12T06:42:24.98Z</time></trkpt><trkpt lat="38.0479617" lon="16.13938"><ele>6.5</ele><time>2026-04-12T06:42:25.98Z</time></trkpt><trkpt lat="38.0482967" lon="16.1393817"><ele>6.0</ele><time>2026-04-12T06:42:26.98Z</time></trkpt><trkpt lat="38.04865" lon="16.1393767"><ele>6.0</ele><time>2026-04-12T06:42:27.98Z</time></trkpt><trkpt lat="38.0490133" lon="16.1393767"><ele>6.0</ele><time>2026-04-12T06:42:28.98Z</time></trkpt><trkpt lat="38.0493683" lon="16.1393617"><ele>6.0</ele><time>2026-04-12T06:42:29.981Z</time></trkpt><trkpt lat="38.0497" lon="16.139355"><ele>6.0</ele><time>2026-04-12T06:42:30.98Z</time></trkpt><trkpt lat="38.050015" lon="16.13934"><ele>6.0</ele><time>2026-04-12T06:42:31.98Z</time></trkpt><trkpt lat="38.05031" lon="16.13934"><ele>6.0</ele><time>2026-04-12T06:42:32.98Z</time></trkpt><trkpt lat="38.0505817" lon="16.1393367"><ele>6.5</ele><time>2026-04-12T06:42:33.98Z</time></trkpt><trkpt lat="38.0508367" lon="16.139325"><ele>7.0</ele><time>2026-04-12T06:42:34.98Z</time></trkpt><trkpt lat="38.0510583" lon="16.13932"><ele>7.0</ele><time>2026-04-12T06:42:35.98Z</time></trkpt><trkpt lat="38.0512683" lon="16.1393167"><ele>7.0</ele><time>2026-04-12T06:42:36.98Z</time></trkpt><trkpt lat="38.0514467" lon="16.1393183"><ele>7.0</ele><time>2026-04-12T06:42:37.981Z</time></trkpt><trkpt lat="38.0516067" lon="16.1393117"><ele>7.199999999999999</ele><time>2026-04-12T06:42:38.981Z</time></trkpt><trkpt lat="38.051745" lon="16.1393017"><ele>7.3999999999999995</ele><time>2026-04-12T06:42:39.98Z</time></trkpt><trkpt lat="38.0518633" lon="16.1392967"><ele>7.6000000000000005</ele><time>2026-04-12T06:42:40.98Z</time></trkpt><trkpt lat="38.051965" lon="16.139295"><ele>7.800000000000001</ele><time>2026-04-12T06:42:41.98Z</time></trkpt><trkpt lat="38.0520383" lon="16.13929"><ele>8.0</ele><time>2026-04-12T06:42:42.98Z</time></trkpt><trkpt lat="38.052105" lon="16.139295"><ele>8.0</ele><time>2026-04-12T06:42:43.98Z</time></trkpt><trkpt lat="38.0521967" lon="16.13929"><ele>8.0</ele><time>2026-04-12T06:42:45.98Z</time></trkpt><trkpt lat="38.0521233" lon="16.1392467"><ele>8.0</ele><time>2026-04-12T06:42:49.98Z</time></trkpt><trkpt lat="38.0520067" lon="16.1392267"><ele>8.0</ele><time>2026-04-12T06:50:57.981Z</time></trkpt><trkpt lat="38.051935" lon="16.13924"><ele>8.0</ele><time>2026-04-12T06:51:00.981Z</time></trkpt><trkpt lat="38.0518383" lon="16.1392433"><ele>7.999999999999999</ele><time>2026-04-12T06:51:03.982Z</time></trkpt><trkpt lat="38.05177" lon="16.1392467"><ele>8.0</ele><time>2026-04-12T06:51:05.981Z</time></trkpt><trkpt lat="38.0516883" lon="16.1392417"><ele>8.0</ele><time>2026-04-12T06:51:07.982Z</time></trkpt><trkpt lat="38.051565" lon="16.139245"><ele>8.0</ele><time>2026-04-12T06:51:09.981Z</time></trkpt><trkpt lat="38.0514883" lon="16.1392417"><ele>7.999999999999999</ele><time>2026-04-12T06:51:10.982Z</time></trkpt><trkpt lat="38.051405" lon="16.1392483"><ele>8.0</ele><time>2026-04-12T06:51:11.982Z</time></trkpt><trkpt lat="38.05131" lon="16.1392517"><ele>7.75</ele><time>2026-04-12T06:51:12.982Z</time></trkpt><trkpt lat="38.0512" lon="16.1392617"><ele>7.5</ele><time>2026-04-12T06:51:13.982Z</time></trkpt><trkpt lat="38.051085" lon="16.1392683"><ele>7.25</ele><time>2026-04-12T06:51:14.981Z</time></trkpt><trkpt lat="38.0509683" lon="16.1392717"><ele>7.0</ele><time>2026-04-12T06:51:15.981Z</time></trkpt><trkpt lat="38.0508517" lon="16.139275"><ele>6.75</ele><time>2026-04-12T06:51:16.981Z</time></trkpt><trkpt lat="38.0507267" lon="16.139275"><ele>6.5</ele><time>2026-04-12T06:51:17.981Z</time></trkpt><trkpt lat="38.0505967" lon="16.139275"><ele>6.25</ele><time>2026-04-12T06:51:18.981Z</time></trkpt><trkpt lat="38.0504683" lon="16.1392833"><ele>6.0</ele><time>2026-04-12T06:51:19.981Z</time></trkpt><trkpt lat="38.0503417" lon="16.1392767"><ele>6.0</ele><time>2026-04-12T06:51:20.982Z</time></trkpt><trkpt lat="38.0502083" lon="16.1392767"><ele>6.0</ele><time>2026-04-12T06:51:21.982Z</time></trkpt><trkpt lat="38.0500683" lon="16.1392783"><ele>6.0</ele><time>2026-04-12T06:51:22.981Z</time></trkpt><trkpt lat="38.0499283" lon="16.13928"><ele>6.0</ele><time>2026-04-12T06:51:23.981Z</time></trkpt><trkpt lat="38.04978" lon="16.1392817"><ele>5.666666666666667</ele><time>2026-04-12T06:51:24.981Z</time></trkpt><trkpt lat="38.04963" lon="16.1392817"><ele>5.333333333333334</ele><time>2026-04-12T06:51:25.981Z</time></trkpt><trkpt lat="38.049475" lon="16.139285"><ele>5.0</ele><time>2026-04-12T06:51:26.982Z</time></trkpt><trkpt lat="38.0493233" lon="16.1392917"><ele>5.0</ele><time>2026-04-12T06:51:27.981Z</time></trkpt><trkpt lat="38.0491633" lon="16.1392983"><ele>5.0</ele><time>2026-04-12T06:51:28.981Z</time></trkpt><trkpt lat="38.0490033" lon="16.1393083"><ele>5.0</ele><time>2026-04-12T06:51:29.981Z</time></trkpt><trkpt lat="38.0488433" lon="16.1393083"><ele>5.333333333333334</ele><time>2026-04-12T06:51:30.981Z</time></trkpt><trkpt lat="38.0486833" lon="16.1393183"><ele>5.666666666666667</ele><time>2026-04-12T06:51:31.981Z</time></trkpt><trkpt lat="38.0485183" lon="16.1393283"><ele>6.0</ele><time>2026-04-12T06:51:32.982Z</time></trkpt><trkpt lat="38.048355" lon="16.13933"><ele>6.333333333333334</ele><time>2026-04-12T06:51:33.981Z</time></trkpt><trkpt lat="38.0481883" lon="16.1393283"><ele>6.666666666666667</ele><time>2026-04-12T06:51:34.981Z</time></trkpt><trkpt lat="38.0480183" lon="16.1393383"><ele>7.0</ele><time>2026-04-12T06:51:35.981Z</time></trkpt><trkpt lat="38.047845" lon="16.1393433"><ele>7.0</ele><time>2026-04-12T06:51:36.982Z</time></trkpt><trkpt lat="38.0476733" lon="16.1393483"><ele>7.0</ele><time>2026-04-12T06:51:37.981Z</time></trkpt><trkpt lat="38.0475" lon="16.1393533"><ele>7.0</ele><time>2026-04-12T06:51:38.982Z</time></trkpt><trkpt lat="38.047345" lon="16.1393533"><ele>7.333333333333334</ele><time>2026-04-12T06:51:39.981Z</time></trkpt><trkpt lat="38.0471683" lon="16.13935"><ele>7.666666666666666</ele><time>2026-04-12T06:51:40.982Z</time></trkpt><trkpt lat="38.04699" lon="16.1393533"><ele>8.0</ele><time>2026-04-12T06:51:41.982Z</time></trkpt><trkpt lat="38.0468083" lon="16.1393583"><ele>8.0</ele><time>2026-04-12T06:51:42.982Z</time></trkpt><trkpt lat="38.04663" lon="16.1393767"><ele>8.0</ele><time>2026-04-12T06:51:43.981Z</time></trkpt><trkpt lat="38.046455" lon="16.1394"><ele>8.0</ele><time>2026-04-12T06:51:44.981Z</time></trkpt><trkpt lat="38.0462733" lon="16.1394517"><ele>8.333333333333332</ele><time>2026-04-12T06:51:45.981Z</time></trkpt><trkpt lat="38.0460967" lon="16.1395083"><ele>8.666666666666666</ele><time>2026-04-12T06:51:46.981Z</time></trkpt><trkpt lat="38.0459217" lon="16.1395717"><ele>9.0</ele><time>2026-04-12T06:51:47.981Z</time></trkpt><trkpt lat="38.0457433" lon="16.139635"><ele>10.0</ele><time>2026-04-12T06:51:48.981Z</time></trkpt><trkpt lat="38.0455667" lon="16.1397117"><ele>11.0</ele><time>2026-04-12T06:51:49.981Z</time></trkpt><trkpt lat="38.04539" lon="16.1397883"><ele>12.0</ele><time>2026-04-12T06:51:50.981Z</time></trkpt><trkpt lat="38.045215" lon="16.1398633"><ele>12.666666666666668</ele><time>2026-04-12T06:51:51.981Z</time></trkpt><trkpt lat="38.0450333" lon="16.1399317"><ele>13.333333333333334</ele><time>2026-04-12T06:51:52.981Z</time></trkpt><trkpt lat="38.0448483" lon="16.1400133"><ele>14.0</ele><time>2026-04-12T06:51:53.981Z</time></trkpt><trkpt lat="38.0446667" lon="16.140095"><ele>14.0</ele><time>2026-04-12T06:51:54.981Z</time></trkpt><trkpt lat="38.0444833" lon="16.1401817"><ele>14.0</ele><time>2026-04-12T06:51:55.981Z</time></trkpt><trkpt lat="38.044295" lon="16.14027"><ele>14.0</ele><time>2026-04-12T06:51:56.981Z</time></trkpt><trkpt lat="38.0441067" lon="16.1403583"><ele>17.333333333333336</ele><time>2026-04-12T06:51:57.981Z</time></trkpt><trkpt lat="38.043915" lon="16.1404433"><ele>20.666666666666668</ele><time>2026-04-12T06:51:58.981Z</time></trkpt><trkpt lat="38.0437183" lon="16.1405283"><ele>24.0</ele><time>2026-04-12T06:51:59.982Z</time></trkpt><trkpt lat="38.0435267" lon="16.1406017"><ele>24.0</ele><time>2026-04-12T06:52:00.981Z</time></trkpt><trkpt lat="38.0433317" lon="16.1406683"><ele>24.0</ele><time>2026-04-12T06:52:01.981Z</time></trkpt><trkpt lat="38.0431417" lon="16.1407117"><ele>24.0</ele><time>2026-04-12T06:52:02.981Z</time></trkpt><trkpt lat="38.04295" lon="16.140735"><ele>22.0</ele><time>2026-04-12T06:52:03.981Z</time></trkpt><trkpt lat="38.04276" lon="16.14077"><ele>20.0</ele><time>2026-04-12T06:52:04.981Z</time></trkpt><trkpt lat="38.0425833" lon="16.1408333"><ele>18.0</ele><time>2026-04-12T06:52:05.981Z</time></trkpt><trkpt lat="38.0424167" lon="16.1409217"><ele>24.333333333333336</ele><time>2026-04-12T06:52:06.981Z</time></trkpt><trkpt lat="38.042255" lon="16.1410133"><ele>30.666666666666668</ele><time>2026-04-12T06:52:07.982Z</time></trkpt><trkpt lat="38.042105" lon="16.1411217"><ele>37.0</ele><time>2026-04-12T06:52:08.981Z</time></trkpt><trkpt lat="38.0419567" lon="16.14124"><ele>37.0</ele><time>2026-04-12T06:52:09.981Z</time></trkpt><trkpt lat="38.0418133" lon="16.141365"><ele>37.0</ele><time>2026-04-12T06:52:10.981Z</time></trkpt><trkpt lat="38.0416717" lon="16.14149"><ele>37.0</ele><time>2026-04-12T06:52:11.981Z</time></trkpt><trkpt lat="38.0415267" lon="16.1416267"><ele>41.66666666666667</ele><time>2026-04-12T06:52:12.982Z</time></trkpt><trkpt lat="38.0413767" lon="16.14175"><ele>46.333333333333336</ele><time>2026-04-12T06:52:13.982Z</time></trkpt><trkpt lat="38.041235" lon="16.1418833"><ele>51.0</ele><time>2026-04-12T06:52:14.982Z</time></trkpt><trkpt lat="38.0410933" lon="16.1420117"><ele>51.0</ele><time>2026-04-12T06:52:15.981Z</time></trkpt><trkpt lat="38.0409617" lon="16.1421467"><ele>51.0</ele><time>2026-04-12T06:52:16.982Z</time></trkpt><trkpt lat="38.0408283" lon="16.1423"><ele>51.0</ele><time>2026-04-12T06:52:17.982Z</time></trkpt><trkpt lat="38.040705" lon="16.1424367"><ele>54.0</ele><time>2026-04-12T06:52:18.981Z</time></trkpt><trkpt lat="38.040595" lon="16.142555"><ele>57.0</ele><time>2026-04-12T06:52:19.981Z</time></trkpt><trkpt lat="38.040485" lon="16.1426833"><ele>60.0</ele><time>2026-04-12T06:52:20.981Z</time></trkpt><trkpt lat="38.0404217" lon="16.14284"><ele>63.0</ele><time>2026-04-12T06:52:21.982Z</time></trkpt><trkpt lat="38.0403617" lon="16.1430067"><ele>63.0</ele><time>2026-04-12T06:52:22.981Z</time></trkpt><trkpt lat="38.0403233" lon="16.14317"><ele>63.0</ele><time>2026-04-12T06:52:23.982Z</time></trkpt><trkpt lat="38.0403" lon="16.1433333"><ele>63.0</ele><time>2026-04-12T06:52:24.981Z</time></trkpt><trkpt lat="38.04028" lon="16.1434933"><ele>63.0</ele><time>2026-04-12T06:52:25.981Z</time></trkpt><trkpt lat="38.0402633" lon="16.1436417"><ele>60.2</ele><time>2026-04-12T06:52:26.981Z</time></trkpt><trkpt lat="38.0402333" lon="16.1437733"><ele>57.4</ele><time>2026-04-12T06:52:27.981Z</time></trkpt><trkpt lat="38.0401983" lon="16.1438967"><ele>54.6</ele><time>2026-04-12T06:52:28.982Z</time></trkpt><trkpt lat="38.04016" lon="16.1440167"><ele>51.800000000000004</ele><time>2026-04-12T06:52:29.982Z</time></trkpt><trkpt lat="38.0400917" lon="16.1441467"><ele>49.0</ele><time>2026-04-12T06:52:30.982Z</time></trkpt><trkpt lat="38.0400217" lon="16.1442783"><ele>47.0</ele><time>2026-04-12T06:52:31.981Z</time></trkpt><trkpt lat="38.03995" lon="16.144405"><ele>45.0</ele><time>2026-04-12T06:52:32.981Z</time></trkpt><trkpt lat="38.0398783" lon="16.1445233"><ele>43.0</ele><time>2026-04-12T06:52:33.981Z</time></trkpt><trkpt lat="38.0398033" lon="16.1446367"><ele>41.0</ele><time>2026-04-12T06:52:34.981Z</time></trkpt><trkpt lat="38.0397183" lon="16.1447117"><ele>41.0</ele><time>2026-04-12T06:52:35.981Z</time></trkpt><trkpt lat="38.0396217" lon="16.1447533"><ele>41.0</ele><time>2026-04-12T06:52:36.981Z</time></trkpt><trkpt lat="38.0395167" lon="16.144775"><ele>41.0</ele><time>2026-04-12T06:52:37.981Z</time></trkpt><trkpt lat="38.03941" lon="16.1447833"><ele>41.0</ele><time>2026-04-12T06:52:38.982Z</time></trkpt><trkpt lat="38.039305" lon="16.1447633"><ele>41.0</ele><time>2026-04-12T06:52:39.981Z</time></trkpt><trkpt lat="38.039215" lon="16.1447283"><ele>33.0</ele><time>2026-04-12T06:52:40.981Z</time></trkpt><trkpt lat="38.039125" lon="16.1446633"><ele>25.0</ele><time>2026-04-12T06:52:41.981Z</time></trkpt><trkpt lat="38.0390433" lon="16.144575"><ele>17.0</ele><time>2026-04-12T06:52:42.981Z</time></trkpt><trkpt lat="38.0389717" lon="16.14446"><ele>9.0</ele><time>2026-04-12T06:52:43.981Z</time></trkpt><trkpt lat="38.0388917" lon="16.144325"><ele>9.0</ele><time>2026-04-12T06:52:44.981Z</time></trkpt><trkpt lat="38.0388033" lon="16.1441467"><ele>9.0</ele><time>2026-04-12T06:52:45.981Z</time></trkpt><trkpt lat="38.03868" lon="16.14396"><ele>9.0</ele><time>2026-04-12T06:52:46.981Z</time></trkpt><trkpt lat="38.0385283" lon="16.1437583"><ele>8.333333333333334</ele><time>2026-04-12T06:52:47.981Z</time></trkpt><trkpt lat="38.0383983" lon="16.14355"><ele>7.666666666666667</ele><time>2026-04-12T06:52:48.981Z</time></trkpt><trkpt lat="38.038255" lon="16.14334"><ele>7.0</ele><time>2026-04-12T06:52:49.981Z</time></trkpt><trkpt lat="38.0381133" lon="16.1431283"><ele>14.666666666666668</ele><time>2026-04-12T06:52:50.981Z</time></trkpt><trkpt lat="38.037955" lon="16.1429317"><ele>22.333333333333332</ele><time>2026-04-12T06:52:51.981Z</time></trkpt><trkpt lat="38.037795" lon="16.14277"><ele>30.0</ele><time>2026-04-12T06:52:52.981Z</time></trkpt><trkpt lat="38.037595" lon="16.1426717"><ele>28.5</ele><time>2026-04-12T06:52:53.982Z</time></trkpt><trkpt lat="38.037355" lon="16.1426417"><ele>27.0</ele><time>2026-04-12T06:52:54.981Z</time></trkpt><trkpt lat="38.0370933" lon="16.1426267"><ele>27.0</ele><time>2026-04-12T06:52:55.982Z</time></trkpt><trkpt lat="38.0368383" lon="16.1426067"><ele>27.0</ele><time>2026-04-12T06:52:56.981Z</time></trkpt><trkpt lat="38.0365867" lon="16.142595"><ele>24.0</ele><time>2026-04-12T06:52:57.981Z</time></trkpt><trkpt lat="38.03634" lon="16.1425683"><ele>21.0</ele><time>2026-04-12T06:52:58.981Z</time></trkpt><trkpt lat="38.036085" lon="16.1425383"><ele>21.0</ele><time>2026-04-12T06:52:59.981Z</time></trkpt><trkpt lat="38.035825" lon="16.14251"><ele>21.0</ele><time>2026-04-12T06:53:00.982Z</time></trkpt><trkpt lat="38.0355583" lon="16.1425117"><ele>26.0</ele><time>2026-04-12T06:53:01.981Z</time></trkpt><trkpt lat="38.0352883" lon="16.1425433"><ele>31.0</ele><time>2026-04-12T06:53:02.981Z</time></trkpt><trkpt lat="38.0350233" lon="16.1426017"><ele>37.0</ele><time>2026-04-12T06:53:03.982Z</time></trkpt><trkpt lat="38.0347583" lon="16.14266"><ele>43.0</ele><time>2026-04-12T06:53:04.982Z</time></trkpt><trkpt lat="38.03449" lon="16.14271"><ele>43.0</ele><time>2026-04-12T06:53:05.981Z</time></trkpt><trkpt lat="38.0342283" lon="16.14276"><ele>43.0</ele><time>2026-04-12T06:53:06.981Z</time></trkpt><trkpt lat="38.033965" lon="16.1428183"><ele>49.0</ele><time>2026-04-12T06:53:07.981Z</time></trkpt><trkpt lat="38.033725" lon="16.1428817"><ele>55.0</ele><time>2026-04-12T06:53:08.981Z</time></trkpt><trkpt lat="38.0335033" lon="16.1429583"><ele>56.666666666666664</ele><time>2026-04-12T06:53:09.981Z</time></trkpt><trkpt lat="38.0333033" lon="16.143055"><ele>58.33333333333333</ele><time>2026-04-12T06:53:10.981Z</time></trkpt><trkpt lat="38.0331233" lon="16.14314"><ele>60.0</ele><time>2026-04-12T06:53:11.981Z</time></trkpt><trkpt lat="38.033075" lon="16.1431933"><ele>48.333333333333336</ele><time>2026-04-12T06:53:12.981Z</time></trkpt><trkpt lat="38.03304" lon="16.1432617"><ele>36.66666666666667</ele><time>2026-04-12T06:53:14.982Z</time></trkpt><trkpt lat="38.0326617" lon="16.1432533"><ele>25.0</ele><time>2026-04-12T06:53:15.981Z</time></trkpt><trkpt lat="38.03248" lon="16.1432533"><ele>34.5</ele><time>2026-04-12T06:53:16.981Z</time></trkpt><trkpt lat="38.0322517" lon="16.1432133"><ele>44.0</ele><time>2026-04-12T06:53:17.981Z</time></trkpt><trkpt lat="38.0319683" lon="16.1431183"><ele>44.0</ele><time>2026-04-12T06:53:18.981Z</time></trkpt><trkpt lat="38.0316483" lon="16.1429933"><ele>44.0</ele><time>2026-04-12T06:53:19.981Z</time></trkpt><trkpt lat="38.03131" lon="16.142805"><ele>36.5</ele><time>2026-04-12T06:53:20.981Z</time></trkpt><trkpt lat="38.031005" lon="16.1426417"><ele>29.0</ele><time>2026-04-12T06:53:21.981Z</time></trkpt><trkpt lat="38.0306783" lon="16.14249"><ele>27.0</ele><time>2026-04-12T06:53:22.982Z</time></trkpt><trkpt lat="38.0304617" lon="16.1424167"><ele>25.0</ele><time>2026-04-12T06:53:23.982Z</time></trkpt><trkpt lat="38.0302917" lon="16.1423867"><ele>23.0</ele><time>2026-04-12T06:53:24.981Z</time></trkpt><trkpt lat="38.030155" lon="16.1423767"><ele>20.799999999999997</ele><time>2026-04-12T06:53:25.981Z</time></trkpt><trkpt lat="38.0300467" lon="16.1423767"><ele>18.599999999999998</ele><time>2026-04-12T06:53:26.981Z</time></trkpt><trkpt lat="38.0299533" lon="16.1423833"><ele>16.4</ele><time>2026-04-12T06:53:27.982Z</time></trkpt><trkpt lat="38.0298667" lon="16.1423917"><ele>14.2</ele><time>2026-04-12T06:53:28.981Z</time></trkpt><trkpt lat="38.0297583" lon="16.1424"><ele>12.0</ele><time>2026-04-12T06:53:30.981Z</time></trkpt><trkpt lat="38.0296767" lon="16.1423767"><ele>26.0</ele><time>2026-04-12T06:53:32.981Z</time></trkpt><trkpt lat="38.0295317" lon="16.1423583"><ele>40.0</ele><time>2026-04-12T06:53:45.981Z</time></trkpt><trkpt lat="38.0294367" lon="16.14234"><ele>54.0</ele><time>2026-04-12T06:53:46.981Z</time></trkpt><trkpt lat="38.029335" lon="16.1423183"><ele>68.0</ele><time>2026-04-12T06:53:47.982Z</time></trkpt><trkpt lat="38.029215" lon="16.1422867"><ele>55.0</ele><time>2026-04-12T06:53:48.981Z</time></trkpt><trkpt lat="38.02909" lon="16.1422367"><ele>42.0</ele><time>2026-04-12T06:53:49.982Z</time></trkpt><trkpt lat="38.0289467" lon="16.1421517"><ele>29.0</ele><time>2026-04-12T06:53:50.982Z</time></trkpt><trkpt lat="38.0287983" lon="16.1420433"><ele>29.0</ele><time>2026-04-12T06:53:51.982Z</time></trkpt><trkpt lat="38.02865" lon="16.141935"><ele>29.0</ele><time>2026-04-12T06:53:52.981Z</time></trkpt><trkpt lat="38.0284967" lon="16.14182"><ele>29.0</ele><time>2026-04-12T06:53:53.981Z</time></trkpt><trkpt lat="38.0283383" lon="16.1416983"><ele>26.666666666666664</ele><time>2026-04-12T06:53:54.982Z</time></trkpt><trkpt lat="38.0281867" lon="16.1415583"><ele>24.333333333333332</ele><time>2026-04-12T06:53:55.981Z</time></trkpt><trkpt lat="38.0280383" lon="16.141395"><ele>22.0</ele><time>2026-04-12T06:53:56.982Z</time></trkpt><trkpt lat="38.0278833" lon="16.1412283"><ele>22.0</ele><time>2026-04-12T06:53:57.982Z</time></trkpt><trkpt lat="38.0277283" lon="16.1410517"><ele>22.0</ele><time>2026-04-12T06:53:58.981Z</time></trkpt><trkpt lat="38.02758" lon="16.1408783"><ele>22.0</ele><time>2026-04-12T06:53:59.981Z</time></trkpt><trkpt lat="38.0274217" lon="16.140715"><ele>21.333333333333332</ele><time>2026-04-12T06:54:00.982Z</time></trkpt><trkpt lat="38.02726" lon="16.1405533"><ele>20.666666666666668</ele><time>2026-04-12T06:54:01.981Z</time></trkpt><trkpt lat="38.0271" lon="16.140385"><ele>20.0</ele><time>2026-04-12T06:54:02.981Z</time></trkpt><trkpt lat="38.0269383" lon="16.1402217"><ele>20.0</ele><time>2026-04-12T06:54:03.981Z</time></trkpt><trkpt lat="38.0267583" lon="16.14007"><ele>20.0</ele><time>2026-04-12T06:54:04.981Z</time></trkpt><trkpt lat="38.0265667" lon="16.139925"><ele>20.0</ele><time>2026-04-12T06:54:05.981Z</time></trkpt><trkpt lat="38.0263767" lon="16.1397883"><ele>19.666666666666668</ele><time>2026-04-12T06:54:06.981Z</time></trkpt><trkpt lat="38.026185" lon="16.1396467"><ele>19.333333333333332</ele><time>2026-04-12T06:54:07.981Z</time></trkpt><trkpt lat="38.0259883" lon="16.1395133"><ele>19.0</ele><time>2026-04-12T06:54:08.981Z</time></trkpt><trkpt lat="38.025785" lon="16.1394017"><ele>16.0</ele><time>2026-04-12T06:54:09.982Z</time></trkpt><trkpt lat="38.0255733" lon="16.1393"><ele>13.0</ele><time>2026-04-12T06:54:10.981Z</time></trkpt><trkpt lat="38.025355" lon="16.13922"><ele>13.0</ele><time>2026-04-12T06:54:11.981Z</time></trkpt><trkpt lat="38.0251417" lon="16.13914"><ele>13.0</ele><time>2026-04-12T06:54:12.981Z</time></trkpt><trkpt lat="38.02493" lon="16.13906"><ele>13.0</ele><time>2026-04-12T06:54:13.981Z</time></trkpt><trkpt lat="38.02471" lon="16.1389767"><ele>16.5</ele><time>2026-04-12T06:54:14.981Z</time></trkpt><trkpt lat="38.0244917" lon="16.1388883"><ele>20.0</ele><time>2026-04-12T06:54:15.981Z</time></trkpt><trkpt lat="38.024285" lon="16.13879"><ele>17.333333333333336</ele><time>2026-04-12T06:54:16.982Z</time></trkpt><trkpt lat="38.0240817" lon="16.1386833"><ele>14.666666666666668</ele><time>2026-04-12T06:54:17.981Z</time></trkpt><trkpt lat="38.0238783" lon="16.1385817"><ele>12.0</ele><time>2026-04-12T06:54:18.981Z</time></trkpt><trkpt lat="38.0236783" lon="16.1384717"><ele>12.0</ele><time>2026-04-12T06:54:19.981Z</time></trkpt><trkpt lat="38.0234733" lon="16.1383617"><ele>12.0</ele><time>2026-04-12T06:54:20.982Z</time></trkpt><trkpt lat="38.0232633" lon="16.1382533"><ele>12.0</ele><time>2026-04-12T06:54:21.981Z</time></trkpt><trkpt lat="38.023055" lon="16.1381367"><ele>14.5</ele><time>2026-04-12T06:54:22.981Z</time></trkpt><trkpt lat="38.0228517" lon="16.1380117"><ele>17.0</ele><time>2026-04-12T06:54:23.981Z</time></trkpt><trkpt lat="38.0226467" lon="16.1378683"><ele>13.0</ele><time>2026-04-12T06:54:24.981Z</time></trkpt><trkpt lat="38.02245" lon="16.1376967"><ele>9.0</ele><time>2026-04-12T06:54:25.982Z</time></trkpt><trkpt lat="38.0222667" lon="16.13749"><ele>13.5</ele><time>2026-04-12T06:54:26.982Z</time></trkpt><trkpt lat="38.0220767" lon="16.1372967"><ele>18.0</ele><time>2026-04-12T06:54:27.981Z</time></trkpt><trkpt lat="38.0218933" lon="16.1370883"><ele>18.0</ele><time>2026-04-12T06:54:28.981Z</time></trkpt><trkpt lat="38.0217217" lon="16.1368783"><ele>18.0</ele><time>2026-04-12T06:54:29.981Z</time></trkpt><trkpt lat="38.0215517" lon="16.13667"><ele>16.5</ele><time>2026-04-12T06:54:30.981Z</time></trkpt><trkpt lat="38.0213783" lon="16.1364617"><ele>15.0</ele><time>2026-04-12T06:54:31.981Z</time></trkpt><trkpt lat="38.0212033" lon="16.1362567"><ele>15.0</ele><time>2026-04-12T06:54:32.981Z</time></trkpt><trkpt lat="38.021035" lon="16.136045"><ele>15.0</ele><time>2026-04-12T06:54:33.982Z</time></trkpt><trkpt lat="38.0208617" lon="16.1358383"><ele>13.0</ele><time>2026-04-12T06:54:34.982Z</time></trkpt><trkpt lat="38.0206967" lon="16.13561"><ele>11.0</ele><time>2026-04-12T06:54:35.981Z</time></trkpt><trkpt lat="38.0205433" lon="16.1353767"><ele>11.0</ele><time>2026-04-12T06:54:36.981Z</time></trkpt><trkpt lat="38.0204083" lon="16.1351283"><ele>11.0</ele><time>2026-04-12T06:54:37.982Z</time></trkpt><trkpt lat="38.0202833" lon="16.1348783"><ele>12.0</ele><time>2026-04-12T06:54:38.982Z</time></trkpt><trkpt lat="38.0201417" lon="16.134665"><ele>13.0</ele><time>2026-04-12T06:54:39.981Z</time></trkpt><trkpt lat="38.01997" lon="16.1344633"><ele>11.0</ele><time>2026-04-12T06:54:40.982Z</time></trkpt><trkpt lat="38.0197883" lon="16.1342867"><ele>9.0</ele><time>2026-04-12T06:54:41.981Z</time></trkpt><trkpt lat="38.019595" lon="16.13415"><ele>8.666666666666666</ele><time>2026-04-12T06:54:42.981Z</time></trkpt><trkpt lat="38.0193983" lon="16.13404"><ele>8.333333333333332</ele><time>2026-04-12T06:54:43.981Z</time></trkpt><trkpt lat="38.0191917" lon="16.1339533"><ele>8.0</ele><time>2026-04-12T06:54:44.982Z</time></trkpt><trkpt lat="38.0189967" lon="16.133865"><ele>8.0</ele><time>2026-04-12T06:54:45.981Z</time></trkpt><trkpt lat="38.0187767" lon="16.13378"><ele>8.0</ele><time>2026-04-12T06:54:46.981Z</time></trkpt><trkpt lat="38.0185633" lon="16.1336817"><ele>8.0</ele><time>2026-04-12T06:54:47.981Z</time></trkpt><trkpt lat="38.0183683" lon="16.1335867"><ele>8.0</ele><time>2026-04-12T06:54:48.981Z</time></trkpt><trkpt lat="38.0181817" lon="16.1334933"><ele>8.0</ele><time>2026-04-12T06:54:49.981Z</time></trkpt><trkpt lat="38.0179933" lon="16.1334133"><ele>9.333333333333332</ele><time>2026-04-12T06:54:50.981Z</time></trkpt><trkpt lat="38.0178067" lon="16.1333483"><ele>10.666666666666666</ele><time>2026-04-12T06:54:51.981Z</time></trkpt><trkpt lat="38.0176283" lon="16.1333233"><ele>12.0</ele><time>2026-04-12T06:54:52.981Z</time></trkpt><trkpt lat="38.017485" lon="16.133345"><ele>14.666666666666668</ele><time>2026-04-12T06:54:53.981Z</time></trkpt><trkpt lat="38.0173433" lon="16.1333933"><ele>17.333333333333336</ele><time>2026-04-12T06:54:54.981Z</time></trkpt><trkpt lat="38.0172017" lon="16.1334583"><ele>20.0</ele><time>2026-04-12T06:54:55.981Z</time></trkpt><trkpt lat="38.0170467" lon="16.133555"><ele>20.0</ele><time>2026-04-12T06:54:56.981Z</time></trkpt><trkpt lat="38.0169" lon="16.1336583"><ele>20.0</ele><time>2026-04-12T06:54:57.981Z</time></trkpt><trkpt lat="38.0167417" lon="16.1337467"><ele>20.0</ele><time>2026-04-12T06:54:58.981Z</time></trkpt><trkpt lat="38.0165617" lon="16.1338117"><ele>21.5</ele><time>2026-04-12T06:54:59.981Z</time></trkpt><trkpt lat="38.0163467" lon="16.1338333"><ele>23.0</ele><time>2026-04-12T06:55:00.982Z</time></trkpt><trkpt lat="38.0161117" lon="16.1337883"><ele>23.0</ele><time>2026-04-12T06:55:01.981Z</time></trkpt><trkpt lat="38.01586" lon="16.1336783"><ele>23.0</ele><time>2026-04-12T06:55:02.981Z</time></trkpt><trkpt lat="38.0155867" lon="16.1335317"><ele>25.0</ele><time>2026-04-12T06:55:03.981Z</time></trkpt><trkpt lat="38.0153033" lon="16.1333433"><ele>27.0</ele><time>2026-04-12T06:55:04.981Z</time></trkpt><trkpt lat="38.0150083" lon="16.133165"><ele>23.0</ele><time>2026-04-12T06:55:05.981Z</time></trkpt><trkpt lat="38.014705" lon="16.1329733"><ele>19.0</ele><time>2026-04-12T06:55:06.981Z</time></trkpt><trkpt lat="38.0143783" lon="16.13278"><ele>19.0</ele><time>2026-04-12T06:55:07.981Z</time></trkpt><trkpt lat="38.01404" lon="16.1325767"><ele>19.0</ele><time>2026-04-12T06:55:08.981Z</time></trkpt><trkpt lat="38.0136917" lon="16.1323833"><ele>19.0</ele><time>2026-04-12T06:55:09.981Z</time></trkpt><trkpt lat="38.01334" lon="16.1321867"><ele>19.0</ele><time>2026-04-12T06:55:10.981Z</time></trkpt><trkpt lat="38.0129833" lon="16.131975"><ele>19.0</ele><time>2026-04-12T06:55:11.981Z</time></trkpt><trkpt lat="38.0126283" lon="16.1317567"><ele>19.0</ele><time>2026-04-12T06:55:12.982Z</time></trkpt><trkpt lat="38.0122833" lon="16.1315483"><ele>19.0</ele><time>2026-04-12T06:55:13.981Z</time></trkpt><trkpt lat="38.01196" lon="16.13135"><ele>19.0</ele><time>2026-04-12T06:55:14.981Z</time></trkpt><trkpt lat="38.0116583" lon="16.1311483"><ele>15.0</ele><time>2026-04-12T06:55:15.981Z</time></trkpt><trkpt lat="38.011375" lon="16.1309617"><ele>11.0</ele><time>2026-04-12T06:55:16.981Z</time></trkpt><trkpt lat="38.0110933" lon="16.1307867"><ele>10.0</ele><time>2026-04-12T06:55:17.982Z</time></trkpt><trkpt lat="38.01082" lon="16.1306283"><ele>9.0</ele><time>2026-04-12T06:55:18.982Z</time></trkpt><trkpt lat="38.01057" lon="16.1304783"><ele>9.0</ele><time>2026-04-12T06:55:19.981Z</time></trkpt><trkpt lat="38.0103533" lon="16.1303317"><ele>9.0</ele><time>2026-04-12T06:55:20.982Z</time></trkpt><trkpt lat="38.0101567" lon="16.130205"><ele>8.5</ele><time>2026-04-12T06:55:21.982Z</time></trkpt><trkpt lat="38.0099533" lon="16.130095"><ele>8.0</ele><time>2026-04-12T06:55:22.982Z</time></trkpt><trkpt lat="38.009735" lon="16.1299767"><ele>9.5</ele><time>2026-04-12T06:55:23.981Z</time></trkpt><trkpt lat="38.0095033" lon="16.12982"><ele>11.0</ele><time>2026-04-12T06:55:24.981Z</time></trkpt><trkpt lat="38.0092667" lon="16.1296633"><ele>10.5</ele><time>2026-04-12T06:55:25.981Z</time></trkpt><trkpt lat="38.0090233" lon="16.1294983"><ele>10.0</ele><time>2026-04-12T06:55:26.981Z</time></trkpt><trkpt lat="38.0087817" lon="16.129345"><ele>10.0</ele><time>2026-04-12T06:55:27.981Z</time></trkpt><trkpt lat="38.0085383" lon="16.12919"><ele>10.0</ele><time>2026-04-12T06:55:28.981Z</time></trkpt><trkpt lat="38.0082883" lon="16.1290483"><ele>13.0</ele><time>2026-04-12T06:55:29.982Z</time></trkpt><trkpt lat="38.008045" lon="16.1289167"><ele>16.0</ele><time>2026-04-12T06:55:30.982Z</time></trkpt><trkpt lat="38.0078033" lon="16.1287833"><ele>16.0</ele><time>2026-04-12T06:55:31.981Z</time></trkpt><trkpt lat="38.0075683" lon="16.1286517"><ele>16.0</ele><time>2026-04-12T06:55:32.981Z</time></trkpt><trkpt lat="38.0073383" lon="16.1285183"><ele>12.5</ele><time>2026-04-12T06:55:33.981Z</time></trkpt><trkpt lat="38.00711" lon="16.128385"><ele>9.0</ele><time>2026-04-12T06:55:34.981Z</time></trkpt><trkpt lat="38.0068833" lon="16.1282467"><ele>10.0</ele><time>2026-04-12T06:55:35.981Z</time></trkpt><trkpt lat="38.006655" lon="16.1281117"><ele>11.0</ele><time>2026-04-12T06:55:36.981Z</time></trkpt><trkpt lat="38.0064217" lon="16.12798"><ele>11.0</ele><time>2026-04-12T06:55:37.981Z</time></trkpt><trkpt lat="38.006185" lon="16.12786"><ele>11.0</ele><time>2026-04-12T06:55:38.982Z</time></trkpt><trkpt lat="38.0059517" lon="16.1277467"><ele>11.0</ele><time>2026-04-12T06:55:39.981Z</time></trkpt><trkpt lat="38.0057117" lon="16.1276383"><ele>11.0</ele><time>2026-04-12T06:55:40.981Z</time></trkpt><trkpt lat="38.0054733" lon="16.1275383"><ele>11.0</ele><time>2026-04-12T06:55:41.982Z</time></trkpt><trkpt lat="38.0052283" lon="16.12743"><ele>11.0</ele><time>2026-04-12T06:55:42.981Z</time></trkpt><trkpt lat="38.0049867" lon="16.1273267"><ele>15.0</ele><time>2026-04-12T06:55:43.981Z</time></trkpt><trkpt lat="38.0047333" lon="16.1272317"><ele>19.0</ele><time>2026-04-12T06:55:44.981Z</time></trkpt><trkpt lat="38.00449" lon="16.12712"><ele>19.0</ele><time>2026-04-12T06:55:45.981Z</time></trkpt><trkpt lat="38.0042483" lon="16.127005"><ele>19.0</ele><time>2026-04-12T06:55:46.981Z</time></trkpt><trkpt lat="38.0040017" lon="16.12688"><ele>13.5</ele><time>2026-04-12T06:55:47.981Z</time></trkpt><trkpt lat="38.0037667" lon="16.1267567"><ele>8.0</ele><time>2026-04-12T06:55:48.981Z</time></trkpt><trkpt lat="38.0035217" lon="16.126625"><ele>9.5</ele><time>2026-04-12T06:55:49.981Z</time></trkpt><trkpt lat="38.0032883" lon="16.12649"><ele>11.0</ele><time>2026-04-12T06:55:50.981Z</time></trkpt><trkpt lat="38.00305" lon="16.1263433"><ele>11.0</ele><time>2026-04-12T06:55:51.982Z</time></trkpt><trkpt lat="38.00281" lon="16.1262017"><ele>11.0</ele><time>2026-04-12T06:55:52.981Z</time></trkpt><trkpt lat="38.00257" lon="16.1260533"><ele>10.5</ele><time>2026-04-12T06:55:53.981Z</time></trkpt><trkpt lat="38.00233" lon="16.1258933"><ele>10.0</ele><time>2026-04-12T06:55:54.981Z</time></trkpt><trkpt lat="38.002105" lon="16.1257217"><ele>10.0</ele><time>2026-04-12T06:55:55.981Z</time></trkpt><trkpt lat="38.0019" lon="16.1255217"><ele>10.0</ele><time>2026-04-12T06:55:56.981Z</time></trkpt><trkpt lat="38.001715" lon="16.12528"><ele>9.0</ele><time>2026-04-12T06:55:57.981Z</time></trkpt><trkpt lat="38.001545" lon="16.12504"><ele>8.0</ele><time>2026-04-12T06:55:58.981Z</time></trkpt><trkpt lat="38.001375" lon="16.1247917"><ele>8.0</ele><time>2026-04-12T06:55:59.981Z</time></trkpt><trkpt lat="38.0012067" lon="16.1245483"><ele>8.0</ele><time>2026-04-12T06:56:00.981Z</time></trkpt><trkpt lat="38.0010333" lon="16.1243117"><ele>8.0</ele><time>2026-04-12T06:56:01.981Z</time></trkpt><trkpt lat="38.0008633" lon="16.1240783"><ele>8.0</ele><time>2026-04-12T06:56:02.981Z</time></trkpt><trkpt lat="38.0006867" lon="16.1238433"><ele>7.5</ele><time>2026-04-12T06:56:03.982Z</time></trkpt><trkpt lat="38.0005083" lon="16.1236117"><ele>7.0</ele><time>2026-04-12T06:56:04.981Z</time></trkpt><trkpt lat="38.0003217" lon="16.1234"><ele>8.0</ele><time>2026-04-12T06:56:05.981Z</time></trkpt><trkpt lat="38.00013" lon="16.1232"><ele>9.0</ele><time>2026-04-12T06:56:06.982Z</time></trkpt><trkpt lat="37.9999183" lon="16.123035"><ele>9.0</ele><time>2026-04-12T06:56:07.981Z</time></trkpt><trkpt lat="37.9996867" lon="16.12291"><ele>9.0</ele><time>2026-04-12T06:56:08.981Z</time></trkpt><trkpt lat="37.9994517" lon="16.1228317"><ele>9.0</ele><time>2026-04-12T06:56:09.982Z</time></trkpt><trkpt lat="37.9992083" lon="16.1228033"><ele>9.0</ele><time>2026-04-12T06:56:10.981Z</time></trkpt><trkpt lat="37.99897" lon="16.1228"><ele>8.0</ele><time>2026-04-12T06:56:11.981Z</time></trkpt><trkpt lat="37.99872" lon="16.1228167"><ele>7.0</ele><time>2026-04-12T06:56:12.981Z</time></trkpt><trkpt lat="37.9984683" lon="16.1228333"><ele>8.5</ele><time>2026-04-12T06:56:13.981Z</time></trkpt><trkpt lat="37.99822" lon="16.12285"><ele>10.0</ele><time>2026-04-12T06:56:14.982Z</time></trkpt><trkpt lat="37.9979717" lon="16.1228417"><ele>10.0</ele><time>2026-04-12T06:56:15.981Z</time></trkpt><trkpt lat="37.9977217" lon="16.1227933"><ele>10.0</ele><time>2026-04-12T06:56:16.981Z</time></trkpt><trkpt lat="37.9974783" lon="16.1227067"><ele>11.0</ele><time>2026-04-12T06:56:17.981Z</time></trkpt><trkpt lat="37.99723" lon="16.1226167"><ele>12.0</ele><time>2026-04-12T06:56:18.981Z</time></trkpt><trkpt lat="37.9969767" lon="16.1225333"><ele>12.0</ele><time>2026-04-12T06:56:19.982Z</time></trkpt><trkpt lat="37.9967333" lon="16.1224433"><ele>12.0</ele><time>2026-04-12T06:56:20.981Z</time></trkpt><trkpt lat="37.9964817" lon="16.1223567"><ele>18.5</ele><time>2026-04-12T06:56:21.981Z</time></trkpt><trkpt lat="37.9962333" lon="16.1222667"><ele>25.0</ele><time>2026-04-12T06:56:22.981Z</time></trkpt><trkpt lat="37.9959883" lon="16.1221767"><ele>20.0</ele><time>2026-04-12T06:56:23.981Z</time></trkpt><trkpt lat="37.9957367" lon="16.122085"><ele>15.0</ele><time>2026-04-12T06:56:24.981Z</time></trkpt><trkpt lat="37.99548" lon="16.1219967"><ele>15.0</ele><time>2026-04-12T06:56:25.982Z</time></trkpt><trkpt lat="37.99522" lon="16.1219117"><ele>15.0</ele><time>2026-04-12T06:56:26.981Z</time></trkpt><trkpt lat="37.9949717" lon="16.1218283"><ele>13.0</ele><time>2026-04-12T06:56:27.981Z</time></trkpt><trkpt lat="37.9947183" lon="16.12174"><ele>11.0</ele><time>2026-04-12T06:56:28.981Z</time></trkpt><trkpt lat="37.9944683" lon="16.1216533"><ele>11.0</ele><time>2026-04-12T06:56:29.981Z</time></trkpt><trkpt lat="37.994215" lon="16.1215683"><ele>11.0</ele><time>2026-04-12T06:56:30.981Z</time></trkpt><trkpt lat="37.99396" lon="16.1214817"><ele>14.5</ele><time>2026-04-12T06:56:31.981Z</time></trkpt><trkpt lat="37.9937117" lon="16.12139"><ele>18.0</ele><time>2026-04-12T06:56:32.982Z</time></trkpt><trkpt lat="37.9934683" lon="16.1212933"><ele>15.5</ele><time>2026-04-12T06:56:33.981Z</time></trkpt><trkpt lat="37.993215" lon="16.1212033"><ele>13.0</ele><time>2026-04-12T06:56:34.982Z</time></trkpt><trkpt lat="37.9929633" lon="16.1211167"><ele>13.0</ele><time>2026-04-12T06:56:35.981Z</time></trkpt><trkpt lat="37.9927217" lon="16.1210183"><ele>13.0</ele><time>2026-04-12T06:56:36.981Z</time></trkpt><trkpt lat="37.9924733" lon="16.120925"><ele>11.5</ele><time>2026-04-12T06:56:37.982Z</time></trkpt><trkpt lat="37.99223" lon="16.120835"><ele>10.0</ele><time>2026-04-12T06:56:38.982Z</time></trkpt><trkpt lat="37.9919833" lon="16.1207433"><ele>10.5</ele><time>2026-04-12T06:56:39.981Z</time></trkpt><trkpt lat="37.9917317" lon="16.1206617"><ele>11.0</ele><time>2026-04-12T06:56:40.981Z</time></trkpt><trkpt lat="37.9914833" lon="16.1205717"><ele>11.0</ele><time>2026-04-12T06:56:41.981Z</time></trkpt><trkpt lat="37.9912317" lon="16.1204683"><ele>11.0</ele><time>2026-04-12T06:56:42.981Z</time></trkpt><trkpt lat="37.99099" lon="16.12036"><ele>9.0</ele><time>2026-04-12T06:56:43.981Z</time></trkpt><trkpt lat="37.9907483" lon="16.1202333"><ele>7.0</ele><time>2026-04-12T06:56:44.981Z</time></trkpt><trkpt lat="37.990505" lon="16.120105"><ele>7.0</ele><time>2026-04-12T06:56:45.981Z</time></trkpt><trkpt lat="37.99026" lon="16.1199717"><ele>7.0</ele><time>2026-04-12T06:56:46.981Z</time></trkpt><trkpt lat="37.9900167" lon="16.1198267"><ele>8.5</ele><time>2026-04-12T06:56:47.981Z</time></trkpt><trkpt lat="37.98978" lon="16.1196767"><ele>10.0</ele><time>2026-04-12T06:56:48.981Z</time></trkpt><trkpt lat="37.989545" lon="16.11952"><ele>10.0</ele><time>2026-04-12T06:56:49.981Z</time></trkpt><trkpt lat="37.9893033" lon="16.1193733"><ele>10.0</ele><time>2026-04-12T06:56:50.982Z</time></trkpt><trkpt lat="37.9890667" lon="16.11923"><ele>10.0</ele><time>2026-04-12T06:56:51.981Z</time></trkpt><trkpt lat="37.988825" lon="16.1190967"><ele>10.0</ele><time>2026-04-12T06:56:52.981Z</time></trkpt><trkpt lat="37.9885833" lon="16.1189633"><ele>10.0</ele><time>2026-04-12T06:56:53.981Z</time></trkpt><trkpt lat="37.9883433" lon="16.1188233"><ele>10.0</ele><time>2026-04-12T06:56:54.981Z</time></trkpt><trkpt lat="37.9881083" lon="16.1186783"><ele>9.0</ele><time>2026-04-12T06:56:55.982Z</time></trkpt><trkpt lat="37.9878733" lon="16.1185367"><ele>8.0</ele><time>2026-04-12T06:56:56.981Z</time></trkpt><trkpt lat="37.9876383" lon="16.1183983"><ele>7.5</ele><time>2026-04-12T06:56:57.981Z</time></trkpt><trkpt lat="37.9874067" lon="16.1182533"><ele>7.0</ele><time>2026-04-12T06:56:58.982Z</time></trkpt><trkpt lat="37.98717" lon="16.1181167"><ele>8.0</ele><time>2026-04-12T06:56:59.982Z</time></trkpt><trkpt lat="37.98694" lon="16.1179783"><ele>9.0</ele><time>2026-04-12T06:57:00.981Z</time></trkpt><trkpt lat="37.9867033" lon="16.1178317"><ele>7.5</ele><time>2026-04-12T06:57:01.981Z</time></trkpt><trkpt lat="37.9864617" lon="16.1176833"><ele>6.0</ele><time>2026-04-12T06:57:02.982Z</time></trkpt><trkpt lat="37.9862317" lon="16.1175317"><ele>5.5</ele><time>2026-04-12T06:57:03.982Z</time></trkpt><trkpt lat="37.9859983" lon="16.1173867"><ele>5.0</ele><time>2026-04-12T06:57:04.981Z</time></trkpt><trkpt lat="37.9857617" lon="16.1172483"><ele>5.0</ele><time>2026-04-12T06:57:05.981Z</time></trkpt><trkpt lat="37.9855233" lon="16.117115"><ele>5.0</ele><time>2026-04-12T06:57:06.982Z</time></trkpt><trkpt lat="37.98528" lon="16.1169833"><ele>5.0</ele><time>2026-04-12T06:57:07.982Z</time></trkpt><trkpt lat="37.9850333" lon="16.1168533"><ele>5.0</ele><time>2026-04-12T06:57:08.982Z</time></trkpt><trkpt lat="37.9847917" lon="16.116725"><ele>5.0</ele><time>2026-04-12T06:57:09.981Z</time></trkpt><trkpt lat="37.9845467" lon="16.1165867"><ele>5.0</ele><time>2026-04-12T06:57:10.981Z</time></trkpt><trkpt lat="37.9843067" lon="16.116445"><ele>5.0</ele><time>2026-04-12T06:57:11.981Z</time></trkpt><trkpt lat="37.98407" lon="16.1163117"><ele>5.0</ele><time>2026-04-12T06:57:12.981Z</time></trkpt><trkpt lat="37.9838283" lon="16.11618"><ele>5.0</ele><time>2026-04-12T06:57:13.981Z</time></trkpt><trkpt lat="37.9835983" lon="16.1160367"><ele>5.0</ele><time>2026-04-12T06:57:14.981Z</time></trkpt><trkpt lat="37.98336" lon="16.115895"><ele>5.0</ele><time>2026-04-12T06:57:15.982Z</time></trkpt><trkpt lat="37.9831233" lon="16.1157533"><ele>5.0</ele><time>2026-04-12T06:57:16.982Z</time></trkpt><trkpt lat="37.9828867" lon="16.1156233"><ele>5.0</ele><time>2026-04-12T06:57:17.981Z</time></trkpt><trkpt lat="37.982655" lon="16.1154883"><ele>5.0</ele><time>2026-04-12T06:57:18.981Z</time></trkpt><trkpt lat="37.9824217" lon="16.1153533"><ele>4.5</ele><time>2026-04-12T06:57:19.981Z</time></trkpt><trkpt lat="37.98218" lon="16.115215"><ele>4.0</ele><time>2026-04-12T06:57:20.981Z</time></trkpt><trkpt lat="37.98194" lon="16.11508"><ele>4.0</ele><time>2026-04-12T06:57:21.981Z</time></trkpt><trkpt lat="37.9817033" lon="16.114945"><ele>4.0</ele><time>2026-04-12T06:57:22.981Z</time></trkpt><trkpt lat="37.9814767" lon="16.114805"><ele>5.0</ele><time>2026-04-12T06:57:23.981Z</time></trkpt><trkpt lat="37.981245" lon="16.11467"><ele>6.0</ele><time>2026-04-12T06:57:24.982Z</time></trkpt><trkpt lat="37.9810117" lon="16.1145333"><ele>6.5</ele><time>2026-04-12T06:57:25.981Z</time></trkpt><trkpt lat="37.980775" lon="16.1144083"><ele>7.0</ele><time>2026-04-12T06:57:26.982Z</time></trkpt><trkpt lat="37.98055" lon="16.1142617"><ele>7.0</ele><time>2026-04-12T06:57:27.981Z</time></trkpt><trkpt lat="37.980315" lon="16.11413"><ele>7.0</ele><time>2026-04-12T06:57:28.982Z</time></trkpt><trkpt lat="37.9800833" lon="16.113995"><ele>9.0</ele><time>2026-04-12T06:57:29.981Z</time></trkpt><trkpt lat="37.979855" lon="16.1138733"><ele>11.0</ele><time>2026-04-12T06:57:30.981Z</time></trkpt><trkpt lat="37.9796283" lon="16.1137433"><ele>11.0</ele><time>2026-04-12T06:57:31.981Z</time></trkpt><trkpt lat="37.97941" lon="16.1136017"><ele>11.0</ele><time>2026-04-12T06:57:32.981Z</time></trkpt><trkpt lat="37.9791733" lon="16.113475"><ele>10.0</ele><time>2026-04-12T06:57:33.981Z</time></trkpt><trkpt lat="37.9789367" lon="16.1133567"><ele>9.0</ele><time>2026-04-12T06:57:34.981Z</time></trkpt><trkpt lat="37.9787033" lon="16.1132333"><ele>9.0</ele><time>2026-04-12T06:57:35.981Z</time></trkpt><trkpt lat="37.9784767" lon="16.1131"><ele>9.0</ele><time>2026-04-12T06:57:36.982Z</time></trkpt><trkpt lat="37.9782483" lon="16.1129567"><ele>9.0</ele><time>2026-04-12T06:57:37.982Z</time></trkpt><trkpt lat="37.9780117" lon="16.112825"><ele>9.0</ele><time>2026-04-12T06:57:38.981Z</time></trkpt><trkpt lat="37.97778" lon="16.1126883"><ele>9.0</ele><time>2026-04-12T06:57:39.981Z</time></trkpt><trkpt lat="37.9775533" lon="16.11254"><ele>9.0</ele><time>2026-04-12T06:57:40.982Z</time></trkpt><trkpt lat="37.9773267" lon="16.11239"><ele>10.0</ele><time>2026-04-12T06:57:41.981Z</time></trkpt><trkpt lat="37.977105" lon="16.1122217"><ele>11.0</ele><time>2026-04-12T06:57:42.981Z</time></trkpt><trkpt lat="37.9768917" lon="16.1120467"><ele>11.0</ele><time>2026-04-12T06:57:43.981Z</time></trkpt><trkpt lat="37.9766867" lon="16.1118617"><ele>11.0</ele><time>2026-04-12T06:57:44.981Z</time></trkpt><trkpt lat="37.9764717" lon="16.1116767"><ele>11.5</ele><time>2026-04-12T06:57:45.981Z</time></trkpt><trkpt lat="37.9762683" lon="16.11149"><ele>12.0</ele><time>2026-04-12T06:57:46.981Z</time></trkpt><trkpt lat="37.9760717" lon="16.1112983"><ele>12.0</ele><time>2026-04-12T06:57:47.981Z</time></trkpt><trkpt lat="37.97588" lon="16.1110967"><ele>12.0</ele><time>2026-04-12T06:57:48.982Z</time></trkpt><trkpt lat="37.97568" lon="16.1109"><ele>12.0</ele><time>2026-04-12T06:57:49.981Z</time></trkpt><trkpt lat="37.9754867" lon="16.1106983"><ele>12.0</ele><time>2026-04-12T06:57:50.982Z</time></trkpt><trkpt lat="37.97529" lon="16.1105033"><ele>12.0</ele><time>2026-04-12T06:57:51.981Z</time></trkpt><trkpt lat="37.97509" lon="16.110305"><ele>12.0</ele><time>2026-04-12T06:57:52.981Z</time></trkpt><trkpt lat="37.9748967" lon="16.1101"><ele>10.5</ele><time>2026-04-12T06:57:53.981Z</time></trkpt><trkpt lat="37.9746983" lon="16.1098983"><ele>9.0</ele><time>2026-04-12T06:57:54.982Z</time></trkpt><trkpt lat="37.974505" lon="16.1096867"><ele>9.0</ele><time>2026-04-12T06:57:55.981Z</time></trkpt><trkpt lat="37.9743117" lon="16.1094783"><ele>9.0</ele><time>2026-04-12T06:57:56.982Z</time></trkpt><trkpt lat="37.97412" lon="16.109275"><ele>9.5</ele><time>2026-04-12T06:57:57.981Z</time></trkpt><trkpt lat="37.97393" lon="16.1090717"><ele>10.0</ele><time>2026-04-12T06:57:58.981Z</time></trkpt><trkpt lat="37.9737383" lon="16.1088767"><ele>10.0</ele><time>2026-04-12T06:57:59.981Z</time></trkpt><trkpt lat="37.97355" lon="16.108685"><ele>10.0</ele><time>2026-04-12T06:58:00.981Z</time></trkpt><trkpt lat="37.9733533" lon="16.1084983"><ele>10.5</ele><time>2026-04-12T06:58:01.981Z</time></trkpt><trkpt lat="37.9731533" lon="16.10832"><ele>11.0</ele><time>2026-04-12T06:58:02.981Z</time></trkpt><trkpt lat="37.9729567" lon="16.1081317"><ele>11.0</ele><time>2026-04-12T06:58:03.981Z</time></trkpt><trkpt lat="37.9727467" lon="16.1079767"><ele>11.0</ele><time>2026-04-12T06:58:04.981Z</time></trkpt><trkpt lat="37.9725383" lon="16.1078133"><ele>9.5</ele><time>2026-04-12T06:58:05.981Z</time></trkpt><trkpt lat="37.97234" lon="16.10766"><ele>8.0</ele><time>2026-04-12T06:58:06.981Z</time></trkpt><trkpt lat="37.9721483" lon="16.1075217"><ele>8.0</ele><time>2026-04-12T06:58:07.981Z</time></trkpt><trkpt lat="37.9719633" lon="16.1074"><ele>8.0</ele><time>2026-04-12T06:58:08.981Z</time></trkpt><trkpt lat="37.9718" lon="16.10728"><ele>8.0</ele><time>2026-04-12T06:58:09.981Z</time></trkpt><trkpt lat="37.97164" lon="16.10716"><ele>8.0</ele><time>2026-04-12T06:58:10.981Z</time></trkpt><trkpt lat="37.9714883" lon="16.107055"><ele>8.0</ele><time>2026-04-12T06:58:11.981Z</time></trkpt><trkpt lat="37.97134" lon="16.1069517"><ele>8.0</ele><time>2026-04-12T06:58:12.981Z</time></trkpt><trkpt lat="37.9712017" lon="16.1068533"><ele>8.0</ele><time>2026-04-12T06:58:13.981Z</time></trkpt><trkpt lat="37.9710767" lon="16.1067583"><ele>8.0</ele><time>2026-04-12T06:58:14.981Z</time></trkpt><trkpt lat="37.9709517" lon="16.10667"><ele>8.0</ele><time>2026-04-12T06:58:15.981Z</time></trkpt><trkpt lat="37.9708367" lon="16.1065867"><ele>8.0</ele><time>2026-04-12T06:58:16.982Z</time></trkpt><trkpt lat="37.9707317" lon="16.1065017"><ele>7.75</ele><time>2026-04-12T06:58:17.982Z</time></trkpt><trkpt lat="37.9706267" lon="16.10642"><ele>7.5</ele><time>2026-04-12T06:58:18.981Z</time></trkpt><trkpt lat="37.9705217" lon="16.1063433"><ele>7.25</ele><time>2026-04-12T06:58:19.982Z</time></trkpt><trkpt lat="37.9704233" lon="16.1062733"><ele>7.0</ele><time>2026-04-12T06:58:20.981Z</time></trkpt><trkpt lat="37.970335" lon="16.1062083"><ele>7.000000000000001</ele><time>2026-04-12T06:58:21.981Z</time></trkpt><trkpt lat="37.9702583" lon="16.1061467"><ele>7.0</ele><time>2026-04-12T06:58:22.981Z</time></trkpt><trkpt lat="37.9701833" lon="16.1060883"><ele>7.0</ele><time>2026-04-12T06:58:23.982Z</time></trkpt><trkpt lat="37.97012" lon="16.1060383"><ele>7.0</ele><time>2026-04-12T06:58:24.981Z</time></trkpt><trkpt lat="37.9700583" lon="16.105995"><ele>7.000000000000001</ele><time>2026-04-12T06:58:25.982Z</time></trkpt><trkpt lat="37.9699567" lon="16.1059167"><ele>7.0</ele><time>2026-04-12T06:58:27.981Z</time></trkpt><trkpt lat="37.969885" lon="16.1058683"><ele>6.8</ele><time>2026-04-12T06:58:29.981Z</time></trkpt><trkpt lat="37.9698367" lon="16.1058"><ele>6.6</ele><time>2026-04-12T06:59:15.981Z</time></trkpt><trkpt lat="37.9697683" lon="16.1057533"><ele>6.3999999999999995</ele><time>2026-04-12T06:59:16.982Z</time></trkpt><trkpt lat="37.9696833" lon="16.105695"><ele>6.199999999999999</ele><time>2026-04-12T06:59:17.981Z</time></trkpt><trkpt lat="37.9695667" lon="16.1056167"><ele>6.0</ele><time>2026-04-12T06:59:18.981Z</time></trkpt><trkpt lat="37.9694267" lon="16.105515"><ele>6.333333333333334</ele><time>2026-04-12T06:59:19.981Z</time></trkpt><trkpt lat="37.969255" lon="16.1053933"><ele>6.666666666666667</ele><time>2026-04-12T06:59:20.981Z</time></trkpt><trkpt lat="37.9690667" lon="16.1052417"><ele>7.0</ele><time>2026-04-12T06:59:21.981Z</time></trkpt><trkpt lat="37.96885" lon="16.1050783"><ele>7.0</ele><time>2026-04-12T06:59:22.981Z</time></trkpt><trkpt lat="37.96863" lon="16.1049183"><ele>7.0</ele><time>2026-04-12T06:59:23.982Z</time></trkpt><trkpt lat="37.9684283" lon="16.104765"><ele>8.666666666666668</ele><time>2026-04-12T06:59:24.981Z</time></trkpt><trkpt lat="37.9682433" lon="16.10464"><ele>10.333333333333334</ele><time>2026-04-12T06:59:25.981Z</time></trkpt><trkpt lat="37.96809" lon="16.10453"><ele>12.0</ele><time>2026-04-12T06:59:26.981Z</time></trkpt><trkpt lat="37.9679617" lon="16.1044367"><ele>12.0</ele><time>2026-04-12T06:59:27.981Z</time></trkpt><trkpt lat="37.9678267" lon="16.1043433"><ele>12.0</ele><time>2026-04-12T06:59:28.982Z</time></trkpt><trkpt lat="37.9677" lon="16.1042533"><ele>12.0</ele><time>2026-04-12T06:59:29.981Z</time></trkpt><trkpt lat="37.9675783" lon="16.1041817"><ele>12.0</ele><time>2026-04-12T06:59:30.982Z</time></trkpt><trkpt lat="37.9674667" lon="16.1040983"><ele>13.5</ele><time>2026-04-12T06:59:31.981Z</time></trkpt><trkpt lat="37.9673517" lon="16.104015"><ele>15.0</ele><time>2026-04-12T06:59:32.981Z</time></trkpt><trkpt lat="37.96724" lon="16.103935"><ele>16.5</ele><time>2026-04-12T06:59:33.981Z</time></trkpt><trkpt lat="37.9671283" lon="16.103845"><ele>18.0</ele><time>2026-04-12T06:59:34.982Z</time></trkpt><trkpt lat="37.9670133" lon="16.1037617"><ele>18.0</ele><time>2026-04-12T06:59:35.981Z</time></trkpt><trkpt lat="37.9668933" lon="16.10368"><ele>18.0</ele><time>2026-04-12T06:59:36.981Z</time></trkpt><trkpt lat="37.966775" lon="16.1036083"><ele>18.0</ele><time>2026-04-12T06:59:37.981Z</time></trkpt><trkpt lat="37.96666" lon="16.1035467"><ele>18.0</ele><time>2026-04-12T06:59:38.982Z</time></trkpt><trkpt lat="37.9665583" lon="16.10347"><ele>18.0</ele><time>2026-04-12T06:59:39.982Z</time></trkpt><trkpt lat="37.96647" lon="16.1033983"><ele>18.0</ele><time>2026-04-12T06:59:40.981Z</time></trkpt><trkpt lat="37.9663817" lon="16.1033217"><ele>18.0</ele><time>2026-04-12T06:59:41.981Z</time></trkpt><trkpt lat="37.966285" lon="16.10325"><ele>18.0</ele><time>2026-04-12T06:59:42.982Z</time></trkpt><trkpt lat="37.9661817" lon="16.1031817"><ele>18.0</ele><time>2026-04-12T06:59:43.981Z</time></trkpt><trkpt lat="37.9660933" lon="16.1031083"><ele>18.0</ele><time>2026-04-12T06:59:44.981Z</time></trkpt><trkpt lat="37.965995" lon="16.1030483"><ele>18.0</ele><time>2026-04-12T06:59:45.981Z</time></trkpt><trkpt lat="37.965905" lon="16.1029883"><ele>18.0</ele><time>2026-04-12T06:59:46.981Z</time></trkpt><trkpt lat="37.96582" lon="16.102935"><ele>18.0</ele><time>2026-04-12T06:59:47.981Z</time></trkpt><trkpt lat="37.9657417" lon="16.1028717"><ele>18.0</ele><time>2026-04-12T06:59:48.981Z</time></trkpt><trkpt lat="37.9656667" lon="16.1028133"><ele>16.8</ele><time>2026-04-12T06:59:49.981Z</time></trkpt><trkpt lat="37.9655883" lon="16.1027583"><ele>15.600000000000001</ele><time>2026-04-12T06:59:50.982Z</time></trkpt><trkpt lat="37.9655017" lon="16.1026933"><ele>14.399999999999999</ele><time>2026-04-12T06:59:51.981Z</time></trkpt><trkpt lat="37.9653983" lon="16.102635"><ele>13.2</ele><time>2026-04-12T06:59:52.981Z</time></trkpt><trkpt lat="37.9653017" lon="16.1025683"><ele>12.0</ele><time>2026-04-12T06:59:53.981Z</time></trkpt><trkpt lat="37.965195" lon="16.1025033"><ele>12.0</ele><time>2026-04-12T06:59:54.982Z</time></trkpt><trkpt lat="37.9650983" lon="16.1024383"><ele>12.0</ele><time>2026-04-12T06:59:55.981Z</time></trkpt><trkpt lat="37.965005" lon="16.1023917"><ele>12.0</ele><time>2026-04-12T06:59:56.981Z</time></trkpt><trkpt lat="37.96492" lon="16.1023467"><ele>12.0</ele><time>2026-04-12T06:59:57.981Z</time></trkpt><trkpt lat="37.9648433" lon="16.1022967"><ele>12.0</ele><time>2026-04-12T06:59:58.981Z</time></trkpt><trkpt lat="37.9647683" lon="16.1022417"><ele>12.2</ele><time>2026-04-12T06:59:59.981Z</time></trkpt><trkpt lat="37.9646883" lon="16.1021933"><ele>12.399999999999999</ele><time>2026-04-12T07:00:00.981Z</time></trkpt><trkpt lat="37.9646033" lon="16.10212"><ele>12.600000000000001</ele><time>2026-04-12T07:00:01.981Z</time></trkpt><trkpt lat="37.9645167" lon="16.1020467"><ele>12.8</ele><time>2026-04-12T07:00:02.981Z</time></trkpt><trkpt lat="37.9644133" lon="16.1019767"><ele>13.0</ele><time>2026-04-12T07:00:03.981Z</time></trkpt><trkpt lat="37.964305" lon="16.1019"><ele>13.25</ele><time>2026-04-12T07:00:04.982Z</time></trkpt><trkpt lat="37.96418" lon="16.10181"><ele>13.5</ele><time>2026-04-12T07:00:05.982Z</time></trkpt><trkpt lat="37.9640667" lon="16.101735"><ele>13.75</ele><time>2026-04-12T07:00:06.982Z</time></trkpt><trkpt lat="37.96396" lon="16.101655"><ele>14.0</ele><time>2026-04-12T07:00:07.981Z</time></trkpt><trkpt lat="37.963845" lon="16.101595"><ele>15.2</ele><time>2026-04-12T07:00:08.981Z</time></trkpt><trkpt lat="37.96374" lon="16.1015233"><ele>16.4</ele><time>2026-04-12T07:00:09.981Z</time></trkpt><trkpt lat="37.9636583" lon="16.10144"><ele>17.6</ele><time>2026-04-12T07:00:10.982Z</time></trkpt><trkpt lat="37.9635833" lon="16.1013683"><ele>18.8</ele><time>2026-04-12T07:00:11.981Z</time></trkpt><trkpt lat="37.9635167" lon="16.101295"><ele>20.0</ele><time>2026-04-12T07:00:12.981Z</time></trkpt><trkpt lat="37.963445" lon="16.10124"><ele>20.0</ele><time>2026-04-12T07:00:13.981Z</time></trkpt><trkpt lat="37.9633717" lon="16.1011833"><ele>20.0</ele><time>2026-04-12T07:00:14.982Z</time></trkpt><trkpt lat="37.9632983" lon="16.1011233"><ele>20.0</ele><time>2026-04-12T07:00:15.981Z</time></trkpt><trkpt lat="37.96322" lon="16.1010567"><ele>20.0</ele><time>2026-04-12T07:00:16.981Z</time></trkpt><trkpt lat="37.963125" lon="16.100995"><ele>20.0</ele><time>2026-04-12T07:00:17.982Z</time></trkpt><trkpt lat="37.9630217" lon="16.10092"><ele>19.0</ele><time>2026-04-12T07:00:18.981Z</time></trkpt><trkpt lat="37.9629317" lon="16.1008333"><ele>18.0</ele><time>2026-04-12T07:00:19.982Z</time></trkpt><trkpt lat="37.9628383" lon="16.1007533"><ele>17.0</ele><time>2026-04-12T07:00:20.981Z</time></trkpt><trkpt lat="37.962745" lon="16.1006733"><ele>16.0</ele><time>2026-04-12T07:00:21.981Z</time></trkpt><trkpt lat="37.962655" lon="16.1005967"><ele>15.0</ele><time>2026-04-12T07:00:22.981Z</time></trkpt><trkpt lat="37.9625667" lon="16.10052"><ele>15.8</ele><time>2026-04-12T07:00:23.981Z</time></trkpt><trkpt lat="37.9624783" lon="16.1004433"><ele>16.6</ele><time>2026-04-12T07:00:24.981Z</time></trkpt><trkpt lat="37.96239" lon="16.1003683"><ele>17.4</ele><time>2026-04-12T07:00:25.981Z</time></trkpt><trkpt lat="37.962305" lon="16.1003067"><ele>18.2</ele><time>2026-04-12T07:00:26.981Z</time></trkpt><trkpt lat="37.9622283" lon="16.1002483"><ele>19.0</ele><time>2026-04-12T07:00:27.982Z</time></trkpt><trkpt lat="37.962145" lon="16.100185"><ele>19.0</ele><time>2026-04-12T07:00:28.981Z</time></trkpt><trkpt lat="37.9620483" lon="16.1001183"><ele>19.0</ele><time>2026-04-12T07:00:29.981Z</time></trkpt><trkpt lat="37.96194" lon="16.1000317"><ele>19.0</ele><time>2026-04-12T07:00:30.981Z</time></trkpt><trkpt lat="37.9618317" lon="16.099935"><ele>19.0</ele><time>2026-04-12T07:00:31.982Z</time></trkpt><trkpt lat="37.961715" lon="16.09982"><ele>18.666666666666664</ele><time>2026-04-12T07:00:32.981Z</time></trkpt><trkpt lat="37.96159" lon="16.0997033"><ele>18.333333333333332</ele><time>2026-04-12T07:00:33.982Z</time></trkpt><trkpt lat="37.96145" lon="16.0995867"><ele>18.0</ele><time>2026-04-12T07:00:34.981Z</time></trkpt><trkpt lat="37.9613017" lon="16.09945"><ele>18.0</ele><time>2026-04-12T07:00:35.982Z</time></trkpt><trkpt lat="37.96116" lon="16.0993117"><ele>18.0</ele><time>2026-04-12T07:00:36.982Z</time></trkpt><trkpt lat="37.960995" lon="16.0991733"><ele>18.0</ele><time>2026-04-12T07:00:37.981Z</time></trkpt><trkpt lat="37.9608317" lon="16.0990317"><ele>17.0</ele><time>2026-04-12T07:00:38.981Z</time></trkpt><trkpt lat="37.9606567" lon="16.09889"><ele>16.0</ele><time>2026-04-12T07:00:39.981Z</time></trkpt><trkpt lat="37.9604883" lon="16.098735"><ele>15.0</ele><time>2026-04-12T07:00:40.981Z</time></trkpt><trkpt lat="37.96032" lon="16.09858"><ele>15.0</ele><time>2026-04-12T07:00:41.981Z</time></trkpt><trkpt lat="37.96014" lon="16.0984383"><ele>15.0</ele><time>2026-04-12T07:00:42.981Z</time></trkpt><trkpt lat="37.9599633" lon="16.09829"><ele>15.0</ele><time>2026-04-12T07:00:43.982Z</time></trkpt><trkpt lat="37.9597733" lon="16.0981467"><ele>14.0</ele><time>2026-04-12T07:00:44.981Z</time></trkpt><trkpt lat="37.9595967" lon="16.0979817"><ele>13.0</ele><time>2026-04-12T07:00:45.981Z</time></trkpt><trkpt lat="37.9594233" lon="16.0978167"><ele>12.0</ele><time>2026-04-12T07:00:46.981Z</time></trkpt><trkpt lat="37.9592517" lon="16.0976417"><ele>11.5</ele><time>2026-04-12T07:00:47.981Z</time></trkpt><trkpt lat="37.9590833" lon="16.0974567"><ele>11.0</ele><time>2026-04-12T07:00:48.981Z</time></trkpt><trkpt lat="37.95891" lon="16.0972633"><ele>11.0</ele><time>2026-04-12T07:00:49.982Z</time></trkpt><trkpt lat="37.95874" lon="16.097065"><ele>11.0</ele><time>2026-04-12T07:00:50.981Z</time></trkpt><trkpt lat="37.958565" lon="16.0968817"><ele>11.0</ele><time>2026-04-12T07:00:51.981Z</time></trkpt><trkpt lat="37.95841" lon="16.0966933"><ele>11.0</ele><time>2026-04-12T07:00:52.981Z</time></trkpt><trkpt lat="37.95824" lon="16.0965133"><ele>11.0</ele><time>2026-04-12T07:00:53.981Z</time></trkpt><trkpt lat="37.9580767" lon="16.0963217"><ele>13.0</ele><time>2026-04-12T07:00:54.981Z</time></trkpt><trkpt lat="37.95791" lon="16.096125"><ele>15.0</ele><time>2026-04-12T07:00:55.981Z</time></trkpt><trkpt lat="37.95775" lon="16.0959333"><ele>17.0</ele><time>2026-04-12T07:00:56.981Z</time></trkpt><trkpt lat="37.9575733" lon="16.095745"><ele>17.0</ele><time>2026-04-12T07:00:57.981Z</time></trkpt><trkpt lat="37.9574083" lon="16.09555"><ele>17.0</ele><time>2026-04-12T07:00:58.981Z</time></trkpt><trkpt lat="37.957245" lon="16.095365"><ele>17.0</ele><time>2026-04-12T07:00:59.981Z</time></trkpt><trkpt lat="37.9570833" lon="16.0951767"><ele>17.0</ele><time>2026-04-12T07:01:00.981Z</time></trkpt><trkpt lat="37.9569217" lon="16.0949933"><ele>17.0</ele><time>2026-04-12T07:01:01.981Z</time></trkpt><trkpt lat="37.9567467" lon="16.09482"><ele>17.0</ele><time>2026-04-12T07:01:02.981Z</time></trkpt><trkpt lat="37.9565883" lon="16.0946233"><ele>17.333333333333336</ele><time>2026-04-12T07:01:03.982Z</time></trkpt><trkpt lat="37.956425" lon="16.094435"><ele>17.666666666666668</ele><time>2026-04-12T07:01:04.981Z</time></trkpt><trkpt lat="37.956255" lon="16.0942567"><ele>18.0</ele><time>2026-04-12T07:01:05.981Z</time></trkpt><trkpt lat="37.95609" lon="16.09408"><ele>18.0</ele><time>2026-04-12T07:01:06.981Z</time></trkpt><trkpt lat="37.9559333" lon="16.093895"><ele>18.0</ele><time>2026-04-12T07:01:07.982Z</time></trkpt><trkpt lat="37.9557733" lon="16.0937133"><ele>18.0</ele><time>2026-04-12T07:01:08.981Z</time></trkpt><trkpt lat="37.9556117" lon="16.0935267"><ele>17.0</ele><time>2026-04-12T07:01:09.981Z</time></trkpt><trkpt lat="37.9554533" lon="16.0933433"><ele>16.0</ele><time>2026-04-12T07:01:10.981Z</time></trkpt><trkpt lat="37.9552833" lon="16.0931483"><ele>15.0</ele><time>2026-04-12T07:01:11.981Z</time></trkpt><trkpt lat="37.9551167" lon="16.092955"><ele>14.333333333333332</ele><time>2026-04-12T07:01:12.981Z</time></trkpt><trkpt lat="37.9549617" lon="16.0927533"><ele>13.666666666666666</ele><time>2026-04-12T07:01:13.982Z</time></trkpt><trkpt lat="37.9547983" lon="16.0925583"><ele>13.0</ele><time>2026-04-12T07:01:14.981Z</time></trkpt><trkpt lat="37.9546383" lon="16.0923667"><ele>13.0</ele><time>2026-04-12T07:01:15.981Z</time></trkpt><trkpt lat="37.9544667" lon="16.092175"><ele>13.0</ele><time>2026-04-12T07:01:16.982Z</time></trkpt><trkpt lat="37.9543" lon="16.0919767"><ele>13.5</ele><time>2026-04-12T07:01:17.981Z</time></trkpt><trkpt lat="37.95413" lon="16.09178"><ele>14.0</ele><time>2026-04-12T07:01:18.981Z</time></trkpt><trkpt lat="37.9539583" lon="16.0915783"><ele>14.0</ele><time>2026-04-12T07:01:19.981Z</time></trkpt><trkpt lat="37.9537867" lon="16.09139"><ele>14.0</ele><time>2026-04-12T07:01:20.981Z</time></trkpt><trkpt lat="37.9536117" lon="16.091195"><ele>14.0</ele><time>2026-04-12T07:01:21.981Z</time></trkpt><trkpt lat="37.9534367" lon="16.0910017"><ele>14.0</ele><time>2026-04-12T07:01:22.982Z</time></trkpt><trkpt lat="37.9532583" lon="16.090805"><ele>15.5</ele><time>2026-04-12T07:01:23.981Z</time></trkpt><trkpt lat="37.9530883" lon="16.0906017"><ele>17.0</ele><time>2026-04-12T07:01:24.981Z</time></trkpt><trkpt lat="37.9529133" lon="16.0903983"><ele>17.0</ele><time>2026-04-12T07:01:25.981Z</time></trkpt><trkpt lat="37.9527383" lon="16.090205"><ele>17.0</ele><time>2026-04-12T07:01:26.981Z</time></trkpt><trkpt lat="37.9525583" lon="16.0900267"><ele>16.0</ele><time>2026-04-12T07:01:27.981Z</time></trkpt><trkpt lat="37.9523833" lon="16.0898333"><ele>15.0</ele><time>2026-04-12T07:01:28.981Z</time></trkpt><trkpt lat="37.9521967" lon="16.0896533"><ele>15.0</ele><time>2026-04-12T07:01:29.981Z</time></trkpt><trkpt lat="37.95201" lon="16.08948"><ele>15.0</ele><time>2026-04-12T07:01:30.981Z</time></trkpt><trkpt lat="37.951825" lon="16.0893183"><ele>13.5</ele><time>2026-04-12T07:01:31.982Z</time></trkpt><trkpt lat="37.9516383" lon="16.0891483"><ele>12.0</ele><time>2026-04-12T07:01:32.982Z</time></trkpt><trkpt lat="37.951455" lon="16.0889817"><ele>12.0</ele><time>2026-04-12T07:01:33.982Z</time></trkpt><trkpt lat="37.95126" lon="16.088815"><ele>12.0</ele><time>2026-04-12T07:01:34.981Z</time></trkpt><trkpt lat="37.951065" lon="16.0886617"><ele>12.0</ele><time>2026-04-12T07:01:35.981Z</time></trkpt><trkpt lat="37.95087" lon="16.088495"><ele>12.0</ele><time>2026-04-12T07:01:36.982Z</time></trkpt><trkpt lat="37.9506717" lon="16.0883417"><ele>15.5</ele><time>2026-04-12T07:01:37.981Z</time></trkpt><trkpt lat="37.9504783" lon="16.08818"><ele>19.0</ele><time>2026-04-12T07:01:38.981Z</time></trkpt><trkpt lat="37.95028" lon="16.0880217"><ele>19.0</ele><time>2026-04-12T07:01:39.982Z</time></trkpt><trkpt lat="37.9500867" lon="16.0878733"><ele>19.0</ele><time>2026-04-12T07:01:40.981Z</time></trkpt><trkpt lat="37.9498933" lon="16.0877117"><ele>14.5</ele><time>2026-04-12T07:01:41.981Z</time></trkpt><trkpt lat="37.9497033" lon="16.0875533"><ele>10.0</ele><time>2026-04-12T07:01:42.981Z</time></trkpt><trkpt lat="37.9495133" lon="16.08739"><ele>10.0</ele><time>2026-04-12T07:01:43.981Z</time></trkpt><trkpt lat="37.9493117" lon="16.087235"><ele>10.0</ele><time>2026-04-12T07:01:44.981Z</time></trkpt><trkpt lat="37.9491083" lon="16.08708"><ele>8.5</ele><time>2026-04-12T07:01:45.981Z</time></trkpt><trkpt lat="37.94892" lon="16.0869217"><ele>7.0</ele><time>2026-04-12T07:01:46.982Z</time></trkpt><trkpt lat="37.9487283" lon="16.0867433"><ele>7.5</ele><time>2026-04-12T07:01:47.981Z</time></trkpt><trkpt lat="37.9485217" lon="16.086585"><ele>8.0</ele><time>2026-04-12T07:01:48.981Z</time></trkpt><trkpt lat="37.9483317" lon="16.0864167"><ele>8.5</ele><time>2026-04-12T07:01:49.982Z</time></trkpt><trkpt lat="37.9481333" lon="16.0862617"><ele>9.0</ele><time>2026-04-12T07:01:50.982Z</time></trkpt><trkpt lat="37.9479383" lon="16.08611"><ele>9.0</ele><time>2026-04-12T07:01:51.982Z</time></trkpt><trkpt lat="37.9477383" lon="16.0859517"><ele>9.0</ele><time>2026-04-12T07:01:52.981Z</time></trkpt><trkpt lat="37.9475433" lon="16.085785"><ele>9.0</ele><time>2026-04-12T07:01:53.981Z</time></trkpt><trkpt lat="37.947345" lon="16.0856283"><ele>9.0</ele><time>2026-04-12T07:01:54.981Z</time></trkpt><trkpt lat="37.9471433" lon="16.0854667"><ele>9.0</ele><time>2026-04-12T07:01:55.981Z</time></trkpt><trkpt lat="37.9469467" lon="16.0852983"><ele>9.0</ele><time>2026-04-12T07:01:56.981Z</time></trkpt><trkpt lat="37.9467467" lon="16.0851433"><ele>9.0</ele><time>2026-04-12T07:01:57.982Z</time></trkpt><trkpt lat="37.9465467" lon="16.0849817"><ele>9.0</ele><time>2026-04-12T07:01:58.982Z</time></trkpt><trkpt lat="37.9463467" lon="16.08481"><ele>9.0</ele><time>2026-04-12T07:01:59.981Z</time></trkpt><trkpt lat="37.9461467" lon="16.0846467"><ele>9.0</ele><time>2026-04-12T07:02:00.981Z</time></trkpt><trkpt lat="37.94594" lon="16.08447"><ele>8.5</ele><time>2026-04-12T07:02:01.981Z</time></trkpt><trkpt lat="37.9457417" lon="16.0843083"><ele>8.0</ele><time>2026-04-12T07:02:02.981Z</time></trkpt><trkpt lat="37.9455417" lon="16.084135"><ele>8.5</ele><time>2026-04-12T07:02:03.982Z</time></trkpt><trkpt lat="37.9453383" lon="16.0839667"><ele>9.0</ele><time>2026-04-12T07:02:04.981Z</time></trkpt><trkpt lat="37.9451333" lon="16.0838083"><ele>8.5</ele><time>2026-04-12T07:02:05.981Z</time></trkpt><trkpt lat="37.9449383" lon="16.0836417"><ele>8.0</ele><time>2026-04-12T07:02:06.981Z</time></trkpt><trkpt lat="37.9447367" lon="16.0834767"><ele>8.0</ele><time>2026-04-12T07:02:07.982Z</time></trkpt><trkpt lat="37.94453" lon="16.0833017"><ele>8.0</ele><time>2026-04-12T07:02:08.981Z</time></trkpt><trkpt lat="37.9443217" lon="16.0831333"><ele>9.0</ele><time>2026-04-12T07:02:09.981Z</time></trkpt><trkpt lat="37.9441217" lon="16.0829533"><ele>10.0</ele><time>2026-04-12T07:02:10.981Z</time></trkpt><trkpt lat="37.9439367" lon="16.0827633"><ele>10.0</ele><time>2026-04-12T07:02:11.981Z</time></trkpt><trkpt lat="37.9437567" lon="16.0825583"><ele>10.0</ele><time>2026-04-12T07:02:12.981Z</time></trkpt><trkpt lat="37.9435733" lon="16.0823467"><ele>11.5</ele><time>2026-04-12T07:02:13.982Z</time></trkpt><trkpt lat="37.9433983" lon="16.08213"><ele>13.0</ele><time>2026-04-12T07:02:14.981Z</time></trkpt><trkpt lat="37.9432267" lon="16.0819067"><ele>12.5</ele><time>2026-04-12T07:02:15.981Z</time></trkpt><trkpt lat="37.9430517" lon="16.0816917"><ele>12.0</ele><time>2026-04-12T07:02:16.982Z</time></trkpt><trkpt lat="37.94288" lon="16.0814783"><ele>12.0</ele><time>2026-04-12T07:02:17.981Z</time></trkpt><trkpt lat="37.9426967" lon="16.0812483"><ele>12.0</ele><time>2026-04-12T07:02:18.981Z</time></trkpt><trkpt lat="37.9425283" lon="16.0810367"><ele>11.0</ele><time>2026-04-12T07:02:19.981Z</time></trkpt><trkpt lat="37.94235" lon="16.0808233"><ele>10.0</ele><time>2026-04-12T07:02:20.981Z</time></trkpt><trkpt lat="37.942175" lon="16.0806067"><ele>10.0</ele><time>2026-04-12T07:02:21.981Z</time></trkpt><trkpt lat="37.94201" lon="16.0803967"><ele>10.0</ele><time>2026-04-12T07:02:22.981Z</time></trkpt><trkpt lat="37.94184" lon="16.080185"><ele>10.0</ele><time>2026-04-12T07:02:23.981Z</time></trkpt><trkpt lat="37.9416717" lon="16.0799767"><ele>10.0</ele><time>2026-04-12T07:02:24.981Z</time></trkpt><trkpt lat="37.941485" lon="16.0797717"><ele>10.0</ele><time>2026-04-12T07:02:25.981Z</time></trkpt><trkpt lat="37.9412967" lon="16.07957"><ele>10.0</ele><time>2026-04-12T07:02:26.981Z</time></trkpt><trkpt lat="37.9410983" lon="16.07937"><ele>10.0</ele><time>2026-04-12T07:02:27.981Z</time></trkpt><trkpt lat="37.9408967" lon="16.0791783"><ele>10.0</ele><time>2026-04-12T07:02:28.981Z</time></trkpt><trkpt lat="37.940705" lon="16.0789917"><ele>9.5</ele><time>2026-04-12T07:02:29.981Z</time></trkpt><trkpt lat="37.940505" lon="16.0787917"><ele>9.0</ele><time>2026-04-12T07:02:30.981Z</time></trkpt><trkpt lat="37.9402983" lon="16.0786017"><ele>9.0</ele><time>2026-04-12T07:02:31.981Z</time></trkpt><trkpt lat="37.9400933" lon="16.0784033"><ele>9.0</ele><time>2026-04-12T07:02:32.982Z</time></trkpt><trkpt lat="37.939895" lon="16.0782083"><ele>10.0</ele><time>2026-04-12T07:02:33.981Z</time></trkpt><trkpt lat="37.93969" lon="16.0780183"><ele>11.0</ele><time>2026-04-12T07:02:34.981Z</time></trkpt><trkpt lat="37.9394917" lon="16.0778183"><ele>11.0</ele><time>2026-04-12T07:02:35.981Z</time></trkpt><trkpt lat="37.9392967" lon="16.0776183"><ele>11.0</ele><time>2026-04-12T07:02:36.981Z</time></trkpt><trkpt lat="37.9391" lon="16.0774233"><ele>14.0</ele><time>2026-04-12T07:02:37.982Z</time></trkpt><trkpt lat="37.938905" lon="16.0772283"><ele>17.0</ele><time>2026-04-12T07:02:38.981Z</time></trkpt><trkpt lat="37.9387133" lon="16.0770267"><ele>17.0</ele><time>2026-04-12T07:02:39.981Z</time></trkpt><trkpt lat="37.9385283" lon="16.0768233"><ele>17.0</ele><time>2026-04-12T07:02:40.981Z</time></trkpt><trkpt lat="37.9383433" lon="16.0766083"><ele>15.0</ele><time>2026-04-12T07:02:41.981Z</time></trkpt><trkpt lat="37.9381633" lon="16.0763883"><ele>13.0</ele><time>2026-04-12T07:02:42.981Z</time></trkpt><trkpt lat="37.9379933" lon="16.0761667"><ele>13.0</ele><time>2026-04-12T07:02:43.981Z</time></trkpt><trkpt lat="37.9378233" lon="16.075935"><ele>13.0</ele><time>2026-04-12T07:02:44.981Z</time></trkpt><trkpt lat="37.93765" lon="16.07572"><ele>10.5</ele><time>2026-04-12T07:02:45.981Z</time></trkpt><trkpt lat="37.9374867" lon="16.0754967"><ele>8.0</ele><time>2026-04-12T07:02:46.982Z</time></trkpt><trkpt lat="37.9373217" lon="16.075295"><ele>8.0</ele><time>2026-04-12T07:02:47.981Z</time></trkpt><trkpt lat="37.93716" lon="16.0750883"><ele>8.0</ele><time>2026-04-12T07:02:48.981Z</time></trkpt><trkpt lat="37.9370083" lon="16.074875"><ele>7.666666666666666</ele><time>2026-04-12T07:02:49.982Z</time></trkpt><trkpt lat="37.93685" lon="16.07467"><ele>7.333333333333334</ele><time>2026-04-12T07:02:50.981Z</time></trkpt><trkpt lat="37.936695" lon="16.0744733"><ele>7.0</ele><time>2026-04-12T07:02:51.982Z</time></trkpt><trkpt lat="37.9365417" lon="16.0742717"><ele>8.666666666666668</ele><time>2026-04-12T07:02:52.981Z</time></trkpt><trkpt lat="37.936385" lon="16.0740817"><ele>10.333333333333334</ele><time>2026-04-12T07:02:53.981Z</time></trkpt><trkpt lat="37.9362267" lon="16.0738917"><ele>12.0</ele><time>2026-04-12T07:02:54.981Z</time></trkpt><trkpt lat="37.9360833" lon="16.07369"><ele>12.0</ele><time>2026-04-12T07:02:55.981Z</time></trkpt><trkpt lat="37.9359433" lon="16.0734967"><ele>12.0</ele><time>2026-04-12T07:02:56.982Z</time></trkpt><trkpt lat="37.9358017" lon="16.0733133"><ele>12.0</ele><time>2026-04-12T07:02:57.981Z</time></trkpt><trkpt lat="37.93566" lon="16.0731367"><ele>11.333333333333334</ele><time>2026-04-12T07:02:58.982Z</time></trkpt><trkpt lat="37.93552" lon="16.0729483"><ele>10.666666666666668</ele><time>2026-04-12T07:02:59.981Z</time></trkpt><trkpt lat="37.93538" lon="16.0727633"><ele>10.0</ele><time>2026-04-12T07:03:00.981Z</time></trkpt><trkpt lat="37.9352433" lon="16.07259"><ele>10.0</ele><time>2026-04-12T07:03:01.981Z</time></trkpt><trkpt lat="37.9351067" lon="16.0724183"><ele>10.0</ele><time>2026-04-12T07:03:02.982Z</time></trkpt><trkpt lat="37.9349867" lon="16.072255"><ele>10.0</ele><time>2026-04-12T07:03:03.982Z</time></trkpt><trkpt lat="37.93487" lon="16.0721"><ele>10.0</ele><time>2026-04-12T07:03:04.981Z</time></trkpt><trkpt lat="37.93476" lon="16.0719517"><ele>10.0</ele><time>2026-04-12T07:03:05.981Z</time></trkpt><trkpt lat="37.934645" lon="16.0718117"><ele>10.0</ele><time>2026-04-12T07:03:06.982Z</time></trkpt><trkpt lat="37.93454" lon="16.0716717"><ele>10.333333333333334</ele><time>2026-04-12T07:03:07.981Z</time></trkpt><trkpt lat="37.9344333" lon="16.0715217"><ele>10.666666666666666</ele><time>2026-04-12T07:03:08.981Z</time></trkpt><trkpt lat="37.9343133" lon="16.0713583"><ele>11.0</ele><time>2026-04-12T07:03:09.981Z</time></trkpt><trkpt lat="37.934185" lon="16.07118"><ele>11.333333333333332</ele><time>2026-04-12T07:03:10.981Z</time></trkpt><trkpt lat="37.93404" lon="16.0709983"><ele>11.666666666666666</ele><time>2026-04-12T07:03:11.982Z</time></trkpt><trkpt lat="37.93389" lon="16.070795"><ele>12.0</ele><time>2026-04-12T07:03:12.981Z</time></trkpt><trkpt lat="37.93373" lon="16.0706033"><ele>12.0</ele><time>2026-04-12T07:03:13.982Z</time></trkpt><trkpt lat="37.9335667" lon="16.0704017"><ele>12.0</ele><time>2026-04-12T07:03:14.981Z</time></trkpt><trkpt lat="37.933395" lon="16.070185"><ele>11.0</ele><time>2026-04-12T07:03:15.981Z</time></trkpt><trkpt lat="37.933235" lon="16.0699717"><ele>10.0</ele><time>2026-04-12T07:03:16.981Z</time></trkpt><trkpt lat="37.9330633" lon="16.0697617"><ele>10.0</ele><time>2026-04-12T07:03:17.981Z</time></trkpt><trkpt lat="37.9329" lon="16.0695433"><ele>10.0</ele><time>2026-04-12T07:03:18.981Z</time></trkpt><trkpt lat="37.932735" lon="16.069325"><ele>10.5</ele><time>2026-04-12T07:03:19.981Z</time></trkpt><trkpt lat="37.932565" lon="16.0691083"><ele>11.0</ele><time>2026-04-12T07:03:20.981Z</time></trkpt><trkpt lat="37.932395" lon="16.0688983"><ele>11.0</ele><time>2026-04-12T07:03:21.981Z</time></trkpt><trkpt lat="37.9322283" lon="16.0686917"><ele>11.0</ele><time>2026-04-12T07:03:22.981Z</time></trkpt><trkpt lat="37.932055" lon="16.068485"><ele>14.5</ele><time>2026-04-12T07:03:23.981Z</time></trkpt><trkpt lat="37.9318967" lon="16.0682733"><ele>18.0</ele><time>2026-04-12T07:03:24.981Z</time></trkpt><trkpt lat="37.9317283" lon="16.0680817"><ele>16.0</ele><time>2026-04-12T07:03:25.981Z</time></trkpt><trkpt lat="37.9315633" lon="16.0678883"><ele>14.0</ele><time>2026-04-12T07:03:26.981Z</time></trkpt><trkpt lat="37.9313817" lon="16.067725"><ele>12.0</ele><time>2026-04-12T07:03:27.981Z</time></trkpt><trkpt lat="37.9311983" lon="16.067565"><ele>14.5</ele><time>2026-04-12T07:03:28.981Z</time></trkpt><trkpt lat="37.931005" lon="16.06741"><ele>17.0</ele><time>2026-04-12T07:03:29.981Z</time></trkpt><trkpt lat="37.9308067" lon="16.0672717"><ele>17.0</ele><time>2026-04-12T07:03:30.982Z</time></trkpt><trkpt lat="37.9305933" lon="16.067125"><ele>17.0</ele><time>2026-04-12T07:03:31.981Z</time></trkpt><trkpt lat="37.930385" lon="16.0669867"><ele>17.0</ele><time>2026-04-12T07:03:32.981Z</time></trkpt><trkpt lat="37.9301817" lon="16.06684"><ele>17.0</ele><time>2026-04-12T07:03:33.981Z</time></trkpt><trkpt lat="37.9299733" lon="16.0666933"><ele>19.0</ele><time>2026-04-12T07:03:34.981Z</time></trkpt><trkpt lat="37.9297733" lon="16.06656"><ele>21.0</ele><time>2026-04-12T07:03:35.981Z</time></trkpt><trkpt lat="37.9295817" lon="16.0664217"><ele>23.0</ele><time>2026-04-12T07:03:36.981Z</time></trkpt><trkpt lat="37.9293867" lon="16.06629"><ele>20.333333333333336</ele><time>2026-04-12T07:03:37.981Z</time></trkpt><trkpt lat="37.9291883" lon="16.0661667"><ele>17.666666666666668</ele><time>2026-04-12T07:03:38.981Z</time></trkpt><trkpt lat="37.9289833" lon="16.06606"><ele>15.0</ele><time>2026-04-12T07:03:39.982Z</time></trkpt><trkpt lat="37.9287867" lon="16.06594"><ele>15.0</ele><time>2026-04-12T07:03:40.981Z</time></trkpt><trkpt lat="37.9285967" lon="16.0658133"><ele>15.0</ele><time>2026-04-12T07:03:41.981Z</time></trkpt><trkpt lat="37.9284217" lon="16.0656933"><ele>15.0</ele><time>2026-04-12T07:03:42.981Z</time></trkpt><trkpt lat="37.92826" lon="16.06558"><ele>17.333333333333332</ele><time>2026-04-12T07:03:43.981Z</time></trkpt><trkpt lat="37.9280983" lon="16.065475"><ele>19.666666666666664</ele><time>2026-04-12T07:03:44.982Z</time></trkpt><trkpt lat="37.9279467" lon="16.0653767"><ele>22.0</ele><time>2026-04-12T07:03:45.981Z</time></trkpt><trkpt lat="37.9278133" lon="16.065265"><ele>22.0</ele><time>2026-04-12T07:03:46.981Z</time></trkpt><trkpt lat="37.927685" lon="16.0651583"><ele>22.0</ele><time>2026-04-12T07:03:47.981Z</time></trkpt><trkpt lat="37.927565" lon="16.0650567"><ele>22.0</ele><time>2026-04-12T07:03:48.981Z</time></trkpt><trkpt lat="37.9274483" lon="16.0649583"><ele>22.0</ele><time>2026-04-12T07:03:49.982Z</time></trkpt><trkpt lat="37.9273333" lon="16.0648483"><ele>19.5</ele><time>2026-04-12T07:03:50.982Z</time></trkpt><trkpt lat="37.9272283" lon="16.06472"><ele>17.0</ele><time>2026-04-12T07:03:51.981Z</time></trkpt><trkpt lat="37.9271133" lon="16.0646017"><ele>14.5</ele><time>2026-04-12T07:03:52.981Z</time></trkpt><trkpt lat="37.9270083" lon="16.0644567"><ele>12.0</ele><time>2026-04-12T07:03:53.981Z</time></trkpt><trkpt lat="37.9269067" lon="16.0642917"><ele>12.0</ele><time>2026-04-12T07:03:54.981Z</time></trkpt><trkpt lat="37.9267733" lon="16.0641433"><ele>12.0</ele><time>2026-04-12T07:03:55.982Z</time></trkpt><trkpt lat="37.9266217" lon="16.0639817"><ele>12.0</ele><time>2026-04-12T07:03:56.981Z</time></trkpt><trkpt lat="37.9264683" lon="16.0638033"><ele>10.333333333333334</ele><time>2026-04-12T07:03:57.981Z</time></trkpt><trkpt lat="37.9263117" lon="16.06362"><ele>8.666666666666668</ele><time>2026-04-12T07:03:58.981Z</time></trkpt><trkpt lat="37.9261583" lon="16.0634167"><ele>7.0</ele><time>2026-04-12T07:03:59.981Z</time></trkpt><trkpt lat="37.926" lon="16.0632033"><ele>7.0</ele><time>2026-04-12T07:04:00.981Z</time></trkpt><trkpt lat="37.9258417" lon="16.0629833"><ele>7.0</ele><time>2026-04-12T07:04:01.981Z</time></trkpt><trkpt lat="37.9256983" lon="16.06274"><ele>7.0</ele><time>2026-04-12T07:04:02.981Z</time></trkpt><trkpt lat="37.92557" lon="16.0624767"><ele>7.0</ele><time>2026-04-12T07:04:03.981Z</time></trkpt><trkpt lat="37.925465" lon="16.0622067"><ele>11.5</ele><time>2026-04-12T07:04:04.981Z</time></trkpt><trkpt lat="37.925375" lon="16.0619283"><ele>16.0</ele><time>2026-04-12T07:04:05.981Z</time></trkpt><trkpt lat="37.9252933" lon="16.0616383"><ele>24.0</ele><time>2026-04-12T07:04:06.981Z</time></trkpt><trkpt lat="37.9252183" lon="16.0613483"><ele>32.0</ele><time>2026-04-12T07:04:07.982Z</time></trkpt><trkpt lat="37.9251617" lon="16.0610467"><ele>34.5</ele><time>2026-04-12T07:04:08.981Z</time></trkpt><trkpt lat="37.925135" lon="16.0607283"><ele>37.0</ele><time>2026-04-12T07:04:09.982Z</time></trkpt><trkpt lat="37.9251167" lon="16.060415"><ele>37.0</ele><time>2026-04-12T07:04:10.982Z</time></trkpt><trkpt lat="37.925105" lon="16.0601017"><ele>37.0</ele><time>2026-04-12T07:04:11.981Z</time></trkpt><trkpt lat="37.9251117" lon="16.0597833"><ele>41.5</ele><time>2026-04-12T07:04:12.982Z</time></trkpt><trkpt lat="37.9251133" lon="16.0594567"><ele>46.0</ele><time>2026-04-12T07:04:13.981Z</time></trkpt><trkpt lat="37.9251017" lon="16.05913"><ele>47.5</ele><time>2026-04-12T07:04:14.981Z</time></trkpt><trkpt lat="37.9250817" lon="16.0588133"><ele>49.0</ele><time>2026-04-12T07:04:15.981Z</time></trkpt><trkpt lat="37.9250567" lon="16.0585067"><ele>34.0</ele><time>2026-04-12T07:04:16.981Z</time></trkpt><trkpt lat="37.92502" lon="16.0581933"><ele>19.0</ele><time>2026-04-12T07:04:17.982Z</time></trkpt><trkpt lat="37.9249817" lon="16.0578733"><ele>19.0</ele><time>2026-04-12T07:04:18.981Z</time></trkpt><trkpt lat="37.9249433" lon="16.057565"><ele>19.0</ele><time>2026-04-12T07:04:19.981Z</time></trkpt><trkpt lat="37.9249033" lon="16.0572517"><ele>21.0</ele><time>2026-04-12T07:04:20.982Z</time></trkpt><trkpt lat="37.9248667" lon="16.0569317"><ele>23.0</ele><time>2026-04-12T07:04:21.981Z</time></trkpt><trkpt lat="37.92483" lon="16.056615"><ele>26.5</ele><time>2026-04-12T07:04:22.981Z</time></trkpt><trkpt lat="37.9247817" lon="16.0562933"><ele>30.0</ele><time>2026-04-12T07:04:23.981Z</time></trkpt><trkpt lat="37.9247483" lon="16.0559733"><ele>30.0</ele><time>2026-04-12T07:04:24.981Z</time></trkpt><trkpt lat="37.9247217" lon="16.0556517"><ele>30.0</ele><time>2026-04-12T07:04:25.982Z</time></trkpt><trkpt lat="37.9246933" lon="16.0553167"><ele>30.0</ele><time>2026-04-12T07:04:26.982Z</time></trkpt><trkpt lat="37.92467" lon="16.0549967"><ele>30.0</ele><time>2026-04-12T07:04:27.982Z</time></trkpt><trkpt lat="37.9246567" lon="16.054675"><ele>24.5</ele><time>2026-04-12T07:04:28.981Z</time></trkpt><trkpt lat="37.924635" lon="16.0543517"><ele>19.0</ele><time>2026-04-12T07:04:29.981Z</time></trkpt><trkpt lat="37.9246117" lon="16.0540417"><ele>15.5</ele><time>2026-04-12T07:04:30.981Z</time></trkpt><trkpt lat="37.9245783" lon="16.053735"><ele>12.0</ele><time>2026-04-12T07:04:31.982Z</time></trkpt><trkpt lat="37.9245333" lon="16.05342"><ele>15.0</ele><time>2026-04-12T07:04:32.982Z</time></trkpt><trkpt lat="37.9244867" lon="16.0530967"><ele>18.0</ele><time>2026-04-12T07:04:33.981Z</time></trkpt><trkpt lat="37.924445" lon="16.0527817"><ele>18.0</ele><time>2026-04-12T07:04:34.981Z</time></trkpt><trkpt lat="37.9244083" lon="16.0524717"><ele>18.0</ele><time>2026-04-12T07:04:35.981Z</time></trkpt><trkpt lat="37.9243833" lon="16.052165"><ele>20.0</ele><time>2026-04-12T07:04:36.981Z</time></trkpt><trkpt lat="37.924365" lon="16.051855"><ele>22.0</ele><time>2026-04-12T07:04:37.981Z</time></trkpt><trkpt lat="37.9243483" lon="16.051525"><ele>22.0</ele><time>2026-04-12T07:04:38.981Z</time></trkpt><trkpt lat="37.924345" lon="16.051205"><ele>22.0</ele><time>2026-04-12T07:04:39.981Z</time></trkpt><trkpt lat="37.9243333" lon="16.0508917"><ele>20.5</ele><time>2026-04-12T07:04:40.981Z</time></trkpt><trkpt lat="37.9243283" lon="16.0505683"><ele>19.0</ele><time>2026-04-12T07:04:41.982Z</time></trkpt><trkpt lat="37.924305" lon="16.0502433"><ele>19.0</ele><time>2026-04-12T07:04:42.981Z</time></trkpt><trkpt lat="37.9242617" lon="16.0499183"><ele>19.0</ele><time>2026-04-12T07:04:43.982Z</time></trkpt><trkpt lat="37.9242083" lon="16.0496"><ele>15.0</ele><time>2026-04-12T07:04:44.981Z</time></trkpt><trkpt lat="37.9241517" lon="16.049285"><ele>11.0</ele><time>2026-04-12T07:04:45.982Z</time></trkpt><trkpt lat="37.9240983" lon="16.04897"><ele>11.0</ele><time>2026-04-12T07:04:46.982Z</time></trkpt><trkpt lat="37.9240483" lon="16.048655"><ele>11.0</ele><time>2026-04-12T07:04:47.981Z</time></trkpt><trkpt lat="37.923995" lon="16.0483367"><ele>13.0</ele><time>2026-04-12T07:04:48.981Z</time></trkpt><trkpt lat="37.923935" lon="16.0480183"><ele>15.0</ele><time>2026-04-12T07:04:49.981Z</time></trkpt><trkpt lat="37.9238817" lon="16.0477033"><ele>16.5</ele><time>2026-04-12T07:04:50.981Z</time></trkpt><trkpt lat="37.92382" lon="16.0473817"><ele>18.0</ele><time>2026-04-12T07:04:51.981Z</time></trkpt><trkpt lat="37.9237417" lon="16.0470717"><ele>18.0</ele><time>2026-04-12T07:04:52.982Z</time></trkpt><trkpt lat="37.9236533" lon="16.046755"><ele>18.0</ele><time>2026-04-12T07:04:53.982Z</time></trkpt><trkpt lat="37.9235617" lon="16.04644"><ele>18.5</ele><time>2026-04-12T07:04:54.982Z</time></trkpt><trkpt lat="37.9234683" lon="16.04614"><ele>19.0</ele><time>2026-04-12T07:04:55.981Z</time></trkpt><trkpt lat="37.92338" lon="16.0458367"><ele>16.0</ele><time>2026-04-12T07:04:56.982Z</time></trkpt><trkpt lat="37.9232917" lon="16.0455467"><ele>13.0</ele><time>2026-04-12T07:04:57.981Z</time></trkpt><trkpt lat="37.92321" lon="16.0452617"><ele>13.0</ele><time>2026-04-12T07:04:58.981Z</time></trkpt><trkpt lat="37.9231433" lon="16.04499"><ele>13.0</ele><time>2026-04-12T07:04:59.981Z</time></trkpt><trkpt lat="37.9231083" lon="16.044705"><ele>11.0</ele><time>2026-04-12T07:05:00.981Z</time></trkpt><trkpt lat="37.9231183" lon="16.0444067"><ele>9.0</ele><time>2026-04-12T07:05:01.982Z</time></trkpt><trkpt lat="37.9231433" lon="16.044105"><ele>9.0</ele><time>2026-04-12T07:05:02.981Z</time></trkpt><trkpt lat="37.923175" lon="16.043805"><ele>9.0</ele><time>2026-04-12T07:05:03.981Z</time></trkpt><trkpt lat="37.9232" lon="16.0435067"><ele>9.5</ele><time>2026-04-12T07:05:04.981Z</time></trkpt><trkpt lat="37.9232233" lon="16.0432183"><ele>10.0</ele><time>2026-04-12T07:05:05.981Z</time></trkpt><trkpt lat="37.92325" lon="16.04294"><ele>10.0</ele><time>2026-04-12T07:05:06.981Z</time></trkpt><trkpt lat="37.9232733" lon="16.0426667"><ele>10.0</ele><time>2026-04-12T07:05:07.981Z</time></trkpt><trkpt lat="37.92332" lon="16.0424"><ele>10.0</ele><time>2026-04-12T07:05:08.981Z</time></trkpt><trkpt lat="37.9234117" lon="16.0421467"><ele>11.0</ele><time>2026-04-12T07:05:09.981Z</time></trkpt><trkpt lat="37.92352" lon="16.0419133"><ele>12.0</ele><time>2026-04-12T07:05:10.981Z</time></trkpt><trkpt lat="37.9236417" lon="16.0416883"><ele>13.0</ele><time>2026-04-12T07:05:11.981Z</time></trkpt><trkpt lat="37.9237433" lon="16.0414667"><ele>13.0</ele><time>2026-04-12T07:05:12.981Z</time></trkpt><trkpt lat="37.9238433" lon="16.0412733"><ele>13.0</ele><time>2026-04-12T07:05:13.981Z</time></trkpt><trkpt lat="37.9239317" lon="16.0411083"><ele>13.0</ele><time>2026-04-12T07:05:14.982Z</time></trkpt><trkpt lat="37.9240033" lon="16.0409567"><ele>13.0</ele><time>2026-04-12T07:05:15.981Z</time></trkpt><trkpt lat="37.9240733" lon="16.04082"><ele>13.0</ele><time>2026-04-12T07:05:16.982Z</time></trkpt><trkpt lat="37.9241417" lon="16.040685"><ele>13.0</ele><time>2026-04-12T07:05:17.981Z</time></trkpt><trkpt lat="37.9242117" lon="16.040545"><ele>13.0</ele><time>2026-04-12T07:05:18.981Z</time></trkpt><trkpt lat="37.9242733" lon="16.04041"><ele>14.25</ele><time>2026-04-12T07:05:19.981Z</time></trkpt><trkpt lat="37.924335" lon="16.0402733"><ele>15.5</ele><time>2026-04-12T07:05:20.981Z</time></trkpt><trkpt lat="37.924395" lon="16.0401433"><ele>16.75</ele><time>2026-04-12T07:05:21.982Z</time></trkpt><trkpt lat="37.9244467" lon="16.040005"><ele>18.0</ele><time>2026-04-12T07:05:22.981Z</time></trkpt><trkpt lat="37.924485" lon="16.0398417"><ele>18.0</ele><time>2026-04-12T07:05:23.981Z</time></trkpt><trkpt lat="37.92452" lon="16.039655"><ele>18.0</ele><time>2026-04-12T07:05:24.981Z</time></trkpt><trkpt lat="37.924545" lon="16.039445"><ele>18.0</ele><time>2026-04-12T07:05:25.981Z</time></trkpt><trkpt lat="37.92456" lon="16.0392133"><ele>16.666666666666668</ele><time>2026-04-12T07:05:26.981Z</time></trkpt><trkpt lat="37.924585" lon="16.038955"><ele>15.333333333333334</ele><time>2026-04-12T07:05:27.981Z</time></trkpt><trkpt lat="37.9246117" lon="16.0386967"><ele>14.0</ele><time>2026-04-12T07:05:28.981Z</time></trkpt><trkpt lat="37.9246383" lon="16.03843"><ele>14.0</ele><time>2026-04-12T07:05:29.982Z</time></trkpt><trkpt lat="37.9246583" lon="16.0381533"><ele>14.0</ele><time>2026-04-12T07:05:30.981Z</time></trkpt><trkpt lat="37.92469" lon="16.0378717"><ele>14.0</ele><time>2026-04-12T07:05:31.982Z</time></trkpt><trkpt lat="37.9247217" lon="16.03758"><ele>13.5</ele><time>2026-04-12T07:05:32.982Z</time></trkpt><trkpt lat="37.9247483" lon="16.0372933"><ele>13.0</ele><time>2026-04-12T07:05:33.982Z</time></trkpt><trkpt lat="37.924775" lon="16.0370133"><ele>13.0</ele><time>2026-04-12T07:05:34.981Z</time></trkpt><trkpt lat="37.9248067" lon="16.0367183"><ele>13.0</ele><time>2026-04-12T07:05:35.981Z</time></trkpt><trkpt lat="37.9248317" lon="16.0364283"><ele>13.5</ele><time>2026-04-12T07:05:36.982Z</time></trkpt><trkpt lat="37.9248467" lon="16.036135"><ele>14.0</ele><time>2026-04-12T07:05:37.981Z</time></trkpt><trkpt lat="37.9248217" lon="16.0358333"><ele>19.0</ele><time>2026-04-12T07:05:38.981Z</time></trkpt><trkpt lat="37.9247517" lon="16.0355333"><ele>24.0</ele><time>2026-04-12T07:05:39.981Z</time></trkpt><trkpt lat="37.9246433" lon="16.0352167"><ele>28.0</ele><time>2026-04-12T07:05:40.982Z</time></trkpt><trkpt lat="37.9245383" lon="16.0348883"><ele>32.0</ele><time>2026-04-12T07:05:41.981Z</time></trkpt><trkpt lat="37.9244583" lon="16.0345483"><ele>32.0</ele><time>2026-04-12T07:05:42.982Z</time></trkpt><trkpt lat="37.9243833" lon="16.0342067"><ele>32.0</ele><time>2026-04-12T07:05:43.981Z</time></trkpt><trkpt lat="37.9243167" lon="16.0338767"><ele>30.0</ele><time>2026-04-12T07:05:44.981Z</time></trkpt><trkpt lat="37.9242683" lon="16.0335483"><ele>28.0</ele><time>2026-04-12T07:05:45.981Z</time></trkpt><trkpt lat="37.924255" lon="16.0332133"><ele>24.0</ele><time>2026-04-12T07:05:46.981Z</time></trkpt><trkpt lat="37.92426" lon="16.0328467"><ele>20.0</ele><time>2026-04-12T07:05:47.981Z</time></trkpt><trkpt lat="37.9242517" lon="16.0324967"><ele>16.0</ele><time>2026-04-12T07:05:48.981Z</time></trkpt><trkpt lat="37.9242117" lon="16.0321367"><ele>12.0</ele><time>2026-04-12T07:05:49.981Z</time></trkpt><trkpt lat="37.924155" lon="16.0317933"><ele>12.5</ele><time>2026-04-12T07:05:50.981Z</time></trkpt><trkpt lat="37.9240933" lon="16.031425"><ele>13.0</ele><time>2026-04-12T07:05:51.982Z</time></trkpt><trkpt lat="37.924065" lon="16.0310617"><ele>13.0</ele><time>2026-04-12T07:05:52.981Z</time></trkpt><trkpt lat="37.9240433" lon="16.0307017"><ele>13.0</ele><time>2026-04-12T07:05:53.981Z</time></trkpt><trkpt lat="37.9240167" lon="16.030365"><ele>13.0</ele><time>2026-04-12T07:05:54.981Z</time></trkpt><trkpt lat="37.92399" lon="16.03004"><ele>13.0</ele><time>2026-04-12T07:05:55.981Z</time></trkpt><trkpt lat="37.9239717" lon="16.0297333"><ele>13.5</ele><time>2026-04-12T07:05:56.981Z</time></trkpt><trkpt lat="37.9239617" lon="16.02943"><ele>14.0</ele><time>2026-04-12T07:05:57.981Z</time></trkpt><trkpt lat="37.9239717" lon="16.0291217"><ele>14.5</ele><time>2026-04-12T07:05:58.981Z</time></trkpt><trkpt lat="37.9240067" lon="16.0287867"><ele>15.0</ele><time>2026-04-12T07:05:59.981Z</time></trkpt><trkpt lat="37.92407" lon="16.0284417"><ele>14.5</ele><time>2026-04-12T07:06:00.981Z</time></trkpt><trkpt lat="37.9241233" lon="16.0280533"><ele>14.0</ele><time>2026-04-12T07:06:01.981Z</time></trkpt><trkpt lat="37.924155" lon="16.0276383"><ele>14.0</ele><time>2026-04-12T07:06:02.981Z</time></trkpt><trkpt lat="37.9241583" lon="16.0272083"><ele>14.0</ele><time>2026-04-12T07:06:03.981Z</time></trkpt><trkpt lat="37.924155" lon="16.02677"><ele>13.0</ele><time>2026-04-12T07:06:04.981Z</time></trkpt><trkpt lat="37.92416" lon="16.0263267"><ele>12.0</ele><time>2026-04-12T07:06:05.981Z</time></trkpt><trkpt lat="37.9241633" lon="16.0259"><ele>11.0</ele><time>2026-04-12T07:06:06.981Z</time></trkpt><trkpt lat="37.92417" lon="16.02548"><ele>10.0</ele><time>2026-04-12T07:06:07.982Z</time></trkpt><trkpt lat="37.924155" lon="16.0250667"><ele>10.5</ele><time>2026-04-12T07:06:08.982Z</time></trkpt><trkpt lat="37.9240683" lon="16.0246483"><ele>11.0</ele><time>2026-04-12T07:06:09.981Z</time></trkpt><trkpt lat="37.9239683" lon="16.024205"><ele>13.0</ele><time>2026-04-12T07:06:10.981Z</time></trkpt><trkpt lat="37.923865" lon="16.0237483"><ele>15.0</ele><time>2026-04-12T07:06:11.981Z</time></trkpt><trkpt lat="37.9237683" lon="16.0232717"><ele>15.5</ele><time>2026-04-12T07:06:12.981Z</time></trkpt><trkpt lat="37.92368" lon="16.0227783"><ele>16.0</ele><time>2026-04-12T07:06:13.981Z</time></trkpt><trkpt lat="37.9236017" lon="16.02227"><ele>16.0</ele><time>2026-04-12T07:06:14.982Z</time></trkpt><trkpt lat="37.9235183" lon="16.0217517"><ele>16.0</ele><time>2026-04-12T07:06:15.981Z</time></trkpt><trkpt lat="37.92343" lon="16.021215"><ele>13.0</ele><time>2026-04-12T07:06:16.981Z</time></trkpt><trkpt lat="37.9233367" lon="16.0206633"><ele>10.0</ele><time>2026-04-12T07:06:17.982Z</time></trkpt><trkpt lat="37.92324" lon="16.0201117"><ele>10.0</ele><time>2026-04-12T07:06:18.981Z</time></trkpt><trkpt lat="37.923145" lon="16.0195517"><ele>12.0</ele><time>2026-04-12T07:06:19.981Z</time></trkpt><trkpt lat="37.9230417" lon="16.019"><ele>14.0</ele><time>2026-04-12T07:06:20.981Z</time></trkpt><trkpt lat="37.9229483" lon="16.018435"><ele>15.0</ele><time>2026-04-12T07:06:21.981Z</time></trkpt><trkpt lat="37.9228467" lon="16.0178833"><ele>16.0</ele><time>2026-04-12T07:06:22.981Z</time></trkpt><trkpt lat="37.922745" lon="16.0173533"><ele>16.0</ele><time>2026-04-12T07:06:23.981Z</time></trkpt><trkpt lat="37.92265" lon="16.0168633"><ele>16.0</ele><time>2026-04-12T07:06:24.981Z</time></trkpt><trkpt lat="37.9225567" lon="16.0164083"><ele>13.5</ele><time>2026-04-12T07:06:25.981Z</time></trkpt><trkpt lat="37.9224683" lon="16.0159867"><ele>11.0</ele><time>2026-04-12T07:06:26.981Z</time></trkpt><trkpt lat="37.9223817" lon="16.0155933"><ele>11.0</ele><time>2026-04-12T07:06:27.981Z</time></trkpt><trkpt lat="37.922305" lon="16.0152367"><ele>11.0</ele><time>2026-04-12T07:06:28.981Z</time></trkpt><trkpt lat="37.9222317" lon="16.0149083"><ele>12.0</ele><time>2026-04-12T07:06:29.981Z</time></trkpt><trkpt lat="37.92217" lon="16.0145983"><ele>13.0</ele><time>2026-04-12T07:06:30.981Z</time></trkpt><trkpt lat="37.92212" lon="16.0143267"><ele>13.0</ele><time>2026-04-12T07:06:31.981Z</time></trkpt><trkpt lat="37.922055" lon="16.0140633"><ele>13.0</ele><time>2026-04-12T07:06:32.981Z</time></trkpt><trkpt lat="37.9220067" lon="16.0138317"><ele>13.0</ele><time>2026-04-12T07:06:33.981Z</time></trkpt><trkpt lat="37.9219733" lon="16.0136233"><ele>13.0</ele><time>2026-04-12T07:06:34.981Z</time></trkpt><trkpt lat="37.9219383" lon="16.0134417"><ele>13.0</ele><time>2026-04-12T07:06:35.981Z</time></trkpt><trkpt lat="37.9219417" lon="16.0132683"><ele>13.0</ele><time>2026-04-12T07:06:36.981Z</time></trkpt><trkpt lat="37.921955" lon="16.01311"><ele>13.0</ele><time>2026-04-12T07:06:37.981Z</time></trkpt><trkpt lat="37.92199" lon="16.0129883"><ele>13.2</ele><time>2026-04-12T07:06:38.981Z</time></trkpt><trkpt lat="37.9220083" lon="16.0128817"><ele>13.4</ele><time>2026-04-12T07:06:39.981Z</time></trkpt><trkpt lat="37.9219567" lon="16.012755"><ele>13.599999999999998</ele><time>2026-04-12T07:06:41.981Z</time></trkpt><trkpt lat="37.9218867" lon="16.0127283"><ele>13.799999999999999</ele><time>2026-04-12T07:06:42.981Z</time></trkpt><trkpt lat="37.9218067" lon="16.01269"><ele>14.0</ele><time>2026-04-12T07:06:43.981Z</time></trkpt><trkpt lat="37.9217267" lon="16.0126233"><ele>13.0</ele><time>2026-04-12T07:06:44.981Z</time></trkpt><trkpt lat="37.921635" lon="16.0125367"><ele>12.0</ele><time>2026-04-12T07:06:45.981Z</time></trkpt><trkpt lat="37.921545" lon="16.0124317"><ele>11.0</ele><time>2026-04-12T07:06:46.981Z</time></trkpt><trkpt lat="37.9214667" lon="16.0123267"><ele>10.0</ele><time>2026-04-12T07:06:47.981Z</time></trkpt><trkpt lat="37.9213867" lon="16.0122167"><ele>10.0</ele><time>2026-04-12T07:06:48.981Z</time></trkpt><trkpt lat="37.921295" lon="16.0120917"><ele>10.0</ele><time>2026-04-12T07:06:49.981Z</time></trkpt><trkpt lat="37.9211983" lon="16.0119533"><ele>10.0</ele><time>2026-04-12T07:06:50.981Z</time></trkpt><trkpt lat="37.921095" lon="16.0118083"><ele>10.0</ele><time>2026-04-12T07:06:51.982Z</time></trkpt><trkpt lat="37.9209667" lon="16.0116617"><ele>9.0</ele><time>2026-04-12T07:06:52.982Z</time></trkpt><trkpt lat="37.9208283" lon="16.0115"><ele>8.0</ele><time>2026-04-12T07:06:53.981Z</time></trkpt><trkpt lat="37.9206917" lon="16.0113167"><ele>7.0</ele><time>2026-04-12T07:06:54.982Z</time></trkpt><trkpt lat="37.9205667" lon="16.0111083"><ele>7.0</ele><time>2026-04-12T07:06:55.981Z</time></trkpt><trkpt lat="37.92046" lon="16.0108767"><ele>7.0</ele><time>2026-04-12T07:06:56.981Z</time></trkpt><trkpt lat="37.9203767" lon="16.010625"><ele>7.0</ele><time>2026-04-12T07:06:57.981Z</time></trkpt><trkpt lat="37.9203" lon="16.0103483"><ele>8.5</ele><time>2026-04-12T07:06:58.981Z</time></trkpt><trkpt lat="37.9202283" lon="16.010065"><ele>10.0</ele><time>2026-04-12T07:06:59.981Z</time></trkpt><trkpt lat="37.9201567" lon="16.0097883"><ele>9.5</ele><time>2026-04-12T07:07:00.981Z</time></trkpt><trkpt lat="37.9200817" lon="16.0094967"><ele>9.0</ele><time>2026-04-12T07:07:01.982Z</time></trkpt><trkpt lat="37.92002" lon="16.0092083"><ele>11.0</ele><time>2026-04-12T07:07:02.981Z</time></trkpt><trkpt lat="37.9199717" lon="16.0089067"><ele>13.0</ele><time>2026-04-12T07:07:03.982Z</time></trkpt><trkpt lat="37.9199283" lon="16.0086117"><ele>13.5</ele><time>2026-04-12T07:07:04.981Z</time></trkpt><trkpt lat="37.9198817" lon="16.0083217"><ele>14.0</ele><time>2026-04-12T07:07:05.982Z</time></trkpt><trkpt lat="37.9198367" lon="16.0080317"><ele>14.0</ele><time>2026-04-12T07:07:06.981Z</time></trkpt><trkpt lat="37.9197917" lon="16.00773"><ele>14.0</ele><time>2026-04-12T07:07:07.981Z</time></trkpt><trkpt lat="37.9197617" lon="16.00743"><ele>14.5</ele><time>2026-04-12T07:07:08.981Z</time></trkpt><trkpt lat="37.9197317" lon="16.0071317"><ele>15.0</ele><time>2026-04-12T07:07:09.981Z</time></trkpt><trkpt lat="37.9196867" lon="16.0068317"><ele>15.5</ele><time>2026-04-12T07:07:10.981Z</time></trkpt><trkpt lat="37.9196483" lon="16.00653"><ele>16.0</ele><time>2026-04-12T07:07:11.982Z</time></trkpt><trkpt lat="37.9196033" lon="16.0062283"><ele>16.0</ele><time>2026-04-12T07:07:12.982Z</time></trkpt><trkpt lat="37.9195583" lon="16.00592"><ele>16.0</ele><time>2026-04-12T07:07:13.981Z</time></trkpt><trkpt lat="37.91951" lon="16.005605"><ele>17.0</ele><time>2026-04-12T07:07:14.981Z</time></trkpt><trkpt lat="37.9194583" lon="16.0053033"><ele>18.0</ele><time>2026-04-12T07:07:15.981Z</time></trkpt><trkpt lat="37.9193967" lon="16.0049933"><ele>21.5</ele><time>2026-04-12T07:07:16.981Z</time></trkpt><trkpt lat="37.9193333" lon="16.0046917"><ele>25.0</ele><time>2026-04-12T07:07:17.981Z</time></trkpt><trkpt lat="37.9192617" lon="16.0043783"><ele>19.5</ele><time>2026-04-12T07:07:18.982Z</time></trkpt><trkpt lat="37.919195" lon="16.004065"><ele>14.0</ele><time>2026-04-12T07:07:19.981Z</time></trkpt><trkpt lat="37.9191267" lon="16.00375"><ele>14.0</ele><time>2026-04-12T07:07:20.981Z</time></trkpt><trkpt lat="37.9190633" lon="16.0034433"><ele>14.0</ele><time>2026-04-12T07:07:21.981Z</time></trkpt><trkpt lat="37.9190033" lon="16.0031233"><ele>19.0</ele><time>2026-04-12T07:07:22.981Z</time></trkpt><trkpt lat="37.9189267" lon="16.0028067"><ele>24.0</ele><time>2026-04-12T07:07:23.981Z</time></trkpt><trkpt lat="37.91883" lon="16.0025183"><ele>33.5</ele><time>2026-04-12T07:07:24.978Z</time></trkpt><trkpt lat="37.9187067" lon="16.0022417"><ele>43.0</ele><time>2026-04-12T07:07:25.981Z</time></trkpt><trkpt lat="37.91856" lon="16.00197"><ele>43.0</ele><time>2026-04-12T07:07:26.981Z</time></trkpt><trkpt lat="37.9184117" lon="16.0016933"><ele>43.0</ele><time>2026-04-12T07:07:27.981Z</time></trkpt><trkpt lat="37.918265" lon="16.0014133"><ele>33.5</ele><time>2026-04-12T07:07:28.982Z</time></trkpt><trkpt lat="37.9181283" lon="16.0011383"><ele>24.0</ele><time>2026-04-12T07:07:29.982Z</time></trkpt><trkpt lat="37.9179983" lon="16.0008567"><ele>30.0</ele><time>2026-04-12T07:07:30.981Z</time></trkpt><trkpt lat="37.9178733" lon="16.0005833"><ele>36.0</ele><time>2026-04-12T07:07:31.981Z</time></trkpt><trkpt lat="37.9177483" lon="16.00033"><ele>36.0</ele><time>2026-04-12T07:07:32.981Z</time></trkpt><trkpt lat="37.91762" lon="16.0000933"><ele>36.0</ele><time>2026-04-12T07:07:33.981Z</time></trkpt><trkpt lat="37.9174883" lon="15.9998833"><ele>36.0</ele><time>2026-04-12T07:07:34.981Z</time></trkpt><trkpt lat="37.917345" lon="15.999675"><ele>34.666666666666664</ele><time>2026-04-12T07:07:35.982Z</time></trkpt><trkpt lat="37.9172017" lon="15.9994933"><ele>33.33333333333333</ele><time>2026-04-12T07:07:36.981Z</time></trkpt><trkpt lat="37.9170833" lon="15.9992983"><ele>32.0</ele><time>2026-04-12T07:07:37.981Z</time></trkpt><trkpt lat="37.9169867" lon="15.9991133"><ele>32.0</ele><time>2026-04-12T07:07:38.981Z</time></trkpt><trkpt lat="37.9168833" lon="15.9989733"><ele>32.0</ele><time>2026-04-12T07:07:39.981Z</time></trkpt><trkpt lat="37.9167567" lon="15.9988733"><ele>32.0</ele><time>2026-04-12T07:07:40.981Z</time></trkpt><trkpt lat="37.91663" lon="15.9987633"><ele>27.666666666666664</ele><time>2026-04-12T07:07:41.982Z</time></trkpt><trkpt lat="37.9165133" lon="15.998605"><ele>23.333333333333332</ele><time>2026-04-12T07:07:42.981Z</time></trkpt><trkpt lat="37.9164267" lon="15.9984367"><ele>19.0</ele><time>2026-04-12T07:07:43.981Z</time></trkpt><trkpt lat="37.9163567" lon="15.998255"><ele>19.0</ele><time>2026-04-12T07:07:44.981Z</time></trkpt><trkpt lat="37.91632" lon="15.998075"><ele>19.0</ele><time>2026-04-12T07:07:45.981Z</time></trkpt><trkpt lat="37.9163317" lon="15.9978767"><ele>19.0</ele><time>2026-04-12T07:07:46.981Z</time></trkpt><trkpt lat="37.9163933" lon="15.9976867"><ele>19.0</ele><time>2026-04-12T07:07:47.982Z</time></trkpt><trkpt lat="37.9165017" lon="15.9975333"><ele>19.0</ele><time>2026-04-12T07:07:48.981Z</time></trkpt><trkpt lat="37.916635" lon="15.9974183"><ele>19.0</ele><time>2026-04-12T07:07:49.981Z</time></trkpt><trkpt lat="37.9167867" lon="15.9973683"><ele>18.666666666666664</ele><time>2026-04-12T07:07:50.981Z</time></trkpt><trkpt lat="37.9169733" lon="15.9974067"><ele>18.333333333333332</ele><time>2026-04-12T07:07:51.981Z</time></trkpt><trkpt lat="37.91716" lon="15.9974517"><ele>18.0</ele><time>2026-04-12T07:07:52.981Z</time></trkpt><trkpt lat="37.9173367" lon="15.9974417"><ele>18.0</ele><time>2026-04-12T07:07:53.981Z</time></trkpt><trkpt lat="37.917485" lon="15.9973633"><ele>18.0</ele><time>2026-04-12T07:07:54.981Z</time></trkpt><trkpt lat="37.9176083" lon="15.9972233"><ele>18.0</ele><time>2026-04-12T07:07:55.981Z</time></trkpt><trkpt lat="37.9177083" lon="15.9970383"><ele>19.0</ele><time>2026-04-12T07:07:56.981Z</time></trkpt><trkpt lat="37.9178033" lon="15.99685"><ele>20.0</ele><time>2026-04-12T07:07:57.981Z</time></trkpt><trkpt lat="37.9179033" lon="15.9966817"><ele>21.0</ele><time>2026-04-12T07:07:58.981Z</time></trkpt><trkpt lat="37.9179917" lon="15.9964967"><ele>18.333333333333332</ele><time>2026-04-12T07:07:59.981Z</time></trkpt><trkpt lat="37.9180283" lon="15.996295"><ele>15.666666666666666</ele><time>2026-04-12T07:08:00.981Z</time></trkpt><trkpt lat="37.9180283" lon="15.996065"><ele>13.0</ele><time>2026-04-12T07:08:01.981Z</time></trkpt><trkpt lat="37.9180033" lon="15.995815"><ele>12.333333333333332</ele><time>2026-04-12T07:08:02.981Z</time></trkpt><trkpt lat="37.9179833" lon="15.9955533"><ele>11.666666666666666</ele><time>2026-04-12T07:08:03.981Z</time></trkpt><trkpt lat="37.9179533" lon="15.9953"><ele>11.0</ele><time>2026-04-12T07:08:04.981Z</time></trkpt><trkpt lat="37.917925" lon="15.9950567"><ele>10.333333333333332</ele><time>2026-04-12T07:08:05.981Z</time></trkpt><trkpt lat="37.9179183" lon="15.99483"><ele>9.666666666666666</ele><time>2026-04-12T07:08:06.982Z</time></trkpt><trkpt lat="37.917935" lon="15.9946283"><ele>9.0</ele><time>2026-04-12T07:08:07.981Z</time></trkpt><trkpt lat="37.9179633" lon="15.9944417"><ele>9.0</ele><time>2026-04-12T07:08:08.982Z</time></trkpt><trkpt lat="37.9180183" lon="15.9942567"><ele>9.0</ele><time>2026-04-12T07:08:09.981Z</time></trkpt><trkpt lat="37.9180867" lon="15.994065"><ele>9.0</ele><time>2026-04-12T07:08:10.981Z</time></trkpt><trkpt lat="37.9181517" lon="15.9938567"><ele>8.333333333333334</ele><time>2026-04-12T07:08:11.981Z</time></trkpt><trkpt lat="37.91822" lon="15.9936417"><ele>7.666666666666667</ele><time>2026-04-12T07:08:12.981Z</time></trkpt><trkpt lat="37.9183033" lon="15.9934183"><ele>7.0</ele><time>2026-04-12T07:08:13.981Z</time></trkpt><trkpt lat="37.9183567" lon="15.9931967"><ele>8.666666666666668</ele><time>2026-04-12T07:08:14.981Z</time></trkpt><trkpt lat="37.9184067" lon="15.9929817"><ele>10.333333333333334</ele><time>2026-04-12T07:08:15.982Z</time></trkpt><trkpt lat="37.9184533" lon="15.99277"><ele>12.0</ele><time>2026-04-12T07:08:16.981Z</time></trkpt><trkpt lat="37.918495" lon="15.9925517"><ele>14.0</ele><time>2026-04-12T07:08:17.981Z</time></trkpt><trkpt lat="37.9185283" lon="15.9923217"><ele>16.0</ele><time>2026-04-12T07:08:18.981Z</time></trkpt><trkpt lat="37.918555" lon="15.9920867"><ele>18.0</ele><time>2026-04-12T07:08:19.981Z</time></trkpt><trkpt lat="37.9185683" lon="15.9918317"><ele>18.0</ele><time>2026-04-12T07:08:20.981Z</time></trkpt><trkpt lat="37.9185767" lon="15.99157"><ele>18.0</ele><time>2026-04-12T07:08:21.981Z</time></trkpt><trkpt lat="37.9185883" lon="15.99131"><ele>18.0</ele><time>2026-04-12T07:08:22.982Z</time></trkpt><trkpt lat="37.918605" lon="15.9910433"><ele>16.0</ele><time>2026-04-12T07:08:23.981Z</time></trkpt><trkpt lat="37.9186217" lon="15.9907783"><ele>14.0</ele><time>2026-04-12T07:08:24.981Z</time></trkpt><trkpt lat="37.9186433" lon="15.9905167"><ele>12.0</ele><time>2026-04-12T07:08:25.981Z</time></trkpt><trkpt lat="37.9186683" lon="15.9902517"><ele>11.666666666666666</ele><time>2026-04-12T07:08:26.982Z</time></trkpt><trkpt lat="37.9186983" lon="15.989985"><ele>11.333333333333332</ele><time>2026-04-12T07:08:27.981Z</time></trkpt><trkpt lat="37.9187217" lon="15.9897133"><ele>11.0</ele><time>2026-04-12T07:08:28.981Z</time></trkpt><trkpt lat="37.9187367" lon="15.9894433"><ele>11.0</ele><time>2026-04-12T07:08:29.981Z</time></trkpt><trkpt lat="37.9187667" lon="15.9891783"><ele>11.0</ele><time>2026-04-12T07:08:30.981Z</time></trkpt><trkpt lat="37.9187667" lon="15.9888983"><ele>11.0</ele><time>2026-04-12T07:08:31.982Z</time></trkpt><trkpt lat="37.9187767" lon="15.9886333"><ele>10.666666666666666</ele><time>2026-04-12T07:08:32.981Z</time></trkpt><trkpt lat="37.9187983" lon="15.9883633"><ele>10.333333333333334</ele><time>2026-04-12T07:08:33.981Z</time></trkpt><trkpt lat="37.9188317" lon="15.9881033"><ele>10.0</ele><time>2026-04-12T07:08:34.981Z</time></trkpt><trkpt lat="37.9188617" lon="15.987845"><ele>10.0</ele><time>2026-04-12T07:08:35.981Z</time></trkpt><trkpt lat="37.9189167" lon="15.9876083"><ele>10.0</ele><time>2026-04-12T07:08:36.981Z</time></trkpt><trkpt lat="37.9189767" lon="15.9873667"><ele>10.0</ele><time>2026-04-12T07:08:37.981Z</time></trkpt><trkpt lat="37.9190133" lon="15.9871417"><ele>10.333333333333334</ele><time>2026-04-12T07:08:38.981Z</time></trkpt><trkpt lat="37.9190533" lon="15.9869483"><ele>10.666666666666666</ele><time>2026-04-12T07:08:39.981Z</time></trkpt><trkpt lat="37.919065" lon="15.9867583"><ele>11.0</ele><time>2026-04-12T07:08:40.981Z</time></trkpt><trkpt lat="37.9190817" lon="15.9865517"><ele>11.0</ele><time>2026-04-12T07:08:41.981Z</time></trkpt><trkpt lat="37.9190883" lon="15.98634"><ele>11.0</ele><time>2026-04-12T07:08:42.981Z</time></trkpt><trkpt lat="37.9190867" lon="15.9861183"><ele>11.0</ele><time>2026-04-12T07:08:43.981Z</time></trkpt><trkpt lat="37.9190717" lon="15.98588"><ele>10.666666666666666</ele><time>2026-04-12T07:08:44.981Z</time></trkpt><trkpt lat="37.919055" lon="15.9856433"><ele>10.333333333333334</ele><time>2026-04-12T07:08:45.981Z</time></trkpt><trkpt lat="37.91903" lon="15.9853983"><ele>10.0</ele><time>2026-04-12T07:08:46.981Z</time></trkpt><trkpt lat="37.9190183" lon="15.9851317"><ele>10.333333333333334</ele><time>2026-04-12T07:08:47.981Z</time></trkpt><trkpt lat="37.91902" lon="15.9848583"><ele>10.666666666666666</ele><time>2026-04-12T07:08:48.982Z</time></trkpt><trkpt lat="37.9190267" lon="15.9845867"><ele>11.0</ele><time>2026-04-12T07:08:49.981Z</time></trkpt><trkpt lat="37.9190367" lon="15.98429"><ele>9.0</ele><time>2026-04-12T07:08:50.981Z</time></trkpt><trkpt lat="37.919085" lon="15.9839983"><ele>7.0</ele><time>2026-04-12T07:08:51.981Z</time></trkpt><trkpt lat="37.9191083" lon="15.9837067"><ele>7.0</ele><time>2026-04-12T07:08:52.981Z</time></trkpt><trkpt lat="37.9191317" lon="15.9834117"><ele>7.0</ele><time>2026-04-12T07:08:53.982Z</time></trkpt><trkpt lat="37.9191517" lon="15.9831117"><ele>7.0</ele><time>2026-04-12T07:08:54.982Z</time></trkpt><trkpt lat="37.919185" lon="15.9828033"><ele>7.0</ele><time>2026-04-12T07:08:55.982Z</time></trkpt><trkpt lat="37.91921" lon="15.9824817"><ele>7.0</ele><time>2026-04-12T07:08:56.982Z</time></trkpt><trkpt lat="37.9192283" lon="15.9821667"><ele>7.0</ele><time>2026-04-12T07:08:57.983Z</time></trkpt><trkpt lat="37.91924" lon="15.981855"><ele>8.0</ele><time>2026-04-12T07:08:58.982Z</time></trkpt><trkpt lat="37.9192683" lon="15.981555"><ele>9.0</ele><time>2026-04-12T07:08:59.982Z</time></trkpt><trkpt lat="37.91929" lon="15.98125"><ele>9.0</ele><time>2026-04-12T07:09:00.983Z</time></trkpt><trkpt lat="37.9193233" lon="15.98095"><ele>9.0</ele><time>2026-04-12T07:09:01.982Z</time></trkpt><trkpt lat="37.9193417" lon="15.9806433"><ele>10.0</ele><time>2026-04-12T07:09:02.983Z</time></trkpt><trkpt lat="37.91937" lon="15.98033"><ele>11.0</ele><time>2026-04-12T07:09:03.982Z</time></trkpt><trkpt lat="37.9193883" lon="15.980025"><ele>13.0</ele><time>2026-04-12T07:09:04.982Z</time></trkpt><trkpt lat="37.9194" lon="15.9797217"><ele>15.0</ele><time>2026-04-12T07:09:05.982Z</time></trkpt><trkpt lat="37.9194333" lon="15.9794167"><ele>17.0</ele><time>2026-04-12T07:09:06.982Z</time></trkpt><trkpt lat="37.919455" lon="15.9791183"><ele>19.0</ele><time>2026-04-12T07:09:07.982Z</time></trkpt><trkpt lat="37.9194783" lon="15.978825"><ele>19.0</ele><time>2026-04-12T07:09:08.982Z</time></trkpt><trkpt lat="37.9194917" lon="15.978525"><ele>19.0</ele><time>2026-04-12T07:09:09.982Z</time></trkpt><trkpt lat="37.9195183" lon="15.97824"><ele>22.0</ele><time>2026-04-12T07:09:10.982Z</time></trkpt><trkpt lat="37.9195433" lon="15.9779333"><ele>25.0</ele><time>2026-04-12T07:09:11.982Z</time></trkpt><trkpt lat="37.9195817" lon="15.9776267"><ele>26.5</ele><time>2026-04-12T07:09:12.982Z</time></trkpt><trkpt lat="37.9196333" lon="15.9773183"><ele>28.0</ele><time>2026-04-12T07:09:13.982Z</time></trkpt><trkpt lat="37.9197" lon="15.9770317"><ele>28.0</ele><time>2026-04-12T07:09:14.982Z</time></trkpt><trkpt lat="37.9197717" lon="15.9767483"><ele>28.0</ele><time>2026-04-12T07:09:15.982Z</time></trkpt><trkpt lat="37.9198583" lon="15.9764617"><ele>24.5</ele><time>2026-04-12T07:09:16.983Z</time></trkpt><trkpt lat="37.9199467" lon="15.9761667"><ele>21.0</ele><time>2026-04-12T07:09:17.982Z</time></trkpt><trkpt lat="37.9200367" lon="15.9758667"><ele>40.0</ele><time>2026-04-12T07:09:18.982Z</time></trkpt><trkpt lat="37.9201017" lon="15.97556"><ele>59.0</ele><time>2026-04-12T07:09:19.982Z</time></trkpt><trkpt lat="37.9201417" lon="15.9752483"><ele>56.0</ele><time>2026-04-12T07:09:20.982Z</time></trkpt><trkpt lat="37.9201783" lon="15.9749417"><ele>53.0</ele><time>2026-04-12T07:09:21.982Z</time></trkpt><trkpt lat="37.9202167" lon="15.97463"><ele>53.0</ele><time>2026-04-12T07:09:22.982Z</time></trkpt><trkpt lat="37.9202367" lon="15.97431"><ele>53.0</ele><time>2026-04-12T07:09:23.982Z</time></trkpt><trkpt lat="37.9202717" lon="15.9739917"><ele>49.5</ele><time>2026-04-12T07:09:24.982Z</time></trkpt><trkpt lat="37.920305" lon="15.973675"><ele>46.0</ele><time>2026-04-12T07:09:25.982Z</time></trkpt><trkpt lat="37.9203367" lon="15.97336"><ele>41.0</ele><time>2026-04-12T07:09:26.982Z</time></trkpt><trkpt lat="37.9203633" lon="15.9730267"><ele>36.0</ele><time>2026-04-12T07:09:27.982Z</time></trkpt><trkpt lat="37.9203717" lon="15.9726983"><ele>33.0</ele><time>2026-04-12T07:09:28.982Z</time></trkpt><trkpt lat="37.9203617" lon="15.9723767"><ele>30.0</ele><time>2026-04-12T07:09:29.982Z</time></trkpt><trkpt lat="37.9203467" lon="15.97206"><ele>30.0</ele><time>2026-04-12T07:09:30.982Z</time></trkpt><trkpt lat="37.920315" lon="15.97173"><ele>30.0</ele><time>2026-04-12T07:09:31.982Z</time></trkpt><trkpt lat="37.9202867" lon="15.9714067"><ele>30.0</ele><time>2026-04-12T07:09:32.982Z</time></trkpt><trkpt lat="37.9202667" lon="15.9710783"><ele>30.0</ele><time>2026-04-12T07:09:33.982Z</time></trkpt><trkpt lat="37.9202183" lon="15.9707583"><ele>35.5</ele><time>2026-04-12T07:09:34.982Z</time></trkpt><trkpt lat="37.9201683" lon="15.97044"><ele>41.0</ele><time>2026-04-12T07:09:35.982Z</time></trkpt><trkpt lat="37.9201233" lon="15.9701183"><ele>46.5</ele><time>2026-04-12T07:09:36.983Z</time></trkpt><trkpt lat="37.9200733" lon="15.9698017"><ele>52.0</ele><time>2026-04-12T07:09:37.982Z</time></trkpt><trkpt lat="37.920015" lon="15.9694833"><ele>35.0</ele><time>2026-04-12T07:09:38.982Z</time></trkpt><trkpt lat="37.919975" lon="15.9691533"><ele>18.0</ele><time>2026-04-12T07:09:39.983Z</time></trkpt><trkpt lat="37.91992" lon="15.9688267"><ele>18.0</ele><time>2026-04-12T07:09:40.982Z</time></trkpt><trkpt lat="37.9199" lon="15.9684883"><ele>18.0</ele><time>2026-04-12T07:09:41.982Z</time></trkpt><trkpt lat="37.9198633" lon="15.96816"><ele>17.0</ele><time>2026-04-12T07:09:42.982Z</time></trkpt><trkpt lat="37.9198367" lon="15.967825"><ele>16.0</ele><time>2026-04-12T07:09:43.982Z</time></trkpt><trkpt lat="37.9198217" lon="15.9675"><ele>18.0</ele><time>2026-04-12T07:09:44.982Z</time></trkpt><trkpt lat="37.9197933" lon="15.9671633"><ele>20.0</ele><time>2026-04-12T07:09:45.982Z</time></trkpt><trkpt lat="37.9197983" lon="15.96683"><ele>23.0</ele><time>2026-04-12T07:09:46.982Z</time></trkpt><trkpt lat="37.919815" lon="15.9665067"><ele>26.0</ele><time>2026-04-12T07:09:47.982Z</time></trkpt><trkpt lat="37.9198217" lon="15.9661833"><ele>29.0</ele><time>2026-04-12T07:09:48.982Z</time></trkpt><trkpt lat="37.919835" lon="15.965845"><ele>32.0</ele><time>2026-04-12T07:09:49.982Z</time></trkpt><trkpt lat="37.9198467" lon="15.9655067"><ele>32.0</ele><time>2026-04-12T07:09:50.982Z</time></trkpt><trkpt lat="37.9198617" lon="15.9651833"><ele>32.0</ele><time>2026-04-12T07:09:51.982Z</time></trkpt><trkpt lat="37.9199033" lon="15.9648717"><ele>29.5</ele><time>2026-04-12T07:09:52.982Z</time></trkpt><trkpt lat="37.9199333" lon="15.9645517"><ele>27.0</ele><time>2026-04-12T07:09:53.982Z</time></trkpt><trkpt lat="37.919965" lon="15.9642483"><ele>23.0</ele><time>2026-04-12T07:09:54.982Z</time></trkpt><trkpt lat="37.9199733" lon="15.9639383"><ele>19.0</ele><time>2026-04-12T07:09:55.983Z</time></trkpt><trkpt lat="37.9199967" lon="15.9636233"><ele>14.5</ele><time>2026-04-12T07:09:56.982Z</time></trkpt><trkpt lat="37.920035" lon="15.9633017"><ele>10.0</ele><time>2026-04-12T07:09:57.982Z</time></trkpt><trkpt lat="37.9200867" lon="15.96299"><ele>16.0</ele><time>2026-04-12T07:09:58.982Z</time></trkpt><trkpt lat="37.920145" lon="15.962685"><ele>22.0</ele><time>2026-04-12T07:09:59.982Z</time></trkpt><trkpt lat="37.9201917" lon="15.9624033"><ele>22.0</ele><time>2026-04-12T07:10:00.982Z</time></trkpt><trkpt lat="37.92024" lon="15.96216"><ele>22.0</ele><time>2026-04-12T07:10:01.982Z</time></trkpt><trkpt lat="37.9203033" lon="15.9619583"><ele>22.0</ele><time>2026-04-12T07:10:02.982Z</time></trkpt><trkpt lat="37.9203617" lon="15.9617483"><ele>17.5</ele><time>2026-04-12T07:10:03.983Z</time></trkpt><trkpt lat="37.9205033" lon="15.9613283"><ele>13.0</ele><time>2026-04-12T07:10:05.982Z</time></trkpt><trkpt lat="37.9206783" lon="15.9610417"><ele>15.0</ele><time>2026-04-12T07:10:06.982Z</time></trkpt><trkpt lat="37.9209867" lon="15.9609317"><ele>17.0</ele><time>2026-04-12T07:10:07.982Z</time></trkpt><trkpt lat="37.9212217" lon="15.960805"><ele>17.0</ele><time>2026-04-12T07:10:08.983Z</time></trkpt><trkpt lat="37.9213617" lon="15.9606217"><ele>17.0</ele><time>2026-04-12T07:10:09.982Z</time></trkpt><trkpt lat="37.9214517" lon="15.9604433"><ele>17.0</ele><time>2026-04-12T07:10:10.982Z</time></trkpt><trkpt lat="37.9215217" lon="15.9602583"><ele>17.0</ele><time>2026-04-12T07:10:11.982Z</time></trkpt><trkpt lat="37.9215983" lon="15.96008"><ele>17.0</ele><time>2026-04-12T07:10:12.983Z</time></trkpt><trkpt lat="37.9216733" lon="15.959905"><ele>17.0</ele><time>2026-04-12T07:10:13.982Z</time></trkpt><trkpt lat="37.92173" lon="15.9597383"><ele>17.5</ele><time>2026-04-12T07:10:14.982Z</time></trkpt><trkpt lat="37.9217833" lon="15.9595817"><ele>18.0</ele><time>2026-04-12T07:10:15.982Z</time></trkpt><trkpt lat="37.9218217" lon="15.9594383"><ele>18.5</ele><time>2026-04-12T07:10:16.982Z</time></trkpt><trkpt lat="37.9218083" lon="15.9592967"><ele>19.0</ele><time>2026-04-12T07:10:17.982Z</time></trkpt><trkpt lat="37.9217767" lon="15.9591433"><ele>19.0</ele><time>2026-04-12T07:10:18.982Z</time></trkpt><trkpt lat="37.9217367" lon="15.9589867"><ele>19.0</ele><time>2026-04-12T07:10:19.982Z</time></trkpt><trkpt lat="37.9217167" lon="15.95882"><ele>19.0</ele><time>2026-04-12T07:10:20.982Z</time></trkpt><trkpt lat="37.9217417" lon="15.9586433"><ele>19.0</ele><time>2026-04-12T07:10:21.982Z</time></trkpt><trkpt lat="37.9217883" lon="15.9584683"><ele>17.0</ele><time>2026-04-12T07:10:22.982Z</time></trkpt><trkpt lat="37.9218633" lon="15.95828"><ele>15.0</ele><time>2026-04-12T07:10:23.983Z</time></trkpt><trkpt lat="37.9219467" lon="15.9580867"><ele>13.0</ele><time>2026-04-12T07:10:24.982Z</time></trkpt><trkpt lat="37.9220433" lon="15.95789"><ele>13.0</ele><time>2026-04-12T07:10:25.982Z</time></trkpt><trkpt lat="37.9221367" lon="15.9576867"><ele>13.0</ele><time>2026-04-12T07:10:26.982Z</time></trkpt><trkpt lat="37.9222267" lon="15.9574833"><ele>13.0</ele><time>2026-04-12T07:10:27.983Z</time></trkpt><trkpt lat="37.9223167" lon="15.9572683"><ele>12.333333333333332</ele><time>2026-04-12T07:10:28.982Z</time></trkpt><trkpt lat="37.9224017" lon="15.9570367"><ele>11.666666666666666</ele><time>2026-04-12T07:10:29.982Z</time></trkpt><trkpt lat="37.9224617" lon="15.95679"><ele>11.0</ele><time>2026-04-12T07:10:30.983Z</time></trkpt><trkpt lat="37.9224933" lon="15.9565333"><ele>11.666666666666666</ele><time>2026-04-12T07:10:31.982Z</time></trkpt><trkpt lat="37.9225083" lon="15.956275"><ele>12.333333333333332</ele><time>2026-04-12T07:10:32.982Z</time></trkpt><trkpt lat="37.9225283" lon="15.956005"><ele>13.0</ele><time>2026-04-12T07:10:33.982Z</time></trkpt><trkpt lat="37.9225817" lon="15.955745"><ele>13.0</ele><time>2026-04-12T07:10:34.982Z</time></trkpt><trkpt lat="37.9226683" lon="15.9554817"><ele>13.0</ele><time>2026-04-12T07:10:35.982Z</time></trkpt><trkpt lat="37.9227683" lon="15.9552217"><ele>12.0</ele><time>2026-04-12T07:10:36.983Z</time></trkpt><trkpt lat="37.9228817" lon="15.9549683"><ele>11.0</ele><time>2026-04-12T07:10:37.982Z</time></trkpt><trkpt lat="37.9230067" lon="15.9547167"><ele>11.0</ele><time>2026-04-12T07:10:38.983Z</time></trkpt><trkpt lat="37.9231417" lon="15.9544617"><ele>11.0</ele><time>2026-04-12T07:10:39.982Z</time></trkpt><trkpt lat="37.9232867" lon="15.9542167"><ele>11.5</ele><time>2026-04-12T07:10:40.982Z</time></trkpt><trkpt lat="37.9234367" lon="15.9539683"><ele>12.0</ele><time>2026-04-12T07:10:41.982Z</time></trkpt><trkpt lat="37.9235817" lon="15.953715"><ele>12.0</ele><time>2026-04-12T07:10:42.983Z</time></trkpt><trkpt lat="37.92372" lon="15.9534467"><ele>12.0</ele><time>2026-04-12T07:10:43.982Z</time></trkpt><trkpt lat="37.9238467" lon="15.9531667"><ele>11.5</ele><time>2026-04-12T07:10:44.982Z</time></trkpt><trkpt lat="37.9239633" lon="15.9528717"><ele>11.0</ele><time>2026-04-12T07:10:45.982Z</time></trkpt><trkpt lat="37.924065" lon="15.9525767"><ele>10.0</ele><time>2026-04-12T07:10:46.982Z</time></trkpt><trkpt lat="37.9241483" lon="15.952265"><ele>9.0</ele><time>2026-04-12T07:10:47.982Z</time></trkpt><trkpt lat="37.9242233" lon="15.9519367"><ele>7.5</ele><time>2026-04-12T07:10:48.983Z</time></trkpt><trkpt lat="37.9242833" lon="15.951615"><ele>6.0</ele><time>2026-04-12T07:10:49.982Z</time></trkpt><trkpt lat="37.9243383" lon="15.9513"><ele>6.0</ele><time>2026-04-12T07:10:50.982Z</time></trkpt><trkpt lat="37.9244" lon="15.95097"><ele>6.0</ele><time>2026-04-12T07:10:51.982Z</time></trkpt><trkpt lat="37.9244633" lon="15.95064"><ele>6.5</ele><time>2026-04-12T07:10:52.982Z</time></trkpt><trkpt lat="37.9245283" lon="15.9503083"><ele>7.0</ele><time>2026-04-12T07:10:53.982Z</time></trkpt><trkpt lat="37.9245867" lon="15.9499967"><ele>7.5</ele><time>2026-04-12T07:10:54.982Z</time></trkpt><trkpt lat="37.9246367" lon="15.9496983"><ele>8.0</ele><time>2026-04-12T07:10:55.982Z</time></trkpt><trkpt lat="37.924695" lon="15.9493983"><ele>8.5</ele><time>2026-04-12T07:10:56.982Z</time></trkpt><trkpt lat="37.9247517" lon="15.9491067"><ele>9.0</ele><time>2026-04-12T07:10:57.982Z</time></trkpt><trkpt lat="37.9248117" lon="15.94881"><ele>9.0</ele><time>2026-04-12T07:10:58.982Z</time></trkpt><trkpt lat="37.9248733" lon="15.9485133"><ele>9.0</ele><time>2026-04-12T07:10:59.982Z</time></trkpt><trkpt lat="37.9249517" lon="15.94823"><ele>11.0</ele><time>2026-04-12T07:11:00.982Z</time></trkpt><trkpt lat="37.9250417" lon="15.9479467"><ele>13.0</ele><time>2026-04-12T07:11:01.983Z</time></trkpt><trkpt lat="37.9251383" lon="15.94766"><ele>23.5</ele><time>2026-04-12T07:11:02.982Z</time></trkpt><trkpt lat="37.9252417" lon="15.947385"><ele>34.0</ele><time>2026-04-12T07:11:03.982Z</time></trkpt><trkpt lat="37.925335" lon="15.947105"><ele>34.0</ele><time>2026-04-12T07:11:04.982Z</time></trkpt><trkpt lat="37.9254267" lon="15.9468167"><ele>34.0</ele><time>2026-04-12T07:11:05.982Z</time></trkpt><trkpt lat="37.92553" lon="15.946555"><ele>36.5</ele><time>2026-04-12T07:11:06.982Z</time></trkpt><trkpt lat="37.9256267" lon="15.9462667"><ele>39.0</ele><time>2026-04-12T07:11:07.982Z</time></trkpt><trkpt lat="37.9257267" lon="15.945995"><ele>39.666666666666664</ele><time>2026-04-12T07:11:08.982Z</time></trkpt><trkpt lat="37.9258117" lon="15.9457367"><ele>40.33333333333333</ele><time>2026-04-12T07:11:09.983Z</time></trkpt><trkpt lat="37.9258933" lon="15.9454667"><ele>41.0</ele><time>2026-04-12T07:11:10.982Z</time></trkpt><trkpt lat="37.9259717" lon="15.9451967"><ele>39.5</ele><time>2026-04-12T07:11:11.982Z</time></trkpt><trkpt lat="37.9260483" lon="15.94493"><ele>38.0</ele><time>2026-04-12T07:11:12.982Z</time></trkpt><trkpt lat="37.9265933" lon="15.9426567"><ele>33.5</ele><time>2026-04-12T07:11:20.983Z</time></trkpt><trkpt lat="37.9266717" lon="15.942385"><ele>29.0</ele><time>2026-04-12T07:11:21.982Z</time></trkpt><trkpt lat="37.9267567" lon="15.9420467"><ele>38.0</ele><time>2026-04-12T07:11:22.982Z</time></trkpt><trkpt lat="37.9268567" lon="15.94167"><ele>47.0</ele><time>2026-04-12T07:11:23.982Z</time></trkpt><trkpt lat="37.9269483" lon="15.9413033"><ele>47.0</ele><time>2026-04-12T07:11:24.983Z</time></trkpt><trkpt lat="37.9270367" lon="15.940955"><ele>47.0</ele><time>2026-04-12T07:11:25.982Z</time></trkpt><trkpt lat="37.927125" lon="15.9405883"><ele>59.5</ele><time>2026-04-12T07:11:26.982Z</time></trkpt><trkpt lat="37.927215" lon="15.9402033"><ele>72.0</ele><time>2026-04-12T07:11:27.982Z</time></trkpt><trkpt lat="37.9273033" lon="15.9398"><ele>22.0</ele><time>2026-04-12T07:11:28.982Z</time></trkpt><trkpt lat="37.929795" lon="15.9309067"><ele>22.5</ele><time>2026-04-12T07:11:55.982Z</time></trkpt><trkpt lat="37.929945" lon="15.9305867"><ele>23.0</ele><time>2026-04-12T07:11:56.983Z</time></trkpt><trkpt lat="37.9300867" lon="15.9302933"><ele>21.0</ele><time>2026-04-12T07:11:57.982Z</time></trkpt><trkpt lat="37.9302383" lon="15.9300117"><ele>19.0</ele><time>2026-04-12T07:11:58.982Z</time></trkpt><trkpt lat="37.9303817" lon="15.929725"><ele>19.0</ele><time>2026-04-12T07:11:59.982Z</time></trkpt><trkpt lat="37.9305317" lon="15.92943"><ele>19.0</ele><time>2026-04-12T07:12:00.982Z</time></trkpt><trkpt lat="37.9306783" lon="15.92913"><ele>17.0</ele><time>2026-04-12T07:12:01.982Z</time></trkpt><trkpt lat="37.9308167" lon="15.9288283"><ele>15.0</ele><time>2026-04-12T07:12:02.983Z</time></trkpt><trkpt lat="37.93096" lon="15.9285333"><ele>14.0</ele><time>2026-04-12T07:12:03.982Z</time></trkpt><trkpt lat="37.9311083" lon="15.9282383"><ele>13.0</ele><time>2026-04-12T07:12:04.982Z</time></trkpt><trkpt lat="37.931255" lon="15.927935"><ele>13.0</ele><time>2026-04-12T07:12:05.982Z</time></trkpt><trkpt lat="37.931405" lon="15.9276367"><ele>13.0</ele><time>2026-04-12T07:12:06.982Z</time></trkpt><trkpt lat="37.93155" lon="15.9273417"><ele>12.0</ele><time>2026-04-12T07:12:07.983Z</time></trkpt><trkpt lat="37.9317017" lon="15.9270517"><ele>11.0</ele><time>2026-04-12T07:12:08.982Z</time></trkpt><trkpt lat="37.93185" lon="15.9267617"><ele>11.5</ele><time>2026-04-12T07:12:09.982Z</time></trkpt><trkpt lat="37.932005" lon="15.9264667"><ele>12.0</ele><time>2026-04-12T07:12:10.982Z</time></trkpt><trkpt lat="37.9321517" lon="15.9261717"><ele>18.5</ele><time>2026-04-12T07:12:11.982Z</time></trkpt><trkpt lat="37.9323" lon="15.9258783"><ele>25.0</ele><time>2026-04-12T07:12:12.982Z</time></trkpt><trkpt lat="37.93245" lon="15.925585"><ele>27.0</ele><time>2026-04-12T07:12:13.983Z</time></trkpt><trkpt lat="37.932605" lon="15.92529"><ele>29.0</ele><time>2026-04-12T07:12:14.983Z</time></trkpt><trkpt lat="37.9327533" lon="15.925"><ele>36.0</ele><time>2026-04-12T07:12:15.983Z</time></trkpt><trkpt lat="37.9329067" lon="15.9247233"><ele>43.0</ele><time>2026-04-12T07:12:16.982Z</time></trkpt><trkpt lat="37.9330517" lon="15.924425"><ele>43.0</ele><time>2026-04-12T07:12:17.982Z</time></trkpt><trkpt lat="37.9332017" lon="15.9241367"><ele>43.0</ele><time>2026-04-12T07:12:18.982Z</time></trkpt><trkpt lat="37.9333517" lon="15.9238483"><ele>47.0</ele><time>2026-04-12T07:12:19.982Z</time></trkpt><trkpt lat="37.933495" lon="15.92356"><ele>51.0</ele><time>2026-04-12T07:12:20.982Z</time></trkpt><trkpt lat="37.9336367" lon="15.9232683"><ele>55.0</ele><time>2026-04-12T07:12:21.983Z</time></trkpt><trkpt lat="37.93377" lon="15.9229733"><ele>59.0</ele><time>2026-04-12T07:12:22.982Z</time></trkpt><trkpt lat="37.9338933" lon="15.922665"><ele>58.5</ele><time>2026-04-12T07:12:23.982Z</time></trkpt><trkpt lat="37.9340067" lon="15.92236"><ele>58.0</ele><time>2026-04-12T07:12:24.982Z</time></trkpt><trkpt lat="37.934105" lon="15.9220433"><ele>58.0</ele><time>2026-04-12T07:12:25.982Z</time></trkpt><trkpt lat="37.934175" lon="15.9217117"><ele>58.0</ele><time>2026-04-12T07:12:26.982Z</time></trkpt><trkpt lat="37.934245" lon="15.9213933"><ele>67.0</ele><time>2026-04-12T07:12:27.982Z</time></trkpt><trkpt lat="37.9343317" lon="15.9210633"><ele>76.0</ele><time>2026-04-12T07:12:28.982Z</time></trkpt><trkpt lat="37.9344083" lon="15.9207383"><ele>76.0</ele><time>2026-04-12T07:12:29.982Z</time></trkpt><trkpt lat="37.9344833" lon="15.9204183"><ele>76.0</ele><time>2026-04-12T07:12:30.982Z</time></trkpt><trkpt lat="37.9345433" lon="15.9200883"><ele>69.5</ele><time>2026-04-12T07:12:31.982Z</time></trkpt><trkpt lat="37.93461" lon="15.919745"><ele>63.0</ele><time>2026-04-12T07:12:32.982Z</time></trkpt><trkpt lat="37.9346767" lon="15.9193783"><ele>56.5</ele><time>2026-04-12T07:12:33.982Z</time></trkpt><trkpt lat="37.9347367" lon="15.9190217"><ele>50.0</ele><time>2026-04-12T07:12:34.982Z</time></trkpt><trkpt lat="37.934795" lon="15.91867"><ele>43.0</ele><time>2026-04-12T07:12:35.982Z</time></trkpt><trkpt lat="37.9348367" lon="15.9183017"><ele>36.0</ele><time>2026-04-12T07:12:36.982Z</time></trkpt><trkpt lat="37.9348683" lon="15.9179517"><ele>36.0</ele><time>2026-04-12T07:12:37.983Z</time></trkpt><trkpt lat="37.9348933" lon="15.917595"><ele>36.0</ele><time>2026-04-12T07:12:38.982Z</time></trkpt><trkpt lat="37.934905" lon="15.91724"><ele>32.5</ele><time>2026-04-12T07:12:39.982Z</time></trkpt><trkpt lat="37.9349017" lon="15.91688"><ele>29.0</ele><time>2026-04-12T07:12:40.982Z</time></trkpt><trkpt lat="37.9348867" lon="15.9165267"><ele>28.5</ele><time>2026-04-12T07:12:41.983Z</time></trkpt><trkpt lat="37.9348533" lon="15.91617"><ele>28.0</ele><time>2026-04-12T07:12:42.982Z</time></trkpt><trkpt lat="37.9348133" lon="15.9158117"><ele>30.0</ele><time>2026-04-12T07:12:43.982Z</time></trkpt><trkpt lat="37.9347583" lon="15.9154633"><ele>32.0</ele><time>2026-04-12T07:12:44.982Z</time></trkpt><trkpt lat="37.9347" lon="15.91511"><ele>39.0</ele><time>2026-04-12T07:12:45.983Z</time></trkpt><trkpt lat="37.93462" lon="15.9147767"><ele>46.0</ele><time>2026-04-12T07:12:46.982Z</time></trkpt><trkpt lat="37.9345317" lon="15.9144417"><ele>57.0</ele><time>2026-04-12T07:12:47.982Z</time></trkpt><trkpt lat="37.9344483" lon="15.9141183"><ele>68.0</ele><time>2026-04-12T07:12:48.982Z</time></trkpt><trkpt lat="37.9343617" lon="15.9137883"><ele>68.0</ele><time>2026-04-12T07:12:49.982Z</time></trkpt><trkpt lat="37.9342683" lon="15.91345"><ele>68.0</ele><time>2026-04-12T07:12:50.982Z</time></trkpt><trkpt lat="37.9341783" lon="15.9131183"><ele>61.5</ele><time>2026-04-12T07:12:51.982Z</time></trkpt><trkpt lat="37.934095" lon="15.9127983"><ele>55.0</ele><time>2026-04-12T07:12:52.982Z</time></trkpt><trkpt lat="37.9338333" lon="15.91221"><ele>50.5</ele><time>2026-04-12T07:12:54.983Z</time></trkpt><trkpt lat="37.93359" lon="15.9119817"><ele>46.0</ele><time>2026-04-12T07:12:55.982Z</time></trkpt><trkpt lat="37.9333267" lon="15.9117517"><ele>39.0</ele><time>2026-04-12T07:12:56.982Z</time></trkpt><trkpt lat="37.9331367" lon="15.9115067"><ele>32.0</ele><time>2026-04-12T07:12:57.982Z</time></trkpt><trkpt lat="37.9329533" lon="15.9112317"><ele>32.0</ele><time>2026-04-12T07:12:58.983Z</time></trkpt><trkpt lat="37.9327833" lon="15.91096"><ele>32.0</ele><time>2026-04-12T07:12:59.982Z</time></trkpt><trkpt lat="37.9326" lon="15.910695"><ele>26.5</ele><time>2026-04-12T07:13:00.983Z</time></trkpt><trkpt lat="37.9324117" lon="15.9104317"><ele>21.0</ele><time>2026-04-12T07:13:01.982Z</time></trkpt><trkpt lat="37.9322383" lon="15.9101533"><ele>19.5</ele><time>2026-04-12T07:13:02.983Z</time></trkpt><trkpt lat="37.932065" lon="15.909885"><ele>18.0</ele><time>2026-04-12T07:13:03.983Z</time></trkpt><trkpt lat="37.9318767" lon="15.90962"><ele>18.5</ele><time>2026-04-12T07:13:04.982Z</time></trkpt><trkpt lat="37.9316983" lon="15.9093483"><ele>19.0</ele><time>2026-04-12T07:13:05.982Z</time></trkpt><trkpt lat="37.9315183" lon="15.90908"><ele>19.0</ele><time>2026-04-12T07:13:06.982Z</time></trkpt><trkpt lat="37.9313367" lon="15.908815"><ele>19.0</ele><time>2026-04-12T07:13:07.982Z</time></trkpt><trkpt lat="37.9311517" lon="15.9085467"><ele>21.0</ele><time>2026-04-12T07:13:08.982Z</time></trkpt><trkpt lat="37.9309717" lon="15.9082767"><ele>23.0</ele><time>2026-04-12T07:13:09.982Z</time></trkpt><trkpt lat="37.93079" lon="15.908"><ele>23.0</ele><time>2026-04-12T07:13:10.982Z</time></trkpt><trkpt lat="37.930615" lon="15.9077333"><ele>23.0</ele><time>2026-04-12T07:13:11.983Z</time></trkpt><trkpt lat="37.9304383" lon="15.9074717"><ele>32.0</ele><time>2026-04-12T07:13:12.982Z</time></trkpt><trkpt lat="37.9302667" lon="15.9072033"><ele>41.0</ele><time>2026-04-12T07:13:13.983Z</time></trkpt><trkpt lat="37.930065" lon="15.90689"><ele>31.5</ele><time>2026-04-12T07:13:14.982Z</time></trkpt><trkpt lat="37.9299067" lon="15.906645"><ele>22.0</ele><time>2026-04-12T07:13:15.982Z</time></trkpt><trkpt lat="37.9297367" lon="15.9064133"><ele>22.0</ele><time>2026-04-12T07:13:16.982Z</time></trkpt><trkpt lat="37.9295633" lon="15.9061717"><ele>22.0</ele><time>2026-04-12T07:13:17.982Z</time></trkpt><trkpt lat="37.929395" lon="15.9059317"><ele>16.5</ele><time>2026-04-12T07:13:18.983Z</time></trkpt><trkpt lat="37.9292467" lon="15.9057017"><ele>11.0</ele><time>2026-04-12T07:13:19.982Z</time></trkpt><trkpt lat="37.92911" lon="15.9054667"><ele>11.0</ele><time>2026-04-12T07:13:20.982Z</time></trkpt><trkpt lat="37.928995" lon="15.9052067"><ele>11.0</ele><time>2026-04-12T07:13:21.982Z</time></trkpt><trkpt lat="37.92887" lon="15.904955"><ele>11.666666666666666</ele><time>2026-04-12T07:13:22.982Z</time></trkpt><trkpt lat="37.92878" lon="15.9047067"><ele>12.333333333333332</ele><time>2026-04-12T07:13:23.983Z</time></trkpt><trkpt lat="37.9286917" lon="15.9044683"><ele>13.0</ele><time>2026-04-12T07:13:24.982Z</time></trkpt><trkpt lat="37.9286367" lon="15.9042467"><ele>14.0</ele><time>2026-04-12T07:13:25.982Z</time></trkpt><trkpt lat="37.9285683" lon="15.90406"><ele>15.0</ele><time>2026-04-12T07:13:26.982Z</time></trkpt><trkpt lat="37.9285233" lon="15.9038767"><ele>16.0</ele><time>2026-04-12T07:13:27.982Z</time></trkpt><trkpt lat="37.9285017" lon="15.9036817"><ele>16.0</ele><time>2026-04-12T07:13:28.982Z</time></trkpt><trkpt lat="37.9284867" lon="15.903515"><ele>16.0</ele><time>2026-04-12T07:13:29.982Z</time></trkpt><trkpt lat="37.9284817" lon="15.9033383"><ele>16.0</ele><time>2026-04-12T07:13:30.982Z</time></trkpt><trkpt lat="37.9284683" lon="15.9031683"><ele>16.0</ele><time>2026-04-12T07:13:31.982Z</time></trkpt><trkpt lat="37.9284433" lon="15.9029967"><ele>15.666666666666666</ele><time>2026-04-12T07:13:32.982Z</time></trkpt><trkpt lat="37.928415" lon="15.9027983"><ele>15.333333333333332</ele><time>2026-04-12T07:13:33.982Z</time></trkpt><trkpt lat="37.9283767" lon="15.90258"><ele>15.0</ele><time>2026-04-12T07:13:34.982Z</time></trkpt><trkpt lat="37.9283433" lon="15.9023533"><ele>13.333333333333334</ele><time>2026-04-12T07:13:35.982Z</time></trkpt><trkpt lat="37.928325" lon="15.9021217"><ele>11.666666666666668</ele><time>2026-04-12T07:13:36.983Z</time></trkpt><trkpt lat="37.9283067" lon="15.9018867"><ele>10.0</ele><time>2026-04-12T07:13:37.982Z</time></trkpt><trkpt lat="37.9282883" lon="15.90165"><ele>10.0</ele><time>2026-04-12T07:13:38.982Z</time></trkpt><trkpt lat="37.9282783" lon="15.90141"><ele>10.0</ele><time>2026-04-12T07:13:39.983Z</time></trkpt><trkpt lat="37.9282733" lon="15.90117"><ele>10.0</ele><time>2026-04-12T07:13:40.983Z</time></trkpt><trkpt lat="37.9282717" lon="15.9009133"><ele>10.0</ele><time>2026-04-12T07:13:41.982Z</time></trkpt><trkpt lat="37.928265" lon="15.9006683"><ele>10.0</ele><time>2026-04-12T07:13:42.982Z</time></trkpt><trkpt lat="37.9282483" lon="15.9004367"><ele>10.0</ele><time>2026-04-12T07:13:43.983Z</time></trkpt><trkpt lat="37.9282417" lon="15.9002"><ele>10.0</ele><time>2026-04-12T07:13:44.982Z</time></trkpt><trkpt lat="37.928245" lon="15.899965"><ele>10.0</ele><time>2026-04-12T07:13:45.982Z</time></trkpt><trkpt lat="37.9282433" lon="15.899735"><ele>10.0</ele><time>2026-04-12T07:13:46.982Z</time></trkpt><trkpt lat="37.92824" lon="15.899515"><ele>10.0</ele><time>2026-04-12T07:13:47.982Z</time></trkpt><trkpt lat="37.9282383" lon="15.8992967"><ele>10.0</ele><time>2026-04-12T07:13:48.982Z</time></trkpt><trkpt lat="37.9282333" lon="15.899055"><ele>10.0</ele><time>2026-04-12T07:13:49.982Z</time></trkpt><trkpt lat="37.9282367" lon="15.8988017"><ele>10.0</ele><time>2026-04-12T07:13:50.983Z</time></trkpt><trkpt lat="37.9282433" lon="15.89855"><ele>10.0</ele><time>2026-04-12T07:13:51.982Z</time></trkpt><trkpt lat="37.9282483" lon="15.8983083"><ele>10.0</ele><time>2026-04-12T07:13:52.983Z</time></trkpt><trkpt lat="37.92825" lon="15.89805"><ele>9.666666666666668</ele><time>2026-04-12T07:13:53.982Z</time></trkpt><trkpt lat="37.9282367" lon="15.89782"><ele>9.333333333333334</ele><time>2026-04-12T07:13:54.983Z</time></trkpt><trkpt lat="37.9282383" lon="15.8975433"><ele>9.0</ele><time>2026-04-12T07:13:55.982Z</time></trkpt><trkpt lat="37.9282383" lon="15.89727"><ele>8.666666666666666</ele><time>2026-04-12T07:13:56.983Z</time></trkpt><trkpt lat="37.92824" lon="15.8969933"><ele>8.333333333333332</ele><time>2026-04-12T07:13:57.982Z</time></trkpt><trkpt lat="37.9282417" lon="15.8967133"><ele>8.0</ele><time>2026-04-12T07:13:58.983Z</time></trkpt><trkpt lat="37.9282383" lon="15.896435"><ele>8.0</ele><time>2026-04-12T07:13:59.982Z</time></trkpt><trkpt lat="37.9282417" lon="15.8961567"><ele>8.0</ele><time>2026-04-12T07:14:00.982Z</time></trkpt><trkpt lat="37.9282533" lon="15.8958617"><ele>8.0</ele><time>2026-04-12T07:14:01.983Z</time></trkpt><trkpt lat="37.9282717" lon="15.8955667"><ele>8.0</ele><time>2026-04-12T07:14:02.983Z</time></trkpt><trkpt lat="37.9282867" lon="15.8953"><ele>8.0</ele><time>2026-04-12T07:14:03.982Z</time></trkpt><trkpt lat="37.9282967" lon="15.8950083"><ele>7.0</ele><time>2026-04-12T07:14:04.982Z</time></trkpt><trkpt lat="37.928305" lon="15.894715"><ele>6.0</ele><time>2026-04-12T07:14:05.982Z</time></trkpt><trkpt lat="37.92831" lon="15.8944217"><ele>6.5</ele><time>2026-04-12T07:14:06.982Z</time></trkpt><trkpt lat="37.92832" lon="15.894135"><ele>7.0</ele><time>2026-04-12T07:14:07.982Z</time></trkpt><trkpt lat="37.92833" lon="15.8938367"><ele>7.0</ele><time>2026-04-12T07:14:08.982Z</time></trkpt><trkpt lat="37.92834" lon="15.8935417"><ele>7.0</ele><time>2026-04-12T07:14:09.982Z</time></trkpt><trkpt lat="37.928355" lon="15.8932483"><ele>7.5</ele><time>2026-04-12T07:14:10.982Z</time></trkpt><trkpt lat="37.928385" lon="15.8929517"><ele>8.0</ele><time>2026-04-12T07:14:11.983Z</time></trkpt><trkpt lat="37.9284233" lon="15.8926517"><ele>8.0</ele><time>2026-04-12T07:14:12.982Z</time></trkpt><trkpt lat="37.9284667" lon="15.8923633"><ele>8.0</ele><time>2026-04-12T07:14:13.982Z</time></trkpt><trkpt lat="37.9285083" lon="15.892075"><ele>8.0</ele><time>2026-04-12T07:14:14.982Z</time></trkpt><trkpt lat="37.9285517" lon="15.8917767"><ele>8.0</ele><time>2026-04-12T07:14:15.983Z</time></trkpt><trkpt lat="37.9285933" lon="15.891485"><ele>8.5</ele><time>2026-04-12T07:14:16.983Z</time></trkpt><trkpt lat="37.9286283" lon="15.8912"><ele>9.0</ele><time>2026-04-12T07:14:17.982Z</time></trkpt><trkpt lat="37.9286633" lon="15.890915"><ele>9.0</ele><time>2026-04-12T07:14:18.982Z</time></trkpt><trkpt lat="37.9286783" lon="15.8906333"><ele>9.0</ele><time>2026-04-12T07:14:19.982Z</time></trkpt><trkpt lat="37.9287033" lon="15.8903433"><ele>8.666666666666666</ele><time>2026-04-12T07:14:20.983Z</time></trkpt><trkpt lat="37.9287267" lon="15.890065"><ele>8.333333333333332</ele><time>2026-04-12T07:14:21.982Z</time></trkpt><trkpt lat="37.9287383" lon="15.8897783"><ele>8.0</ele><time>2026-04-12T07:14:22.982Z</time></trkpt><trkpt lat="37.928755" lon="15.88948"><ele>6.5</ele><time>2026-04-12T07:14:23.982Z</time></trkpt><trkpt lat="37.9287733" lon="15.8891817"><ele>5.0</ele><time>2026-04-12T07:14:24.982Z</time></trkpt><trkpt lat="37.9288" lon="15.8889033"><ele>5.0</ele><time>2026-04-12T07:14:25.982Z</time></trkpt><trkpt lat="37.928815" lon="15.8886183"><ele>5.0</ele><time>2026-04-12T07:14:26.982Z</time></trkpt><trkpt lat="37.9288417" lon="15.888335"><ele>5.333333333333334</ele><time>2026-04-12T07:14:27.983Z</time></trkpt><trkpt lat="37.9288633" lon="15.8880567"><ele>5.666666666666667</ele><time>2026-04-12T07:14:28.983Z</time></trkpt><trkpt lat="37.92888" lon="15.8877833"><ele>6.0</ele><time>2026-04-12T07:14:29.982Z</time></trkpt><trkpt lat="37.9288983" lon="15.8874967"><ele>7.0</ele><time>2026-04-12T07:14:30.983Z</time></trkpt><trkpt lat="37.9289183" lon="15.8872117"><ele>8.0</ele><time>2026-04-12T07:14:31.982Z</time></trkpt><trkpt lat="37.9289367" lon="15.88692"><ele>8.5</ele><time>2026-04-12T07:14:32.982Z</time></trkpt><trkpt lat="37.9289517" lon="15.8866267"><ele>9.0</ele><time>2026-04-12T07:14:33.982Z</time></trkpt><trkpt lat="37.9289633" lon="15.8863317"><ele>9.0</ele><time>2026-04-12T07:14:34.982Z</time></trkpt><trkpt lat="37.9289833" lon="15.8860333"><ele>9.0</ele><time>2026-04-12T07:14:35.982Z</time></trkpt><trkpt lat="37.9290017" lon="15.8857283"><ele>9.5</ele><time>2026-04-12T07:14:36.982Z</time></trkpt><trkpt lat="37.929015" lon="15.88543"><ele>10.0</ele><time>2026-04-12T07:14:37.982Z</time></trkpt><trkpt lat="37.9290233" lon="15.8851267"><ele>10.0</ele><time>2026-04-12T07:14:38.982Z</time></trkpt><trkpt lat="37.9290217" lon="15.8848217"><ele>10.0</ele><time>2026-04-12T07:14:39.982Z</time></trkpt><trkpt lat="37.929015" lon="15.8845283"><ele>9.666666666666668</ele><time>2026-04-12T07:14:40.982Z</time></trkpt><trkpt lat="37.9290233" lon="15.88425"><ele>9.333333333333334</ele><time>2026-04-12T07:14:41.982Z</time></trkpt><trkpt lat="37.92902" lon="15.8839767"><ele>9.0</ele><time>2026-04-12T07:14:42.982Z</time></trkpt><trkpt lat="37.9290133" lon="15.8837283"><ele>9.0</ele><time>2026-04-12T07:14:43.982Z</time></trkpt><trkpt lat="37.9290267" lon="15.8834917"><ele>9.0</ele><time>2026-04-12T07:14:44.982Z</time></trkpt><trkpt lat="37.9290317" lon="15.883245"><ele>9.0</ele><time>2026-04-12T07:14:45.982Z</time></trkpt><trkpt lat="37.9290333" lon="15.8830283"><ele>8.75</ele><time>2026-04-12T07:14:46.983Z</time></trkpt><trkpt lat="37.9290367" lon="15.8828417"><ele>8.5</ele><time>2026-04-12T07:14:47.982Z</time></trkpt><trkpt lat="37.9290517" lon="15.8826783"><ele>8.25</ele><time>2026-04-12T07:14:48.982Z</time></trkpt><trkpt lat="37.92907" lon="15.88254"><ele>8.0</ele><time>2026-04-12T07:14:49.982Z</time></trkpt><trkpt lat="37.9290883" lon="15.882445"><ele>7.833333333333333</ele><time>2026-04-12T07:14:50.982Z</time></trkpt><trkpt lat="37.9291433" lon="15.88238"><ele>7.666666666666666</ele><time>2026-04-12T07:14:51.982Z</time></trkpt><trkpt lat="37.9292033" lon="15.88234"><ele>7.5</ele><time>2026-04-12T07:14:52.982Z</time></trkpt><trkpt lat="37.9292717" lon="15.8823"><ele>7.333333333333334</ele><time>2026-04-12T07:14:53.983Z</time></trkpt><trkpt lat="37.92936" lon="15.88229"><ele>7.166666666666667</ele><time>2026-04-12T07:14:54.982Z</time></trkpt><trkpt lat="37.92947" lon="15.8823133"><ele>7.0</ele><time>2026-04-12T07:14:55.982Z</time></trkpt><trkpt lat="37.92961" lon="15.8823667"><ele>7.666666666666667</ele><time>2026-04-12T07:14:56.983Z</time></trkpt><trkpt lat="37.9297667" lon="15.8824283"><ele>8.333333333333334</ele><time>2026-04-12T07:14:57.982Z</time></trkpt><trkpt lat="37.9299133" lon="15.88249"><ele>9.0</ele><time>2026-04-12T07:14:58.982Z</time></trkpt><trkpt lat="37.9300733" lon="15.8825167"><ele>9.666666666666666</ele><time>2026-04-12T07:14:59.982Z</time></trkpt><trkpt lat="37.930235" lon="15.8825433"><ele>10.333333333333332</ele><time>2026-04-12T07:15:00.983Z</time></trkpt><trkpt lat="37.9304" lon="15.8825733"><ele>11.0</ele><time>2026-04-12T07:15:01.982Z</time></trkpt><trkpt lat="37.9305683" lon="15.882625"><ele>11.0</ele><time>2026-04-12T07:15:02.982Z</time></trkpt><trkpt lat="37.9307483" lon="15.8826567"><ele>11.0</ele><time>2026-04-12T07:15:03.983Z</time></trkpt><trkpt lat="37.93092" lon="15.882685"><ele>11.0</ele><time>2026-04-12T07:15:04.983Z</time></trkpt><trkpt lat="37.9310967" lon="15.8827333"><ele>11.666666666666666</ele><time>2026-04-12T07:15:05.982Z</time></trkpt><trkpt lat="37.9312717" lon="15.8827667"><ele>12.333333333333332</ele><time>2026-04-12T07:15:06.982Z</time></trkpt><trkpt lat="37.9314417" lon="15.8827917"><ele>13.0</ele><time>2026-04-12T07:15:07.982Z</time></trkpt><trkpt lat="37.9316083" lon="15.882835"><ele>14.333333333333332</ele><time>2026-04-12T07:15:08.982Z</time></trkpt><trkpt lat="37.93178" lon="15.8828633"><ele>15.666666666666668</ele><time>2026-04-12T07:15:09.982Z</time></trkpt><trkpt lat="37.93194" lon="15.88288"><ele>17.0</ele><time>2026-04-12T07:15:10.982Z</time></trkpt><trkpt lat="37.93211" lon="15.8828917"><ele>17.0</ele><time>2026-04-12T07:15:11.982Z</time></trkpt><trkpt lat="37.932295" lon="15.8828883"><ele>17.0</ele><time>2026-04-12T07:15:12.983Z</time></trkpt><trkpt lat="37.932475" lon="15.88287"><ele>17.0</ele><time>2026-04-12T07:15:13.983Z</time></trkpt><trkpt lat="37.932655" lon="15.8828267"><ele>18.0</ele><time>2026-04-12T07:15:14.982Z</time></trkpt><trkpt lat="37.9328383" lon="15.8827917"><ele>19.0</ele><time>2026-04-12T07:15:15.982Z</time></trkpt><trkpt lat="37.933025" lon="15.8827667"><ele>20.0</ele><time>2026-04-12T07:15:16.983Z</time></trkpt><trkpt lat="37.9332133" lon="15.8827517"><ele>20.333333333333336</ele><time>2026-04-12T07:15:17.982Z</time></trkpt><trkpt lat="37.933405" lon="15.8827283"><ele>20.666666666666668</ele><time>2026-04-12T07:15:18.982Z</time></trkpt><trkpt lat="37.933595" lon="15.8826933"><ele>21.0</ele><time>2026-04-12T07:15:19.982Z</time></trkpt><trkpt lat="37.933785" lon="15.8826983"><ele>21.0</ele><time>2026-04-12T07:15:20.983Z</time></trkpt><trkpt lat="37.93397" lon="15.8826867"><ele>21.0</ele><time>2026-04-12T07:15:21.982Z</time></trkpt><trkpt lat="37.934155" lon="15.8826817"><ele>21.0</ele><time>2026-04-12T07:15:22.982Z</time></trkpt><trkpt lat="37.9343233" lon="15.8826517"><ele>21.333333333333332</ele><time>2026-04-12T07:15:23.983Z</time></trkpt><trkpt lat="37.9344917" lon="15.8826233"><ele>21.666666666666664</ele><time>2026-04-12T07:15:24.983Z</time></trkpt><trkpt lat="37.9346717" lon="15.8826"><ele>22.0</ele><time>2026-04-12T07:15:25.982Z</time></trkpt><trkpt lat="37.9348533" lon="15.8825783"><ele>23.333333333333332</ele><time>2026-04-12T07:15:26.982Z</time></trkpt><trkpt lat="37.9350333" lon="15.88258"><ele>24.666666666666664</ele><time>2026-04-12T07:15:27.983Z</time></trkpt><trkpt lat="37.9352083" lon="15.8825683"><ele>26.0</ele><time>2026-04-12T07:15:28.982Z</time></trkpt><trkpt lat="37.9353917" lon="15.882545"><ele>27.0</ele><time>2026-04-12T07:15:29.982Z</time></trkpt><trkpt lat="37.9355817" lon="15.8825283"><ele>28.0</ele><time>2026-04-12T07:15:30.982Z</time></trkpt><trkpt lat="37.93578" lon="15.8825133"><ele>29.0</ele><time>2026-04-12T07:15:31.983Z</time></trkpt><trkpt lat="37.9359733" lon="15.882495"><ele>29.666666666666664</ele><time>2026-04-12T07:15:32.983Z</time></trkpt><trkpt lat="37.9361667" lon="15.8824633"><ele>30.333333333333336</ele><time>2026-04-12T07:15:33.982Z</time></trkpt><trkpt lat="37.93637" lon="15.8824383"><ele>31.0</ele><time>2026-04-12T07:15:34.982Z</time></trkpt><trkpt lat="37.9365733" lon="15.88242"><ele>31.333333333333336</ele><time>2026-04-12T07:15:35.982Z</time></trkpt><trkpt lat="37.936755" lon="15.8824"><ele>31.666666666666664</ele><time>2026-04-12T07:15:36.983Z</time></trkpt><trkpt lat="37.936935" lon="15.8824017"><ele>32.0</ele><time>2026-04-12T07:15:37.982Z</time></trkpt><trkpt lat="37.9371267" lon="15.8823783"><ele>32.0</ele><time>2026-04-12T07:15:38.983Z</time></trkpt><trkpt lat="37.9373167" lon="15.88236"><ele>32.0</ele><time>2026-04-12T07:15:39.982Z</time></trkpt><trkpt lat="37.9375183" lon="15.8823333"><ele>32.0</ele><time>2026-04-12T07:15:40.982Z</time></trkpt><trkpt lat="37.9377267" lon="15.8823083"><ele>32.33333333333333</ele><time>2026-04-12T07:15:41.982Z</time></trkpt><trkpt lat="37.9379233" lon="15.8822883"><ele>32.666666666666664</ele><time>2026-04-12T07:15:42.983Z</time></trkpt><trkpt lat="37.9381233" lon="15.88227"><ele>33.0</ele><time>2026-04-12T07:15:43.983Z</time></trkpt><trkpt lat="37.938315" lon="15.8822467"><ele>33.0</ele><time>2026-04-12T07:15:44.982Z</time></trkpt><trkpt lat="37.9385133" lon="15.8822267"><ele>33.0</ele><time>2026-04-12T07:15:45.982Z</time></trkpt><trkpt lat="37.93872" lon="15.882205"><ele>33.0</ele><time>2026-04-12T07:15:46.982Z</time></trkpt><trkpt lat="37.9389067" lon="15.8821983"><ele>33.0</ele><time>2026-04-12T07:15:47.982Z</time></trkpt><trkpt lat="37.9391033" lon="15.8821817"><ele>33.0</ele><time>2026-04-12T07:15:48.983Z</time></trkpt><trkpt lat="37.9393033" lon="15.88216"><ele>33.0</ele><time>2026-04-12T07:15:49.982Z</time></trkpt><trkpt lat="37.9395183" lon="15.882135"><ele>33.666666666666664</ele><time>2026-04-12T07:15:50.982Z</time></trkpt><trkpt lat="37.9397233" lon="15.8821133"><ele>34.33333333333333</ele><time>2026-04-12T07:15:51.982Z</time></trkpt><trkpt lat="37.9399217" lon="15.88209"><ele>35.0</ele><time>2026-04-12T07:15:52.983Z</time></trkpt><trkpt lat="37.940115" lon="15.8820633"><ele>35.0</ele><time>2026-04-12T07:15:53.982Z</time></trkpt><trkpt lat="37.94031" lon="15.882055"><ele>35.0</ele><time>2026-04-12T07:15:54.982Z</time></trkpt><trkpt lat="37.9405" lon="15.8820283"><ele>35.0</ele><time>2026-04-12T07:15:55.982Z</time></trkpt><trkpt lat="37.9406783" lon="15.8820183"><ele>35.0</ele><time>2026-04-12T07:15:56.983Z</time></trkpt><trkpt lat="37.940875" lon="15.8819967"><ele>35.0</ele><time>2026-04-12T07:15:57.982Z</time></trkpt><trkpt lat="37.941065" lon="15.88196"><ele>35.0</ele><time>2026-04-12T07:15:58.983Z</time></trkpt><trkpt lat="37.941255" lon="15.881945"><ele>35.33333333333333</ele><time>2026-04-12T07:15:59.982Z</time></trkpt><trkpt lat="37.9414433" lon="15.8819333"><ele>35.666666666666664</ele><time>2026-04-12T07:16:00.983Z</time></trkpt><trkpt lat="37.94164" lon="15.8819267"><ele>36.0</ele><time>2026-04-12T07:16:01.982Z</time></trkpt><trkpt lat="37.9418417" lon="15.8818933"><ele>36.333333333333336</ele><time>2026-04-12T07:16:02.983Z</time></trkpt><trkpt lat="37.9420433" lon="15.8818633"><ele>36.66666666666667</ele><time>2026-04-12T07:16:03.982Z</time></trkpt><trkpt lat="37.9422383" lon="15.8818467"><ele>37.0</ele><time>2026-04-12T07:16:04.982Z</time></trkpt><trkpt lat="37.942425" lon="15.8818283"><ele>37.0</ele><time>2026-04-12T07:16:05.982Z</time></trkpt><trkpt lat="37.9425983" lon="15.881805"><ele>37.0</ele><time>2026-04-12T07:16:06.983Z</time></trkpt><trkpt lat="37.94277" lon="15.8818183"><ele>37.0</ele><time>2026-04-12T07:16:07.982Z</time></trkpt><trkpt lat="37.94293" lon="15.8817767"><ele>37.5</ele><time>2026-04-12T07:16:08.983Z</time></trkpt><trkpt lat="37.9430633" lon="15.8817467"><ele>38.0</ele><time>2026-04-12T07:16:09.982Z</time></trkpt><trkpt lat="37.943195" lon="15.8817433"><ele>38.5</ele><time>2026-04-12T07:16:10.982Z</time></trkpt><trkpt lat="37.9433483" lon="15.88174"><ele>39.0</ele><time>2026-04-12T07:16:11.982Z</time></trkpt><trkpt lat="37.9435167" lon="15.8817317"><ele>40.0</ele><time>2026-04-12T07:16:12.983Z</time></trkpt><trkpt lat="37.9436833" lon="15.881735"><ele>41.0</ele><time>2026-04-12T07:16:13.982Z</time></trkpt><trkpt lat="37.943885" lon="15.8817217"><ele>42.0</ele><time>2026-04-12T07:16:14.982Z</time></trkpt><trkpt lat="37.944095" lon="15.8816883"><ele>42.666666666666664</ele><time>2026-04-12T07:16:15.982Z</time></trkpt><trkpt lat="37.9443117" lon="15.8816583"><ele>43.33333333333333</ele><time>2026-04-12T07:16:16.982Z</time></trkpt><trkpt lat="37.9445233" lon="15.881645"><ele>44.0</ele><time>2026-04-12T07:16:17.982Z</time></trkpt><trkpt lat="37.944735" lon="15.8816233"><ele>44.0</ele><time>2026-04-12T07:16:18.982Z</time></trkpt><trkpt lat="37.9449517" lon="15.8816267"><ele>44.0</ele><time>2026-04-12T07:16:19.982Z</time></trkpt><trkpt lat="37.9451583" lon="15.8816033"><ele>44.0</ele><time>2026-04-12T07:16:20.982Z</time></trkpt><trkpt lat="37.945365" lon="15.88159"><ele>45.0</ele><time>2026-04-12T07:16:21.983Z</time></trkpt><trkpt lat="37.9455683" lon="15.8815617"><ele>46.0</ele><time>2026-04-12T07:16:22.982Z</time></trkpt><trkpt lat="37.9457617" lon="15.8815533"><ele>47.0</ele><time>2026-04-12T07:16:23.983Z</time></trkpt><trkpt lat="37.9459467" lon="15.881545"><ele>47.666666666666664</ele><time>2026-04-12T07:16:24.982Z</time></trkpt><trkpt lat="37.9461383" lon="15.881525"><ele>48.33333333333333</ele><time>2026-04-12T07:16:25.982Z</time></trkpt><trkpt lat="37.9463283" lon="15.88152"><ele>49.0</ele><time>2026-04-12T07:16:26.982Z</time></trkpt><trkpt lat="37.9465333" lon="15.88154"><ele>49.666666666666664</ele><time>2026-04-12T07:16:27.983Z</time></trkpt><trkpt lat="37.94673" lon="15.881595"><ele>50.33333333333333</ele><time>2026-04-12T07:16:28.983Z</time></trkpt><trkpt lat="37.946935" lon="15.8816633"><ele>51.0</ele><time>2026-04-12T07:16:29.982Z</time></trkpt><trkpt lat="37.94714" lon="15.8817283"><ele>50.66666666666667</ele><time>2026-04-12T07:16:30.982Z</time></trkpt><trkpt lat="37.9473567" lon="15.8817867"><ele>50.333333333333336</ele><time>2026-04-12T07:16:31.982Z</time></trkpt><trkpt lat="37.947565" lon="15.8818533"><ele>50.0</ele><time>2026-04-12T07:16:32.982Z</time></trkpt><trkpt lat="37.9477767" lon="15.881915"><ele>50.0</ele><time>2026-04-12T07:16:33.982Z</time></trkpt><trkpt lat="37.94798" lon="15.8819833"><ele>50.0</ele><time>2026-04-12T07:16:34.982Z</time></trkpt><trkpt lat="37.94819" lon="15.8820467"><ele>50.0</ele><time>2026-04-12T07:16:35.982Z</time></trkpt><trkpt lat="37.9483917" lon="15.8821033"><ele>50.333333333333336</ele><time>2026-04-12T07:16:36.983Z</time></trkpt><trkpt lat="37.9485983" lon="15.8821583"><ele>50.66666666666667</ele><time>2026-04-12T07:16:37.982Z</time></trkpt><trkpt lat="37.9487933" lon="15.8822167"><ele>51.0</ele><time>2026-04-12T07:16:38.982Z</time></trkpt><trkpt lat="37.9489933" lon="15.88228"><ele>51.0</ele><time>2026-04-12T07:16:39.982Z</time></trkpt><trkpt lat="37.9491883" lon="15.88235"><ele>51.0</ele><time>2026-04-12T07:16:40.982Z</time></trkpt><trkpt lat="37.9493817" lon="15.882415"><ele>51.0</ele><time>2026-04-12T07:16:41.982Z</time></trkpt><trkpt lat="37.9496" lon="15.8824667"><ele>51.33333333333333</ele><time>2026-04-12T07:16:42.983Z</time></trkpt><trkpt lat="37.94981" lon="15.8825167"><ele>51.666666666666664</ele><time>2026-04-12T07:16:43.982Z</time></trkpt><trkpt lat="37.9500267" lon="15.88259"><ele>52.0</ele><time>2026-04-12T07:16:44.983Z</time></trkpt><trkpt lat="37.950235" lon="15.8826517"><ele>52.0</ele><time>2026-04-12T07:16:45.982Z</time></trkpt><trkpt lat="37.95045" lon="15.8827267"><ele>52.0</ele><time>2026-04-12T07:16:46.982Z</time></trkpt><trkpt lat="37.9506617" lon="15.8828083"><ele>52.0</ele><time>2026-04-12T07:16:47.982Z</time></trkpt><trkpt lat="37.9508833" lon="15.8828783"><ele>53.0</ele><time>2026-04-12T07:16:48.982Z</time></trkpt><trkpt lat="37.9511067" lon="15.8829483"><ele>54.0</ele><time>2026-04-12T07:16:49.982Z</time></trkpt><trkpt lat="37.9513233" lon="15.8830183"><ele>54.0</ele><time>2026-04-12T07:16:50.983Z</time></trkpt><trkpt lat="37.9515367" lon="15.88309"><ele>54.0</ele><time>2026-04-12T07:16:51.982Z</time></trkpt><trkpt lat="37.951765" lon="15.8831567"><ele>55.5</ele><time>2026-04-12T07:16:52.982Z</time></trkpt><trkpt lat="37.95199" lon="15.8832183"><ele>57.0</ele><time>2026-04-12T07:16:53.983Z</time></trkpt><trkpt lat="37.9522183" lon="15.883275"><ele>57.0</ele><time>2026-04-12T07:16:54.982Z</time></trkpt><trkpt lat="37.9524333" lon="15.8833317"><ele>57.0</ele><time>2026-04-12T07:16:55.982Z</time></trkpt><trkpt lat="37.9526517" lon="15.88339"><ele>57.0</ele><time>2026-04-12T07:16:56.982Z</time></trkpt><trkpt lat="37.952865" lon="15.8834667"><ele>56.66666666666667</ele><time>2026-04-12T07:16:57.982Z</time></trkpt><trkpt lat="37.9530767" lon="15.8835383"><ele>56.333333333333336</ele><time>2026-04-12T07:16:58.982Z</time></trkpt><trkpt lat="37.9532817" lon="15.8836117"><ele>56.0</ele><time>2026-04-12T07:16:59.983Z</time></trkpt><trkpt lat="37.9534967" lon="15.8836783"><ele>57.0</ele><time>2026-04-12T07:17:00.983Z</time></trkpt><trkpt lat="37.95371" lon="15.8837417"><ele>58.0</ele><time>2026-04-12T07:17:01.982Z</time></trkpt><trkpt lat="37.9539267" lon="15.8838017"><ele>59.0</ele><time>2026-04-12T07:17:02.982Z</time></trkpt><trkpt lat="37.9541467" lon="15.8838683"><ele>60.5</ele><time>2026-04-12T07:17:03.982Z</time></trkpt><trkpt lat="37.9543817" lon="15.883935"><ele>62.0</ele><time>2026-04-12T07:17:04.983Z</time></trkpt><trkpt lat="37.95461" lon="15.8840167"><ele>62.0</ele><time>2026-04-12T07:17:05.983Z</time></trkpt><trkpt lat="37.9548467" lon="15.8840883"><ele>62.0</ele><time>2026-04-12T07:17:06.982Z</time></trkpt><trkpt lat="37.95507" lon="15.88416"><ele>62.0</ele><time>2026-04-12T07:17:07.982Z</time></trkpt><trkpt lat="37.9553033" lon="15.8842283"><ele>62.0</ele><time>2026-04-12T07:17:08.982Z</time></trkpt><trkpt lat="37.95553" lon="15.88429"><ele>62.0</ele><time>2026-04-12T07:17:09.982Z</time></trkpt><trkpt lat="37.95575" lon="15.8843567"><ele>62.0</ele><time>2026-04-12T07:17:10.982Z</time></trkpt><trkpt lat="37.9559617" lon="15.8844333"><ele>62.0</ele><time>2026-04-12T07:17:11.983Z</time></trkpt><trkpt lat="37.9561817" lon="15.884505"><ele>62.333333333333336</ele><time>2026-04-12T07:17:12.982Z</time></trkpt><trkpt lat="37.95639" lon="15.88457"><ele>62.66666666666667</ele><time>2026-04-12T07:17:13.982Z</time></trkpt><trkpt lat="37.9565883" lon="15.88463"><ele>63.0</ele><time>2026-04-12T07:17:14.982Z</time></trkpt><trkpt lat="37.956785" lon="15.8846817"><ele>64.0</ele><time>2026-04-12T07:17:15.983Z</time></trkpt><trkpt lat="37.9569567" lon="15.8847283"><ele>65.0</ele><time>2026-04-12T07:17:16.982Z</time></trkpt><trkpt lat="37.9571033" lon="15.8847767"><ele>66.0</ele><time>2026-04-12T07:17:17.982Z</time></trkpt><trkpt lat="37.95723" lon="15.884835"><ele>66.0</ele><time>2026-04-12T07:17:18.982Z</time></trkpt><trkpt lat="37.95734" lon="15.8848867"><ele>66.0</ele><time>2026-04-12T07:17:19.983Z</time></trkpt><trkpt lat="37.9574283" lon="15.8849617"><ele>66.0</ele><time>2026-04-12T07:17:20.982Z</time></trkpt><trkpt lat="37.95752" lon="15.8850467"><ele>66.0</ele><time>2026-04-12T07:17:21.982Z</time></trkpt><trkpt lat="37.9576067" lon="15.885145"><ele>66.75</ele><time>2026-04-12T07:17:22.982Z</time></trkpt><trkpt lat="37.9577067" lon="15.8852517"><ele>67.5</ele><time>2026-04-12T07:17:23.983Z</time></trkpt><trkpt lat="37.9578" lon="15.8853667"><ele>68.25</ele><time>2026-04-12T07:17:24.982Z</time></trkpt><trkpt lat="37.95792" lon="15.8854783"><ele>69.0</ele><time>2026-04-12T07:17:25.983Z</time></trkpt><trkpt lat="37.9580367" lon="15.885605"><ele>69.0</ele><time>2026-04-12T07:17:26.982Z</time></trkpt><trkpt lat="37.9581533" lon="15.8857117"><ele>69.0</ele><time>2026-04-12T07:17:27.982Z</time></trkpt><trkpt lat="37.95827" lon="15.8858283"><ele>69.0</ele><time>2026-04-12T07:17:28.982Z</time></trkpt><trkpt lat="37.9583783" lon="15.8859483"><ele>69.0</ele><time>2026-04-12T07:17:29.982Z</time></trkpt><trkpt lat="37.9584917" lon="15.8860617"><ele>69.66666666666667</ele><time>2026-04-12T07:17:30.982Z</time></trkpt><trkpt lat="37.9586017" lon="15.8861833"><ele>70.33333333333334</ele><time>2026-04-12T07:17:31.982Z</time></trkpt><trkpt lat="37.9587283" lon="15.8863167"><ele>71.0</ele><time>2026-04-12T07:17:32.982Z</time></trkpt><trkpt lat="37.958855" lon="15.8864633"><ele>71.0</ele><time>2026-04-12T07:17:33.982Z</time></trkpt><trkpt lat="37.9589833" lon="15.8865967"><ele>71.0</ele><time>2026-04-12T07:17:34.982Z</time></trkpt><trkpt lat="37.9591167" lon="15.8867217"><ele>71.0</ele><time>2026-04-12T07:17:35.982Z</time></trkpt><trkpt lat="37.9592283" lon="15.8868433"><ele>72.25</ele><time>2026-04-12T07:17:36.982Z</time></trkpt><trkpt lat="37.9593333" lon="15.8869517"><ele>73.5</ele><time>2026-04-12T07:17:37.983Z</time></trkpt><trkpt lat="37.95944" lon="15.88707"><ele>74.75</ele><time>2026-04-12T07:17:38.983Z</time></trkpt><trkpt lat="37.9595683" lon="15.8872033"><ele>76.0</ele><time>2026-04-12T07:17:39.982Z</time></trkpt><trkpt lat="37.9597233" lon="15.8873233"><ele>76.0</ele><time>2026-04-12T07:17:40.982Z</time></trkpt><trkpt lat="37.959875" lon="15.88748"><ele>76.0</ele><time>2026-04-12T07:17:41.982Z</time></trkpt><trkpt lat="37.9600067" lon="15.8876367"><ele>76.0</ele><time>2026-04-12T07:17:42.983Z</time></trkpt><trkpt lat="37.96015" lon="15.8877767"><ele>79.33333333333333</ele><time>2026-04-12T07:17:43.982Z</time></trkpt><trkpt lat="37.96028" lon="15.8879283"><ele>82.66666666666667</ele><time>2026-04-12T07:17:44.982Z</time></trkpt><trkpt lat="37.9604017" lon="15.888065"><ele>86.0</ele><time>2026-04-12T07:17:45.982Z</time></trkpt><trkpt lat="37.9605283" lon="15.8881967"><ele>86.0</ele><time>2026-04-12T07:17:46.982Z</time></trkpt><trkpt lat="37.960645" lon="15.888325"><ele>86.0</ele><time>2026-04-12T07:17:47.982Z</time></trkpt><trkpt lat="37.9607617" lon="15.88844"><ele>86.0</ele><time>2026-04-12T07:17:48.982Z</time></trkpt><trkpt lat="37.9608583" lon="15.888545"><ele>86.0</ele><time>2026-04-12T07:17:49.982Z</time></trkpt><trkpt lat="37.9609267" lon="15.8886517"><ele>86.4</ele><time>2026-04-12T07:17:50.982Z</time></trkpt><trkpt lat="37.9609717" lon="15.888795"><ele>86.8</ele><time>2026-04-12T07:17:51.982Z</time></trkpt><trkpt lat="37.9610133" lon="15.88894"><ele>87.2</ele><time>2026-04-12T07:17:52.982Z</time></trkpt><trkpt lat="37.96103" lon="15.889075"><ele>87.60000000000001</ele><time>2026-04-12T07:17:53.982Z</time></trkpt><trkpt lat="37.9610433" lon="15.889195"><ele>88.0</ele><time>2026-04-12T07:17:54.982Z</time></trkpt><trkpt lat="37.9610733" lon="15.8893117"><ele>88.0</ele><time>2026-04-12T07:17:55.982Z</time></trkpt><trkpt lat="37.9611167" lon="15.8893883"><ele>88.0</ele><time>2026-04-12T07:17:56.983Z</time></trkpt><trkpt lat="37.96118" lon="15.8894117"><ele>88.0</ele><time>2026-04-12T07:17:57.982Z</time></trkpt><trkpt lat="37.96126" lon="15.8893667"><ele>88.0</ele><time>2026-04-12T07:17:58.982Z</time></trkpt><trkpt lat="37.9613483" lon="15.8892617"><ele>88.0</ele><time>2026-04-12T07:17:59.982Z</time></trkpt><trkpt lat="37.9614167" lon="15.8891417"><ele>88.0</ele><time>2026-04-12T07:18:00.983Z</time></trkpt><trkpt lat="37.9614517" lon="15.888975"><ele>88.0</ele><time>2026-04-12T07:18:01.982Z</time></trkpt><trkpt lat="37.9614683" lon="15.8888333"><ele>88.0</ele><time>2026-04-12T07:18:02.982Z</time></trkpt><trkpt lat="37.96149" lon="15.8886767"><ele>88.0</ele><time>2026-04-12T07:18:03.982Z</time></trkpt><trkpt lat="37.96153" lon="15.88853"><ele>89.5</ele><time>2026-04-12T07:18:04.982Z</time></trkpt><trkpt lat="37.9615933" lon="15.8884117"><ele>91.0</ele><time>2026-04-12T07:18:05.982Z</time></trkpt><trkpt lat="37.9616833" lon="15.8883"><ele>92.5</ele><time>2026-04-12T07:18:06.982Z</time></trkpt><trkpt lat="37.9617933" lon="15.8882083"><ele>94.0</ele><time>2026-04-12T07:18:07.982Z</time></trkpt><trkpt lat="37.9619333" lon="15.8881333"><ele>94.5</ele><time>2026-04-12T07:18:08.982Z</time></trkpt><trkpt lat="37.9620667" lon="15.8880717"><ele>95.0</ele><time>2026-04-12T07:18:09.983Z</time></trkpt><trkpt lat="37.9621967" lon="15.888045"><ele>95.5</ele><time>2026-04-12T07:18:10.982Z</time></trkpt><trkpt lat="37.9622917" lon="15.8880533"><ele>96.0</ele><time>2026-04-12T07:18:11.982Z</time></trkpt><trkpt lat="37.9624067" lon="15.8881183"><ele>96.0</ele><time>2026-04-12T07:18:13.982Z</time></trkpt><trkpt lat="37.9624517" lon="15.8881883"><ele>96.0</ele><time>2026-04-12T07:18:14.982Z</time></trkpt><trkpt lat="37.9624867" lon="15.888285"><ele>96.0</ele><time>2026-04-12T07:18:15.982Z</time></trkpt><trkpt lat="37.9625283" lon="15.88842"><ele>96.0</ele><time>2026-04-12T07:18:16.982Z</time></trkpt><trkpt lat="37.9625483" lon="15.88856"><ele>96.0</ele><time>2026-04-12T07:18:17.983Z</time></trkpt><trkpt lat="37.9625717" lon="15.8886967"><ele>93.0</ele><time>2026-04-12T07:18:18.982Z</time></trkpt><trkpt lat="37.9625833" lon="15.8888283"><ele>90.0</ele><time>2026-04-12T07:18:19.982Z</time></trkpt><trkpt lat="37.96262" lon="15.8889017"><ele>87.0</ele><time>2026-04-12T07:18:20.982Z</time></trkpt><trkpt lat="37.9627633" lon="15.8888917"><ele>84.0</ele><time>2026-04-12T07:18:22.982Z</time></trkpt><trkpt lat="37.9628633" lon="15.888835"><ele>81.0</ele><time>2026-04-12T07:18:23.982Z</time></trkpt><trkpt lat="37.9629767" lon="15.8887667"><ele>81.0</ele><time>2026-04-12T07:18:24.982Z</time></trkpt><trkpt lat="37.96312" lon="15.8887117"><ele>81.0</ele><time>2026-04-12T07:18:25.982Z</time></trkpt><trkpt lat="37.963275" lon="15.8886467"><ele>81.0</ele><time>2026-04-12T07:18:26.983Z</time></trkpt><trkpt lat="37.963445" lon="15.8885867"><ele>80.66666666666667</ele><time>2026-04-12T07:18:27.983Z</time></trkpt><trkpt lat="37.9636267" lon="15.8885283"><ele>80.33333333333334</ele><time>2026-04-12T07:18:28.983Z</time></trkpt><trkpt lat="37.9638233" lon="15.8884483"><ele>80.0</ele><time>2026-04-12T07:18:29.983Z</time></trkpt><trkpt lat="37.9640233" lon="15.888365"><ele>81.33333333333334</ele><time>2026-04-12T07:18:30.982Z</time></trkpt><trkpt lat="37.9642083" lon="15.88829"><ele>82.66666666666667</ele><time>2026-04-12T07:18:31.982Z</time></trkpt><trkpt lat="37.96441" lon="15.8882183"><ele>84.0</ele><time>2026-04-12T07:18:32.982Z</time></trkpt><trkpt lat="37.964615" lon="15.8881583"><ele>84.0</ele><time>2026-04-12T07:18:33.982Z</time></trkpt><trkpt lat="37.9648133" lon="15.888095"><ele>84.0</ele><time>2026-04-12T07:18:34.983Z</time></trkpt><trkpt lat="37.9649983" lon="15.8880417"><ele>84.0</ele><time>2026-04-12T07:18:35.983Z</time></trkpt><trkpt lat="37.96517" lon="15.8879883"><ele>84.0</ele><time>2026-04-12T07:18:36.982Z</time></trkpt><trkpt lat="37.9653317" lon="15.8879417"><ele>84.0</ele><time>2026-04-12T07:18:37.982Z</time></trkpt><trkpt lat="37.9654983" lon="15.8879167"><ele>84.0</ele><time>2026-04-12T07:18:38.982Z</time></trkpt><trkpt lat="37.965665" lon="15.88792"><ele>84.0</ele><time>2026-04-12T07:18:39.982Z</time></trkpt><trkpt lat="37.9658267" lon="15.8879517"><ele>84.0</ele><time>2026-04-12T07:18:40.982Z</time></trkpt><trkpt lat="37.965995" lon="15.8879733"><ele>84.0</ele><time>2026-04-12T07:18:41.982Z</time></trkpt><trkpt lat="37.9661567" lon="15.887995"><ele>84.5</ele><time>2026-04-12T07:18:42.983Z</time></trkpt><trkpt lat="37.9663067" lon="15.888025"><ele>85.0</ele><time>2026-04-12T07:18:43.983Z</time></trkpt><trkpt lat="37.9664467" lon="15.8880517"><ele>85.5</ele><time>2026-04-12T07:18:44.983Z</time></trkpt><trkpt lat="37.9665817" lon="15.8880767"><ele>86.0</ele><time>2026-04-12T07:18:45.982Z</time></trkpt><trkpt lat="37.9667217" lon="15.8880967"><ele>86.0</ele><time>2026-04-12T07:18:46.982Z</time></trkpt><trkpt lat="37.966865" lon="15.8881133"><ele>86.0</ele><time>2026-04-12T07:18:47.983Z</time></trkpt><trkpt lat="37.96701" lon="15.8881417"><ele>86.0</ele><time>2026-04-12T07:18:48.982Z</time></trkpt><trkpt lat="37.967175" lon="15.8881683"><ele>86.0</ele><time>2026-04-12T07:18:49.982Z</time></trkpt><trkpt lat="37.9673333" lon="15.8882017"><ele>86.0</ele><time>2026-04-12T07:18:50.982Z</time></trkpt><trkpt lat="37.96749" lon="15.8882467"><ele>86.0</ele><time>2026-04-12T07:18:51.982Z</time></trkpt><trkpt lat="37.967655" lon="15.888285"><ele>87.66666666666667</ele><time>2026-04-12T07:18:52.982Z</time></trkpt><trkpt lat="37.967815" lon="15.8883233"><ele>89.33333333333333</ele><time>2026-04-12T07:18:53.982Z</time></trkpt><trkpt lat="37.967975" lon="15.8883367"><ele>91.0</ele><time>2026-04-12T07:18:54.982Z</time></trkpt><trkpt lat="37.9681383" lon="15.88835"><ele>91.0</ele><time>2026-04-12T07:18:55.982Z</time></trkpt><trkpt lat="37.9683067" lon="15.888345"><ele>91.0</ele><time>2026-04-12T07:18:56.983Z</time></trkpt><trkpt lat="37.9684783" lon="15.8883183"><ele>91.0</ele><time>2026-04-12T07:18:57.982Z</time></trkpt><trkpt lat="37.96865" lon="15.8882917"><ele>91.0</ele><time>2026-04-12T07:18:58.982Z</time></trkpt><trkpt lat="37.968825" lon="15.88829"><ele>91.0</ele><time>2026-04-12T07:18:59.982Z</time></trkpt><trkpt lat="37.9689983" lon="15.88831"><ele>91.0</ele><time>2026-04-12T07:19:00.983Z</time></trkpt><trkpt lat="37.9691817" lon="15.8883417"><ele>91.0</ele><time>2026-04-12T07:19:01.982Z</time></trkpt><trkpt lat="37.969375" lon="15.8883933"><ele>91.0</ele><time>2026-04-12T07:19:02.982Z</time></trkpt><trkpt lat="37.9695683" lon="15.88843"><ele>91.0</ele><time>2026-04-12T07:19:03.982Z</time></trkpt><trkpt lat="37.969755" lon="15.8884783"><ele>91.0</ele><time>2026-04-12T07:19:04.982Z</time></trkpt><trkpt lat="37.9699417" lon="15.8885267"><ele>91.0</ele><time>2026-04-12T07:19:05.982Z</time></trkpt><trkpt lat="37.970115" lon="15.88857"><ele>91.0</ele><time>2026-04-12T07:19:06.982Z</time></trkpt><trkpt lat="37.9702783" lon="15.8885983"><ele>91.5</ele><time>2026-04-12T07:19:07.983Z</time></trkpt><trkpt lat="37.97043" lon="15.8886233"><ele>92.0</ele><time>2026-04-12T07:19:08.982Z</time></trkpt><trkpt lat="37.970575" lon="15.88864"><ele>92.5</ele><time>2026-04-12T07:19:09.982Z</time></trkpt><trkpt lat="37.9707033" lon="15.8886383"><ele>93.0</ele><time>2026-04-12T07:19:10.982Z</time></trkpt><trkpt lat="37.9708217" lon="15.8886317"><ele>93.60000000000001</ele><time>2026-04-12T07:19:11.982Z</time></trkpt><trkpt lat="37.9709333" lon="15.88862"><ele>94.2</ele><time>2026-04-12T07:19:12.982Z</time></trkpt><trkpt lat="37.9710383" lon="15.8886"><ele>94.8</ele><time>2026-04-12T07:19:13.983Z</time></trkpt><trkpt lat="37.9711367" lon="15.8885933"><ele>95.4</ele><time>2026-04-12T07:19:14.982Z</time></trkpt><trkpt lat="37.9712317" lon="15.888575"><ele>96.0</ele><time>2026-04-12T07:19:15.982Z</time></trkpt><trkpt lat="37.9713217" lon="15.88856"><ele>96.0</ele><time>2026-04-12T07:19:16.983Z</time></trkpt><trkpt lat="37.9714083" lon="15.8885583"><ele>96.0</ele><time>2026-04-12T07:19:17.982Z</time></trkpt><trkpt lat="37.97151" lon="15.8885517"><ele>96.0</ele><time>2026-04-12T07:19:18.982Z</time></trkpt><trkpt lat="37.9716017" lon="15.8885483"><ele>96.0</ele><time>2026-04-12T07:19:19.982Z</time></trkpt><trkpt lat="37.9716867" lon="15.88855"><ele>96.0</ele><time>2026-04-12T07:19:20.983Z</time></trkpt><trkpt lat="37.9717583" lon="15.888565"><ele>96.0</ele><time>2026-04-12T07:19:21.983Z</time></trkpt><trkpt lat="37.971835" lon="15.88859"><ele>96.8</ele><time>2026-04-12T07:19:22.982Z</time></trkpt><trkpt lat="37.9719117" lon="15.8886233"><ele>97.6</ele><time>2026-04-12T07:19:23.982Z</time></trkpt><trkpt lat="37.9719967" lon="15.8886717"><ele>98.4</ele><time>2026-04-12T07:19:24.982Z</time></trkpt><trkpt lat="37.9720717" lon="15.8887333"><ele>99.2</ele><time>2026-04-12T07:19:25.982Z</time></trkpt><trkpt lat="37.9721617" lon="15.888805"><ele>100.0</ele><time>2026-04-12T07:19:26.982Z</time></trkpt><trkpt lat="37.972255" lon="15.8888833"><ele>100.0</ele><time>2026-04-12T07:19:27.983Z</time></trkpt><trkpt lat="37.97236" lon="15.888965"><ele>100.0</ele><time>2026-04-12T07:19:28.983Z</time></trkpt><trkpt lat="37.9724683" lon="15.8890517"><ele>100.0</ele><time>2026-04-12T07:19:29.982Z</time></trkpt><trkpt lat="37.9725917" lon="15.889135"><ele>100.0</ele><time>2026-04-12T07:19:30.982Z</time></trkpt><trkpt lat="37.972725" lon="15.8892083"><ele>100.33333333333334</ele><time>2026-04-12T07:19:31.983Z</time></trkpt><trkpt lat="37.9728767" lon="15.8892833"><ele>100.66666666666666</ele><time>2026-04-12T07:19:32.983Z</time></trkpt><trkpt lat="37.9730333" lon="15.8893517"><ele>101.0</ele><time>2026-04-12T07:19:33.982Z</time></trkpt><trkpt lat="37.97318" lon="15.8894167"><ele>101.0</ele><time>2026-04-12T07:19:34.982Z</time></trkpt><trkpt lat="37.97331" lon="15.8894767"><ele>101.0</ele><time>2026-04-12T07:19:35.982Z</time></trkpt><trkpt lat="37.97343" lon="15.8895417"><ele>101.0</ele><time>2026-04-12T07:19:36.983Z</time></trkpt><trkpt lat="37.9735483" lon="15.8896083"><ele>101.0</ele><time>2026-04-12T07:19:37.982Z</time></trkpt><trkpt lat="37.9736683" lon="15.8896783"><ele>101.4</ele><time>2026-04-12T07:19:38.983Z</time></trkpt><trkpt lat="37.9737783" lon="15.8897383"><ele>101.8</ele><time>2026-04-12T07:19:39.982Z</time></trkpt><trkpt lat="37.9738717" lon="15.88977"><ele>102.2</ele><time>2026-04-12T07:19:40.982Z</time></trkpt><trkpt lat="37.9739517" lon="15.8897467"><ele>102.60000000000001</ele><time>2026-04-12T07:19:41.982Z</time></trkpt><trkpt lat="37.9740183" lon="15.88968"><ele>103.0</ele><time>2026-04-12T07:19:42.982Z</time></trkpt><trkpt lat="37.9740733" lon="15.8895533"><ele>103.0</ele><time>2026-04-12T07:19:43.982Z</time></trkpt><trkpt lat="37.9741033" lon="15.8893917"><ele>103.0</ele><time>2026-04-12T07:19:44.982Z</time></trkpt><trkpt lat="37.9741283" lon="15.889195"><ele>103.0</ele><time>2026-04-12T07:19:45.983Z</time></trkpt><trkpt lat="37.9741367" lon="15.888975"><ele>106.0</ele><time>2026-04-12T07:19:46.983Z</time></trkpt><trkpt lat="37.974155" lon="15.8887533"><ele>109.0</ele><time>2026-04-12T07:19:47.983Z</time></trkpt><trkpt lat="37.9741617" lon="15.88854"><ele>112.0</ele><time>2026-04-12T07:19:48.982Z</time></trkpt><trkpt lat="37.9741683" lon="15.8883183"><ele>110.0</ele><time>2026-04-12T07:19:49.983Z</time></trkpt><trkpt lat="37.9741983" lon="15.8881067"><ele>108.0</ele><time>2026-04-12T07:19:50.983Z</time></trkpt><trkpt lat="37.9742183" lon="15.8878883"><ele>106.0</ele><time>2026-04-12T07:19:51.982Z</time></trkpt><trkpt lat="37.9742333" lon="15.8876667"><ele>109.75</ele><time>2026-04-12T07:19:52.982Z</time></trkpt><trkpt lat="37.9742567" lon="15.887465"><ele>113.5</ele><time>2026-04-12T07:19:53.983Z</time></trkpt><trkpt lat="37.9742933" lon="15.8873067"><ele>117.25</ele><time>2026-04-12T07:19:54.982Z</time></trkpt><trkpt lat="37.9743283" lon="15.887185"><ele>121.0</ele><time>2026-04-12T07:19:55.982Z</time></trkpt><trkpt lat="37.9743683" lon="15.8870767"><ele>121.0</ele><time>2026-04-12T07:19:56.982Z</time></trkpt><trkpt lat="37.9744317" lon="15.8869833"><ele>121.0</ele><time>2026-04-12T07:19:57.982Z</time></trkpt><trkpt lat="37.9745133" lon="15.8869417"><ele>121.0</ele><time>2026-04-12T07:19:58.982Z</time></trkpt><trkpt lat="37.9746117" lon="15.8869467"><ele>121.0</ele><time>2026-04-12T07:19:59.983Z</time></trkpt><trkpt lat="37.974715" lon="15.8869867"><ele>121.0</ele><time>2026-04-12T07:20:00.982Z</time></trkpt><trkpt lat="37.9748167" lon="15.8870583"><ele>121.0</ele><time>2026-04-12T07:20:01.982Z</time></trkpt><trkpt lat="37.97489" lon="15.8871667"><ele>121.0</ele><time>2026-04-12T07:20:02.982Z</time></trkpt><trkpt lat="37.9749533" lon="15.8873"><ele>121.0</ele><time>2026-04-12T07:20:03.983Z</time></trkpt><trkpt lat="37.97501" lon="15.8874167"><ele>121.0</ele><time>2026-04-12T07:20:04.982Z</time></trkpt><trkpt lat="37.97508" lon="15.8874917"><ele>121.0</ele><time>2026-04-12T07:20:05.982Z</time></trkpt><trkpt lat="37.9751683" lon="15.8875367"><ele>119.4</ele><time>2026-04-12T07:20:06.982Z</time></trkpt><trkpt lat="37.9752567" lon="15.8875283"><ele>117.8</ele><time>2026-04-12T07:20:07.982Z</time></trkpt><trkpt lat="37.9753467" lon="15.887495"><ele>116.20000000000002</ele><time>2026-04-12T07:20:08.982Z</time></trkpt><trkpt lat="37.9754417" lon="15.8874217"><ele>114.60000000000001</ele><time>2026-04-12T07:20:09.982Z</time></trkpt><trkpt lat="37.9755233" lon="15.8873"><ele>113.0</ele><time>2026-04-12T07:20:10.982Z</time></trkpt><trkpt lat="37.9755817" lon="15.8871817"><ele>113.0</ele><time>2026-04-12T07:20:11.982Z</time></trkpt><trkpt lat="37.97562" lon="15.8870617"><ele>113.00000000000001</ele><time>2026-04-12T07:20:12.982Z</time></trkpt><trkpt lat="37.97564" lon="15.886945"><ele>113.00000000000001</ele><time>2026-04-12T07:20:13.982Z</time></trkpt><trkpt lat="37.9756483" lon="15.88683"><ele>113.0</ele><time>2026-04-12T07:20:14.982Z</time></trkpt><trkpt lat="37.9756667" lon="15.8867167"><ele>113.0</ele><time>2026-04-12T07:20:15.982Z</time></trkpt><trkpt lat="37.9757033" lon="15.886615"><ele>115.0</ele><time>2026-04-12T07:20:16.982Z</time></trkpt><trkpt lat="37.9757567" lon="15.8865367"><ele>117.00000000000001</ele><time>2026-04-12T07:20:17.983Z</time></trkpt><trkpt lat="37.9758117" lon="15.8864417"><ele>119.00000000000001</ele><time>2026-04-12T07:20:18.982Z</time></trkpt><trkpt lat="37.975905" lon="15.8863533"><ele>121.0</ele><time>2026-04-12T07:20:19.982Z</time></trkpt><trkpt lat="37.9760083" lon="15.8862333"><ele>123.0</ele><time>2026-04-12T07:20:20.982Z</time></trkpt><trkpt lat="37.976135" lon="15.886105"><ele>123.0</ele><time>2026-04-12T07:20:21.982Z</time></trkpt><trkpt lat="37.9762633" lon="15.88597"><ele>123.0</ele><time>2026-04-12T07:20:22.982Z</time></trkpt><trkpt lat="37.976415" lon="15.8858683"><ele>123.0</ele><time>2026-04-12T07:20:23.982Z</time></trkpt><trkpt lat="37.9765633" lon="15.8858017"><ele>129.25</ele><time>2026-04-12T07:20:24.982Z</time></trkpt><trkpt lat="37.9766867" lon="15.88577"><ele>135.5</ele><time>2026-04-12T07:20:25.982Z</time></trkpt><trkpt lat="37.9768117" lon="15.885785"><ele>141.75</ele><time>2026-04-12T07:20:26.982Z</time></trkpt><trkpt lat="37.976935" lon="15.8858283"><ele>148.0</ele><time>2026-04-12T07:20:27.983Z</time></trkpt><trkpt lat="37.97706" lon="15.885895"><ele>143.25</ele><time>2026-04-12T07:20:28.982Z</time></trkpt><trkpt lat="37.9771683" lon="15.885975"><ele>138.5</ele><time>2026-04-12T07:20:29.982Z</time></trkpt><trkpt lat="37.97728" lon="15.886025"><ele>133.75</ele><time>2026-04-12T07:20:30.982Z</time></trkpt><trkpt lat="37.97743" lon="15.8860617"><ele>129.0</ele><time>2026-04-12T07:20:31.982Z</time></trkpt><trkpt lat="37.9775933" lon="15.8860683"><ele>128.0</ele><time>2026-04-12T07:20:32.982Z</time></trkpt><trkpt lat="37.9777517" lon="15.8860683"><ele>127.0</ele><time>2026-04-12T07:20:33.982Z</time></trkpt><trkpt lat="37.97789" lon="15.8860567"><ele>126.0</ele><time>2026-04-12T07:20:34.983Z</time></trkpt><trkpt lat="37.97802" lon="15.88599"><ele>125.0</ele><time>2026-04-12T07:20:35.982Z</time></trkpt><trkpt lat="37.9781217" lon="15.88589"><ele>127.0</ele><time>2026-04-12T07:20:36.982Z</time></trkpt><trkpt lat="37.9782217" lon="15.8857967"><ele>129.0</ele><time>2026-04-12T07:20:37.982Z</time></trkpt><trkpt lat="37.9783383" lon="15.8857367"><ele>131.0</ele><time>2026-04-12T07:20:38.983Z</time></trkpt><trkpt lat="37.97845" lon="15.8857183"><ele>133.0</ele><time>2026-04-12T07:20:39.982Z</time></trkpt><trkpt lat="37.97856" lon="15.8857483"><ele>133.0</ele><time>2026-04-12T07:20:40.983Z</time></trkpt><trkpt lat="37.9786633" lon="15.8857883"><ele>133.0</ele><time>2026-04-12T07:20:41.982Z</time></trkpt><trkpt lat="37.978745" lon="15.8858167"><ele>133.0</ele><time>2026-04-12T07:20:42.983Z</time></trkpt><trkpt lat="37.978815" lon="15.8858317"><ele>133.0</ele><time>2026-04-12T07:20:43.982Z</time></trkpt><trkpt lat="37.9788883" lon="15.8858267"><ele>133.0</ele><time>2026-04-12T07:20:44.982Z</time></trkpt><trkpt lat="37.978975" lon="15.8858233"><ele>133.0</ele><time>2026-04-12T07:20:46.982Z</time></trkpt><trkpt lat="37.9790233" lon="15.8857717"><ele>133.0</ele><time>2026-04-12T07:20:48.982Z</time></trkpt><trkpt lat="37.97909" lon="15.88568"><ele>133.0</ele><time>2026-04-12T07:20:50.983Z</time></trkpt><trkpt lat="37.9791333" lon="15.8856167"><ele>133.0</ele><time>2026-04-12T07:20:51.983Z</time></trkpt><trkpt lat="37.979185" lon="15.8855217"><ele>133.0</ele><time>2026-04-12T07:20:52.983Z</time></trkpt><trkpt lat="37.9792467" lon="15.8853917"><ele>133.0</ele><time>2026-04-12T07:20:53.982Z</time></trkpt><trkpt lat="37.97931" lon="15.8852533"><ele>132.8</ele><time>2026-04-12T07:20:54.982Z</time></trkpt><trkpt lat="37.9793683" lon="15.885125"><ele>132.60000000000002</ele><time>2026-04-12T07:20:55.982Z</time></trkpt><trkpt lat="37.979405" lon="15.8850083"><ele>132.39999999999998</ele><time>2026-04-12T07:20:56.983Z</time></trkpt><trkpt lat="37.9794067" lon="15.8848817"><ele>132.2</ele><time>2026-04-12T07:20:57.982Z</time></trkpt><trkpt lat="37.9793833" lon="15.884755"><ele>132.0</ele><time>2026-04-12T07:20:58.982Z</time></trkpt><trkpt lat="37.979345" lon="15.8846383"><ele>132.0</ele><time>2026-04-12T07:20:59.983Z</time></trkpt><trkpt lat="37.9792583" lon="15.8845067"><ele>132.0</ele><time>2026-04-12T07:21:00.983Z</time></trkpt><trkpt lat="37.9791367" lon="15.8843467"><ele>132.0</ele><time>2026-04-12T07:21:01.983Z</time></trkpt><trkpt lat="37.9790117" lon="15.884185"><ele>133.66666666666666</ele><time>2026-04-12T07:21:02.982Z</time></trkpt><trkpt lat="37.9789017" lon="15.884035"><ele>135.33333333333331</ele><time>2026-04-12T07:21:03.982Z</time></trkpt><trkpt lat="37.9787933" lon="15.883885"><ele>137.0</ele><time>2026-04-12T07:21:04.982Z</time></trkpt><trkpt lat="37.9787183" lon="15.8837183"><ele>137.0</ele><time>2026-04-12T07:21:05.983Z</time></trkpt><trkpt lat="37.97865" lon="15.8835333"><ele>137.0</ele><time>2026-04-12T07:21:06.982Z</time></trkpt><trkpt lat="37.9785817" lon="15.8833467"><ele>137.0</ele><time>2026-04-12T07:21:07.982Z</time></trkpt><trkpt lat="37.9785217" lon="15.8831633"><ele>137.25</ele><time>2026-04-12T07:21:08.982Z</time></trkpt><trkpt lat="37.9784617" lon="15.8829933"><ele>137.5</ele><time>2026-04-12T07:21:09.982Z</time></trkpt><trkpt lat="37.9784083" lon="15.8828383"><ele>137.75</ele><time>2026-04-12T07:21:10.982Z</time></trkpt><trkpt lat="37.9783867" lon="15.88269"><ele>138.0</ele><time>2026-04-12T07:21:11.982Z</time></trkpt><trkpt lat="37.9783717" lon="15.8825567"><ele>138.6</ele><time>2026-04-12T07:21:12.982Z</time></trkpt><trkpt lat="37.9783917" lon="15.8824383"><ele>139.20000000000002</ele><time>2026-04-12T07:21:13.982Z</time></trkpt><trkpt lat="37.97844" lon="15.88234"><ele>139.8</ele><time>2026-04-12T07:21:14.982Z</time></trkpt><trkpt lat="37.9785067" lon="15.8822567"><ele>140.4</ele><time>2026-04-12T07:21:15.983Z</time></trkpt><trkpt lat="37.9785933" lon="15.8821883"><ele>141.0</ele><time>2026-04-12T07:21:16.982Z</time></trkpt><trkpt lat="37.9786933" lon="15.8821217"><ele>141.0</ele><time>2026-04-12T07:21:17.982Z</time></trkpt><trkpt lat="37.9788083" lon="15.88205"><ele>141.0</ele><time>2026-04-12T07:21:18.982Z</time></trkpt><trkpt lat="37.9789283" lon="15.88199"><ele>141.0</ele><time>2026-04-12T07:21:19.983Z</time></trkpt><trkpt lat="37.9790383" lon="15.8819483"><ele>141.0</ele><time>2026-04-12T07:21:20.983Z</time></trkpt><trkpt lat="37.9791567" lon="15.881935"><ele>143.25</ele><time>2026-04-12T07:21:21.982Z</time></trkpt><trkpt lat="37.9792817" lon="15.8819683"><ele>145.5</ele><time>2026-04-12T07:21:22.983Z</time></trkpt><trkpt lat="37.9794033" lon="15.88207"><ele>147.75</ele><time>2026-04-12T07:21:23.982Z</time></trkpt><trkpt lat="37.9795433" lon="15.88219"><ele>150.0</ele><time>2026-04-12T07:21:24.983Z</time></trkpt><trkpt lat="37.979695" lon="15.8823217"><ele>150.0</ele><time>2026-04-12T07:21:25.982Z</time></trkpt><trkpt lat="37.9798633" lon="15.8824467"><ele>150.0</ele><time>2026-04-12T07:21:26.982Z</time></trkpt><trkpt lat="37.98001" lon="15.8825667"><ele>150.0</ele><time>2026-04-12T07:21:27.982Z</time></trkpt><trkpt lat="37.9801383" lon="15.8826633"><ele>150.25</ele><time>2026-04-12T07:21:28.982Z</time></trkpt><trkpt lat="37.98025" lon="15.8827333"><ele>150.5</ele><time>2026-04-12T07:21:29.982Z</time></trkpt><trkpt lat="37.9803717" lon="15.88278"><ele>150.75</ele><time>2026-04-12T07:21:30.982Z</time></trkpt><trkpt lat="37.9805117" lon="15.8827983"><ele>151.0</ele><time>2026-04-12T07:21:31.982Z</time></trkpt><trkpt lat="37.9806567" lon="15.8828333"><ele>151.0</ele><time>2026-04-12T07:21:32.982Z</time></trkpt><trkpt lat="37.9808217" lon="15.88288"><ele>151.0</ele><time>2026-04-12T07:21:33.982Z</time></trkpt><trkpt lat="37.9809633" lon="15.882945"><ele>151.0</ele><time>2026-04-12T07:21:34.982Z</time></trkpt><trkpt lat="37.9811017" lon="15.88301"><ele>152.2</ele><time>2026-04-12T07:21:35.982Z</time></trkpt><trkpt lat="37.9812233" lon="15.88306"><ele>153.39999999999998</ele><time>2026-04-12T07:21:36.982Z</time></trkpt><trkpt lat="37.981325" lon="15.8830833"><ele>154.6</ele><time>2026-04-12T07:21:37.982Z</time></trkpt><trkpt lat="37.9813983" lon="15.8830633"><ele>155.79999999999998</ele><time>2026-04-12T07:21:38.982Z</time></trkpt><trkpt lat="37.9814817" lon="15.883015"><ele>157.0</ele><time>2026-04-12T07:21:39.982Z</time></trkpt><trkpt lat="37.9815617" lon="15.8829233"><ele>157.0</ele><time>2026-04-12T07:21:40.982Z</time></trkpt><trkpt lat="37.98162" lon="15.882805"><ele>157.0</ele><time>2026-04-12T07:21:41.982Z</time></trkpt><trkpt lat="37.9816517" lon="15.8826483"><ele>157.0</ele><time>2026-04-12T07:21:42.982Z</time></trkpt><trkpt lat="37.981645" lon="15.8824583"><ele>157.0</ele><time>2026-04-12T07:21:43.982Z</time></trkpt><trkpt lat="37.9816033" lon="15.882255"><ele>157.75</ele><time>2026-04-12T07:21:44.982Z</time></trkpt><trkpt lat="37.9815683" lon="15.88207"><ele>158.5</ele><time>2026-04-12T07:21:45.982Z</time></trkpt><trkpt lat="37.9815367" lon="15.8818967"><ele>159.25</ele><time>2026-04-12T07:21:46.983Z</time></trkpt><trkpt lat="37.9815483" lon="15.8817767"><ele>160.0</ele><time>2026-04-12T07:21:47.982Z</time></trkpt><trkpt lat="37.9815717" lon="15.8816767"><ele>160.4</ele><time>2026-04-12T07:21:48.982Z</time></trkpt><trkpt lat="37.981625" lon="15.88162"><ele>160.8</ele><time>2026-04-12T07:21:49.982Z</time></trkpt><trkpt lat="37.9817433" lon="15.8816183"><ele>161.2</ele><time>2026-04-12T07:21:51.982Z</time></trkpt><trkpt lat="37.9818267" lon="15.88168"><ele>161.6</ele><time>2026-04-12T07:21:52.983Z</time></trkpt><trkpt lat="37.9819333" lon="15.88181"><ele>162.0</ele><time>2026-04-12T07:21:53.982Z</time></trkpt><trkpt lat="37.9820567" lon="15.88194"><ele>162.0</ele><time>2026-04-12T07:21:54.982Z</time></trkpt><trkpt lat="37.9821717" lon="15.8820383"><ele>162.0</ele><time>2026-04-12T07:21:55.982Z</time></trkpt><trkpt lat="37.98227" lon="15.8820517"><ele>162.0</ele><time>2026-04-12T07:21:56.982Z</time></trkpt><trkpt lat="37.9823583" lon="15.8820117"><ele>162.0</ele><time>2026-04-12T07:21:57.982Z</time></trkpt><trkpt lat="37.9824317" lon="15.88191"><ele>162.0</ele><time>2026-04-12T07:21:58.982Z</time></trkpt><trkpt lat="37.982465" lon="15.881765"><ele>162.0</ele><time>2026-04-12T07:21:59.982Z</time></trkpt><trkpt lat="37.98246" lon="15.8815967"><ele>162.0</ele><time>2026-04-12T07:22:00.982Z</time></trkpt><trkpt lat="37.9824367" lon="15.881395"><ele>162.0</ele><time>2026-04-12T07:22:01.982Z</time></trkpt><trkpt lat="37.98241" lon="15.8811217"><ele>165.33333333333334</ele><time>2026-04-12T07:22:02.982Z</time></trkpt><trkpt lat="37.98239" lon="15.880865"><ele>168.66666666666669</ele><time>2026-04-12T07:22:03.982Z</time></trkpt><trkpt lat="37.9823883" lon="15.88066"><ele>172.0</ele><time>2026-04-12T07:22:04.982Z</time></trkpt><trkpt lat="37.9823967" lon="15.88049"><ele>172.0</ele><time>2026-04-12T07:22:05.982Z</time></trkpt><trkpt lat="37.9824217" lon="15.8803517"><ele>172.0</ele><time>2026-04-12T07:22:06.982Z</time></trkpt><trkpt lat="37.9824667" lon="15.88025"><ele>172.0</ele><time>2026-04-12T07:22:07.982Z</time></trkpt><trkpt lat="37.9825367" lon="15.880175"><ele>172.0</ele><time>2026-04-12T07:22:08.982Z</time></trkpt><trkpt lat="37.9826517" lon="15.880135"><ele>172.0</ele><time>2026-04-12T07:22:09.982Z</time></trkpt><trkpt lat="37.98282" lon="15.880125"><ele>171.33333333333334</ele><time>2026-04-12T07:22:10.982Z</time></trkpt><trkpt lat="37.9830167" lon="15.8801417"><ele>170.66666666666666</ele><time>2026-04-12T07:22:11.983Z</time></trkpt><trkpt lat="37.983195" lon="15.88016"><ele>170.0</ele><time>2026-04-12T07:22:12.983Z</time></trkpt><trkpt lat="37.9833617" lon="15.8801933"><ele>177.75</ele><time>2026-04-12T07:22:13.982Z</time></trkpt><trkpt lat="37.9834933" lon="15.88023"><ele>185.5</ele><time>2026-04-12T07:22:14.982Z</time></trkpt><trkpt lat="37.9835983" lon="15.880275"><ele>193.25</ele><time>2026-04-12T07:22:15.982Z</time></trkpt><trkpt lat="37.9837133" lon="15.8803517"><ele>201.0</ele><time>2026-04-12T07:22:16.982Z</time></trkpt><trkpt lat="37.9837983" lon="15.88047"><ele>201.0</ele><time>2026-04-12T07:22:17.982Z</time></trkpt><trkpt lat="37.983845" lon="15.8805833"><ele>201.0</ele><time>2026-04-12T07:22:18.982Z</time></trkpt><trkpt lat="37.9838317" lon="15.88068"><ele>201.0</ele><time>2026-04-12T07:22:19.982Z</time></trkpt><trkpt lat="37.9837683" lon="15.880825"><ele>201.0</ele><time>2026-04-12T07:22:20.982Z</time></trkpt><trkpt lat="37.9837683" lon="15.8809883"><ele>201.0</ele><time>2026-04-12T07:22:21.983Z</time></trkpt><trkpt lat="37.9837933" lon="15.8811617"><ele>195.8</ele><time>2026-04-12T07:22:22.982Z</time></trkpt><trkpt lat="37.9838267" lon="15.8813"><ele>190.60000000000002</ele><time>2026-04-12T07:22:23.982Z</time></trkpt><trkpt lat="37.9838867" lon="15.8813983"><ele>185.4</ele><time>2026-04-12T07:22:24.982Z</time></trkpt><trkpt lat="37.9839567" lon="15.8814567"><ele>180.2</ele><time>2026-04-12T07:22:25.982Z</time></trkpt><trkpt lat="37.9840467" lon="15.8814867"><ele>175.0</ele><time>2026-04-12T07:22:26.982Z</time></trkpt><trkpt lat="37.9841617" lon="15.8814583"><ele>177.25</ele><time>2026-04-12T07:22:27.982Z</time></trkpt><trkpt lat="37.9843083" lon="15.881375"><ele>179.5</ele><time>2026-04-12T07:22:28.982Z</time></trkpt><trkpt lat="37.9844433" lon="15.8813067"><ele>181.75</ele><time>2026-04-12T07:22:29.983Z</time></trkpt><trkpt lat="37.9845733" lon="15.8812833"><ele>184.0</ele><time>2026-04-12T07:22:30.983Z</time></trkpt><trkpt lat="37.9846917" lon="15.881285"><ele>184.0</ele><time>2026-04-12T07:22:31.983Z</time></trkpt><trkpt lat="37.9848" lon="15.8813117"><ele>184.0</ele><time>2026-04-12T07:22:32.983Z</time></trkpt><trkpt lat="37.9849" lon="15.88138"><ele>184.0</ele><time>2026-04-12T07:22:33.982Z</time></trkpt><trkpt lat="37.9849683" lon="15.8814983"><ele>184.0</ele><time>2026-04-12T07:22:34.982Z</time></trkpt><trkpt lat="37.9850217" lon="15.8816333"><ele>182.16666666666669</ele><time>2026-04-12T07:22:35.982Z</time></trkpt><trkpt lat="37.9850917" lon="15.8817467"><ele>180.33333333333334</ele><time>2026-04-12T07:22:36.982Z</time></trkpt><trkpt lat="37.985155" lon="15.8818267"><ele>178.5</ele><time>2026-04-12T07:22:37.982Z</time></trkpt><trkpt lat="37.985215" lon="15.881885"><ele>176.66666666666666</ele><time>2026-04-12T07:22:38.982Z</time></trkpt><trkpt lat="37.9852933" lon="15.8818867"><ele>174.83333333333331</ele><time>2026-04-12T07:22:39.982Z</time></trkpt><trkpt lat="37.9853667" lon="15.88186"><ele>173.0</ele><time>2026-04-12T07:22:40.982Z</time></trkpt><trkpt lat="37.985435" lon="15.8817917"><ele>173.0</ele><time>2026-04-12T07:22:41.982Z</time></trkpt><trkpt lat="37.9855017" lon="15.88169"><ele>173.0</ele><time>2026-04-12T07:22:42.982Z</time></trkpt><trkpt lat="37.98557" lon="15.88157"><ele>173.0</ele><time>2026-04-12T07:22:43.982Z</time></trkpt><trkpt lat="37.9856383" lon="15.8814017"><ele>173.0</ele><time>2026-04-12T07:22:44.982Z</time></trkpt><trkpt lat="37.985715" lon="15.8811967"><ele>173.0</ele><time>2026-04-12T07:22:45.982Z</time></trkpt><trkpt lat="37.9857883" lon="15.881005"><ele>173.0</ele><time>2026-04-12T07:22:46.983Z</time></trkpt><trkpt lat="37.9858483" lon="15.880835"><ele>173.0</ele><time>2026-04-12T07:22:47.982Z</time></trkpt><trkpt lat="37.98593" lon="15.8807"><ele>173.0</ele><time>2026-04-12T07:22:48.983Z</time></trkpt><trkpt lat="37.9860283" lon="15.88058"><ele>173.5</ele><time>2026-04-12T07:22:49.982Z</time></trkpt><trkpt lat="37.9861383" lon="15.8804633"><ele>174.0</ele><time>2026-04-12T07:22:50.982Z</time></trkpt><trkpt lat="37.9862667" lon="15.880365"><ele>174.5</ele><time>2026-04-12T07:22:51.982Z</time></trkpt><trkpt lat="37.9863633" lon="15.88025"><ele>175.0</ele><time>2026-04-12T07:22:52.982Z</time></trkpt><trkpt lat="37.98643" lon="15.880105"><ele>176.75</ele><time>2026-04-12T07:22:53.982Z</time></trkpt><trkpt lat="37.98647" lon="15.8799483"><ele>178.5</ele><time>2026-04-12T07:22:54.982Z</time></trkpt><trkpt lat="37.9864817" lon="15.879755"><ele>180.25</ele><time>2026-04-12T07:22:55.983Z</time></trkpt><trkpt lat="37.986485" lon="15.8795617"><ele>182.0</ele><time>2026-04-12T07:22:56.982Z</time></trkpt><trkpt lat="37.9864933" lon="15.8793967"><ele>183.0</ele><time>2026-04-12T07:22:57.982Z</time></trkpt><trkpt lat="37.9864533" lon="15.87926"><ele>184.0</ele><time>2026-04-12T07:22:58.982Z</time></trkpt><trkpt lat="37.986435" lon="15.87914"><ele>185.0</ele><time>2026-04-12T07:22:59.983Z</time></trkpt><trkpt lat="37.9864083" lon="15.87903"><ele>186.0</ele><time>2026-04-12T07:23:00.982Z</time></trkpt><trkpt lat="37.9864133" lon="15.878935"><ele>187.0</ele><time>2026-04-12T07:23:01.983Z</time></trkpt><trkpt lat="37.9864917" lon="15.8787983"><ele>187.0</ele><time>2026-04-12T07:23:03.982Z</time></trkpt><trkpt lat="37.9865683" lon="15.8787117"><ele>187.0</ele><time>2026-04-12T07:23:04.982Z</time></trkpt><trkpt lat="37.9866617" lon="15.8786217"><ele>187.0</ele><time>2026-04-12T07:23:05.982Z</time></trkpt><trkpt lat="37.9867517" lon="15.8785133"><ele>187.0</ele><time>2026-04-12T07:23:06.983Z</time></trkpt><trkpt lat="37.986835" lon="15.8784167"><ele>189.2</ele><time>2026-04-12T07:23:07.983Z</time></trkpt><trkpt lat="37.986925" lon="15.8783533"><ele>191.39999999999998</ele><time>2026-04-12T07:23:08.983Z</time></trkpt><trkpt lat="37.9870233" lon="15.87831"><ele>193.60000000000002</ele><time>2026-04-12T07:23:09.982Z</time></trkpt><trkpt lat="37.987125" lon="15.8783"><ele>195.8</ele><time>2026-04-12T07:23:10.982Z</time></trkpt><trkpt lat="37.98726" lon="15.878315"><ele>198.0</ele><time>2026-04-12T07:23:11.983Z</time></trkpt><trkpt lat="37.9874217" lon="15.878345"><ele>200.0</ele><time>2026-04-12T07:23:12.983Z</time></trkpt><trkpt lat="37.9875733" lon="15.8783833"><ele>202.0</ele><time>2026-04-12T07:23:13.982Z</time></trkpt><trkpt lat="37.9877133" lon="15.8784017"><ele>204.0</ele><time>2026-04-12T07:23:14.982Z</time></trkpt><trkpt lat="37.9878467" lon="15.8784033"><ele>206.0</ele><time>2026-04-12T07:23:15.982Z</time></trkpt><trkpt lat="37.9879817" lon="15.8784017"><ele>206.0</ele><time>2026-04-12T07:23:16.982Z</time></trkpt><trkpt lat="37.98809" lon="15.8783683"><ele>206.0</ele><time>2026-04-12T07:23:17.983Z</time></trkpt><trkpt lat="37.988185" lon="15.8783583"><ele>206.0</ele><time>2026-04-12T07:23:18.982Z</time></trkpt><trkpt lat="37.98828" lon="15.87838"><ele>206.0</ele><time>2026-04-12T07:23:19.982Z</time></trkpt><trkpt lat="37.9883783" lon="15.87845"><ele>206.0</ele><time>2026-04-12T07:23:20.982Z</time></trkpt><trkpt lat="37.9884617" lon="15.8785317"><ele>202.8</ele><time>2026-04-12T07:23:21.982Z</time></trkpt><trkpt lat="37.988525" lon="15.878595"><ele>199.60000000000002</ele><time>2026-04-12T07:23:22.982Z</time></trkpt><trkpt lat="37.9885817" lon="15.87863"><ele>196.4</ele><time>2026-04-12T07:23:23.982Z</time></trkpt><trkpt lat="37.9886717" lon="15.8786"><ele>193.2</ele><time>2026-04-12T07:23:25.983Z</time></trkpt><trkpt lat="37.9887117" lon="15.8784217"><ele>190.0</ele><time>2026-04-12T07:23:27.983Z</time></trkpt><trkpt lat="37.9886983" lon="15.878265"><ele>190.0</ele><time>2026-04-12T07:23:28.983Z</time></trkpt><trkpt lat="37.9886867" lon="15.878095"><ele>190.0</ele><time>2026-04-12T07:23:29.983Z</time></trkpt><trkpt lat="37.9886883" lon="15.87792"><ele>190.0</ele><time>2026-04-12T07:23:30.982Z</time></trkpt><trkpt lat="37.9887217" lon="15.877775"><ele>190.0</ele><time>2026-04-12T07:23:31.982Z</time></trkpt><trkpt lat="37.9887867" lon="15.8776367"><ele>192.25</ele><time>2026-04-12T07:23:32.982Z</time></trkpt><trkpt lat="37.988875" lon="15.877525"><ele>194.5</ele><time>2026-04-12T07:23:33.982Z</time></trkpt><trkpt lat="37.9889717" lon="15.877415"><ele>196.75</ele><time>2026-04-12T07:23:34.982Z</time></trkpt><trkpt lat="37.9890683" lon="15.8772967"><ele>199.0</ele><time>2026-04-12T07:23:35.982Z</time></trkpt><trkpt lat="37.9891667" lon="15.8771517"><ele>199.25</ele><time>2026-04-12T07:23:36.982Z</time></trkpt><trkpt lat="37.9892567" lon="15.8770017"><ele>199.5</ele><time>2026-04-12T07:23:37.982Z</time></trkpt><trkpt lat="37.989355" lon="15.8768567"><ele>199.75</ele><time>2026-04-12T07:23:38.982Z</time></trkpt><trkpt lat="37.9894533" lon="15.8767433"><ele>200.0</ele><time>2026-04-12T07:23:39.982Z</time></trkpt><trkpt lat="37.9895583" lon="15.876635"><ele>200.0</ele><time>2026-04-12T07:23:40.982Z</time></trkpt><trkpt lat="37.9896617" lon="15.8765367"><ele>200.0</ele><time>2026-04-12T07:23:41.982Z</time></trkpt><trkpt lat="37.9897567" lon="15.8764567"><ele>200.0</ele><time>2026-04-12T07:23:42.982Z</time></trkpt><trkpt lat="37.9898833" lon="15.8763833"><ele>200.0</ele><time>2026-04-12T07:23:43.983Z</time></trkpt><trkpt lat="37.9900167" lon="15.8763083"><ele>199.25</ele><time>2026-04-12T07:23:44.982Z</time></trkpt><trkpt lat="37.9901483" lon="15.8762233"><ele>198.5</ele><time>2026-04-12T07:23:45.982Z</time></trkpt><trkpt lat="37.9902617" lon="15.876125"><ele>197.75</ele><time>2026-04-12T07:23:46.982Z</time></trkpt><trkpt lat="37.9903633" lon="15.87602"><ele>197.0</ele><time>2026-04-12T07:23:47.982Z</time></trkpt><trkpt lat="37.9904667" lon="15.87591"><ele>198.75</ele><time>2026-04-12T07:23:48.983Z</time></trkpt><trkpt lat="37.9905417" lon="15.875785"><ele>200.5</ele><time>2026-04-12T07:23:49.982Z</time></trkpt><trkpt lat="37.9905917" lon="15.8756333"><ele>202.25</ele><time>2026-04-12T07:23:50.982Z</time></trkpt><trkpt lat="37.990645" lon="15.8754667"><ele>204.0</ele><time>2026-04-12T07:23:51.983Z</time></trkpt><trkpt lat="37.9906983" lon="15.875315"><ele>204.0</ele><time>2026-04-12T07:23:52.982Z</time></trkpt><trkpt lat="37.9907617" lon="15.8751633"><ele>204.0</ele><time>2026-04-12T07:23:53.982Z</time></trkpt><trkpt lat="37.990845" lon="15.875015"><ele>204.0</ele><time>2026-04-12T07:23:54.982Z</time></trkpt><trkpt lat="37.9909367" lon="15.8748633"><ele>204.0</ele><time>2026-04-12T07:23:55.983Z</time></trkpt><trkpt lat="37.9910283" lon="15.8747367"><ele>203.6</ele><time>2026-04-12T07:23:56.982Z</time></trkpt><trkpt lat="37.9911083" lon="15.8746417"><ele>203.2</ele><time>2026-04-12T07:23:57.982Z</time></trkpt><trkpt lat="37.9911933" lon="15.8745483"><ele>202.79999999999998</ele><time>2026-04-12T07:23:58.982Z</time></trkpt><trkpt lat="37.9912533" lon="15.87446"><ele>202.39999999999998</ele><time>2026-04-12T07:23:59.982Z</time></trkpt><trkpt lat="37.9912883" lon="15.8743533"><ele>202.0</ele><time>2026-04-12T07:24:00.982Z</time></trkpt><trkpt lat="37.99131" lon="15.874225"><ele>203.5</ele><time>2026-04-12T07:24:01.982Z</time></trkpt><trkpt lat="37.9913417" lon="15.8740783"><ele>205.0</ele><time>2026-04-12T07:24:02.983Z</time></trkpt><trkpt lat="37.991395" lon="15.8739183"><ele>206.5</ele><time>2026-04-12T07:24:03.982Z</time></trkpt><trkpt lat="37.991475" lon="15.873755"><ele>208.0</ele><time>2026-04-12T07:24:04.982Z</time></trkpt><trkpt lat="37.9915683" lon="15.8736017"><ele>208.0</ele><time>2026-04-12T07:24:05.983Z</time></trkpt><trkpt lat="37.991655" lon="15.873445"><ele>208.0</ele><time>2026-04-12T07:24:06.982Z</time></trkpt><trkpt lat="37.99173" lon="15.8732983"><ele>208.0</ele><time>2026-04-12T07:24:07.983Z</time></trkpt><trkpt lat="37.9917983" lon="15.8731717"><ele>208.0</ele><time>2026-04-12T07:24:08.983Z</time></trkpt><trkpt lat="37.9918617" lon="15.8730667"><ele>208.60000000000002</ele><time>2026-04-12T07:24:09.982Z</time></trkpt><trkpt lat="37.9919283" lon="15.872985"><ele>209.20000000000002</ele><time>2026-04-12T07:24:10.982Z</time></trkpt><trkpt lat="37.992005" lon="15.8729067"><ele>209.8</ele><time>2026-04-12T07:24:11.982Z</time></trkpt><trkpt lat="37.99207" lon="15.872855"><ele>210.4</ele><time>2026-04-12T07:24:12.982Z</time></trkpt><trkpt lat="37.9921633" lon="15.8728133"><ele>211.0</ele><time>2026-04-12T07:24:13.983Z</time></trkpt><trkpt lat="37.9922683" lon="15.8727917"><ele>211.0</ele><time>2026-04-12T07:24:14.983Z</time></trkpt><trkpt lat="37.9923733" lon="15.8728033"><ele>211.0</ele><time>2026-04-12T07:24:15.982Z</time></trkpt><trkpt lat="37.9924683" lon="15.8728467"><ele>211.0</ele><time>2026-04-12T07:24:16.983Z</time></trkpt><trkpt lat="37.99255" lon="15.87293"><ele>211.0</ele><time>2026-04-12T07:24:17.982Z</time></trkpt><trkpt lat="37.9926283" lon="15.87304"><ele>211.0</ele><time>2026-04-12T07:24:18.982Z</time></trkpt><trkpt lat="37.9927117" lon="15.8731617"><ele>211.5</ele><time>2026-04-12T07:24:19.982Z</time></trkpt><trkpt lat="37.9927967" lon="15.8732783"><ele>212.0</ele><time>2026-04-12T07:24:20.982Z</time></trkpt><trkpt lat="37.9928983" lon="15.8733883"><ele>212.5</ele><time>2026-04-12T07:24:21.982Z</time></trkpt><trkpt lat="37.9929933" lon="15.87349"><ele>213.0</ele><time>2026-04-12T07:24:22.982Z</time></trkpt><trkpt lat="37.993085" lon="15.87359"><ele>213.5</ele><time>2026-04-12T07:24:23.982Z</time></trkpt><trkpt lat="37.9931733" lon="15.8736983"><ele>214.0</ele><time>2026-04-12T07:24:24.982Z</time></trkpt><trkpt lat="37.9932667" lon="15.8737983"><ele>214.5</ele><time>2026-04-12T07:24:25.982Z</time></trkpt><trkpt lat="37.9933517" lon="15.8739017"><ele>215.0</ele><time>2026-04-12T07:24:26.982Z</time></trkpt><trkpt lat="37.9934417" lon="15.87399"><ele>217.0</ele><time>2026-04-12T07:24:27.982Z</time></trkpt><trkpt lat="37.9935333" lon="15.8740717"><ele>219.0</ele><time>2026-04-12T07:24:28.982Z</time></trkpt><trkpt lat="37.99363" lon="15.87414"><ele>221.0</ele><time>2026-04-12T07:24:29.983Z</time></trkpt><trkpt lat="37.9937333" lon="15.8741883"><ele>223.0</ele><time>2026-04-12T07:24:30.982Z</time></trkpt><trkpt lat="37.9938433" lon="15.87422"><ele>225.0</ele><time>2026-04-12T07:24:31.982Z</time></trkpt><trkpt lat="37.9939583" lon="15.8742217"><ele>225.0</ele><time>2026-04-12T07:24:32.982Z</time></trkpt><trkpt lat="37.9940733" lon="15.8742117"><ele>225.0</ele><time>2026-04-12T07:24:33.982Z</time></trkpt><trkpt lat="37.994175" lon="15.8742083"><ele>225.0</ele><time>2026-04-12T07:24:34.983Z</time></trkpt><trkpt lat="37.99427" lon="15.87422"><ele>225.0</ele><time>2026-04-12T07:24:35.982Z</time></trkpt><trkpt lat="37.9943467" lon="15.8742633"><ele>225.0</ele><time>2026-04-12T07:24:36.983Z</time></trkpt><trkpt lat="37.99441" lon="15.8743083"><ele>227.66666666666666</ele><time>2026-04-12T07:24:37.982Z</time></trkpt><trkpt lat="37.99449" lon="15.87441"><ele>230.33333333333331</ele><time>2026-04-12T07:24:39.982Z</time></trkpt><trkpt lat="37.99455" lon="15.8744683"><ele>233.0</ele><time>2026-04-12T07:24:41.983Z</time></trkpt><trkpt lat="37.9946233" lon="15.8743683"><ele>235.66666666666666</ele><time>2026-04-12T07:24:44.983Z</time></trkpt><trkpt lat="37.9946417" lon="15.874285"><ele>238.33333333333331</ele><time>2026-04-12T07:24:45.982Z</time></trkpt><trkpt lat="37.9946517" lon="15.8741867"><ele>241.0</ele><time>2026-04-12T07:24:46.982Z</time></trkpt><trkpt lat="37.994695" lon="15.8740683"><ele>241.0</ele><time>2026-04-12T07:24:47.982Z</time></trkpt><trkpt lat="37.99476" lon="15.87392"><ele>241.0</ele><time>2026-04-12T07:24:48.982Z</time></trkpt><trkpt lat="37.9948217" lon="15.873785"><ele>241.0</ele><time>2026-04-12T07:24:49.982Z</time></trkpt><trkpt lat="37.9949" lon="15.8736767"><ele>241.0</ele><time>2026-04-12T07:24:50.983Z</time></trkpt><trkpt lat="37.9949717" lon="15.8736133"><ele>244.75</ele><time>2026-04-12T07:24:51.983Z</time></trkpt><trkpt lat="37.9950533" lon="15.8735817"><ele>248.5</ele><time>2026-04-12T07:24:52.982Z</time></trkpt><trkpt lat="37.9951533" lon="15.8735683"><ele>252.25</ele><time>2026-04-12T07:24:53.982Z</time></trkpt><trkpt lat="37.9952933" lon="15.8735867"><ele>256.0</ele><time>2026-04-12T07:24:54.982Z</time></trkpt><trkpt lat="37.9954183" lon="15.8735817"><ele>256.0</ele><time>2026-04-12T07:24:55.982Z</time></trkpt><trkpt lat="37.9955283" lon="15.8735683"><ele>256.0</ele><time>2026-04-12T07:24:56.982Z</time></trkpt><trkpt lat="37.99563" lon="15.8735733"><ele>256.0</ele><time>2026-04-12T07:24:57.983Z</time></trkpt><trkpt lat="37.9957383" lon="15.8736083"><ele>256.0</ele><time>2026-04-12T07:24:58.982Z</time></trkpt><trkpt lat="37.99584" lon="15.87369"><ele>256.0</ele><time>2026-04-12T07:24:59.982Z</time></trkpt><trkpt lat="37.9959283" lon="15.8737617"><ele>259.8</ele><time>2026-04-12T07:25:00.982Z</time></trkpt><trkpt lat="37.9960067" lon="15.8737967"><ele>263.6</ele><time>2026-04-12T07:25:01.983Z</time></trkpt><trkpt lat="37.9960833" lon="15.8737567"><ele>267.4</ele><time>2026-04-12T07:25:02.982Z</time></trkpt><trkpt lat="37.996145" lon="15.8736817"><ele>271.2</ele><time>2026-04-12T07:25:03.982Z</time></trkpt><trkpt lat="37.9962017" lon="15.8735883"><ele>275.0</ele><time>2026-04-12T07:25:04.982Z</time></trkpt><trkpt lat="37.9962467" lon="15.873465"><ele>271.0</ele><time>2026-04-12T07:25:05.982Z</time></trkpt><trkpt lat="37.996275" lon="15.8733083"><ele>267.0</ele><time>2026-04-12T07:25:06.982Z</time></trkpt><trkpt lat="37.9963267" lon="15.8732017"><ele>263.0</ele><time>2026-04-12T07:25:07.983Z</time></trkpt><trkpt lat="37.996395" lon="15.87314"><ele>259.0</ele><time>2026-04-12T07:25:08.982Z</time></trkpt><trkpt lat="37.9964867" lon="15.873105"><ele>255.0</ele><time>2026-04-12T07:25:09.983Z</time></trkpt><trkpt lat="37.9965967" lon="15.8730983"><ele>255.6</ele><time>2026-04-12T07:25:10.983Z</time></trkpt><trkpt lat="37.996715" lon="15.8731183"><ele>256.2</ele><time>2026-04-12T07:25:11.982Z</time></trkpt><trkpt lat="37.9968317" lon="15.8731467"><ele>256.8</ele><time>2026-04-12T07:25:12.982Z</time></trkpt><trkpt lat="37.99693" lon="15.8731483"><ele>257.4</ele><time>2026-04-12T07:25:13.982Z</time></trkpt><trkpt lat="37.9970367" lon="15.8731717"><ele>258.0</ele><time>2026-04-12T07:25:14.982Z</time></trkpt><trkpt lat="37.997175" lon="15.8732483"><ele>258.0</ele><time>2026-04-12T07:25:15.982Z</time></trkpt><trkpt lat="37.9973067" lon="15.87328"><ele>258.0</ele><time>2026-04-12T07:25:16.982Z</time></trkpt><trkpt lat="37.9974367" lon="15.8733183"><ele>258.0</ele><time>2026-04-12T07:25:17.982Z</time></trkpt><trkpt lat="37.99757" lon="15.87335"><ele>258.0</ele><time>2026-04-12T07:25:18.982Z</time></trkpt><trkpt lat="37.997685" lon="15.87334"><ele>257.75</ele><time>2026-04-12T07:25:19.982Z</time></trkpt><trkpt lat="37.99781" lon="15.8732983"><ele>257.5</ele><time>2026-04-12T07:25:20.982Z</time></trkpt><trkpt lat="37.9979283" lon="15.873265"><ele>257.25</ele><time>2026-04-12T07:25:21.982Z</time></trkpt><trkpt lat="37.9980417" lon="15.87328"><ele>257.0</ele><time>2026-04-12T07:25:22.982Z</time></trkpt><trkpt lat="37.9981483" lon="15.873325"><ele>257.0</ele><time>2026-04-12T07:25:23.982Z</time></trkpt><trkpt lat="37.998245" lon="15.8733983"><ele>257.0</ele><time>2026-04-12T07:25:24.982Z</time></trkpt><trkpt lat="37.9983083" lon="15.873485"><ele>257.0</ele><time>2026-04-12T07:25:25.982Z</time></trkpt><trkpt lat="37.9983533" lon="15.8735983"><ele>257.0</ele><time>2026-04-12T07:25:26.982Z</time></trkpt><trkpt lat="37.9983817" lon="15.873735"><ele>257.0</ele><time>2026-04-12T07:25:27.983Z</time></trkpt><trkpt lat="37.9984317" lon="15.8738917"><ele>260.8</ele><time>2026-04-12T07:25:28.982Z</time></trkpt><trkpt lat="37.9984917" lon="15.8740367"><ele>264.6</ele><time>2026-04-12T07:25:29.982Z</time></trkpt><trkpt lat="37.9985517" lon="15.87417"><ele>268.40000000000003</ele><time>2026-04-12T07:25:30.982Z</time></trkpt><trkpt lat="37.9986083" lon="15.8742817"><ele>272.2</ele><time>2026-04-12T07:25:31.982Z</time></trkpt><trkpt lat="37.9986533" lon="15.8743767"><ele>276.0</ele><time>2026-04-12T07:25:32.982Z</time></trkpt><trkpt lat="37.9987133" lon="15.874485"><ele>280.2</ele><time>2026-04-12T07:25:34.982Z</time></trkpt><trkpt lat="37.998765" lon="15.8745417"><ele>284.40000000000003</ele><time>2026-04-12T07:25:36.982Z</time></trkpt><trkpt lat="37.99872" lon="15.8745983"><ele>288.6</ele><time>2026-04-12T07:26:35.983Z</time></trkpt><trkpt lat="37.9986067" lon="15.8745"><ele>292.8</ele><time>2026-04-12T07:26:37.982Z</time></trkpt><trkpt lat="37.9985333" lon="15.8744167"><ele>297.0</ele><time>2026-04-12T07:26:38.982Z</time></trkpt><trkpt lat="37.99845" lon="15.87432"><ele>292.8</ele><time>2026-04-12T07:26:39.982Z</time></trkpt><trkpt lat="37.9983583" lon="15.874215"><ele>288.6</ele><time>2026-04-12T07:26:40.983Z</time></trkpt><trkpt lat="37.9982667" lon="15.8741133"><ele>284.40000000000003</ele><time>2026-04-12T07:26:41.982Z</time></trkpt><trkpt lat="37.998185" lon="15.8740133"><ele>280.2</ele><time>2026-04-12T07:26:42.982Z</time></trkpt><trkpt lat="37.9981317" lon="15.8739433"><ele>276.0</ele><time>2026-04-12T07:26:43.983Z</time></trkpt><trkpt lat="37.9980783" lon="15.8739"><ele>275.8</ele><time>2026-04-12T07:26:44.982Z</time></trkpt><trkpt lat="37.9979633" lon="15.8738867"><ele>275.6</ele><time>2026-04-12T07:26:46.982Z</time></trkpt><trkpt lat="37.9978667" lon="15.873935"><ele>275.4</ele><time>2026-04-12T07:26:48.982Z</time></trkpt><trkpt lat="37.9977533" lon="15.87402"><ele>275.2</ele><time>2026-04-12T07:26:50.983Z</time></trkpt><trkpt lat="37.9976867" lon="15.8740517"><ele>275.0</ele><time>2026-04-12T07:26:51.983Z</time></trkpt><trkpt lat="37.9976217" lon="15.87406"><ele>275.0</ele><time>2026-04-12T07:26:52.982Z</time></trkpt><trkpt lat="37.997555" lon="15.8740383"><ele>275.0</ele><time>2026-04-12T07:26:53.982Z</time></trkpt><trkpt lat="37.99749" lon="15.874005"><ele>275.0</ele><time>2026-04-12T07:26:54.983Z</time></trkpt><trkpt lat="37.997425" lon="15.8739583"><ele>275.0</ele><time>2026-04-12T07:26:55.982Z</time></trkpt><trkpt lat="37.9973717" lon="15.873905"><ele>275.0</ele><time>2026-04-12T07:26:56.983Z</time></trkpt><trkpt lat="37.9972883" lon="15.8738533"><ele>275.0</ele><time>2026-04-12T07:26:58.982Z</time></trkpt><trkpt lat="37.997205" lon="15.8739017"><ele>277.14285714285717</ele><time>2026-04-12T07:27:00.983Z</time></trkpt><trkpt lat="37.9971533" lon="15.873965"><ele>279.2857142857143</ele><time>2026-04-12T07:27:01.982Z</time></trkpt><trkpt lat="37.997105" lon="15.8740283"><ele>281.42857142857144</ele><time>2026-04-12T07:27:02.983Z</time></trkpt><trkpt lat="37.99706" lon="15.8740917"><ele>283.57142857142856</ele><time>2026-04-12T07:27:03.982Z</time></trkpt><trkpt lat="37.9970267" lon="15.8741833"><ele>285.7142857142857</ele><time>2026-04-12T07:27:04.982Z</time></trkpt><trkpt lat="37.9970117" lon="15.8742767"><ele>287.8571428571429</ele><time>2026-04-12T07:27:05.982Z</time></trkpt><trkpt lat="37.9970067" lon="15.8743717"><ele>290.0</ele><time>2026-04-12T07:27:06.982Z</time></trkpt><trkpt lat="37.99702" lon="15.8744883"><ele>291.14285714285717</ele><time>2026-04-12T07:27:08.982Z</time></trkpt><trkpt lat="37.997125" lon="15.8744783"><ele>292.28571428571433</ele><time>2026-04-12T07:27:10.982Z</time></trkpt><trkpt lat="37.99719" lon="15.8744517"><ele>293.42857142857144</ele><time>2026-04-12T07:27:11.982Z</time></trkpt><trkpt lat="37.997255" lon="15.8744433"><ele>294.57142857142856</ele><time>2026-04-12T07:27:12.982Z</time></trkpt><trkpt lat="37.9973233" lon="15.8744433"><ele>295.71428571428567</ele><time>2026-04-12T07:27:13.982Z</time></trkpt><trkpt lat="37.9973883" lon="15.87445"><ele>296.85714285714283</ele><time>2026-04-12T07:27:14.982Z</time></trkpt><trkpt lat="37.997455" lon="15.8744733"><ele>298.0</ele><time>2026-04-12T07:27:15.982Z</time></trkpt><trkpt lat="37.9975167" lon="15.87451"><ele>298.0</ele><time>2026-04-12T07:27:16.982Z</time></trkpt><trkpt lat="37.9975917" lon="15.8745317"><ele>298.0</ele><time>2026-04-12T07:27:17.983Z</time></trkpt><trkpt lat="37.99766" lon="15.8745533"><ele>298.0</ele><time>2026-04-12T07:27:18.983Z</time></trkpt><trkpt lat="37.997735" lon="15.8745683"><ele>298.0</ele><time>2026-04-12T07:27:19.982Z</time></trkpt><trkpt lat="37.9978133" lon="15.8745883"><ele>298.0</ele><time>2026-04-12T07:27:20.982Z</time></trkpt><trkpt lat="37.9978817" lon="15.874615"><ele>298.0</ele><time>2026-04-12T07:27:21.982Z</time></trkpt><trkpt lat="37.9979417" lon="15.8746533"><ele>298.0</ele><time>2026-04-12T07:27:22.982Z</time></trkpt><trkpt lat="37.9979983" lon="15.874695"><ele>298.0</ele><time>2026-04-12T07:27:23.982Z</time></trkpt><trkpt lat="37.99804" lon="15.874755"><ele>298.0</ele><time>2026-04-12T07:27:24.983Z</time></trkpt><trkpt lat="37.998085" lon="15.8748583"><ele>298.0</ele><time>2026-04-12T07:27:26.982Z</time></trkpt><trkpt lat="37.99799" lon="15.874815"><ele>298.0</ele><time>2026-04-12T07:27:32.982Z</time></trkpt><trkpt lat="37.9978917" lon="15.8747183"><ele>298.0</ele><time>2026-04-12T07:27:34.982Z</time></trkpt><trkpt lat="37.9978183" lon="15.8746967"><ele>298.0</ele><time>2026-04-12T07:27:35.982Z</time></trkpt><trkpt lat="37.9977433" lon="15.874685"><ele>298.0</ele><time>2026-04-12T07:27:36.983Z</time></trkpt><trkpt lat="37.997665" lon="15.8746767"><ele>298.0</ele><time>2026-04-12T07:27:37.983Z</time></trkpt><trkpt lat="37.9975767" lon="15.874675"><ele>298.0</ele><time>2026-04-12T07:27:38.982Z</time></trkpt><trkpt lat="37.9974967" lon="15.8747"><ele>298.0</ele><time>2026-04-12T07:27:39.982Z</time></trkpt><trkpt lat="37.997425" lon="15.8747117"><ele>298.0</ele><time>2026-04-12T07:27:40.982Z</time></trkpt><trkpt lat="37.9973533" lon="15.8747233"><ele>302.2</ele><time>2026-04-12T07:27:41.982Z</time></trkpt><trkpt lat="37.9972467" lon="15.8748067"><ele>306.4</ele><time>2026-04-12T07:27:43.982Z</time></trkpt><trkpt lat="37.9972083" lon="15.8748783"><ele>310.59999999999997</ele><time>2026-04-12T07:27:44.982Z</time></trkpt><trkpt lat="37.99716" lon="15.875005"><ele>314.8</ele><time>2026-04-12T07:27:46.982Z</time></trkpt><trkpt lat="37.9970883" lon="15.8750683"><ele>319.0</ele><time>2026-04-12T07:27:48.982Z</time></trkpt><trkpt lat="37.9970033" lon="15.8751083"><ele>322.16666666666663</ele><time>2026-04-12T07:27:50.982Z</time></trkpt><trkpt lat="37.99694" lon="15.8751583"><ele>325.3333333333333</ele><time>2026-04-12T07:27:51.982Z</time></trkpt><trkpt lat="37.996875" lon="15.8752183"><ele>328.5</ele><time>2026-04-12T07:27:52.983Z</time></trkpt><trkpt lat="37.9968267" lon="15.87528"><ele>331.6666666666667</ele><time>2026-04-12T07:27:53.982Z</time></trkpt><trkpt lat="37.99678" lon="15.8753617"><ele>334.83333333333337</ele><time>2026-04-12T07:27:54.982Z</time></trkpt><trkpt lat="37.9967433" lon="15.8754717"><ele>338.0</ele><time>2026-04-12T07:27:55.982Z</time></trkpt><trkpt lat="37.9967" lon="15.87557"><ele>338.0</ele><time>2026-04-12T07:27:56.982Z</time></trkpt><trkpt lat="37.996665" lon="15.8756567"><ele>338.0</ele><time>2026-04-12T07:27:57.982Z</time></trkpt><trkpt lat="37.99663" lon="15.87576"><ele>338.0</ele><time>2026-04-12T07:27:59.982Z</time></trkpt><trkpt lat="37.99669" lon="15.8758317"><ele>338.0</ele><time>2026-04-12T07:28:02.983Z</time></trkpt><trkpt lat="37.9968167" lon="15.8757983"><ele>338.0</ele><time>2026-04-12T07:28:04.982Z</time></trkpt><trkpt lat="37.996895" lon="15.8757433"><ele>338.0</ele><time>2026-04-12T07:28:05.983Z</time></trkpt><trkpt lat="37.9969683" lon="15.875675"><ele>338.0</ele><time>2026-04-12T07:28:06.983Z</time></trkpt><trkpt lat="37.9970283" lon="15.8756167"><ele>338.0</ele><time>2026-04-12T07:28:07.983Z</time></trkpt><trkpt lat="37.9970833" lon="15.87555"><ele>338.0</ele><time>2026-04-12T07:28:08.982Z</time></trkpt><trkpt lat="37.9971317" lon="15.87549"><ele>338.0</ele><time>2026-04-12T07:28:09.982Z</time></trkpt><trkpt lat="37.99718" lon="15.8754367"><ele>338.0</ele><time>2026-04-12T07:28:10.982Z</time></trkpt><trkpt lat="37.9972917" lon="15.87539"><ele>338.0</ele><time>2026-04-12T07:28:12.983Z</time></trkpt><trkpt lat="37.997385" lon="15.8753683"><ele>338.0</ele><time>2026-04-12T07:28:14.982Z</time></trkpt><trkpt lat="37.9974933" lon="15.8753967"><ele>338.0</ele><time>2026-04-12T07:28:16.982Z</time></trkpt><trkpt lat="37.9975633" lon="15.8754183"><ele>338.0</ele><time>2026-04-12T07:28:17.982Z</time></trkpt><trkpt lat="37.99763" lon="15.8754417"><ele>338.0</ele><time>2026-04-12T07:28:18.982Z</time></trkpt><trkpt lat="37.997695" lon="15.875465"><ele>338.0</ele><time>2026-04-12T07:28:19.982Z</time></trkpt><trkpt lat="37.99778" lon="15.8755367"><ele>335.4</ele><time>2026-04-12T07:28:21.983Z</time></trkpt><trkpt lat="37.997825" lon="15.8756383"><ele>332.79999999999995</ele><time>2026-04-12T07:28:23.983Z</time></trkpt><trkpt lat="37.9978533" lon="15.8757183"><ele>330.2</ele><time>2026-04-12T07:28:24.982Z</time></trkpt><trkpt lat="37.9979117" lon="15.8758233"><ele>327.6</ele><time>2026-04-12T07:28:26.982Z</time></trkpt><trkpt lat="37.99793" lon="15.87594"><ele>325.0</ele><time>2026-04-12T07:28:28.982Z</time></trkpt><trkpt lat="37.9979333" lon="15.8760633"><ele>332.6</ele><time>2026-04-12T07:28:30.982Z</time></trkpt><trkpt lat="37.9979617" lon="15.87618"><ele>340.2</ele><time>2026-04-12T07:28:32.982Z</time></trkpt><trkpt lat="37.9980017" lon="15.8762917"><ele>347.79999999999995</ele><time>2026-04-12T07:28:34.982Z</time></trkpt><trkpt lat="37.9979933" lon="15.8763883"><ele>355.4</ele><time>2026-04-12T07:28:36.982Z</time></trkpt><trkpt lat="37.9979133" lon="15.87642"><ele>363.0</ele><time>2026-04-12T07:28:39.982Z</time></trkpt><trkpt lat="37.9978067" lon="15.8763167"><ele>363.0</ele><time>2026-04-12T07:28:41.982Z</time></trkpt><trkpt lat="37.99775" lon="15.876265"><ele>363.0</ele><time>2026-04-12T07:28:42.983Z</time></trkpt><trkpt lat="37.99765" lon="15.8762167"><ele>363.0</ele><time>2026-04-12T07:28:44.982Z</time></trkpt><trkpt lat="37.9975717" lon="15.87624"><ele>363.0</ele><time>2026-04-12T07:28:46.982Z</time></trkpt><trkpt lat="37.9975133" lon="15.87635"><ele>363.0</ele><time>2026-04-12T07:28:48.983Z</time></trkpt><trkpt lat="37.9974883" lon="15.876435"><ele>363.0</ele><time>2026-04-12T07:28:49.983Z</time></trkpt><trkpt lat="37.99746" lon="15.8765517"><ele>363.2</ele><time>2026-04-12T07:28:50.982Z</time></trkpt><trkpt lat="37.99743" lon="15.8766917"><ele>363.4</ele><time>2026-04-12T07:28:51.982Z</time></trkpt><trkpt lat="37.997395" lon="15.876825"><ele>363.59999999999997</ele><time>2026-04-12T07:28:52.982Z</time></trkpt><trkpt lat="37.9973667" lon="15.8769433"><ele>363.79999999999995</ele><time>2026-04-12T07:28:53.982Z</time></trkpt><trkpt lat="37.99734" lon="15.877045"><ele>364.0</ele><time>2026-04-12T07:28:54.982Z</time></trkpt><trkpt lat="37.99732" lon="15.8771317"><ele>369.3333333333333</ele><time>2026-04-12T07:28:55.983Z</time></trkpt><trkpt lat="37.9973" lon="15.8772083"><ele>374.66666666666663</ele><time>2026-04-12T07:28:56.983Z</time></trkpt><trkpt lat="37.997255" lon="15.8773217"><ele>380.0</ele><time>2026-04-12T07:28:58.982Z</time></trkpt><trkpt lat="37.9971767" lon="15.8773867"><ele>385.3333333333333</ele><time>2026-04-12T07:29:00.982Z</time></trkpt><trkpt lat="37.99711" lon="15.8774133"><ele>390.6666666666667</ele><time>2026-04-12T07:29:01.982Z</time></trkpt><trkpt lat="37.9970433" lon="15.8774183"><ele>396.0</ele><time>2026-04-12T07:29:02.982Z</time></trkpt><trkpt lat="37.99698" lon="15.8774233"><ele>396.0</ele><time>2026-04-12T07:29:03.982Z</time></trkpt><trkpt lat="37.9968733" lon="15.877405"><ele>396.0</ele><time>2026-04-12T07:29:05.982Z</time></trkpt><trkpt lat="37.9967617" lon="15.877455"><ele>396.0</ele><time>2026-04-12T07:29:07.982Z</time></trkpt><trkpt lat="37.99669" lon="15.8774917"><ele>396.0</ele><time>2026-04-12T07:29:08.982Z</time></trkpt><trkpt lat="37.9966167" lon="15.8775117"><ele>396.0</ele><time>2026-04-12T07:29:09.983Z</time></trkpt><trkpt lat="37.996515" lon="15.8775167"><ele>399.6</ele><time>2026-04-12T07:29:11.982Z</time></trkpt><trkpt lat="37.99641" lon="15.8776033"><ele>403.20000000000005</ele><time>2026-04-12T07:29:13.982Z</time></trkpt><trkpt lat="37.9963467" lon="15.87767"><ele>406.79999999999995</ele><time>2026-04-12T07:29:14.982Z</time></trkpt><trkpt lat="37.9962783" lon="15.8777267"><ele>410.4</ele><time>2026-04-12T07:29:15.982Z</time></trkpt><trkpt lat="37.9962283" lon="15.8777833"><ele>414.0</ele><time>2026-04-12T07:29:16.982Z</time></trkpt><trkpt lat="37.99615" lon="15.8778867"><ele>414.0</ele><time>2026-04-12T07:29:18.982Z</time></trkpt><trkpt lat="37.99606" lon="15.87801"><ele>414.0</ele><time>2026-04-12T07:29:20.982Z</time></trkpt><trkpt lat="37.9960133" lon="15.87807"><ele>414.0</ele><time>2026-04-12T07:29:21.982Z</time></trkpt><trkpt lat="37.9959233" lon="15.8781617"><ele>414.0</ele><time>2026-04-12T07:29:23.983Z</time></trkpt><trkpt lat="37.9958133" lon="15.8782117"><ele>414.0</ele><time>2026-04-12T07:29:25.982Z</time></trkpt><trkpt lat="37.9957083" lon="15.878235"><ele>413.0</ele><time>2026-04-12T07:29:27.982Z</time></trkpt><trkpt lat="37.995615" lon="15.8782817"><ele>412.0</ele><time>2026-04-12T07:29:29.983Z</time></trkpt><trkpt lat="37.9955233" lon="15.8783667"><ele>411.0</ele><time>2026-04-12T07:29:31.982Z</time></trkpt><trkpt lat="37.9954817" lon="15.8784617"><ele>410.0</ele><time>2026-04-12T07:29:33.982Z</time></trkpt><trkpt lat="37.9955183" lon="15.8785467"><ele>409.0</ele><time>2026-04-12T07:29:35.982Z</time></trkpt><trkpt lat="37.9956267" lon="15.8785467"><ele>409.0</ele><time>2026-04-12T07:29:37.982Z</time></trkpt><trkpt lat="37.9957583" lon="15.8785533"><ele>409.0</ele><time>2026-04-12T07:29:39.982Z</time></trkpt><trkpt lat="37.9958383" lon="15.8785533"><ele>409.0</ele><time>2026-04-12T07:29:40.982Z</time></trkpt><trkpt lat="37.9959583" lon="15.8785017"><ele>409.0</ele><time>2026-04-12T07:29:42.982Z</time></trkpt><trkpt lat="37.996005" lon="15.878445"><ele>409.0</ele><time>2026-04-12T07:29:43.982Z</time></trkpt><trkpt lat="37.9960467" lon="15.87837"><ele>410.0</ele><time>2026-04-12T07:29:44.982Z</time></trkpt><trkpt lat="37.99608" lon="15.8782967"><ele>411.0</ele><time>2026-04-12T07:29:45.983Z</time></trkpt><trkpt lat="37.9961483" lon="15.8781717"><ele>412.0</ele><time>2026-04-12T07:29:47.982Z</time></trkpt><trkpt lat="37.99624" lon="15.8780933"><ele>413.0</ele><time>2026-04-12T07:29:49.982Z</time></trkpt><trkpt lat="37.9963017" lon="15.8780667"><ele>414.0</ele><time>2026-04-12T07:29:50.983Z</time></trkpt><trkpt lat="37.996415" lon="15.8780567"><ele>414.0</ele><time>2026-04-12T07:29:52.982Z</time></trkpt><trkpt lat="37.9964783" lon="15.87806"><ele>414.0</ele><time>2026-04-12T07:29:53.982Z</time></trkpt><trkpt lat="37.9965467" lon="15.878075"><ele>414.0</ele><time>2026-04-12T07:29:54.982Z</time></trkpt><trkpt lat="37.9966183" lon="15.8780717"><ele>414.0</ele><time>2026-04-12T07:29:55.982Z</time></trkpt><trkpt lat="37.996735" lon="15.87805"><ele>414.0</ele><time>2026-04-12T07:29:57.982Z</time></trkpt><trkpt lat="37.9968433" lon="15.878085"><ele>414.0</ele><time>2026-04-12T07:29:59.982Z</time></trkpt><trkpt lat="37.9969467" lon="15.8781233"><ele>416.8333333333333</ele><time>2026-04-12T07:30:01.982Z</time></trkpt><trkpt lat="37.9970583" lon="15.8780833"><ele>419.66666666666663</ele><time>2026-04-12T07:30:03.983Z</time></trkpt><trkpt lat="37.997125" lon="15.8780617"><ele>422.5</ele><time>2026-04-12T07:30:04.982Z</time></trkpt><trkpt lat="37.9971967" lon="15.8780283"><ele>425.3333333333333</ele><time>2026-04-12T07:30:05.982Z</time></trkpt><trkpt lat="37.9972767" lon="15.8779983"><ele>428.16666666666663</ele><time>2026-04-12T07:30:06.982Z</time></trkpt><trkpt lat="37.997355" lon="15.8779833"><ele>431.0</ele><time>2026-04-12T07:30:07.982Z</time></trkpt><trkpt lat="37.9974283" lon="15.8779617"><ele>430.99999999999994</ele><time>2026-04-12T07:30:08.982Z</time></trkpt><trkpt lat="37.9975" lon="15.8779267"><ele>431.0</ele><time>2026-04-12T07:30:09.983Z</time></trkpt><trkpt lat="37.9975633" lon="15.8778833"><ele>431.0</ele><time>2026-04-12T07:30:10.982Z</time></trkpt><trkpt lat="37.9976317" lon="15.8778533"><ele>431.0</ele><time>2026-04-12T07:30:11.983Z</time></trkpt><trkpt lat="37.9977067" lon="15.8778433"><ele>430.99999999999994</ele><time>2026-04-12T07:30:12.982Z</time></trkpt><trkpt lat="37.997785" lon="15.8778333"><ele>431.0</ele><time>2026-04-12T07:30:13.982Z</time></trkpt><trkpt lat="37.9978667" lon="15.8778133"><ele>432.20000000000005</ele><time>2026-04-12T07:30:14.982Z</time></trkpt><trkpt lat="37.9979633" lon="15.8777933"><ele>433.40000000000003</ele><time>2026-04-12T07:30:15.983Z</time></trkpt><trkpt lat="37.99806" lon="15.87777"><ele>434.6</ele><time>2026-04-12T07:30:16.982Z</time></trkpt><trkpt lat="37.99813" lon="15.8777417"><ele>435.8</ele><time>2026-04-12T07:30:17.982Z</time></trkpt><trkpt lat="37.9982417" lon="15.8776817"><ele>437.0</ele><time>2026-04-12T07:30:19.983Z</time></trkpt><trkpt lat="37.9983567" lon="15.8776483"><ele>436.99999999999994</ele><time>2026-04-12T07:30:21.982Z</time></trkpt><trkpt lat="37.9984817" lon="15.8776633"><ele>437.0</ele><time>2026-04-12T07:30:23.982Z</time></trkpt><trkpt lat="37.9985467" lon="15.877695"><ele>437.0</ele><time>2026-04-12T07:30:24.982Z</time></trkpt><trkpt lat="37.99861" lon="15.8777483"><ele>437.0</ele><time>2026-04-12T07:30:25.982Z</time></trkpt><trkpt lat="37.9986733" lon="15.8778067"><ele>436.99999999999994</ele><time>2026-04-12T07:30:26.983Z</time></trkpt><trkpt lat="37.99874" lon="15.877865"><ele>437.0</ele><time>2026-04-12T07:30:27.983Z</time></trkpt><trkpt lat="37.998815" lon="15.8779167"><ele>436.99999999999994</ele><time>2026-04-12T07:30:28.982Z</time></trkpt><trkpt lat="37.9988967" lon="15.8779567"><ele>437.0</ele><time>2026-04-12T07:30:29.982Z</time></trkpt><trkpt lat="37.9989867" lon="15.8779933"><ele>437.0</ele><time>2026-04-12T07:30:30.983Z</time></trkpt><trkpt lat="37.9990667" lon="15.8780267"><ele>437.0</ele><time>2026-04-12T07:30:31.982Z</time></trkpt><trkpt lat="37.9991467" lon="15.8780683"><ele>436.99999999999994</ele><time>2026-04-12T07:30:32.982Z</time></trkpt><trkpt lat="37.9992267" lon="15.8781017"><ele>437.0</ele><time>2026-04-12T07:30:33.982Z</time></trkpt><trkpt lat="37.9992967" lon="15.87813"><ele>438.20000000000005</ele><time>2026-04-12T07:30:34.983Z</time></trkpt><trkpt lat="37.9994033" lon="15.8782017"><ele>439.40000000000003</ele><time>2026-04-12T07:30:36.983Z</time></trkpt><trkpt lat="37.999485" lon="15.878325"><ele>440.59999999999997</ele><time>2026-04-12T07:30:38.982Z</time></trkpt><trkpt lat="37.9995467" lon="15.8784383"><ele>441.79999999999995</ele><time>2026-04-12T07:30:40.982Z</time></trkpt><trkpt lat="37.9995683" lon="15.878515"><ele>443.0</ele><time>2026-04-12T07:30:42.982Z</time></trkpt><trkpt lat="37.9996367" lon="15.8785517"><ele>442.99999999999994</ele><time>2026-04-12T07:30:45.982Z</time></trkpt><trkpt lat="37.999715" lon="15.8785667"><ele>443.0</ele><time>2026-04-12T07:30:47.983Z</time></trkpt><trkpt lat="37.99979" lon="15.8786217"><ele>443.0</ele><time>2026-04-12T07:30:49.983Z</time></trkpt><trkpt lat="37.9999033" lon="15.8786917"><ele>443.0</ele><time>2026-04-12T07:30:51.982Z</time></trkpt><trkpt lat="37.99997" lon="15.8787217"><ele>442.99999999999994</ele><time>2026-04-12T07:30:52.982Z</time></trkpt><trkpt lat="38.0000417" lon="15.8787483"><ele>443.0</ele><time>2026-04-12T07:30:53.983Z</time></trkpt><trkpt lat="38.0001133" lon="15.87878"><ele>442.99999999999994</ele><time>2026-04-12T07:30:54.982Z</time></trkpt><trkpt lat="38.0001767" lon="15.878815"><ele>443.0</ele><time>2026-04-12T07:30:55.982Z</time></trkpt><trkpt lat="38.000245" lon="15.8788517"><ele>443.0</ele><time>2026-04-12T07:30:56.982Z</time></trkpt><trkpt lat="38.0003067" lon="15.8788867"><ele>443.0</ele><time>2026-04-12T07:30:57.983Z</time></trkpt><trkpt lat="38.0003933" lon="15.8789417"><ele>442.99999999999994</ele><time>2026-04-12T07:30:59.983Z</time></trkpt><trkpt lat="38.0004633" lon="15.87898"><ele>443.0</ele><time>2026-04-12T07:31:02.982Z</time></trkpt><trkpt lat="38.0004317" lon="15.8789017"><ele>443.0</ele><time>2026-04-12T07:31:06.982Z</time></trkpt><trkpt lat="38.0003133" lon="15.878845"><ele>443.0</ele><time>2026-04-12T07:31:08.982Z</time></trkpt><trkpt lat="38.000215" lon="15.8788033"><ele>443.0</ele><time>2026-04-12T07:31:09.982Z</time></trkpt><trkpt lat="38.0001067" lon="15.8787467"><ele>443.0</ele><time>2026-04-12T07:31:10.983Z</time></trkpt><trkpt lat="37.999995" lon="15.8787017"><ele>443.0</ele><time>2026-04-12T07:31:11.982Z</time></trkpt><trkpt lat="37.9998933" lon="15.8786633"><ele>442.99999999999994</ele><time>2026-04-12T07:31:12.982Z</time></trkpt><trkpt lat="37.9998183" lon="15.878635"><ele>442.99999999999994</ele><time>2026-04-12T07:31:13.982Z</time></trkpt><trkpt lat="37.99972" lon="15.87856"><ele>443.0</ele><time>2026-04-12T07:31:15.982Z</time></trkpt><trkpt lat="37.9996433" lon="15.878485"><ele>443.0</ele><time>2026-04-12T07:31:17.982Z</time></trkpt><trkpt lat="37.9995733" lon="15.8785167"><ele>443.0</ele><time>2026-04-12T07:31:19.982Z</time></trkpt><trkpt lat="37.99958" lon="15.8786617"><ele>443.0</ele><time>2026-04-12T07:31:21.982Z</time></trkpt><trkpt lat="37.9996417" lon="15.8787633"><ele>443.0</ele><time>2026-04-12T07:31:22.982Z</time></trkpt><trkpt lat="37.99974" lon="15.878865"><ele>443.0</ele><time>2026-04-12T07:31:23.982Z</time></trkpt><trkpt lat="37.999865" lon="15.8789533"><ele>442.99999999999994</ele><time>2026-04-12T07:31:24.982Z</time></trkpt><trkpt lat="37.9999683" lon="15.879015"><ele>443.0</ele><time>2026-04-12T07:31:25.983Z</time></trkpt><trkpt lat="38.0000367" lon="15.8790383"><ele>443.0</ele><time>2026-04-12T07:31:26.982Z</time></trkpt><trkpt lat="38.0000917" lon="15.87908"><ele>443.0</ele><time>2026-04-12T07:31:27.982Z</time></trkpt><trkpt lat="38.0001717" lon="15.879185"><ele>442.99999999999994</ele><time>2026-04-12T07:31:29.982Z</time></trkpt><trkpt lat="38.0002233" lon="15.8792683"><ele>443.0</ele><time>2026-04-12T07:31:30.982Z</time></trkpt><trkpt lat="38.0003083" lon="15.8793483"><ele>452.66666666666663</ele><time>2026-04-12T07:31:31.983Z</time></trkpt><trkpt lat="38.00043" lon="15.87943"><ele>462.33333333333337</ele><time>2026-04-12T07:31:32.981Z</time></trkpt><trkpt lat="38.00057" lon="15.879525"><ele>472.0</ele><time>2026-04-12T07:31:33.983Z</time></trkpt><trkpt lat="38.00072" lon="15.8796183"><ele>470.0</ele><time>2026-04-12T07:31:34.982Z</time></trkpt><trkpt lat="38.0008683" lon="15.8797083"><ele>468.0</ele><time>2026-04-12T07:31:35.982Z</time></trkpt><trkpt lat="38.0010133" lon="15.8797783"><ele>466.0</ele><time>2026-04-12T07:31:36.982Z</time></trkpt><trkpt lat="38.0011383" lon="15.8798183"><ele>464.0</ele><time>2026-04-12T07:31:37.982Z</time></trkpt><trkpt lat="38.001255" lon="15.8798483"><ele>464.0</ele><time>2026-04-12T07:31:38.982Z</time></trkpt><trkpt lat="38.0013667" lon="15.879865"><ele>464.0</ele><time>2026-04-12T07:31:39.982Z</time></trkpt><trkpt lat="38.0014683" lon="15.8798783"><ele>464.0</ele><time>2026-04-12T07:31:40.982Z</time></trkpt><trkpt lat="38.00156" lon="15.8798933"><ele>464.0</ele><time>2026-04-12T07:31:41.982Z</time></trkpt><trkpt lat="38.0016417" lon="15.8798983"><ele>464.0</ele><time>2026-04-12T07:31:42.983Z</time></trkpt><trkpt lat="38.0017183" lon="15.8799017"><ele>464.49999999999994</ele><time>2026-04-12T07:31:43.982Z</time></trkpt><trkpt lat="38.0017933" lon="15.8799083"><ele>465.0</ele><time>2026-04-12T07:31:44.982Z</time></trkpt><trkpt lat="38.0018567" lon="15.8799083"><ele>465.5</ele><time>2026-04-12T07:31:45.982Z</time></trkpt><trkpt lat="38.00195" lon="15.8798333"><ele>466.0</ele><time>2026-04-12T07:31:47.982Z</time></trkpt><trkpt lat="38.0019917" lon="15.8797717"><ele>466.49999999999994</ele><time>2026-04-12T07:31:48.983Z</time></trkpt><trkpt lat="38.0020383" lon="15.8796983"><ele>467.0</ele><time>2026-04-12T07:31:49.983Z</time></trkpt><trkpt lat="38.0020883" lon="15.8796117"><ele>467.0</ele><time>2026-04-12T07:31:50.982Z</time></trkpt><trkpt lat="38.0021367" lon="15.879515"><ele>467.00000000000006</ele><time>2026-04-12T07:31:51.982Z</time></trkpt><trkpt lat="38.0021867" lon="15.8793933"><ele>467.00000000000006</ele><time>2026-04-12T07:31:52.982Z</time></trkpt><trkpt lat="38.0022367" lon="15.8792533"><ele>467.0</ele><time>2026-04-12T07:31:53.983Z</time></trkpt><trkpt lat="38.0022817" lon="15.8791133"><ele>467.0</ele><time>2026-04-12T07:31:54.983Z</time></trkpt><trkpt lat="38.002325" lon="15.8789733"><ele>464.75</ele><time>2026-04-12T07:31:55.982Z</time></trkpt><trkpt lat="38.0023383" lon="15.8788267"><ele>462.5</ele><time>2026-04-12T07:31:56.982Z</time></trkpt><trkpt lat="38.0023283" lon="15.878675"><ele>460.25</ele><time>2026-04-12T07:31:57.982Z</time></trkpt><trkpt lat="38.0022983" lon="15.8785217"><ele>458.0</ele><time>2026-04-12T07:31:58.982Z</time></trkpt><trkpt lat="38.0022683" lon="15.87835"><ele>457.75</ele><time>2026-04-12T07:31:59.982Z</time></trkpt><trkpt lat="38.002225" lon="15.8781833"><ele>457.5</ele><time>2026-04-12T07:32:00.982Z</time></trkpt><trkpt lat="38.002185" lon="15.8780133"><ele>457.25</ele><time>2026-04-12T07:32:01.982Z</time></trkpt><trkpt lat="38.002155" lon="15.8778517"><ele>457.0</ele><time>2026-04-12T07:32:02.982Z</time></trkpt><trkpt lat="38.0021483" lon="15.8776983"><ele>459.0</ele><time>2026-04-12T07:32:03.982Z</time></trkpt><trkpt lat="38.00217" lon="15.8775583"><ele>461.00000000000006</ele><time>2026-04-12T07:32:04.983Z</time></trkpt><trkpt lat="38.0022067" lon="15.8774267"><ele>463.00000000000006</ele><time>2026-04-12T07:32:05.982Z</time></trkpt><trkpt lat="38.0022533" lon="15.8773183"><ele>465.0</ele><time>2026-04-12T07:32:06.982Z</time></trkpt><trkpt lat="38.0023067" lon="15.8772467"><ele>467.0</ele><time>2026-04-12T07:32:07.983Z</time></trkpt><trkpt lat="38.0023767" lon="15.8772067"><ele>467.0</ele><time>2026-04-12T07:32:08.983Z</time></trkpt><trkpt lat="38.0024617" lon="15.8771983"><ele>467.0</ele><time>2026-04-12T07:32:09.982Z</time></trkpt><trkpt lat="38.0025833" lon="15.8772233"><ele>467.0</ele><time>2026-04-12T07:32:10.982Z</time></trkpt><trkpt lat="38.0027367" lon="15.877265"><ele>467.0</ele><time>2026-04-12T07:32:11.982Z</time></trkpt><trkpt lat="38.0028817" lon="15.877295"><ele>472.75</ele><time>2026-04-12T07:32:12.982Z</time></trkpt><trkpt lat="38.003" lon="15.877335"><ele>478.5</ele><time>2026-04-12T07:32:13.982Z</time></trkpt><trkpt lat="38.0031083" lon="15.8773983"><ele>484.25</ele><time>2026-04-12T07:32:14.982Z</time></trkpt><trkpt lat="38.0032267" lon="15.8774667"><ele>490.0</ele><time>2026-04-12T07:32:15.983Z</time></trkpt><trkpt lat="38.003355" lon="15.877515"><ele>493.75</ele><time>2026-04-12T07:32:16.982Z</time></trkpt><trkpt lat="38.0034967" lon="15.8775367"><ele>497.5</ele><time>2026-04-12T07:32:17.982Z</time></trkpt><trkpt lat="38.003625" lon="15.877535"><ele>501.25</ele><time>2026-04-12T07:32:18.983Z</time></trkpt><trkpt lat="38.0037433" lon="15.877515"><ele>505.0</ele><time>2026-04-12T07:32:19.982Z</time></trkpt><trkpt lat="38.0038417" lon="15.8774933"><ele>505.00000000000006</ele><time>2026-04-12T07:32:20.982Z</time></trkpt><trkpt lat="38.0039267" lon="15.877475"><ele>505.0</ele><time>2026-04-12T07:32:21.982Z</time></trkpt><trkpt lat="38.003995" lon="15.8774567"><ele>505.0</ele><time>2026-04-12T07:32:22.982Z</time></trkpt><trkpt lat="38.0040783" lon="15.8774767"><ele>505.0</ele><time>2026-04-12T07:32:24.982Z</time></trkpt><trkpt lat="38.0040467" lon="15.87759"><ele>505.00000000000006</ele><time>2026-04-12T07:32:26.982Z</time></trkpt><trkpt lat="38.00397" lon="15.8776783"><ele>505.0</ele><time>2026-04-12T07:32:27.982Z</time></trkpt><trkpt lat="38.0038433" lon="15.87778"><ele>512.3333333333334</ele><time>2026-04-12T07:32:28.982Z</time></trkpt><trkpt lat="38.0036883" lon="15.87788"><ele>519.6666666666666</ele><time>2026-04-12T07:32:29.983Z</time></trkpt><trkpt lat="38.0035383" lon="15.8779583"><ele>527.0</ele><time>2026-04-12T07:32:30.982Z</time></trkpt><trkpt lat="38.00341" lon="15.87803"><ele>527.0</ele><time>2026-04-12T07:32:31.982Z</time></trkpt><trkpt lat="38.0033283" lon="15.8780733"><ele>527.0</ele><time>2026-04-12T07:32:32.983Z</time></trkpt><trkpt lat="38.0032767" lon="15.8781233"><ele>527.0</ele><time>2026-04-12T07:32:33.982Z</time></trkpt><trkpt lat="38.0032717" lon="15.878225"><ele>527.0</ele><time>2026-04-12T07:32:35.982Z</time></trkpt><trkpt lat="38.0034183" lon="15.8782883"><ele>527.0</ele><time>2026-04-12T07:32:37.983Z</time></trkpt><trkpt lat="38.0035667" lon="15.8782817"><ele>527.0</ele><time>2026-04-12T07:32:38.982Z</time></trkpt><trkpt lat="38.0037633" lon="15.8782317"><ele>527.0</ele><time>2026-04-12T07:32:39.982Z</time></trkpt><trkpt lat="38.0039667" lon="15.87815"><ele>527.0</ele><time>2026-04-12T07:32:40.983Z</time></trkpt><trkpt lat="38.004135" lon="15.8780667"><ele>531.2</ele><time>2026-04-12T07:32:41.983Z</time></trkpt><trkpt lat="38.0042517" lon="15.8779967"><ele>535.4000000000001</ele><time>2026-04-12T07:32:42.982Z</time></trkpt><trkpt lat="38.0043233" lon="15.8779633"><ele>539.5999999999999</ele><time>2026-04-12T07:32:43.983Z</time></trkpt><trkpt lat="38.0044033" lon="15.8779867"><ele>543.8</ele><time>2026-04-12T07:32:45.983Z</time></trkpt><trkpt lat="38.0043517" lon="15.8781"><ele>548.0</ele><time>2026-04-12T07:32:47.982Z</time></trkpt><trkpt lat="38.00426" lon="15.8782"><ele>541.0</ele><time>2026-04-12T07:32:48.983Z</time></trkpt><trkpt lat="38.0041267" lon="15.87833"><ele>534.0</ele><time>2026-04-12T07:32:49.982Z</time></trkpt><trkpt lat="38.0039633" lon="15.87846"><ele>527.0</ele><time>2026-04-12T07:32:50.982Z</time></trkpt><trkpt lat="38.00382" lon="15.878555"><ele>527.0</ele><time>2026-04-12T07:32:51.982Z</time></trkpt><trkpt lat="38.0037167" lon="15.878635"><ele>527.0</ele><time>2026-04-12T07:32:52.983Z</time></trkpt><trkpt lat="38.003655" lon="15.8787217"><ele>527.0</ele><time>2026-04-12T07:32:53.982Z</time></trkpt><trkpt lat="38.0036367" lon="15.8788267"><ele>527.0</ele><time>2026-04-12T07:32:54.983Z</time></trkpt><trkpt lat="38.00364" lon="15.878935"><ele>527.0</ele><time>2026-04-12T07:32:55.982Z</time></trkpt><trkpt lat="38.00366" lon="15.879035"><ele>527.0</ele><time>2026-04-12T07:32:56.982Z</time></trkpt><trkpt lat="38.0036967" lon="15.8791017"><ele>527.0</ele><time>2026-04-12T07:32:57.982Z</time></trkpt><trkpt lat="38.00376" lon="15.8791033"><ele>527.0</ele><time>2026-04-12T07:32:58.982Z</time></trkpt><trkpt lat="38.0038433" lon="15.87906"><ele>527.0</ele><time>2026-04-12T07:32:59.983Z</time></trkpt><trkpt lat="38.003935" lon="15.8789833"><ele>527.0</ele><time>2026-04-12T07:33:00.983Z</time></trkpt><trkpt lat="38.0040483" lon="15.8788817"><ele>535.25</ele><time>2026-04-12T07:33:01.982Z</time></trkpt><trkpt lat="38.0041683" lon="15.8788033"><ele>543.5</ele><time>2026-04-12T07:33:02.983Z</time></trkpt><trkpt lat="38.0043133" lon="15.87876"><ele>551.75</ele><time>2026-04-12T07:33:03.983Z</time></trkpt><trkpt lat="38.004465" lon="15.8787383"><ele>560.0</ele><time>2026-04-12T07:33:04.983Z</time></trkpt><trkpt lat="38.0046067" lon="15.8787217"><ele>560.0</ele><time>2026-04-12T07:33:05.982Z</time></trkpt><trkpt lat="38.004745" lon="15.8787167"><ele>560.0</ele><time>2026-04-12T07:33:06.983Z</time></trkpt><trkpt lat="38.00487" lon="15.8787317"><ele>560.0</ele><time>2026-04-12T07:33:07.982Z</time></trkpt><trkpt lat="38.0049917" lon="15.8787883"><ele>560.0</ele><time>2026-04-12T07:33:08.983Z</time></trkpt><trkpt lat="38.0051117" lon="15.8788417"><ele>563.2</ele><time>2026-04-12T07:33:09.982Z</time></trkpt><trkpt lat="38.00522" lon="15.8788633"><ele>566.4</ele><time>2026-04-12T07:33:10.982Z</time></trkpt><trkpt lat="38.005295" lon="15.8788533"><ele>569.6</ele><time>2026-04-12T07:33:11.982Z</time></trkpt><trkpt lat="38.0053833" lon="15.8788067"><ele>572.8</ele><time>2026-04-12T07:33:12.982Z</time></trkpt><trkpt lat="38.0054733" lon="15.8787233"><ele>576.0</ele><time>2026-04-12T07:33:13.983Z</time></trkpt><trkpt lat="38.0055667" lon="15.878595"><ele>570.0</ele><time>2026-04-12T07:33:14.982Z</time></trkpt><trkpt lat="38.00566" lon="15.8784333"><ele>564.0</ele><time>2026-04-12T07:33:15.983Z</time></trkpt><trkpt lat="38.00575" lon="15.8782583"><ele>558.0</ele><time>2026-04-12T07:33:16.982Z</time></trkpt><trkpt lat="38.0058283" lon="15.8780917"><ele>563.1999999999999</ele><time>2026-04-12T07:33:17.982Z</time></trkpt><trkpt lat="38.0058883" lon="15.8779667"><ele>568.4</ele><time>2026-04-12T07:33:18.982Z</time></trkpt><trkpt lat="38.0059317" lon="15.877875"><ele>573.5999999999999</ele><time>2026-04-12T07:33:19.982Z</time></trkpt><trkpt lat="38.0059517" lon="15.8777967"><ele>578.8</ele><time>2026-04-12T07:33:20.982Z</time></trkpt><trkpt lat="38.0059917" lon="15.8777083"><ele>584.0</ele><time>2026-04-12T07:33:22.983Z</time></trkpt><trkpt lat="38.00602" lon="15.8778717"><ele>584.0</ele><time>2026-04-12T07:33:25.982Z</time></trkpt><trkpt lat="38.0059933" lon="15.8780067"><ele>584.0</ele><time>2026-04-12T07:33:26.982Z</time></trkpt><trkpt lat="38.005955" lon="15.8781867"><ele>584.0</ele><time>2026-04-12T07:33:27.982Z</time></trkpt><trkpt lat="38.005895" lon="15.8783867"><ele>584.0</ele><time>2026-04-12T07:33:28.982Z</time></trkpt><trkpt lat="38.00584" lon="15.8785533"><ele>583.5</ele><time>2026-04-12T07:33:29.982Z</time></trkpt><trkpt lat="38.0057933" lon="15.8786733"><ele>583.0</ele><time>2026-04-12T07:33:30.983Z</time></trkpt><trkpt lat="38.0057733" lon="15.87878"><ele>582.5</ele><time>2026-04-12T07:33:31.983Z</time></trkpt><trkpt lat="38.00578" lon="15.8788717"><ele>582.0</ele><time>2026-04-12T07:33:32.982Z</time></trkpt><trkpt lat="38.0058233" lon="15.8789567"><ele>581.5</ele><time>2026-04-12T07:33:33.983Z</time></trkpt><trkpt lat="38.0059067" lon="15.8790217"><ele>581.0</ele><time>2026-04-12T07:33:34.982Z</time></trkpt><trkpt lat="38.006015" lon="15.8790617"><ele>581.0</ele><time>2026-04-12T07:33:35.982Z</time></trkpt><trkpt lat="38.00613" lon="15.8790617"><ele>581.0</ele><time>2026-04-12T07:33:36.982Z</time></trkpt><trkpt lat="38.0062633" lon="15.878995"><ele>581.0</ele><time>2026-04-12T07:33:37.982Z</time></trkpt><trkpt lat="38.006395" lon="15.8789133"><ele>581.0</ele><time>2026-04-12T07:33:38.982Z</time></trkpt><trkpt lat="38.0065267" lon="15.878875"><ele>581.0</ele><time>2026-04-12T07:33:39.982Z</time></trkpt><trkpt lat="38.006655" lon="15.878885"><ele>581.0</ele><time>2026-04-12T07:33:40.982Z</time></trkpt><trkpt lat="38.0068" lon="15.8789283"><ele>581.0</ele><time>2026-04-12T07:33:41.982Z</time></trkpt><trkpt lat="38.0069467" lon="15.8789867"><ele>581.0</ele><time>2026-04-12T07:33:42.983Z</time></trkpt><trkpt lat="38.007095" lon="15.87903"><ele>582.5</ele><time>2026-04-12T07:33:43.983Z</time></trkpt><trkpt lat="38.0072333" lon="15.879035"><ele>584.0</ele><time>2026-04-12T07:33:44.982Z</time></trkpt><trkpt lat="38.0073783" lon="15.879025"><ele>585.5</ele><time>2026-04-12T07:33:45.982Z</time></trkpt><trkpt lat="38.0075117" lon="15.87902"><ele>587.0</ele><time>2026-04-12T07:33:46.982Z</time></trkpt><trkpt lat="38.0076383" lon="15.8790183"><ele>590.4</ele><time>2026-04-12T07:33:47.98Z</time></trkpt><trkpt lat="38.0077483" lon="15.8790267"><ele>593.8000000000001</ele><time>2026-04-12T07:33:48.983Z</time></trkpt><trkpt lat="38.007835" lon="15.8790433"><ele>597.2</ele><time>2026-04-12T07:33:49.982Z</time></trkpt><trkpt lat="38.0079083" lon="15.8790633"><ele>600.6</ele><time>2026-04-12T07:33:50.982Z</time></trkpt><trkpt lat="38.0079983" lon="15.8791333"><ele>604.0</ele><time>2026-04-12T07:33:52.982Z</time></trkpt><trkpt lat="38.00806" lon="15.8791983"><ele>604.0</ele><time>2026-04-12T07:33:54.982Z</time></trkpt><trkpt lat="38.0080983" lon="15.8791117"><ele>604.0</ele><time>2026-04-12T07:33:57.983Z</time></trkpt><trkpt lat="38.0080417" lon="15.8789467"><ele>604.0</ele><time>2026-04-12T07:33:59.982Z</time></trkpt><trkpt lat="38.0079883" lon="15.8788717"><ele>604.0</ele><time>2026-04-12T07:34:00.982Z</time></trkpt><trkpt lat="38.0078783" lon="15.8788117"><ele>604.0</ele><time>2026-04-12T07:34:02.982Z</time></trkpt><trkpt lat="38.00781" lon="15.8788083"><ele>604.0</ele><time>2026-04-12T07:34:03.982Z</time></trkpt><trkpt lat="38.0077367" lon="15.8788"><ele>604.0</ele><time>2026-04-12T07:34:04.982Z</time></trkpt><trkpt lat="38.0076583" lon="15.878785"><ele>604.0</ele><time>2026-04-12T07:34:05.982Z</time></trkpt><trkpt lat="38.00758" lon="15.8787633"><ele>604.0</ele><time>2026-04-12T07:34:06.982Z</time></trkpt><trkpt lat="38.007505" lon="15.8787317"><ele>604.0</ele><time>2026-04-12T07:34:07.982Z</time></trkpt><trkpt lat="38.0074267" lon="15.8787017"><ele>604.0</ele><time>2026-04-12T07:34:08.982Z</time></trkpt><trkpt lat="38.00735" lon="15.8786633"><ele>604.8333333333334</ele><time>2026-04-12T07:34:09.982Z</time></trkpt><trkpt lat="38.0072817" lon="15.8786233"><ele>605.6666666666667</ele><time>2026-04-12T07:34:10.982Z</time></trkpt><trkpt lat="38.0072083" lon="15.8785917"><ele>606.5</ele><time>2026-04-12T07:34:11.982Z</time></trkpt><trkpt lat="38.0071083" lon="15.8785533"><ele>607.3333333333334</ele><time>2026-04-12T07:34:13.983Z</time></trkpt><trkpt lat="38.0070517" lon="15.8785183"><ele>608.1666666666666</ele><time>2026-04-12T07:34:16.983Z</time></trkpt><trkpt lat="38.0069917" lon="15.8784483"><ele>609.0</ele><time>2026-04-12T07:34:21.983Z</time></trkpt><trkpt lat="38.0069233" lon="15.8783833"><ele>609.0</ele><time>2026-04-12T07:34:25.982Z</time></trkpt><trkpt lat="38.0068917" lon="15.8783033"><ele>609.0</ele><time>2026-04-12T07:34:28.982Z</time></trkpt><trkpt lat="38.0069817" lon="15.8782517"><ele>609.0</ele><time>2026-04-12T07:34:31.982Z</time></trkpt><trkpt lat="38.0070783" lon="15.8782933"><ele>609.0</ele><time>2026-04-12T07:34:33.983Z</time></trkpt><trkpt lat="38.0072017" lon="15.8783467"><ele>609.0</ele><time>2026-04-12T07:34:35.982Z</time></trkpt><trkpt lat="38.0072917" lon="15.8783617"><ele>609.0</ele><time>2026-04-12T07:34:36.982Z</time></trkpt><trkpt lat="38.007385" lon="15.8783567"><ele>609.0</ele><time>2026-04-12T07:34:37.982Z</time></trkpt><trkpt lat="38.0074983" lon="15.8783367"><ele>609.0</ele><time>2026-04-12T07:34:38.982Z</time></trkpt><trkpt lat="38.0076217" lon="15.8783083"><ele>609.0</ele><time>2026-04-12T07:34:39.982Z</time></trkpt><trkpt lat="38.007755" lon="15.8782767"><ele>613.0</ele><time>2026-04-12T07:34:40.983Z</time></trkpt><trkpt lat="38.0078933" lon="15.878245"><ele>617.0</ele><time>2026-04-12T07:34:41.982Z</time></trkpt><trkpt lat="38.0080283" lon="15.8782167"><ele>621.0</ele><time>2026-04-12T07:34:42.982Z</time></trkpt><trkpt lat="38.0081467" lon="15.8781867"><ele>625.0</ele><time>2026-04-12T07:34:43.982Z</time></trkpt><trkpt lat="38.0082383" lon="15.87817"><ele>625.0</ele><time>2026-04-12T07:34:44.982Z</time></trkpt><trkpt lat="38.008325" lon="15.87817"><ele>625.0</ele><time>2026-04-12T07:34:45.982Z</time></trkpt><trkpt lat="38.008405" lon="15.8782"><ele>625.0</ele><time>2026-04-12T07:34:46.982Z</time></trkpt><trkpt lat="38.0084783" lon="15.8782433"><ele>625.0</ele><time>2026-04-12T07:34:47.982Z</time></trkpt><trkpt lat="38.0085533" lon="15.8782983"><ele>625.0</ele><time>2026-04-12T07:34:48.982Z</time></trkpt><trkpt lat="38.0086367" lon="15.87836"><ele>625.0</ele><time>2026-04-12T07:34:49.982Z</time></trkpt><trkpt lat="38.0087317" lon="15.878415"><ele>624.25</ele><time>2026-04-12T07:34:50.982Z</time></trkpt><trkpt lat="38.0088383" lon="15.8784733"><ele>623.5</ele><time>2026-04-12T07:34:51.982Z</time></trkpt><trkpt lat="38.008955" lon="15.8785267"><ele>622.75</ele><time>2026-04-12T07:34:52.982Z</time></trkpt><trkpt lat="38.0090767" lon="15.87859"><ele>622.0</ele><time>2026-04-12T07:34:53.982Z</time></trkpt><trkpt lat="38.0091983" lon="15.87864"><ele>628.2</ele><time>2026-04-12T07:34:54.982Z</time></trkpt><trkpt lat="38.00932" lon="15.8786817"><ele>634.4000000000001</ele><time>2026-04-12T07:34:55.982Z</time></trkpt><trkpt lat="38.00944" lon="15.8787083"><ele>640.5999999999999</ele><time>2026-04-12T07:34:56.982Z</time></trkpt><trkpt lat="38.0095417" lon="15.87872"><ele>646.8</ele><time>2026-04-12T07:34:57.983Z</time></trkpt><trkpt lat="38.009635" lon="15.8787117"><ele>653.0</ele><time>2026-04-12T07:34:58.982Z</time></trkpt><trkpt lat="38.00971" lon="15.8786667"><ele>653.0</ele><time>2026-04-12T07:34:59.982Z</time></trkpt><trkpt lat="38.009785" lon="15.8786067"><ele>653.0</ele><time>2026-04-12T07:35:00.983Z</time></trkpt><trkpt lat="38.0098617" lon="15.8785417"><ele>653.0</ele><time>2026-04-12T07:35:01.982Z</time></trkpt><trkpt lat="38.0099533" lon="15.87847"><ele>653.0</ele><time>2026-04-12T07:35:02.982Z</time></trkpt><trkpt lat="38.0100333" lon="15.878395"><ele>653.0</ele><time>2026-04-12T07:35:03.982Z</time></trkpt><trkpt lat="38.0100883" lon="15.8783183"><ele>655.1666666666666</ele><time>2026-04-12T07:35:04.983Z</time></trkpt><trkpt lat="38.0101383" lon="15.8782417"><ele>657.3333333333333</ele><time>2026-04-12T07:35:05.982Z</time></trkpt><trkpt lat="38.0101583" lon="15.8781433"><ele>659.5</ele><time>2026-04-12T07:35:06.982Z</time></trkpt><trkpt lat="38.0101533" lon="15.8780317"><ele>661.6666666666666</ele><time>2026-04-12T07:35:07.983Z</time></trkpt><trkpt lat="38.01013" lon="15.8779167"><ele>663.8333333333334</ele><time>2026-04-12T07:35:08.983Z</time></trkpt><trkpt lat="38.0101067" lon="15.8778133"><ele>666.0</ele><time>2026-04-12T07:35:09.982Z</time></trkpt><trkpt lat="38.0101033" lon="15.87773"><ele>666.0</ele><time>2026-04-12T07:35:10.982Z</time></trkpt><trkpt lat="38.0101083" lon="15.8776183"><ele>666.0</ele><time>2026-04-12T07:35:12.982Z</time></trkpt><trkpt lat="38.0101867" lon="15.8777117"><ele>666.0</ele><time>2026-04-12T07:35:16.982Z</time></trkpt><trkpt lat="38.0102217" lon="15.8778317"><ele>666.0</ele><time>2026-04-12T07:35:17.982Z</time></trkpt><trkpt lat="38.0102633" lon="15.8779767"><ele>666.0</ele><time>2026-04-12T07:35:18.982Z</time></trkpt><trkpt lat="38.01032" lon="15.8781183"><ele>666.0</ele><time>2026-04-12T07:35:19.982Z</time></trkpt><trkpt lat="38.0103967" lon="15.8782467"><ele>666.0</ele><time>2026-04-12T07:35:20.982Z</time></trkpt><trkpt lat="38.010465" lon="15.8783633"><ele>666.0</ele><time>2026-04-12T07:35:21.983Z</time></trkpt><trkpt lat="38.010515" lon="15.8784567"><ele>666.0</ele><time>2026-04-12T07:35:22.982Z</time></trkpt><trkpt lat="38.0105583" lon="15.87854"><ele>666.0</ele><time>2026-04-12T07:35:23.982Z</time></trkpt><trkpt lat="38.0105817" lon="15.87862"><ele>667.8333333333334</ele><time>2026-04-12T07:35:24.982Z</time></trkpt><trkpt lat="38.0106" lon="15.8787017"><ele>669.6666666666666</ele><time>2026-04-12T07:35:25.982Z</time></trkpt><trkpt lat="38.010605" lon="15.8788"><ele>671.5</ele><time>2026-04-12T07:35:26.982Z</time></trkpt><trkpt lat="38.01062" lon="15.8788933"><ele>673.3333333333333</ele><time>2026-04-12T07:35:27.982Z</time></trkpt><trkpt lat="38.0106333" lon="15.8789883"><ele>675.1666666666666</ele><time>2026-04-12T07:35:28.983Z</time></trkpt><trkpt lat="38.0106483" lon="15.8790917"><ele>677.0</ele><time>2026-04-12T07:35:29.983Z</time></trkpt><trkpt lat="38.01066" lon="15.87921"><ele>677.2</ele><time>2026-04-12T07:35:30.982Z</time></trkpt><trkpt lat="38.01068" lon="15.879325"><ele>677.4000000000001</ele><time>2026-04-12T07:35:31.982Z</time></trkpt><trkpt lat="38.0107033" lon="15.8794433"><ele>677.5999999999999</ele><time>2026-04-12T07:35:32.982Z</time></trkpt><trkpt lat="38.0107217" lon="15.8795617"><ele>677.8</ele><time>2026-04-12T07:35:33.982Z</time></trkpt><trkpt lat="38.0107433" lon="15.8796717"><ele>678.0</ele><time>2026-04-12T07:35:34.982Z</time></trkpt><trkpt lat="38.0107717" lon="15.87977"><ele>678.0</ele><time>2026-04-12T07:35:35.982Z</time></trkpt><trkpt lat="38.0108217" lon="15.8798783"><ele>678.0</ele><time>2026-04-12T07:35:36.983Z</time></trkpt><trkpt lat="38.01088" lon="15.879985"><ele>678.0</ele><time>2026-04-12T07:35:37.982Z</time></trkpt><trkpt lat="38.0109433" lon="15.880085"><ele>678.0</ele><time>2026-04-12T07:35:38.982Z</time></trkpt><trkpt lat="38.0110067" lon="15.8801917"><ele>678.0</ele><time>2026-04-12T07:35:39.982Z</time></trkpt><trkpt lat="38.01108" lon="15.8802817"><ele>683.0</ele><time>2026-04-12T07:35:40.982Z</time></trkpt><trkpt lat="38.0111633" lon="15.8803583"><ele>688.0</ele><time>2026-04-12T07:35:41.983Z</time></trkpt><trkpt lat="38.011255" lon="15.8804183"><ele>693.0</ele><time>2026-04-12T07:35:42.982Z</time></trkpt><trkpt lat="38.0113367" lon="15.8804667"><ele>698.0</ele><time>2026-04-12T07:35:43.982Z</time></trkpt><trkpt lat="38.0114083" lon="15.880505"><ele>703.0</ele><time>2026-04-12T07:35:44.983Z</time></trkpt><trkpt lat="38.0114783" lon="15.88056"><ele>703.0</ele><time>2026-04-12T07:35:45.983Z</time></trkpt><trkpt lat="38.0115433" lon="15.880615"><ele>703.0</ele><time>2026-04-12T07:35:46.982Z</time></trkpt><trkpt lat="38.0116017" lon="15.8806683"><ele>703.0</ele><time>2026-04-12T07:35:47.982Z</time></trkpt><trkpt lat="38.01165" lon="15.8807233"><ele>703.0</ele><time>2026-04-12T07:35:48.982Z</time></trkpt><trkpt lat="38.0116983" lon="15.880785"><ele>703.0</ele><time>2026-04-12T07:35:49.982Z</time></trkpt><trkpt lat="38.011735" lon="15.880865"><ele>703.0</ele><time>2026-04-12T07:35:50.982Z</time></trkpt><trkpt lat="38.0117733" lon="15.8809583"><ele>703.0</ele><time>2026-04-12T07:35:51.982Z</time></trkpt><trkpt lat="38.0118283" lon="15.8810583"><ele>702.0</ele><time>2026-04-12T07:35:52.982Z</time></trkpt><trkpt lat="38.011905" lon="15.88115"><ele>701.0</ele><time>2026-04-12T07:35:53.982Z</time></trkpt><trkpt lat="38.01199" lon="15.8812217"><ele>700.0</ele><time>2026-04-12T07:35:54.982Z</time></trkpt><trkpt lat="38.01209" lon="15.8812783"><ele>699.0</ele><time>2026-04-12T07:35:55.983Z</time></trkpt><trkpt lat="38.012185" lon="15.8813233"><ele>698.0</ele><time>2026-04-12T07:35:56.982Z</time></trkpt><trkpt lat="38.012275" lon="15.881375"><ele>698.0</ele><time>2026-04-12T07:35:57.982Z</time></trkpt><trkpt lat="38.01236" lon="15.881435"><ele>698.0</ele><time>2026-04-12T07:35:58.982Z</time></trkpt><trkpt lat="38.0124417" lon="15.881495"><ele>698.0</ele><time>2026-04-12T07:35:59.983Z</time></trkpt><trkpt lat="38.0125167" lon="15.8815517"><ele>698.0</ele><time>2026-04-12T07:36:00.982Z</time></trkpt><trkpt lat="38.0125867" lon="15.88159"><ele>698.0</ele><time>2026-04-12T07:36:01.982Z</time></trkpt><trkpt lat="38.0126633" lon="15.881625"><ele>698.0</ele><time>2026-04-12T07:36:02.983Z</time></trkpt><trkpt lat="38.012745" lon="15.88165"><ele>699.2</ele><time>2026-04-12T07:36:03.982Z</time></trkpt><trkpt lat="38.01284" lon="15.8816767"><ele>700.4</ele><time>2026-04-12T07:36:04.982Z</time></trkpt><trkpt lat="38.0129367" lon="15.8817"><ele>701.6</ele><time>2026-04-12T07:36:05.982Z</time></trkpt><trkpt lat="38.0130417" lon="15.881725"><ele>702.8000000000001</ele><time>2026-04-12T07:36:06.983Z</time></trkpt><trkpt lat="38.01314" lon="15.8817533"><ele>704.0</ele><time>2026-04-12T07:36:07.982Z</time></trkpt><trkpt lat="38.0132383" lon="15.8817883"><ele>710.2</ele><time>2026-04-12T07:36:08.982Z</time></trkpt><trkpt lat="38.013335" lon="15.8818217"><ele>716.4000000000001</ele><time>2026-04-12T07:36:09.982Z</time></trkpt><trkpt lat="38.01344" lon="15.88186"><ele>722.6</ele><time>2026-04-12T07:36:10.982Z</time></trkpt><trkpt lat="38.0135433" lon="15.88189"><ele>728.8</ele><time>2026-04-12T07:36:11.982Z</time></trkpt><trkpt lat="38.0136417" lon="15.8819233"><ele>735.0</ele><time>2026-04-12T07:36:12.982Z</time></trkpt><trkpt lat="38.0137367" lon="15.8819567"><ele>735.0</ele><time>2026-04-12T07:36:13.983Z</time></trkpt><trkpt lat="38.01384" lon="15.88199"><ele>735.0</ele><time>2026-04-12T07:36:14.982Z</time></trkpt><trkpt lat="38.0139517" lon="15.8820267"><ele>735.0</ele><time>2026-04-12T07:36:15.982Z</time></trkpt><trkpt lat="38.0140683" lon="15.8820567"><ele>735.0</ele><time>2026-04-12T07:36:16.982Z</time></trkpt><trkpt lat="38.0141867" lon="15.8820883"><ele>735.75</ele><time>2026-04-12T07:36:17.982Z</time></trkpt><trkpt lat="38.0143" lon="15.8821183"><ele>736.5</ele><time>2026-04-12T07:36:18.982Z</time></trkpt><trkpt lat="38.01442" lon="15.8821467"><ele>737.25</ele><time>2026-04-12T07:36:19.982Z</time></trkpt><trkpt lat="38.0145383" lon="15.882155"><ele>738.0</ele><time>2026-04-12T07:36:20.982Z</time></trkpt><trkpt lat="38.0146733" lon="15.8821533"><ele>738.0</ele><time>2026-04-12T07:36:21.983Z</time></trkpt><trkpt lat="38.0148217" lon="15.882135"><ele>738.0</ele><time>2026-04-12T07:36:22.982Z</time></trkpt><trkpt lat="38.0149633" lon="15.8821117"><ele>738.0</ele><time>2026-04-12T07:36:23.982Z</time></trkpt><trkpt lat="38.01512" lon="15.8820867"><ele>732.6666666666666</ele><time>2026-04-12T07:36:24.983Z</time></trkpt><trkpt lat="38.01529" lon="15.8820633"><ele>727.3333333333333</ele><time>2026-04-12T07:36:25.983Z</time></trkpt><trkpt lat="38.0154617" lon="15.88206"><ele>722.0</ele><time>2026-04-12T07:36:26.983Z</time></trkpt><trkpt lat="38.0156283" lon="15.8820733"><ele>722.0</ele><time>2026-04-12T07:36:27.982Z</time></trkpt><trkpt lat="38.0157867" lon="15.882095"><ele>722.0</ele><time>2026-04-12T07:36:28.982Z</time></trkpt><trkpt lat="38.0159333" lon="15.8821117"><ele>722.0</ele><time>2026-04-12T07:36:29.983Z</time></trkpt><trkpt lat="38.01607" lon="15.8821367"><ele>722.0</ele><time>2026-04-12T07:36:30.982Z</time></trkpt><trkpt lat="38.0162083" lon="15.8821683"><ele>724.2</ele><time>2026-04-12T07:36:31.982Z</time></trkpt><trkpt lat="38.016335" lon="15.882215"><ele>726.4000000000001</ele><time>2026-04-12T07:36:32.982Z</time></trkpt><trkpt lat="38.016435" lon="15.8822567"><ele>728.5999999999999</ele><time>2026-04-12T07:36:33.982Z</time></trkpt><trkpt lat="38.0165333" lon="15.8822767"><ele>730.8</ele><time>2026-04-12T07:36:34.982Z</time></trkpt><trkpt lat="38.0166233" lon="15.88229"><ele>733.0</ele><time>2026-04-12T07:36:35.982Z</time></trkpt><trkpt lat="38.016725" lon="15.8822883"><ele>737.4</ele><time>2026-04-12T07:36:36.982Z</time></trkpt><trkpt lat="38.0168317" lon="15.8822867"><ele>741.8</ele><time>2026-04-12T07:36:37.982Z</time></trkpt><trkpt lat="38.0169417" lon="15.8822917"><ele>746.2</ele><time>2026-04-12T07:36:38.982Z</time></trkpt><trkpt lat="38.0170417" lon="15.882315"><ele>750.6</ele><time>2026-04-12T07:36:39.982Z</time></trkpt><trkpt lat="38.0171283" lon="15.8823517"><ele>755.0</ele><time>2026-04-12T07:36:40.983Z</time></trkpt><trkpt lat="38.01721" lon="15.8823967"><ele>755.0</ele><time>2026-04-12T07:36:41.983Z</time></trkpt><trkpt lat="38.01728" lon="15.8824617"><ele>755.0</ele><time>2026-04-12T07:36:42.982Z</time></trkpt><trkpt lat="38.0173333" lon="15.882555"><ele>755.0</ele><time>2026-04-12T07:36:43.983Z</time></trkpt><trkpt lat="38.0173667" lon="15.8826533"><ele>755.0</ele><time>2026-04-12T07:36:44.982Z</time></trkpt><trkpt lat="38.0174033" lon="15.8827483"><ele>755.0</ele><time>2026-04-12T07:36:45.982Z</time></trkpt><trkpt lat="38.0174517" lon="15.8828417"><ele>755.0</ele><time>2026-04-12T07:36:46.982Z</time></trkpt><trkpt lat="38.0175117" lon="15.882925"><ele>756.8333333333333</ele><time>2026-04-12T07:36:47.982Z</time></trkpt><trkpt lat="38.0175733" lon="15.883015"><ele>758.6666666666666</ele><time>2026-04-12T07:36:48.982Z</time></trkpt><trkpt lat="38.0176383" lon="15.8830967"><ele>760.5</ele><time>2026-04-12T07:36:49.982Z</time></trkpt><trkpt lat="38.01771" lon="15.8831767"><ele>762.3333333333334</ele><time>2026-04-12T07:36:50.983Z</time></trkpt><trkpt lat="38.017775" lon="15.8832483"><ele>764.1666666666667</ele><time>2026-04-12T07:36:51.983Z</time></trkpt><trkpt lat="38.0178217" lon="15.8833117"><ele>766.0</ele><time>2026-04-12T07:36:52.983Z</time></trkpt><trkpt lat="38.017895" lon="15.8834"><ele>765.8</ele><time>2026-04-12T07:36:54.982Z</time></trkpt><trkpt lat="38.01796" lon="15.883445"><ele>765.5999999999999</ele><time>2026-04-12T07:37:04.982Z</time></trkpt><trkpt lat="38.0180417" lon="15.8834883"><ele>765.4</ele><time>2026-04-12T07:38:18.982Z</time></trkpt><trkpt lat="38.018165" lon="15.88351"><ele>765.2</ele><time>2026-04-12T07:38:20.982Z</time></trkpt><trkpt lat="38.0182367" lon="15.8835183"><ele>765.0</ele><time>2026-04-12T07:38:21.983Z</time></trkpt><trkpt lat="38.0183283" lon="15.883515"><ele>765.0</ele><time>2026-04-12T07:38:22.982Z</time></trkpt><trkpt lat="38.0184233" lon="15.8835233"><ele>765.0</ele><time>2026-04-12T07:38:23.982Z</time></trkpt><trkpt lat="38.01852" lon="15.8835367"><ele>765.0</ele><time>2026-04-12T07:38:24.982Z</time></trkpt><trkpt lat="38.0186167" lon="15.883555"><ele>765.0</ele><time>2026-04-12T07:38:25.982Z</time></trkpt><trkpt lat="38.018705" lon="15.8835717"><ele>765.0</ele><time>2026-04-12T07:38:26.982Z</time></trkpt><trkpt lat="38.01878" lon="15.88359"><ele>765.0</ele><time>2026-04-12T07:38:27.982Z</time></trkpt><trkpt lat="38.018845" lon="15.8836033"><ele>765.0</ele><time>2026-04-12T07:38:28.982Z</time></trkpt><trkpt lat="38.0189267" lon="15.8835883"><ele>765.0</ele><time>2026-04-12T07:38:30.982Z</time></trkpt><trkpt lat="38.0189133" lon="15.8835"><ele>765.0</ele><time>2026-04-12T07:38:32.982Z</time></trkpt><trkpt lat="38.0187933" lon="15.88339"><ele>765.0</ele><time>2026-04-12T07:38:34.982Z</time></trkpt><trkpt lat="38.0187217" lon="15.8833067"><ele>775.25</ele><time>2026-04-12T07:38:35.983Z</time></trkpt><trkpt lat="38.0186533" lon="15.883195"><ele>785.5</ele><time>2026-04-12T07:38:36.982Z</time></trkpt><trkpt lat="38.0185717" lon="15.8830767"><ele>795.75</ele><time>2026-04-12T07:38:37.983Z</time></trkpt><trkpt lat="38.0184783" lon="15.8829533"><ele>806.0</ele><time>2026-04-12T07:38:38.982Z</time></trkpt><trkpt lat="38.018385" lon="15.8828467"><ele>803.5000000000001</ele><time>2026-04-12T07:38:39.983Z</time></trkpt><trkpt lat="38.0183117" lon="15.88274"><ele>801.0</ele><time>2026-04-12T07:38:40.982Z</time></trkpt><trkpt lat="38.0182433" lon="15.88264"><ele>798.5</ele><time>2026-04-12T07:38:41.982Z</time></trkpt><trkpt lat="38.018185" lon="15.8825633"><ele>796.0</ele><time>2026-04-12T07:38:42.982Z</time></trkpt><trkpt lat="38.0181417" lon="15.882495"><ele>793.5000000000001</ele><time>2026-04-12T07:38:43.983Z</time></trkpt><trkpt lat="38.018125" lon="15.88241"><ele>791.0</ele><time>2026-04-12T07:38:46.983Z</time></trkpt><trkpt lat="38.0181933" lon="15.8824767"><ele>791.0</ele><time>2026-04-12T07:38:48.983Z</time></trkpt><trkpt lat="38.0182667" lon="15.8825433"><ele>791.0</ele><time>2026-04-12T07:38:49.982Z</time></trkpt><trkpt lat="38.0183533" lon="15.8826217"><ele>791.0</ele><time>2026-04-12T07:38:50.982Z</time></trkpt><trkpt lat="38.0184583" lon="15.8826983"><ele>791.0</ele><time>2026-04-12T07:38:51.982Z</time></trkpt><trkpt lat="38.01857" lon="15.882775"><ele>791.0</ele><time>2026-04-12T07:38:52.983Z</time></trkpt><trkpt lat="38.0186783" lon="15.8828517"><ele>794.0</ele><time>2026-04-12T07:38:53.982Z</time></trkpt><trkpt lat="38.0187667" lon="15.8829167"><ele>797.0</ele><time>2026-04-12T07:38:54.983Z</time></trkpt><trkpt lat="38.018835" lon="15.8829717"><ele>800.0</ele><time>2026-04-12T07:38:55.982Z</time></trkpt><trkpt lat="38.0188967" lon="15.883005"><ele>803.0</ele><time>2026-04-12T07:38:56.983Z</time></trkpt><trkpt lat="38.0189817" lon="15.883005"><ele>806.0</ele><time>2026-04-12T07:38:58.983Z</time></trkpt><trkpt lat="38.0189117" lon="15.8828883"><ele>806.0</ele><time>2026-04-12T07:39:01.982Z</time></trkpt><trkpt lat="38.0188017" lon="15.8827917"><ele>806.0</ele><time>2026-04-12T07:39:02.982Z</time></trkpt><trkpt lat="38.0187067" lon="15.8826867"><ele>806.0</ele><time>2026-04-12T07:39:03.982Z</time></trkpt><trkpt lat="38.01864" lon="15.8825967"><ele>806.0</ele><time>2026-04-12T07:39:04.982Z</time></trkpt><trkpt lat="38.0185967" lon="15.8824967"><ele>806.0</ele><time>2026-04-12T07:39:06.982Z</time></trkpt><trkpt lat="38.01869" lon="15.8825067"><ele>806.0</ele><time>2026-04-12T07:39:09.982Z</time></trkpt><trkpt lat="38.01878" lon="15.8825767"><ele>806.0</ele><time>2026-04-12T07:39:10.982Z</time></trkpt><trkpt lat="38.0189033" lon="15.8826767"><ele>806.0</ele><time>2026-04-12T07:39:11.983Z</time></trkpt><trkpt lat="38.0190617" lon="15.8827967"><ele>806.0</ele><time>2026-04-12T07:39:12.982Z</time></trkpt><trkpt lat="38.0191883" lon="15.8828767"><ele>810.5999999999999</ele><time>2026-04-12T07:39:13.982Z</time></trkpt><trkpt lat="38.019305" lon="15.8829383"><ele>815.2</ele><time>2026-04-12T07:39:14.983Z</time></trkpt><trkpt lat="38.019405" lon="15.882975"><ele>819.8</ele><time>2026-04-12T07:39:15.983Z</time></trkpt><trkpt lat="38.0194967" lon="15.8829867"><ele>824.4000000000001</ele><time>2026-04-12T07:39:16.983Z</time></trkpt><trkpt lat="38.019585" lon="15.8829733"><ele>829.0</ele><time>2026-04-12T07:39:17.982Z</time></trkpt><trkpt lat="38.0196717" lon="15.88292"><ele>829.0</ele><time>2026-04-12T07:39:18.983Z</time></trkpt><trkpt lat="38.0197583" lon="15.88286"><ele>829.0</ele><time>2026-04-12T07:39:19.983Z</time></trkpt><trkpt lat="38.01985" lon="15.8828117"><ele>829.0</ele><time>2026-04-12T07:39:20.983Z</time></trkpt><trkpt lat="38.0199567" lon="15.8827683"><ele>829.0</ele><time>2026-04-12T07:39:21.983Z</time></trkpt><trkpt lat="38.0200567" lon="15.88274"><ele>829.0</ele><time>2026-04-12T07:39:22.982Z</time></trkpt><trkpt lat="38.0201517" lon="15.88272"><ele>831.4000000000001</ele><time>2026-04-12T07:39:23.982Z</time></trkpt><trkpt lat="38.0202267" lon="15.882705"><ele>833.8</ele><time>2026-04-12T07:39:24.982Z</time></trkpt><trkpt lat="38.0202983" lon="15.8826883"><ele>836.2</ele><time>2026-04-12T07:39:25.982Z</time></trkpt><trkpt lat="38.0203917" lon="15.8826267"><ele>838.5999999999999</ele><time>2026-04-12T07:39:27.982Z</time></trkpt><trkpt lat="38.0203817" lon="15.8825083"><ele>841.0</ele><time>2026-04-12T07:39:29.982Z</time></trkpt><trkpt lat="38.020285" lon="15.882415"><ele>844.4999999999999</ele><time>2026-04-12T07:39:31.982Z</time></trkpt><trkpt lat="38.020195" lon="15.8823367"><ele>848.0</ele><time>2026-04-12T07:39:33.982Z</time></trkpt><trkpt lat="38.02024" lon="15.8822717"><ele>851.5</ele><time>2026-04-12T07:39:36.983Z</time></trkpt><trkpt lat="38.0203117" lon="15.8822867"><ele>855.0</ele><time>2026-04-12T07:39:37.982Z</time></trkpt><trkpt lat="38.020385" lon="15.8823183"><ele>858.4999999999999</ele><time>2026-04-12T07:39:38.983Z</time></trkpt><trkpt lat="38.0204583" lon="15.882375"><ele>862.0</ele><time>2026-04-12T07:39:39.982Z</time></trkpt><trkpt lat="38.020515" lon="15.8824617"><ele>861.9999999999999</ele><time>2026-04-12T07:39:40.983Z</time></trkpt><trkpt lat="38.020565" lon="15.882535"><ele>862.0</ele><time>2026-04-12T07:39:41.982Z</time></trkpt><trkpt lat="38.0206617" lon="15.8826117"><ele>862.0</ele><time>2026-04-12T07:39:43.982Z</time></trkpt><trkpt lat="38.0207017" lon="15.8824867"><ele>862.0</ele><time>2026-04-12T07:39:46.982Z</time></trkpt><trkpt lat="38.0206917" lon="15.8823967"><ele>861.9999999999999</ele><time>2026-04-12T07:39:47.983Z</time></trkpt><trkpt lat="38.020715" lon="15.88231"><ele>862.0</ele><time>2026-04-12T07:39:48.982Z</time></trkpt><trkpt lat="38.0207567" lon="15.88222"><ele>861.9999999999999</ele><time>2026-04-12T07:39:49.982Z</time></trkpt><trkpt lat="38.0208117" lon="15.8821217"><ele>862.0</ele><time>2026-04-12T07:39:50.982Z</time></trkpt><trkpt lat="38.020885" lon="15.88202"><ele>862.0</ele><time>2026-04-12T07:39:51.982Z</time></trkpt><trkpt lat="38.02094" lon="15.88195"><ele>862.0</ele><time>2026-04-12T07:39:52.982Z</time></trkpt><trkpt lat="38.02101" lon="15.8819133"><ele>861.9999999999999</ele><time>2026-04-12T07:39:53.982Z</time></trkpt><trkpt lat="38.0210817" lon="15.88189"><ele>862.0</ele><time>2026-04-12T07:39:54.983Z</time></trkpt><trkpt lat="38.021155" lon="15.8818783"><ele>867.9999999999999</ele><time>2026-04-12T07:39:55.982Z</time></trkpt><trkpt lat="38.0212517" lon="15.8819033"><ele>874.0</ele><time>2026-04-12T07:39:56.982Z</time></trkpt><trkpt lat="38.0213417" lon="15.881925"><ele>880.0</ele><time>2026-04-12T07:39:57.982Z</time></trkpt><trkpt lat="38.0214217" lon="15.8819483"><ele>886.0</ele><time>2026-04-12T07:39:58.982Z</time></trkpt><trkpt lat="38.0214867" lon="15.881975"><ele>891.9999999999999</ele><time>2026-04-12T07:39:59.982Z</time></trkpt><trkpt lat="38.0215533" lon="15.88204"><ele>898.0</ele><time>2026-04-12T07:40:01.982Z</time></trkpt><trkpt lat="38.0215283" lon="15.8821233"><ele>897.9999999999999</ele><time>2026-04-12T07:40:03.982Z</time></trkpt><trkpt lat="38.0214783" lon="15.8821783"><ele>898.0</ele><time>2026-04-12T07:40:04.983Z</time></trkpt><trkpt lat="38.021405" lon="15.882235"><ele>898.0</ele><time>2026-04-12T07:40:05.983Z</time></trkpt><trkpt lat="38.021325" lon="15.8822767"><ele>898.0</ele><time>2026-04-12T07:40:06.982Z</time></trkpt><trkpt lat="38.0212433" lon="15.882345"><ele>897.9999999999999</ele><time>2026-04-12T07:40:07.982Z</time></trkpt><trkpt lat="38.0211833" lon="15.8824317"><ele>898.0</ele><time>2026-04-12T07:40:08.983Z</time></trkpt><trkpt lat="38.0211267" lon="15.8825017"><ele>898.0</ele><time>2026-04-12T07:40:09.983Z</time></trkpt><trkpt lat="38.021085" lon="15.8825667"><ele>898.0</ele><time>2026-04-12T07:40:10.982Z</time></trkpt><trkpt lat="38.02104" lon="15.8826917"><ele>898.0</ele><time>2026-04-12T07:40:12.982Z</time></trkpt><trkpt lat="38.02113" lon="15.8827117"><ele>898.0</ele><time>2026-04-12T07:40:15.982Z</time></trkpt><trkpt lat="38.021195" lon="15.8826617"><ele>898.0</ele><time>2026-04-12T07:40:16.982Z</time></trkpt><trkpt lat="38.0213" lon="15.8825867"><ele>898.0</ele><time>2026-04-12T07:40:18.983Z</time></trkpt><trkpt lat="38.0214167" lon="15.8825483"><ele>898.0</ele><time>2026-04-12T07:40:20.982Z</time></trkpt><trkpt lat="38.0214933" lon="15.8825483"><ele>898.0</ele><time>2026-04-12T07:40:21.982Z</time></trkpt><trkpt lat="38.0215817" lon="15.8825567"><ele>898.0</ele><time>2026-04-12T07:40:22.982Z</time></trkpt><trkpt lat="38.0216733" lon="15.882555"><ele>898.0</ele><time>2026-04-12T07:40:23.982Z</time></trkpt><trkpt lat="38.021775" lon="15.88255"><ele>904.0</ele><time>2026-04-12T07:40:24.982Z</time></trkpt><trkpt lat="38.021875" lon="15.88254"><ele>910.0</ele><time>2026-04-12T07:40:25.983Z</time></trkpt><trkpt lat="38.0219733" lon="15.8825217"><ele>916.0</ele><time>2026-04-12T07:40:26.982Z</time></trkpt><trkpt lat="38.0220633" lon="15.882515"><ele>922.0</ele><time>2026-04-12T07:40:27.982Z</time></trkpt><trkpt lat="38.0221367" lon="15.88251"><ele>928.0</ele><time>2026-04-12T07:40:28.982Z</time></trkpt><trkpt lat="38.0222233" lon="15.8825517"><ele>930.2</ele><time>2026-04-12T07:40:30.982Z</time></trkpt><trkpt lat="38.0221883" lon="15.88267"><ele>932.4</ele><time>2026-04-12T07:40:33.982Z</time></trkpt><trkpt lat="38.0221267" lon="15.8827183"><ele>934.6000000000001</ele><time>2026-04-12T07:40:34.982Z</time></trkpt><trkpt lat="38.0220317" lon="15.8827633"><ele>936.8000000000001</ele><time>2026-04-12T07:40:35.983Z</time></trkpt><trkpt lat="38.0219267" lon="15.8828017"><ele>939.0</ele><time>2026-04-12T07:40:36.982Z</time></trkpt><trkpt lat="38.02182" lon="15.8828167"><ele>939.0</ele><time>2026-04-12T07:40:37.982Z</time></trkpt><trkpt lat="38.0217333" lon="15.882835"><ele>939.0</ele><time>2026-04-12T07:40:38.982Z</time></trkpt><trkpt lat="38.0216717" lon="15.882865"><ele>939.0</ele><time>2026-04-12T07:40:39.982Z</time></trkpt><trkpt lat="38.0216183" lon="15.8829783"><ele>939.0</ele><time>2026-04-12T07:40:41.982Z</time></trkpt><trkpt lat="38.0216183" lon="15.8830583"><ele>939.0</ele><time>2026-04-12T07:40:42.982Z</time></trkpt><trkpt lat="38.0216383" lon="15.8831533"><ele>939.0</ele><time>2026-04-12T07:40:43.982Z</time></trkpt><trkpt lat="38.0216717" lon="15.8832467"><ele>939.0</ele><time>2026-04-12T07:40:44.982Z</time></trkpt><trkpt lat="38.0217083" lon="15.8833383"><ele>939.0000000000001</ele><time>2026-04-12T07:40:45.983Z</time></trkpt><trkpt lat="38.0217667" lon="15.8834367"><ele>939.0000000000001</ele><time>2026-04-12T07:40:46.982Z</time></trkpt><trkpt lat="38.02184" lon="15.8835167"><ele>939.0</ele><time>2026-04-12T07:40:47.983Z</time></trkpt><trkpt lat="38.02192" lon="15.8835883"><ele>939.0</ele><time>2026-04-12T07:40:48.982Z</time></trkpt><trkpt lat="38.022" lon="15.8836517"><ele>936.8571428571429</ele><time>2026-04-12T07:40:49.982Z</time></trkpt><trkpt lat="38.0220733" lon="15.8836867"><ele>934.7142857142857</ele><time>2026-04-12T07:40:50.982Z</time></trkpt><trkpt lat="38.0221433" lon="15.8836817"><ele>932.5714285714286</ele><time>2026-04-12T07:40:51.982Z</time></trkpt><trkpt lat="38.0222083" lon="15.8836533"><ele>930.4285714285714</ele><time>2026-04-12T07:40:52.982Z</time></trkpt><trkpt lat="38.0222767" lon="15.8836167"><ele>928.2857142857142</ele><time>2026-04-12T07:40:53.982Z</time></trkpt><trkpt lat="38.022345" lon="15.883575"><ele>926.1428571428571</ele><time>2026-04-12T07:40:54.982Z</time></trkpt><trkpt lat="38.0224233" lon="15.8835483"><ele>924.0</ele><time>2026-04-12T07:40:55.983Z</time></trkpt><trkpt lat="38.0225167" lon="15.8835367"><ele>924.0</ele><time>2026-04-12T07:40:56.982Z</time></trkpt><trkpt lat="38.022595" lon="15.8835283"><ele>924.0</ele><time>2026-04-12T07:40:57.982Z</time></trkpt><trkpt lat="38.0226767" lon="15.88352"><ele>924.0</ele><time>2026-04-12T07:40:58.983Z</time></trkpt><trkpt lat="38.0227483" lon="15.8835"><ele>924.0</ele><time>2026-04-12T07:40:59.982Z</time></trkpt><trkpt lat="38.02282" lon="15.88346"><ele>924.0</ele><time>2026-04-12T07:41:00.982Z</time></trkpt><trkpt lat="38.0228817" lon="15.8833983"><ele>924.0</ele><time>2026-04-12T07:41:01.983Z</time></trkpt><trkpt lat="38.022935" lon="15.8833133"><ele>930.3333333333334</ele><time>2026-04-12T07:41:02.982Z</time></trkpt><trkpt lat="38.0229983" lon="15.8832333"><ele>936.6666666666667</ele><time>2026-04-12T07:41:03.982Z</time></trkpt><trkpt lat="38.02307" lon="15.8831733"><ele>943.0</ele><time>2026-04-12T07:41:04.982Z</time></trkpt><trkpt lat="38.0231367" lon="15.883135"><ele>949.3333333333334</ele><time>2026-04-12T07:41:05.982Z</time></trkpt><trkpt lat="38.023205" lon="15.8830967"><ele>955.6666666666667</ele><time>2026-04-12T07:41:06.983Z</time></trkpt><trkpt lat="38.0232783" lon="15.8830817"><ele>962.0</ele><time>2026-04-12T07:41:07.983Z</time></trkpt><trkpt lat="38.0233517" lon="15.88306"><ele>962.1666666666667</ele><time>2026-04-12T07:41:08.982Z</time></trkpt><trkpt lat="38.02343" lon="15.883035"><ele>962.3333333333334</ele><time>2026-04-12T07:41:09.982Z</time></trkpt><trkpt lat="38.0235167" lon="15.883015"><ele>962.5</ele><time>2026-04-12T07:41:10.983Z</time></trkpt><trkpt lat="38.023605" lon="15.8830017"><ele>962.6666666666667</ele><time>2026-04-12T07:41:11.983Z</time></trkpt><trkpt lat="38.0236983" lon="15.8830033"><ele>962.8333333333334</ele><time>2026-04-12T07:41:12.982Z</time></trkpt><trkpt lat="38.0237833" lon="15.8830083"><ele>963.0</ele><time>2026-04-12T07:41:13.982Z</time></trkpt><trkpt lat="38.0238733" lon="15.8830033"><ele>963.0</ele><time>2026-04-12T07:41:14.983Z</time></trkpt><trkpt lat="38.0239617" lon="15.882985"><ele>963.0</ele><time>2026-04-12T07:41:15.982Z</time></trkpt><trkpt lat="38.0240533" lon="15.88296"><ele>963.0</ele><time>2026-04-12T07:41:16.982Z</time></trkpt><trkpt lat="38.024145" lon="15.8829417"><ele>963.0</ele><time>2026-04-12T07:41:17.983Z</time></trkpt><trkpt lat="38.0242433" lon="15.8829317"><ele>963.0</ele><time>2026-04-12T07:41:18.983Z</time></trkpt><trkpt lat="38.0243433" lon="15.88293"><ele>968.5999999999999</ele><time>2026-04-12T07:41:19.982Z</time></trkpt><trkpt lat="38.02444" lon="15.882925"><ele>974.1999999999999</ele><time>2026-04-12T07:41:20.982Z</time></trkpt><trkpt lat="38.0245333" lon="15.8829217"><ele>979.8</ele><time>2026-04-12T07:41:21.982Z</time></trkpt><trkpt lat="38.0246267" lon="15.8829283"><ele>985.4</ele><time>2026-04-12T07:41:22.983Z</time></trkpt><trkpt lat="38.0247233" lon="15.8829383"><ele>991.0</ele><time>2026-04-12T07:41:23.982Z</time></trkpt><trkpt lat="38.0248017" lon="15.8829433"><ele>990.9999999999999</ele><time>2026-04-12T07:41:24.982Z</time></trkpt><trkpt lat="38.0248867" lon="15.8829417"><ele>991.0</ele><time>2026-04-12T07:41:25.982Z</time></trkpt><trkpt lat="38.024965" lon="15.882945"><ele>991.0</ele><time>2026-04-12T07:41:26.982Z</time></trkpt><trkpt lat="38.025035" lon="15.88294"><ele>991.0</ele><time>2026-04-12T07:41:27.983Z</time></trkpt><trkpt lat="38.0251083" lon="15.882925"><ele>990.9999999999999</ele><time>2026-04-12T07:41:28.983Z</time></trkpt><trkpt lat="38.0251933" lon="15.8828933"><ele>991.0</ele><time>2026-04-12T07:41:29.982Z</time></trkpt><trkpt lat="38.025265" lon="15.8828417"><ele>992.6666666666666</ele><time>2026-04-12T07:41:30.982Z</time></trkpt><trkpt lat="38.0253317" lon="15.882775"><ele>994.3333333333333</ele><time>2026-04-12T07:41:31.983Z</time></trkpt><trkpt lat="38.02538" lon="15.8826983"><ele>996.0</ele><time>2026-04-12T07:41:32.982Z</time></trkpt><trkpt lat="38.025435" lon="15.8826333"><ele>997.6666666666667</ele><time>2026-04-12T07:41:33.982Z</time></trkpt><trkpt lat="38.0255" lon="15.8825817"><ele>999.3333333333334</ele><time>2026-04-12T07:41:34.982Z</time></trkpt><trkpt lat="38.025575" lon="15.882545"><ele>1001.0</ele><time>2026-04-12T07:41:35.982Z</time></trkpt><trkpt lat="38.0256533" lon="15.8825067"><ele>1001.0000000000001</ele><time>2026-04-12T07:41:36.982Z</time></trkpt><trkpt lat="38.0257433" lon="15.8824767"><ele>1001.0</ele><time>2026-04-12T07:41:37.982Z</time></trkpt><trkpt lat="38.0258283" lon="15.8824467"><ele>1001.0</ele><time>2026-04-12T07:41:38.982Z</time></trkpt><trkpt lat="38.0259083" lon="15.8824033"><ele>1001.0</ele><time>2026-04-12T07:41:39.982Z</time></trkpt><trkpt lat="38.0259833" lon="15.882355"><ele>1001.0000000000001</ele><time>2026-04-12T07:41:40.983Z</time></trkpt><trkpt lat="38.026055" lon="15.88231"><ele>1001.0</ele><time>2026-04-12T07:41:41.982Z</time></trkpt><trkpt lat="38.026125" lon="15.8822833"><ele>1006.1666666666667</ele><time>2026-04-12T07:41:42.982Z</time></trkpt><trkpt lat="38.0262033" lon="15.8822617"><ele>1011.3333333333334</ele><time>2026-04-12T07:41:43.982Z</time></trkpt><trkpt lat="38.0262817" lon="15.8822633"><ele>1016.5</ele><time>2026-04-12T07:41:44.982Z</time></trkpt><trkpt lat="38.0263667" lon="15.8822733"><ele>1021.6666666666667</ele><time>2026-04-12T07:41:45.982Z</time></trkpt><trkpt lat="38.0264533" lon="15.8822833"><ele>1026.8333333333333</ele><time>2026-04-12T07:41:46.982Z</time></trkpt><trkpt lat="38.0265367" lon="15.8822917"><ele>1032.0</ele><time>2026-04-12T07:41:47.982Z</time></trkpt><trkpt lat="38.0266183" lon="15.8823117"><ele>1034.5</ele><time>2026-04-12T07:41:48.982Z</time></trkpt><trkpt lat="38.0266917" lon="15.8823433"><ele>1037.0</ele><time>2026-04-12T07:41:49.983Z</time></trkpt><trkpt lat="38.02676" lon="15.8823967"><ele>1039.5</ele><time>2026-04-12T07:41:50.983Z</time></trkpt><trkpt lat="38.0268183" lon="15.88247"><ele>1042.0</ele><time>2026-04-12T07:41:51.982Z</time></trkpt><trkpt lat="38.0268567" lon="15.8825733"><ele>1044.5</ele><time>2026-04-12T07:41:52.983Z</time></trkpt><trkpt lat="38.0268933" lon="15.8826783"><ele>1047.0</ele><time>2026-04-12T07:41:53.982Z</time></trkpt><trkpt lat="38.0269333" lon="15.8827767"><ele>1051.6</ele><time>2026-04-12T07:41:54.983Z</time></trkpt><trkpt lat="38.02697" lon="15.8828583"><ele>1056.2</ele><time>2026-04-12T07:41:55.983Z</time></trkpt><trkpt lat="38.0270067" lon="15.88294"><ele>1060.8</ele><time>2026-04-12T07:41:56.982Z</time></trkpt><trkpt lat="38.0270533" lon="15.8830883"><ele>1065.4</ele><time>2026-04-12T07:41:58.982Z</time></trkpt><trkpt lat="38.02712" lon="15.8831867"><ele>1070.0</ele><time>2026-04-12T07:42:00.982Z</time></trkpt><trkpt lat="38.0272217" lon="15.8832233"><ele>1070.0</ele><time>2026-04-12T07:42:02.982Z</time></trkpt><trkpt lat="38.0272817" lon="15.88325"><ele>1070.0</ele><time>2026-04-12T07:42:03.982Z</time></trkpt><trkpt lat="38.027345" lon="15.8832633"><ele>1070.0</ele><time>2026-04-12T07:42:04.982Z</time></trkpt><trkpt lat="38.0274083" lon="15.8832783"><ele>1070.0</ele><time>2026-04-12T07:42:05.982Z</time></trkpt><trkpt lat="38.02748" lon="15.8833"><ele>1070.0</ele><time>2026-04-12T07:42:06.983Z</time></trkpt><trkpt lat="38.027555" lon="15.8833283"><ele>1070.0</ele><time>2026-04-12T07:42:07.982Z</time></trkpt><trkpt lat="38.0276317" lon="15.88336"><ele>1070.0</ele><time>2026-04-12T07:42:08.982Z</time></trkpt><trkpt lat="38.0277117" lon="15.8833867"><ele>1068.4285714285713</ele><time>2026-04-12T07:42:09.982Z</time></trkpt><trkpt lat="38.0277817" lon="15.8834133"><ele>1066.857142857143</ele><time>2026-04-12T07:42:10.983Z</time></trkpt><trkpt lat="38.0278517" lon="15.8834217"><ele>1065.2857142857142</ele><time>2026-04-12T07:42:11.982Z</time></trkpt><trkpt lat="38.0279233" lon="15.88342"><ele>1063.7142857142858</ele><time>2026-04-12T07:42:12.982Z</time></trkpt><trkpt lat="38.0279933" lon="15.8833983"><ele>1062.142857142857</ele><time>2026-04-12T07:42:13.982Z</time></trkpt><trkpt lat="38.028055" lon="15.8833483"><ele>1060.5714285714284</ele><time>2026-04-12T07:42:14.982Z</time></trkpt><trkpt lat="38.0281017" lon="15.88328"><ele>1059.0</ele><time>2026-04-12T07:42:15.982Z</time></trkpt><trkpt lat="38.0281317" lon="15.8832"><ele>1059.0</ele><time>2026-04-12T07:42:16.982Z</time></trkpt><trkpt lat="38.0281517" lon="15.8831"><ele>1059.0</ele><time>2026-04-12T07:42:17.982Z</time></trkpt><trkpt lat="38.0281733" lon="15.8829983"><ele>1059.0</ele><time>2026-04-12T07:42:18.982Z</time></trkpt><trkpt lat="38.0282" lon="15.882895"><ele>1059.0</ele><time>2026-04-12T07:42:19.982Z</time></trkpt><trkpt lat="38.02823" lon="15.8827883"><ele>1059.0</ele><time>2026-04-12T07:42:20.982Z</time></trkpt><trkpt lat="38.0282617" lon="15.882695"><ele>1059.0</ele><time>2026-04-12T07:42:21.982Z</time></trkpt><trkpt lat="38.02829" lon="15.8826"><ele>1062.3333333333333</ele><time>2026-04-12T07:42:22.982Z</time></trkpt><trkpt lat="38.028325" lon="15.8825033"><ele>1065.6666666666667</ele><time>2026-04-12T07:42:23.982Z</time></trkpt><trkpt lat="38.02837" lon="15.88241"><ele>1069.0</ele><time>2026-04-12T07:42:24.983Z</time></trkpt><trkpt lat="38.0284267" lon="15.8823333"><ele>1072.3333333333335</ele><time>2026-04-12T07:42:25.982Z</time></trkpt><trkpt lat="38.028485" lon="15.8822567"><ele>1075.6666666666667</ele><time>2026-04-12T07:42:26.983Z</time></trkpt><trkpt lat="38.0285533" lon="15.882175"><ele>1079.0</ele><time>2026-04-12T07:42:27.982Z</time></trkpt><trkpt lat="38.0286233" lon="15.8820917"><ele>1079.0</ele><time>2026-04-12T07:42:28.982Z</time></trkpt><trkpt lat="38.028685" lon="15.8820083"><ele>1079.0</ele><time>2026-04-12T07:42:29.982Z</time></trkpt><trkpt lat="38.0287483" lon="15.8819317"><ele>1079.0</ele><time>2026-04-12T07:42:30.983Z</time></trkpt><trkpt lat="38.0288083" lon="15.8818533"><ele>1079.0</ele><time>2026-04-12T07:42:31.982Z</time></trkpt><trkpt lat="38.028865" lon="15.8817833"><ele>1079.0</ele><time>2026-04-12T07:42:32.982Z</time></trkpt><trkpt lat="38.0289233" lon="15.88173"><ele>1079.0</ele><time>2026-04-12T07:42:33.983Z</time></trkpt><trkpt lat="38.0289883" lon="15.8816817"><ele>1077.6666666666667</ele><time>2026-04-12T07:42:34.983Z</time></trkpt><trkpt lat="38.029065" lon="15.8816517"><ele>1076.3333333333335</ele><time>2026-04-12T07:42:35.982Z</time></trkpt><trkpt lat="38.0291467" lon="15.8816483"><ele>1075.0</ele><time>2026-04-12T07:42:36.982Z</time></trkpt><trkpt lat="38.0292333" lon="15.88168"><ele>1073.6666666666667</ele><time>2026-04-12T07:42:37.982Z</time></trkpt><trkpt lat="38.029305" lon="15.8817267"><ele>1072.3333333333333</ele><time>2026-04-12T07:42:38.982Z</time></trkpt><trkpt lat="38.0293683" lon="15.881795"><ele>1071.0</ele><time>2026-04-12T07:42:39.982Z</time></trkpt><trkpt lat="38.0294417" lon="15.8818833"><ele>1076.8</ele><time>2026-04-12T07:42:40.982Z</time></trkpt><trkpt lat="38.0295267" lon="15.8819917"><ele>1082.6</ele><time>2026-04-12T07:42:41.982Z</time></trkpt><trkpt lat="38.0296117" lon="15.8820917"><ele>1088.4</ele><time>2026-04-12T07:42:42.982Z</time></trkpt><trkpt lat="38.02969" lon="15.8821767"><ele>1094.2</ele><time>2026-04-12T07:42:43.983Z</time></trkpt><trkpt lat="38.029755" lon="15.8822467"><ele>1100.0</ele><time>2026-04-12T07:42:44.982Z</time></trkpt><trkpt lat="38.029825" lon="15.8823017"><ele>1100.0</ele><time>2026-04-12T07:42:45.982Z</time></trkpt><trkpt lat="38.0298967" lon="15.882335"><ele>1100.0</ele><time>2026-04-12T07:42:46.982Z</time></trkpt><trkpt lat="38.0299867" lon="15.8823417"><ele>1100.0</ele><time>2026-04-12T07:42:47.982Z</time></trkpt><trkpt lat="38.03007" lon="15.8823333"><ele>1100.0</ele><time>2026-04-12T07:42:48.983Z</time></trkpt><trkpt lat="38.030145" lon="15.8822817"><ele>1100.0</ele><time>2026-04-12T07:42:49.983Z</time></trkpt><trkpt lat="38.03021" lon="15.8822133"><ele>1100.0</ele><time>2026-04-12T07:42:50.983Z</time></trkpt><trkpt lat="38.030265" lon="15.8821183"><ele>1103.0</ele><time>2026-04-12T07:42:51.982Z</time></trkpt><trkpt lat="38.0303067" lon="15.882005"><ele>1106.0</ele><time>2026-04-12T07:42:52.983Z</time></trkpt><trkpt lat="38.0303567" lon="15.8818817"><ele>1109.0</ele><time>2026-04-12T07:42:53.983Z</time></trkpt><trkpt lat="38.030415" lon="15.881755"><ele>1112.0</ele><time>2026-04-12T07:42:54.982Z</time></trkpt><trkpt lat="38.0304633" lon="15.88162"><ele>1115.0</ele><time>2026-04-12T07:42:55.982Z</time></trkpt><trkpt lat="38.0305183" lon="15.8814883"><ele>1116.4</ele><time>2026-04-12T07:42:56.982Z</time></trkpt><trkpt lat="38.0305817" lon="15.8813583"><ele>1117.8</ele><time>2026-04-12T07:42:57.982Z</time></trkpt><trkpt lat="38.0306433" lon="15.8812367"><ele>1119.2</ele><time>2026-04-12T07:42:58.983Z</time></trkpt><trkpt lat="38.0306933" lon="15.881125"><ele>1120.6</ele><time>2026-04-12T07:42:59.982Z</time></trkpt><trkpt lat="38.030745" lon="15.88102"><ele>1122.0</ele><time>2026-04-12T07:43:00.982Z</time></trkpt><trkpt lat="38.0308017" lon="15.8809283"><ele>1124.0</ele><time>2026-04-12T07:43:01.982Z</time></trkpt><trkpt lat="38.0308583" lon="15.88085"><ele>1126.0</ele><time>2026-04-12T07:43:02.983Z</time></trkpt><trkpt lat="38.0309183" lon="15.8807917"><ele>1128.0</ele><time>2026-04-12T07:43:03.982Z</time></trkpt><trkpt lat="38.030995" lon="15.8807533"><ele>1130.0</ele><time>2026-04-12T07:43:04.982Z</time></trkpt><trkpt lat="38.0310783" lon="15.8807317"><ele>1132.0</ele><time>2026-04-12T07:43:05.982Z</time></trkpt><trkpt lat="38.0311667" lon="15.880725"><ele>1134.0</ele><time>2026-04-12T07:43:06.982Z</time></trkpt><trkpt lat="38.0312583" lon="15.88073"><ele>1134.0</ele><time>2026-04-12T07:43:07.983Z</time></trkpt><trkpt lat="38.0313533" lon="15.8807283"><ele>1134.0</ele><time>2026-04-12T07:43:08.982Z</time></trkpt><trkpt lat="38.03145" lon="15.8807367"><ele>1134.0</ele><time>2026-04-12T07:43:09.982Z</time></trkpt><trkpt lat="38.0315517" lon="15.8807383"><ele>1134.0</ele><time>2026-04-12T07:43:10.982Z</time></trkpt><trkpt lat="38.0316533" lon="15.8807367"><ele>1134.0</ele><time>2026-04-12T07:43:11.982Z</time></trkpt><trkpt lat="38.0317517" lon="15.88073"><ele>1133.8</ele><time>2026-04-12T07:43:12.982Z</time></trkpt><trkpt lat="38.0318533" lon="15.8807283"><ele>1133.6000000000001</ele><time>2026-04-12T07:43:13.983Z</time></trkpt><trkpt lat="38.03195" lon="15.8807283"><ele>1133.4</ele><time>2026-04-12T07:43:14.982Z</time></trkpt><trkpt lat="38.0320533" lon="15.8807333"><ele>1133.2</ele><time>2026-04-12T07:43:15.982Z</time></trkpt><trkpt lat="38.032155" lon="15.8807417"><ele>1133.0</ele><time>2026-04-12T07:43:16.982Z</time></trkpt><trkpt lat="38.0322617" lon="15.880745"><ele>1133.0</ele><time>2026-04-12T07:43:17.983Z</time></trkpt><trkpt lat="38.0323617" lon="15.8807367"><ele>1133.0</ele><time>2026-04-12T07:43:18.982Z</time></trkpt><trkpt lat="38.0324633" lon="15.88073"><ele>1133.0</ele><time>2026-04-12T07:43:19.983Z</time></trkpt><trkpt lat="38.0325517" lon="15.88073"><ele>1133.0</ele><time>2026-04-12T07:43:20.983Z</time></trkpt><trkpt lat="38.03265" lon="15.880715"><ele>1133.0</ele><time>2026-04-12T07:43:21.982Z</time></trkpt><trkpt lat="38.0327433" lon="15.880705"><ele>1132.6</ele><time>2026-04-12T07:43:22.983Z</time></trkpt><trkpt lat="38.0328317" lon="15.88066"><ele>1132.1999999999998</ele><time>2026-04-12T07:43:23.982Z</time></trkpt><trkpt lat="38.032915" lon="15.8806"><ele>1131.8</ele><time>2026-04-12T07:43:24.982Z</time></trkpt><trkpt lat="38.0329867" lon="15.8805333"><ele>1131.3999999999999</ele><time>2026-04-12T07:43:25.982Z</time></trkpt><trkpt lat="38.0330417" lon="15.88044"><ele>1131.0</ele><time>2026-04-12T07:43:26.983Z</time></trkpt><trkpt lat="38.0330733" lon="15.8803183"><ele>1131.0</ele><time>2026-04-12T07:43:27.982Z</time></trkpt><trkpt lat="38.0331" lon="15.880185"><ele>1131.0</ele><time>2026-04-12T07:43:28.982Z</time></trkpt><trkpt lat="38.03313" lon="15.8800517"><ele>1131.0</ele><time>2026-04-12T07:43:29.983Z</time></trkpt><trkpt lat="38.0331633" lon="15.8799067"><ele>1131.0</ele><time>2026-04-12T07:43:30.982Z</time></trkpt><trkpt lat="38.03319" lon="15.8797617"><ele>1130.6</ele><time>2026-04-12T07:43:31.982Z</time></trkpt><trkpt lat="38.033215" lon="15.87962"><ele>1130.1999999999998</ele><time>2026-04-12T07:43:32.982Z</time></trkpt><trkpt lat="38.033245" lon="15.8794933"><ele>1129.8000000000002</ele><time>2026-04-12T07:43:33.982Z</time></trkpt><trkpt lat="38.0332617" lon="15.8793583"><ele>1129.4</ele><time>2026-04-12T07:43:34.982Z</time></trkpt><trkpt lat="38.0332717" lon="15.8792167"><ele>1129.0</ele><time>2026-04-12T07:43:35.982Z</time></trkpt><trkpt lat="38.0332717" lon="15.8790567"><ele>1128.75</ele><time>2026-04-12T07:43:36.982Z</time></trkpt><trkpt lat="38.033265" lon="15.87891"><ele>1128.5</ele><time>2026-04-12T07:43:37.982Z</time></trkpt><trkpt lat="38.03326" lon="15.87876"><ele>1128.25</ele><time>2026-04-12T07:43:38.982Z</time></trkpt><trkpt lat="38.0332567" lon="15.8786083"><ele>1128.0</ele><time>2026-04-12T07:43:39.982Z</time></trkpt><trkpt lat="38.0332517" lon="15.878465"><ele>1128.0</ele><time>2026-04-12T07:43:40.982Z</time></trkpt><trkpt lat="38.0332483" lon="15.8783233"><ele>1128.0</ele><time>2026-04-12T07:43:41.982Z</time></trkpt><trkpt lat="38.0332417" lon="15.8781867"><ele>1128.0</ele><time>2026-04-12T07:43:42.982Z</time></trkpt><trkpt lat="38.03323" lon="15.8780433"><ele>1128.0</ele><time>2026-04-12T07:43:43.982Z</time></trkpt><trkpt lat="38.033215" lon="15.877895"><ele>1128.0</ele><time>2026-04-12T07:43:44.982Z</time></trkpt><trkpt lat="38.0331917" lon="15.8777483"><ele>1128.0</ele><time>2026-04-12T07:43:45.982Z</time></trkpt><trkpt lat="38.0331583" lon="15.877605"><ele>1128.0</ele><time>2026-04-12T07:43:46.982Z</time></trkpt><trkpt lat="38.03313" lon="15.877465"><ele>1128.0</ele><time>2026-04-12T07:43:47.983Z</time></trkpt><trkpt lat="38.033105" lon="15.8773333"><ele>1127.0</ele><time>2026-04-12T07:43:48.982Z</time></trkpt><trkpt lat="38.03308" lon="15.8772183"><ele>1126.0</ele><time>2026-04-12T07:43:49.983Z</time></trkpt><trkpt lat="38.03305" lon="15.8771217"><ele>1125.0</ele><time>2026-04-12T07:43:50.983Z</time></trkpt><trkpt lat="38.0329967" lon="15.8770267"><ele>1124.0</ele><time>2026-04-12T07:43:51.982Z</time></trkpt><trkpt lat="38.0329133" lon="15.876965"><ele>1123.0</ele><time>2026-04-12T07:43:52.982Z</time></trkpt><trkpt lat="38.032815" lon="15.8769233"><ele>1123.0</ele><time>2026-04-12T07:43:53.982Z</time></trkpt><trkpt lat="38.03271" lon="15.8768917"><ele>1123.0</ele><time>2026-04-12T07:43:54.982Z</time></trkpt><trkpt lat="38.0326033" lon="15.8768583"><ele>1123.0</ele><time>2026-04-12T07:43:55.982Z</time></trkpt><trkpt lat="38.0325017" lon="15.8768367"><ele>1123.0</ele><time>2026-04-12T07:43:56.983Z</time></trkpt><trkpt lat="38.0324067" lon="15.8768083"><ele>1123.0</ele><time>2026-04-12T07:43:57.982Z</time></trkpt><trkpt lat="38.0323267" lon="15.8767683"><ele>1119.6666666666665</ele><time>2026-04-12T07:43:58.982Z</time></trkpt><trkpt lat="38.032265" lon="15.8767133"><ele>1116.3333333333333</ele><time>2026-04-12T07:43:59.982Z</time></trkpt><trkpt lat="38.0322167" lon="15.8766333"><ele>1113.0</ele><time>2026-04-12T07:44:00.982Z</time></trkpt><trkpt lat="38.0321917" lon="15.8765383"><ele>1109.6666666666667</ele><time>2026-04-12T07:44:01.983Z</time></trkpt><trkpt lat="38.032185" lon="15.8764333"><ele>1106.3333333333335</ele><time>2026-04-12T07:44:02.982Z</time></trkpt><trkpt lat="38.0321917" lon="15.8763217"><ele>1103.0</ele><time>2026-04-12T07:44:03.982Z</time></trkpt><trkpt lat="38.0322067" lon="15.8762"><ele>1103.0</ele><time>2026-04-12T07:44:04.983Z</time></trkpt><trkpt lat="38.0322117" lon="15.8760867"><ele>1103.0</ele><time>2026-04-12T07:44:05.982Z</time></trkpt><trkpt lat="38.0322333" lon="15.8759717"><ele>1103.0</ele><time>2026-04-12T07:44:06.983Z</time></trkpt><trkpt lat="38.0322667" lon="15.8758683"><ele>1103.0</ele><time>2026-04-12T07:44:07.983Z</time></trkpt><trkpt lat="38.0323017" lon="15.8757633"><ele>1103.0</ele><time>2026-04-12T07:44:08.982Z</time></trkpt><trkpt lat="38.03234" lon="15.8756733"><ele>1103.0</ele><time>2026-04-12T07:44:09.982Z</time></trkpt><trkpt lat="38.0324" lon="15.8755917"><ele>1102.1666666666667</ele><time>2026-04-12T07:44:10.982Z</time></trkpt><trkpt lat="38.0324617" lon="15.8755183"><ele>1101.3333333333335</ele><time>2026-04-12T07:44:11.982Z</time></trkpt><trkpt lat="38.03253" lon="15.87546"><ele>1100.5</ele><time>2026-04-12T07:44:12.982Z</time></trkpt><trkpt lat="38.0326083" lon="15.8754067"><ele>1099.6666666666667</ele><time>2026-04-12T07:44:13.982Z</time></trkpt><trkpt lat="38.03269" lon="15.8753717"><ele>1098.8333333333333</ele><time>2026-04-12T07:44:14.982Z</time></trkpt><trkpt lat="38.0327683" lon="15.8753483"><ele>1098.0</ele><time>2026-04-12T07:44:15.982Z</time></trkpt><trkpt lat="38.0328517" lon="15.8753267"><ele>1097.5</ele><time>2026-04-12T07:44:16.983Z</time></trkpt><trkpt lat="38.0329333" lon="15.8753017"><ele>1097.0</ele><time>2026-04-12T07:44:17.983Z</time></trkpt><trkpt lat="38.0330167" lon="15.8752717"><ele>1096.5</ele><time>2026-04-12T07:44:18.982Z</time></trkpt><trkpt lat="38.0330967" lon="15.8752383"><ele>1096.0</ele><time>2026-04-12T07:44:19.983Z</time></trkpt><trkpt lat="38.0331717" lon="15.8751917"><ele>1095.5</ele><time>2026-04-12T07:44:20.983Z</time></trkpt><trkpt lat="38.033235" lon="15.875125"><ele>1095.0</ele><time>2026-04-12T07:44:21.983Z</time></trkpt><trkpt lat="38.0332867" lon="15.8750533"><ele>1095.1666666666667</ele><time>2026-04-12T07:44:22.982Z</time></trkpt><trkpt lat="38.0333283" lon="15.87497"><ele>1095.3333333333333</ele><time>2026-04-12T07:44:23.982Z</time></trkpt><trkpt lat="38.0333633" lon="15.8748817"><ele>1095.5</ele><time>2026-04-12T07:44:24.983Z</time></trkpt><trkpt lat="38.0333783" lon="15.874795"><ele>1095.6666666666665</ele><time>2026-04-12T07:44:25.983Z</time></trkpt><trkpt lat="38.0333933" lon="15.8746933"><ele>1095.8333333333333</ele><time>2026-04-12T07:44:26.982Z</time></trkpt><trkpt lat="38.0333917" lon="15.8746033"><ele>1096.0</ele><time>2026-04-12T07:44:27.982Z</time></trkpt><trkpt lat="38.0333783" lon="15.8744983"><ele>1096.0</ele><time>2026-04-12T07:44:28.983Z</time></trkpt><trkpt lat="38.03335" lon="15.8743983"><ele>1096.0</ele><time>2026-04-12T07:44:29.982Z</time></trkpt><trkpt lat="38.0333183" lon="15.87431"><ele>1096.0</ele><time>2026-04-12T07:44:30.982Z</time></trkpt><trkpt lat="38.0332817" lon="15.8742183"><ele>1096.0</ele><time>2026-04-12T07:44:31.982Z</time></trkpt><trkpt lat="38.0332267" lon="15.87408"><ele>1096.0</ele><time>2026-04-12T07:44:33.982Z</time></trkpt><trkpt lat="38.0331967" lon="15.8739483"><ele>1095.1666666666665</ele><time>2026-04-12T07:44:35.982Z</time></trkpt><trkpt lat="38.0331733" lon="15.8738183"><ele>1094.3333333333333</ele><time>2026-04-12T07:44:37.982Z</time></trkpt><trkpt lat="38.0331567" lon="15.8736667"><ele>1093.5</ele><time>2026-04-12T07:44:39.982Z</time></trkpt><trkpt lat="38.03314" lon="15.8735817"><ele>1092.6666666666667</ele><time>2026-04-12T07:44:40.982Z</time></trkpt><trkpt lat="38.033115" lon="15.8734967"><ele>1091.8333333333335</ele><time>2026-04-12T07:44:41.983Z</time></trkpt><trkpt lat="38.0330967" lon="15.873405"><ele>1091.0</ele><time>2026-04-12T07:44:42.982Z</time></trkpt><trkpt lat="38.0330733" lon="15.87331"><ele>1091.0</ele><time>2026-04-12T07:44:43.983Z</time></trkpt><trkpt lat="38.0330533" lon="15.87322"><ele>1091.0</ele><time>2026-04-12T07:44:44.983Z</time></trkpt><trkpt lat="38.033035" lon="15.8731267"><ele>1091.0</ele><time>2026-04-12T07:44:45.982Z</time></trkpt><trkpt lat="38.0330217" lon="15.8730433"><ele>1091.0</ele><time>2026-04-12T07:44:46.982Z</time></trkpt><trkpt lat="38.0329933" lon="15.8729483"><ele>1091.0</ele><time>2026-04-12T07:44:47.982Z</time></trkpt><trkpt lat="38.0329817" lon="15.8728617"><ele>1091.0</ele><time>2026-04-12T07:44:48.983Z</time></trkpt><trkpt lat="38.0329917" lon="15.87277"><ele>1091.0</ele><time>2026-04-12T07:44:49.982Z</time></trkpt><trkpt lat="38.0330117" lon="15.8726933"><ele>1091.0</ele><time>2026-04-12T07:44:50.983Z</time></trkpt><trkpt lat="38.0330533" lon="15.87262"><ele>1091.0</ele><time>2026-04-12T07:44:51.982Z</time></trkpt><trkpt lat="38.0331083" lon="15.8725533"><ele>1091.0</ele><time>2026-04-12T07:44:52.982Z</time></trkpt><trkpt lat="38.0331683" lon="15.8725017"><ele>1091.0</ele><time>2026-04-12T07:44:53.982Z</time></trkpt><trkpt lat="38.0332417" lon="15.872485"><ele>1091.0</ele><time>2026-04-12T07:44:54.982Z</time></trkpt><trkpt lat="38.033315" lon="15.8724783"><ele>1091.0</ele><time>2026-04-12T07:44:55.982Z</time></trkpt><trkpt lat="38.0333983" lon="15.872485"><ele>1092.3333333333335</ele><time>2026-04-12T07:44:56.982Z</time></trkpt><trkpt lat="38.0334717" lon="15.8724817"><ele>1093.6666666666667</ele><time>2026-04-12T07:44:57.983Z</time></trkpt><trkpt lat="38.03355" lon="15.8724833"><ele>1095.0</ele><time>2026-04-12T07:44:58.982Z</time></trkpt><trkpt lat="38.03363" lon="15.8724817"><ele>1096.3333333333333</ele><time>2026-04-12T07:44:59.982Z</time></trkpt><trkpt lat="38.0337083" lon="15.8724817"><ele>1097.6666666666665</ele><time>2026-04-12T07:45:00.982Z</time></trkpt><trkpt lat="38.0337867" lon="15.8724833"><ele>1099.0</ele><time>2026-04-12T07:45:01.982Z</time></trkpt><trkpt lat="38.0338667" lon="15.872475"><ele>1099.0</ele><time>2026-04-12T07:45:02.982Z</time></trkpt><trkpt lat="38.033935" lon="15.8724633"><ele>1099.0</ele><time>2026-04-12T07:45:03.983Z</time></trkpt><trkpt lat="38.0339983" lon="15.8724417"><ele>1099.0</ele><time>2026-04-12T07:45:04.982Z</time></trkpt><trkpt lat="38.034055" lon="15.8724067"><ele>1099.0</ele><time>2026-04-12T07:45:05.982Z</time></trkpt><trkpt lat="38.0341017" lon="15.8723467"><ele>1099.0</ele><time>2026-04-12T07:45:06.983Z</time></trkpt><trkpt lat="38.0341467" lon="15.872275"><ele>1099.0</ele><time>2026-04-12T07:45:07.982Z</time></trkpt><trkpt lat="38.0342033" lon="15.8721917"><ele>1099.0</ele><time>2026-04-12T07:45:08.982Z</time></trkpt><trkpt lat="38.03427" lon="15.872115"><ele>1095.8</ele><time>2026-04-12T07:45:09.983Z</time></trkpt><trkpt lat="38.0343417" lon="15.8720517"><ele>1092.6000000000001</ele><time>2026-04-12T07:45:10.982Z</time></trkpt><trkpt lat="38.0344167" lon="15.8719817"><ele>1089.4</ele><time>2026-04-12T07:45:11.982Z</time></trkpt><trkpt lat="38.0345083" lon="15.87194"><ele>1086.2</ele><time>2026-04-12T07:45:12.982Z</time></trkpt><trkpt lat="38.0346033" lon="15.8719067"><ele>1083.0</ele><time>2026-04-12T07:45:13.982Z</time></trkpt><trkpt lat="38.0346933" lon="15.8718633"><ele>1083.0</ele><time>2026-04-12T07:45:14.983Z</time></trkpt><trkpt lat="38.0347867" lon="15.8718167"><ele>1083.0</ele><time>2026-04-12T07:45:15.983Z</time></trkpt><trkpt lat="38.0348767" lon="15.871765"><ele>1083.0</ele><time>2026-04-12T07:45:16.982Z</time></trkpt><trkpt lat="38.0349617" lon="15.8717033"><ele>1083.0</ele><time>2026-04-12T07:45:17.983Z</time></trkpt><trkpt lat="38.0350317" lon="15.87164"><ele>1083.0</ele><time>2026-04-12T07:45:18.982Z</time></trkpt><trkpt lat="38.0351017" lon="15.8715783"><ele>1083.5</ele><time>2026-04-12T07:45:19.982Z</time></trkpt><trkpt lat="38.0351733" lon="15.871515"><ele>1084.0</ele><time>2026-04-12T07:45:20.982Z</time></trkpt><trkpt lat="38.035245" lon="15.8714817"><ele>1084.5</ele><time>2026-04-12T07:45:21.983Z</time></trkpt><trkpt lat="38.0353233" lon="15.8714617"><ele>1085.0</ele><time>2026-04-12T07:45:22.982Z</time></trkpt><trkpt lat="38.035415" lon="15.8714667"><ele>1085.5</ele><time>2026-04-12T07:45:23.982Z</time></trkpt><trkpt lat="38.0355083" lon="15.8714817"><ele>1086.0</ele><time>2026-04-12T07:45:24.983Z</time></trkpt><trkpt lat="38.0356033" lon="15.8714867"><ele>1086.0</ele><time>2026-04-12T07:45:25.982Z</time></trkpt><trkpt lat="38.03571" lon="15.87147"><ele>1086.0</ele><time>2026-04-12T07:45:26.982Z</time></trkpt><trkpt lat="38.035815" lon="15.8714433"><ele>1086.0</ele><time>2026-04-12T07:45:27.982Z</time></trkpt><trkpt lat="38.0359133" lon="15.8714167"><ele>1086.0</ele><time>2026-04-12T07:45:28.983Z</time></trkpt><trkpt lat="38.036" lon="15.8713933"><ele>1086.0</ele><time>2026-04-12T07:45:29.982Z</time></trkpt><trkpt lat="38.03607" lon="15.87137"><ele>1082.3333333333333</ele><time>2026-04-12T07:45:30.982Z</time></trkpt><trkpt lat="38.036135" lon="15.8713367"><ele>1078.6666666666667</ele><time>2026-04-12T07:45:31.982Z</time></trkpt><trkpt lat="38.0361967" lon="15.8712817"><ele>1075.0</ele><time>2026-04-12T07:45:32.982Z</time></trkpt><trkpt lat="38.0362667" lon="15.8712083"><ele>1071.3333333333335</ele><time>2026-04-12T07:45:33.982Z</time></trkpt><trkpt lat="38.03633" lon="15.8711333"><ele>1067.6666666666667</ele><time>2026-04-12T07:45:34.982Z</time></trkpt><trkpt lat="38.0363983" lon="15.8710567"><ele>1064.0</ele><time>2026-04-12T07:45:35.982Z</time></trkpt><trkpt lat="38.0364733" lon="15.8709817"><ele>1068.5</ele><time>2026-04-12T07:45:36.982Z</time></trkpt><trkpt lat="38.036535" lon="15.87091"><ele>1073.0</ele><time>2026-04-12T07:45:37.982Z</time></trkpt><trkpt lat="38.03657" lon="15.87084"><ele>1077.5</ele><time>2026-04-12T07:45:38.982Z</time></trkpt><trkpt lat="38.036565" lon="15.8706883"><ele>1082.0</ele><time>2026-04-12T07:45:40.982Z</time></trkpt><trkpt lat="38.036535" lon="15.870615"><ele>1086.5</ele><time>2026-04-12T07:45:41.982Z</time></trkpt><trkpt lat="38.03649" lon="15.870535"><ele>1091.0</ele><time>2026-04-12T07:45:42.983Z</time></trkpt><trkpt lat="38.0364383" lon="15.87045"><ele>1091.0</ele><time>2026-04-12T07:45:43.982Z</time></trkpt><trkpt lat="38.0363817" lon="15.8703467"><ele>1091.0</ele><time>2026-04-12T07:45:44.982Z</time></trkpt><trkpt lat="38.0363383" lon="15.8702383"><ele>1091.0</ele><time>2026-04-12T07:45:45.982Z</time></trkpt><trkpt lat="38.0363017" lon="15.8701383"><ele>1091.0</ele><time>2026-04-12T07:45:46.982Z</time></trkpt><trkpt lat="38.036265" lon="15.8700517"><ele>1091.0</ele><time>2026-04-12T07:45:47.982Z</time></trkpt><trkpt lat="38.0362083" lon="15.869925"><ele>1091.0</ele><time>2026-04-12T07:45:49.983Z</time></trkpt><trkpt lat="38.03625" lon="15.86986"><ele>1091.0</ele><time>2026-04-12T07:45:51.982Z</time></trkpt><trkpt lat="38.0363383" lon="15.8699"><ele>1091.0</ele><time>2026-04-12T07:45:53.982Z</time></trkpt><trkpt lat="38.0363967" lon="15.8699817"><ele>1091.0</ele><time>2026-04-12T07:45:55.982Z</time></trkpt><trkpt lat="38.0364817" lon="15.8700583"><ele>1091.0</ele><time>2026-04-12T07:48:23.982Z</time></trkpt><trkpt lat="38.036535" lon="15.87013"><ele>1091.0</ele><time>2026-04-12T07:48:25.982Z</time></trkpt><trkpt lat="38.0366683" lon="15.870355"><ele>1084.6</ele><time>2026-04-12T07:48:29.982Z</time></trkpt><trkpt lat="38.0367417" lon="15.8704283"><ele>1078.1999999999998</ele><time>2026-04-12T07:48:31.983Z</time></trkpt><trkpt lat="38.0368117" lon="15.8703567"><ele>1071.8000000000002</ele><time>2026-04-12T07:48:34.982Z</time></trkpt><trkpt lat="38.0368033" lon="15.8702133"><ele>1065.4</ele><time>2026-04-12T07:48:36.982Z</time></trkpt><trkpt lat="38.0368" lon="15.870105"><ele>1059.0</ele><time>2026-04-12T07:48:38.982Z</time></trkpt><trkpt lat="38.03688" lon="15.87011"><ele>1059.0</ele><time>2026-04-12T07:48:42.982Z</time></trkpt><trkpt lat="38.0369317" lon="15.87023"><ele>1059.0</ele><time>2026-04-12T07:48:44.983Z</time></trkpt><trkpt lat="38.0369567" lon="15.8703183"><ele>1059.0</ele><time>2026-04-12T07:48:45.983Z</time></trkpt><trkpt lat="38.0369917" lon="15.870415"><ele>1059.0</ele><time>2026-04-12T07:48:46.982Z</time></trkpt><trkpt lat="38.0370267" lon="15.87051"><ele>1059.0</ele><time>2026-04-12T07:48:47.982Z</time></trkpt><trkpt lat="38.037075" lon="15.8705917"><ele>1059.0</ele><time>2026-04-12T07:48:48.982Z</time></trkpt><trkpt lat="38.0371383" lon="15.8706667"><ele>1059.0</ele><time>2026-04-12T07:48:49.982Z</time></trkpt><trkpt lat="38.0371983" lon="15.8707383"><ele>1059.0</ele><time>2026-04-12T07:48:50.982Z</time></trkpt><trkpt lat="38.0372517" lon="15.8708017"><ele>1059.0</ele><time>2026-04-12T07:48:51.983Z</time></trkpt><trkpt lat="38.0373033" lon="15.8708733"><ele>1059.0</ele><time>2026-04-12T07:48:52.982Z</time></trkpt><trkpt lat="38.0373533" lon="15.8709567"><ele>1059.0</ele><time>2026-04-12T07:48:53.982Z</time></trkpt><trkpt lat="38.03741" lon="15.87104"><ele>1059.0</ele><time>2026-04-12T07:48:54.982Z</time></trkpt><trkpt lat="38.0374683" lon="15.8711333"><ele>1052.3333333333333</ele><time>2026-04-12T07:48:55.982Z</time></trkpt><trkpt lat="38.03751" lon="15.8712267"><ele>1045.6666666666667</ele><time>2026-04-12T07:48:56.982Z</time></trkpt><trkpt lat="38.0375417" lon="15.871315"><ele>1039.0</ele><time>2026-04-12T07:48:57.982Z</time></trkpt><trkpt lat="38.0375667" lon="15.8714133"><ele>1032.3333333333335</ele><time>2026-04-12T07:48:58.982Z</time></trkpt><trkpt lat="38.0375833" lon="15.8715117"><ele>1025.6666666666667</ele><time>2026-04-12T07:48:59.982Z</time></trkpt><trkpt lat="38.0375867" lon="15.8716"><ele>1019.0</ele><time>2026-04-12T07:49:00.983Z</time></trkpt><trkpt lat="38.0375967" lon="15.87168"><ele>1019.0000000000001</ele><time>2026-04-12T07:49:01.982Z</time></trkpt><trkpt lat="38.0376317" lon="15.8717567"><ele>1019.0</ele><time>2026-04-12T07:49:02.982Z</time></trkpt><trkpt lat="38.0376783" lon="15.8718133"><ele>1019.0</ele><time>2026-04-12T07:49:03.982Z</time></trkpt><trkpt lat="38.0377417" lon="15.8718533"><ele>1019.0</ele><time>2026-04-12T07:49:04.982Z</time></trkpt><trkpt lat="38.037815" lon="15.8718833"><ele>1019.0000000000001</ele><time>2026-04-12T07:49:05.982Z</time></trkpt><trkpt lat="38.037905" lon="15.8719117"><ele>1019.0</ele><time>2026-04-12T07:49:06.982Z</time></trkpt><trkpt lat="38.0380167" lon="15.8719467"><ele>1013.5</ele><time>2026-04-12T07:49:07.983Z</time></trkpt><trkpt lat="38.038155" lon="15.8720033"><ele>1008.0</ele><time>2026-04-12T07:49:08.982Z</time></trkpt><trkpt lat="38.0382733" lon="15.87205"><ele>1002.5</ele><time>2026-04-12T07:49:09.982Z</time></trkpt><trkpt lat="38.0383917" lon="15.8721017"><ele>997.0</ele><time>2026-04-12T07:49:10.982Z</time></trkpt><trkpt lat="38.038505" lon="15.8721467"><ele>997.0</ele><time>2026-04-12T07:49:11.982Z</time></trkpt><trkpt lat="38.0386167" lon="15.872205"><ele>997.0</ele><time>2026-04-12T07:49:12.983Z</time></trkpt><trkpt lat="38.03872" lon="15.8722483"><ele>997.0</ele><time>2026-04-12T07:49:13.982Z</time></trkpt><trkpt lat="38.03883" lon="15.87229"><ele>997.0</ele><time>2026-04-12T07:49:14.982Z</time></trkpt><trkpt lat="38.03893" lon="15.872325"><ele>997.0</ele><time>2026-04-12T07:49:15.982Z</time></trkpt><trkpt lat="38.039025" lon="15.8723683"><ele>996.9999999999999</ele><time>2026-04-12T07:49:16.982Z</time></trkpt><trkpt lat="38.0391133" lon="15.8724"><ele>997.0</ele><time>2026-04-12T07:49:17.982Z</time></trkpt><trkpt lat="38.0392" lon="15.87245"><ele>997.0</ele><time>2026-04-12T07:49:18.982Z</time></trkpt><trkpt lat="38.0392817" lon="15.872485"><ele>997.0</ele><time>2026-04-12T07:49:19.982Z</time></trkpt><trkpt lat="38.0393633" lon="15.8725217"><ele>996.9999999999999</ele><time>2026-04-12T07:49:20.982Z</time></trkpt><trkpt lat="38.0394433" lon="15.8725567"><ele>997.0</ele><time>2026-04-12T07:49:21.982Z</time></trkpt><trkpt lat="38.0395233" lon="15.8725867"><ele>990.8</ele><time>2026-04-12T07:49:22.982Z</time></trkpt><trkpt lat="38.0396033" lon="15.87262"><ele>984.6</ele><time>2026-04-12T07:49:23.982Z</time></trkpt><trkpt lat="38.0396867" lon="15.8726583"><ele>978.3999999999999</ele><time>2026-04-12T07:49:24.982Z</time></trkpt><trkpt lat="38.0397783" lon="15.872695"><ele>972.1999999999999</ele><time>2026-04-12T07:49:25.982Z</time></trkpt><trkpt lat="38.039865" lon="15.872735"><ele>966.0</ele><time>2026-04-12T07:49:26.982Z</time></trkpt><trkpt lat="38.0399483" lon="15.8727833"><ele>966.4285714285714</ele><time>2026-04-12T07:49:27.982Z</time></trkpt><trkpt lat="38.04002" lon="15.8728383"><ele>966.8571428571429</ele><time>2026-04-12T07:49:28.982Z</time></trkpt><trkpt lat="38.0400933" lon="15.8728983"><ele>967.2857142857142</ele><time>2026-04-12T07:49:29.982Z</time></trkpt><trkpt lat="38.0401533" lon="15.87296"><ele>967.7142857142857</ele><time>2026-04-12T07:49:30.982Z</time></trkpt><trkpt lat="38.0402033" lon="15.8730217"><ele>968.1428571428571</ele><time>2026-04-12T07:49:31.982Z</time></trkpt><trkpt lat="38.0402517" lon="15.87308"><ele>968.5714285714284</ele><time>2026-04-12T07:49:32.982Z</time></trkpt><trkpt lat="38.0402967" lon="15.8731367"><ele>968.9999999999999</ele><time>2026-04-12T07:49:33.982Z</time></trkpt><trkpt lat="38.0403733" lon="15.8732367"><ele>969.0</ele><time>2026-04-12T07:49:35.983Z</time></trkpt><trkpt lat="38.0404333" lon="15.8733017"><ele>969.0000000000001</ele><time>2026-04-12T07:49:37.982Z</time></trkpt><trkpt lat="38.0405083" lon="15.8733167"><ele>969.0000000000001</ele><time>2026-04-12T07:49:40.982Z</time></trkpt><trkpt lat="38.0405083" lon="15.8731967"><ele>969.0</ele><time>2026-04-12T07:49:43.982Z</time></trkpt><trkpt lat="38.04045" lon="15.8730683"><ele>969.0</ele><time>2026-04-12T07:49:45.982Z</time></trkpt><trkpt lat="38.0403767" lon="15.8729833"><ele>969.0</ele><time>2026-04-12T07:49:47.982Z</time></trkpt><trkpt lat="38.0403133" lon="15.8729283"><ele>969.0000000000001</ele><time>2026-04-12T07:49:50.982Z</time></trkpt><trkpt lat="38.0402667" lon="15.8728417"><ele>969.0000000000001</ele><time>2026-04-12T07:49:58.982Z</time></trkpt><trkpt lat="38.04029" lon="15.8727483"><ele>969.0</ele><time>2026-04-12T07:50:01.982Z</time></trkpt><trkpt lat="38.0403367" lon="15.8728667"><ele>969.0</ele><time>2026-04-12T07:51:48.982Z</time></trkpt><trkpt lat="38.040365" lon="15.8730017"><ele>969.0</ele><time>2026-04-12T07:51:50.983Z</time></trkpt><trkpt lat="38.0404267" lon="15.87312"><ele>969.0</ele><time>2026-04-12T07:51:52.983Z</time></trkpt><trkpt lat="38.0404667" lon="15.8731883"><ele>969.0</ele><time>2026-04-12T07:51:53.982Z</time></trkpt><trkpt lat="38.0405017" lon="15.87326"><ele>969.0</ele><time>2026-04-12T07:51:54.982Z</time></trkpt><trkpt lat="38.0405367" lon="15.8733583"><ele>969.0</ele><time>2026-04-12T07:51:55.982Z</time></trkpt><trkpt lat="38.0405683" lon="15.8734717"><ele>969.0</ele><time>2026-04-12T07:51:56.982Z</time></trkpt><trkpt lat="38.0405983" lon="15.87358"><ele>968.8333333333334</ele><time>2026-04-12T07:51:57.982Z</time></trkpt><trkpt lat="38.0406383" lon="15.8736783"><ele>968.6666666666667</ele><time>2026-04-12T07:51:58.982Z</time></trkpt><trkpt lat="38.0406867" lon="15.873765"><ele>968.5</ele><time>2026-04-12T07:51:59.983Z</time></trkpt><trkpt lat="38.040745" lon="15.8738433"><ele>968.3333333333334</ele><time>2026-04-12T07:52:00.982Z</time></trkpt><trkpt lat="38.0408067" lon="15.8739117"><ele>968.1666666666667</ele><time>2026-04-12T07:52:01.982Z</time></trkpt><trkpt lat="38.0408733" lon="15.8739767"><ele>968.0</ele><time>2026-04-12T07:52:02.982Z</time></trkpt><trkpt lat="38.040945" lon="15.8740317"><ele>968.0</ele><time>2026-04-12T07:52:03.982Z</time></trkpt><trkpt lat="38.0410167" lon="15.8740883"><ele>968.0</ele><time>2026-04-12T07:52:04.982Z</time></trkpt><trkpt lat="38.04109" lon="15.8741533"><ele>968.0</ele><time>2026-04-12T07:52:05.982Z</time></trkpt><trkpt lat="38.0411617" lon="15.8742217"><ele>968.0</ele><time>2026-04-12T07:52:06.982Z</time></trkpt><trkpt lat="38.0412283" lon="15.874305"><ele>968.0</ele><time>2026-04-12T07:52:07.982Z</time></trkpt><trkpt lat="38.0412817" lon="15.8744017"><ele>963.2</ele><time>2026-04-12T07:52:08.983Z</time></trkpt><trkpt lat="38.0413333" lon="15.8745"><ele>958.4</ele><time>2026-04-12T07:52:09.982Z</time></trkpt><trkpt lat="38.0413967" lon="15.8746017"><ele>953.6000000000001</ele><time>2026-04-12T07:52:10.982Z</time></trkpt><trkpt lat="38.0414633" lon="15.8746883"><ele>948.8000000000001</ele><time>2026-04-12T07:52:11.982Z</time></trkpt><trkpt lat="38.041525" lon="15.8747617"><ele>944.0</ele><time>2026-04-12T07:52:12.982Z</time></trkpt><trkpt lat="38.0415933" lon="15.8748167"><ele>947.1666666666667</ele><time>2026-04-12T07:52:13.982Z</time></trkpt><trkpt lat="38.04166" lon="15.874845"><ele>950.3333333333334</ele><time>2026-04-12T07:52:14.982Z</time></trkpt><trkpt lat="38.0417383" lon="15.87484"><ele>953.5</ele><time>2026-04-12T07:52:15.982Z</time></trkpt><trkpt lat="38.0418117" lon="15.874805"><ele>956.6666666666667</ele><time>2026-04-12T07:52:16.982Z</time></trkpt><trkpt lat="38.0418883" lon="15.8747517"><ele>959.8333333333334</ele><time>2026-04-12T07:52:17.982Z</time></trkpt><trkpt lat="38.0419567" lon="15.8746967"><ele>963.0</ele><time>2026-04-12T07:52:18.983Z</time></trkpt><trkpt lat="38.0420233" lon="15.874655"><ele>963.0</ele><time>2026-04-12T07:52:19.983Z</time></trkpt><trkpt lat="38.0420933" lon="15.8746333"><ele>963.0</ele><time>2026-04-12T07:52:20.983Z</time></trkpt><trkpt lat="38.0421783" lon="15.8746383"><ele>963.0</ele><time>2026-04-12T07:52:21.982Z</time></trkpt><trkpt lat="38.0422567" lon="15.87469"><ele>963.0</ele><time>2026-04-12T07:52:22.982Z</time></trkpt><trkpt lat="38.04232" lon="15.87476"><ele>963.0</ele><time>2026-04-12T07:52:23.982Z</time></trkpt><trkpt lat="38.0423583" lon="15.874865"><ele>963.0</ele><time>2026-04-12T07:52:24.983Z</time></trkpt><trkpt lat="38.0423667" lon="15.8749767"><ele>956.5999999999999</ele><time>2026-04-12T07:52:25.982Z</time></trkpt><trkpt lat="38.0423717" lon="15.8751083"><ele>950.1999999999999</ele><time>2026-04-12T07:52:26.982Z</time></trkpt><trkpt lat="38.0423683" lon="15.875235"><ele>943.8</ele><time>2026-04-12T07:52:27.982Z</time></trkpt><trkpt lat="38.0423817" lon="15.8753583"><ele>937.4</ele><time>2026-04-12T07:52:28.982Z</time></trkpt><trkpt lat="38.04241" lon="15.8754683"><ele>931.0</ele><time>2026-04-12T07:52:29.982Z</time></trkpt><trkpt lat="38.0424417" lon="15.8755617"><ele>934.5999999999999</ele><time>2026-04-12T07:52:30.982Z</time></trkpt><trkpt lat="38.042495" lon="15.8756417"><ele>938.1999999999999</ele><time>2026-04-12T07:52:31.982Z</time></trkpt><trkpt lat="38.0425733" lon="15.8756967"><ele>941.8000000000001</ele><time>2026-04-12T07:52:32.982Z</time></trkpt><trkpt lat="38.042665" lon="15.8757167"><ele>945.4000000000001</ele><time>2026-04-12T07:52:33.982Z</time></trkpt><trkpt lat="38.0427667" lon="15.87574"><ele>949.0</ele><time>2026-04-12T07:52:34.982Z</time></trkpt><trkpt lat="38.0428767" lon="15.8757683"><ele>949.0</ele><time>2026-04-12T07:52:35.982Z</time></trkpt><trkpt lat="38.042975" lon="15.875815"><ele>949.0000000000001</ele><time>2026-04-12T07:52:36.982Z</time></trkpt><trkpt lat="38.0430717" lon="15.8758633"><ele>949.0000000000001</ele><time>2026-04-12T07:52:37.982Z</time></trkpt><trkpt lat="38.0431483" lon="15.8759233"><ele>949.0</ele><time>2026-04-12T07:52:38.982Z</time></trkpt><trkpt lat="38.0432317" lon="15.875985"><ele>949.0</ele><time>2026-04-12T07:52:39.982Z</time></trkpt><trkpt lat="38.0433083" lon="15.8760483"><ele>944.2</ele><time>2026-04-12T07:52:40.982Z</time></trkpt><trkpt lat="38.0433783" lon="15.8761033"><ele>939.4000000000001</ele><time>2026-04-12T07:52:41.983Z</time></trkpt><trkpt lat="38.04345" lon="15.876145"><ele>934.6</ele><time>2026-04-12T07:52:42.982Z</time></trkpt><trkpt lat="38.0435267" lon="15.8761917"><ele>929.8</ele><time>2026-04-12T07:52:43.982Z</time></trkpt><trkpt lat="38.0436167" lon="15.876225"><ele>925.0</ele><time>2026-04-12T07:52:44.982Z</time></trkpt><trkpt lat="38.0437267" lon="15.8762367"><ele>925.0</ele><time>2026-04-12T07:52:45.982Z</time></trkpt><trkpt lat="38.043855" lon="15.87624"><ele>925.0</ele><time>2026-04-12T07:52:46.982Z</time></trkpt><trkpt lat="38.0440317" lon="15.8762633"><ele>925.0</ele><time>2026-04-12T07:52:47.983Z</time></trkpt><trkpt lat="38.044195" lon="15.8762833"><ele>927.75</ele><time>2026-04-12T07:52:48.982Z</time></trkpt><trkpt lat="38.0443517" lon="15.8763133"><ele>930.5</ele><time>2026-04-12T07:52:49.982Z</time></trkpt><trkpt lat="38.0445017" lon="15.8763383"><ele>933.25</ele><time>2026-04-12T07:52:50.982Z</time></trkpt><trkpt lat="38.0446367" lon="15.876345"><ele>936.0</ele><time>2026-04-12T07:52:51.983Z</time></trkpt><trkpt lat="38.04476" lon="15.8763233"><ele>936.0</ele><time>2026-04-12T07:52:52.983Z</time></trkpt><trkpt lat="38.0448767" lon="15.8762817"><ele>936.0</ele><time>2026-04-12T07:52:53.982Z</time></trkpt><trkpt lat="38.0449917" lon="15.8762467"><ele>936.0</ele><time>2026-04-12T07:52:54.982Z</time></trkpt><trkpt lat="38.0451017" lon="15.8762267"><ele>936.0</ele><time>2026-04-12T07:52:55.982Z</time></trkpt><trkpt lat="38.0452167" lon="15.8762267"><ele>935.75</ele><time>2026-04-12T07:52:56.983Z</time></trkpt><trkpt lat="38.045335" lon="15.8762333"><ele>935.5</ele><time>2026-04-12T07:52:57.982Z</time></trkpt><trkpt lat="38.0454633" lon="15.8762383"><ele>935.25</ele><time>2026-04-12T07:52:58.983Z</time></trkpt><trkpt lat="38.0455933" lon="15.8762133"><ele>935.0</ele><time>2026-04-12T07:52:59.982Z</time></trkpt><trkpt lat="38.0457133" lon="15.87616"><ele>930.25</ele><time>2026-04-12T07:53:00.982Z</time></trkpt><trkpt lat="38.0458267" lon="15.87609"><ele>925.5</ele><time>2026-04-12T07:53:01.982Z</time></trkpt><trkpt lat="38.0459417" lon="15.8760317"><ele>920.75</ele><time>2026-04-12T07:53:02.982Z</time></trkpt><trkpt lat="38.0460783" lon="15.876005"><ele>916.0</ele><time>2026-04-12T07:53:03.982Z</time></trkpt><trkpt lat="38.046225" lon="15.8760067"><ele>916.0</ele><time>2026-04-12T07:53:04.982Z</time></trkpt><trkpt lat="38.046375" lon="15.8760317"><ele>916.0</ele><time>2026-04-12T07:53:05.983Z</time></trkpt><trkpt lat="38.0465217" lon="15.8760517"><ele>916.0</ele><time>2026-04-12T07:53:06.983Z</time></trkpt><trkpt lat="38.0466517" lon="15.876065"><ele>916.0</ele><time>2026-04-12T07:53:07.983Z</time></trkpt><trkpt lat="38.046775" lon="15.876055"><ele>913.8</ele><time>2026-04-12T07:53:08.983Z</time></trkpt><trkpt lat="38.0468733" lon="15.8760117"><ele>911.5999999999999</ele><time>2026-04-12T07:53:09.982Z</time></trkpt><trkpt lat="38.0469667" lon="15.875935"><ele>909.4</ele><time>2026-04-12T07:53:10.982Z</time></trkpt><trkpt lat="38.04703" lon="15.8758233"><ele>907.2</ele><time>2026-04-12T07:53:11.982Z</time></trkpt><trkpt lat="38.0470967" lon="15.875705"><ele>905.0</ele><time>2026-04-12T07:53:12.982Z</time></trkpt><trkpt lat="38.0471833" lon="15.87561"><ele>909.5</ele><time>2026-04-12T07:53:13.982Z</time></trkpt><trkpt lat="38.047285" lon="15.8755583"><ele>914.0</ele><time>2026-04-12T07:53:14.983Z</time></trkpt><trkpt lat="38.047415" lon="15.87554"><ele>918.5</ele><time>2026-04-12T07:53:15.982Z</time></trkpt><trkpt lat="38.0475633" lon="15.8755283"><ele>923.0</ele><time>2026-04-12T07:53:16.983Z</time></trkpt><trkpt lat="38.0477067" lon="15.8755033"><ele>923.0</ele><time>2026-04-12T07:53:17.982Z</time></trkpt><trkpt lat="38.0478383" lon="15.875475"><ele>923.0</ele><time>2026-04-12T07:53:18.983Z</time></trkpt><trkpt lat="38.0479583" lon="15.87543"><ele>923.0</ele><time>2026-04-12T07:53:19.982Z</time></trkpt><trkpt lat="38.048065" lon="15.8753817"><ele>923.0</ele><time>2026-04-12T07:53:20.983Z</time></trkpt><trkpt lat="38.0481667" lon="15.875355"><ele>923.0</ele><time>2026-04-12T07:53:21.982Z</time></trkpt><trkpt lat="38.0482733" lon="15.87535"><ele>923.0</ele><time>2026-04-12T07:53:22.982Z</time></trkpt><trkpt lat="38.04838" lon="15.87537"><ele>923.0</ele><time>2026-04-12T07:53:23.982Z</time></trkpt><trkpt lat="38.0484833" lon="15.87541"><ele>923.0</ele><time>2026-04-12T07:53:24.982Z</time></trkpt><trkpt lat="38.04857" lon="15.875465"><ele>923.0</ele><time>2026-04-12T07:53:25.983Z</time></trkpt><trkpt lat="38.0486233" lon="15.875555"><ele>922.5999999999999</ele><time>2026-04-12T07:53:26.982Z</time></trkpt><trkpt lat="38.0486417" lon="15.875665"><ele>922.1999999999999</ele><time>2026-04-12T07:53:27.983Z</time></trkpt><trkpt lat="38.048625" lon="15.8757767"><ele>921.8</ele><time>2026-04-12T07:53:28.982Z</time></trkpt><trkpt lat="38.0485717" lon="15.8758717"><ele>921.4</ele><time>2026-04-12T07:53:29.982Z</time></trkpt><trkpt lat="38.0485067" lon="15.8759933"><ele>921.0</ele><time>2026-04-12T07:53:30.982Z</time></trkpt><trkpt lat="38.0484283" lon="15.8761383"><ele>921.0</ele><time>2026-04-12T07:53:31.982Z</time></trkpt><trkpt lat="38.0483483" lon="15.876295"><ele>921.0</ele><time>2026-04-12T07:53:32.982Z</time></trkpt><trkpt lat="38.04829" lon="15.87644"><ele>921.0</ele><time>2026-04-12T07:53:33.982Z</time></trkpt><trkpt lat="38.0482433" lon="15.87657"><ele>921.0</ele><time>2026-04-12T07:53:34.982Z</time></trkpt><trkpt lat="38.0482067" lon="15.87669"><ele>913.1999999999999</ele><time>2026-04-12T07:53:35.982Z</time></trkpt><trkpt lat="38.0482017" lon="15.8767917"><ele>905.3999999999999</ele><time>2026-04-12T07:53:36.982Z</time></trkpt><trkpt lat="38.048225" lon="15.8769117"><ele>897.6</ele><time>2026-04-12T07:53:37.982Z</time></trkpt><trkpt lat="38.0482567" lon="15.877065"><ele>889.8</ele><time>2026-04-12T07:53:38.982Z</time></trkpt><trkpt lat="38.0482783" lon="15.8772367"><ele>882.0</ele><time>2026-04-12T07:53:39.982Z</time></trkpt><trkpt lat="38.048285" lon="15.8774283"><ele>881.3333333333333</ele><time>2026-04-12T07:53:40.982Z</time></trkpt><trkpt lat="38.0482717" lon="15.8776267"><ele>880.6666666666666</ele><time>2026-04-12T07:53:41.982Z</time></trkpt><trkpt lat="38.0482567" lon="15.87782"><ele>880.0</ele><time>2026-04-12T07:53:42.983Z</time></trkpt><trkpt lat="38.04824" lon="15.87801"><ele>880.0</ele><time>2026-04-12T07:53:43.982Z</time></trkpt><trkpt lat="38.048225" lon="15.8781833"><ele>880.0</ele><time>2026-04-12T07:53:44.982Z</time></trkpt><trkpt lat="38.0482167" lon="15.8783383"><ele>880.0</ele><time>2026-04-12T07:53:45.982Z</time></trkpt><trkpt lat="38.048205" lon="15.8784817"><ele>880.0</ele><time>2026-04-12T07:53:46.982Z</time></trkpt><trkpt lat="38.048195" lon="15.87861"><ele>878.6</ele><time>2026-04-12T07:53:47.983Z</time></trkpt><trkpt lat="38.0481983" lon="15.87873"><ele>877.2</ele><time>2026-04-12T07:53:48.983Z</time></trkpt><trkpt lat="38.04823" lon="15.8788483"><ele>875.8</ele><time>2026-04-12T07:53:49.982Z</time></trkpt><trkpt lat="38.048275" lon="15.8789467"><ele>874.4</ele><time>2026-04-12T07:53:50.983Z</time></trkpt><trkpt lat="38.04832" lon="15.8790183"><ele>873.0</ele><time>2026-04-12T07:53:51.982Z</time></trkpt><trkpt lat="38.04839" lon="15.8791333"><ele>876.0</ele><time>2026-04-12T07:53:53.982Z</time></trkpt><trkpt lat="38.0484383" lon="15.8792133"><ele>879.0</ele><time>2026-04-12T07:53:55.982Z</time></trkpt><trkpt lat="38.048495" lon="15.8792967"><ele>882.0</ele><time>2026-04-12T07:53:57.982Z</time></trkpt><trkpt lat="38.0485383" lon="15.8793867"><ele>885.0</ele><time>2026-04-12T07:53:59.983Z</time></trkpt><trkpt lat="38.0485717" lon="15.8795067"><ele>888.0</ele><time>2026-04-12T07:54:02.982Z</time></trkpt><trkpt lat="38.0486033" lon="15.8796333"><ele>888.0</ele><time>2026-04-12T07:54:04.982Z</time></trkpt><trkpt lat="38.0486083" lon="15.8797133"><ele>888.0</ele><time>2026-04-12T07:54:05.982Z</time></trkpt><trkpt lat="38.0486183" lon="15.879805"><ele>888.0</ele><time>2026-04-12T07:54:06.982Z</time></trkpt><trkpt lat="38.0486367" lon="15.8799067"><ele>888.0</ele><time>2026-04-12T07:54:07.983Z</time></trkpt><trkpt lat="38.048665" lon="15.88002"><ele>888.0</ele><time>2026-04-12T07:54:08.983Z</time></trkpt><trkpt lat="38.0487167" lon="15.8801483"><ele>888.0</ele><time>2026-04-12T07:54:09.982Z</time></trkpt><trkpt lat="38.0487833" lon="15.880285"><ele>884.0</ele><time>2026-04-12T07:54:10.982Z</time></trkpt><trkpt lat="38.04885" lon="15.8804317"><ele>880.0</ele><time>2026-04-12T07:54:11.983Z</time></trkpt><trkpt lat="38.0489233" lon="15.8805733"><ele>876.0</ele><time>2026-04-12T07:54:12.983Z</time></trkpt><trkpt lat="38.04899" lon="15.8807367"><ele>872.0</ele><time>2026-04-12T07:54:13.983Z</time></trkpt><trkpt lat="38.0490217" lon="15.8808933"><ele>870.2</ele><time>2026-04-12T07:54:14.983Z</time></trkpt><trkpt lat="38.0490383" lon="15.8810367"><ele>868.4000000000001</ele><time>2026-04-12T07:54:15.982Z</time></trkpt><trkpt lat="38.0490683" lon="15.881155"><ele>866.5999999999999</ele><time>2026-04-12T07:54:16.982Z</time></trkpt><trkpt lat="38.0491317" lon="15.8812583"><ele>864.8</ele><time>2026-04-12T07:54:17.982Z</time></trkpt><trkpt lat="38.04923" lon="15.8813417"><ele>863.0</ele><time>2026-04-12T07:54:18.983Z</time></trkpt><trkpt lat="38.049355" lon="15.8814217"><ele>867.5</ele><time>2026-04-12T07:54:19.982Z</time></trkpt><trkpt lat="38.0494833" lon="15.8815117"><ele>872.0</ele><time>2026-04-12T07:54:20.983Z</time></trkpt><trkpt lat="38.049605" lon="15.8815833"><ele>876.5</ele><time>2026-04-12T07:54:21.982Z</time></trkpt><trkpt lat="38.0497167" lon="15.88166"><ele>881.0</ele><time>2026-04-12T07:54:22.982Z</time></trkpt><trkpt lat="38.0498117" lon="15.8817117"><ele>881.0</ele><time>2026-04-12T07:54:23.982Z</time></trkpt><trkpt lat="38.049915" lon="15.88174"><ele>881.0</ele><time>2026-04-12T07:54:24.982Z</time></trkpt><trkpt lat="38.0500333" lon="15.8817333"><ele>881.0</ele><time>2026-04-12T07:54:25.982Z</time></trkpt><trkpt lat="38.0501517" lon="15.88171"><ele>881.0</ele><time>2026-04-12T07:54:26.982Z</time></trkpt><trkpt lat="38.050255" lon="15.8816667"><ele>882.75</ele><time>2026-04-12T07:54:27.983Z</time></trkpt><trkpt lat="38.0503517" lon="15.8816017"><ele>884.5</ele><time>2026-04-12T07:54:28.983Z</time></trkpt><trkpt lat="38.05044" lon="15.881505"><ele>886.25</ele><time>2026-04-12T07:54:29.982Z</time></trkpt><trkpt lat="38.0505267" lon="15.8813717"><ele>888.0</ele><time>2026-04-12T07:54:30.982Z</time></trkpt><trkpt lat="38.050615" lon="15.8812367"><ele>888.0</ele><time>2026-04-12T07:54:31.982Z</time></trkpt><trkpt lat="38.0506883" lon="15.88111"><ele>888.0</ele><time>2026-04-12T07:54:32.982Z</time></trkpt><trkpt lat="38.0507633" lon="15.8809983"><ele>888.0</ele><time>2026-04-12T07:54:33.983Z</time></trkpt><trkpt lat="38.0508583" lon="15.880905"><ele>888.0</ele><time>2026-04-12T07:54:34.982Z</time></trkpt><trkpt lat="38.0509633" lon="15.8808233"><ele>889.0</ele><time>2026-04-12T07:54:35.982Z</time></trkpt><trkpt lat="38.0510733" lon="15.8807367"><ele>890.0</ele><time>2026-04-12T07:54:36.982Z</time></trkpt><trkpt lat="38.0511767" lon="15.880645"><ele>891.0</ele><time>2026-04-12T07:54:37.983Z</time></trkpt><trkpt lat="38.0512717" lon="15.8805367"><ele>892.0</ele><time>2026-04-12T07:54:38.982Z</time></trkpt><trkpt lat="38.0513583" lon="15.8804417"><ele>892.0</ele><time>2026-04-12T07:54:39.982Z</time></trkpt><trkpt lat="38.0514433" lon="15.8803483"><ele>892.0</ele><time>2026-04-12T07:54:40.982Z</time></trkpt><trkpt lat="38.0515167" lon="15.8802617"><ele>892.0</ele><time>2026-04-12T07:54:41.983Z</time></trkpt><trkpt lat="38.0515867" lon="15.8801883"><ele>892.0</ele><time>2026-04-12T07:54:42.982Z</time></trkpt><trkpt lat="38.05166" lon="15.8801233"><ele>892.0</ele><time>2026-04-12T07:54:43.982Z</time></trkpt><trkpt lat="38.0517333" lon="15.8800833"><ele>889.6666666666666</ele><time>2026-04-12T07:54:44.983Z</time></trkpt><trkpt lat="38.051805" lon="15.8800633"><ele>887.3333333333333</ele><time>2026-04-12T07:54:45.982Z</time></trkpt><trkpt lat="38.0518767" lon="15.880075"><ele>885.0</ele><time>2026-04-12T07:54:46.983Z</time></trkpt><trkpt lat="38.0519367" lon="15.8801167"><ele>882.6666666666667</ele><time>2026-04-12T07:54:47.982Z</time></trkpt><trkpt lat="38.05197" lon="15.880195"><ele>880.3333333333334</ele><time>2026-04-12T07:54:48.982Z</time></trkpt><trkpt lat="38.0519967" lon="15.8802917"><ele>878.0</ele><time>2026-04-12T07:54:49.983Z</time></trkpt><trkpt lat="38.05202" lon="15.8803983"><ele>878.0</ele><time>2026-04-12T07:54:50.982Z</time></trkpt><trkpt lat="38.05206" lon="15.88051"><ele>878.0</ele><time>2026-04-12T07:54:51.982Z</time></trkpt><trkpt lat="38.0521" lon="15.8806233"><ele>878.0</ele><time>2026-04-12T07:54:52.982Z</time></trkpt><trkpt lat="38.0521433" lon="15.8807283"><ele>878.0</ele><time>2026-04-12T07:54:53.982Z</time></trkpt><trkpt lat="38.0521667" lon="15.8808283"><ele>878.0</ele><time>2026-04-12T07:54:54.982Z</time></trkpt><trkpt lat="38.0521583" lon="15.8809317"><ele>879.5999999999999</ele><time>2026-04-12T07:54:55.982Z</time></trkpt><trkpt lat="38.05212" lon="15.881035"><ele>881.1999999999999</ele><time>2026-04-12T07:54:56.982Z</time></trkpt><trkpt lat="38.0520617" lon="15.8811217"><ele>882.8</ele><time>2026-04-12T07:54:57.982Z</time></trkpt><trkpt lat="38.0519783" lon="15.8812033"><ele>884.4</ele><time>2026-04-12T07:54:58.982Z</time></trkpt><trkpt lat="38.0518833" lon="15.8812717"><ele>886.0</ele><time>2026-04-12T07:54:59.983Z</time></trkpt><trkpt lat="38.0517917" lon="15.8813567"><ele>886.0</ele><time>2026-04-12T07:55:00.983Z</time></trkpt><trkpt lat="38.0516917" lon="15.88145"><ele>886.0</ele><time>2026-04-12T07:55:01.982Z</time></trkpt><trkpt lat="38.0516" lon="15.8815467"><ele>886.0</ele><time>2026-04-12T07:55:02.982Z</time></trkpt><trkpt lat="38.0515317" lon="15.88166"><ele>886.0</ele><time>2026-04-12T07:55:03.982Z</time></trkpt><trkpt lat="38.0514917" lon="15.881805"><ele>879.75</ele><time>2026-04-12T07:55:04.983Z</time></trkpt><trkpt lat="38.0514617" lon="15.8819567"><ele>873.5</ele><time>2026-04-12T07:55:05.982Z</time></trkpt><trkpt lat="38.0514483" lon="15.8821267"><ele>867.25</ele><time>2026-04-12T07:55:06.982Z</time></trkpt><trkpt lat="38.0514383" lon="15.88231"><ele>861.0</ele><time>2026-04-12T07:55:07.982Z</time></trkpt><trkpt lat="38.05142" lon="15.882505"><ele>859.75</ele><time>2026-04-12T07:55:08.983Z</time></trkpt><trkpt lat="38.0513867" lon="15.8826883"><ele>858.5</ele><time>2026-04-12T07:55:09.982Z</time></trkpt><trkpt lat="38.0513483" lon="15.8828717"><ele>857.25</ele><time>2026-04-12T07:55:10.982Z</time></trkpt><trkpt lat="38.0513233" lon="15.8830367"><ele>856.0</ele><time>2026-04-12T07:55:11.982Z</time></trkpt><trkpt lat="38.0513417" lon="15.8832117"><ele>856.0</ele><time>2026-04-12T07:55:12.982Z</time></trkpt><trkpt lat="38.051375" lon="15.8833967"><ele>856.0</ele><time>2026-04-12T07:55:13.983Z</time></trkpt><trkpt lat="38.0514117" lon="15.8835883"><ele>856.0</ele><time>2026-04-12T07:55:14.982Z</time></trkpt><trkpt lat="38.0514517" lon="15.8838017"><ele>854.3333333333333</ele><time>2026-04-12T07:55:15.982Z</time></trkpt><trkpt lat="38.0514883" lon="15.8840117"><ele>852.6666666666667</ele><time>2026-04-12T07:55:16.982Z</time></trkpt><trkpt lat="38.0515367" lon="15.8842283"><ele>851.0</ele><time>2026-04-12T07:55:17.983Z</time></trkpt><trkpt lat="38.051585" lon="15.88444"><ele>853.5</ele><time>2026-04-12T07:55:18.983Z</time></trkpt><trkpt lat="38.051615" lon="15.8846417"><ele>856.0</ele><time>2026-04-12T07:55:19.982Z</time></trkpt><trkpt lat="38.0516533" lon="15.8848117"><ele>858.5</ele><time>2026-04-12T07:55:20.982Z</time></trkpt><trkpt lat="38.05169" lon="15.884965"><ele>861.0</ele><time>2026-04-12T07:55:21.982Z</time></trkpt><trkpt lat="38.0517267" lon="15.88509"><ele>865.0</ele><time>2026-04-12T07:55:22.982Z</time></trkpt><trkpt lat="38.0517483" lon="15.885205"><ele>869.0</ele><time>2026-04-12T07:55:23.982Z</time></trkpt><trkpt lat="38.05175" lon="15.8853033"><ele>873.0</ele><time>2026-04-12T07:55:24.982Z</time></trkpt><trkpt lat="38.05172" lon="15.8853917"><ele>877.0</ele><time>2026-04-12T07:55:25.982Z</time></trkpt><trkpt lat="38.0516517" lon="15.8854633"><ele>881.0</ele><time>2026-04-12T07:55:26.982Z</time></trkpt><trkpt lat="38.0515683" lon="15.885555"><ele>885.0</ele><time>2026-04-12T07:55:27.982Z</time></trkpt><trkpt lat="38.0514933" lon="15.8856567"><ele>885.0</ele><time>2026-04-12T07:55:28.982Z</time></trkpt><trkpt lat="38.0514133" lon="15.885765"><ele>885.0</ele><time>2026-04-12T07:55:29.983Z</time></trkpt><trkpt lat="38.0513183" lon="15.8858483"><ele>885.0</ele><time>2026-04-12T07:55:30.982Z</time></trkpt><trkpt lat="38.051215" lon="15.8858917"><ele>885.0</ele><time>2026-04-12T07:55:31.983Z</time></trkpt><trkpt lat="38.0511017" lon="15.8858933"><ele>885.0</ele><time>2026-04-12T07:55:32.982Z</time></trkpt><trkpt lat="38.050985" lon="15.8858867"><ele>885.0</ele><time>2026-04-12T07:55:33.982Z</time></trkpt><trkpt lat="38.050875" lon="15.885885"><ele>885.0</ele><time>2026-04-12T07:55:34.982Z</time></trkpt><trkpt lat="38.05078" lon="15.8859033"><ele>885.0</ele><time>2026-04-12T07:55:35.983Z</time></trkpt><trkpt lat="38.0506917" lon="15.88593"><ele>885.0</ele><time>2026-04-12T07:55:36.983Z</time></trkpt><trkpt lat="38.0506283" lon="15.885975"><ele>885.0</ele><time>2026-04-12T07:55:37.982Z</time></trkpt><trkpt lat="38.0505967" lon="15.8860567"><ele>885.0</ele><time>2026-04-12T07:55:38.982Z</time></trkpt><trkpt lat="38.050585" lon="15.8861617"><ele>885.0</ele><time>2026-04-12T07:55:39.982Z</time></trkpt><trkpt lat="38.0505867" lon="15.8862833"><ele>885.0</ele><time>2026-04-12T07:55:40.983Z</time></trkpt><trkpt lat="38.0505733" lon="15.8864133"><ele>885.0</ele><time>2026-04-12T07:55:41.982Z</time></trkpt><trkpt lat="38.0505517" lon="15.886545"><ele>885.0</ele><time>2026-04-12T07:55:42.982Z</time></trkpt><trkpt lat="38.050525" lon="15.886665"><ele>885.0</ele><time>2026-04-12T07:55:43.982Z</time></trkpt><trkpt lat="38.05048" lon="15.8867717"><ele>885.0</ele><time>2026-04-12T07:55:44.983Z</time></trkpt><trkpt lat="38.0504133" lon="15.88686"><ele>885.0</ele><time>2026-04-12T07:55:45.982Z</time></trkpt><trkpt lat="38.0503267" lon="15.8869167"><ele>885.0</ele><time>2026-04-12T07:55:46.983Z</time></trkpt><trkpt lat="38.05023" lon="15.8869317"><ele>892.0</ele><time>2026-04-12T07:55:47.982Z</time></trkpt><trkpt lat="38.05012" lon="15.8869183"><ele>899.0</ele><time>2026-04-12T07:55:48.982Z</time></trkpt><trkpt lat="38.050005" lon="15.8868917"><ele>906.0</ele><time>2026-04-12T07:55:49.982Z</time></trkpt><trkpt lat="38.0498817" lon="15.8868633"><ele>913.0</ele><time>2026-04-12T07:55:50.982Z</time></trkpt><trkpt lat="38.049755" lon="15.88685"><ele>913.0</ele><time>2026-04-12T07:55:51.982Z</time></trkpt><trkpt lat="38.04964" lon="15.88683"><ele>913.0</ele><time>2026-04-12T07:55:52.982Z</time></trkpt><trkpt lat="38.0495217" lon="15.88682"><ele>913.0</ele><time>2026-04-12T07:55:53.982Z</time></trkpt><trkpt lat="38.04941" lon="15.886825"><ele>913.0</ele><time>2026-04-12T07:55:54.982Z</time></trkpt><trkpt lat="38.0493117" lon="15.8868367"><ele>913.0</ele><time>2026-04-12T07:55:55.982Z</time></trkpt><trkpt lat="38.0492367" lon="15.8868483"><ele>912.9999999999999</ele><time>2026-04-12T07:55:56.982Z</time></trkpt><trkpt lat="38.0491717" lon="15.886855"><ele>913.0</ele><time>2026-04-12T07:55:57.982Z</time></trkpt><trkpt lat="38.0490667" lon="15.8868467"><ele>913.0</ele><time>2026-04-12T07:55:59.983Z</time></trkpt><trkpt lat="38.0490033" lon="15.886845"><ele>913.0</ele><time>2026-04-12T07:56:00.983Z</time></trkpt><trkpt lat="38.048925" lon="15.8868367"><ele>912.9999999999999</ele><time>2026-04-12T07:56:01.983Z</time></trkpt><trkpt lat="38.0488417" lon="15.8868283"><ele>913.0</ele><time>2026-04-12T07:56:02.982Z</time></trkpt><trkpt lat="38.0487567" lon="15.88686"><ele>911.2</ele><time>2026-04-12T07:56:03.982Z</time></trkpt><trkpt lat="38.0486633" lon="15.88687"><ele>909.4</ele><time>2026-04-12T07:56:04.982Z</time></trkpt><trkpt lat="38.0485617" lon="15.8869"><ele>907.6000000000001</ele><time>2026-04-12T07:56:05.982Z</time></trkpt><trkpt lat="38.048455" lon="15.8869533"><ele>905.8000000000001</ele><time>2026-04-12T07:56:06.983Z</time></trkpt><trkpt lat="38.0483483" lon="15.88701"><ele>904.0</ele><time>2026-04-12T07:56:07.982Z</time></trkpt><trkpt lat="38.0482433" lon="15.8870833"><ele>900.8000000000001</ele><time>2026-04-12T07:56:08.982Z</time></trkpt><trkpt lat="38.0481383" lon="15.887145"><ele>897.6000000000001</ele><time>2026-04-12T07:56:09.982Z</time></trkpt><trkpt lat="38.048045" lon="15.8872083"><ele>894.4</ele><time>2026-04-12T07:56:10.983Z</time></trkpt><trkpt lat="38.04795" lon="15.8872817"><ele>891.2</ele><time>2026-04-12T07:56:11.982Z</time></trkpt><trkpt lat="38.047855" lon="15.8873617"><ele>888.0</ele><time>2026-04-12T07:56:12.982Z</time></trkpt><trkpt lat="38.0477617" lon="15.8874483"><ele>888.0</ele><time>2026-04-12T07:56:13.982Z</time></trkpt><trkpt lat="38.047675" lon="15.88753"><ele>888.0</ele><time>2026-04-12T07:56:14.982Z</time></trkpt><trkpt lat="38.04759" lon="15.887605"><ele>888.0</ele><time>2026-04-12T07:56:15.982Z</time></trkpt><trkpt lat="38.0474983" lon="15.8876517"><ele>888.0</ele><time>2026-04-12T07:56:16.982Z</time></trkpt><trkpt lat="38.0474033" lon="15.8876883"><ele>888.0</ele><time>2026-04-12T07:56:17.982Z</time></trkpt><trkpt lat="38.0473067" lon="15.8877317"><ele>887.5999999999999</ele><time>2026-04-12T07:56:18.982Z</time></trkpt><trkpt lat="38.0472167" lon="15.8878"><ele>887.1999999999999</ele><time>2026-04-12T07:56:19.982Z</time></trkpt><trkpt lat="38.0471517" lon="15.8879067"><ele>886.8</ele><time>2026-04-12T07:56:20.983Z</time></trkpt><trkpt lat="38.0470833" lon="15.8880283"><ele>886.4</ele><time>2026-04-12T07:56:21.983Z</time></trkpt><trkpt lat="38.0470167" lon="15.8881417"><ele>886.0</ele><time>2026-04-12T07:56:22.982Z</time></trkpt><trkpt lat="38.04694" lon="15.8882467"><ele>886.0</ele><time>2026-04-12T07:56:23.982Z</time></trkpt><trkpt lat="38.0468517" lon="15.8883517"><ele>886.0</ele><time>2026-04-12T07:56:24.982Z</time></trkpt><trkpt lat="38.0467767" lon="15.8884667"><ele>886.0</ele><time>2026-04-12T07:56:25.982Z</time></trkpt><trkpt lat="38.046715" lon="15.8886"><ele>886.0</ele><time>2026-04-12T07:56:26.982Z</time></trkpt><trkpt lat="38.04666" lon="15.8887367"><ele>883.5</ele><time>2026-04-12T07:56:27.982Z</time></trkpt><trkpt lat="38.0465983" lon="15.8888717"><ele>881.0</ele><time>2026-04-12T07:56:28.983Z</time></trkpt><trkpt lat="38.04654" lon="15.8890083"><ele>878.5</ele><time>2026-04-12T07:56:29.982Z</time></trkpt><trkpt lat="38.0464883" lon="15.8891417"><ele>876.0</ele><time>2026-04-12T07:56:30.982Z</time></trkpt><trkpt lat="38.046425" lon="15.8892867"><ele>876.0</ele><time>2026-04-12T07:56:31.982Z</time></trkpt><trkpt lat="38.0463817" lon="15.8894433"><ele>876.0</ele><time>2026-04-12T07:56:32.983Z</time></trkpt><trkpt lat="38.0463567" lon="15.8896"><ele>876.0</ele><time>2026-04-12T07:56:33.982Z</time></trkpt><trkpt lat="38.0463383" lon="15.8897483"><ele>876.0</ele><time>2026-04-12T07:56:34.982Z</time></trkpt><trkpt lat="38.0463083" lon="15.8898917"><ele>876.0</ele><time>2026-04-12T07:56:35.982Z</time></trkpt><trkpt lat="38.04627" lon="15.8900367"><ele>876.0</ele><time>2026-04-12T07:56:36.983Z</time></trkpt><trkpt lat="38.0462167" lon="15.8901733"><ele>876.0</ele><time>2026-04-12T07:56:37.982Z</time></trkpt><trkpt lat="38.0461517" lon="15.8902983"><ele>876.0</ele><time>2026-04-12T07:56:38.982Z</time></trkpt><trkpt lat="38.04609" lon="15.8904167"><ele>877.1999999999999</ele><time>2026-04-12T07:56:39.983Z</time></trkpt><trkpt lat="38.0460383" lon="15.8905317"><ele>878.3999999999999</ele><time>2026-04-12T07:56:40.982Z</time></trkpt><trkpt lat="38.0460033" lon="15.8906517"><ele>879.6</ele><time>2026-04-12T07:56:41.982Z</time></trkpt><trkpt lat="38.0460017" lon="15.8907633"><ele>880.8</ele><time>2026-04-12T07:56:42.982Z</time></trkpt><trkpt lat="38.0460267" lon="15.8908783"><ele>882.0</ele><time>2026-04-12T07:56:43.983Z</time></trkpt><trkpt lat="38.04607" lon="15.89101"><ele>878.5</ele><time>2026-04-12T07:56:44.982Z</time></trkpt><trkpt lat="38.0461233" lon="15.8911467"><ele>875.0</ele><time>2026-04-12T07:56:45.982Z</time></trkpt><trkpt lat="38.046185" lon="15.8912767"><ele>871.5</ele><time>2026-04-12T07:56:46.982Z</time></trkpt><trkpt lat="38.0462483" lon="15.89142"><ele>868.0</ele><time>2026-04-12T07:56:47.982Z</time></trkpt><trkpt lat="38.0463167" lon="15.8915633"><ele>868.0</ele><time>2026-04-12T07:56:48.982Z</time></trkpt><trkpt lat="38.0463817" lon="15.8916567"><ele>868.0</ele><time>2026-04-12T07:56:49.982Z</time></trkpt><trkpt lat="38.0464583" lon="15.8917533"><ele>868.0</ele><time>2026-04-12T07:56:50.982Z</time></trkpt><trkpt lat="38.0465233" lon="15.8918533"><ele>868.0</ele><time>2026-04-12T07:56:51.982Z</time></trkpt><trkpt lat="38.0465667" lon="15.891965"><ele>868.0</ele><time>2026-04-12T07:56:52.982Z</time></trkpt><trkpt lat="38.0465933" lon="15.892095"><ele>865.0</ele><time>2026-04-12T07:56:53.982Z</time></trkpt><trkpt lat="38.0466117" lon="15.8922217"><ele>862.0</ele><time>2026-04-12T07:56:54.982Z</time></trkpt><trkpt lat="38.0466217" lon="15.8923533"><ele>859.0</ele><time>2026-04-12T07:56:55.982Z</time></trkpt><trkpt lat="38.04663" lon="15.8925"><ele>856.0</ele><time>2026-04-12T07:56:56.982Z</time></trkpt><trkpt lat="38.0466333" lon="15.8926367"><ele>853.0</ele><time>2026-04-12T07:56:57.982Z</time></trkpt><trkpt lat="38.046645" lon="15.89276"><ele>853.8</ele><time>2026-04-12T07:56:58.983Z</time></trkpt><trkpt lat="38.04665" lon="15.8928783"><ele>854.5999999999999</ele><time>2026-04-12T07:56:59.982Z</time></trkpt><trkpt lat="38.0466417" lon="15.8929933"><ele>855.4000000000001</ele><time>2026-04-12T07:57:00.982Z</time></trkpt><trkpt lat="38.0466033" lon="15.8931033"><ele>856.2</ele><time>2026-04-12T07:57:01.982Z</time></trkpt><trkpt lat="38.0465783" lon="15.89318"><ele>857.0</ele><time>2026-04-12T07:57:02.983Z</time></trkpt><trkpt lat="38.0465883" lon="15.8933383"><ele>857.0</ele><time>2026-04-12T07:57:04.983Z</time></trkpt><trkpt lat="38.0466067" lon="15.893415"><ele>857.0</ele><time>2026-04-12T07:57:05.982Z</time></trkpt><trkpt lat="38.0467033" lon="15.8935433"><ele>857.0</ele><time>2026-04-12T07:57:07.983Z</time></trkpt><trkpt lat="38.0467833" lon="15.8936"><ele>857.0</ele><time>2026-04-12T07:57:08.982Z</time></trkpt><trkpt lat="38.046865" lon="15.8936567"><ele>857.0</ele><time>2026-04-12T07:57:09.982Z</time></trkpt><trkpt lat="38.0469617" lon="15.8937033"><ele>859.3333333333334</ele><time>2026-04-12T07:57:10.982Z</time></trkpt><trkpt lat="38.04705" lon="15.8937317"><ele>861.6666666666667</ele><time>2026-04-12T07:57:11.982Z</time></trkpt><trkpt lat="38.04714" lon="15.89375"><ele>864.0</ele><time>2026-04-12T07:57:12.983Z</time></trkpt><trkpt lat="38.0472183" lon="15.89378"><ele>866.3333333333333</ele><time>2026-04-12T07:57:13.982Z</time></trkpt><trkpt lat="38.047285" lon="15.893815"><ele>868.6666666666666</ele><time>2026-04-12T07:57:14.982Z</time></trkpt><trkpt lat="38.0473467" lon="15.8938767"><ele>871.0</ele><time>2026-04-12T07:57:15.982Z</time></trkpt><trkpt lat="38.04741" lon="15.8939467"><ele>871.1666666666666</ele><time>2026-04-12T07:57:16.982Z</time></trkpt><trkpt lat="38.0474783" lon="15.89402"><ele>871.3333333333333</ele><time>2026-04-12T07:57:17.982Z</time></trkpt><trkpt lat="38.0475317" lon="15.8940983"><ele>871.5</ele><time>2026-04-12T07:57:18.982Z</time></trkpt><trkpt lat="38.047595" lon="15.8941717"><ele>871.6666666666667</ele><time>2026-04-12T07:57:19.982Z</time></trkpt><trkpt lat="38.0476633" lon="15.8942417"><ele>871.8333333333334</ele><time>2026-04-12T07:57:20.983Z</time></trkpt><trkpt lat="38.0477367" lon="15.8942917"><ele>872.0</ele><time>2026-04-12T07:57:21.983Z</time></trkpt><trkpt lat="38.04781" lon="15.8943383"><ele>872.0000000000001</ele><time>2026-04-12T07:57:22.982Z</time></trkpt><trkpt lat="38.0478783" lon="15.8943917"><ele>872.0</ele><time>2026-04-12T07:57:23.982Z</time></trkpt><trkpt lat="38.0479533" lon="15.8944367"><ele>872.0</ele><time>2026-04-12T07:57:24.982Z</time></trkpt><trkpt lat="38.04802" lon="15.8944833"><ele>872.0</ele><time>2026-04-12T07:57:25.982Z</time></trkpt><trkpt lat="38.0480833" lon="15.894555"><ele>872.0000000000001</ele><time>2026-04-12T07:57:26.982Z</time></trkpt><trkpt lat="38.0481333" lon="15.8946167"><ele>872.0</ele><time>2026-04-12T07:57:27.983Z</time></trkpt><trkpt lat="38.048175" lon="15.8947033"><ele>872.0000000000001</ele><time>2026-04-12T07:57:28.983Z</time></trkpt><trkpt lat="38.048195" lon="15.8948"><ele>872.0</ele><time>2026-04-12T07:57:29.982Z</time></trkpt><trkpt lat="38.0482" lon="15.8948983"><ele>872.0</ele><time>2026-04-12T07:57:30.982Z</time></trkpt><trkpt lat="38.0481883" lon="15.8950033"><ele>872.0</ele><time>2026-04-12T07:57:31.983Z</time></trkpt><trkpt lat="38.0481767" lon="15.895105"><ele>872.0000000000001</ele><time>2026-04-12T07:57:32.982Z</time></trkpt><trkpt lat="38.0481667" lon="15.8952033"><ele>872.0</ele><time>2026-04-12T07:57:33.982Z</time></trkpt><trkpt lat="38.04816" lon="15.8953017"><ele>870.3333333333334</ele><time>2026-04-12T07:57:34.983Z</time></trkpt><trkpt lat="38.0481533" lon="15.8954"><ele>868.6666666666667</ele><time>2026-04-12T07:57:35.982Z</time></trkpt><trkpt lat="38.04815" lon="15.8955"><ele>867.0</ele><time>2026-04-12T07:57:36.982Z</time></trkpt><trkpt lat="38.04815" lon="15.89561"><ele>865.3333333333333</ele><time>2026-04-12T07:57:37.982Z</time></trkpt><trkpt lat="38.0481467" lon="15.8957183"><ele>863.6666666666666</ele><time>2026-04-12T07:57:38.982Z</time></trkpt><trkpt lat="38.0481433" lon="15.895825"><ele>862.0</ele><time>2026-04-12T07:57:39.982Z</time></trkpt><trkpt lat="38.0481483" lon="15.895935"><ele>862.0</ele><time>2026-04-12T07:57:40.983Z</time></trkpt><trkpt lat="38.0481517" lon="15.89604"><ele>862.0</ele><time>2026-04-12T07:57:41.982Z</time></trkpt><trkpt lat="38.0481583" lon="15.8961467"><ele>862.0</ele><time>2026-04-12T07:57:42.982Z</time></trkpt><trkpt lat="38.0481633" lon="15.89624"><ele>862.0</ele><time>2026-04-12T07:57:43.982Z</time></trkpt><trkpt lat="38.0481733" lon="15.8963333"><ele>862.0</ele><time>2026-04-12T07:57:44.982Z</time></trkpt><trkpt lat="38.0481967" lon="15.8964083"><ele>862.0</ele><time>2026-04-12T07:57:45.982Z</time></trkpt><trkpt lat="38.0482133" lon="15.8964917"><ele>862.0</ele><time>2026-04-12T07:57:46.982Z</time></trkpt><trkpt lat="38.048235" lon="15.89658"><ele>862.0</ele><time>2026-04-12T07:57:47.982Z</time></trkpt><trkpt lat="38.0482517" lon="15.89668"><ele>862.0</ele><time>2026-04-12T07:57:48.982Z</time></trkpt><trkpt lat="38.0482683" lon="15.8967633"><ele>862.0</ele><time>2026-04-12T07:57:49.983Z</time></trkpt><trkpt lat="38.0482833" lon="15.89685"><ele>862.0</ele><time>2026-04-12T07:57:50.982Z</time></trkpt><trkpt lat="38.0483067" lon="15.896935"><ele>862.0</ele><time>2026-04-12T07:57:51.982Z</time></trkpt><trkpt lat="38.0483333" lon="15.8970233"><ele>862.0</ele><time>2026-04-12T07:57:52.982Z</time></trkpt><trkpt lat="38.0483617" lon="15.8971067"><ele>862.0</ele><time>2026-04-12T07:57:53.982Z</time></trkpt><trkpt lat="38.0484033" lon="15.8972283"><ele>865.4999999999999</ele><time>2026-04-12T07:57:55.982Z</time></trkpt><trkpt lat="38.0483817" lon="15.897315"><ele>869.0</ele><time>2026-04-12T07:57:58.982Z</time></trkpt><trkpt lat="38.0482917" lon="15.8973817"><ele>872.5</ele><time>2026-04-12T07:58:01.982Z</time></trkpt><trkpt lat="38.048225" lon="15.897405"><ele>876.0</ele><time>2026-04-12T07:58:02.982Z</time></trkpt><trkpt lat="38.0481617" lon="15.8974267"><ele>879.4999999999999</ele><time>2026-04-12T07:58:03.982Z</time></trkpt><trkpt lat="38.0480917" lon="15.8974517"><ele>883.0</ele><time>2026-04-12T07:58:04.982Z</time></trkpt><trkpt lat="38.04802" lon="15.89748"><ele>883.0</ele><time>2026-04-12T07:58:05.983Z</time></trkpt><trkpt lat="38.0479533" lon="15.897515"><ele>883.0</ele><time>2026-04-12T07:58:06.982Z</time></trkpt><trkpt lat="38.0478883" lon="15.8975567"><ele>883.0</ele><time>2026-04-12T07:58:07.982Z</time></trkpt><trkpt lat="38.0478283" lon="15.8976033"><ele>883.0</ele><time>2026-04-12T07:58:08.982Z</time></trkpt><trkpt lat="38.0477617" lon="15.8976517"><ele>883.0</ele><time>2026-04-12T07:58:09.982Z</time></trkpt><trkpt lat="38.0476967" lon="15.8977"><ele>883.0</ele><time>2026-04-12T07:58:10.982Z</time></trkpt><trkpt lat="38.0476467" lon="15.8977533"><ele>883.0</ele><time>2026-04-12T07:58:11.982Z</time></trkpt><trkpt lat="38.0476033" lon="15.8978133"><ele>886.1428571428571</ele><time>2026-04-12T07:58:12.983Z</time></trkpt><trkpt lat="38.047565" lon="15.8978817"><ele>889.2857142857142</ele><time>2026-04-12T07:58:13.982Z</time></trkpt><trkpt lat="38.0475233" lon="15.8979417"><ele>892.4285714285713</ele><time>2026-04-12T07:58:14.982Z</time></trkpt><trkpt lat="38.04747" lon="15.8980067"><ele>895.5714285714286</ele><time>2026-04-12T07:58:15.983Z</time></trkpt><trkpt lat="38.047415" lon="15.8980617"><ele>898.7142857142856</ele><time>2026-04-12T07:58:16.982Z</time></trkpt><trkpt lat="38.0473533" lon="15.89811"><ele>901.8571428571428</ele><time>2026-04-12T07:58:17.982Z</time></trkpt><trkpt lat="38.0472933" lon="15.8981483"><ele>905.0</ele><time>2026-04-12T07:58:18.982Z</time></trkpt><trkpt lat="38.0471683" lon="15.8981983"><ele>905.0000000000001</ele><time>2026-04-12T07:58:20.982Z</time></trkpt><trkpt lat="38.0470967" lon="15.8982083"><ele>905.0</ele><time>2026-04-12T07:58:21.983Z</time></trkpt><trkpt lat="38.0470233" lon="15.8982183"><ele>905.0</ele><time>2026-04-12T07:58:22.982Z</time></trkpt><trkpt lat="38.0469417" lon="15.89822"><ele>905.0</ele><time>2026-04-12T07:58:23.982Z</time></trkpt><trkpt lat="38.04686" lon="15.898215"><ele>905.0000000000001</ele><time>2026-04-12T07:58:24.982Z</time></trkpt><trkpt lat="38.0467767" lon="15.8981983"><ele>905.0</ele><time>2026-04-12T07:58:25.982Z</time></trkpt><trkpt lat="38.046695" lon="15.89819"><ele>904.6666666666667</ele><time>2026-04-12T07:58:26.983Z</time></trkpt><trkpt lat="38.0466167" lon="15.898195"><ele>904.3333333333334</ele><time>2026-04-12T07:58:27.982Z</time></trkpt><trkpt lat="38.0465367" lon="15.8981933"><ele>904.0</ele><time>2026-04-12T07:58:28.982Z</time></trkpt><trkpt lat="38.0464617" lon="15.8981967"><ele>903.6666666666667</ele><time>2026-04-12T07:58:29.982Z</time></trkpt><trkpt lat="38.0463983" lon="15.8982"><ele>903.3333333333334</ele><time>2026-04-12T07:58:30.983Z</time></trkpt><trkpt lat="38.0463417" lon="15.8982933"><ele>903.0</ele><time>2026-04-12T07:58:32.982Z</time></trkpt><trkpt lat="38.0463767" lon="15.898425"><ele>903.0</ele><time>2026-04-12T07:58:34.983Z</time></trkpt><trkpt lat="38.046435" lon="15.8985717"><ele>903.0</ele><time>2026-04-12T07:58:36.982Z</time></trkpt><trkpt lat="38.04647" lon="15.8986717"><ele>903.0</ele><time>2026-04-12T07:58:37.983Z</time></trkpt><trkpt lat="38.046495" lon="15.8987733"><ele>903.0</ele><time>2026-04-12T07:58:38.982Z</time></trkpt><trkpt lat="38.0464917" lon="15.8988683"><ele>903.0</ele><time>2026-04-12T07:58:39.982Z</time></trkpt><trkpt lat="38.0464583" lon="15.8990133"><ele>903.0</ele><time>2026-04-12T07:58:41.983Z</time></trkpt><trkpt lat="38.04643" lon="15.89909"><ele>903.0</ele><time>2026-04-12T07:58:43.983Z</time></trkpt><trkpt lat="38.0464917" lon="15.899"><ele>903.0</ele><time>2026-04-12T07:58:48.983Z</time></trkpt><trkpt lat="38.0465133" lon="15.89889"><ele>903.0</ele><time>2026-04-12T07:58:49.982Z</time></trkpt><trkpt lat="38.0465317" lon="15.8987867"><ele>903.0</ele><time>2026-04-12T07:58:50.983Z</time></trkpt><trkpt lat="38.0465433" lon="15.89869"><ele>903.0</ele><time>2026-04-12T07:58:51.982Z</time></trkpt><trkpt lat="38.0465483" lon="15.898605"><ele>903.0</ele><time>2026-04-12T07:58:52.982Z</time></trkpt><trkpt lat="38.046535" lon="15.8985267"><ele>903.0</ele><time>2026-04-12T07:58:53.982Z</time></trkpt><trkpt lat="38.046535" lon="15.8983983"><ele>903.0</ele><time>2026-04-12T07:58:55.983Z</time></trkpt><trkpt lat="38.0465367" lon="15.8983"><ele>903.0</ele><time>2026-04-12T07:58:58.982Z</time></trkpt><trkpt lat="38.0466133" lon="15.8982733"><ele>903.0</ele><time>2026-04-12T07:59:02.983Z</time></trkpt><trkpt lat="38.046625" lon="15.8983733"><ele>903.0</ele><time>2026-04-12T08:06:37.982Z</time></trkpt><trkpt lat="38.0465867" lon="15.8985383"><ele>903.0</ele><time>2026-04-12T08:06:39.982Z</time></trkpt><trkpt lat="38.0465717" lon="15.8986483"><ele>903.0</ele><time>2026-04-12T08:06:40.982Z</time></trkpt><trkpt lat="38.0465567" lon="15.8987583"><ele>903.0</ele><time>2026-04-12T08:06:41.982Z</time></trkpt><trkpt lat="38.0465583" lon="15.8988383"><ele>903.0</ele><time>2026-04-12T08:06:42.982Z</time></trkpt><trkpt lat="38.04653" lon="15.8989667"><ele>903.0</ele><time>2026-04-12T08:06:44.982Z</time></trkpt><trkpt lat="38.0464817" lon="15.8990717"><ele>903.0</ele><time>2026-04-12T08:06:46.982Z</time></trkpt><trkpt lat="38.0464233" lon="15.899185"><ele>905.2</ele><time>2026-04-12T08:06:48.982Z</time></trkpt><trkpt lat="38.0463967" lon="15.8993333"><ele>907.4</ele><time>2026-04-12T08:06:50.982Z</time></trkpt><trkpt lat="38.0463683" lon="15.8994833"><ele>909.6000000000001</ele><time>2026-04-12T08:06:52.982Z</time></trkpt><trkpt lat="38.0463283" lon="15.8996217"><ele>911.8000000000001</ele><time>2026-04-12T08:06:54.983Z</time></trkpt><trkpt lat="38.046305" lon="15.899705"><ele>914.0</ele><time>2026-04-12T08:06:55.982Z</time></trkpt><trkpt lat="38.0462733" lon="15.8997967"><ele>914.0</ele><time>2026-04-12T08:06:56.982Z</time></trkpt><trkpt lat="38.04625" lon="15.8998983"><ele>914.0000000000001</ele><time>2026-04-12T08:06:57.982Z</time></trkpt><trkpt lat="38.0462283" lon="15.8999967"><ele>914.0000000000001</ele><time>2026-04-12T08:06:58.982Z</time></trkpt><trkpt lat="38.0462017" lon="15.90007"><ele>914.0</ele><time>2026-04-12T08:06:59.982Z</time></trkpt><trkpt lat="38.04612" lon="15.9001517"><ele>914.0</ele><time>2026-04-12T08:07:01.982Z</time></trkpt><trkpt lat="38.045985" lon="15.9001417"><ele>914.0</ele><time>2026-04-12T08:07:03.982Z</time></trkpt><trkpt lat="38.0458917" lon="15.900095"><ele>914.0000000000001</ele><time>2026-04-12T08:07:04.982Z</time></trkpt><trkpt lat="38.0457983" lon="15.90005"><ele>914.0000000000001</ele><time>2026-04-12T08:07:05.982Z</time></trkpt><trkpt lat="38.0456833" lon="15.8999533"><ele>914.0</ele><time>2026-04-12T08:07:06.982Z</time></trkpt><trkpt lat="38.0456083" lon="15.8998517"><ele>914.0</ele><time>2026-04-12T08:07:07.982Z</time></trkpt><trkpt lat="38.0455367" lon="15.89975"><ele>915.5000000000001</ele><time>2026-04-12T08:07:08.982Z</time></trkpt><trkpt lat="38.0454767" lon="15.8996683"><ele>917.0</ele><time>2026-04-12T08:07:09.982Z</time></trkpt><trkpt lat="38.045425" lon="15.8995883"><ele>918.5</ele><time>2026-04-12T08:07:10.982Z</time></trkpt><trkpt lat="38.0453783" lon="15.8995167"><ele>920.0</ele><time>2026-04-12T08:07:11.983Z</time></trkpt><trkpt lat="38.0453317" lon="15.8994433"><ele>921.5000000000001</ele><time>2026-04-12T08:07:12.982Z</time></trkpt><trkpt lat="38.045285" lon="15.8993817"><ele>923.0</ele><time>2026-04-12T08:07:13.983Z</time></trkpt><trkpt lat="38.0452367" lon="15.8993183"><ele>917.4</ele><time>2026-04-12T08:07:14.982Z</time></trkpt><trkpt lat="38.045135" lon="15.8992067"><ele>911.8</ele><time>2026-04-12T08:07:16.983Z</time></trkpt><trkpt lat="38.0450717" lon="15.899155"><ele>906.2</ele><time>2026-04-12T08:07:17.982Z</time></trkpt><trkpt lat="38.0449533" lon="15.8991517"><ele>900.6</ele><time>2026-04-12T08:07:19.983Z</time></trkpt><trkpt lat="38.0448817" lon="15.8992017"><ele>895.0</ele><time>2026-04-12T08:07:20.982Z</time></trkpt><trkpt lat="38.0448067" lon="15.8992583"><ele>892.8</ele><time>2026-04-12T08:07:21.982Z</time></trkpt><trkpt lat="38.044725" lon="15.8993117"><ele>890.6</ele><time>2026-04-12T08:07:22.982Z</time></trkpt><trkpt lat="38.044655" lon="15.8993817"><ele>888.4000000000001</ele><time>2026-04-12T08:07:23.983Z</time></trkpt><trkpt lat="38.0446067" lon="15.89948"><ele>886.2</ele><time>2026-04-12T08:07:24.982Z</time></trkpt><trkpt lat="38.0445683" lon="15.8995983"><ele>884.0</ele><time>2026-04-12T08:07:25.982Z</time></trkpt><trkpt lat="38.0445433" lon="15.8997117"><ele>884.0000000000001</ele><time>2026-04-12T08:07:26.983Z</time></trkpt><trkpt lat="38.04452" lon="15.8998267"><ele>884.0</ele><time>2026-04-12T08:07:27.982Z</time></trkpt><trkpt lat="38.0444883" lon="15.89994"><ele>884.0</ele><time>2026-04-12T08:07:28.982Z</time></trkpt><trkpt lat="38.0444533" lon="15.9000417"><ele>884.0</ele><time>2026-04-12T08:07:29.982Z</time></trkpt><trkpt lat="38.0444183" lon="15.9001467"><ele>884.0000000000001</ele><time>2026-04-12T08:07:30.982Z</time></trkpt><trkpt lat="38.044385" lon="15.9002367"><ele>884.0</ele><time>2026-04-12T08:07:31.982Z</time></trkpt><trkpt lat="38.04435" lon="15.90032"><ele>886.8571428571429</ele><time>2026-04-12T08:07:32.982Z</time></trkpt><trkpt lat="38.0443133" lon="15.90039"><ele>889.7142857142858</ele><time>2026-04-12T08:07:33.982Z</time></trkpt><trkpt lat="38.044265" lon="15.900455"><ele>892.5714285714287</ele><time>2026-04-12T08:07:34.982Z</time></trkpt><trkpt lat="38.0442183" lon="15.90052"><ele>895.4285714285714</ele><time>2026-04-12T08:07:35.982Z</time></trkpt><trkpt lat="38.0441383" lon="15.900595"><ele>898.2857142857142</ele><time>2026-04-12T08:07:37.982Z</time></trkpt><trkpt lat="38.0440733" lon="15.9006367"><ele>901.1428571428572</ele><time>2026-04-12T08:07:40.983Z</time></trkpt><trkpt lat="38.044015" lon="15.9006867"><ele>904.0</ele><time>2026-04-12T08:08:31.982Z</time></trkpt><trkpt lat="38.0439717" lon="15.9008183"><ele>895.8333333333333</ele><time>2026-04-12T08:08:33.982Z</time></trkpt><trkpt lat="38.0439433" lon="15.9009083"><ele>887.6666666666666</ele><time>2026-04-12T08:08:34.983Z</time></trkpt><trkpt lat="38.0439167" lon="15.901005"><ele>879.5</ele><time>2026-04-12T08:08:35.982Z</time></trkpt><trkpt lat="38.0439017" lon="15.901105"><ele>871.3333333333333</ele><time>2026-04-12T08:08:36.982Z</time></trkpt><trkpt lat="38.0439" lon="15.9012033"><ele>863.1666666666666</ele><time>2026-04-12T08:08:37.982Z</time></trkpt><trkpt lat="38.0439167" lon="15.9013083"><ele>855.0</ele><time>2026-04-12T08:08:38.982Z</time></trkpt><trkpt lat="38.0439383" lon="15.9014233"><ele>855.0</ele><time>2026-04-12T08:08:39.982Z</time></trkpt><trkpt lat="38.0439633" lon="15.9015383"><ele>855.0</ele><time>2026-04-12T08:08:40.982Z</time></trkpt><trkpt lat="38.0439817" lon="15.9016533"><ele>855.0</ele><time>2026-04-12T08:08:41.982Z</time></trkpt><trkpt lat="38.044" lon="15.9017667"><ele>855.0</ele><time>2026-04-12T08:08:42.983Z</time></trkpt><trkpt lat="38.0440117" lon="15.9018883"><ele>855.0</ele><time>2026-04-12T08:08:43.982Z</time></trkpt><trkpt lat="38.0440217" lon="15.9020083"><ele>855.1666666666666</ele><time>2026-04-12T08:08:44.982Z</time></trkpt><trkpt lat="38.0440167" lon="15.902125"><ele>855.3333333333333</ele><time>2026-04-12T08:08:45.982Z</time></trkpt><trkpt lat="38.0440017" lon="15.902235"><ele>855.5</ele><time>2026-04-12T08:08:46.982Z</time></trkpt><trkpt lat="38.0439817" lon="15.9023483"><ele>855.6666666666666</ele><time>2026-04-12T08:08:47.982Z</time></trkpt><trkpt lat="38.0439583" lon="15.90245"><ele>855.8333333333333</ele><time>2026-04-12T08:08:48.982Z</time></trkpt><trkpt lat="38.04393" lon="15.9025483"><ele>856.0</ele><time>2026-04-12T08:08:49.982Z</time></trkpt><trkpt lat="38.043905" lon="15.9026433"><ele>856.4</ele><time>2026-04-12T08:08:50.982Z</time></trkpt><trkpt lat="38.04387" lon="15.9027483"><ele>856.8</ele><time>2026-04-12T08:08:51.983Z</time></trkpt><trkpt lat="38.0438267" lon="15.9028567"><ele>857.1999999999999</ele><time>2026-04-12T08:08:52.982Z</time></trkpt><trkpt lat="38.043775" lon="15.9029683"><ele>857.5999999999999</ele><time>2026-04-12T08:08:53.982Z</time></trkpt><trkpt lat="38.0437183" lon="15.9030783"><ele>858.0</ele><time>2026-04-12T08:08:54.983Z</time></trkpt><trkpt lat="38.0436667" lon="15.9031783"><ele>858.0</ele><time>2026-04-12T08:08:55.982Z</time></trkpt><trkpt lat="38.0436367" lon="15.9032633"><ele>858.0</ele><time>2026-04-12T08:08:56.982Z</time></trkpt><trkpt lat="38.043655" lon="15.9034267"><ele>858.0</ele><time>2026-04-12T08:08:58.982Z</time></trkpt><trkpt lat="38.0436967" lon="15.9035267"><ele>858.0</ele><time>2026-04-12T08:08:59.982Z</time></trkpt><trkpt lat="38.0437533" lon="15.90363"><ele>858.0</ele><time>2026-04-12T08:09:00.982Z</time></trkpt><trkpt lat="38.0438217" lon="15.903735"><ele>853.4</ele><time>2026-04-12T08:09:01.982Z</time></trkpt><trkpt lat="38.0439" lon="15.903845"><ele>848.8</ele><time>2026-04-12T08:09:02.982Z</time></trkpt><trkpt lat="38.043975" lon="15.9039433"><ele>844.2</ele><time>2026-04-12T08:09:03.983Z</time></trkpt><trkpt lat="38.0440333" lon="15.9040633"><ele>839.6</ele><time>2026-04-12T08:09:04.982Z</time></trkpt><trkpt lat="38.0440733" lon="15.9041983"><ele>835.0</ele><time>2026-04-12T08:09:05.983Z</time></trkpt><trkpt lat="38.0441033" lon="15.90433"><ele>832.8</ele><time>2026-04-12T08:09:06.982Z</time></trkpt><trkpt lat="38.0441283" lon="15.9044617"><ele>830.6</ele><time>2026-04-12T08:09:07.983Z</time></trkpt><trkpt lat="38.044165" lon="15.9045733"><ele>828.4000000000001</ele><time>2026-04-12T08:09:08.982Z</time></trkpt><trkpt lat="38.0442" lon="15.90468"><ele>826.2</ele><time>2026-04-12T08:09:09.982Z</time></trkpt><trkpt lat="38.0442467" lon="15.9047583"><ele>824.0</ele><time>2026-04-12T08:09:10.982Z</time></trkpt><trkpt lat="38.0443167" lon="15.9048067"><ele>831.0</ele><time>2026-04-12T08:09:11.983Z</time></trkpt><trkpt lat="38.0444017" lon="15.9048317"><ele>838.0</ele><time>2026-04-12T08:09:12.983Z</time></trkpt><trkpt lat="38.0444967" lon="15.90484"><ele>845.0000000000001</ele><time>2026-04-12T08:09:13.982Z</time></trkpt><trkpt lat="38.0445983" lon="15.90485"><ele>852.0</ele><time>2026-04-12T08:09:14.982Z</time></trkpt><trkpt lat="38.044715" lon="15.9048367"><ele>859.0</ele><time>2026-04-12T08:09:15.982Z</time></trkpt><trkpt lat="38.0448333" lon="15.9048317"><ele>859.0</ele><time>2026-04-12T08:09:16.982Z</time></trkpt><trkpt lat="38.044945" lon="15.9048333"><ele>859.0000000000001</ele><time>2026-04-12T08:09:17.982Z</time></trkpt><trkpt lat="38.045045" lon="15.90485"><ele>859.0000000000001</ele><time>2026-04-12T08:09:18.982Z</time></trkpt><trkpt lat="38.0451417" lon="15.904875"><ele>859.0</ele><time>2026-04-12T08:09:19.982Z</time></trkpt><trkpt lat="38.0452217" lon="15.9048983"><ele>859.0</ele><time>2026-04-12T08:09:20.982Z</time></trkpt><trkpt lat="38.0453" lon="15.9048933"><ele>859.1666666666666</ele><time>2026-04-12T08:09:21.982Z</time></trkpt><trkpt lat="38.0453617" lon="15.9048617"><ele>859.3333333333333</ele><time>2026-04-12T08:09:22.982Z</time></trkpt><trkpt lat="38.045415" lon="15.9048117"><ele>859.5</ele><time>2026-04-12T08:09:23.982Z</time></trkpt><trkpt lat="38.04547" lon="15.9047483"><ele>859.6666666666667</ele><time>2026-04-12T08:09:24.983Z</time></trkpt><trkpt lat="38.0455067" lon="15.9046717"><ele>859.8333333333334</ele><time>2026-04-12T08:09:25.982Z</time></trkpt><trkpt lat="38.045535" lon="15.9045633"><ele>860.0</ele><time>2026-04-12T08:09:26.982Z</time></trkpt><trkpt lat="38.0455533" lon="15.904445"><ele>860.0</ele><time>2026-04-12T08:09:27.982Z</time></trkpt><trkpt lat="38.0455633" lon="15.9043067"><ele>860.0</ele><time>2026-04-12T08:09:28.983Z</time></trkpt><trkpt lat="38.045575" lon="15.9041717"><ele>860.0</ele><time>2026-04-12T08:09:29.982Z</time></trkpt><trkpt lat="38.0455867" lon="15.9040483"><ele>860.0</ele><time>2026-04-12T08:09:30.982Z</time></trkpt><trkpt lat="38.045595" lon="15.9039483"><ele>860.0</ele><time>2026-04-12T08:09:31.983Z</time></trkpt><trkpt lat="38.04561" lon="15.9038683"><ele>863.5000000000001</ele><time>2026-04-12T08:09:32.982Z</time></trkpt><trkpt lat="38.0456267" lon="15.9037733"><ele>867.0</ele><time>2026-04-12T08:09:34.982Z</time></trkpt><trkpt lat="38.0456367" lon="15.9036633"><ele>870.5</ele><time>2026-04-12T08:09:37.982Z</time></trkpt><trkpt lat="38.04565" lon="15.9035683"><ele>874.0</ele><time>2026-04-12T08:09:40.982Z</time></trkpt><trkpt lat="38.0456683" lon="15.903475"><ele>877.5000000000001</ele><time>2026-04-12T08:09:43.982Z</time></trkpt><trkpt lat="38.0456983" lon="15.9033567"><ele>881.0</ele><time>2026-04-12T08:09:45.982Z</time></trkpt><trkpt lat="38.0457417" lon="15.90322"><ele>883.8</ele><time>2026-04-12T08:09:47.982Z</time></trkpt><trkpt lat="38.045785" lon="15.903105"><ele>886.5999999999999</ele><time>2026-04-12T08:09:49.982Z</time></trkpt><trkpt lat="38.0458283" lon="15.9029683"><ele>889.4</ele><time>2026-04-12T08:10:49.982Z</time></trkpt><trkpt lat="38.0458767" lon="15.9028567"><ele>892.2</ele><time>2026-04-12T08:10:51.982Z</time></trkpt><trkpt lat="38.045915" lon="15.9027683"><ele>895.0</ele><time>2026-04-12T08:10:52.982Z</time></trkpt><trkpt lat="38.045955" lon="15.9026617"><ele>888.0</ele><time>2026-04-12T08:10:53.983Z</time></trkpt><trkpt lat="38.0460033" lon="15.9025483"><ele>881.0</ele><time>2026-04-12T08:10:54.982Z</time></trkpt><trkpt lat="38.04606" lon="15.9024567"><ele>874.0</ele><time>2026-04-12T08:10:55.982Z</time></trkpt><trkpt lat="38.04614" lon="15.9023733"><ele>867.0</ele><time>2026-04-12T08:10:56.982Z</time></trkpt><trkpt lat="38.0462267" lon="15.9023033"><ele>860.0</ele><time>2026-04-12T08:10:57.983Z</time></trkpt><trkpt lat="38.0463267" lon="15.9022533"><ele>860.0</ele><time>2026-04-12T08:10:58.983Z</time></trkpt><trkpt lat="38.0464283" lon="15.902225"><ele>860.0</ele><time>2026-04-12T08:10:59.982Z</time></trkpt><trkpt lat="38.04653" lon="15.9022"><ele>860.0</ele><time>2026-04-12T08:11:00.982Z</time></trkpt><trkpt lat="38.0466217" lon="15.902175"><ele>860.0</ele><time>2026-04-12T08:11:01.983Z</time></trkpt><trkpt lat="38.0467117" lon="15.9021533"><ele>860.0</ele><time>2026-04-12T08:11:02.982Z</time></trkpt><trkpt lat="38.046805" lon="15.9021417"><ele>854.3333333333334</ele><time>2026-04-12T08:11:03.982Z</time></trkpt><trkpt lat="38.04689" lon="15.9021333"><ele>848.6666666666667</ele><time>2026-04-12T08:11:04.983Z</time></trkpt><trkpt lat="38.0469733" lon="15.9021333"><ele>843.0</ele><time>2026-04-12T08:11:05.982Z</time></trkpt><trkpt lat="38.0470583" lon="15.902135"><ele>837.3333333333333</ele><time>2026-04-12T08:11:06.982Z</time></trkpt><trkpt lat="38.0471483" lon="15.90213"><ele>831.6666666666666</ele><time>2026-04-12T08:11:07.982Z</time></trkpt><trkpt lat="38.0472367" lon="15.902105"><ele>826.0</ele><time>2026-04-12T08:11:08.982Z</time></trkpt><trkpt lat="38.04732" lon="15.90207"><ele>826.0</ele><time>2026-04-12T08:11:09.982Z</time></trkpt><trkpt lat="38.0474017" lon="15.9020117"><ele>826.0</ele><time>2026-04-12T08:11:10.982Z</time></trkpt><trkpt lat="38.04747" lon="15.90193"><ele>826.0</ele><time>2026-04-12T08:11:11.982Z</time></trkpt><trkpt lat="38.047525" lon="15.9018217"><ele>826.0</ele><time>2026-04-12T08:11:12.982Z</time></trkpt><trkpt lat="38.0475717" lon="15.9017033"><ele>826.0</ele><time>2026-04-12T08:11:13.982Z</time></trkpt><trkpt lat="38.047625" lon="15.9015817"><ele>824.5</ele><time>2026-04-12T08:11:14.983Z</time></trkpt><trkpt lat="38.047675" lon="15.9014483"><ele>823.0</ele><time>2026-04-12T08:11:15.982Z</time></trkpt><trkpt lat="38.0477233" lon="15.901315"><ele>821.5</ele><time>2026-04-12T08:11:16.983Z</time></trkpt><trkpt lat="38.0477783" lon="15.9011917"><ele>820.0</ele><time>2026-04-12T08:11:17.982Z</time></trkpt><trkpt lat="38.0478367" lon="15.9010683"><ele>820.0</ele><time>2026-04-12T08:11:18.982Z</time></trkpt><trkpt lat="38.04789" lon="15.90095"><ele>820.0</ele><time>2026-04-12T08:11:19.982Z</time></trkpt><trkpt lat="38.0479417" lon="15.9008433"><ele>820.0</ele><time>2026-04-12T08:11:20.982Z</time></trkpt><trkpt lat="38.0480117" lon="15.9007467"><ele>820.0</ele><time>2026-04-12T08:11:21.982Z</time></trkpt><trkpt lat="38.0480933" lon="15.9006733"><ele>820.0</ele><time>2026-04-12T08:11:22.982Z</time></trkpt><trkpt lat="38.0481983" lon="15.9005983"><ele>817.0</ele><time>2026-04-12T08:11:23.982Z</time></trkpt><trkpt lat="38.0483133" lon="15.90054"><ele>814.0</ele><time>2026-04-12T08:11:24.983Z</time></trkpt><trkpt lat="38.04843" lon="15.9004883"><ele>811.0</ele><time>2026-04-12T08:11:25.982Z</time></trkpt><trkpt lat="38.0485517" lon="15.900445"><ele>808.0</ele><time>2026-04-12T08:11:26.982Z</time></trkpt><trkpt lat="38.0486617" lon="15.9003933"><ele>808.0</ele><time>2026-04-12T08:11:27.982Z</time></trkpt><trkpt lat="38.0487733" lon="15.900345"><ele>808.0</ele><time>2026-04-12T08:11:28.983Z</time></trkpt><trkpt lat="38.0488783" lon="15.9003167"><ele>808.0</ele><time>2026-04-12T08:11:29.982Z</time></trkpt><trkpt lat="38.0489767" lon="15.9002967"><ele>808.0</ele><time>2026-04-12T08:11:30.982Z</time></trkpt><trkpt lat="38.0490783" lon="15.900315"><ele>808.0</ele><time>2026-04-12T08:11:31.982Z</time></trkpt><trkpt lat="38.0491733" lon="15.9003517"><ele>805.9999999999999</ele><time>2026-04-12T08:11:32.982Z</time></trkpt><trkpt lat="38.0492617" lon="15.9003883"><ele>804.0</ele><time>2026-04-12T08:11:33.982Z</time></trkpt><trkpt lat="38.0493383" lon="15.9004283"><ele>802.0</ele><time>2026-04-12T08:11:34.982Z</time></trkpt><trkpt lat="38.0494067" lon="15.900445"><ele>800.0</ele><time>2026-04-12T08:11:35.983Z</time></trkpt><trkpt lat="38.0494717" lon="15.9004433"><ele>797.9999999999999</ele><time>2026-04-12T08:11:36.983Z</time></trkpt><trkpt lat="38.0495783" lon="15.9003567"><ele>796.0</ele><time>2026-04-12T08:11:38.982Z</time></trkpt><trkpt lat="38.04962" lon="15.900275"><ele>795.9999999999999</ele><time>2026-04-12T08:11:39.982Z</time></trkpt><trkpt lat="38.0496517" lon="15.9001833"><ele>796.0</ele><time>2026-04-12T08:11:40.982Z</time></trkpt><trkpt lat="38.0496683" lon="15.900075"><ele>796.0</ele><time>2026-04-12T08:11:41.983Z</time></trkpt><trkpt lat="38.049675" lon="15.899965"><ele>796.0</ele><time>2026-04-12T08:11:42.982Z</time></trkpt><trkpt lat="38.0496767" lon="15.899855"><ele>795.9999999999999</ele><time>2026-04-12T08:11:43.982Z</time></trkpt><trkpt lat="38.0496817" lon="15.89974"><ele>796.0</ele><time>2026-04-12T08:11:44.982Z</time></trkpt><trkpt lat="38.049695" lon="15.8996467"><ele>797.9999999999999</ele><time>2026-04-12T08:11:45.981Z</time></trkpt><trkpt lat="38.04977" lon="15.8995433"><ele>800.0</ele><time>2026-04-12T08:11:47.982Z</time></trkpt><trkpt lat="38.049835" lon="15.8995517"><ele>802.0</ele><time>2026-04-12T08:11:48.982Z</time></trkpt><trkpt lat="38.04989" lon="15.899595"><ele>804.0</ele><time>2026-04-12T08:11:49.981Z</time></trkpt><trkpt lat="38.0499283" lon="15.899665"><ele>805.9999999999999</ele><time>2026-04-12T08:11:50.982Z</time></trkpt><trkpt lat="38.0499517" lon="15.8997617"><ele>808.0</ele><time>2026-04-12T08:11:51.981Z</time></trkpt><trkpt lat="38.0499583" lon="15.899865"><ele>808.0</ele><time>2026-04-12T08:11:52.981Z</time></trkpt><trkpt lat="38.0499567" lon="15.89999"><ele>808.0</ele><time>2026-04-12T08:11:53.981Z</time></trkpt><trkpt lat="38.0499517" lon="15.9001217"><ele>808.0</ele><time>2026-04-12T08:11:54.981Z</time></trkpt><trkpt lat="38.0499467" lon="15.900245"><ele>808.0</ele><time>2026-04-12T08:11:55.981Z</time></trkpt><trkpt lat="38.0499433" lon="15.9003617"><ele>808.0</ele><time>2026-04-12T08:11:56.981Z</time></trkpt><trkpt lat="38.0499367" lon="15.9004767"><ele>805.5999999999999</ele><time>2026-04-12T08:11:57.981Z</time></trkpt><trkpt lat="38.04992" lon="15.9006033"><ele>803.1999999999999</ele><time>2026-04-12T08:11:58.981Z</time></trkpt><trkpt lat="38.0498933" lon="15.9007267"><ele>800.8</ele><time>2026-04-12T08:11:59.982Z</time></trkpt><trkpt lat="38.0498467" lon="15.90084"><ele>798.4</ele><time>2026-04-12T08:12:00.981Z</time></trkpt><trkpt lat="38.0497883" lon="15.9009483"><ele>796.0</ele><time>2026-04-12T08:12:01.982Z</time></trkpt><trkpt lat="38.0497233" lon="15.901045"><ele>791.4</ele><time>2026-04-12T08:12:02.981Z</time></trkpt><trkpt lat="38.0496533" lon="15.9011333"><ele>786.8</ele><time>2026-04-12T08:12:03.981Z</time></trkpt><trkpt lat="38.049575" lon="15.9011867"><ele>782.1999999999999</ele><time>2026-04-12T08:12:04.982Z</time></trkpt><trkpt lat="38.0494933" lon="15.9012233"><ele>777.5999999999999</ele><time>2026-04-12T08:12:05.981Z</time></trkpt><trkpt lat="38.0494017" lon="15.9012533"><ele>773.0</ele><time>2026-04-12T08:12:06.982Z</time></trkpt><trkpt lat="38.0493083" lon="15.9012817"><ele>773.0</ele><time>2026-04-12T08:12:07.981Z</time></trkpt><trkpt lat="38.0492133" lon="15.9013117"><ele>773.0</ele><time>2026-04-12T08:12:08.981Z</time></trkpt><trkpt lat="38.0491217" lon="15.9013583"><ele>773.0</ele><time>2026-04-12T08:12:09.982Z</time></trkpt><trkpt lat="38.0490467" lon="15.90143"><ele>773.0</ele><time>2026-04-12T08:12:10.982Z</time></trkpt><trkpt lat="38.0489933" lon="15.9015233"><ele>773.0</ele><time>2026-04-12T08:12:11.981Z</time></trkpt><trkpt lat="38.0489517" lon="15.90164"><ele>772.4</ele><time>2026-04-12T08:12:12.981Z</time></trkpt><trkpt lat="38.0489117" lon="15.9017583"><ele>771.8</ele><time>2026-04-12T08:12:13.982Z</time></trkpt><trkpt lat="38.0488733" lon="15.901875"><ele>771.2</ele><time>2026-04-12T08:12:14.981Z</time></trkpt><trkpt lat="38.0488167" lon="15.9019733"><ele>770.6</ele><time>2026-04-12T08:12:15.981Z</time></trkpt><trkpt lat="38.04874" lon="15.902055"><ele>770.0</ele><time>2026-04-12T08:12:16.982Z</time></trkpt><trkpt lat="38.0486517" lon="15.9021283"><ele>770.0</ele><time>2026-04-12T08:12:17.981Z</time></trkpt><trkpt lat="38.048545" lon="15.902185"><ele>770.0</ele><time>2026-04-12T08:12:18.981Z</time></trkpt><trkpt lat="38.048425" lon="15.9022367"><ele>770.0</ele><time>2026-04-12T08:12:19.982Z</time></trkpt><trkpt lat="38.0483133" lon="15.90229"><ele>770.0</ele><time>2026-04-12T08:12:20.981Z</time></trkpt><trkpt lat="38.048205" lon="15.9023533"><ele>772.8</ele><time>2026-04-12T08:12:21.981Z</time></trkpt><trkpt lat="38.0481067" lon="15.90241"><ele>775.6</ele><time>2026-04-12T08:12:22.981Z</time></trkpt><trkpt lat="38.048015" lon="15.9024817"><ele>778.4000000000001</ele><time>2026-04-12T08:12:23.981Z</time></trkpt><trkpt lat="38.0479317" lon="15.90256"><ele>781.2</ele><time>2026-04-12T08:12:24.982Z</time></trkpt><trkpt lat="38.0478533" lon="15.9026367"><ele>784.0</ele><time>2026-04-12T08:12:25.982Z</time></trkpt><trkpt lat="38.0477817" lon="15.9027133"><ele>783.9999999999999</ele><time>2026-04-12T08:12:26.981Z</time></trkpt><trkpt lat="38.0477267" lon="15.90279"><ele>784.0</ele><time>2026-04-12T08:12:27.981Z</time></trkpt><trkpt lat="38.0476817" lon="15.9029"><ele>784.0</ele><time>2026-04-12T08:12:28.981Z</time></trkpt><trkpt lat="38.0476717" lon="15.9030117"><ele>784.0</ele><time>2026-04-12T08:12:29.982Z</time></trkpt><trkpt lat="38.0476867" lon="15.90311"><ele>783.9999999999999</ele><time>2026-04-12T08:12:30.981Z</time></trkpt><trkpt lat="38.0477333" lon="15.9032017"><ele>784.0</ele><time>2026-04-12T08:12:31.981Z</time></trkpt><trkpt lat="38.0478033" lon="15.9032683"><ele>784.0</ele><time>2026-04-12T08:12:32.981Z</time></trkpt><trkpt lat="38.04789" lon="15.903295"><ele>784.0</ele><time>2026-04-12T08:12:33.981Z</time></trkpt><trkpt lat="38.0479817" lon="15.9032983"><ele>784.0</ele><time>2026-04-12T08:12:34.981Z</time></trkpt><trkpt lat="38.0480733" lon="15.9032567"><ele>784.0</ele><time>2026-04-12T08:12:35.981Z</time></trkpt><trkpt lat="38.048155" lon="15.9031933"><ele>784.0</ele><time>2026-04-12T08:12:36.982Z</time></trkpt><trkpt lat="38.048225" lon="15.90314"><ele>783.9999999999999</ele><time>2026-04-12T08:12:37.981Z</time></trkpt><trkpt lat="38.04829" lon="15.903115"><ele>784.0</ele><time>2026-04-12T08:12:38.981Z</time></trkpt><trkpt lat="38.0483517" lon="15.9031467"><ele>784.0</ele><time>2026-04-12T08:12:39.981Z</time></trkpt><trkpt lat="38.0484" lon="15.9032017"><ele>784.0</ele><time>2026-04-12T08:12:40.981Z</time></trkpt><trkpt lat="38.0484283" lon="15.9033567"><ele>783.9999999999999</ele><time>2026-04-12T08:12:42.982Z</time></trkpt><trkpt lat="38.0484167" lon="15.903445"><ele>784.0</ele><time>2026-04-12T08:12:43.982Z</time></trkpt><trkpt lat="38.0484033" lon="15.9035283"><ele>777.8000000000001</ele><time>2026-04-12T08:12:44.981Z</time></trkpt><trkpt lat="38.0483883" lon="15.9036133"><ele>771.6</ele><time>2026-04-12T08:12:45.981Z</time></trkpt><trkpt lat="38.0483733" lon="15.9037167"><ele>765.4</ele><time>2026-04-12T08:12:46.981Z</time></trkpt><trkpt lat="38.0483667" lon="15.9038367"><ele>759.2</ele><time>2026-04-12T08:12:47.981Z</time></trkpt><trkpt lat="38.0483733" lon="15.9039717"><ele>753.0</ele><time>2026-04-12T08:12:48.981Z</time></trkpt><trkpt lat="38.048375" lon="15.9040983"><ele>753.0</ele><time>2026-04-12T08:12:49.981Z</time></trkpt><trkpt lat="38.0483733" lon="15.904225"><ele>753.0</ele><time>2026-04-12T08:12:50.981Z</time></trkpt><trkpt lat="38.0483683" lon="15.9043483"><ele>753.0</ele><time>2026-04-12T08:12:51.981Z</time></trkpt><trkpt lat="38.048345" lon="15.904465"><ele>753.0</ele><time>2026-04-12T08:12:52.981Z</time></trkpt><trkpt lat="38.0482967" lon="15.904575"><ele>753.0</ele><time>2026-04-12T08:12:53.981Z</time></trkpt><trkpt lat="38.0482383" lon="15.9046867"><ele>753.75</ele><time>2026-04-12T08:12:54.981Z</time></trkpt><trkpt lat="38.04818" lon="15.90482"><ele>754.5</ele><time>2026-04-12T08:12:55.982Z</time></trkpt><trkpt lat="38.04813" lon="15.9049583"><ele>755.25</ele><time>2026-04-12T08:12:56.981Z</time></trkpt><trkpt lat="38.0480833" lon="15.9051067"><ele>756.0</ele><time>2026-04-12T08:12:57.982Z</time></trkpt><trkpt lat="38.04804" lon="15.90526"><ele>756.0</ele><time>2026-04-12T08:12:58.981Z</time></trkpt><trkpt lat="38.0480117" lon="15.9054033"><ele>756.0</ele><time>2026-04-12T08:12:59.981Z</time></trkpt><trkpt lat="38.0479917" lon="15.90554"><ele>756.0</ele><time>2026-04-12T08:13:00.981Z</time></trkpt><trkpt lat="38.0479833" lon="15.9056767"><ele>756.0</ele><time>2026-04-12T08:13:01.981Z</time></trkpt><trkpt lat="38.048" lon="15.9058183"><ele>756.0</ele><time>2026-04-12T08:13:02.981Z</time></trkpt><trkpt lat="38.048035" lon="15.9059483"><ele>753.5999999999999</ele><time>2026-04-12T08:13:03.982Z</time></trkpt><trkpt lat="38.048055" lon="15.9060767"><ele>751.2</ele><time>2026-04-12T08:13:04.982Z</time></trkpt><trkpt lat="38.0480683" lon="15.9062"><ele>748.8</ele><time>2026-04-12T08:13:05.981Z</time></trkpt><trkpt lat="38.04805" lon="15.9063333"><ele>746.4000000000001</ele><time>2026-04-12T08:13:06.982Z</time></trkpt><trkpt lat="38.0480083" lon="15.9064467"><ele>744.0</ele><time>2026-04-12T08:13:07.981Z</time></trkpt><trkpt lat="38.0479333" lon="15.9065533"><ele>744.0</ele><time>2026-04-12T08:13:08.981Z</time></trkpt><trkpt lat="38.04784" lon="15.9066433"><ele>744.0</ele><time>2026-04-12T08:13:09.982Z</time></trkpt><trkpt lat="38.0477383" lon="15.9067117"><ele>744.0</ele><time>2026-04-12T08:13:10.981Z</time></trkpt><trkpt lat="38.0476283" lon="15.9067583"><ele>744.0</ele><time>2026-04-12T08:13:11.981Z</time></trkpt><trkpt lat="38.04753" lon="15.9067967"><ele>745.6666666666666</ele><time>2026-04-12T08:13:12.981Z</time></trkpt><trkpt lat="38.047435" lon="15.9068183"><ele>747.3333333333334</ele><time>2026-04-12T08:13:13.982Z</time></trkpt><trkpt lat="38.0473483" lon="15.906835"><ele>749.0</ele><time>2026-04-12T08:13:14.981Z</time></trkpt><trkpt lat="38.0472833" lon="15.906865"><ele>750.6666666666667</ele><time>2026-04-12T08:13:15.981Z</time></trkpt><trkpt lat="38.0472383" lon="15.9069267"><ele>752.3333333333334</ele><time>2026-04-12T08:13:16.981Z</time></trkpt><trkpt lat="38.0472233" lon="15.9070083"><ele>754.0</ele><time>2026-04-12T08:13:17.982Z</time></trkpt><trkpt lat="38.047245" lon="15.9070883"><ele>754.0</ele><time>2026-04-12T08:13:18.982Z</time></trkpt><trkpt lat="38.0472917" lon="15.9071433"><ele>754.0</ele><time>2026-04-12T08:13:19.982Z</time></trkpt><trkpt lat="38.0473617" lon="15.9071433"><ele>754.0</ele><time>2026-04-12T08:13:20.982Z</time></trkpt><trkpt lat="38.04745" lon="15.907105"><ele>754.0</ele><time>2026-04-12T08:13:21.981Z</time></trkpt><trkpt lat="38.0475483" lon="15.907045"><ele>754.0</ele><time>2026-04-12T08:13:22.982Z</time></trkpt><trkpt lat="38.047655" lon="15.9069833"><ele>751.5</ele><time>2026-04-12T08:13:23.981Z</time></trkpt><trkpt lat="38.0477717" lon="15.9069083"><ele>749.0</ele><time>2026-04-12T08:13:24.982Z</time></trkpt><trkpt lat="38.0478833" lon="15.906835"><ele>746.5</ele><time>2026-04-12T08:13:25.981Z</time></trkpt><trkpt lat="38.04798" lon="15.906765"><ele>744.0</ele><time>2026-04-12T08:13:26.982Z</time></trkpt><trkpt lat="38.0480567" lon="15.9067033"><ele>744.0</ele><time>2026-04-12T08:13:27.982Z</time></trkpt><trkpt lat="38.04811" lon="15.9066533"><ele>744.0</ele><time>2026-04-12T08:13:28.981Z</time></trkpt><trkpt lat="38.04819" lon="15.9066067"><ele>744.0</ele><time>2026-04-12T08:13:30.981Z</time></trkpt><trkpt lat="38.04825" lon="15.9065217"><ele>744.0</ele><time>2026-04-12T08:15:40.981Z</time></trkpt><trkpt lat="38.0483067" lon="15.9063917"><ele>744.0</ele><time>2026-04-12T08:15:42.981Z</time></trkpt><trkpt lat="38.04835" lon="15.9063133"><ele>744.0</ele><time>2026-04-12T08:15:43.981Z</time></trkpt><trkpt lat="38.0483867" lon="15.906215"><ele>741.2</ele><time>2026-04-12T08:15:44.981Z</time></trkpt><trkpt lat="38.0484317" lon="15.9061033"><ele>738.4000000000001</ele><time>2026-04-12T08:15:45.982Z</time></trkpt><trkpt lat="38.0484633" lon="15.9059917"><ele>735.6</ele><time>2026-04-12T08:15:46.981Z</time></trkpt><trkpt lat="38.0484933" lon="15.90586"><ele>732.8</ele><time>2026-04-12T08:15:47.981Z</time></trkpt><trkpt lat="38.0485183" lon="15.905735"><ele>730.0</ele><time>2026-04-12T08:15:48.981Z</time></trkpt><trkpt lat="38.0485367" lon="15.9056233"><ele>730.0</ele><time>2026-04-12T08:15:49.982Z</time></trkpt><trkpt lat="38.0485733" lon="15.905505"><ele>730.0</ele><time>2026-04-12T08:15:50.981Z</time></trkpt><trkpt lat="38.0486383" lon="15.905395"><ele>730.0</ele><time>2026-04-12T08:15:51.981Z</time></trkpt><trkpt lat="38.04872" lon="15.9052833"><ele>730.0</ele><time>2026-04-12T08:15:52.981Z</time></trkpt><trkpt lat="38.04881" lon="15.9051783"><ele>732.25</ele><time>2026-04-12T08:15:53.981Z</time></trkpt><trkpt lat="38.0488867" lon="15.9050633"><ele>734.5</ele><time>2026-04-12T08:15:54.981Z</time></trkpt><trkpt lat="38.0489567" lon="15.9049333"><ele>736.75</ele><time>2026-04-12T08:15:55.981Z</time></trkpt><trkpt lat="38.0490067" lon="15.904805"><ele>739.0</ele><time>2026-04-12T08:15:56.981Z</time></trkpt><trkpt lat="38.0490617" lon="15.9046867"><ele>739.0</ele><time>2026-04-12T08:15:57.981Z</time></trkpt><trkpt lat="38.0491117" lon="15.9045733"><ele>739.0</ele><time>2026-04-12T08:15:58.981Z</time></trkpt><trkpt lat="38.0491583" lon="15.9044667"><ele>739.0</ele><time>2026-04-12T08:15:59.981Z</time></trkpt><trkpt lat="38.0492033" lon="15.9043783"><ele>739.0</ele><time>2026-04-12T08:16:00.981Z</time></trkpt><trkpt lat="38.0492583" lon="15.9042883"><ele>739.0</ele><time>2026-04-12T08:16:01.981Z</time></trkpt><trkpt lat="38.0493167" lon="15.9042083"><ele>736.0</ele><time>2026-04-12T08:16:02.981Z</time></trkpt><trkpt lat="38.049375" lon="15.9041333"><ele>733.0</ele><time>2026-04-12T08:16:03.981Z</time></trkpt><trkpt lat="38.0494317" lon="15.9040567"><ele>730.0</ele><time>2026-04-12T08:16:04.981Z</time></trkpt><trkpt lat="38.0494867" lon="15.90398"><ele>727.0</ele><time>2026-04-12T08:16:05.981Z</time></trkpt><trkpt lat="38.04954" lon="15.9039017"><ele>724.0</ele><time>2026-04-12T08:16:06.981Z</time></trkpt><trkpt lat="38.0496" lon="15.9038267"><ele>721.0</ele><time>2026-04-12T08:16:07.981Z</time></trkpt><trkpt lat="38.0496667" lon="15.9037467"><ele>721.0</ele><time>2026-04-12T08:16:08.981Z</time></trkpt><trkpt lat="38.04974" lon="15.9036717"><ele>721.0</ele><time>2026-04-12T08:16:09.982Z</time></trkpt><trkpt lat="38.049815" lon="15.9035933"><ele>721.0</ele><time>2026-04-12T08:16:10.981Z</time></trkpt><trkpt lat="38.0498867" lon="15.9035133"><ele>721.0</ele><time>2026-04-12T08:16:11.982Z</time></trkpt><trkpt lat="38.0499567" lon="15.90344"><ele>721.0</ele><time>2026-04-12T08:16:12.981Z</time></trkpt><trkpt lat="38.0500417" lon="15.90338"><ele>719.8</ele><time>2026-04-12T08:16:13.981Z</time></trkpt><trkpt lat="38.0501433" lon="15.90333"><ele>718.5999999999999</ele><time>2026-04-12T08:16:14.982Z</time></trkpt><trkpt lat="38.0502383" lon="15.9032683"><ele>717.4</ele><time>2026-04-12T08:16:15.981Z</time></trkpt><trkpt lat="38.0503283" lon="15.9032117"><ele>716.2</ele><time>2026-04-12T08:16:16.981Z</time></trkpt><trkpt lat="38.05043" lon="15.9031617"><ele>715.0</ele><time>2026-04-12T08:16:17.982Z</time></trkpt><trkpt lat="38.0505267" lon="15.9031367"><ele>715.0</ele><time>2026-04-12T08:16:18.981Z</time></trkpt><trkpt lat="38.05062" lon="15.9031183"><ele>715.0</ele><time>2026-04-12T08:16:19.981Z</time></trkpt><trkpt lat="38.0507167" lon="15.9031167"><ele>715.0</ele><time>2026-04-12T08:16:20.981Z</time></trkpt><trkpt lat="38.050805" lon="15.9031233"><ele>715.0</ele><time>2026-04-12T08:16:21.981Z</time></trkpt><trkpt lat="38.05089" lon="15.903135"><ele>715.0</ele><time>2026-04-12T08:16:22.982Z</time></trkpt><trkpt lat="38.0509717" lon="15.9031517"><ele>715.0</ele><time>2026-04-12T08:16:23.981Z</time></trkpt><trkpt lat="38.05104" lon="15.9031683"><ele>712.0</ele><time>2026-04-12T08:16:24.981Z</time></trkpt><trkpt lat="38.0511517" lon="15.9031867"><ele>709.0</ele><time>2026-04-12T08:16:26.981Z</time></trkpt><trkpt lat="38.0512533" lon="15.9032133"><ele>706.0</ele><time>2026-04-12T08:16:28.981Z</time></trkpt><trkpt lat="38.051385" lon="15.9032167"><ele>703.0</ele><time>2026-04-12T08:16:30.981Z</time></trkpt><trkpt lat="38.0514533" lon="15.9032183"><ele>700.0</ele><time>2026-04-12T08:16:31.981Z</time></trkpt><trkpt lat="38.0515317" lon="15.9032083"><ele>700.0</ele><time>2026-04-12T08:16:32.982Z</time></trkpt><trkpt lat="38.051615" lon="15.9031767"><ele>700.0</ele><time>2026-04-12T08:16:33.981Z</time></trkpt><trkpt lat="38.0517" lon="15.903135"><ele>700.0</ele><time>2026-04-12T08:16:34.982Z</time></trkpt><trkpt lat="38.0517817" lon="15.90308"><ele>700.0</ele><time>2026-04-12T08:16:35.981Z</time></trkpt><trkpt lat="38.0518667" lon="15.9030017"><ele>700.0</ele><time>2026-04-12T08:16:36.982Z</time></trkpt><trkpt lat="38.0519383" lon="15.9029033"><ele>697.75</ele><time>2026-04-12T08:16:37.981Z</time></trkpt><trkpt lat="38.0520017" lon="15.9027833"><ele>695.5</ele><time>2026-04-12T08:16:38.982Z</time></trkpt><trkpt lat="38.052065" lon="15.902655"><ele>693.25</ele><time>2026-04-12T08:16:39.981Z</time></trkpt><trkpt lat="38.0521217" lon="15.9025267"><ele>691.0</ele><time>2026-04-12T08:16:40.981Z</time></trkpt><trkpt lat="38.0522" lon="15.902405"><ele>689.5</ele><time>2026-04-12T08:16:41.981Z</time></trkpt><trkpt lat="38.0522817" lon="15.902285"><ele>688.0</ele><time>2026-04-12T08:16:42.982Z</time></trkpt><trkpt lat="38.0523533" lon="15.902165"><ele>686.5</ele><time>2026-04-12T08:16:43.981Z</time></trkpt><trkpt lat="38.0524317" lon="15.90206"><ele>685.0</ele><time>2026-04-12T08:16:44.981Z</time></trkpt><trkpt lat="38.052505" lon="15.9019533"><ele>685.0</ele><time>2026-04-12T08:16:45.981Z</time></trkpt><trkpt lat="38.0525767" lon="15.9018533"><ele>685.0</ele><time>2026-04-12T08:16:46.981Z</time></trkpt><trkpt lat="38.0526467" lon="15.9017617"><ele>685.0</ele><time>2026-04-12T08:16:47.981Z</time></trkpt><trkpt lat="38.0527117" lon="15.9016817"><ele>685.0</ele><time>2026-04-12T08:16:48.981Z</time></trkpt><trkpt lat="38.0527733" lon="15.9016217"><ele>685.0</ele><time>2026-04-12T08:16:49.981Z</time></trkpt><trkpt lat="38.0528467" lon="15.9015433"><ele>685.0</ele><time>2026-04-12T08:16:51.981Z</time></trkpt><trkpt lat="38.052945" lon="15.9016117"><ele>685.0</ele><time>2026-04-12T08:16:53.981Z</time></trkpt><trkpt lat="38.0529733" lon="15.901685"><ele>685.0</ele><time>2026-04-12T08:16:54.981Z</time></trkpt><trkpt lat="38.0529783" lon="15.9017717"><ele>685.0</ele><time>2026-04-12T08:16:55.982Z</time></trkpt><trkpt lat="38.052945" lon="15.9018633"><ele>685.0</ele><time>2026-04-12T08:16:56.981Z</time></trkpt><trkpt lat="38.052895" lon="15.9019517"><ele>685.0</ele><time>2026-04-12T08:16:57.982Z</time></trkpt><trkpt lat="38.052825" lon="15.902045"><ele>685.0</ele><time>2026-04-12T08:16:58.981Z</time></trkpt><trkpt lat="38.05273" lon="15.9021667"><ele>685.0</ele><time>2026-04-12T08:16:59.981Z</time></trkpt><trkpt lat="38.0526267" lon="15.9023017"><ele>685.0</ele><time>2026-04-12T08:17:00.981Z</time></trkpt><trkpt lat="38.0525317" lon="15.9024283"><ele>685.0</ele><time>2026-04-12T08:17:01.981Z</time></trkpt><trkpt lat="38.0524617" lon="15.9025283"><ele>686.2</ele><time>2026-04-12T08:17:02.981Z</time></trkpt><trkpt lat="38.0524033" lon="15.9026383"><ele>687.4</ele><time>2026-04-12T08:17:03.982Z</time></trkpt><trkpt lat="38.0523617" lon="15.902745"><ele>688.5999999999999</ele><time>2026-04-12T08:17:04.981Z</time></trkpt><trkpt lat="38.0523267" lon="15.902855"><ele>689.8</ele><time>2026-04-12T08:17:05.982Z</time></trkpt><trkpt lat="38.0522983" lon="15.9029717"><ele>691.0</ele><time>2026-04-12T08:17:06.981Z</time></trkpt><trkpt lat="38.0522783" lon="15.9030933"><ele>691.0</ele><time>2026-04-12T08:17:07.981Z</time></trkpt><trkpt lat="38.05226" lon="15.90321"><ele>691.0</ele><time>2026-04-12T08:17:08.982Z</time></trkpt><trkpt lat="38.0522383" lon="15.903325"><ele>691.0</ele><time>2026-04-12T08:17:09.981Z</time></trkpt><trkpt lat="38.0522033" lon="15.90343"><ele>691.0</ele><time>2026-04-12T08:17:10.981Z</time></trkpt><trkpt lat="38.0521567" lon="15.9035267"><ele>691.0</ele><time>2026-04-12T08:17:11.981Z</time></trkpt><trkpt lat="38.0521117" lon="15.90361"><ele>691.0</ele><time>2026-04-12T08:17:12.981Z</time></trkpt><trkpt lat="38.0520567" lon="15.90368"><ele>686.0</ele><time>2026-04-12T08:17:13.981Z</time></trkpt><trkpt lat="38.0520167" lon="15.90375"><ele>681.0</ele><time>2026-04-12T08:17:14.981Z</time></trkpt><trkpt lat="38.0519733" lon="15.9038233"><ele>676.0</ele><time>2026-04-12T08:17:15.982Z</time></trkpt><trkpt lat="38.05198" lon="15.9039433"><ele>671.0</ele><time>2026-04-12T08:17:17.981Z</time></trkpt><trkpt lat="38.0520733" lon="15.9039933"><ele>666.0</ele><time>2026-04-12T08:17:19.981Z</time></trkpt><trkpt lat="38.052135" lon="15.9039667"><ele>661.0</ele><time>2026-04-12T08:17:20.982Z</time></trkpt><trkpt lat="38.0521917" lon="15.9039167"><ele>661.0</ele><time>2026-04-12T08:17:21.981Z</time></trkpt><trkpt lat="38.052235" lon="15.9038317"><ele>661.0</ele><time>2026-04-12T08:17:22.981Z</time></trkpt><trkpt lat="38.0522667" lon="15.9037283"><ele>661.0</ele><time>2026-04-12T08:17:23.981Z</time></trkpt><trkpt lat="38.052295" lon="15.903605"><ele>661.0</ele><time>2026-04-12T08:17:24.981Z</time></trkpt><trkpt lat="38.0523233" lon="15.9034783"><ele>661.0</ele><time>2026-04-12T08:17:25.981Z</time></trkpt><trkpt lat="38.0523533" lon="15.9033567"><ele>660.6666666666667</ele><time>2026-04-12T08:17:26.981Z</time></trkpt><trkpt lat="38.0523817" lon="15.9032467"><ele>660.3333333333334</ele><time>2026-04-12T08:17:27.981Z</time></trkpt><trkpt lat="38.0524117" lon="15.9031467"><ele>660.0</ele><time>2026-04-12T08:17:28.981Z</time></trkpt><trkpt lat="38.0524483" lon="15.9030517"><ele>659.6666666666666</ele><time>2026-04-12T08:17:29.981Z</time></trkpt><trkpt lat="38.0524917" lon="15.9029633"><ele>659.3333333333333</ele><time>2026-04-12T08:17:30.981Z</time></trkpt><trkpt lat="38.05253" lon="15.9028883"><ele>659.0</ele><time>2026-04-12T08:17:31.981Z</time></trkpt><trkpt lat="38.052585" lon="15.9028233"><ele>659.0</ele><time>2026-04-12T08:17:32.982Z</time></trkpt><trkpt lat="38.0526417" lon="15.902775"><ele>659.0</ele><time>2026-04-12T08:17:33.981Z</time></trkpt><trkpt lat="38.0527067" lon="15.9027483"><ele>659.0</ele><time>2026-04-12T08:17:34.981Z</time></trkpt><trkpt lat="38.052775" lon="15.9027483"><ele>659.0</ele><time>2026-04-12T08:17:35.981Z</time></trkpt><trkpt lat="38.0528633" lon="15.9027617"><ele>659.0</ele><time>2026-04-12T08:17:36.981Z</time></trkpt><trkpt lat="38.0529533" lon="15.90278"><ele>659.0</ele><time>2026-04-12T08:17:37.981Z</time></trkpt><trkpt lat="38.053055" lon="15.9027817"><ele>659.0</ele><time>2026-04-12T08:17:38.981Z</time></trkpt><trkpt lat="38.053155" lon="15.9027917"><ele>659.0</ele><time>2026-04-12T08:17:39.981Z</time></trkpt><trkpt lat="38.0532467" lon="15.9028017"><ele>659.0</ele><time>2026-04-12T08:17:40.981Z</time></trkpt><trkpt lat="38.0533283" lon="15.9028017"><ele>659.0</ele><time>2026-04-12T08:17:41.981Z</time></trkpt><trkpt lat="38.0534383" lon="15.9028"><ele>659.0</ele><time>2026-04-12T08:17:43.981Z</time></trkpt><trkpt lat="38.0535217" lon="15.9027833"><ele>659.5</ele><time>2026-04-12T08:17:45.981Z</time></trkpt><trkpt lat="38.0535833" lon="15.90276"><ele>660.0</ele><time>2026-04-12T08:17:47.982Z</time></trkpt><trkpt lat="38.0536633" lon="15.9027367"><ele>660.5</ele><time>2026-04-12T08:17:50.982Z</time></trkpt><trkpt lat="38.0537317" lon="15.9027233"><ele>661.0</ele><time>2026-04-12T08:17:52.981Z</time></trkpt><trkpt lat="38.0538217" lon="15.902685"><ele>661.5</ele><time>2026-04-12T08:17:54.982Z</time></trkpt><trkpt lat="38.053935" lon="15.9026167"><ele>662.0</ele><time>2026-04-12T08:17:56.981Z</time></trkpt><trkpt lat="38.0539983" lon="15.90256"><ele>662.0</ele><time>2026-04-12T08:17:57.981Z</time></trkpt><trkpt lat="38.054065" lon="15.9024883"><ele>662.0</ele><time>2026-04-12T08:17:58.982Z</time></trkpt><trkpt lat="38.0541367" lon="15.902405"><ele>662.0</ele><time>2026-04-12T08:17:59.981Z</time></trkpt><trkpt lat="38.0542117" lon="15.90231"><ele>662.0</ele><time>2026-04-12T08:18:00.982Z</time></trkpt><trkpt lat="38.0542933" lon="15.9022083"><ele>662.0</ele><time>2026-04-12T08:18:01.981Z</time></trkpt><trkpt lat="38.0543767" lon="15.90211"><ele>663.2</ele><time>2026-04-12T08:18:02.982Z</time></trkpt><trkpt lat="38.05446" lon="15.9020183"><ele>664.4000000000001</ele><time>2026-04-12T08:18:03.981Z</time></trkpt><trkpt lat="38.054535" lon="15.9019333"><ele>665.5999999999999</ele><time>2026-04-12T08:18:04.981Z</time></trkpt><trkpt lat="38.0546083" lon="15.9018467"><ele>666.8</ele><time>2026-04-12T08:18:05.981Z</time></trkpt><trkpt lat="38.0546733" lon="15.9017633"><ele>668.0</ele><time>2026-04-12T08:18:06.981Z</time></trkpt><trkpt lat="38.05474" lon="15.9016717"><ele>668.0</ele><time>2026-04-12T08:18:07.981Z</time></trkpt><trkpt lat="38.0548033" lon="15.9015717"><ele>668.0</ele><time>2026-04-12T08:18:08.981Z</time></trkpt><trkpt lat="38.054855" lon="15.9014567"><ele>668.0</ele><time>2026-04-12T08:18:09.981Z</time></trkpt><trkpt lat="38.054905" lon="15.9013383"><ele>668.0</ele><time>2026-04-12T08:18:10.981Z</time></trkpt><trkpt lat="38.054945" lon="15.9012217"><ele>668.0</ele><time>2026-04-12T08:18:11.981Z</time></trkpt><trkpt lat="38.0549783" lon="15.9011133"><ele>665.5</ele><time>2026-04-12T08:18:12.981Z</time></trkpt><trkpt lat="38.0550117" lon="15.9010133"><ele>663.0</ele><time>2026-04-12T08:18:13.981Z</time></trkpt><trkpt lat="38.05504" lon="15.900925"><ele>660.5</ele><time>2026-04-12T08:18:14.981Z</time></trkpt><trkpt lat="38.0550817" lon="15.900865"><ele>658.0</ele><time>2026-04-12T08:18:15.981Z</time></trkpt><trkpt lat="38.0551833" lon="15.900805"><ele>655.5</ele><time>2026-04-12T08:18:17.982Z</time></trkpt><trkpt lat="38.055275" lon="15.900875"><ele>653.0</ele><time>2026-04-12T08:18:19.981Z</time></trkpt><trkpt lat="38.05531" lon="15.901005"><ele>650.4</ele><time>2026-04-12T08:18:21.981Z</time></trkpt><trkpt lat="38.0552733" lon="15.90117"><ele>647.8</ele><time>2026-04-12T08:18:23.981Z</time></trkpt><trkpt lat="38.055235" lon="15.901265"><ele>645.2</ele><time>2026-04-12T08:18:24.981Z</time></trkpt><trkpt lat="38.0551833" lon="15.901365"><ele>642.6</ele><time>2026-04-12T08:18:25.981Z</time></trkpt><trkpt lat="38.0551317" lon="15.901465"><ele>640.0</ele><time>2026-04-12T08:18:26.981Z</time></trkpt><trkpt lat="38.05508" lon="15.90156"><ele>640.0</ele><time>2026-04-12T08:18:27.981Z</time></trkpt><trkpt lat="38.0550183" lon="15.901655"><ele>640.0</ele><time>2026-04-12T08:18:28.981Z</time></trkpt><trkpt lat="38.0549617" lon="15.9017567"><ele>640.0</ele><time>2026-04-12T08:18:29.981Z</time></trkpt><trkpt lat="38.0549067" lon="15.901865"><ele>640.0</ele><time>2026-04-12T08:18:30.981Z</time></trkpt><trkpt lat="38.0548567" lon="15.9019717"><ele>640.0</ele><time>2026-04-12T08:18:31.981Z</time></trkpt><trkpt lat="38.0548033" lon="15.9020817"><ele>639.0</ele><time>2026-04-12T08:18:32.981Z</time></trkpt><trkpt lat="38.0547517" lon="15.9021783"><ele>638.0</ele><time>2026-04-12T08:18:33.981Z</time></trkpt><trkpt lat="38.054695" lon="15.9022783"><ele>637.0</ele><time>2026-04-12T08:18:34.981Z</time></trkpt><trkpt lat="38.05464" lon="15.9023783"><ele>636.0</ele><time>2026-04-12T08:18:35.982Z</time></trkpt><trkpt lat="38.05461" lon="15.9024767"><ele>635.0</ele><time>2026-04-12T08:18:36.981Z</time></trkpt><trkpt lat="38.0545917" lon="15.9025867"><ele>635.0</ele><time>2026-04-12T08:18:37.981Z</time></trkpt><trkpt lat="38.0545883" lon="15.9027083"><ele>635.0</ele><time>2026-04-12T08:18:38.981Z</time></trkpt><trkpt lat="38.0545933" lon="15.9028267"><ele>635.0</ele><time>2026-04-12T08:18:39.981Z</time></trkpt><trkpt lat="38.054605" lon="15.90292"><ele>635.0</ele><time>2026-04-12T08:18:40.981Z</time></trkpt><trkpt lat="38.05462" lon="15.9030017"><ele>635.0</ele><time>2026-04-12T08:18:41.981Z</time></trkpt><trkpt lat="38.05467" lon="15.90313"><ele>635.0</ele><time>2026-04-12T08:18:43.981Z</time></trkpt><trkpt lat="38.0547533" lon="15.9031517"><ele>635.0</ele><time>2026-04-12T08:18:45.981Z</time></trkpt><trkpt lat="38.0547983" lon="15.903095"><ele>635.0</ele><time>2026-04-12T08:18:46.981Z</time></trkpt><trkpt lat="38.0548233" lon="15.9029967"><ele>635.0</ele><time>2026-04-12T08:18:47.982Z</time></trkpt><trkpt lat="38.0548317" lon="15.9028833"><ele>635.0</ele><time>2026-04-12T08:18:48.981Z</time></trkpt><trkpt lat="38.0548333" lon="15.90276"><ele>635.0</ele><time>2026-04-12T08:18:49.982Z</time></trkpt><trkpt lat="38.054825" lon="15.9026517"><ele>635.0</ele><time>2026-04-12T08:18:50.982Z</time></trkpt><trkpt lat="38.0548183" lon="15.9025433"><ele>633.5</ele><time>2026-04-12T08:18:51.981Z</time></trkpt><trkpt lat="38.0548267" lon="15.9024533"><ele>632.0</ele><time>2026-04-12T08:18:52.981Z</time></trkpt><trkpt lat="38.0548417" lon="15.9023683"><ele>630.5</ele><time>2026-04-12T08:18:53.981Z</time></trkpt><trkpt lat="38.0548667" lon="15.9022933"><ele>629.0</ele><time>2026-04-12T08:18:54.981Z</time></trkpt><trkpt lat="38.05493" lon="15.9022017"><ele>627.5</ele><time>2026-04-12T08:18:56.981Z</time></trkpt><trkpt lat="38.055045" lon="15.9022067"><ele>626.0</ele><time>2026-04-12T08:18:59.981Z</time></trkpt><trkpt lat="38.0550883" lon="15.902345"><ele>626.0</ele><time>2026-04-12T08:19:01.981Z</time></trkpt><trkpt lat="38.0550867" lon="15.9024533"><ele>626.0</ele><time>2026-04-12T08:19:02.981Z</time></trkpt><trkpt lat="38.0550767" lon="15.90258"><ele>626.0</ele><time>2026-04-12T08:19:03.982Z</time></trkpt><trkpt lat="38.0550683" lon="15.9027"><ele>626.0</ele><time>2026-04-12T08:19:04.982Z</time></trkpt><trkpt lat="38.0550817" lon="15.9028067"><ele>626.0</ele><time>2026-04-12T08:19:05.982Z</time></trkpt><trkpt lat="38.0551017" lon="15.9029017"><ele>626.0</ele><time>2026-04-12T08:19:06.982Z</time></trkpt><trkpt lat="38.055135" lon="15.902975"><ele>624.6666666666666</ele><time>2026-04-12T08:19:07.982Z</time></trkpt><trkpt lat="38.0551883" lon="15.9030317"><ele>623.3333333333333</ele><time>2026-04-12T08:19:08.981Z</time></trkpt><trkpt lat="38.0552517" lon="15.903065"><ele>622.0</ele><time>2026-04-12T08:19:09.981Z</time></trkpt><trkpt lat="38.0553233" lon="15.9030933"><ele>620.6666666666666</ele><time>2026-04-12T08:19:10.982Z</time></trkpt><trkpt lat="38.0554117" lon="15.9031167"><ele>619.3333333333334</ele><time>2026-04-12T08:19:11.981Z</time></trkpt><trkpt lat="38.055505" lon="15.9031333"><ele>618.0</ele><time>2026-04-12T08:19:12.981Z</time></trkpt><trkpt lat="38.0556033" lon="15.9031583"><ele>618.0</ele><time>2026-04-12T08:19:13.981Z</time></trkpt><trkpt lat="38.0556983" lon="15.9031917"><ele>618.0</ele><time>2026-04-12T08:19:14.981Z</time></trkpt><trkpt lat="38.0557783" lon="15.9032233"><ele>618.0</ele><time>2026-04-12T08:19:15.981Z</time></trkpt><trkpt lat="38.0558533" lon="15.9032633"><ele>618.0</ele><time>2026-04-12T08:19:16.981Z</time></trkpt><trkpt lat="38.05593" lon="15.9033133"><ele>618.0</ele><time>2026-04-12T08:19:17.981Z</time></trkpt><trkpt lat="38.0560017" lon="15.903375"><ele>618.0</ele><time>2026-04-12T08:19:18.981Z</time></trkpt><trkpt lat="38.05607" lon="15.90344"><ele>614.8333333333334</ele><time>2026-04-12T08:19:19.981Z</time></trkpt><trkpt lat="38.0561417" lon="15.903495"><ele>611.6666666666666</ele><time>2026-04-12T08:19:20.981Z</time></trkpt><trkpt lat="38.056215" lon="15.903535"><ele>608.5</ele><time>2026-04-12T08:19:21.981Z</time></trkpt><trkpt lat="38.05629" lon="15.9035483"><ele>605.3333333333333</ele><time>2026-04-12T08:19:22.981Z</time></trkpt><trkpt lat="38.0563733" lon="15.9035067"><ele>602.1666666666666</ele><time>2026-04-12T08:19:23.981Z</time></trkpt><trkpt lat="38.0564583" lon="15.9034483"><ele>599.0</ele><time>2026-04-12T08:19:24.981Z</time></trkpt><trkpt lat="38.056535" lon="15.9034"><ele>599.0</ele><time>2026-04-12T08:19:25.981Z</time></trkpt><trkpt lat="38.0566183" lon="15.9033783"><ele>599.0</ele><time>2026-04-12T08:19:26.981Z</time></trkpt><trkpt lat="38.0567" lon="15.90338"><ele>599.0</ele><time>2026-04-12T08:19:27.982Z</time></trkpt><trkpt lat="38.0567917" lon="15.9034117"><ele>599.0</ele><time>2026-04-12T08:19:28.981Z</time></trkpt><trkpt lat="38.0568733" lon="15.9034533"><ele>599.0</ele><time>2026-04-12T08:19:29.981Z</time></trkpt><trkpt lat="38.0569483" lon="15.9035117"><ele>599.0</ele><time>2026-04-12T08:19:30.981Z</time></trkpt><trkpt lat="38.05703" lon="15.9035933"><ele>591.4</ele><time>2026-04-12T08:19:31.981Z</time></trkpt><trkpt lat="38.0571083" lon="15.90368"><ele>583.8</ele><time>2026-04-12T08:19:32.981Z</time></trkpt><trkpt lat="38.0571817" lon="15.9037767"><ele>576.2</ele><time>2026-04-12T08:19:33.981Z</time></trkpt><trkpt lat="38.0572467" lon="15.903865"><ele>568.6</ele><time>2026-04-12T08:19:34.981Z</time></trkpt><trkpt lat="38.057305" lon="15.903945"><ele>561.0</ele><time>2026-04-12T08:19:35.981Z</time></trkpt><trkpt lat="38.0573533" lon="15.9040133"><ele>561.0</ele><time>2026-04-12T08:19:36.982Z</time></trkpt><trkpt lat="38.05742" lon="15.9041117"><ele>561.0</ele><time>2026-04-12T08:19:38.981Z</time></trkpt><trkpt lat="38.0574467" lon="15.9042083"><ele>561.0</ele><time>2026-04-12T08:19:41.982Z</time></trkpt><trkpt lat="38.0573933" lon="15.9042817"><ele>561.0</ele><time>2026-04-12T08:19:44.981Z</time></trkpt><trkpt lat="38.0573133" lon="15.9042533"><ele>561.0</ele><time>2026-04-12T08:19:46.982Z</time></trkpt><trkpt lat="38.057255" lon="15.9041983"><ele>561.0</ele><time>2026-04-12T08:19:47.982Z</time></trkpt><trkpt lat="38.0571833" lon="15.9041233"><ele>561.0</ele><time>2026-04-12T08:19:48.981Z</time></trkpt><trkpt lat="38.0571067" lon="15.904045"><ele>561.0</ele><time>2026-04-12T08:19:49.982Z</time></trkpt><trkpt lat="38.05704" lon="15.9039633"><ele>561.0</ele><time>2026-04-12T08:19:50.981Z</time></trkpt><trkpt lat="38.05698" lon="15.9038983"><ele>561.0</ele><time>2026-04-12T08:19:51.982Z</time></trkpt><trkpt lat="38.0568983" lon="15.9038317"><ele>561.0</ele><time>2026-04-12T08:19:52.981Z</time></trkpt><trkpt lat="38.0568217" lon="15.9037767"><ele>561.0</ele><time>2026-04-12T08:19:53.981Z</time></trkpt><trkpt lat="38.0567567" lon="15.9037417"><ele>561.0</ele><time>2026-04-12T08:19:54.981Z</time></trkpt><trkpt lat="38.0566917" lon="15.9037217"><ele>561.0</ele><time>2026-04-12T08:19:55.981Z</time></trkpt><trkpt lat="38.0565717" lon="15.9037317"><ele>561.0</ele><time>2026-04-12T08:19:57.981Z</time></trkpt><trkpt lat="38.0564733" lon="15.9038233"><ele>561.0</ele><time>2026-04-12T08:19:59.981Z</time></trkpt><trkpt lat="38.0564283" lon="15.9038817"><ele>561.0</ele><time>2026-04-12T08:20:00.981Z</time></trkpt><trkpt lat="38.0563783" lon="15.9039367"><ele>561.0</ele><time>2026-04-12T08:20:01.981Z</time></trkpt><trkpt lat="38.0563033" lon="15.9040017"><ele>561.0</ele><time>2026-04-12T08:20:03.981Z</time></trkpt><trkpt lat="38.0562817" lon="15.904085"><ele>561.0</ele><time>2026-04-12T08:20:05.981Z</time></trkpt><trkpt lat="38.0563183" lon="15.9041517"><ele>561.0</ele><time>2026-04-12T08:20:07.981Z</time></trkpt><trkpt lat="38.056395" lon="15.90418"><ele>561.0</ele><time>2026-04-12T08:20:10.981Z</time></trkpt><trkpt lat="38.0565067" lon="15.9040717"><ele>561.0</ele><time>2026-04-12T08:21:20.982Z</time></trkpt><trkpt lat="38.0565617" lon="15.9039733"><ele>561.0</ele><time>2026-04-12T08:21:22.981Z</time></trkpt><trkpt lat="38.0566417" lon="15.9039217"><ele>561.0</ele><time>2026-04-12T08:21:24.981Z</time></trkpt><trkpt lat="38.056735" lon="15.9039667"><ele>561.0</ele><time>2026-04-12T08:21:26.981Z</time></trkpt><trkpt lat="38.0568233" lon="15.90408"><ele>561.0</ele><time>2026-04-12T08:21:28.981Z</time></trkpt><trkpt lat="38.056865" lon="15.9041567"><ele>561.0</ele><time>2026-04-12T08:21:29.982Z</time></trkpt><trkpt lat="38.0569183" lon="15.9042417"><ele>553.8333333333334</ele><time>2026-04-12T08:21:30.982Z</time></trkpt><trkpt lat="38.05698" lon="15.9043267"><ele>546.6666666666666</ele><time>2026-04-12T08:21:31.981Z</time></trkpt><trkpt lat="38.0570417" lon="15.9044083"><ele>539.5</ele><time>2026-04-12T08:21:32.981Z</time></trkpt><trkpt lat="38.0571033" lon="15.904485"><ele>532.3333333333333</ele><time>2026-04-12T08:21:33.981Z</time></trkpt><trkpt lat="38.0571633" lon="15.9045583"><ele>525.1666666666666</ele><time>2026-04-12T08:21:34.981Z</time></trkpt><trkpt lat="38.0572133" lon="15.9046417"><ele>518.0</ele><time>2026-04-12T08:21:35.981Z</time></trkpt><trkpt lat="38.0572533" lon="15.904745"><ele>518.0</ele><time>2026-04-12T08:21:36.981Z</time></trkpt><trkpt lat="38.0572867" lon="15.9048467"><ele>518.0</ele><time>2026-04-12T08:21:37.982Z</time></trkpt><trkpt lat="38.0573183" lon="15.9049467"><ele>518.0</ele><time>2026-04-12T08:21:38.982Z</time></trkpt><trkpt lat="38.0573617" lon="15.9050433"><ele>518.0</ele><time>2026-04-12T08:21:39.981Z</time></trkpt><trkpt lat="38.0574033" lon="15.90513"><ele>518.0</ele><time>2026-04-12T08:21:40.981Z</time></trkpt><trkpt lat="38.05744" lon="15.905205"><ele>518.0</ele><time>2026-04-12T08:21:41.982Z</time></trkpt><trkpt lat="38.0574783" lon="15.90527"><ele>519.5</ele><time>2026-04-12T08:21:42.981Z</time></trkpt><trkpt lat="38.0575433" lon="15.9053767"><ele>521.0</ele><time>2026-04-12T08:21:44.982Z</time></trkpt><trkpt lat="38.0575633" lon="15.9054683"><ele>522.5</ele><time>2026-04-12T08:21:46.981Z</time></trkpt><trkpt lat="38.0574967" lon="15.9055233"><ele>524.0</ele><time>2026-04-12T08:21:49.982Z</time></trkpt><trkpt lat="38.0574217" lon="15.90545"><ele>525.5</ele><time>2026-04-12T08:21:51.981Z</time></trkpt><trkpt lat="38.0573733" lon="15.9053783"><ele>527.0</ele><time>2026-04-12T08:21:52.981Z</time></trkpt><trkpt lat="38.05732" lon="15.9052967"><ele>525.5</ele><time>2026-04-12T08:21:53.981Z</time></trkpt><trkpt lat="38.0572667" lon="15.9052083"><ele>524.0</ele><time>2026-04-12T08:21:54.981Z</time></trkpt><trkpt lat="38.0572167" lon="15.9051233"><ele>522.5</ele><time>2026-04-12T08:21:55.982Z</time></trkpt><trkpt lat="38.0571633" lon="15.9050433"><ele>521.0</ele><time>2026-04-12T08:21:56.982Z</time></trkpt><trkpt lat="38.057115" lon="15.9049617"><ele>519.5</ele><time>2026-04-12T08:21:57.982Z</time></trkpt><trkpt lat="38.05707" lon="15.904895"><ele>518.0</ele><time>2026-04-12T08:21:58.981Z</time></trkpt><trkpt lat="38.057025" lon="15.904835"><ele>518.0</ele><time>2026-04-12T08:21:59.981Z</time></trkpt><trkpt lat="38.0569417" lon="15.9047333"><ele>518.0</ele><time>2026-04-12T08:22:01.981Z</time></trkpt><trkpt lat="38.0568767" lon="15.9047067"><ele>518.0</ele><time>2026-04-12T08:22:03.982Z</time></trkpt><trkpt lat="38.0568367" lon="15.9047767"><ele>518.0</ele><time>2026-04-12T08:22:05.981Z</time></trkpt><trkpt lat="38.056885" lon="15.9048767"><ele>518.0</ele><time>2026-04-12T08:22:07.981Z</time></trkpt><trkpt lat="38.0569283" lon="15.9049417"><ele>518.0</ele><time>2026-04-12T08:22:08.981Z</time></trkpt><trkpt lat="38.0569783" lon="15.905005"><ele>512.3333333333333</ele><time>2026-04-12T08:22:09.981Z</time></trkpt><trkpt lat="38.0570217" lon="15.9050883"><ele>506.66666666666663</ele><time>2026-04-12T08:22:10.981Z</time></trkpt><trkpt lat="38.0570667" lon="15.90517"><ele>501.0</ele><time>2026-04-12T08:22:11.981Z</time></trkpt><trkpt lat="38.0571083" lon="15.905255"><ele>495.33333333333337</ele><time>2026-04-12T08:22:12.981Z</time></trkpt><trkpt lat="38.057145" lon="15.90534"><ele>489.6666666666667</ele><time>2026-04-12T08:22:13.981Z</time></trkpt><trkpt lat="38.05719" lon="15.905425"><ele>484.0</ele><time>2026-04-12T08:22:14.981Z</time></trkpt><trkpt lat="38.0572333" lon="15.9054983"><ele>484.0</ele><time>2026-04-12T08:22:15.981Z</time></trkpt><trkpt lat="38.0572833" lon="15.90557"><ele>483.99999999999994</ele><time>2026-04-12T08:22:16.981Z</time></trkpt><trkpt lat="38.0573283" lon="15.9056383"><ele>484.0</ele><time>2026-04-12T08:22:17.981Z</time></trkpt><trkpt lat="38.05737" lon="15.9057133"><ele>484.0</ele><time>2026-04-12T08:22:18.982Z</time></trkpt><trkpt lat="38.0574083" lon="15.905785"><ele>483.99999999999994</ele><time>2026-04-12T08:22:19.981Z</time></trkpt><trkpt lat="38.0574367" lon="15.9058583"><ele>484.0</ele><time>2026-04-12T08:22:20.981Z</time></trkpt><trkpt lat="38.05746" lon="15.905935"><ele>484.0</ele><time>2026-04-12T08:22:21.981Z</time></trkpt><trkpt lat="38.0575033" lon="15.906085"><ele>485.4</ele><time>2026-04-12T08:22:23.981Z</time></trkpt><trkpt lat="38.0575433" lon="15.9062367"><ele>486.79999999999995</ele><time>2026-04-12T08:22:25.981Z</time></trkpt><trkpt lat="38.0575933" lon="15.906305"><ele>488.20000000000005</ele><time>2026-04-12T08:22:26.981Z</time></trkpt><trkpt lat="38.0576483" lon="15.9064283"><ele>489.6</ele><time>2026-04-12T08:22:28.981Z</time></trkpt><trkpt lat="38.0577333" lon="15.9065583"><ele>491.0</ele><time>2026-04-12T08:22:30.981Z</time></trkpt><trkpt lat="38.057795" lon="15.906605"><ele>491.0</ele><time>2026-04-12T08:22:31.981Z</time></trkpt><trkpt lat="38.0578633" lon="15.90664"><ele>490.99999999999994</ele><time>2026-04-12T08:22:32.982Z</time></trkpt><trkpt lat="38.057935" lon="15.906675"><ele>491.0</ele><time>2026-04-12T08:22:33.982Z</time></trkpt><trkpt lat="38.0580083" lon="15.906705"><ele>491.0</ele><time>2026-04-12T08:22:34.981Z</time></trkpt><trkpt lat="38.0580767" lon="15.9067333"><ele>490.99999999999994</ele><time>2026-04-12T08:22:35.982Z</time></trkpt><trkpt lat="38.05814" lon="15.906765"><ele>491.0</ele><time>2026-04-12T08:22:36.981Z</time></trkpt><trkpt lat="38.0582" lon="15.906795"><ele>491.0</ele><time>2026-04-12T08:22:37.981Z</time></trkpt><trkpt lat="38.058265" lon="15.9068267"><ele>490.71428571428567</ele><time>2026-04-12T08:22:38.981Z</time></trkpt><trkpt lat="38.0583283" lon="15.9068517"><ele>490.4285714285714</ele><time>2026-04-12T08:22:39.981Z</time></trkpt><trkpt lat="38.05839" lon="15.9068817"><ele>490.1428571428571</ele><time>2026-04-12T08:22:40.981Z</time></trkpt><trkpt lat="38.0584517" lon="15.9069117"><ele>489.8571428571429</ele><time>2026-04-12T08:22:41.982Z</time></trkpt><trkpt lat="38.05851" lon="15.9069483"><ele>489.5714285714286</ele><time>2026-04-12T08:22:42.981Z</time></trkpt><trkpt lat="38.0585717" lon="15.9069817"><ele>489.28571428571433</ele><time>2026-04-12T08:22:43.982Z</time></trkpt><trkpt lat="38.0586317" lon="15.9070183"><ele>489.0</ele><time>2026-04-12T08:22:44.981Z</time></trkpt><trkpt lat="38.0587433" lon="15.907065"><ele>489.0</ele><time>2026-04-12T08:22:46.982Z</time></trkpt><trkpt lat="38.05883" lon="15.907135"><ele>489.0</ele><time>2026-04-12T08:22:48.981Z</time></trkpt><trkpt lat="38.0588883" lon="15.907215"><ele>489.0</ele><time>2026-04-12T08:22:50.981Z</time></trkpt><trkpt lat="38.0589217" lon="15.9073083"><ele>489.0</ele><time>2026-04-12T08:22:52.981Z</time></trkpt><trkpt lat="38.0589367" lon="15.9074133"><ele>489.0</ele><time>2026-04-12T08:22:54.982Z</time></trkpt><trkpt lat="38.0589183" lon="15.9075233"><ele>489.0</ele><time>2026-04-12T08:22:57.981Z</time></trkpt><trkpt lat="38.0587967" lon="15.9075367"><ele>494.0</ele><time>2026-04-12T08:26:00.981Z</time></trkpt><trkpt lat="38.05877" lon="15.90762"><ele>499.0</ele><time>2026-04-12T08:26:31.98Z</time></trkpt><trkpt lat="38.0587467" lon="15.9077167"><ele>504.0</ele><time>2026-04-12T08:26:33.98Z</time></trkpt><trkpt lat="38.0587283" lon="15.9078417"><ele>509.0</ele><time>2026-04-12T08:26:35.98Z</time></trkpt><trkpt lat="38.0586883" lon="15.907955"><ele>514.0</ele><time>2026-04-12T08:26:37.98Z</time></trkpt><trkpt lat="38.05863" lon="15.908065"><ele>514.0</ele><time>2026-04-12T08:26:39.98Z</time></trkpt><trkpt lat="38.058525" lon="15.90813"><ele>514.0</ele><time>2026-04-12T08:26:41.98Z</time></trkpt><trkpt lat="38.0584133" lon="15.9081433"><ele>514.0</ele><time>2026-04-12T08:26:43.98Z</time></trkpt><trkpt lat="38.0583467" lon="15.9081467"><ele>514.0</ele><time>2026-04-12T08:26:44.98Z</time></trkpt><trkpt lat="38.0582817" lon="15.9081383"><ele>514.0</ele><time>2026-04-12T08:26:45.98Z</time></trkpt><trkpt lat="38.0581783" lon="15.9081017"><ele>510.1666666666667</ele><time>2026-04-12T08:26:47.981Z</time></trkpt><trkpt lat="38.0580917" lon="15.9080333"><ele>506.33333333333337</ele><time>2026-04-12T08:26:49.98Z</time></trkpt><trkpt lat="38.0580017" lon="15.9080167"><ele>502.5</ele><time>2026-04-12T08:26:51.98Z</time></trkpt><trkpt lat="38.0579183" lon="15.9080183"><ele>498.66666666666663</ele><time>2026-04-12T08:26:53.98Z</time></trkpt><trkpt lat="38.05784" lon="15.908025"><ele>494.8333333333333</ele><time>2026-04-12T08:26:55.981Z</time></trkpt><trkpt lat="38.0577583" lon="15.9080317"><ele>491.0</ele><time>2026-04-12T08:26:57.981Z</time></trkpt><trkpt lat="38.057665" lon="15.9080733"><ele>490.99999999999994</ele><time>2026-04-12T08:26:59.98Z</time></trkpt><trkpt lat="38.057585" lon="15.908115"><ele>491.0</ele><time>2026-04-12T08:27:01.98Z</time></trkpt><trkpt lat="38.0575383" lon="15.9081817"><ele>491.0</ele><time>2026-04-12T08:27:03.98Z</time></trkpt><trkpt lat="38.0575117" lon="15.9082767"><ele>491.0</ele><time>2026-04-12T08:27:05.98Z</time></trkpt><trkpt lat="38.057465" lon="15.9083717"><ele>490.99999999999994</ele><time>2026-04-12T08:27:07.98Z</time></trkpt><trkpt lat="38.05741" lon="15.9084733"><ele>491.0</ele><time>2026-04-12T08:27:09.981Z</time></trkpt><trkpt lat="38.057355" lon="15.908595"><ele>488.16666666666663</ele><time>2026-04-12T08:27:11.98Z</time></trkpt><trkpt lat="38.0573017" lon="15.9087217"><ele>485.3333333333333</ele><time>2026-04-12T08:27:13.98Z</time></trkpt><trkpt lat="38.0572817" lon="15.9087983"><ele>482.5</ele><time>2026-04-12T08:27:14.98Z</time></trkpt><trkpt lat="38.0572517" lon="15.9088733"><ele>479.66666666666663</ele><time>2026-04-12T08:27:15.981Z</time></trkpt><trkpt lat="38.0572183" lon="15.90895"><ele>476.8333333333333</ele><time>2026-04-12T08:27:16.98Z</time></trkpt><trkpt lat="38.0571867" lon="15.909025"><ele>474.0</ele><time>2026-04-12T08:27:17.98Z</time></trkpt><trkpt lat="38.0571567" lon="15.9091083"><ele>474.0</ele><time>2026-04-12T08:27:18.98Z</time></trkpt><trkpt lat="38.0571217" lon="15.9091967"><ele>474.0</ele><time>2026-04-12T08:27:19.98Z</time></trkpt><trkpt lat="38.057105" lon="15.9093067"><ele>474.0</ele><time>2026-04-12T08:27:20.981Z</time></trkpt><trkpt lat="38.057085" lon="15.9094017"><ele>474.0</ele><time>2026-04-12T08:27:21.981Z</time></trkpt><trkpt lat="38.0570733" lon="15.9094983"><ele>474.0</ele><time>2026-04-12T08:27:22.98Z</time></trkpt><trkpt lat="38.0570717" lon="15.9095967"><ele>474.0</ele><time>2026-04-12T08:27:23.98Z</time></trkpt><trkpt lat="38.0570667" lon="15.9096917"><ele>473.8571428571428</ele><time>2026-04-12T08:27:24.98Z</time></trkpt><trkpt lat="38.0570633" lon="15.909785"><ele>473.71428571428567</ele><time>2026-04-12T08:27:25.981Z</time></trkpt><trkpt lat="38.0570567" lon="15.909865"><ele>473.57142857142856</ele><time>2026-04-12T08:27:26.98Z</time></trkpt><trkpt lat="38.0570517" lon="15.9099867"><ele>473.4285714285714</ele><time>2026-04-12T08:27:28.98Z</time></trkpt><trkpt lat="38.0570633" lon="15.9100667"><ele>473.2857142857142</ele><time>2026-04-12T08:27:30.981Z</time></trkpt><trkpt lat="38.0570783" lon="15.910145"><ele>473.14285714285717</ele><time>2026-04-12T08:27:33.98Z</time></trkpt><trkpt lat="38.0571033" lon="15.9102333"><ele>473.0</ele><time>2026-04-12T08:27:35.98Z</time></trkpt><trkpt lat="38.0571317" lon="15.9103233"><ele>471.99999999999994</ele><time>2026-04-12T08:27:37.98Z</time></trkpt><trkpt lat="38.057165" lon="15.9103933"><ele>471.0</ele><time>2026-04-12T08:27:39.98Z</time></trkpt><trkpt lat="38.0572267" lon="15.9104883"><ele>470.0</ele><time>2026-04-12T08:27:41.98Z</time></trkpt><trkpt lat="38.0572917" lon="15.91062"><ele>469.0</ele><time>2026-04-12T08:27:43.98Z</time></trkpt><trkpt lat="38.0573283" lon="15.91069"><ele>467.99999999999994</ele><time>2026-04-12T08:27:44.981Z</time></trkpt><trkpt lat="38.0573717" lon="15.910765"><ele>467.0</ele><time>2026-04-12T08:27:45.98Z</time></trkpt><trkpt lat="38.0574167" lon="15.9108383"><ele>473.8333333333333</ele><time>2026-04-12T08:27:46.98Z</time></trkpt><trkpt lat="38.057465" lon="15.9109067"><ele>480.66666666666663</ele><time>2026-04-12T08:27:47.98Z</time></trkpt><trkpt lat="38.0575117" lon="15.91098"><ele>487.5</ele><time>2026-04-12T08:27:48.98Z</time></trkpt><trkpt lat="38.0575567" lon="15.91105"><ele>494.33333333333337</ele><time>2026-04-12T08:27:49.98Z</time></trkpt><trkpt lat="38.0575967" lon="15.9111267"><ele>501.1666666666667</ele><time>2026-04-12T08:27:50.98Z</time></trkpt><trkpt lat="38.0576217" lon="15.911205"><ele>508.0</ele><time>2026-04-12T08:27:51.98Z</time></trkpt><trkpt lat="38.0576333" lon="15.9113667"><ele>508.0</ele><time>2026-04-12T08:27:53.98Z</time></trkpt><trkpt lat="38.057625" lon="15.9114467"><ele>508.0</ele><time>2026-04-12T08:27:54.98Z</time></trkpt><trkpt lat="38.0576167" lon="15.9115283"><ele>508.0</ele><time>2026-04-12T08:27:55.981Z</time></trkpt><trkpt lat="38.0575883" lon="15.9116067"><ele>508.0</ele><time>2026-04-12T08:27:56.981Z</time></trkpt><trkpt lat="38.0575617" lon="15.9116867"><ele>508.0</ele><time>2026-04-12T08:27:57.981Z</time></trkpt><trkpt lat="38.0575133" lon="15.911755"><ele>508.0</ele><time>2026-04-12T08:27:58.981Z</time></trkpt><trkpt lat="38.0574567" lon="15.9118283"><ele>508.0</ele><time>2026-04-12T08:27:59.981Z</time></trkpt><trkpt lat="38.0573967" lon="15.91188"><ele>502.1666666666667</ele><time>2026-04-12T08:28:00.98Z</time></trkpt><trkpt lat="38.0573333" lon="15.9119517"><ele>496.33333333333337</ele><time>2026-04-12T08:28:01.98Z</time></trkpt><trkpt lat="38.05727" lon="15.912035"><ele>490.5</ele><time>2026-04-12T08:28:02.98Z</time></trkpt><trkpt lat="38.057215" lon="15.912125"><ele>484.66666666666663</ele><time>2026-04-12T08:28:03.981Z</time></trkpt><trkpt lat="38.0571717" lon="15.9122133"><ele>478.8333333333333</ele><time>2026-04-12T08:28:04.98Z</time></trkpt><trkpt lat="38.057145" lon="15.9123033"><ele>473.0</ele><time>2026-04-12T08:28:05.98Z</time></trkpt><trkpt lat="38.0571267" lon="15.9123967"><ele>472.99999999999994</ele><time>2026-04-12T08:28:06.98Z</time></trkpt><trkpt lat="38.0571183" lon="15.9124833"><ele>473.0</ele><time>2026-04-12T08:28:07.98Z</time></trkpt><trkpt lat="38.0571217" lon="15.91258"><ele>473.0</ele><time>2026-04-12T08:28:08.98Z</time></trkpt><trkpt lat="38.0571433" lon="15.9126767"><ele>473.0</ele><time>2026-04-12T08:28:09.981Z</time></trkpt><trkpt lat="38.057175" lon="15.9127717"><ele>472.99999999999994</ele><time>2026-04-12T08:28:10.98Z</time></trkpt><trkpt lat="38.0572133" lon="15.9128583"><ele>473.0</ele><time>2026-04-12T08:28:11.98Z</time></trkpt><trkpt lat="38.0572633" lon="15.9129417"><ele>475.8333333333333</ele><time>2026-04-12T08:28:12.98Z</time></trkpt><trkpt lat="38.0573133" lon="15.9130233"><ele>478.66666666666663</ele><time>2026-04-12T08:28:13.98Z</time></trkpt><trkpt lat="38.0573683" lon="15.9131083"><ele>481.5</ele><time>2026-04-12T08:28:14.98Z</time></trkpt><trkpt lat="38.057415" lon="15.9131967"><ele>484.33333333333337</ele><time>2026-04-12T08:28:15.98Z</time></trkpt><trkpt lat="38.0574517" lon="15.9132983"><ele>487.1666666666667</ele><time>2026-04-12T08:28:16.981Z</time></trkpt><trkpt lat="38.0574817" lon="15.9133917"><ele>490.0</ele><time>2026-04-12T08:28:17.98Z</time></trkpt><trkpt lat="38.0575117" lon="15.9134783"><ele>498.00000000000006</ele><time>2026-04-12T08:28:18.98Z</time></trkpt><trkpt lat="38.0575417" lon="15.9135567"><ele>506.0</ele><time>2026-04-12T08:28:19.981Z</time></trkpt><trkpt lat="38.0575683" lon="15.913635"><ele>514.0</ele><time>2026-04-12T08:28:20.981Z</time></trkpt><trkpt lat="38.0575917" lon="15.913715"><ele>522.0</ele><time>2026-04-12T08:28:21.98Z</time></trkpt><trkpt lat="38.0576217" lon="15.913855"><ele>530.0</ele><time>2026-04-12T08:28:23.98Z</time></trkpt><trkpt lat="38.0575933" lon="15.9139617"><ele>538.0</ele><time>2026-04-12T08:28:25.981Z</time></trkpt><trkpt lat="38.0575317" lon="15.9140567"><ele>535.6</ele><time>2026-04-12T08:28:27.981Z</time></trkpt><trkpt lat="38.0574317" lon="15.9141167"><ele>533.1999999999999</ele><time>2026-04-12T08:28:29.98Z</time></trkpt><trkpt lat="38.057325" lon="15.9141083"><ele>530.8</ele><time>2026-04-12T08:28:31.98Z</time></trkpt><trkpt lat="38.0572017" lon="15.9140583"><ele>528.4</ele><time>2026-04-12T08:28:33.98Z</time></trkpt><trkpt lat="38.0571217" lon="15.9140117"><ele>526.0</ele><time>2026-04-12T08:28:34.98Z</time></trkpt><trkpt lat="38.0570383" lon="15.9139533"><ele>526.0</ele><time>2026-04-12T08:28:35.98Z</time></trkpt><trkpt lat="38.0569567" lon="15.913885"><ele>526.0</ele><time>2026-04-12T08:28:36.981Z</time></trkpt><trkpt lat="38.0568833" lon="15.91382"><ele>526.0</ele><time>2026-04-12T08:28:37.98Z</time></trkpt><trkpt lat="38.0568133" lon="15.9137633"><ele>526.0</ele><time>2026-04-12T08:28:38.98Z</time></trkpt><trkpt lat="38.0567533" lon="15.9137333"><ele>526.0</ele><time>2026-04-12T08:28:39.98Z</time></trkpt><trkpt lat="38.056645" lon="15.9137517"><ele>526.0</ele><time>2026-04-12T08:28:41.981Z</time></trkpt><trkpt lat="38.056545" lon="15.913835"><ele>522.1666666666667</ele><time>2026-04-12T08:28:43.98Z</time></trkpt><trkpt lat="38.0565067" lon="15.9139017"><ele>518.3333333333334</ele><time>2026-04-12T08:28:44.98Z</time></trkpt><trkpt lat="38.0564567" lon="15.913975"><ele>514.5</ele><time>2026-04-12T08:28:45.98Z</time></trkpt><trkpt lat="38.0564067" lon="15.9140517"><ele>510.66666666666663</ele><time>2026-04-12T08:28:46.98Z</time></trkpt><trkpt lat="38.056355" lon="15.9141417"><ele>506.8333333333333</ele><time>2026-04-12T08:28:47.98Z</time></trkpt><trkpt lat="38.0563117" lon="15.91424"><ele>503.0</ele><time>2026-04-12T08:28:48.98Z</time></trkpt><trkpt lat="38.056275" lon="15.914325"><ele>510.8333333333333</ele><time>2026-04-12T08:28:49.98Z</time></trkpt><trkpt lat="38.0562367" lon="15.9144183"><ele>518.6666666666666</ele><time>2026-04-12T08:28:50.981Z</time></trkpt><trkpt lat="38.0561933" lon="15.9145083"><ele>526.5</ele><time>2026-04-12T08:28:51.98Z</time></trkpt><trkpt lat="38.0561567" lon="15.9145817"><ele>534.3333333333334</ele><time>2026-04-12T08:28:52.98Z</time></trkpt><trkpt lat="38.0561233" lon="15.9146567"><ele>542.1666666666667</ele><time>2026-04-12T08:28:53.981Z</time></trkpt><trkpt lat="38.0560833" lon="15.9147233"><ele>550.0</ele><time>2026-04-12T08:28:54.98Z</time></trkpt><trkpt lat="38.0559883" lon="15.9148133"><ele>550.0</ele><time>2026-04-12T08:28:56.98Z</time></trkpt><trkpt lat="38.0558917" lon="15.91481"><ele>550.0</ele><time>2026-04-12T08:28:58.98Z</time></trkpt><trkpt lat="38.0558317" lon="15.9147833"><ele>550.0</ele><time>2026-04-12T08:28:59.98Z</time></trkpt><trkpt lat="38.0557633" lon="15.9147517"><ele>550.0</ele><time>2026-04-12T08:29:00.98Z</time></trkpt><trkpt lat="38.055695" lon="15.9147217"><ele>550.0</ele><time>2026-04-12T08:29:01.981Z</time></trkpt><trkpt lat="38.0556267" lon="15.9147083"><ele>550.0</ele><time>2026-04-12T08:29:02.98Z</time></trkpt><trkpt lat="38.055515" lon="15.9147317"><ele>551.4</ele><time>2026-04-12T08:29:04.981Z</time></trkpt><trkpt lat="38.0554167" lon="15.9148383"><ele>552.8</ele><time>2026-04-12T08:29:06.98Z</time></trkpt><trkpt lat="38.0553717" lon="15.91491"><ele>554.2</ele><time>2026-04-12T08:29:07.98Z</time></trkpt><trkpt lat="38.0553283" lon="15.91498"><ele>555.6</ele><time>2026-04-12T08:29:08.981Z</time></trkpt><trkpt lat="38.05525" lon="15.9150733"><ele>557.0</ele><time>2026-04-12T08:29:10.98Z</time></trkpt><trkpt lat="38.0551717" lon="15.915155"><ele>557.0</ele><time>2026-04-12T08:29:12.98Z</time></trkpt><trkpt lat="38.0551083" lon="15.91527"><ele>557.0</ele><time>2026-04-12T08:29:14.98Z</time></trkpt><trkpt lat="38.0550567" lon="15.915385"><ele>557.0</ele><time>2026-04-12T08:29:16.98Z</time></trkpt><trkpt lat="38.055015" lon="15.915495"><ele>557.0</ele><time>2026-04-12T08:29:18.98Z</time></trkpt><trkpt lat="38.0549767" lon="15.9155933"><ele>557.0</ele><time>2026-04-12T08:29:20.981Z</time></trkpt><trkpt lat="38.05492" lon="15.9156817"><ele>558.0</ele><time>2026-04-12T08:29:22.981Z</time></trkpt><trkpt lat="38.0548533" lon="15.915765"><ele>559.0</ele><time>2026-04-12T08:29:24.98Z</time></trkpt><trkpt lat="38.0548" lon="15.9158517"><ele>560.0</ele><time>2026-04-12T08:29:26.981Z</time></trkpt><trkpt lat="38.0547717" lon="15.9159433"><ele>561.0</ele><time>2026-04-12T08:29:28.98Z</time></trkpt><trkpt lat="38.054745" lon="15.9160317"><ele>562.0</ele><time>2026-04-12T08:29:30.981Z</time></trkpt><trkpt lat="38.0547183" lon="15.9161167"><ele>563.0</ele><time>2026-04-12T08:29:32.98Z</time></trkpt><trkpt lat="38.0546733" lon="15.9161867"><ele>563.0</ele><time>2026-04-12T08:29:34.981Z</time></trkpt><trkpt lat="38.0546033" lon="15.91619"><ele>563.0</ele><time>2026-04-12T08:29:37.98Z</time></trkpt><trkpt lat="38.0545217" lon="15.9161867"><ele>563.0</ele><time>2026-04-12T08:29:39.98Z</time></trkpt><trkpt lat="38.0544283" lon="15.9161817"><ele>563.0</ele><time>2026-04-12T08:29:41.98Z</time></trkpt><trkpt lat="38.0543083" lon="15.9161633"><ele>563.0</ele><time>2026-04-12T08:29:43.98Z</time></trkpt><trkpt lat="38.0542517" lon="15.9161283"><ele>563.0</ele><time>2026-04-12T08:29:44.98Z</time></trkpt><trkpt lat="38.054125" lon="15.9160733"><ele>556.6666666666666</ele><time>2026-04-12T08:29:46.981Z</time></trkpt><trkpt lat="38.0540533" lon="15.9160517"><ele>550.3333333333333</ele><time>2026-04-12T08:29:47.98Z</time></trkpt><trkpt lat="38.0539733" lon="15.9160367"><ele>544.0</ele><time>2026-04-12T08:29:48.98Z</time></trkpt><trkpt lat="38.0538833" lon="15.9160267"><ele>537.6666666666666</ele><time>2026-04-12T08:29:49.98Z</time></trkpt><trkpt lat="38.0538083" lon="15.9160083"><ele>531.3333333333334</ele><time>2026-04-12T08:29:50.98Z</time></trkpt><trkpt lat="38.0536933" lon="15.9159617"><ele>525.0</ele><time>2026-04-12T08:29:52.98Z</time></trkpt><trkpt lat="38.053585" lon="15.915955"><ele>525.0</ele><time>2026-04-12T08:29:54.981Z</time></trkpt><trkpt lat="38.053515" lon="15.9160117"><ele>525.0</ele><time>2026-04-12T08:29:56.98Z</time></trkpt><trkpt lat="38.0534717" lon="15.9160983"><ele>525.0</ele><time>2026-04-12T08:29:58.98Z</time></trkpt><trkpt lat="38.0534617" lon="15.9161833"><ele>525.0</ele><time>2026-04-12T08:30:01.98Z</time></trkpt><trkpt lat="38.053495" lon="15.9163617"><ele>525.0</ele><time>2026-04-12T08:31:21.98Z</time></trkpt><trkpt lat="38.0535433" lon="15.9165033"><ele>525.0</ele><time>2026-04-12T08:31:23.98Z</time></trkpt><trkpt lat="38.053545" lon="15.916585"><ele>525.0</ele><time>2026-04-12T08:31:24.981Z</time></trkpt><trkpt lat="38.0535767" lon="15.9166583"><ele>525.0</ele><time>2026-04-12T08:31:25.98Z</time></trkpt><trkpt lat="38.05361" lon="15.916735"><ele>525.0</ele><time>2026-04-12T08:31:26.98Z</time></trkpt><trkpt lat="38.0536517" lon="15.916815"><ele>525.0</ele><time>2026-04-12T08:31:27.98Z</time></trkpt><trkpt lat="38.0536983" lon="15.9168967"><ele>525.0</ele><time>2026-04-12T08:31:28.98Z</time></trkpt><trkpt lat="38.053745" lon="15.9169733"><ele>525.0</ele><time>2026-04-12T08:31:29.98Z</time></trkpt><trkpt lat="38.0537833" lon="15.9170483"><ele>527.6666666666666</ele><time>2026-04-12T08:31:30.981Z</time></trkpt><trkpt lat="38.053815" lon="15.9171183"><ele>530.3333333333334</ele><time>2026-04-12T08:31:31.981Z</time></trkpt><trkpt lat="38.0538567" lon="15.91725"><ele>533.0</ele><time>2026-04-12T08:31:33.98Z</time></trkpt><trkpt lat="38.0538667" lon="15.9173967"><ele>535.6666666666667</ele><time>2026-04-12T08:31:35.98Z</time></trkpt><trkpt lat="38.053865" lon="15.9174783"><ele>538.3333333333334</ele><time>2026-04-12T08:31:36.98Z</time></trkpt><trkpt lat="38.0538667" lon="15.9175583"><ele>541.0</ele><time>2026-04-12T08:31:37.98Z</time></trkpt><trkpt lat="38.0538667" lon="15.917705"><ele>548.8</ele><time>2026-04-12T08:31:39.98Z</time></trkpt><trkpt lat="38.0538383" lon="15.9178133"><ele>556.6</ele><time>2026-04-12T08:31:41.98Z</time></trkpt><trkpt lat="38.0537517" lon="15.9178683"><ele>564.4</ele><time>2026-04-12T08:31:43.981Z</time></trkpt><trkpt lat="38.05365" lon="15.9178667"><ele>572.2</ele><time>2026-04-12T08:31:45.98Z</time></trkpt><trkpt lat="38.053555" lon="15.9177633"><ele>580.0</ele><time>2026-04-12T08:31:47.981Z</time></trkpt><trkpt lat="38.0535" lon="15.9176883"><ele>580.0</ele><time>2026-04-12T08:31:48.98Z</time></trkpt><trkpt lat="38.0534483" lon="15.9176067"><ele>580.0</ele><time>2026-04-12T08:31:49.98Z</time></trkpt><trkpt lat="38.0533967" lon="15.9175283"><ele>580.0</ele><time>2026-04-12T08:31:50.98Z</time></trkpt><trkpt lat="38.053345" lon="15.9174733"><ele>580.0</ele><time>2026-04-12T08:31:51.98Z</time></trkpt><trkpt lat="38.053235" lon="15.917435"><ele>580.0</ele><time>2026-04-12T08:31:53.98Z</time></trkpt><trkpt lat="38.053165" lon="15.9174483"><ele>580.0</ele><time>2026-04-12T08:31:54.981Z</time></trkpt><trkpt lat="38.0530883" lon="15.9174633"><ele>578.4</ele><time>2026-04-12T08:31:55.98Z</time></trkpt><trkpt lat="38.05302" lon="15.9174833"><ele>576.8</ele><time>2026-04-12T08:31:56.98Z</time></trkpt><trkpt lat="38.0529633" lon="15.9175183"><ele>575.2</ele><time>2026-04-12T08:31:57.98Z</time></trkpt><trkpt lat="38.052885" lon="15.9176217"><ele>573.6</ele><time>2026-04-12T08:31:59.98Z</time></trkpt><trkpt lat="38.0528" lon="15.9177033"><ele>572.0</ele><time>2026-04-12T08:32:01.98Z</time></trkpt><trkpt lat="38.05271" lon="15.9177683"><ele>572.0</ele><time>2026-04-12T08:32:03.98Z</time></trkpt><trkpt lat="38.0526083" lon="15.917795"><ele>572.0</ele><time>2026-04-12T08:32:05.981Z</time></trkpt><trkpt lat="38.0525167" lon="15.9177917"><ele>572.0</ele><time>2026-04-12T08:32:07.981Z</time></trkpt><trkpt lat="38.0524083" lon="15.9178233"><ele>572.0</ele><time>2026-04-12T08:32:09.981Z</time></trkpt><trkpt lat="38.0523083" lon="15.917885"><ele>572.0</ele><time>2026-04-12T08:32:11.98Z</time></trkpt><trkpt lat="38.0522083" lon="15.91788"><ele>570.8000000000001</ele><time>2026-04-12T08:32:13.981Z</time></trkpt><trkpt lat="38.0521217" lon="15.9178083"><ele>569.6</ele><time>2026-04-12T08:32:15.98Z</time></trkpt><trkpt lat="38.052055" lon="15.9177233"><ele>568.4000000000001</ele><time>2026-04-12T08:32:17.981Z</time></trkpt><trkpt lat="38.0519617" lon="15.9177183"><ele>567.2</ele><time>2026-04-12T08:32:19.981Z</time></trkpt><trkpt lat="38.0518733" lon="15.9177733"><ele>566.0</ele><time>2026-04-12T08:32:21.98Z</time></trkpt><trkpt lat="38.0517817" lon="15.9178083"><ele>566.0</ele><time>2026-04-12T08:32:23.98Z</time></trkpt><trkpt lat="38.0516867" lon="15.9177867"><ele>566.0</ele><time>2026-04-12T08:32:25.98Z</time></trkpt><trkpt lat="38.051585" lon="15.9177367"><ele>566.0</ele><time>2026-04-12T08:32:27.981Z</time></trkpt><trkpt lat="38.05149" lon="15.9176567"><ele>566.0</ele><time>2026-04-12T08:32:29.98Z</time></trkpt><trkpt lat="38.0514483" lon="15.917595"><ele>566.0</ele><time>2026-04-12T08:32:30.98Z</time></trkpt><trkpt lat="38.0514167" lon="15.917525"><ele>566.0</ele><time>2026-04-12T08:32:31.98Z</time></trkpt><trkpt lat="38.0513867" lon="15.917405"><ele>556.8333333333333</ele><time>2026-04-12T08:32:33.98Z</time></trkpt><trkpt lat="38.051345" lon="15.9172817"><ele>547.6666666666666</ele><time>2026-04-12T08:32:35.98Z</time></trkpt><trkpt lat="38.051285" lon="15.9172433"><ele>538.5</ele><time>2026-04-12T08:32:37.98Z</time></trkpt><trkpt lat="38.051175" lon="15.9172767"><ele>529.3333333333334</ele><time>2026-04-12T08:32:39.98Z</time></trkpt><trkpt lat="38.0511117" lon="15.9173167"><ele>520.1666666666667</ele><time>2026-04-12T08:32:40.98Z</time></trkpt><trkpt lat="38.0510433" lon="15.91736"><ele>511.0</ele><time>2026-04-12T08:32:41.981Z</time></trkpt><trkpt lat="38.050985" lon="15.9174"><ele>511.0</ele><time>2026-04-12T08:32:42.98Z</time></trkpt><trkpt lat="38.0508817" lon="15.9174733"><ele>511.0</ele><time>2026-04-12T08:32:44.98Z</time></trkpt><trkpt lat="38.0508017" lon="15.917535"><ele>511.0</ele><time>2026-04-12T08:32:46.98Z</time></trkpt><trkpt lat="38.050735" lon="15.9175533"><ele>511.0</ele><time>2026-04-12T08:32:48.98Z</time></trkpt><trkpt lat="38.0506533" lon="15.9175417"><ele>511.0</ele><time>2026-04-12T08:32:51.981Z</time></trkpt><trkpt lat="38.050565" lon="15.9175233"><ele>508.1666666666667</ele><time>2026-04-12T08:32:53.981Z</time></trkpt><trkpt lat="38.0504783" lon="15.9175167"><ele>505.33333333333337</ele><time>2026-04-12T08:32:55.98Z</time></trkpt><trkpt lat="38.0504" lon="15.9175167"><ele>502.5</ele><time>2026-04-12T08:32:57.98Z</time></trkpt><trkpt lat="38.050325" lon="15.9174933"><ele>499.66666666666663</ele><time>2026-04-12T08:33:00.98Z</time></trkpt><trkpt lat="38.0502683" lon="15.9174267"><ele>496.8333333333333</ele><time>2026-04-12T08:33:02.98Z</time></trkpt><trkpt lat="38.0502033" lon="15.9173167"><ele>494.0</ele><time>2026-04-12T08:33:04.98Z</time></trkpt><trkpt lat="38.05014" lon="15.91722"><ele>494.0</ele><time>2026-04-12T08:33:06.98Z</time></trkpt><trkpt lat="38.0500417" lon="15.9172"><ele>494.0</ele><time>2026-04-12T08:33:09.98Z</time></trkpt><trkpt lat="38.0499367" lon="15.917185"><ele>494.0</ele><time>2026-04-12T08:33:11.98Z</time></trkpt><trkpt lat="38.0498417" lon="15.9171467"><ele>494.0</ele><time>2026-04-12T08:33:13.98Z</time></trkpt><trkpt lat="38.0497767" lon="15.9170833"><ele>494.0</ele><time>2026-04-12T08:33:15.98Z</time></trkpt><trkpt lat="38.049705" lon="15.9170533"><ele>491.66666666666663</ele><time>2026-04-12T08:33:17.98Z</time></trkpt><trkpt lat="38.0496217" lon="15.9170517"><ele>489.3333333333333</ele><time>2026-04-12T08:33:19.98Z</time></trkpt><trkpt lat="38.049555" lon="15.9170333"><ele>487.0</ele><time>2026-04-12T08:33:21.98Z</time></trkpt><trkpt lat="38.04949" lon="15.9169983"><ele>484.66666666666663</ele><time>2026-04-12T08:33:23.98Z</time></trkpt><trkpt lat="38.0494117" lon="15.916965"><ele>482.3333333333333</ele><time>2026-04-12T08:33:26.98Z</time></trkpt><trkpt lat="38.0493283" lon="15.9169133"><ele>480.0</ele><time>2026-04-12T08:33:29.981Z</time></trkpt><trkpt lat="38.0492633" lon="15.91689"><ele>480.0</ele><time>2026-04-12T08:33:33.98Z</time></trkpt><trkpt lat="38.0492133" lon="15.9169817"><ele>480.0</ele><time>2026-04-12T08:54:33.978Z</time></trkpt><trkpt lat="38.0493967" lon="15.917115"><ele>480.0</ele><time>2026-04-12T08:54:45.977Z</time></trkpt><trkpt lat="38.049465" lon="15.9171067"><ele>480.0</ele><time>2026-04-12T08:54:47.977Z</time></trkpt><trkpt lat="38.049545" lon="15.917085"><ele>480.0</ele><time>2026-04-12T08:54:49.977Z</time></trkpt><trkpt lat="38.0496167" lon="15.9170733"><ele>480.0</ele><time>2026-04-12T08:54:51.977Z</time></trkpt><trkpt lat="38.0496983" lon="15.9170833"><ele>480.0</ele><time>2026-04-12T08:54:54.977Z</time></trkpt><trkpt lat="38.049765" lon="15.9170533"><ele>480.0</ele><time>2026-04-12T08:54:56.977Z</time></trkpt><trkpt lat="38.0498317" lon="15.9170517"><ele>480.0</ele><time>2026-04-12T08:54:58.977Z</time></trkpt><trkpt lat="38.0498867" lon="15.9170967"><ele>480.0</ele><time>2026-04-12T08:55:00.977Z</time></trkpt><trkpt lat="38.049955" lon="15.9171333"><ele>480.0</ele><time>2026-04-12T08:55:02.978Z</time></trkpt><trkpt lat="38.050035" lon="15.91715"><ele>482.3333333333333</ele><time>2026-04-12T08:55:04.978Z</time></trkpt><trkpt lat="38.0501" lon="15.9171583"><ele>484.66666666666663</ele><time>2026-04-12T08:55:06.977Z</time></trkpt><trkpt lat="38.05019" lon="15.91718"><ele>487.0</ele><time>2026-04-12T08:55:09.978Z</time></trkpt><trkpt lat="38.0502433" lon="15.9172267"><ele>489.3333333333333</ele><time>2026-04-12T08:55:11.977Z</time></trkpt><trkpt lat="38.0502883" lon="15.9173133"><ele>491.66666666666663</ele><time>2026-04-12T08:55:13.977Z</time></trkpt><trkpt lat="38.0503367" lon="15.917405"><ele>494.0</ele><time>2026-04-12T08:55:15.977Z</time></trkpt><trkpt lat="38.0503917" lon="15.9174767"><ele>493.99999999999994</ele><time>2026-04-12T08:55:17.977Z</time></trkpt><trkpt lat="38.05047" lon="15.9175133"><ele>494.0</ele><time>2026-04-12T08:55:21.977Z</time></trkpt><trkpt lat="38.050565" lon="15.9175133"><ele>494.0</ele><time>2026-04-12T08:55:23.977Z</time></trkpt><trkpt lat="38.0506683" lon="15.9175317"><ele>494.0</ele><time>2026-04-12T08:55:25.977Z</time></trkpt><trkpt lat="38.0507233" lon="15.9175717"><ele>493.99999999999994</ele><time>2026-04-12T08:55:27.978Z</time></trkpt><trkpt lat="38.0506417" lon="15.9176183"><ele>494.0</ele><time>2026-04-12T08:55:31.977Z</time></trkpt><trkpt lat="38.050585" lon="15.917655"><ele>497.4</ele><time>2026-04-12T08:55:35.978Z</time></trkpt><trkpt lat="38.05069" lon="15.9176683"><ele>500.79999999999995</ele><time>2026-04-12T08:55:38.977Z</time></trkpt><trkpt lat="38.0508067" lon="15.9176467"><ele>504.20000000000005</ele><time>2026-04-12T08:55:40.977Z</time></trkpt><trkpt lat="38.0508967" lon="15.9176083"><ele>507.6</ele><time>2026-04-12T08:55:41.977Z</time></trkpt><trkpt lat="38.05099" lon="15.9175533"><ele>511.0</ele><time>2026-04-12T08:55:42.977Z</time></trkpt><trkpt lat="38.051085" lon="15.9175017"><ele>511.00000000000006</ele><time>2026-04-12T08:55:43.978Z</time></trkpt><trkpt lat="38.051165" lon="15.9174617"><ele>511.0</ele><time>2026-04-12T08:55:44.977Z</time></trkpt><trkpt lat="38.051275" lon="15.9174517"><ele>511.0</ele><time>2026-04-12T08:55:46.977Z</time></trkpt><trkpt lat="38.051355" lon="15.9175133"><ele>511.0</ele><time>2026-04-12T08:55:48.977Z</time></trkpt><trkpt lat="38.0513833" lon="15.917585"><ele>511.00000000000006</ele><time>2026-04-12T08:55:49.978Z</time></trkpt><trkpt lat="38.0514167" lon="15.9176633"><ele>511.0</ele><time>2026-04-12T08:55:50.978Z</time></trkpt><trkpt lat="38.0514533" lon="15.9177433"><ele>514.8333333333334</ele><time>2026-04-12T08:55:51.977Z</time></trkpt><trkpt lat="38.0514883" lon="15.9178133"><ele>518.6666666666667</ele><time>2026-04-12T08:55:52.977Z</time></trkpt><trkpt lat="38.051585" lon="15.917915"><ele>522.5</ele><time>2026-04-12T08:55:54.977Z</time></trkpt><trkpt lat="38.05165" lon="15.91796"><ele>526.3333333333334</ele><time>2026-04-12T08:55:55.977Z</time></trkpt><trkpt lat="38.051715" lon="15.9180067"><ele>530.1666666666666</ele><time>2026-04-12T08:55:56.977Z</time></trkpt><trkpt lat="38.0517783" lon="15.918045"><ele>534.0</ele><time>2026-04-12T08:55:57.977Z</time></trkpt><trkpt lat="38.0518883" lon="15.91808"><ele>540.4</ele><time>2026-04-12T08:55:59.977Z</time></trkpt><trkpt lat="38.0519767" lon="15.91807"><ele>546.8</ele><time>2026-04-12T08:56:01.978Z</time></trkpt><trkpt lat="38.05205" lon="15.91801"><ele>553.2</ele><time>2026-04-12T08:56:03.977Z</time></trkpt><trkpt lat="38.0521133" lon="15.918065"><ele>559.6</ele><time>2026-04-12T08:56:06.978Z</time></trkpt><trkpt lat="38.05216" lon="15.9182217"><ele>566.0</ele><time>2026-04-12T08:56:08.977Z</time></trkpt><trkpt lat="38.0522" lon="15.91831"><ele>566.0</ele><time>2026-04-12T08:56:09.977Z</time></trkpt><trkpt lat="38.052245" lon="15.9183817"><ele>566.0</ele><time>2026-04-12T08:56:10.977Z</time></trkpt><trkpt lat="38.0523233" lon="15.91845"><ele>566.0</ele><time>2026-04-12T08:56:12.977Z</time></trkpt><trkpt lat="38.0523267" lon="15.9185333"><ele>566.0</ele><time>2026-04-12T08:56:15.977Z</time></trkpt><trkpt lat="38.0522533" lon="15.918545"><ele>566.0</ele><time>2026-04-12T08:56:17.978Z</time></trkpt><trkpt lat="38.052155" lon="15.9184517"><ele>566.0</ele><time>2026-04-12T08:56:19.977Z</time></trkpt><trkpt lat="38.0521033" lon="15.918385"><ele>566.0</ele><time>2026-04-12T08:56:20.977Z</time></trkpt><trkpt lat="38.0520467" lon="15.918315"><ele>566.0</ele><time>2026-04-12T08:56:21.978Z</time></trkpt><trkpt lat="38.05198" lon="15.9182633"><ele>566.0</ele><time>2026-04-12T08:56:22.977Z</time></trkpt><trkpt lat="38.0519067" lon="15.9182417"><ele>566.0</ele><time>2026-04-12T08:56:23.977Z</time></trkpt><trkpt lat="38.0518117" lon="15.9182283"><ele>566.0</ele><time>2026-04-12T08:56:24.977Z</time></trkpt><trkpt lat="38.0517" lon="15.91823"><ele>566.0</ele><time>2026-04-12T08:56:25.978Z</time></trkpt><trkpt lat="38.0515967" lon="15.9182367"><ele>561.3333333333333</ele><time>2026-04-12T08:56:26.977Z</time></trkpt><trkpt lat="38.0515067" lon="15.9182183"><ele>556.6666666666666</ele><time>2026-04-12T08:56:27.977Z</time></trkpt><trkpt lat="38.0514267" lon="15.918215"><ele>552.0</ele><time>2026-04-12T08:56:28.977Z</time></trkpt><trkpt lat="38.0513583" lon="15.918215"><ele>547.3333333333334</ele><time>2026-04-12T08:56:29.977Z</time></trkpt><trkpt lat="38.0512767" lon="15.918245"><ele>542.6666666666667</ele><time>2026-04-12T08:56:31.977Z</time></trkpt><trkpt lat="38.0512733" lon="15.91834"><ele>538.0</ele><time>2026-04-12T08:56:33.977Z</time></trkpt><trkpt lat="38.0513633" lon="15.9184017"><ele>538.0</ele><time>2026-04-12T08:56:35.977Z</time></trkpt><trkpt lat="38.0514267" lon="15.9184117"><ele>538.0</ele><time>2026-04-12T08:56:36.977Z</time></trkpt><trkpt lat="38.0514967" lon="15.9184217"><ele>538.0</ele><time>2026-04-12T08:56:37.978Z</time></trkpt><trkpt lat="38.0515817" lon="15.918445"><ele>538.0</ele><time>2026-04-12T08:56:38.977Z</time></trkpt><trkpt lat="38.051675" lon="15.9184817"><ele>538.0</ele><time>2026-04-12T08:56:39.977Z</time></trkpt><trkpt lat="38.0517733" lon="15.91853"><ele>538.0</ele><time>2026-04-12T08:56:40.977Z</time></trkpt><trkpt lat="38.0518767" lon="15.918595"><ele>550.0</ele><time>2026-04-12T08:56:41.978Z</time></trkpt><trkpt lat="38.051965" lon="15.9186783"><ele>562.0</ele><time>2026-04-12T08:56:42.977Z</time></trkpt><trkpt lat="38.0520467" lon="15.9187617"><ele>574.0</ele><time>2026-04-12T08:56:43.977Z</time></trkpt><trkpt lat="38.0521233" lon="15.9188483"><ele>586.0</ele><time>2026-04-12T08:56:44.978Z</time></trkpt><trkpt lat="38.0522" lon="15.91892"><ele>598.0</ele><time>2026-04-12T08:56:45.977Z</time></trkpt><trkpt lat="38.0522883" lon="15.918965"><ele>598.0</ele><time>2026-04-12T08:56:46.977Z</time></trkpt><trkpt lat="38.052385" lon="15.9189883"><ele>598.0</ele><time>2026-04-12T08:56:47.977Z</time></trkpt><trkpt lat="38.0524817" lon="15.91899"><ele>598.0</ele><time>2026-04-12T08:56:48.977Z</time></trkpt><trkpt lat="38.0525833" lon="15.9189817"><ele>598.0</ele><time>2026-04-12T08:56:49.978Z</time></trkpt><trkpt lat="38.0526583" lon="15.918965"><ele>598.0</ele><time>2026-04-12T08:56:50.977Z</time></trkpt><trkpt lat="38.0527217" lon="15.9189283"><ele>598.0</ele><time>2026-04-12T08:56:51.977Z</time></trkpt><trkpt lat="38.0527883" lon="15.9187983"><ele>600.6</ele><time>2026-04-12T08:56:53.977Z</time></trkpt><trkpt lat="38.0528467" lon="15.918675"><ele>603.1999999999999</ele><time>2026-04-12T08:56:55.977Z</time></trkpt><trkpt lat="38.0529433" lon="15.9186683"><ele>605.8</ele><time>2026-04-12T08:56:57.978Z</time></trkpt><trkpt lat="38.052995" lon="15.9187683"><ele>608.4</ele><time>2026-04-12T08:56:59.977Z</time></trkpt><trkpt lat="38.052965" lon="15.9188667"><ele>611.0</ele><time>2026-04-12T08:57:01.977Z</time></trkpt><trkpt lat="38.05287" lon="15.9189417"><ele>611.0</ele><time>2026-04-12T08:57:03.977Z</time></trkpt><trkpt lat="38.0528017" lon="15.9190033"><ele>611.0</ele><time>2026-04-12T08:57:04.977Z</time></trkpt><trkpt lat="38.05272" lon="15.919075"><ele>611.0</ele><time>2026-04-12T08:57:05.977Z</time></trkpt><trkpt lat="38.0526467" lon="15.91915"><ele>611.0</ele><time>2026-04-12T08:57:06.977Z</time></trkpt><trkpt lat="38.0525633" lon="15.9191983"><ele>611.0</ele><time>2026-04-12T08:57:07.977Z</time></trkpt><trkpt lat="38.052465" lon="15.91924"><ele>610.4</ele><time>2026-04-12T08:57:08.977Z</time></trkpt><trkpt lat="38.0523567" lon="15.9192783"><ele>609.8</ele><time>2026-04-12T08:57:09.977Z</time></trkpt><trkpt lat="38.052255" lon="15.91931"><ele>609.1999999999999</ele><time>2026-04-12T08:57:10.978Z</time></trkpt><trkpt lat="38.0521683" lon="15.9193233"><ele>608.6</ele><time>2026-04-12T08:57:11.978Z</time></trkpt><trkpt lat="38.052085" lon="15.9193183"><ele>608.0</ele><time>2026-04-12T08:57:12.978Z</time></trkpt><trkpt lat="38.0520017" lon="15.9192817"><ele>608.0</ele><time>2026-04-12T08:57:13.977Z</time></trkpt><trkpt lat="38.0519217" lon="15.9192433"><ele>608.0</ele><time>2026-04-12T08:57:14.977Z</time></trkpt><trkpt lat="38.051845" lon="15.9192"><ele>608.0</ele><time>2026-04-12T08:57:15.978Z</time></trkpt><trkpt lat="38.05178" lon="15.9191767"><ele>608.0</ele><time>2026-04-12T08:57:16.977Z</time></trkpt><trkpt lat="38.051675" lon="15.9192267"><ele>608.0</ele><time>2026-04-12T08:57:18.977Z</time></trkpt><trkpt lat="38.0516567" lon="15.919335"><ele>608.0</ele><time>2026-04-12T08:57:20.978Z</time></trkpt><trkpt lat="38.05172" lon="15.919395"><ele>608.0</ele><time>2026-04-12T08:57:22.977Z</time></trkpt><trkpt lat="38.051785" lon="15.9194117"><ele>608.0</ele><time>2026-04-12T08:57:23.977Z</time></trkpt><trkpt lat="38.0518633" lon="15.9194367"><ele>608.0</ele><time>2026-04-12T08:57:24.978Z</time></trkpt><trkpt lat="38.0519783" lon="15.91947"><ele>608.0</ele><time>2026-04-12T08:57:25.977Z</time></trkpt><trkpt lat="38.0520933" lon="15.9195117"><ele>608.0</ele><time>2026-04-12T08:57:26.977Z</time></trkpt><trkpt lat="38.052205" lon="15.9195483"><ele>608.0</ele><time>2026-04-12T08:57:27.977Z</time></trkpt><trkpt lat="38.0523133" lon="15.9195817"><ele>608.0</ele><time>2026-04-12T08:57:28.978Z</time></trkpt><trkpt lat="38.05241" lon="15.9196317"><ele>608.0</ele><time>2026-04-12T08:57:29.977Z</time></trkpt><trkpt lat="38.0524917" lon="15.9196967"><ele>608.0</ele><time>2026-04-12T08:57:30.977Z</time></trkpt><trkpt lat="38.0525567" lon="15.9197817"><ele>608.0</ele><time>2026-04-12T08:57:31.977Z</time></trkpt><trkpt lat="38.0526133" lon="15.91989"><ele>614.1999999999999</ele><time>2026-04-12T08:57:32.978Z</time></trkpt><trkpt lat="38.0526783" lon="15.9200067"><ele>620.4</ele><time>2026-04-12T08:57:33.977Z</time></trkpt><trkpt lat="38.05275" lon="15.9201083"><ele>626.5999999999999</ele><time>2026-04-12T08:57:34.977Z</time></trkpt><trkpt lat="38.0528367" lon="15.9201967"><ele>632.8</ele><time>2026-04-12T08:57:35.977Z</time></trkpt><trkpt lat="38.0529283" lon="15.9202767"><ele>639.0</ele><time>2026-04-12T08:57:36.978Z</time></trkpt><trkpt lat="38.0530217" lon="15.92035"><ele>644.2</ele><time>2026-04-12T08:57:37.977Z</time></trkpt><trkpt lat="38.0531133" lon="15.9204083"><ele>649.4</ele><time>2026-04-12T08:57:38.977Z</time></trkpt><trkpt lat="38.0532167" lon="15.9204433"><ele>654.6</ele><time>2026-04-12T08:57:39.977Z</time></trkpt><trkpt lat="38.05332" lon="15.9204567"><ele>659.8</ele><time>2026-04-12T08:57:40.977Z</time></trkpt><trkpt lat="38.0534133" lon="15.9204583"><ele>665.0</ele><time>2026-04-12T08:57:41.977Z</time></trkpt><trkpt lat="38.0535" lon="15.9204483"><ele>665.0</ele><time>2026-04-12T08:57:42.978Z</time></trkpt><trkpt lat="38.0535817" lon="15.9204133"><ele>665.0</ele><time>2026-04-12T08:57:43.978Z</time></trkpt><trkpt lat="38.0536417" lon="15.9203767"><ele>665.0</ele><time>2026-04-12T08:57:44.977Z</time></trkpt><trkpt lat="38.0537" lon="15.9203233"><ele>665.0</ele><time>2026-04-12T08:57:45.977Z</time></trkpt><trkpt lat="38.0537467" lon="15.920265"><ele>665.0</ele><time>2026-04-12T08:57:46.977Z</time></trkpt><trkpt lat="38.0538183" lon="15.920195"><ele>665.0</ele><time>2026-04-12T08:57:48.977Z</time></trkpt><trkpt lat="38.0538383" lon="15.9202917"><ele>665.0</ele><time>2026-04-12T08:57:51.977Z</time></trkpt><trkpt lat="38.0537683" lon="15.9203967"><ele>665.0</ele><time>2026-04-12T08:57:53.978Z</time></trkpt><trkpt lat="38.0537033" lon="15.92049"><ele>665.0</ele><time>2026-04-12T08:57:54.978Z</time></trkpt><trkpt lat="38.053625" lon="15.920605"><ele>665.0</ele><time>2026-04-12T08:57:55.977Z</time></trkpt><trkpt lat="38.0535433" lon="15.9207233"><ele>665.0</ele><time>2026-04-12T08:57:56.977Z</time></trkpt><trkpt lat="38.05347" lon="15.9208267"><ele>665.0</ele><time>2026-04-12T08:57:57.977Z</time></trkpt><trkpt lat="38.0534067" lon="15.92091"><ele>665.0</ele><time>2026-04-12T08:57:58.978Z</time></trkpt><trkpt lat="38.0533517" lon="15.92097"><ele>665.0</ele><time>2026-04-12T08:57:59.977Z</time></trkpt><trkpt lat="38.0532933" lon="15.9210167"><ele>665.0</ele><time>2026-04-12T08:58:00.977Z</time></trkpt><trkpt lat="38.0531867" lon="15.9210333"><ele>664.8</ele><time>2026-04-12T08:58:02.977Z</time></trkpt><trkpt lat="38.0530767" lon="15.9209567"><ele>664.6</ele><time>2026-04-12T08:58:04.977Z</time></trkpt><trkpt lat="38.0530133" lon="15.92091"><ele>664.4000000000001</ele><time>2026-04-12T08:58:05.977Z</time></trkpt><trkpt lat="38.052945" lon="15.92086"><ele>664.2</ele><time>2026-04-12T08:58:06.977Z</time></trkpt><trkpt lat="38.052855" lon="15.9207917"><ele>664.0</ele><time>2026-04-12T08:58:07.977Z</time></trkpt><trkpt lat="38.0527533" lon="15.920735"><ele>664.3333333333334</ele><time>2026-04-12T08:58:08.978Z</time></trkpt><trkpt lat="38.0526633" lon="15.92069"><ele>664.6666666666667</ele><time>2026-04-12T08:58:09.977Z</time></trkpt><trkpt lat="38.052585" lon="15.9206467"><ele>665.0</ele><time>2026-04-12T08:58:10.977Z</time></trkpt><trkpt lat="38.0525117" lon="15.9206167"><ele>665.3333333333334</ele><time>2026-04-12T08:58:11.978Z</time></trkpt><trkpt lat="38.0524467" lon="15.9206033"><ele>665.6666666666666</ele><time>2026-04-12T08:58:12.977Z</time></trkpt><trkpt lat="38.0523933" lon="15.92066"><ele>666.0</ele><time>2026-04-12T08:58:14.977Z</time></trkpt><trkpt lat="38.0524167" lon="15.9208"><ele>665.6666666666666</ele><time>2026-04-12T08:58:16.978Z</time></trkpt><trkpt lat="38.052455" lon="15.9208883"><ele>665.3333333333334</ele><time>2026-04-12T08:58:17.977Z</time></trkpt><trkpt lat="38.052515" lon="15.92096"><ele>665.0</ele><time>2026-04-12T08:58:18.977Z</time></trkpt><trkpt lat="38.05259" lon="15.9210283"><ele>664.6666666666667</ele><time>2026-04-12T08:58:19.977Z</time></trkpt><trkpt lat="38.052655" lon="15.9211183"><ele>664.3333333333334</ele><time>2026-04-12T08:58:20.977Z</time></trkpt><trkpt lat="38.0527083" lon="15.9212183"><ele>664.0</ele><time>2026-04-12T08:58:21.977Z</time></trkpt><trkpt lat="38.052775" lon="15.921325"><ele>664.0</ele><time>2026-04-12T08:58:22.977Z</time></trkpt><trkpt lat="38.052825" lon="15.9214267"><ele>664.0</ele><time>2026-04-12T08:58:23.977Z</time></trkpt><trkpt lat="38.0528733" lon="15.9215217"><ele>664.0</ele><time>2026-04-12T08:58:24.977Z</time></trkpt><trkpt lat="38.0529133" lon="15.9215983"><ele>664.0</ele><time>2026-04-12T08:58:25.977Z</time></trkpt><trkpt lat="38.0529417" lon="15.92167"><ele>664.0</ele><time>2026-04-12T08:58:26.977Z</time></trkpt><trkpt lat="38.0529917" lon="15.9217717"><ele>664.0</ele><time>2026-04-12T08:58:28.977Z</time></trkpt><trkpt lat="38.053115" lon="15.9218333"><ele>665.2</ele><time>2026-04-12T08:58:56.977Z</time></trkpt><trkpt lat="38.053205" lon="15.921875"><ele>666.4000000000001</ele><time>2026-04-12T08:58:59.977Z</time></trkpt><trkpt lat="38.0533133" lon="15.9219233"><ele>667.6</ele><time>2026-04-12T08:59:01.977Z</time></trkpt><trkpt lat="38.0534217" lon="15.921995"><ele>668.8</ele><time>2026-04-12T08:59:03.976Z</time></trkpt><trkpt lat="38.0534783" lon="15.9220333"><ele>670.0</ele><time>2026-04-12T08:59:04.976Z</time></trkpt><trkpt lat="38.053575" lon="15.922095"><ele>670.0</ele><time>2026-04-12T08:59:06.976Z</time></trkpt><trkpt lat="38.053635" lon="15.9221517"><ele>670.0</ele><time>2026-04-12T08:59:08.977Z</time></trkpt><trkpt lat="38.05364" lon="15.9222333"><ele>670.0</ele><time>2026-04-12T08:59:10.977Z</time></trkpt><trkpt lat="38.0536333" lon="15.922315"><ele>670.0</ele><time>2026-04-12T08:59:12.976Z</time></trkpt><trkpt lat="38.0536367" lon="15.922415"><ele>670.0</ele><time>2026-04-12T08:59:14.976Z</time></trkpt><trkpt lat="38.053645" lon="15.92252"><ele>670.0</ele><time>2026-04-12T08:59:16.976Z</time></trkpt><trkpt lat="38.05364" lon="15.9226333"><ele>668.8</ele><time>2026-04-12T08:59:18.976Z</time></trkpt><trkpt lat="38.0536433" lon="15.92275"><ele>667.6</ele><time>2026-04-12T08:59:20.977Z</time></trkpt><trkpt lat="38.05365" lon="15.92287"><ele>666.4000000000001</ele><time>2026-04-12T08:59:22.976Z</time></trkpt><trkpt lat="38.0536483" lon="15.9229817"><ele>665.2</ele><time>2026-04-12T08:59:24.976Z</time></trkpt><trkpt lat="38.0536433" lon="15.92311"><ele>664.0</ele><time>2026-04-12T08:59:26.976Z</time></trkpt><trkpt lat="38.0536483" lon="15.9232417"><ele>664.0</ele><time>2026-04-12T08:59:28.976Z</time></trkpt><trkpt lat="38.0536617" lon="15.9233967"><ele>664.0</ele><time>2026-04-12T08:59:30.977Z</time></trkpt><trkpt lat="38.05366" lon="15.92356"><ele>664.0</ele><time>2026-04-12T08:59:32.976Z</time></trkpt><trkpt lat="38.05366" lon="15.9236433"><ele>664.0</ele><time>2026-04-12T08:59:33.977Z</time></trkpt><trkpt lat="38.0536483" lon="15.9237983"><ele>664.0</ele><time>2026-04-12T08:59:35.977Z</time></trkpt><trkpt lat="38.0536433" lon="15.9238833"><ele>664.1666666666667</ele><time>2026-04-12T08:59:36.976Z</time></trkpt><trkpt lat="38.0536367" lon="15.92397"><ele>664.3333333333334</ele><time>2026-04-12T08:59:37.976Z</time></trkpt><trkpt lat="38.0536217" lon="15.9240517"><ele>664.5</ele><time>2026-04-12T08:59:38.976Z</time></trkpt><trkpt lat="38.0535967" lon="15.9241267"><ele>664.6666666666666</ele><time>2026-04-12T08:59:39.976Z</time></trkpt><trkpt lat="38.053555" lon="15.924265"><ele>664.8333333333333</ele><time>2026-04-12T08:59:41.976Z</time></trkpt><trkpt lat="38.0535467" lon="15.924405"><ele>665.0</ele><time>2026-04-12T08:59:43.976Z</time></trkpt><trkpt lat="38.053515" lon="15.9245467"><ele>665.4</ele><time>2026-04-12T08:59:45.977Z</time></trkpt><trkpt lat="38.0534483" lon="15.9246633"><ele>665.8</ele><time>2026-04-12T08:59:47.977Z</time></trkpt><trkpt lat="38.0533667" lon="15.9247567"><ele>666.2</ele><time>2026-04-12T08:59:49.977Z</time></trkpt><trkpt lat="38.0532983" lon="15.9248517"><ele>666.6</ele><time>2026-04-12T08:59:51.976Z</time></trkpt><trkpt lat="38.0532467" lon="15.924935"><ele>667.0</ele><time>2026-04-12T08:59:53.976Z</time></trkpt><trkpt lat="38.053185" lon="15.9249633"><ele>659.2</ele><time>2026-04-12T08:59:55.976Z</time></trkpt><trkpt lat="38.0531267" lon="15.9249067"><ele>651.4000000000001</ele><time>2026-04-12T08:59:57.977Z</time></trkpt><trkpt lat="38.053095" lon="15.92475"><ele>643.5999999999999</ele><time>2026-04-12T08:59:59.976Z</time></trkpt><trkpt lat="38.05308" lon="15.9246433"><ele>635.8</ele><time>2026-04-12T09:00:00.976Z</time></trkpt><trkpt lat="38.053065" lon="15.92453"><ele>628.0</ele><time>2026-04-12T09:00:01.976Z</time></trkpt><trkpt lat="38.0530533" lon="15.9244183"><ele>628.0</ele><time>2026-04-12T09:00:02.977Z</time></trkpt><trkpt lat="38.0530467" lon="15.9243083"><ele>628.0</ele><time>2026-04-12T09:00:03.976Z</time></trkpt><trkpt lat="38.05305" lon="15.9242067"><ele>628.0</ele><time>2026-04-12T09:00:04.976Z</time></trkpt><trkpt lat="38.0530633" lon="15.9241117"><ele>628.0</ele><time>2026-04-12T09:00:05.976Z</time></trkpt><trkpt lat="38.05308" lon="15.9240217"><ele>628.0</ele><time>2026-04-12T09:00:06.976Z</time></trkpt><trkpt lat="38.0530967" lon="15.9239367"><ele>628.0</ele><time>2026-04-12T09:00:07.976Z</time></trkpt><trkpt lat="38.053125" lon="15.9237933"><ele>629.4</ele><time>2026-04-12T09:00:09.977Z</time></trkpt><trkpt lat="38.053125" lon="15.9236733"><ele>630.8</ele><time>2026-04-12T09:00:11.976Z</time></trkpt><trkpt lat="38.0530517" lon="15.9235933"><ele>632.2</ele><time>2026-04-12T09:00:13.976Z</time></trkpt><trkpt lat="38.05294" lon="15.9236217"><ele>633.6</ele><time>2026-04-12T09:00:15.976Z</time></trkpt><trkpt lat="38.0528683" lon="15.9236717"><ele>635.0</ele><time>2026-04-12T09:00:16.976Z</time></trkpt><trkpt lat="38.052805" lon="15.9237267"><ele>635.0</ele><time>2026-04-12T09:00:17.976Z</time></trkpt><trkpt lat="38.05275" lon="15.9237783"><ele>635.0</ele><time>2026-04-12T09:00:18.976Z</time></trkpt><trkpt lat="38.0526767" lon="15.9238983"><ele>635.0</ele><time>2026-04-12T09:00:20.977Z</time></trkpt><trkpt lat="38.0526667" lon="15.9239817"><ele>635.0</ele><time>2026-04-12T09:00:21.976Z</time></trkpt><trkpt lat="38.052665" lon="15.9240767"><ele>635.0</ele><time>2026-04-12T09:00:22.976Z</time></trkpt><trkpt lat="38.0526767" lon="15.924195"><ele>635.0</ele><time>2026-04-12T09:00:23.976Z</time></trkpt><trkpt lat="38.0526783" lon="15.92432"><ele>633.6</ele><time>2026-04-12T09:00:24.976Z</time></trkpt><trkpt lat="38.0526783" lon="15.9244467"><ele>632.2</ele><time>2026-04-12T09:00:25.976Z</time></trkpt><trkpt lat="38.0526817" lon="15.9245667"><ele>630.8</ele><time>2026-04-12T09:00:26.976Z</time></trkpt><trkpt lat="38.05268" lon="15.9246817"><ele>629.4</ele><time>2026-04-12T09:00:27.976Z</time></trkpt><trkpt lat="38.0526733" lon="15.924795"><ele>628.0</ele><time>2026-04-12T09:00:28.976Z</time></trkpt><trkpt lat="38.0526733" lon="15.9249033"><ele>628.0</ele><time>2026-04-12T09:00:29.977Z</time></trkpt><trkpt lat="38.05267" lon="15.9250067"><ele>628.0</ele><time>2026-04-12T09:00:30.976Z</time></trkpt><trkpt lat="38.0526583" lon="15.9250983"><ele>628.0</ele><time>2026-04-12T09:00:31.976Z</time></trkpt><trkpt lat="38.0526467" lon="15.9251867"><ele>628.0</ele><time>2026-04-12T09:00:32.977Z</time></trkpt><trkpt lat="38.0526167" lon="15.92528"><ele>628.0</ele><time>2026-04-12T09:00:33.977Z</time></trkpt><trkpt lat="38.0525783" lon="15.9253717"><ele>628.0</ele><time>2026-04-12T09:00:34.976Z</time></trkpt><trkpt lat="38.05253" lon="15.925455"><ele>630.8</ele><time>2026-04-12T09:00:35.976Z</time></trkpt><trkpt lat="38.05247" lon="15.9255383"><ele>633.5999999999999</ele><time>2026-04-12T09:00:36.976Z</time></trkpt><trkpt lat="38.0524083" lon="15.9256267"><ele>636.4000000000001</ele><time>2026-04-12T09:00:37.976Z</time></trkpt><trkpt lat="38.05235" lon="15.925725"><ele>639.2</ele><time>2026-04-12T09:00:38.976Z</time></trkpt><trkpt lat="38.0522967" lon="15.92582"><ele>642.0</ele><time>2026-04-12T09:00:39.976Z</time></trkpt><trkpt lat="38.05225" lon="15.92593"><ele>637.1666666666666</ele><time>2026-04-12T09:00:40.977Z</time></trkpt><trkpt lat="38.052195" lon="15.9260267"><ele>632.3333333333334</ele><time>2026-04-12T09:00:41.976Z</time></trkpt><trkpt lat="38.0521417" lon="15.92612"><ele>627.5</ele><time>2026-04-12T09:00:42.976Z</time></trkpt><trkpt lat="38.0520883" lon="15.9262017"><ele>622.6666666666667</ele><time>2026-04-12T09:00:43.976Z</time></trkpt><trkpt lat="38.0520233" lon="15.926275"><ele>617.8333333333334</ele><time>2026-04-12T09:00:44.976Z</time></trkpt><trkpt lat="38.05196" lon="15.9263483"><ele>613.0</ele><time>2026-04-12T09:00:45.976Z</time></trkpt><trkpt lat="38.0519" lon="15.9264217"><ele>613.0</ele><time>2026-04-12T09:00:46.976Z</time></trkpt><trkpt lat="38.0518433" lon="15.9264967"><ele>613.0</ele><time>2026-04-12T09:00:47.976Z</time></trkpt><trkpt lat="38.0517983" lon="15.9265767"><ele>613.0</ele><time>2026-04-12T09:00:48.976Z</time></trkpt><trkpt lat="38.0517517" lon="15.9266483"><ele>613.0</ele><time>2026-04-12T09:00:49.976Z</time></trkpt><trkpt lat="38.0517317" lon="15.9267367"><ele>613.0</ele><time>2026-04-12T09:00:50.977Z</time></trkpt><trkpt lat="38.0517367" lon="15.9268333"><ele>613.0</ele><time>2026-04-12T09:00:51.976Z</time></trkpt><trkpt lat="38.0517583" lon="15.92694"><ele>612.1999999999999</ele><time>2026-04-12T09:00:52.976Z</time></trkpt><trkpt lat="38.0517917" lon="15.92705"><ele>611.4</ele><time>2026-04-12T09:00:53.976Z</time></trkpt><trkpt lat="38.0518383" lon="15.9271633"><ele>610.5999999999999</ele><time>2026-04-12T09:00:54.977Z</time></trkpt><trkpt lat="38.05188" lon="15.9272733"><ele>609.8</ele><time>2026-04-12T09:00:55.977Z</time></trkpt><trkpt lat="38.0519133" lon="15.92738"><ele>609.0</ele><time>2026-04-12T09:00:56.976Z</time></trkpt><trkpt lat="38.05194" lon="15.9274733"><ele>609.0</ele><time>2026-04-12T09:00:57.976Z</time></trkpt><trkpt lat="38.0519633" lon="15.9275533"><ele>609.0</ele><time>2026-04-12T09:00:58.976Z</time></trkpt><trkpt lat="38.0520183" lon="15.9276683"><ele>609.0</ele><time>2026-04-12T09:01:00.977Z</time></trkpt><trkpt lat="38.0520617" lon="15.9277267"><ele>609.0</ele><time>2026-04-12T09:01:02.976Z</time></trkpt><trkpt lat="38.0521483" lon="15.927735"><ele>609.0</ele><time>2026-04-12T09:01:04.977Z</time></trkpt><trkpt lat="38.0522533" lon="15.9277383"><ele>609.0</ele><time>2026-04-12T09:01:06.977Z</time></trkpt><trkpt lat="38.0523367" lon="15.927775"><ele>607.2</ele><time>2026-04-12T09:01:08.976Z</time></trkpt><trkpt lat="38.0523" lon="15.9278533"><ele>605.4</ele><time>2026-04-12T09:01:12.976Z</time></trkpt><trkpt lat="38.052185" lon="15.9278667"><ele>603.6</ele><time>2026-04-12T09:01:14.976Z</time></trkpt><trkpt lat="38.0520733" lon="15.927885"><ele>601.8</ele><time>2026-04-12T09:01:16.976Z</time></trkpt><trkpt lat="38.0520017" lon="15.927875"><ele>600.0</ele><time>2026-04-12T09:01:18.977Z</time></trkpt><trkpt lat="38.0519583" lon="15.92796"><ele>600.0</ele><time>2026-04-12T09:01:21.977Z</time></trkpt><trkpt lat="38.0520267" lon="15.9280433"><ele>600.0</ele><time>2026-04-12T09:01:24.976Z</time></trkpt><trkpt lat="38.0520817" lon="15.9281317"><ele>600.0</ele><time>2026-04-12T09:01:26.976Z</time></trkpt><trkpt lat="38.0521083" lon="15.9282833"><ele>600.0</ele><time>2026-04-12T09:01:28.977Z</time></trkpt><trkpt lat="38.0521267" lon="15.9283783"><ele>600.0</ele><time>2026-04-12T09:01:29.976Z</time></trkpt><trkpt lat="38.05214" lon="15.9284667"><ele>604.5714285714286</ele><time>2026-04-12T09:01:30.976Z</time></trkpt><trkpt lat="38.05215" lon="15.9285517"><ele>609.1428571428571</ele><time>2026-04-12T09:01:31.976Z</time></trkpt><trkpt lat="38.0521683" lon="15.9286433"><ele>613.7142857142858</ele><time>2026-04-12T09:01:32.976Z</time></trkpt><trkpt lat="38.052185" lon="15.9287333"><ele>618.2857142857142</ele><time>2026-04-12T09:01:33.976Z</time></trkpt><trkpt lat="38.0522" lon="15.9288267"><ele>622.8571428571429</ele><time>2026-04-12T09:01:34.976Z</time></trkpt><trkpt lat="38.05221" lon="15.9289133"><ele>627.4285714285714</ele><time>2026-04-12T09:01:35.976Z</time></trkpt><trkpt lat="38.052215" lon="15.9290117"><ele>632.0</ele><time>2026-04-12T09:01:36.976Z</time></trkpt><trkpt lat="38.0522183" lon="15.9291067"><ele>632.0</ele><time>2026-04-12T09:01:37.976Z</time></trkpt><trkpt lat="38.0522333" lon="15.929205"><ele>632.0</ele><time>2026-04-12T09:01:38.976Z</time></trkpt><trkpt lat="38.0522467" lon="15.929315"><ele>632.0</ele><time>2026-04-12T09:01:39.977Z</time></trkpt><trkpt lat="38.0522567" lon="15.92942"><ele>632.0</ele><time>2026-04-12T09:01:40.976Z</time></trkpt><trkpt lat="38.0522633" lon="15.92953"><ele>632.0</ele><time>2026-04-12T09:01:41.976Z</time></trkpt><trkpt lat="38.05227" lon="15.9296483"><ele>632.0</ele><time>2026-04-12T09:01:42.976Z</time></trkpt><trkpt lat="38.0522733" lon="15.9297667"><ele>637.1666666666666</ele><time>2026-04-12T09:01:43.976Z</time></trkpt><trkpt lat="38.052275" lon="15.9298767"><ele>642.3333333333333</ele><time>2026-04-12T09:01:44.976Z</time></trkpt><trkpt lat="38.0522833" lon="15.929985"><ele>647.5</ele><time>2026-04-12T09:01:45.976Z</time></trkpt><trkpt lat="38.0522817" lon="15.9300933"><ele>652.6666666666666</ele><time>2026-04-12T09:01:46.976Z</time></trkpt><trkpt lat="38.0522917" lon="15.930185"><ele>657.8333333333334</ele><time>2026-04-12T09:01:47.976Z</time></trkpt><trkpt lat="38.0522983" lon="15.9302717"><ele>663.0</ele><time>2026-04-12T09:01:48.976Z</time></trkpt><trkpt lat="38.0522917" lon="15.9303567"><ele>663.3333333333334</ele><time>2026-04-12T09:01:49.976Z</time></trkpt><trkpt lat="38.05229" lon="15.9304467"><ele>663.6666666666666</ele><time>2026-04-12T09:01:50.976Z</time></trkpt><trkpt lat="38.0522917" lon="15.9305367"><ele>664.0</ele><time>2026-04-12T09:01:51.977Z</time></trkpt><trkpt lat="38.0523" lon="15.9306217"><ele>664.3333333333333</ele><time>2026-04-12T09:01:52.976Z</time></trkpt><trkpt lat="38.0523583" lon="15.9307683"><ele>664.6666666666666</ele><time>2026-04-12T09:01:54.976Z</time></trkpt><trkpt lat="38.0524133" lon="15.93085"><ele>665.0</ele><time>2026-04-12T09:01:55.977Z</time></trkpt><trkpt lat="38.0524817" lon="15.9309383"><ele>665.0</ele><time>2026-04-12T09:01:56.976Z</time></trkpt><trkpt lat="38.0525667" lon="15.9310167"><ele>665.0</ele><time>2026-04-12T09:01:57.976Z</time></trkpt><trkpt lat="38.0526517" lon="15.9310917"><ele>665.0</ele><time>2026-04-12T09:01:58.976Z</time></trkpt><trkpt lat="38.052745" lon="15.9311283"><ele>665.0</ele><time>2026-04-12T09:01:59.976Z</time></trkpt><trkpt lat="38.052835" lon="15.931145"><ele>665.0</ele><time>2026-04-12T09:02:00.976Z</time></trkpt><trkpt lat="38.0529167" lon="15.9311383"><ele>665.0</ele><time>2026-04-12T09:02:01.977Z</time></trkpt><trkpt lat="38.0529933" lon="15.93112"><ele>665.0</ele><time>2026-04-12T09:02:02.976Z</time></trkpt><trkpt lat="38.0530817" lon="15.9311067"><ele>665.0</ele><time>2026-04-12T09:02:04.977Z</time></trkpt><trkpt lat="38.0529317" lon="15.931145"><ele>665.0</ele><time>2026-04-12T09:02:08.976Z</time></trkpt><trkpt lat="38.052805" lon="15.93116"><ele>665.0</ele><time>2026-04-12T09:02:09.972Z</time></trkpt><trkpt lat="38.0526583" lon="15.9311583"><ele>665.0</ele><time>2026-04-12T09:02:10.976Z</time></trkpt><trkpt lat="38.0525333" lon="15.93115"><ele>665.0</ele><time>2026-04-12T09:02:11.976Z</time></trkpt><trkpt lat="38.0524217" lon="15.9311383"><ele>665.0</ele><time>2026-04-12T09:02:12.976Z</time></trkpt><trkpt lat="38.0523283" lon="15.9311183"><ele>665.0</ele><time>2026-04-12T09:02:13.976Z</time></trkpt><trkpt lat="38.0522417" lon="15.9310883"><ele>665.0</ele><time>2026-04-12T09:02:14.977Z</time></trkpt><trkpt lat="38.0521733" lon="15.93106"><ele>675.6</ele><time>2026-04-12T09:02:15.977Z</time></trkpt><trkpt lat="38.0520667" lon="15.931035"><ele>686.2</ele><time>2026-04-12T09:02:17.976Z</time></trkpt><trkpt lat="38.0520483" lon="15.931135"><ele>696.8</ele><time>2026-04-12T09:02:20.976Z</time></trkpt><trkpt lat="38.0521717" lon="15.9312383"><ele>707.4</ele><time>2026-04-12T09:02:22.977Z</time></trkpt><trkpt lat="38.0522733" lon="15.93129"><ele>718.0</ele><time>2026-04-12T09:02:23.976Z</time></trkpt><trkpt lat="38.0523967" lon="15.9313317"><ele>704.75</ele><time>2026-04-12T09:02:24.976Z</time></trkpt><trkpt lat="38.052525" lon="15.931365"><ele>691.5</ele><time>2026-04-12T09:02:25.976Z</time></trkpt><trkpt lat="38.0526383" lon="15.9313983"><ele>678.25</ele><time>2026-04-12T09:02:26.977Z</time></trkpt><trkpt lat="38.0527483" lon="15.9314433"><ele>665.0</ele><time>2026-04-12T09:02:27.977Z</time></trkpt><trkpt lat="38.0528417" lon="15.9314933"><ele>665.0</ele><time>2026-04-12T09:02:28.976Z</time></trkpt><trkpt lat="38.05292" lon="15.9315233"><ele>665.0</ele><time>2026-04-12T09:02:29.976Z</time></trkpt><trkpt lat="38.052985" lon="15.9315567"><ele>665.0</ele><time>2026-04-12T09:02:30.977Z</time></trkpt><trkpt lat="38.0530567" lon="15.9316567"><ele>665.0</ele><time>2026-04-12T09:02:32.976Z</time></trkpt><trkpt lat="38.0530367" lon="15.9317717"><ele>665.0</ele><time>2026-04-12T09:02:34.976Z</time></trkpt><trkpt lat="38.0529683" lon="15.9318133"><ele>665.0</ele><time>2026-04-12T09:02:35.976Z</time></trkpt><trkpt lat="38.0528583" lon="15.931855"><ele>668.2</ele><time>2026-04-12T09:02:36.976Z</time></trkpt><trkpt lat="38.0527417" lon="15.9319067"><ele>671.4</ele><time>2026-04-12T09:02:37.976Z</time></trkpt><trkpt lat="38.0526483" lon="15.9319567"><ele>674.5999999999999</ele><time>2026-04-12T09:02:38.976Z</time></trkpt><trkpt lat="38.0525667" lon="15.93201"><ele>677.8</ele><time>2026-04-12T09:02:39.976Z</time></trkpt><trkpt lat="38.0525083" lon="15.9320883"><ele>681.0</ele><time>2026-04-12T09:02:40.976Z</time></trkpt><trkpt lat="38.0524633" lon="15.9321767"><ele>680.5999999999999</ele><time>2026-04-12T09:02:41.976Z</time></trkpt><trkpt lat="38.0524317" lon="15.9322917"><ele>680.2</ele><time>2026-04-12T09:02:42.976Z</time></trkpt><trkpt lat="38.0524217" lon="15.9324217"><ele>679.8</ele><time>2026-04-12T09:02:43.977Z</time></trkpt><trkpt lat="38.0524283" lon="15.9325667"><ele>679.4000000000001</ele><time>2026-04-12T09:02:44.976Z</time></trkpt><trkpt lat="38.0524433" lon="15.932705"><ele>679.0</ele><time>2026-04-12T09:02:45.977Z</time></trkpt><trkpt lat="38.0524583" lon="15.9328367"><ele>679.0</ele><time>2026-04-12T09:02:46.977Z</time></trkpt><trkpt lat="38.0524683" lon="15.9329567"><ele>679.0</ele><time>2026-04-12T09:02:47.976Z</time></trkpt><trkpt lat="38.0524617" lon="15.9330667"><ele>679.0</ele><time>2026-04-12T09:02:48.976Z</time></trkpt><trkpt lat="38.052435" lon="15.933165"><ele>679.0</ele><time>2026-04-12T09:02:49.977Z</time></trkpt><trkpt lat="38.0523883" lon="15.9332583"><ele>679.0</ele><time>2026-04-12T09:02:50.977Z</time></trkpt><trkpt lat="38.052315" lon="15.9333317"><ele>679.0</ele><time>2026-04-12T09:02:51.976Z</time></trkpt><trkpt lat="38.05221" lon="15.93339"><ele>686.2</ele><time>2026-04-12T09:02:52.976Z</time></trkpt><trkpt lat="38.0521017" lon="15.93345"><ele>693.4000000000001</ele><time>2026-04-12T09:02:53.977Z</time></trkpt><trkpt lat="38.0520133" lon="15.9335117"><ele>700.6</ele><time>2026-04-12T09:02:54.976Z</time></trkpt><trkpt lat="38.0519483" lon="15.93357"><ele>707.8</ele><time>2026-04-12T09:02:55.976Z</time></trkpt><trkpt lat="38.0519" lon="15.9336483"><ele>715.0</ele><time>2026-04-12T09:02:56.976Z</time></trkpt><trkpt lat="38.0518833" lon="15.9337417"><ele>715.0</ele><time>2026-04-12T09:02:57.976Z</time></trkpt><trkpt lat="38.0518767" lon="15.9338467"><ele>715.0</ele><time>2026-04-12T09:02:58.976Z</time></trkpt><trkpt lat="38.051875" lon="15.9339417"><ele>715.0</ele><time>2026-04-12T09:02:59.976Z</time></trkpt><trkpt lat="38.051845" lon="15.9340517"><ele>715.0</ele><time>2026-04-12T09:03:01.976Z</time></trkpt><trkpt lat="38.0517717" lon="15.9339883"><ele>715.0</ele><time>2026-04-12T09:03:03.976Z</time></trkpt><trkpt lat="38.051735" lon="15.933865"><ele>715.0</ele><time>2026-04-12T09:03:04.977Z</time></trkpt><trkpt lat="38.0517233" lon="15.9337083"><ele>715.0</ele><time>2026-04-12T09:03:05.976Z</time></trkpt><trkpt lat="38.0517267" lon="15.9335583"><ele>715.0</ele><time>2026-04-12T09:03:06.976Z</time></trkpt><trkpt lat="38.0517517" lon="15.93342"><ele>715.0</ele><time>2026-04-12T09:03:07.977Z</time></trkpt><trkpt lat="38.05179" lon="15.9332867"><ele>715.0</ele><time>2026-04-12T09:03:08.976Z</time></trkpt><trkpt lat="38.0518167" lon="15.9331533"><ele>716.6</ele><time>2026-04-12T09:03:09.976Z</time></trkpt><trkpt lat="38.0518383" lon="15.9330167"><ele>718.2</ele><time>2026-04-12T09:03:10.976Z</time></trkpt><trkpt lat="38.0518467" lon="15.93288"><ele>719.8</ele><time>2026-04-12T09:03:11.977Z</time></trkpt><trkpt lat="38.0518467" lon="15.9327467"><ele>721.4</ele><time>2026-04-12T09:03:12.977Z</time></trkpt><trkpt lat="38.0518433" lon="15.932625"><ele>723.0</ele><time>2026-04-12T09:03:13.976Z</time></trkpt><trkpt lat="38.0518467" lon="15.9325217"><ele>723.0</ele><time>2026-04-12T09:03:14.976Z</time></trkpt><trkpt lat="38.0518467" lon="15.9324383"><ele>723.0</ele><time>2026-04-12T09:03:15.976Z</time></trkpt><trkpt lat="38.0518017" lon="15.9323617"><ele>723.0</ele><time>2026-04-12T09:03:17.976Z</time></trkpt><trkpt lat="38.051735" lon="15.93243"><ele>723.0</ele><time>2026-04-12T09:03:19.976Z</time></trkpt><trkpt lat="38.051695" lon="15.9325383"><ele>723.0</ele><time>2026-04-12T09:03:20.976Z</time></trkpt><trkpt lat="38.05165" lon="15.9327033"><ele>729.5999999999999</ele><time>2026-04-12T09:03:21.977Z</time></trkpt><trkpt lat="38.051615" lon="15.932875"><ele>736.1999999999999</ele><time>2026-04-12T09:03:22.977Z</time></trkpt><trkpt lat="38.0515867" lon="15.933005"><ele>742.8</ele><time>2026-04-12T09:03:23.976Z</time></trkpt><trkpt lat="38.05155" lon="15.9331167"><ele>749.4</ele><time>2026-04-12T09:03:24.977Z</time></trkpt><trkpt lat="38.0514917" lon="15.933195"><ele>756.0</ele><time>2026-04-12T09:03:25.977Z</time></trkpt><trkpt lat="38.0514083" lon="15.9332467"><ele>756.0</ele><time>2026-04-12T09:03:26.976Z</time></trkpt><trkpt lat="38.051325" lon="15.93329"><ele>756.0</ele><time>2026-04-12T09:03:27.977Z</time></trkpt><trkpt lat="38.0512467" lon="15.9333383"><ele>756.0</ele><time>2026-04-12T09:03:28.977Z</time></trkpt><trkpt lat="38.0511817" lon="15.9334017"><ele>756.0</ele><time>2026-04-12T09:03:29.977Z</time></trkpt><trkpt lat="38.0511233" lon="15.93348"><ele>756.0</ele><time>2026-04-12T09:03:30.976Z</time></trkpt><trkpt lat="38.0510717" lon="15.9335567"><ele>756.0</ele><time>2026-04-12T09:03:31.976Z</time></trkpt><trkpt lat="38.05103" lon="15.93363"><ele>755.8333333333334</ele><time>2026-04-12T09:03:32.976Z</time></trkpt><trkpt lat="38.0510067" lon="15.9337117"><ele>755.6666666666666</ele><time>2026-04-12T09:03:33.976Z</time></trkpt><trkpt lat="38.0509883" lon="15.9337883"><ele>755.5</ele><time>2026-04-12T09:03:34.976Z</time></trkpt><trkpt lat="38.050975" lon="15.9339"><ele>755.3333333333333</ele><time>2026-04-12T09:03:36.976Z</time></trkpt><trkpt lat="38.0509967" lon="15.9339767"><ele>755.1666666666666</ele><time>2026-04-12T09:04:11.976Z</time></trkpt><trkpt lat="38.0509817" lon="15.934145"><ele>755.0</ele><time>2026-04-12T09:04:13.977Z</time></trkpt><trkpt lat="38.050975" lon="15.9342467"><ele>755.6</ele><time>2026-04-12T09:04:14.976Z</time></trkpt><trkpt lat="38.0509617" lon="15.93436"><ele>756.2</ele><time>2026-04-12T09:04:15.977Z</time></trkpt><trkpt lat="38.05095" lon="15.93447"><ele>756.8</ele><time>2026-04-12T09:04:16.976Z</time></trkpt><trkpt lat="38.050935" lon="15.93459"><ele>757.4</ele><time>2026-04-12T09:04:17.976Z</time></trkpt><trkpt lat="38.05092" lon="15.9347283"><ele>758.0</ele><time>2026-04-12T09:04:18.976Z</time></trkpt><trkpt lat="38.0509033" lon="15.9348483"><ele>758.0</ele><time>2026-04-12T09:04:19.976Z</time></trkpt><trkpt lat="38.0509067" lon="15.9349783"><ele>758.0</ele><time>2026-04-12T09:04:20.977Z</time></trkpt><trkpt lat="38.0509317" lon="15.93513"><ele>758.0</ele><time>2026-04-12T09:04:21.976Z</time></trkpt><trkpt lat="38.0509833" lon="15.9352917"><ele>758.0</ele><time>2026-04-12T09:04:22.977Z</time></trkpt><trkpt lat="38.0510267" lon="15.9354483"><ele>761.0</ele><time>2026-04-12T09:04:23.976Z</time></trkpt><trkpt lat="38.051065" lon="15.935585"><ele>764.0</ele><time>2026-04-12T09:04:24.977Z</time></trkpt><trkpt lat="38.0510833" lon="15.9357333"><ele>767.0</ele><time>2026-04-12T09:04:25.976Z</time></trkpt><trkpt lat="38.0510883" lon="15.9358967"><ele>770.0</ele><time>2026-04-12T09:04:26.977Z</time></trkpt><trkpt lat="38.0510817" lon="15.9360383"><ele>772.6</ele><time>2026-04-12T09:04:27.976Z</time></trkpt><trkpt lat="38.05109" lon="15.936165"><ele>775.2</ele><time>2026-04-12T09:04:28.976Z</time></trkpt><trkpt lat="38.0511217" lon="15.9362583"><ele>777.8</ele><time>2026-04-12T09:04:29.976Z</time></trkpt><trkpt lat="38.05117" lon="15.93633"><ele>780.4</ele><time>2026-04-12T09:04:30.977Z</time></trkpt><trkpt lat="38.0512283" lon="15.9364317"><ele>783.0</ele><time>2026-04-12T09:04:31.976Z</time></trkpt><trkpt lat="38.051295" lon="15.9365633"><ele>783.75</ele><time>2026-04-12T09:04:32.977Z</time></trkpt><trkpt lat="38.05136" lon="15.9367233"><ele>784.5</ele><time>2026-04-12T09:04:33.977Z</time></trkpt><trkpt lat="38.0514233" lon="15.93687"><ele>785.25</ele><time>2026-04-12T09:04:34.976Z</time></trkpt><trkpt lat="38.051465" lon="15.936965"><ele>786.0</ele><time>2026-04-12T09:04:35.977Z</time></trkpt><trkpt lat="38.0514883" lon="15.9370867"><ele>786.0</ele><time>2026-04-12T09:04:37.976Z</time></trkpt><trkpt lat="38.0514267" lon="15.9370683"><ele>786.0</ele><time>2026-04-12T09:04:39.976Z</time></trkpt><trkpt lat="38.0513717" lon="15.9370067"><ele>786.0</ele><time>2026-04-12T09:04:40.976Z</time></trkpt><trkpt lat="38.0512883" lon="15.9369083"><ele>786.0</ele><time>2026-04-12T09:04:41.977Z</time></trkpt><trkpt lat="38.05118" lon="15.9367867"><ele>786.0</ele><time>2026-04-12T09:04:42.977Z</time></trkpt><trkpt lat="38.051055" lon="15.9366417"><ele>785.0</ele><time>2026-04-12T09:04:43.976Z</time></trkpt><trkpt lat="38.0509317" lon="15.9364733"><ele>784.0</ele><time>2026-04-12T09:04:44.976Z</time></trkpt><trkpt lat="38.05082" lon="15.9363167"><ele>783.0</ele><time>2026-04-12T09:04:45.976Z</time></trkpt><trkpt lat="38.0506967" lon="15.9361467"><ele>790.6666666666667</ele><time>2026-04-12T09:04:46.977Z</time></trkpt><trkpt lat="38.0505633" lon="15.9360017"><ele>798.3333333333334</ele><time>2026-04-12T09:04:47.976Z</time></trkpt><trkpt lat="38.0504217" lon="15.9358667"><ele>806.0</ele><time>2026-04-12T09:04:48.977Z</time></trkpt><trkpt lat="38.0502933" lon="15.9357267"><ele>806.0</ele><time>2026-04-12T09:04:49.976Z</time></trkpt><trkpt lat="38.050175" lon="15.9355867"><ele>806.0</ele><time>2026-04-12T09:04:50.976Z</time></trkpt><trkpt lat="38.0500633" lon="15.9354233"><ele>806.0</ele><time>2026-04-12T09:04:51.976Z</time></trkpt><trkpt lat="38.0499633" lon="15.9352667"><ele>813.5</ele><time>2026-04-12T09:04:52.977Z</time></trkpt><trkpt lat="38.049865" lon="15.9351183"><ele>821.0</ele><time>2026-04-12T09:04:53.976Z</time></trkpt><trkpt lat="38.0497733" lon="15.9349683"><ele>828.5</ele><time>2026-04-12T09:04:54.976Z</time></trkpt><trkpt lat="38.0497" lon="15.934825"><ele>836.0</ele><time>2026-04-12T09:04:55.976Z</time></trkpt><trkpt lat="38.049635" lon="15.9346767"><ele>836.0</ele><time>2026-04-12T09:04:56.977Z</time></trkpt><trkpt lat="38.0495733" lon="15.9345283"><ele>836.0</ele><time>2026-04-12T09:04:57.976Z</time></trkpt><trkpt lat="38.0495083" lon="15.9343833"><ele>836.0</ele><time>2026-04-12T09:04:58.976Z</time></trkpt><trkpt lat="38.0494533" lon="15.9342583"><ele>836.0</ele><time>2026-04-12T09:04:59.977Z</time></trkpt><trkpt lat="38.0494117" lon="15.934165"><ele>836.0000000000001</ele><time>2026-04-12T09:05:00.976Z</time></trkpt><trkpt lat="38.0493733" lon="15.9340983"><ele>836.0</ele><time>2026-04-12T09:05:01.977Z</time></trkpt><trkpt lat="38.0493133" lon="15.93401"><ele>836.0</ele><time>2026-04-12T09:05:03.977Z</time></trkpt><trkpt lat="38.0492583" lon="15.93397"><ele>836.0</ele><time>2026-04-12T09:05:05.976Z</time></trkpt><trkpt lat="38.0492017" lon="15.934035"><ele>836.0000000000001</ele><time>2026-04-12T09:05:07.976Z</time></trkpt><trkpt lat="38.0492183" lon="15.9341983"><ele>836.0</ele><time>2026-04-12T09:05:09.977Z</time></trkpt><trkpt lat="38.04927" lon="15.9343317"><ele>836.0</ele><time>2026-04-12T09:05:10.976Z</time></trkpt><trkpt lat="38.0493183" lon="15.934475"><ele>836.0</ele><time>2026-04-12T09:05:11.976Z</time></trkpt><trkpt lat="38.0493483" lon="15.9346133"><ele>836.0</ele><time>2026-04-12T09:05:12.976Z</time></trkpt><trkpt lat="38.0493683" lon="15.934765"><ele>836.0</ele><time>2026-04-12T09:05:13.976Z</time></trkpt><trkpt lat="38.0493917" lon="15.9349267"><ele>838.25</ele><time>2026-04-12T09:05:14.976Z</time></trkpt><trkpt lat="38.0494183" lon="15.9350933"><ele>840.5</ele><time>2026-04-12T09:05:15.976Z</time></trkpt><trkpt lat="38.049445" lon="15.9352317"><ele>842.75</ele><time>2026-04-12T09:05:16.977Z</time></trkpt><trkpt lat="38.0494533" lon="15.9353617"><ele>845.0</ele><time>2026-04-12T09:05:17.976Z</time></trkpt><trkpt lat="38.0494367" lon="15.93549"><ele>845.0000000000001</ele><time>2026-04-12T09:05:18.976Z</time></trkpt><trkpt lat="38.0494233" lon="15.935615"><ele>845.0</ele><time>2026-04-12T09:05:19.976Z</time></trkpt><trkpt lat="38.0494167" lon="15.9357233"><ele>845.0</ele><time>2026-04-12T09:05:20.976Z</time></trkpt><trkpt lat="38.049425" lon="15.9358217"><ele>845.0</ele><time>2026-04-12T09:05:21.976Z</time></trkpt><trkpt lat="38.0494567" lon="15.9359233"><ele>845.0000000000001</ele><time>2026-04-12T09:05:22.976Z</time></trkpt><trkpt lat="38.0495033" lon="15.9360133"><ele>845.0</ele><time>2026-04-12T09:05:23.976Z</time></trkpt><trkpt lat="38.049545" lon="15.9360933"><ele>844.75</ele><time>2026-04-12T09:05:24.976Z</time></trkpt><trkpt lat="38.0495567" lon="15.93623"><ele>844.5</ele><time>2026-04-12T09:05:26.976Z</time></trkpt><trkpt lat="38.049505" lon="15.9362983"><ele>844.25</ele><time>2026-04-12T09:05:27.977Z</time></trkpt><trkpt lat="38.04942" lon="15.9363783"><ele>844.0</ele><time>2026-04-12T09:05:28.976Z</time></trkpt><trkpt lat="38.0492767" lon="15.936495"><ele>849.6666666666666</ele><time>2026-04-12T09:05:29.976Z</time></trkpt><trkpt lat="38.0491083" lon="15.93663"><ele>855.3333333333333</ele><time>2026-04-12T09:05:30.976Z</time></trkpt><trkpt lat="38.048965" lon="15.93676"><ele>861.0</ele><time>2026-04-12T09:05:31.976Z</time></trkpt><trkpt lat="38.048875" lon="15.9368633"><ele>861.8</ele><time>2026-04-12T09:05:32.977Z</time></trkpt><trkpt lat="38.0488233" lon="15.93695"><ele>862.5999999999999</ele><time>2026-04-12T09:05:33.977Z</time></trkpt><trkpt lat="38.0488017" lon="15.9370417"><ele>863.4</ele><time>2026-04-12T09:05:34.976Z</time></trkpt><trkpt lat="38.0487983" lon="15.9371533"><ele>864.2</ele><time>2026-04-12T09:05:35.977Z</time></trkpt><trkpt lat="38.0488183" lon="15.9372983"><ele>865.0</ele><time>2026-04-12T09:05:36.977Z</time></trkpt><trkpt lat="38.04885" lon="15.9374767"><ele>864.0</ele><time>2026-04-12T09:05:37.976Z</time></trkpt><trkpt lat="38.0489" lon="15.9377"><ele>863.0</ele><time>2026-04-12T09:05:38.976Z</time></trkpt><trkpt lat="38.048965" lon="15.937955"><ele>862.0</ele><time>2026-04-12T09:05:39.977Z</time></trkpt><trkpt lat="38.0490233" lon="15.9382117"><ele>860.3333333333333</ele><time>2026-04-12T09:05:40.976Z</time></trkpt><trkpt lat="38.0490717" lon="15.9384633"><ele>858.6666666666667</ele><time>2026-04-12T09:05:41.976Z</time></trkpt><trkpt lat="38.0491233" lon="15.9386833"><ele>857.0</ele><time>2026-04-12T09:05:42.977Z</time></trkpt><trkpt lat="38.0491683" lon="15.93888"><ele>860.25</ele><time>2026-04-12T09:05:43.976Z</time></trkpt><trkpt lat="38.0492033" lon="15.9390617"><ele>863.5</ele><time>2026-04-12T09:05:44.976Z</time></trkpt><trkpt lat="38.04923" lon="15.9392317"><ele>866.75</ele><time>2026-04-12T09:05:45.976Z</time></trkpt><trkpt lat="38.0492583" lon="15.93938"><ele>870.0</ele><time>2026-04-12T09:05:46.976Z</time></trkpt><trkpt lat="38.0492867" lon="15.93951"><ele>871.6666666666666</ele><time>2026-04-12T09:05:47.976Z</time></trkpt><trkpt lat="38.0492933" lon="15.9396283"><ele>873.3333333333333</ele><time>2026-04-12T09:05:48.976Z</time></trkpt><trkpt lat="38.049295" lon="15.9397333"><ele>875.0</ele><time>2026-04-12T09:05:49.976Z</time></trkpt><trkpt lat="38.0492867" lon="15.9398383"><ele>876.6666666666666</ele><time>2026-04-12T09:05:50.976Z</time></trkpt><trkpt lat="38.0492633" lon="15.93994"><ele>878.3333333333333</ele><time>2026-04-12T09:05:51.976Z</time></trkpt><trkpt lat="38.049225" lon="15.9400383"><ele>880.0</ele><time>2026-04-12T09:05:52.976Z</time></trkpt><trkpt lat="38.0491833" lon="15.9401283"><ele>879.1666666666666</ele><time>2026-04-12T09:05:53.976Z</time></trkpt><trkpt lat="38.04914" lon="15.9402"><ele>878.3333333333333</ele><time>2026-04-12T09:05:54.977Z</time></trkpt><trkpt lat="38.04907" lon="15.9403067"><ele>877.5</ele><time>2026-04-12T09:05:56.977Z</time></trkpt><trkpt lat="38.0490033" lon="15.9403783"><ele>876.6666666666667</ele><time>2026-04-12T09:06:05.977Z</time></trkpt><trkpt lat="38.0489583" lon="15.9404633"><ele>875.8333333333334</ele><time>2026-04-12T09:21:35.975Z</time></trkpt><trkpt lat="38.0489033" lon="15.9405367"><ele>875.0</ele><time>2026-04-12T09:21:36.975Z</time></trkpt><trkpt lat="38.0488367" lon="15.9406317"><ele>875.0</ele><time>2026-04-12T09:21:37.975Z</time></trkpt><trkpt lat="38.0487533" lon="15.9407533"><ele>875.0</ele><time>2026-04-12T09:21:38.975Z</time></trkpt><trkpt lat="38.0486683" lon="15.9408833"><ele>875.0</ele><time>2026-04-12T09:21:39.975Z</time></trkpt><trkpt lat="38.0485983" lon="15.941015"><ele>875.0</ele><time>2026-04-12T09:21:40.975Z</time></trkpt><trkpt lat="38.0485667" lon="15.9411317"><ele>875.6</ele><time>2026-04-12T09:21:41.975Z</time></trkpt><trkpt lat="38.0485583" lon="15.94125"><ele>876.2</ele><time>2026-04-12T09:21:42.975Z</time></trkpt><trkpt lat="38.0485717" lon="15.9413633"><ele>876.8</ele><time>2026-04-12T09:21:43.975Z</time></trkpt><trkpt lat="38.0486117" lon="15.9414717"><ele>877.4</ele><time>2026-04-12T09:21:44.975Z</time></trkpt><trkpt lat="38.0486833" lon="15.9415633"><ele>878.0</ele><time>2026-04-12T09:21:45.975Z</time></trkpt><trkpt lat="38.0487633" lon="15.94166"><ele>879.0</ele><time>2026-04-12T09:21:46.975Z</time></trkpt><trkpt lat="38.0488383" lon="15.9417667"><ele>880.0</ele><time>2026-04-12T09:21:47.976Z</time></trkpt><trkpt lat="38.048915" lon="15.941885"><ele>881.0</ele><time>2026-04-12T09:21:48.975Z</time></trkpt><trkpt lat="38.04899" lon="15.941985"><ele>882.0</ele><time>2026-04-12T09:21:49.976Z</time></trkpt><trkpt lat="38.0490683" lon="15.9420867"><ele>886.6</ele><time>2026-04-12T09:21:50.976Z</time></trkpt><trkpt lat="38.0491433" lon="15.9421833"><ele>891.2</ele><time>2026-04-12T09:21:51.975Z</time></trkpt><trkpt lat="38.0492167" lon="15.9422733"><ele>895.8</ele><time>2026-04-12T09:21:52.975Z</time></trkpt><trkpt lat="38.0492833" lon="15.9423767"><ele>900.4</ele><time>2026-04-12T09:21:53.976Z</time></trkpt><trkpt lat="38.049335" lon="15.9424833"><ele>905.0</ele><time>2026-04-12T09:21:54.975Z</time></trkpt><trkpt lat="38.0493833" lon="15.9425783"><ele>905.5000000000001</ele><time>2026-04-12T09:21:55.975Z</time></trkpt><trkpt lat="38.0494033" lon="15.942675"><ele>906.0</ele><time>2026-04-12T09:21:56.976Z</time></trkpt><trkpt lat="38.0494083" lon="15.9427783"><ele>906.5</ele><time>2026-04-12T09:21:57.976Z</time></trkpt><trkpt lat="38.04939" lon="15.9428883"><ele>907.0</ele><time>2026-04-12T09:21:58.975Z</time></trkpt><trkpt lat="38.0493483" lon="15.9429967"><ele>907.5000000000001</ele><time>2026-04-12T09:21:59.975Z</time></trkpt><trkpt lat="38.0492917" lon="15.9430917"><ele>908.0</ele><time>2026-04-12T09:22:00.976Z</time></trkpt><trkpt lat="38.04922" lon="15.94317"><ele>907.0</ele><time>2026-04-12T09:22:01.975Z</time></trkpt><trkpt lat="38.04912" lon="15.9432417"><ele>906.0</ele><time>2026-04-12T09:22:02.976Z</time></trkpt><trkpt lat="38.049015" lon="15.9433133"><ele>905.0</ele><time>2026-04-12T09:22:03.975Z</time></trkpt><trkpt lat="38.04891" lon="15.9433817"><ele>904.0</ele><time>2026-04-12T09:22:04.975Z</time></trkpt><trkpt lat="38.04881" lon="15.9434467"><ele>907.8000000000001</ele><time>2026-04-12T09:22:05.975Z</time></trkpt><trkpt lat="38.0487183" lon="15.9435183"><ele>911.6000000000001</ele><time>2026-04-12T09:22:06.975Z</time></trkpt><trkpt lat="38.048635" lon="15.9435933"><ele>915.4</ele><time>2026-04-12T09:22:07.975Z</time></trkpt><trkpt lat="38.0485533" lon="15.9436833"><ele>919.2</ele><time>2026-04-12T09:22:08.975Z</time></trkpt><trkpt lat="38.0484783" lon="15.9437817"><ele>923.0</ele><time>2026-04-12T09:22:09.974Z</time></trkpt><trkpt lat="38.0484083" lon="15.94389"><ele>923.0</ele><time>2026-04-12T09:22:10.974Z</time></trkpt><trkpt lat="38.04834" lon="15.944"><ele>923.0</ele><time>2026-04-12T09:22:11.974Z</time></trkpt><trkpt lat="38.0482683" lon="15.944115"><ele>923.0</ele><time>2026-04-12T09:22:12.974Z</time></trkpt><trkpt lat="38.0482017" lon="15.94423"><ele>923.0</ele><time>2026-04-12T09:22:13.974Z</time></trkpt><trkpt lat="38.048145" lon="15.94435"><ele>923.0</ele><time>2026-04-12T09:22:14.974Z</time></trkpt><trkpt lat="38.0480967" lon="15.9444617"><ele>919.6666666666667</ele><time>2026-04-12T09:22:15.974Z</time></trkpt><trkpt lat="38.04806" lon="15.9445533"><ele>916.3333333333334</ele><time>2026-04-12T09:22:16.974Z</time></trkpt><trkpt lat="38.048035" lon="15.94464"><ele>913.0</ele><time>2026-04-12T09:22:17.975Z</time></trkpt><trkpt lat="38.04804" lon="15.944735"><ele>909.6666666666667</ele><time>2026-04-12T09:22:18.974Z</time></trkpt><trkpt lat="38.0480617" lon="15.9448167"><ele>906.3333333333334</ele><time>2026-04-12T09:22:19.974Z</time></trkpt><trkpt lat="38.04812" lon="15.9448933"><ele>903.0</ele><time>2026-04-12T09:22:20.974Z</time></trkpt><trkpt lat="38.0481883" lon="15.9449683"><ele>904.0</ele><time>2026-04-12T09:22:21.975Z</time></trkpt><trkpt lat="38.0482417" lon="15.9450583"><ele>905.0</ele><time>2026-04-12T09:22:22.975Z</time></trkpt><trkpt lat="38.0482783" lon="15.9451533"><ele>906.0</ele><time>2026-04-12T09:22:23.975Z</time></trkpt><trkpt lat="38.0482917" lon="15.945255"><ele>907.0</ele><time>2026-04-12T09:22:24.974Z</time></trkpt><trkpt lat="38.048285" lon="15.94536"><ele>908.0</ele><time>2026-04-12T09:22:25.974Z</time></trkpt><trkpt lat="38.0482717" lon="15.945485"><ele>909.0</ele><time>2026-04-12T09:22:26.975Z</time></trkpt><trkpt lat="38.0482617" lon="15.9456267"><ele>909.0</ele><time>2026-04-12T09:22:27.975Z</time></trkpt><trkpt lat="38.0482717" lon="15.9457883"><ele>909.0</ele><time>2026-04-12T09:22:28.974Z</time></trkpt><trkpt lat="38.0482833" lon="15.9459583"><ele>909.0</ele><time>2026-04-12T09:22:29.975Z</time></trkpt><trkpt lat="38.0483017" lon="15.9461267"><ele>909.0</ele><time>2026-04-12T09:22:30.974Z</time></trkpt><trkpt lat="38.048325" lon="15.9463067"><ele>918.6666666666667</ele><time>2026-04-12T09:22:31.974Z</time></trkpt><trkpt lat="38.0483467" lon="15.9465"><ele>928.3333333333334</ele><time>2026-04-12T09:22:32.975Z</time></trkpt><trkpt lat="38.0483667" lon="15.9467033"><ele>938.0</ele><time>2026-04-12T09:22:33.974Z</time></trkpt><trkpt lat="38.0483817" lon="15.9469067"><ele>939.25</ele><time>2026-04-12T09:22:34.975Z</time></trkpt><trkpt lat="38.048395" lon="15.9470933"><ele>940.5</ele><time>2026-04-12T09:22:35.974Z</time></trkpt><trkpt lat="38.0483933" lon="15.94727"><ele>941.75</ele><time>2026-04-12T09:22:36.974Z</time></trkpt><trkpt lat="38.0483983" lon="15.9474333"><ele>943.0</ele><time>2026-04-12T09:22:37.975Z</time></trkpt><trkpt lat="38.048395" lon="15.9475983"><ele>945.75</ele><time>2026-04-12T09:22:38.974Z</time></trkpt><trkpt lat="38.048395" lon="15.9477633"><ele>948.5</ele><time>2026-04-12T09:22:39.974Z</time></trkpt><trkpt lat="38.04838" lon="15.9479317"><ele>951.25</ele><time>2026-04-12T09:22:40.975Z</time></trkpt><trkpt lat="38.0483817" lon="15.9480667"><ele>954.0</ele><time>2026-04-12T09:22:41.974Z</time></trkpt><trkpt lat="38.0483733" lon="15.948195"><ele>954.0</ele><time>2026-04-12T09:22:42.974Z</time></trkpt><trkpt lat="38.0483567" lon="15.9483083"><ele>954.0</ele><time>2026-04-12T09:22:43.974Z</time></trkpt><trkpt lat="38.048325" lon="15.948405"><ele>954.0</ele><time>2026-04-12T09:22:44.974Z</time></trkpt><trkpt lat="38.0482783" lon="15.9484817"><ele>954.0</ele><time>2026-04-12T09:22:45.975Z</time></trkpt><trkpt lat="38.0482233" lon="15.9485517"><ele>954.0</ele><time>2026-04-12T09:22:46.974Z</time></trkpt><trkpt lat="38.048165" lon="15.9486167"><ele>954.0</ele><time>2026-04-12T09:22:47.975Z</time></trkpt><trkpt lat="38.0481217" lon="15.94868"><ele>957.4000000000001</ele><time>2026-04-12T09:22:48.974Z</time></trkpt><trkpt lat="38.0481133" lon="15.9488083"><ele>960.8000000000001</ele><time>2026-04-12T09:22:50.974Z</time></trkpt><trkpt lat="38.04823" lon="15.9488017"><ele>964.1999999999999</ele><time>2026-04-12T09:22:53.974Z</time></trkpt><trkpt lat="38.0483117" lon="15.948735"><ele>967.5999999999999</ele><time>2026-04-12T09:22:54.974Z</time></trkpt><trkpt lat="38.0484033" lon="15.9486617"><ele>971.0</ele><time>2026-04-12T09:22:55.974Z</time></trkpt><trkpt lat="38.0485067" lon="15.9485783"><ele>971.0</ele><time>2026-04-12T09:22:56.974Z</time></trkpt><trkpt lat="38.0486017" lon="15.948485"><ele>971.0</ele><time>2026-04-12T09:22:57.974Z</time></trkpt><trkpt lat="38.0486767" lon="15.9483783"><ele>971.0</ele><time>2026-04-12T09:22:58.974Z</time></trkpt><trkpt lat="38.048745" lon="15.9482567"><ele>971.0</ele><time>2026-04-12T09:22:59.974Z</time></trkpt><trkpt lat="38.0488033" lon="15.9481217"><ele>967.5999999999999</ele><time>2026-04-12T09:23:00.975Z</time></trkpt><trkpt lat="38.0488433" lon="15.9479933"><ele>964.1999999999999</ele><time>2026-04-12T09:23:01.975Z</time></trkpt><trkpt lat="38.0488733" lon="15.9478833"><ele>960.8000000000001</ele><time>2026-04-12T09:23:02.974Z</time></trkpt><trkpt lat="38.048905" lon="15.947795"><ele>957.4000000000001</ele><time>2026-04-12T09:23:03.974Z</time></trkpt><trkpt lat="38.0489933" lon="15.94775"><ele>954.0</ele><time>2026-04-12T09:23:05.974Z</time></trkpt><trkpt lat="38.0490467" lon="15.9478683"><ele>954.0</ele><time>2026-04-12T09:23:07.975Z</time></trkpt><trkpt lat="38.0490383" lon="15.9479667"><ele>954.0000000000001</ele><time>2026-04-12T09:23:08.974Z</time></trkpt><trkpt lat="38.0490267" lon="15.9480883"><ele>954.0000000000001</ele><time>2026-04-12T09:23:09.974Z</time></trkpt><trkpt lat="38.048995" lon="15.948225"><ele>954.0</ele><time>2026-04-12T09:23:10.974Z</time></trkpt><trkpt lat="38.04896" lon="15.948375"><ele>954.0</ele><time>2026-04-12T09:23:11.974Z</time></trkpt><trkpt lat="38.0489283" lon="15.9485183"><ele>957.4000000000001</ele><time>2026-04-12T09:23:12.974Z</time></trkpt><trkpt lat="38.0488967" lon="15.94865"><ele>960.8000000000001</ele><time>2026-04-12T09:23:13.974Z</time></trkpt><trkpt lat="38.0488467" lon="15.9487667"><ele>964.1999999999999</ele><time>2026-04-12T09:23:14.975Z</time></trkpt><trkpt lat="38.04878" lon="15.94887"><ele>967.5999999999999</ele><time>2026-04-12T09:23:15.975Z</time></trkpt><trkpt lat="38.048705" lon="15.9489783"><ele>971.0</ele><time>2026-04-12T09:23:16.974Z</time></trkpt><trkpt lat="38.0486283" lon="15.94909"><ele>975.0</ele><time>2026-04-12T09:23:17.974Z</time></trkpt><trkpt lat="38.048565" lon="15.9492183"><ele>979.0</ele><time>2026-04-12T09:23:18.975Z</time></trkpt><trkpt lat="38.04852" lon="15.9493633"><ele>983.0</ele><time>2026-04-12T09:23:19.974Z</time></trkpt><trkpt lat="38.048495" lon="15.9495217"><ele>987.0</ele><time>2026-04-12T09:23:20.975Z</time></trkpt><trkpt lat="38.0484783" lon="15.9496883"><ele>987.0</ele><time>2026-04-12T09:23:21.974Z</time></trkpt><trkpt lat="38.04847" lon="15.9498517"><ele>987.0</ele><time>2026-04-12T09:23:22.975Z</time></trkpt><trkpt lat="38.048475" lon="15.95"><ele>987.0</ele><time>2026-04-12T09:23:23.974Z</time></trkpt><trkpt lat="38.0484883" lon="15.9501583"><ele>987.0</ele><time>2026-04-12T09:23:24.974Z</time></trkpt><trkpt lat="38.04851" lon="15.950315"><ele>986.0</ele><time>2026-04-12T09:23:25.974Z</time></trkpt><trkpt lat="38.0485267" lon="15.9504567"><ele>985.0</ele><time>2026-04-12T09:23:26.974Z</time></trkpt><trkpt lat="38.0485417" lon="15.950595"><ele>984.0</ele><time>2026-04-12T09:23:27.974Z</time></trkpt><trkpt lat="38.0485483" lon="15.950715"><ele>983.0</ele><time>2026-04-12T09:23:28.974Z</time></trkpt><trkpt lat="38.0485467" lon="15.950815"><ele>982.0</ele><time>2026-04-12T09:23:29.974Z</time></trkpt><trkpt lat="38.04851" lon="15.95094"><ele>982.0</ele><time>2026-04-12T09:23:31.975Z</time></trkpt><trkpt lat="38.0483967" lon="15.9510183"><ele>982.0</ele><time>2026-04-12T09:23:33.974Z</time></trkpt><trkpt lat="38.0483067" lon="15.951045"><ele>982.0</ele><time>2026-04-12T09:23:34.974Z</time></trkpt><trkpt lat="38.048205" lon="15.95106"><ele>982.0</ele><time>2026-04-12T09:23:35.974Z</time></trkpt><trkpt lat="38.0480933" lon="15.9510717"><ele>982.0</ele><time>2026-04-12T09:23:36.974Z</time></trkpt><trkpt lat="38.0479683" lon="15.9510767"><ele>984.0</ele><time>2026-04-12T09:23:37.974Z</time></trkpt><trkpt lat="38.0478383" lon="15.9510783"><ele>986.0</ele><time>2026-04-12T09:23:38.974Z</time></trkpt><trkpt lat="38.0477167" lon="15.95108"><ele>988.0</ele><time>2026-04-12T09:23:39.974Z</time></trkpt><trkpt lat="38.0476083" lon="15.9510767"><ele>990.0</ele><time>2026-04-12T09:23:40.975Z</time></trkpt><trkpt lat="38.0475117" lon="15.9510583"><ele>990.5</ele><time>2026-04-12T09:23:41.975Z</time></trkpt><trkpt lat="38.0474367" lon="15.95101"><ele>991.0</ele><time>2026-04-12T09:23:42.975Z</time></trkpt><trkpt lat="38.0473733" lon="15.9509433"><ele>991.5</ele><time>2026-04-12T09:23:43.974Z</time></trkpt><trkpt lat="38.0473333" lon="15.9508383"><ele>992.0</ele><time>2026-04-12T09:23:44.975Z</time></trkpt><trkpt lat="38.0473167" lon="15.9507233"><ele>992.5</ele><time>2026-04-12T09:23:45.975Z</time></trkpt><trkpt lat="38.0472867" lon="15.950605"><ele>993.0</ele><time>2026-04-12T09:23:46.974Z</time></trkpt><trkpt lat="38.04725" lon="15.9504867"><ele>999.5</ele><time>2026-04-12T09:23:47.975Z</time></trkpt><trkpt lat="38.0471883" lon="15.95036"><ele>1006.0</ele><time>2026-04-12T09:23:48.974Z</time></trkpt><trkpt lat="38.0471083" lon="15.9502367"><ele>1012.5</ele><time>2026-04-12T09:23:49.974Z</time></trkpt><trkpt lat="38.0470217" lon="15.95012"><ele>1019.0</ele><time>2026-04-12T09:23:50.975Z</time></trkpt><trkpt lat="38.0469333" lon="15.9500317"><ele>1019.0000000000001</ele><time>2026-04-12T09:23:51.974Z</time></trkpt><trkpt lat="38.046865" lon="15.9499533"><ele>1019.0</ele><time>2026-04-12T09:23:52.974Z</time></trkpt><trkpt lat="38.046795" lon="15.9499083"><ele>1019.0</ele><time>2026-04-12T09:23:53.974Z</time></trkpt><trkpt lat="38.04673" lon="15.94988"><ele>1019.0</ele><time>2026-04-12T09:23:54.974Z</time></trkpt><trkpt lat="38.046665" lon="15.9498817"><ele>1019.0000000000001</ele><time>2026-04-12T09:23:55.975Z</time></trkpt><trkpt lat="38.04661" lon="15.94993"><ele>1019.0</ele><time>2026-04-12T09:23:56.974Z</time></trkpt><trkpt lat="38.046575" lon="15.9500317"><ele>1020.8000000000001</ele><time>2026-04-12T09:23:57.974Z</time></trkpt><trkpt lat="38.0465683" lon="15.9501717"><ele>1022.6000000000001</ele><time>2026-04-12T09:23:58.974Z</time></trkpt><trkpt lat="38.0465733" lon="15.9503083"><ele>1024.4</ele><time>2026-04-12T09:23:59.974Z</time></trkpt><trkpt lat="38.04658" lon="15.950435"><ele>1026.2</ele><time>2026-04-12T09:24:00.974Z</time></trkpt><trkpt lat="38.0465667" lon="15.9505383"><ele>1028.0</ele><time>2026-04-12T09:24:01.974Z</time></trkpt><trkpt lat="38.0465283" lon="15.9506083"><ele>1028.0</ele><time>2026-04-12T09:24:02.974Z</time></trkpt><trkpt lat="38.04646" lon="15.9506517"><ele>1028.0</ele><time>2026-04-12T09:24:03.974Z</time></trkpt><trkpt lat="38.0463617" lon="15.95066"><ele>1028.0</ele><time>2026-04-12T09:24:04.975Z</time></trkpt><trkpt lat="38.0462383" lon="15.9506483"><ele>1028.0</ele><time>2026-04-12T09:24:05.974Z</time></trkpt><trkpt lat="38.0460883" lon="15.9506333"><ele>1028.0</ele><time>2026-04-12T09:24:06.974Z</time></trkpt><trkpt lat="38.0459333" lon="15.95062"><ele>1035.0</ele><time>2026-04-12T09:24:07.974Z</time></trkpt><trkpt lat="38.0457833" lon="15.950615"><ele>1042.0</ele><time>2026-04-12T09:24:08.974Z</time></trkpt><trkpt lat="38.0456267" lon="15.9506217"><ele>1049.0</ele><time>2026-04-12T09:24:09.974Z</time></trkpt><trkpt lat="38.04548" lon="15.9506383"><ele>1049.0</ele><time>2026-04-12T09:24:10.974Z</time></trkpt><trkpt lat="38.0453383" lon="15.9506583"><ele>1049.0</ele><time>2026-04-12T09:24:11.974Z</time></trkpt><trkpt lat="38.0452267" lon="15.9506733"><ele>1049.0</ele><time>2026-04-12T09:24:12.974Z</time></trkpt><trkpt lat="38.045125" lon="15.95067"><ele>1049.0</ele><time>2026-04-12T09:24:13.975Z</time></trkpt><trkpt lat="38.04504" lon="15.9506317"><ele>1049.0</ele><time>2026-04-12T09:24:14.974Z</time></trkpt><trkpt lat="38.0449667" lon="15.9505983"><ele>1048.3333333333335</ele><time>2026-04-12T09:24:15.974Z</time></trkpt><trkpt lat="38.0449" lon="15.950595"><ele>1047.6666666666667</ele><time>2026-04-12T09:24:16.974Z</time></trkpt><trkpt lat="38.04481" lon="15.9507133"><ele>1047.0</ele><time>2026-04-12T09:24:18.975Z</time></trkpt><trkpt lat="38.0447783" lon="15.9507917"><ele>1046.3333333333333</ele><time>2026-04-12T09:24:19.975Z</time></trkpt><trkpt lat="38.0447517" lon="15.9508883"><ele>1045.6666666666665</ele><time>2026-04-12T09:24:20.974Z</time></trkpt><trkpt lat="38.0447333" lon="15.9510017"><ele>1045.0</ele><time>2026-04-12T09:24:21.974Z</time></trkpt><trkpt lat="38.0447083" lon="15.9511233"><ele>1045.0</ele><time>2026-04-12T09:24:22.975Z</time></trkpt><trkpt lat="38.0446683" lon="15.951235"><ele>1045.0</ele><time>2026-04-12T09:24:23.975Z</time></trkpt><trkpt lat="38.0446367" lon="15.95132"><ele>1045.0</ele><time>2026-04-12T09:24:24.974Z</time></trkpt><trkpt lat="38.04457" lon="15.951365"><ele>1045.0</ele><time>2026-04-12T09:24:25.974Z</time></trkpt><trkpt lat="38.0444933" lon="15.951375"><ele>1045.0</ele><time>2026-04-12T09:24:26.974Z</time></trkpt><trkpt lat="38.0444067" lon="15.9513617"><ele>1045.0</ele><time>2026-04-12T09:24:27.975Z</time></trkpt><trkpt lat="38.0443217" lon="15.9513383"><ele>1045.0</ele><time>2026-04-12T09:24:28.974Z</time></trkpt><trkpt lat="38.0442533" lon="15.9513"><ele>1045.0</ele><time>2026-04-12T09:24:29.974Z</time></trkpt><trkpt lat="38.0442267" lon="15.95121"><ele>1045.0</ele><time>2026-04-12T09:24:31.974Z</time></trkpt><trkpt lat="38.0442817" lon="15.951165"><ele>1045.0</ele><time>2026-04-12T09:24:33.974Z</time></trkpt><trkpt lat="38.0443833" lon="15.9511567"><ele>1045.0</ele><time>2026-04-12T09:24:35.974Z</time></trkpt><trkpt lat="38.0444733" lon="15.95112"><ele>1045.0</ele><time>2026-04-12T09:24:37.974Z</time></trkpt><trkpt lat="38.04456" lon="15.9510167"><ele>1045.0</ele><time>2026-04-12T09:24:39.974Z</time></trkpt><trkpt lat="38.0445867" lon="15.950935"><ele>1045.0</ele><time>2026-04-12T09:24:40.974Z</time></trkpt><trkpt lat="38.0445967" lon="15.9508333"><ele>1045.0</ele><time>2026-04-12T09:24:41.975Z</time></trkpt><trkpt lat="38.0445967" lon="15.9507217"><ele>1045.0</ele><time>2026-04-12T09:24:42.974Z</time></trkpt><trkpt lat="38.0445883" lon="15.9505883"><ele>1045.0</ele><time>2026-04-12T09:24:43.974Z</time></trkpt><trkpt lat="38.0445783" lon="15.9504567"><ele>1045.0</ele><time>2026-04-12T09:24:44.974Z</time></trkpt><trkpt lat="38.0445567" lon="15.9503333"><ele>1052.4</ele><time>2026-04-12T09:24:45.974Z</time></trkpt><trkpt lat="38.0445317" lon="15.9502117"><ele>1059.8</ele><time>2026-04-12T09:24:46.974Z</time></trkpt><trkpt lat="38.0445017" lon="15.9500867"><ele>1067.2</ele><time>2026-04-12T09:24:47.974Z</time></trkpt><trkpt lat="38.0444667" lon="15.949975"><ele>1074.6</ele><time>2026-04-12T09:24:48.974Z</time></trkpt><trkpt lat="38.0444217" lon="15.949885"><ele>1082.0</ele><time>2026-04-12T09:24:49.975Z</time></trkpt><trkpt lat="38.0443533" lon="15.94982"><ele>1084.0</ele><time>2026-04-12T09:24:50.974Z</time></trkpt><trkpt lat="38.0442633" lon="15.949765"><ele>1086.0</ele><time>2026-04-12T09:24:51.974Z</time></trkpt><trkpt lat="38.0441517" lon="15.9497217"><ele>1088.0</ele><time>2026-04-12T09:24:52.974Z</time></trkpt><trkpt lat="38.04403" lon="15.9496783"><ele>1090.0</ele><time>2026-04-12T09:24:53.974Z</time></trkpt><trkpt lat="38.04392" lon="15.94962"><ele>1097.0</ele><time>2026-04-12T09:24:54.974Z</time></trkpt><trkpt lat="38.0438233" lon="15.94955"><ele>1104.0</ele><time>2026-04-12T09:24:55.975Z</time></trkpt><trkpt lat="38.04374" lon="15.9494867"><ele>1111.0</ele><time>2026-04-12T09:24:56.974Z</time></trkpt><trkpt lat="38.0436683" lon="15.949425"><ele>1118.0</ele><time>2026-04-12T09:24:57.974Z</time></trkpt><trkpt lat="38.0436067" lon="15.94937"><ele>1125.0</ele><time>2026-04-12T09:24:58.974Z</time></trkpt><trkpt lat="38.043525" lon="15.949335"><ele>1125.0</ele><time>2026-04-12T09:25:00.974Z</time></trkpt><trkpt lat="38.0436283" lon="15.949505"><ele>1125.0</ele><time>2026-04-12T09:25:04.974Z</time></trkpt><trkpt lat="38.0437033" lon="15.9496017"><ele>1125.0</ele><time>2026-04-12T09:25:05.974Z</time></trkpt><trkpt lat="38.04381" lon="15.949735"><ele>1125.0</ele><time>2026-04-12T09:25:06.974Z</time></trkpt><trkpt lat="38.0439267" lon="15.9498667"><ele>1125.0</ele><time>2026-04-12T09:25:07.974Z</time></trkpt><trkpt lat="38.0440117" lon="15.9499917"><ele>1125.0</ele><time>2026-04-12T09:25:08.974Z</time></trkpt><trkpt lat="38.0440783" lon="15.9500967"><ele>1125.0</ele><time>2026-04-12T09:25:09.974Z</time></trkpt><trkpt lat="38.04412" lon="15.95021"><ele>1125.0</ele><time>2026-04-12T09:25:10.974Z</time></trkpt><trkpt lat="38.04414" lon="15.9503167"><ele>1125.0</ele><time>2026-04-12T09:25:11.974Z</time></trkpt><trkpt lat="38.044145" lon="15.9504167"><ele>1124.6</ele><time>2026-04-12T09:25:12.975Z</time></trkpt><trkpt lat="38.0440917" lon="15.9505083"><ele>1124.2</ele><time>2026-04-12T09:25:14.975Z</time></trkpt><trkpt lat="38.044015" lon="15.95043"><ele>1123.8</ele><time>2026-04-12T09:25:16.975Z</time></trkpt><trkpt lat="38.0439683" lon="15.9503333"><ele>1123.4</ele><time>2026-04-12T09:25:17.974Z</time></trkpt><trkpt lat="38.04392" lon="15.9502217"><ele>1123.0</ele><time>2026-04-12T09:25:18.974Z</time></trkpt><trkpt lat="38.0438467" lon="15.9501217"><ele>1123.4</ele><time>2026-04-12T09:25:19.974Z</time></trkpt><trkpt lat="38.043765" lon="15.9500333"><ele>1123.8</ele><time>2026-04-12T09:25:20.974Z</time></trkpt><trkpt lat="38.0436817" lon="15.9499433"><ele>1124.2</ele><time>2026-04-12T09:25:21.974Z</time></trkpt><trkpt lat="38.0435967" lon="15.9498683"><ele>1124.6</ele><time>2026-04-12T09:25:22.975Z</time></trkpt><trkpt lat="38.0435233" lon="15.9497967"><ele>1125.0</ele><time>2026-04-12T09:25:23.974Z</time></trkpt><trkpt lat="38.0434617" lon="15.9497533"><ele>1125.0</ele><time>2026-04-12T09:25:24.974Z</time></trkpt><trkpt lat="38.0433983" lon="15.9497567"><ele>1125.0</ele><time>2026-04-12T09:25:26.974Z</time></trkpt><trkpt lat="38.0434517" lon="15.9498817"><ele>1125.0</ele><time>2026-04-12T09:25:28.974Z</time></trkpt><trkpt lat="38.0435083" lon="15.9499917"><ele>1125.0</ele><time>2026-04-12T09:25:29.974Z</time></trkpt><trkpt lat="38.0435517" lon="15.9501067"><ele>1125.0</ele><time>2026-04-12T09:25:30.974Z</time></trkpt><trkpt lat="38.04357" lon="15.950205"><ele>1125.0</ele><time>2026-04-12T09:25:31.974Z</time></trkpt><trkpt lat="38.0435833" lon="15.9502883"><ele>1125.0</ele><time>2026-04-12T09:25:32.974Z</time></trkpt><trkpt lat="38.0435733" lon="15.950395"><ele>1125.0</ele><time>2026-04-12T09:25:34.974Z</time></trkpt><trkpt lat="38.04352" lon="15.95033"><ele>1125.0</ele><time>2026-04-12T09:25:36.974Z</time></trkpt><trkpt lat="38.04348" lon="15.950175"><ele>1125.0</ele><time>2026-04-12T09:25:38.974Z</time></trkpt><trkpt lat="38.0434433" lon="15.9500683"><ele>1125.0</ele><time>2026-04-12T09:25:39.974Z</time></trkpt><trkpt lat="38.043385" lon="15.9499767"><ele>1125.0</ele><time>2026-04-12T09:25:40.974Z</time></trkpt><trkpt lat="38.0433133" lon="15.9499167"><ele>1125.0</ele><time>2026-04-12T09:25:41.974Z</time></trkpt><trkpt lat="38.043215" lon="15.9498683"><ele>1125.0</ele><time>2026-04-12T09:25:42.974Z</time></trkpt><trkpt lat="38.0430933" lon="15.9498433"><ele>1125.0</ele><time>2026-04-12T09:25:43.974Z</time></trkpt><trkpt lat="38.0429533" lon="15.9498317"><ele>1131.0</ele><time>2026-04-12T09:25:44.974Z</time></trkpt><trkpt lat="38.0428317" lon="15.949805"><ele>1137.0</ele><time>2026-04-12T09:25:45.974Z</time></trkpt><trkpt lat="38.0427283" lon="15.9497883"><ele>1143.0</ele><time>2026-04-12T09:25:46.975Z</time></trkpt><trkpt lat="38.0426433" lon="15.9497517"><ele>1149.0</ele><time>2026-04-12T09:25:47.974Z</time></trkpt><trkpt lat="38.0425733" lon="15.9496983"><ele>1155.0</ele><time>2026-04-12T09:25:48.971Z</time></trkpt><trkpt lat="38.0425133" lon="15.949635"><ele>1155.0</ele><time>2026-04-12T09:25:49.975Z</time></trkpt><trkpt lat="38.0424633" lon="15.9495583"><ele>1155.0</ele><time>2026-04-12T09:25:50.974Z</time></trkpt><trkpt lat="38.0424183" lon="15.9495"><ele>1155.0</ele><time>2026-04-12T09:25:51.974Z</time></trkpt><trkpt lat="38.0423467" lon="15.949455"><ele>1155.0</ele><time>2026-04-12T09:25:53.975Z</time></trkpt><trkpt lat="38.042445" lon="15.9496883"><ele>1155.0</ele><time>2026-04-12T09:25:57.974Z</time></trkpt><trkpt lat="38.042545" lon="15.9498267"><ele>1155.0</ele><time>2026-04-12T09:25:58.974Z</time></trkpt><trkpt lat="38.04266" lon="15.9499417"><ele>1155.0</ele><time>2026-04-12T09:25:59.974Z</time></trkpt><trkpt lat="38.0427633" lon="15.95002"><ele>1155.0</ele><time>2026-04-12T09:26:00.975Z</time></trkpt><trkpt lat="38.0428483" lon="15.9500783"><ele>1155.0</ele><time>2026-04-12T09:26:01.975Z</time></trkpt><trkpt lat="38.0429317" lon="15.9501233"><ele>1154.8333333333333</ele><time>2026-04-12T09:26:02.974Z</time></trkpt><trkpt lat="38.0430067" lon="15.9501667"><ele>1154.6666666666667</ele><time>2026-04-12T09:26:03.974Z</time></trkpt><trkpt lat="38.0430683" lon="15.9502017"><ele>1154.5</ele><time>2026-04-12T09:26:04.974Z</time></trkpt><trkpt lat="38.0431383" lon="15.9502533"><ele>1154.3333333333335</ele><time>2026-04-12T09:26:06.974Z</time></trkpt><trkpt lat="38.0431433" lon="15.9503367"><ele>1154.1666666666667</ele><time>2026-04-12T09:26:10.974Z</time></trkpt><trkpt lat="38.0430133" lon="15.95031"><ele>1154.0</ele><time>2026-04-12T09:27:23.974Z</time></trkpt><trkpt lat="38.042915" lon="15.9502317"><ele>1154.0</ele><time>2026-04-12T09:27:25.974Z</time></trkpt><trkpt lat="38.0428433" lon="15.950185"><ele>1154.0</ele><time>2026-04-12T09:27:26.974Z</time></trkpt><trkpt lat="38.0427667" lon="15.9501383"><ele>1154.0</ele><time>2026-04-12T09:27:27.974Z</time></trkpt><trkpt lat="38.0426717" lon="15.9500917"><ele>1154.0</ele><time>2026-04-12T09:27:28.974Z</time></trkpt><trkpt lat="38.0425717" lon="15.95004"><ele>1154.0</ele><time>2026-04-12T09:27:29.974Z</time></trkpt><trkpt lat="38.0424683" lon="15.9499817"><ele>1160.0</ele><time>2026-04-12T09:27:30.974Z</time></trkpt><trkpt lat="38.042355" lon="15.9499067"><ele>1166.0</ele><time>2026-04-12T09:27:31.975Z</time></trkpt><trkpt lat="38.04224" lon="15.949825"><ele>1172.0</ele><time>2026-04-12T09:27:32.975Z</time></trkpt><trkpt lat="38.0421617" lon="15.9497367"><ele>1178.0</ele><time>2026-04-12T09:27:33.975Z</time></trkpt><trkpt lat="38.042075" lon="15.9496733"><ele>1178.0</ele><time>2026-04-12T09:27:34.974Z</time></trkpt><trkpt lat="38.0420017" lon="15.9496117"><ele>1178.0</ele><time>2026-04-12T09:27:35.974Z</time></trkpt><trkpt lat="38.0419383" lon="15.9495583"><ele>1178.0</ele><time>2026-04-12T09:27:36.974Z</time></trkpt><trkpt lat="38.0418583" lon="15.9494967"><ele>1178.0</ele><time>2026-04-12T09:27:38.974Z</time></trkpt><trkpt lat="38.0417967" lon="15.9495133"><ele>1178.0</ele><time>2026-04-12T09:27:40.974Z</time></trkpt><trkpt lat="38.0418367" lon="15.9496333"><ele>1178.0</ele><time>2026-04-12T09:27:43.974Z</time></trkpt><trkpt lat="38.041905" lon="15.94972"><ele>1178.0</ele><time>2026-04-12T09:27:44.974Z</time></trkpt><trkpt lat="38.0419883" lon="15.9498067"><ele>1178.0</ele><time>2026-04-12T09:27:45.974Z</time></trkpt><trkpt lat="38.0420983" lon="15.9499217"><ele>1178.0</ele><time>2026-04-12T09:27:46.975Z</time></trkpt><trkpt lat="38.0422283" lon="15.950065"><ele>1178.0</ele><time>2026-04-12T09:27:47.975Z</time></trkpt><trkpt lat="38.0423317" lon="15.950185"><ele>1174.4</ele><time>2026-04-12T09:27:48.974Z</time></trkpt><trkpt lat="38.042405" lon="15.9503017"><ele>1170.8</ele><time>2026-04-12T09:27:49.974Z</time></trkpt><trkpt lat="38.0424617" lon="15.95039"><ele>1167.2</ele><time>2026-04-12T09:27:50.974Z</time></trkpt><trkpt lat="38.042525" lon="15.95049"><ele>1163.6</ele><time>2026-04-12T09:27:52.974Z</time></trkpt><trkpt lat="38.0424783" lon="15.950545"><ele>1160.0</ele><time>2026-04-12T09:27:55.974Z</time></trkpt><trkpt lat="38.04239" lon="15.9504767"><ele>1160.0</ele><time>2026-04-12T09:27:57.974Z</time></trkpt><trkpt lat="38.0423233" lon="15.950405"><ele>1160.0</ele><time>2026-04-12T09:27:58.975Z</time></trkpt><trkpt lat="38.0422417" lon="15.950315"><ele>1160.0</ele><time>2026-04-12T09:27:59.974Z</time></trkpt><trkpt lat="38.0421517" lon="15.9502267"><ele>1160.0</ele><time>2026-04-12T09:28:00.975Z</time></trkpt><trkpt lat="38.0420633" lon="15.9501517"><ele>1160.0</ele><time>2026-04-12T09:28:01.974Z</time></trkpt><trkpt lat="38.0419517" lon="15.950085"><ele>1163.6</ele><time>2026-04-12T09:28:02.974Z</time></trkpt><trkpt lat="38.041835" lon="15.9500133"><ele>1167.2</ele><time>2026-04-12T09:28:03.974Z</time></trkpt><trkpt lat="38.0417233" lon="15.9499483"><ele>1170.8</ele><time>2026-04-12T09:28:04.974Z</time></trkpt><trkpt lat="38.041635" lon="15.9498883"><ele>1174.4</ele><time>2026-04-12T09:28:05.974Z</time></trkpt><trkpt lat="38.0415667" lon="15.9498183"><ele>1178.0</ele><time>2026-04-12T09:28:06.974Z</time></trkpt><trkpt lat="38.0415133" lon="15.9497683"><ele>1177.6666666666667</ele><time>2026-04-12T09:28:07.974Z</time></trkpt><trkpt lat="38.0414433" lon="15.94976"><ele>1177.3333333333335</ele><time>2026-04-12T09:28:09.974Z</time></trkpt><trkpt lat="38.04145" lon="15.9498533"><ele>1177.0</ele><time>2026-04-12T09:28:11.974Z</time></trkpt><trkpt lat="38.04149" lon="15.94992"><ele>1176.6666666666667</ele><time>2026-04-12T09:28:12.974Z</time></trkpt><trkpt lat="38.0415517" lon="15.9499917"><ele>1176.3333333333333</ele><time>2026-04-12T09:28:13.975Z</time></trkpt><trkpt lat="38.0416167" lon="15.9500617"><ele>1176.0</ele><time>2026-04-12T09:28:14.974Z</time></trkpt><trkpt lat="38.0416733" lon="15.9501283"><ele>1176.0</ele><time>2026-04-12T09:28:15.975Z</time></trkpt><trkpt lat="38.041725" lon="15.9502383"><ele>1176.0</ele><time>2026-04-12T09:28:17.974Z</time></trkpt><trkpt lat="38.0416783" lon="15.9503017"><ele>1176.0</ele><time>2026-04-12T09:28:19.974Z</time></trkpt><trkpt lat="38.0415517" lon="15.9502583"><ele>1176.0</ele><time>2026-04-12T09:28:21.974Z</time></trkpt><trkpt lat="38.0414483" lon="15.9501967"><ele>1176.0</ele><time>2026-04-12T09:28:22.975Z</time></trkpt><trkpt lat="38.0413267" lon="15.950135"><ele>1176.0</ele><time>2026-04-12T09:28:23.974Z</time></trkpt><trkpt lat="38.04121" lon="15.9501"><ele>1176.0</ele><time>2026-04-12T09:28:24.974Z</time></trkpt><trkpt lat="38.0411017" lon="15.9501033"><ele>1176.0</ele><time>2026-04-12T09:28:25.974Z</time></trkpt><trkpt lat="38.0410117" lon="15.9501183"><ele>1176.0</ele><time>2026-04-12T09:28:26.974Z</time></trkpt><trkpt lat="38.0409233" lon="15.9501583"><ele>1176.0</ele><time>2026-04-12T09:28:27.974Z</time></trkpt><trkpt lat="38.0408367" lon="15.9501967"><ele>1181.0</ele><time>2026-04-12T09:28:28.975Z</time></trkpt><trkpt lat="38.04074" lon="15.950225"><ele>1186.0</ele><time>2026-04-12T09:28:29.975Z</time></trkpt><trkpt lat="38.0406267" lon="15.9502433"><ele>1191.0</ele><time>2026-04-12T09:28:30.974Z</time></trkpt><trkpt lat="38.0405217" lon="15.9502583"><ele>1196.0</ele><time>2026-04-12T09:28:31.974Z</time></trkpt><trkpt lat="38.040435" lon="15.9502867"><ele>1201.0</ele><time>2026-04-12T09:28:32.974Z</time></trkpt><trkpt lat="38.0403733" lon="15.9503183"><ele>1201.0</ele><time>2026-04-12T09:28:33.974Z</time></trkpt><trkpt lat="38.0402933" lon="15.9504167"><ele>1201.0</ele><time>2026-04-12T09:28:35.975Z</time></trkpt><trkpt lat="38.0402467" lon="15.9504833"><ele>1201.0</ele><time>2026-04-12T09:28:36.974Z</time></trkpt><trkpt lat="38.0401917" lon="15.9505567"><ele>1201.0</ele><time>2026-04-12T09:28:37.975Z</time></trkpt><trkpt lat="38.0401217" lon="15.9506167"><ele>1201.0</ele><time>2026-04-12T09:28:38.975Z</time></trkpt><trkpt lat="38.0400467" lon="15.9506433"><ele>1201.0</ele><time>2026-04-12T09:28:39.975Z</time></trkpt><trkpt lat="38.0399683" lon="15.9506467"><ele>1202.2857142857144</ele><time>2026-04-12T09:28:40.974Z</time></trkpt><trkpt lat="38.03988" lon="15.9506217"><ele>1203.5714285714287</ele><time>2026-04-12T09:28:41.974Z</time></trkpt><trkpt lat="38.0398117" lon="15.950585"><ele>1204.857142857143</ele><time>2026-04-12T09:28:42.974Z</time></trkpt><trkpt lat="38.0397617" lon="15.9505333"><ele>1206.1428571428573</ele><time>2026-04-12T09:28:43.974Z</time></trkpt><trkpt lat="38.0397233" lon="15.9504583"><ele>1207.4285714285716</ele><time>2026-04-12T09:28:44.974Z</time></trkpt><trkpt lat="38.0396783" lon="15.950385"><ele>1208.7142857142858</ele><time>2026-04-12T09:28:45.974Z</time></trkpt><trkpt lat="38.039625" lon="15.950325"><ele>1210.0</ele><time>2026-04-12T09:28:46.974Z</time></trkpt><trkpt lat="38.0395" lon="15.9503067"><ele>1210.0</ele><time>2026-04-12T09:28:48.975Z</time></trkpt><trkpt lat="38.0394383" lon="15.950335"><ele>1210.0</ele><time>2026-04-12T09:28:49.974Z</time></trkpt><trkpt lat="38.0393717" lon="15.950355"><ele>1210.0</ele><time>2026-04-12T09:28:50.975Z</time></trkpt><trkpt lat="38.0393" lon="15.9503533"><ele>1210.0</ele><time>2026-04-12T09:28:51.974Z</time></trkpt><trkpt lat="38.0392233" lon="15.95033"><ele>1210.0</ele><time>2026-04-12T09:28:52.974Z</time></trkpt><trkpt lat="38.0391467" lon="15.950295"><ele>1210.0</ele><time>2026-04-12T09:28:53.974Z</time></trkpt><trkpt lat="38.0390667" lon="15.9502667"><ele>1210.0</ele><time>2026-04-12T09:28:54.974Z</time></trkpt><trkpt lat="38.0389767" lon="15.9502817"><ele>1215.0</ele><time>2026-04-12T09:28:55.975Z</time></trkpt><trkpt lat="38.0388883" lon="15.95032"><ele>1220.0</ele><time>2026-04-12T09:28:56.974Z</time></trkpt><trkpt lat="38.0388" lon="15.9503633"><ele>1225.0</ele><time>2026-04-12T09:28:57.975Z</time></trkpt><trkpt lat="38.038715" lon="15.95041"><ele>1230.0</ele><time>2026-04-12T09:28:58.974Z</time></trkpt><trkpt lat="38.03864" lon="15.9504733"><ele>1235.0</ele><time>2026-04-12T09:28:59.974Z</time></trkpt><trkpt lat="38.0385717" lon="15.9505617"><ele>1235.0</ele><time>2026-04-12T09:29:00.974Z</time></trkpt><trkpt lat="38.03853" lon="15.9506733"><ele>1235.0</ele><time>2026-04-12T09:29:01.974Z</time></trkpt><trkpt lat="38.0384883" lon="15.9507967"><ele>1235.0</ele><time>2026-04-12T09:29:02.974Z</time></trkpt><trkpt lat="38.0384517" lon="15.950935"><ele>1235.0</ele><time>2026-04-12T09:29:03.975Z</time></trkpt><trkpt lat="38.0384183" lon="15.9510717"><ele>1235.0</ele><time>2026-04-12T09:29:04.974Z</time></trkpt><trkpt lat="38.0383917" lon="15.9512"><ele>1236.0</ele><time>2026-04-12T09:29:05.974Z</time></trkpt><trkpt lat="38.0383667" lon="15.9512967"><ele>1237.0</ele><time>2026-04-12T09:29:06.974Z</time></trkpt><trkpt lat="38.0383317" lon="15.951375"><ele>1238.0</ele><time>2026-04-12T09:29:07.975Z</time></trkpt><trkpt lat="38.038275" lon="15.9514317"><ele>1239.0</ele><time>2026-04-12T09:29:08.975Z</time></trkpt><trkpt lat="38.0382067" lon="15.9514783"><ele>1240.0</ele><time>2026-04-12T09:29:09.975Z</time></trkpt><trkpt lat="38.038145" lon="15.9515317"><ele>1241.0</ele><time>2026-04-12T09:29:10.974Z</time></trkpt><trkpt lat="38.0380933" lon="15.9516033"><ele>1241.0</ele><time>2026-04-12T09:29:11.974Z</time></trkpt><trkpt lat="38.0380517" lon="15.9516967"><ele>1241.0</ele><time>2026-04-12T09:29:12.974Z</time></trkpt><trkpt lat="38.0380217" lon="15.9517983"><ele>1241.0</ele><time>2026-04-12T09:29:13.974Z</time></trkpt><trkpt lat="38.0380083" lon="15.9519017"><ele>1241.0</ele><time>2026-04-12T09:29:14.974Z</time></trkpt><trkpt lat="38.038005" lon="15.95203"><ele>1241.0</ele><time>2026-04-12T09:29:15.975Z</time></trkpt><trkpt lat="38.0380067" lon="15.95219"><ele>1241.8</ele><time>2026-04-12T09:29:16.974Z</time></trkpt><trkpt lat="38.0380183" lon="15.9523467"><ele>1242.6</ele><time>2026-04-12T09:29:17.974Z</time></trkpt><trkpt lat="38.0380267" lon="15.9524817"><ele>1243.4</ele><time>2026-04-12T09:29:18.974Z</time></trkpt><trkpt lat="38.0380317" lon="15.95258"><ele>1244.2</ele><time>2026-04-12T09:29:19.974Z</time></trkpt><trkpt lat="38.0380267" lon="15.95266"><ele>1245.0</ele><time>2026-04-12T09:29:20.975Z</time></trkpt><trkpt lat="38.03795" lon="15.95273"><ele>1245.0</ele><time>2026-04-12T09:29:22.974Z</time></trkpt><trkpt lat="38.0378683" lon="15.9527267"><ele>1245.0</ele><time>2026-04-12T09:29:24.974Z</time></trkpt><trkpt lat="38.0378" lon="15.9526533"><ele>1245.0</ele><time>2026-04-12T09:29:26.974Z</time></trkpt><trkpt lat="38.037755" lon="15.952595"><ele>1245.0</ele><time>2026-04-12T09:29:27.974Z</time></trkpt><trkpt lat="38.03769" lon="15.95251"><ele>1245.0</ele><time>2026-04-12T09:29:28.974Z</time></trkpt><trkpt lat="38.037605" lon="15.9524067"><ele>1245.0</ele><time>2026-04-12T09:29:29.975Z</time></trkpt><trkpt lat="38.0375167" lon="15.952295"><ele>1245.6</ele><time>2026-04-12T09:29:30.975Z</time></trkpt><trkpt lat="38.03744" lon="15.95219"><ele>1246.2</ele><time>2026-04-12T09:29:31.974Z</time></trkpt><trkpt lat="38.0373533" lon="15.9520833"><ele>1246.8</ele><time>2026-04-12T09:29:32.975Z</time></trkpt><trkpt lat="38.03729" lon="15.9519933"><ele>1247.4</ele><time>2026-04-12T09:29:33.974Z</time></trkpt><trkpt lat="38.037255" lon="15.95192"><ele>1248.0</ele><time>2026-04-12T09:29:34.974Z</time></trkpt><trkpt lat="38.03722" lon="15.9518317"><ele>1244.75</ele><time>2026-04-12T09:29:36.974Z</time></trkpt><trkpt lat="38.0371833" lon="15.951615"><ele>1241.5</ele><time>2026-04-12T09:29:46.974Z</time></trkpt><trkpt lat="38.0371683" lon="15.951445"><ele>1238.25</ele><time>2026-04-12T09:29:48.974Z</time></trkpt><trkpt lat="38.037155" lon="15.9513383"><ele>1235.0</ele><time>2026-04-12T09:29:49.974Z</time></trkpt><trkpt lat="38.03714" lon="15.9512233"><ele>1235.0</ele><time>2026-04-12T09:29:50.974Z</time></trkpt><trkpt lat="38.03711" lon="15.9511017"><ele>1235.0</ele><time>2026-04-12T09:29:51.974Z</time></trkpt><trkpt lat="38.037055" lon="15.950975"><ele>1235.0</ele><time>2026-04-12T09:29:52.974Z</time></trkpt><trkpt lat="38.0369667" lon="15.95084"><ele>1235.0</ele><time>2026-04-12T09:29:53.975Z</time></trkpt><trkpt lat="38.036895" lon="15.9507267"><ele>1235.2</ele><time>2026-04-12T09:29:54.974Z</time></trkpt><trkpt lat="38.0368317" lon="15.9506167"><ele>1235.4</ele><time>2026-04-12T09:29:55.975Z</time></trkpt><trkpt lat="38.0367567" lon="15.9505117"><ele>1235.6</ele><time>2026-04-12T09:29:56.974Z</time></trkpt><trkpt lat="38.03669" lon="15.95043"><ele>1235.8</ele><time>2026-04-12T09:29:57.974Z</time></trkpt><trkpt lat="38.0366183" lon="15.950375"><ele>1236.0</ele><time>2026-04-12T09:29:58.974Z</time></trkpt><trkpt lat="38.0365367" lon="15.95035"><ele>1233.75</ele><time>2026-04-12T09:29:59.974Z</time></trkpt><trkpt lat="38.0364317" lon="15.9503367"><ele>1231.5</ele><time>2026-04-12T09:30:00.974Z</time></trkpt><trkpt lat="38.036315" lon="15.9503283"><ele>1229.25</ele><time>2026-04-12T09:30:01.975Z</time></trkpt><trkpt lat="38.0361667" lon="15.9503217"><ele>1227.0</ele><time>2026-04-12T09:30:02.975Z</time></trkpt><trkpt lat="38.0360017" lon="15.950315"><ele>1227.0</ele><time>2026-04-12T09:30:03.974Z</time></trkpt><trkpt lat="38.0358467" lon="15.950305"><ele>1227.0</ele><time>2026-04-12T09:30:04.975Z</time></trkpt><trkpt lat="38.035715" lon="15.9502917"><ele>1227.0</ele><time>2026-04-12T09:30:05.975Z</time></trkpt><trkpt lat="38.0355983" lon="15.950255"><ele>1227.0</ele><time>2026-04-12T09:30:06.974Z</time></trkpt><trkpt lat="38.035505" lon="15.9501883"><ele>1225.25</ele><time>2026-04-12T09:30:07.975Z</time></trkpt><trkpt lat="38.035415" lon="15.9500967"><ele>1223.5</ele><time>2026-04-12T09:30:08.974Z</time></trkpt><trkpt lat="38.0353183" lon="15.9499883"><ele>1221.75</ele><time>2026-04-12T09:30:09.974Z</time></trkpt><trkpt lat="38.0352" lon="15.9498483"><ele>1220.0</ele><time>2026-04-12T09:30:10.974Z</time></trkpt><trkpt lat="38.0350583" lon="15.9496567"><ele>1212.0</ele><time>2026-04-12T09:30:11.974Z</time></trkpt><trkpt lat="38.0348983" lon="15.94947"><ele>1204.0</ele><time>2026-04-12T09:30:12.975Z</time></trkpt><trkpt lat="38.034725" lon="15.9492717"><ele>1206.6666666666665</ele><time>2026-04-12T09:30:13.975Z</time></trkpt><trkpt lat="38.0345983" lon="15.9490567"><ele>1209.3333333333333</ele><time>2026-04-12T09:30:14.975Z</time></trkpt><trkpt lat="38.0344617" lon="15.9489017"><ele>1212.0</ele><time>2026-04-12T09:30:15.974Z</time></trkpt><trkpt lat="38.0343217" lon="15.9487667"><ele>1212.0</ele><time>2026-04-12T09:30:16.974Z</time></trkpt><trkpt lat="38.0341833" lon="15.9486183"><ele>1212.0</ele><time>2026-04-12T09:30:17.974Z</time></trkpt><trkpt lat="38.0340233" lon="15.9484483"><ele>1212.0</ele><time>2026-04-12T09:30:18.974Z</time></trkpt><trkpt lat="38.0338583" lon="15.9482783"><ele>1213.6666666666667</ele><time>2026-04-12T09:30:19.974Z</time></trkpt><trkpt lat="38.0337217" lon="15.9480883"><ele>1215.3333333333335</ele><time>2026-04-12T09:30:20.974Z</time></trkpt><trkpt lat="38.0335733" lon="15.9479717"><ele>1217.0</ele><time>2026-04-12T09:30:21.974Z</time></trkpt><trkpt lat="38.033435" lon="15.9478383"><ele>1217.0</ele><time>2026-04-12T09:30:22.975Z</time></trkpt><trkpt lat="38.0333333" lon="15.9477167"><ele>1217.0</ele><time>2026-04-12T09:30:23.974Z</time></trkpt><trkpt lat="38.03323" lon="15.9476183"><ele>1217.0</ele><time>2026-04-12T09:30:24.974Z</time></trkpt><trkpt lat="38.03315" lon="15.94754"><ele>1217.0</ele><time>2026-04-12T09:30:25.974Z</time></trkpt><trkpt lat="38.0330883" lon="15.9474667"><ele>1215.0</ele><time>2026-04-12T09:30:26.974Z</time></trkpt><trkpt lat="38.0330483" lon="15.94739"><ele>1213.0</ele><time>2026-04-12T09:30:27.974Z</time></trkpt><trkpt lat="38.0330417" lon="15.94728"><ele>1211.0</ele><time>2026-04-12T09:30:28.974Z</time></trkpt><trkpt lat="38.0330483" lon="15.9471283"><ele>1209.0</ele><time>2026-04-12T09:30:29.974Z</time></trkpt><trkpt lat="38.0330633" lon="15.9469517"><ele>1207.0</ele><time>2026-04-12T09:30:30.974Z</time></trkpt><trkpt lat="38.0330817" lon="15.94677"><ele>1206.0</ele><time>2026-04-12T09:30:31.974Z</time></trkpt><trkpt lat="38.03309" lon="15.9465817"><ele>1205.0</ele><time>2026-04-12T09:30:32.974Z</time></trkpt><trkpt lat="38.033085" lon="15.946415"><ele>1204.0</ele><time>2026-04-12T09:30:33.974Z</time></trkpt><trkpt lat="38.0330583" lon="15.9462717"><ele>1203.0</ele><time>2026-04-12T09:30:34.974Z</time></trkpt><trkpt lat="38.033005" lon="15.9461617"><ele>1203.0</ele><time>2026-04-12T09:30:35.974Z</time></trkpt><trkpt lat="38.03293" lon="15.946085"><ele>1203.0</ele><time>2026-04-12T09:30:36.974Z</time></trkpt><trkpt lat="38.032825" lon="15.94603"><ele>1203.0</ele><time>2026-04-12T09:30:37.974Z</time></trkpt><trkpt lat="38.032705" lon="15.9459783"><ele>1203.0</ele><time>2026-04-12T09:30:38.975Z</time></trkpt><trkpt lat="38.0325633" lon="15.94594"><ele>1203.25</ele><time>2026-04-12T09:30:39.974Z</time></trkpt><trkpt lat="38.0324133" lon="15.945925"><ele>1203.5</ele><time>2026-04-12T09:30:40.974Z</time></trkpt><trkpt lat="38.0322733" lon="15.9459333"><ele>1203.75</ele><time>2026-04-12T09:30:41.974Z</time></trkpt><trkpt lat="38.0321483" lon="15.9459667"><ele>1204.0</ele><time>2026-04-12T09:30:42.974Z</time></trkpt><trkpt lat="38.0320317" lon="15.9460233"><ele>1204.0</ele><time>2026-04-12T09:30:43.975Z</time></trkpt><trkpt lat="38.0319117" lon="15.9460683"><ele>1204.0</ele><time>2026-04-12T09:30:44.974Z</time></trkpt><trkpt lat="38.0317867" lon="15.946105"><ele>1204.0</ele><time>2026-04-12T09:30:45.974Z</time></trkpt><trkpt lat="38.03166" lon="15.9461067"><ele>1204.0</ele><time>2026-04-12T09:30:46.974Z</time></trkpt><trkpt lat="38.031515" lon="15.9460883"><ele>1204.0</ele><time>2026-04-12T09:30:47.974Z</time></trkpt><trkpt lat="38.0313517" lon="15.94605"><ele>1204.0</ele><time>2026-04-12T09:30:48.974Z</time></trkpt><trkpt lat="38.0311867" lon="15.9460217"><ele>1204.0</ele><time>2026-04-12T09:30:49.975Z</time></trkpt><trkpt lat="38.0310133" lon="15.945975"><ele>1204.0</ele><time>2026-04-12T09:30:50.974Z</time></trkpt><trkpt lat="38.0308533" lon="15.9459017"><ele>1204.0</ele><time>2026-04-12T09:30:51.974Z</time></trkpt><trkpt lat="38.0306917" lon="15.94583"><ele>1204.0</ele><time>2026-04-12T09:30:52.974Z</time></trkpt><trkpt lat="38.030545" lon="15.945745"><ele>1205.6666666666665</ele><time>2026-04-12T09:30:53.974Z</time></trkpt><trkpt lat="38.030395" lon="15.945655"><ele>1207.3333333333333</ele><time>2026-04-12T09:30:54.974Z</time></trkpt><trkpt lat="38.03024" lon="15.9455467"><ele>1209.0</ele><time>2026-04-12T09:30:55.974Z</time></trkpt><trkpt lat="38.0300867" lon="15.94544"><ele>1208.0</ele><time>2026-04-12T09:30:56.974Z</time></trkpt><trkpt lat="38.02993" lon="15.9453333"><ele>1207.0</ele><time>2026-04-12T09:30:57.974Z</time></trkpt><trkpt lat="38.0298033" lon="15.945235"><ele>1206.0</ele><time>2026-04-12T09:30:58.975Z</time></trkpt><trkpt lat="38.0296783" lon="15.9451367"><ele>1206.25</ele><time>2026-04-12T09:30:59.974Z</time></trkpt><trkpt lat="38.029555" lon="15.9450367"><ele>1206.5</ele><time>2026-04-12T09:31:00.974Z</time></trkpt><trkpt lat="38.029435" lon="15.9449433"><ele>1206.75</ele><time>2026-04-12T09:31:01.974Z</time></trkpt><trkpt lat="38.029315" lon="15.944845"><ele>1207.0</ele><time>2026-04-12T09:31:02.974Z</time></trkpt><trkpt lat="38.0291983" lon="15.9447467"><ele>1206.0</ele><time>2026-04-12T09:31:03.975Z</time></trkpt><trkpt lat="38.0290833" lon="15.9446533"><ele>1205.0</ele><time>2026-04-12T09:31:04.974Z</time></trkpt><trkpt lat="38.0289717" lon="15.944565"><ele>1204.0</ele><time>2026-04-12T09:31:05.974Z</time></trkpt><trkpt lat="38.0288517" lon="15.94448"><ele>1203.0</ele><time>2026-04-12T09:31:06.974Z</time></trkpt><trkpt lat="38.0287417" lon="15.9443867"><ele>1203.0</ele><time>2026-04-12T09:31:07.975Z</time></trkpt><trkpt lat="38.0286317" lon="15.94429"><ele>1203.0</ele><time>2026-04-12T09:31:08.974Z</time></trkpt><trkpt lat="38.0285217" lon="15.944205"><ele>1203.0</ele><time>2026-04-12T09:31:09.974Z</time></trkpt><trkpt lat="38.0284133" lon="15.944125"><ele>1203.0</ele><time>2026-04-12T09:31:10.974Z</time></trkpt><trkpt lat="38.0283217" lon="15.9440417"><ele>1201.25</ele><time>2026-04-12T09:31:11.974Z</time></trkpt><trkpt lat="38.028225" lon="15.943965"><ele>1199.5</ele><time>2026-04-12T09:31:12.974Z</time></trkpt><trkpt lat="38.0281283" lon="15.9438867"><ele>1197.75</ele><time>2026-04-12T09:31:13.974Z</time></trkpt><trkpt lat="38.0280283" lon="15.943805"><ele>1196.0</ele><time>2026-04-12T09:31:14.974Z</time></trkpt><trkpt lat="38.0279233" lon="15.9437233"><ele>1196.0</ele><time>2026-04-12T09:31:15.974Z</time></trkpt><trkpt lat="38.0278267" lon="15.9436433"><ele>1196.0</ele><time>2026-04-12T09:31:16.975Z</time></trkpt><trkpt lat="38.0277383" lon="15.94357"><ele>1196.0</ele><time>2026-04-12T09:31:17.975Z</time></trkpt><trkpt lat="38.027655" lon="15.9435"><ele>1196.0</ele><time>2026-04-12T09:31:18.974Z</time></trkpt><trkpt lat="38.0275717" lon="15.94342"><ele>1196.0</ele><time>2026-04-12T09:31:19.974Z</time></trkpt><trkpt lat="38.0274833" lon="15.94334"><ele>1194.25</ele><time>2026-04-12T09:31:20.974Z</time></trkpt><trkpt lat="38.02739" lon="15.94326"><ele>1192.5</ele><time>2026-04-12T09:31:21.974Z</time></trkpt><trkpt lat="38.027295" lon="15.9431817"><ele>1190.75</ele><time>2026-04-12T09:31:22.974Z</time></trkpt><trkpt lat="38.0271967" lon="15.9430983"><ele>1189.0</ele><time>2026-04-12T09:31:23.975Z</time></trkpt><trkpt lat="38.0271017" lon="15.943015"><ele>1189.0</ele><time>2026-04-12T09:31:24.974Z</time></trkpt><trkpt lat="38.0270017" lon="15.94293"><ele>1189.0</ele><time>2026-04-12T09:31:25.974Z</time></trkpt><trkpt lat="38.0269083" lon="15.9428333"><ele>1189.0</ele><time>2026-04-12T09:31:26.974Z</time></trkpt><trkpt lat="38.026835" lon="15.942725"><ele>1189.0</ele><time>2026-04-12T09:31:27.974Z</time></trkpt><trkpt lat="38.0267817" lon="15.9426"><ele>1189.25</ele><time>2026-04-12T09:31:28.974Z</time></trkpt><trkpt lat="38.0267517" lon="15.9424617"><ele>1189.5</ele><time>2026-04-12T09:31:29.974Z</time></trkpt><trkpt lat="38.0267433" lon="15.9423133"><ele>1189.75</ele><time>2026-04-12T09:31:30.974Z</time></trkpt><trkpt lat="38.0267533" lon="15.9421567"><ele>1190.0</ele><time>2026-04-12T09:31:31.975Z</time></trkpt><trkpt lat="38.0267933" lon="15.94198"><ele>1190.0</ele><time>2026-04-12T09:31:32.974Z</time></trkpt><trkpt lat="38.02685" lon="15.941795"><ele>1190.0</ele><time>2026-04-12T09:31:33.974Z</time></trkpt><trkpt lat="38.0269167" lon="15.941625"><ele>1190.0</ele><time>2026-04-12T09:31:34.974Z</time></trkpt><trkpt lat="38.0269833" lon="15.9414683"><ele>1190.0</ele><time>2026-04-12T09:31:35.974Z</time></trkpt><trkpt lat="38.027025" lon="15.9413267"><ele>1189.1666666666667</ele><time>2026-04-12T09:31:36.975Z</time></trkpt><trkpt lat="38.0270417" lon="15.9412133"><ele>1188.3333333333335</ele><time>2026-04-12T09:31:37.975Z</time></trkpt><trkpt lat="38.0270283" lon="15.9411217"><ele>1187.5</ele><time>2026-04-12T09:31:38.974Z</time></trkpt><trkpt lat="38.026985" lon="15.9410567"><ele>1186.6666666666667</ele><time>2026-04-12T09:31:39.975Z</time></trkpt><trkpt lat="38.0269117" lon="15.9410433"><ele>1185.8333333333333</ele><time>2026-04-12T09:31:40.974Z</time></trkpt><trkpt lat="38.0268333" lon="15.9410833"><ele>1185.0</ele><time>2026-04-12T09:31:41.974Z</time></trkpt><trkpt lat="38.026765" lon="15.9411767"><ele>1185.0</ele><time>2026-04-12T09:31:42.974Z</time></trkpt><trkpt lat="38.0267033" lon="15.941325"><ele>1185.0</ele><time>2026-04-12T09:31:43.974Z</time></trkpt><trkpt lat="38.026635" lon="15.941495"><ele>1185.0</ele><time>2026-04-12T09:31:44.975Z</time></trkpt><trkpt lat="38.0265533" lon="15.941695"><ele>1180.3333333333333</ele><time>2026-04-12T09:31:45.974Z</time></trkpt><trkpt lat="38.0264767" lon="15.9419067"><ele>1175.6666666666665</ele><time>2026-04-12T09:31:46.974Z</time></trkpt><trkpt lat="38.0264067" lon="15.9421117"><ele>1171.0</ele><time>2026-04-12T09:31:47.974Z</time></trkpt><trkpt lat="38.0263283" lon="15.94231"><ele>1171.0</ele><time>2026-04-12T09:31:48.975Z</time></trkpt><trkpt lat="38.0262517" lon="15.942505"><ele>1171.0</ele><time>2026-04-12T09:31:49.975Z</time></trkpt><trkpt lat="38.026175" lon="15.9427"><ele>1171.0</ele><time>2026-04-12T09:31:50.974Z</time></trkpt><trkpt lat="38.0261033" lon="15.9428783"><ele>1172.5</ele><time>2026-04-12T09:31:51.974Z</time></trkpt><trkpt lat="38.026035" lon="15.943025"><ele>1174.0</ele><time>2026-04-12T09:31:52.974Z</time></trkpt><trkpt lat="38.0259717" lon="15.94315"><ele>1175.5</ele><time>2026-04-12T09:31:53.974Z</time></trkpt><trkpt lat="38.0259017" lon="15.9432383"><ele>1177.0</ele><time>2026-04-12T09:31:54.974Z</time></trkpt><trkpt lat="38.02582" lon="15.9433167"><ele>1174.8</ele><time>2026-04-12T09:31:55.975Z</time></trkpt><trkpt lat="38.025735" lon="15.943345"><ele>1172.6</ele><time>2026-04-12T09:31:56.974Z</time></trkpt><trkpt lat="38.02565" lon="15.9433283"><ele>1170.3999999999999</ele><time>2026-04-12T09:31:57.974Z</time></trkpt><trkpt lat="38.0255733" lon="15.9432667"><ele>1168.2</ele><time>2026-04-12T09:31:58.975Z</time></trkpt><trkpt lat="38.0255133" lon="15.9431733"><ele>1166.0</ele><time>2026-04-12T09:31:59.974Z</time></trkpt><trkpt lat="38.0254933" lon="15.94306"><ele>1166.0</ele><time>2026-04-12T09:32:00.974Z</time></trkpt><trkpt lat="38.0255183" lon="15.9429233"><ele>1166.0</ele><time>2026-04-12T09:32:01.974Z</time></trkpt><trkpt lat="38.025565" lon="15.9427667"><ele>1166.0</ele><time>2026-04-12T09:32:02.975Z</time></trkpt><trkpt lat="38.0256083" lon="15.9425967"><ele>1166.0</ele><time>2026-04-12T09:32:03.975Z</time></trkpt><trkpt lat="38.025625" lon="15.94243"><ele>1165.75</ele><time>2026-04-12T09:32:04.974Z</time></trkpt><trkpt lat="38.0255983" lon="15.942255"><ele>1165.5</ele><time>2026-04-12T09:32:05.974Z</time></trkpt><trkpt lat="38.0255533" lon="15.9420717"><ele>1165.25</ele><time>2026-04-12T09:32:06.974Z</time></trkpt><trkpt lat="38.0254983" lon="15.941885"><ele>1165.0</ele><time>2026-04-12T09:32:07.974Z</time></trkpt><trkpt lat="38.0254367" lon="15.9417033"><ele>1165.0</ele><time>2026-04-12T09:32:08.974Z</time></trkpt><trkpt lat="38.0253883" lon="15.9415333"><ele>1165.0</ele><time>2026-04-12T09:32:09.974Z</time></trkpt><trkpt lat="38.0253433" lon="15.9413683"><ele>1165.0</ele><time>2026-04-12T09:32:10.974Z</time></trkpt><trkpt lat="38.0252983" lon="15.9412217"><ele>1165.0</ele><time>2026-04-12T09:32:11.974Z</time></trkpt><trkpt lat="38.0252583" lon="15.9410917"><ele>1165.0</ele><time>2026-04-12T09:32:12.974Z</time></trkpt><trkpt lat="38.0252217" lon="15.9409967"><ele>1165.0</ele><time>2026-04-12T09:32:13.974Z</time></trkpt><trkpt lat="38.02516" lon="15.9408833"><ele>1165.0</ele><time>2026-04-12T09:32:15.974Z</time></trkpt><trkpt lat="38.0251017" lon="15.9408133"><ele>1165.0</ele><time>2026-04-12T09:32:17.975Z</time></trkpt><trkpt lat="38.0250333" lon="15.9407433"><ele>1165.0</ele><time>2026-04-12T09:32:20.974Z</time></trkpt><trkpt lat="38.0249817" lon="15.9406817"><ele>1165.0</ele><time>2026-04-12T09:32:23.974Z</time></trkpt><trkpt lat="38.0248483" lon="15.9406717"><ele>1162.0</ele><time>2026-04-12T09:34:20.974Z</time></trkpt><trkpt lat="38.0247833" lon="15.9406517"><ele>1159.0</ele><time>2026-04-12T09:34:21.974Z</time></trkpt><trkpt lat="38.0247083" lon="15.9406167"><ele>1156.0</ele><time>2026-04-12T09:34:22.975Z</time></trkpt><trkpt lat="38.0246183" lon="15.9405683"><ele>1153.0</ele><time>2026-04-12T09:34:23.974Z</time></trkpt><trkpt lat="38.02451" lon="15.9405067"><ele>1150.0</ele><time>2026-04-12T09:34:24.974Z</time></trkpt><trkpt lat="38.02439" lon="15.940435"><ele>1150.0</ele><time>2026-04-12T09:34:25.975Z</time></trkpt><trkpt lat="38.0242583" lon="15.9403667"><ele>1150.0</ele><time>2026-04-12T09:34:26.974Z</time></trkpt><trkpt lat="38.0241183" lon="15.9403"><ele>1150.0</ele><time>2026-04-12T09:34:27.974Z</time></trkpt><trkpt lat="38.02396" lon="15.94022"><ele>1146.0</ele><time>2026-04-12T09:34:28.974Z</time></trkpt><trkpt lat="38.023795" lon="15.9401417"><ele>1142.0</ele><time>2026-04-12T09:34:29.975Z</time></trkpt><trkpt lat="38.0236283" lon="15.9400667"><ele>1138.0</ele><time>2026-04-12T09:34:30.974Z</time></trkpt><trkpt lat="38.02346" lon="15.9399833"><ele>1134.3333333333333</ele><time>2026-04-12T09:34:31.974Z</time></trkpt><trkpt lat="38.02329" lon="15.9398983"><ele>1130.6666666666667</ele><time>2026-04-12T09:34:32.974Z</time></trkpt><trkpt lat="38.023125" lon="15.939815"><ele>1127.0</ele><time>2026-04-12T09:34:33.974Z</time></trkpt><trkpt lat="38.0229517" lon="15.9397283"><ele>1127.0</ele><time>2026-04-12T09:34:34.975Z</time></trkpt><trkpt lat="38.02279" lon="15.9396517"><ele>1127.0</ele><time>2026-04-12T09:34:35.974Z</time></trkpt><trkpt lat="38.0226267" lon="15.9395783"><ele>1127.0</ele><time>2026-04-12T09:34:36.974Z</time></trkpt><trkpt lat="38.02248" lon="15.93951"><ele>1126.0</ele><time>2026-04-12T09:34:37.974Z</time></trkpt><trkpt lat="38.0223533" lon="15.9394417"><ele>1125.0</ele><time>2026-04-12T09:34:38.975Z</time></trkpt><trkpt lat="38.02226" lon="15.9393733"><ele>1124.0</ele><time>2026-04-12T09:34:39.974Z</time></trkpt><trkpt lat="38.02219" lon="15.9392717"><ele>1123.0</ele><time>2026-04-12T09:34:40.974Z</time></trkpt><trkpt lat="38.0221417" lon="15.93914"><ele>1127.0</ele><time>2026-04-12T09:34:41.974Z</time></trkpt><trkpt lat="38.022095" lon="15.9389933"><ele>1131.0</ele><time>2026-04-12T09:34:42.975Z</time></trkpt><trkpt lat="38.02205" lon="15.938835"><ele>1135.0</ele><time>2026-04-12T09:34:43.974Z</time></trkpt><trkpt lat="38.0219983" lon="15.9386667"><ele>1139.0</ele><time>2026-04-12T09:34:44.974Z</time></trkpt><trkpt lat="38.021945" lon="15.938505"><ele>1139.0</ele><time>2026-04-12T09:34:45.974Z</time></trkpt><trkpt lat="38.021895" lon="15.9383383"><ele>1139.0</ele><time>2026-04-12T09:34:46.974Z</time></trkpt><trkpt lat="38.021855" lon="15.9381783"><ele>1139.0</ele><time>2026-04-12T09:34:47.974Z</time></trkpt><trkpt lat="38.02181" lon="15.938035"><ele>1139.0</ele><time>2026-04-12T09:34:48.975Z</time></trkpt><trkpt lat="38.0217383" lon="15.9379217"><ele>1137.5</ele><time>2026-04-12T09:34:49.974Z</time></trkpt><trkpt lat="38.0216467" lon="15.9378167"><ele>1136.0</ele><time>2026-04-12T09:34:50.975Z</time></trkpt><trkpt lat="38.02154" lon="15.937715"><ele>1134.5</ele><time>2026-04-12T09:34:51.974Z</time></trkpt><trkpt lat="38.0214217" lon="15.9376167"><ele>1133.0</ele><time>2026-04-12T09:34:52.974Z</time></trkpt><trkpt lat="38.0212917" lon="15.9375183"><ele>1133.0</ele><time>2026-04-12T09:34:53.974Z</time></trkpt><trkpt lat="38.0211683" lon="15.93742"><ele>1133.0</ele><time>2026-04-12T09:34:54.974Z</time></trkpt><trkpt lat="38.02107" lon="15.937315"><ele>1133.0</ele><time>2026-04-12T09:34:55.974Z</time></trkpt><trkpt lat="38.0209983" lon="15.9372067"><ele>1133.0</ele><time>2026-04-12T09:34:56.975Z</time></trkpt><trkpt lat="38.0209617" lon="15.93708"><ele>1133.0</ele><time>2026-04-12T09:34:57.974Z</time></trkpt><trkpt lat="38.0209583" lon="15.9369483"><ele>1133.0</ele><time>2026-04-12T09:34:58.974Z</time></trkpt><trkpt lat="38.0209933" lon="15.9368133"><ele>1133.0</ele><time>2026-04-12T09:34:59.974Z</time></trkpt><trkpt lat="38.0210583" lon="15.93668"><ele>1133.0</ele><time>2026-04-12T09:35:00.975Z</time></trkpt><trkpt lat="38.021125" lon="15.9365333"><ele>1133.0</ele><time>2026-04-12T09:35:01.974Z</time></trkpt><trkpt lat="38.0211867" lon="15.9363817"><ele>1133.0</ele><time>2026-04-12T09:35:02.974Z</time></trkpt><trkpt lat="38.021245" lon="15.9362317"><ele>1133.0</ele><time>2026-04-12T09:35:03.974Z</time></trkpt><trkpt lat="38.0213067" lon="15.9360883"><ele>1133.0</ele><time>2026-04-12T09:35:04.974Z</time></trkpt><trkpt lat="38.0213483" lon="15.9359717"><ele>1132.4285714285713</ele><time>2026-04-12T09:35:05.975Z</time></trkpt><trkpt lat="38.021375" lon="15.9358733"><ele>1131.857142857143</ele><time>2026-04-12T09:35:06.974Z</time></trkpt><trkpt lat="38.021375" lon="15.9357817"><ele>1131.2857142857142</ele><time>2026-04-12T09:35:07.974Z</time></trkpt><trkpt lat="38.0213367" lon="15.9357017"><ele>1130.7142857142858</ele><time>2026-04-12T09:35:08.974Z</time></trkpt><trkpt lat="38.021275" lon="15.935645"><ele>1130.142857142857</ele><time>2026-04-12T09:35:09.974Z</time></trkpt><trkpt lat="38.02121" lon="15.9356167"><ele>1129.5714285714284</ele><time>2026-04-12T09:35:10.975Z</time></trkpt><trkpt lat="38.0211433" lon="15.93561"><ele>1129.0</ele><time>2026-04-12T09:35:11.974Z</time></trkpt><trkpt lat="38.02108" lon="15.935605"><ele>1129.0</ele><time>2026-04-12T09:35:12.975Z</time></trkpt><trkpt lat="38.0210083" lon="15.9355917"><ele>1129.0</ele><time>2026-04-12T09:35:13.974Z</time></trkpt><trkpt lat="38.0209383" lon="15.9355733"><ele>1129.0</ele><time>2026-04-12T09:35:14.974Z</time></trkpt><trkpt lat="38.0208583" lon="15.9355467"><ele>1129.0</ele><time>2026-04-12T09:35:15.974Z</time></trkpt><trkpt lat="38.020765" lon="15.9355267"><ele>1129.0</ele><time>2026-04-12T09:35:16.975Z</time></trkpt><trkpt lat="38.0206733" lon="15.9355"><ele>1129.0</ele><time>2026-04-12T09:35:17.974Z</time></trkpt><trkpt lat="38.0205817" lon="15.9354633"><ele>1129.2</ele><time>2026-04-12T09:35:18.974Z</time></trkpt><trkpt lat="38.0204917" lon="15.9354067"><ele>1129.4</ele><time>2026-04-12T09:35:19.974Z</time></trkpt><trkpt lat="38.02041" lon="15.9353233"><ele>1129.6</ele><time>2026-04-12T09:35:20.974Z</time></trkpt><trkpt lat="38.02033" lon="15.9352167"><ele>1129.8</ele><time>2026-04-12T09:35:21.974Z</time></trkpt><trkpt lat="38.0202517" lon="15.9351"><ele>1130.0</ele><time>2026-04-12T09:35:22.975Z</time></trkpt><trkpt lat="38.0201883" lon="15.9349767"><ele>1128.2</ele><time>2026-04-12T09:35:23.974Z</time></trkpt><trkpt lat="38.020105" lon="15.9348617"><ele>1126.4</ele><time>2026-04-12T09:35:24.974Z</time></trkpt><trkpt lat="38.020035" lon="15.93476"><ele>1124.6</ele><time>2026-04-12T09:35:25.975Z</time></trkpt><trkpt lat="38.019955" lon="15.9346967"><ele>1122.8</ele><time>2026-04-12T09:35:26.974Z</time></trkpt><trkpt lat="38.019855" lon="15.9346667"><ele>1121.0</ele><time>2026-04-12T09:35:27.974Z</time></trkpt><trkpt lat="38.0197467" lon="15.93467"><ele>1120.0</ele><time>2026-04-12T09:35:28.974Z</time></trkpt><trkpt lat="38.0196317" lon="15.9346883"><ele>1119.0</ele><time>2026-04-12T09:35:29.975Z</time></trkpt><trkpt lat="38.01951" lon="15.934695"><ele>1118.0</ele><time>2026-04-12T09:35:30.974Z</time></trkpt><trkpt lat="38.0193867" lon="15.9346883"><ele>1117.0</ele><time>2026-04-12T09:35:31.974Z</time></trkpt><trkpt lat="38.0192517" lon="15.9346533"><ele>1115.25</ele><time>2026-04-12T09:35:32.974Z</time></trkpt><trkpt lat="38.0191233" lon="15.9345967"><ele>1113.5</ele><time>2026-04-12T09:35:33.975Z</time></trkpt><trkpt lat="38.0189917" lon="15.9345517"><ele>1111.75</ele><time>2026-04-12T09:35:34.974Z</time></trkpt><trkpt lat="38.018845" lon="15.9345283"><ele>1110.0</ele><time>2026-04-12T09:35:35.974Z</time></trkpt><trkpt lat="38.018705" lon="15.9345283"><ele>1110.0</ele><time>2026-04-12T09:35:36.974Z</time></trkpt><trkpt lat="38.0185667" lon="15.934545"><ele>1110.0</ele><time>2026-04-12T09:35:37.974Z</time></trkpt><trkpt lat="38.0184333" lon="15.9345633"><ele>1110.0</ele><time>2026-04-12T09:35:38.975Z</time></trkpt><trkpt lat="38.0182967" lon="15.9345883"><ele>1110.0</ele><time>2026-04-12T09:35:39.974Z</time></trkpt><trkpt lat="38.018135" lon="15.9346567"><ele>1108.5</ele><time>2026-04-12T09:35:40.975Z</time></trkpt><trkpt lat="38.0179967" lon="15.9346917"><ele>1107.0</ele><time>2026-04-12T09:35:41.975Z</time></trkpt><trkpt lat="38.01787" lon="15.934735"><ele>1105.5</ele><time>2026-04-12T09:35:42.974Z</time></trkpt><trkpt lat="38.0177367" lon="15.934805"><ele>1104.0</ele><time>2026-04-12T09:35:43.974Z</time></trkpt><trkpt lat="38.0175983" lon="15.9348783"><ele>1102.0</ele><time>2026-04-12T09:35:44.974Z</time></trkpt><trkpt lat="38.01746" lon="15.934955"><ele>1100.0</ele><time>2026-04-12T09:35:45.974Z</time></trkpt><trkpt lat="38.017335" lon="15.9350167"><ele>1098.0</ele><time>2026-04-12T09:35:46.975Z</time></trkpt><trkpt lat="38.01724" lon="15.935045"><ele>1096.0</ele><time>2026-04-12T09:35:47.974Z</time></trkpt><trkpt lat="38.01715" lon="15.9350317"><ele>1096.0</ele><time>2026-04-12T09:35:48.974Z</time></trkpt><trkpt lat="38.017055" lon="15.935005"><ele>1096.0</ele><time>2026-04-12T09:35:49.974Z</time></trkpt><trkpt lat="38.0169517" lon="15.9349467"><ele>1096.0</ele><time>2026-04-12T09:35:50.974Z</time></trkpt><trkpt lat="38.0168367" lon="15.9348817"><ele>1096.0</ele><time>2026-04-12T09:35:51.975Z</time></trkpt><trkpt lat="38.0167117" lon="15.9348267"><ele>1094.5</ele><time>2026-04-12T09:35:52.974Z</time></trkpt><trkpt lat="38.0165767" lon="15.93479"><ele>1093.0</ele><time>2026-04-12T09:35:53.974Z</time></trkpt><trkpt lat="38.0164467" lon="15.93474"><ele>1091.5</ele><time>2026-04-12T09:35:54.974Z</time></trkpt><trkpt lat="38.01632" lon="15.93469"><ele>1090.0</ele><time>2026-04-12T09:35:55.975Z</time></trkpt><trkpt lat="38.0161917" lon="15.93465"><ele>1090.0</ele><time>2026-04-12T09:35:56.974Z</time></trkpt><trkpt lat="38.0160683" lon="15.9346133"><ele>1090.0</ele><time>2026-04-12T09:35:57.974Z</time></trkpt><trkpt lat="38.0159517" lon="15.9345767"><ele>1090.0</ele><time>2026-04-12T09:35:58.974Z</time></trkpt><trkpt lat="38.0158417" lon="15.93455"><ele>1090.0</ele><time>2026-04-12T09:35:59.974Z</time></trkpt><trkpt lat="38.0157433" lon="15.9345383"><ele>1088.8</ele><time>2026-04-12T09:36:00.975Z</time></trkpt><trkpt lat="38.0156517" lon="15.9345433"><ele>1087.6</ele><time>2026-04-12T09:36:01.974Z</time></trkpt><trkpt lat="38.0155633" lon="15.934575"><ele>1086.4</ele><time>2026-04-12T09:36:02.974Z</time></trkpt><trkpt lat="38.0154717" lon="15.9346233"><ele>1085.2</ele><time>2026-04-12T09:36:03.974Z</time></trkpt><trkpt lat="38.0153667" lon="15.9346733"><ele>1084.0</ele><time>2026-04-12T09:36:04.975Z</time></trkpt><trkpt lat="38.0152483" lon="15.934755"><ele>1084.0</ele><time>2026-04-12T09:36:05.975Z</time></trkpt><trkpt lat="38.01513" lon="15.9348333"><ele>1084.0</ele><time>2026-04-12T09:36:06.975Z</time></trkpt><trkpt lat="38.0150067" lon="15.93489"><ele>1084.0</ele><time>2026-04-12T09:36:07.974Z</time></trkpt><trkpt lat="38.0148733" lon="15.9349367"><ele>1084.0</ele><time>2026-04-12T09:36:08.975Z</time></trkpt><trkpt lat="38.0147417" lon="15.9349967"><ele>1083.5</ele><time>2026-04-12T09:36:09.975Z</time></trkpt><trkpt lat="38.0146183" lon="15.93505"><ele>1083.0</ele><time>2026-04-12T09:36:10.974Z</time></trkpt><trkpt lat="38.0144967" lon="15.9350883"><ele>1082.5</ele><time>2026-04-12T09:36:11.974Z</time></trkpt><trkpt lat="38.0143867" lon="15.935105"><ele>1082.0</ele><time>2026-04-12T09:36:12.974Z</time></trkpt><trkpt lat="38.0142867" lon="15.9351067"><ele>1082.2</ele><time>2026-04-12T09:36:13.974Z</time></trkpt><trkpt lat="38.0142" lon="15.9350817"><ele>1082.4</ele><time>2026-04-12T09:36:14.975Z</time></trkpt><trkpt lat="38.0141117" lon="15.9350367"><ele>1082.6</ele><time>2026-04-12T09:36:15.974Z</time></trkpt><trkpt lat="38.0140233" lon="15.9349833"><ele>1082.8</ele><time>2026-04-12T09:36:16.974Z</time></trkpt><trkpt lat="38.0139417" lon="15.934925"><ele>1083.0</ele><time>2026-04-12T09:36:17.974Z</time></trkpt><trkpt lat="38.0138467" lon="15.9348983"><ele>1083.0</ele><time>2026-04-12T09:36:18.975Z</time></trkpt><trkpt lat="38.01376" lon="15.93491"><ele>1083.0</ele><time>2026-04-12T09:36:19.975Z</time></trkpt><trkpt lat="38.0136783" lon="15.9349533"><ele>1083.0</ele><time>2026-04-12T09:36:20.974Z</time></trkpt><trkpt lat="38.0135933" lon="15.93502"><ele>1083.0</ele><time>2026-04-12T09:36:21.974Z</time></trkpt><trkpt lat="38.013515" lon="15.9351133"><ele>1083.0</ele><time>2026-04-12T09:36:22.974Z</time></trkpt><trkpt lat="38.0134533" lon="15.93523"><ele>1081.1666666666667</ele><time>2026-04-12T09:36:23.974Z</time></trkpt><trkpt lat="38.0133967" lon="15.93535"><ele>1079.3333333333333</ele><time>2026-04-12T09:36:24.974Z</time></trkpt><trkpt lat="38.0133467" lon="15.9354633"><ele>1077.5</ele><time>2026-04-12T09:36:25.974Z</time></trkpt><trkpt lat="38.0132967" lon="15.9355517"><ele>1075.6666666666665</ele><time>2026-04-12T09:36:26.974Z</time></trkpt><trkpt lat="38.01324" lon="15.935605"><ele>1073.8333333333333</ele><time>2026-04-12T09:36:27.975Z</time></trkpt><trkpt lat="38.013165" lon="15.9356167"><ele>1072.0</ele><time>2026-04-12T09:36:28.974Z</time></trkpt><trkpt lat="38.0130817" lon="15.9355983"><ele>1068.0</ele><time>2026-04-12T09:36:29.974Z</time></trkpt><trkpt lat="38.0129967" lon="15.9355567"><ele>1064.0</ele><time>2026-04-12T09:36:30.974Z</time></trkpt><trkpt lat="38.01291" lon="15.935505"><ele>1060.0</ele><time>2026-04-12T09:36:31.974Z</time></trkpt><trkpt lat="38.0128317" lon="15.9354417"><ele>1056.0</ele><time>2026-04-12T09:36:32.975Z</time></trkpt><trkpt lat="38.012765" lon="15.9353683"><ele>1052.0</ele><time>2026-04-12T09:36:33.975Z</time></trkpt><trkpt lat="38.0127083" lon="15.9352667"><ele>1052.0</ele><time>2026-04-12T09:36:34.975Z</time></trkpt><trkpt lat="38.0126633" lon="15.9351483"><ele>1052.0</ele><time>2026-04-12T09:36:35.974Z</time></trkpt><trkpt lat="38.01261" lon="15.9350317"><ele>1052.0</ele><time>2026-04-12T09:36:36.974Z</time></trkpt><trkpt lat="38.0125467" lon="15.9349167"><ele>1052.0</ele><time>2026-04-12T09:36:37.974Z</time></trkpt><trkpt lat="38.012475" lon="15.934845"><ele>1052.0</ele><time>2026-04-12T09:36:38.974Z</time></trkpt><trkpt lat="38.012385" lon="15.9348117"><ele>1052.6</ele><time>2026-04-12T09:36:39.974Z</time></trkpt><trkpt lat="38.0122867" lon="15.9348133"><ele>1053.2</ele><time>2026-04-12T09:36:40.974Z</time></trkpt><trkpt lat="38.0121867" lon="15.934835"><ele>1053.8</ele><time>2026-04-12T09:36:41.974Z</time></trkpt><trkpt lat="38.0120833" lon="15.9348633"><ele>1054.4</ele><time>2026-04-12T09:36:42.975Z</time></trkpt><trkpt lat="38.01198" lon="15.9348983"><ele>1055.0</ele><time>2026-04-12T09:36:43.975Z</time></trkpt><trkpt lat="38.0118733" lon="15.9349267"><ele>1055.0</ele><time>2026-04-12T09:36:44.974Z</time></trkpt><trkpt lat="38.01178" lon="15.93494"><ele>1055.0</ele><time>2026-04-12T09:36:45.975Z</time></trkpt><trkpt lat="38.0117067" lon="15.93496"><ele>1055.0</ele><time>2026-04-12T09:36:46.975Z</time></trkpt><trkpt lat="38.0116533" lon="15.9350133"><ele>1055.0</ele><time>2026-04-12T09:36:47.974Z</time></trkpt><trkpt lat="38.0116383" lon="15.9351067"><ele>1055.0</ele><time>2026-04-12T09:36:49.974Z</time></trkpt><trkpt lat="38.01169" lon="15.935195"><ele>1055.0</ele><time>2026-04-12T09:36:51.974Z</time></trkpt><trkpt lat="38.0117967" lon="15.9352033"><ele>1050.0</ele><time>2026-04-12T09:36:53.975Z</time></trkpt><trkpt lat="38.0118633" lon="15.9351933"><ele>1045.0</ele><time>2026-04-12T09:36:54.975Z</time></trkpt><trkpt lat="38.0119467" lon="15.9351683"><ele>1040.0</ele><time>2026-04-12T09:36:55.975Z</time></trkpt><trkpt lat="38.012035" lon="15.9351467"><ele>1035.0</ele><time>2026-04-12T09:36:56.975Z</time></trkpt><trkpt lat="38.0121217" lon="15.9351433"><ele>1030.0</ele><time>2026-04-12T09:36:57.974Z</time></trkpt><trkpt lat="38.0122" lon="15.9351683"><ele>1025.0</ele><time>2026-04-12T09:36:58.974Z</time></trkpt><trkpt lat="38.012255" lon="15.9352267"><ele>1025.0</ele><time>2026-04-12T09:36:59.974Z</time></trkpt><trkpt lat="38.0122983" lon="15.935305"><ele>1025.0</ele><time>2026-04-12T09:37:00.974Z</time></trkpt><trkpt lat="38.012305" lon="15.9354033"><ele>1025.0</ele><time>2026-04-12T09:37:01.974Z</time></trkpt><trkpt lat="38.0123083" lon="15.9354983"><ele>1025.0</ele><time>2026-04-12T09:37:02.975Z</time></trkpt><trkpt lat="38.012305" lon="15.935595"><ele>1025.0</ele><time>2026-04-12T09:37:03.974Z</time></trkpt><trkpt lat="38.0123167" lon="15.93569"><ele>1025.0</ele><time>2026-04-12T09:37:04.974Z</time></trkpt><trkpt lat="38.0123483" lon="15.9357867"><ele>1025.0</ele><time>2026-04-12T09:37:05.974Z</time></trkpt><trkpt lat="38.01238" lon="15.93587"><ele>1025.0</ele><time>2026-04-12T09:37:06.974Z</time></trkpt><trkpt lat="38.0124" lon="15.9359517"><ele>1025.0</ele><time>2026-04-12T09:37:07.974Z</time></trkpt><trkpt lat="38.0123667" lon="15.9360567"><ele>1025.0</ele><time>2026-04-12T09:37:09.974Z</time></trkpt><trkpt lat="38.01227" lon="15.93604"><ele>1025.0</ele><time>2026-04-12T09:37:11.974Z</time></trkpt><trkpt lat="38.0122333" lon="15.9359583"><ele>1025.0</ele><time>2026-04-12T09:37:12.975Z</time></trkpt><trkpt lat="38.0122033" lon="15.9358517"><ele>1025.0</ele><time>2026-04-12T09:37:13.974Z</time></trkpt><trkpt lat="38.0121717" lon="15.9357383"><ele>1025.0</ele><time>2026-04-12T09:37:14.975Z</time></trkpt><trkpt lat="38.01213" lon="15.9356467"><ele>1025.0</ele><time>2026-04-12T09:37:15.974Z</time></trkpt><trkpt lat="38.0120683" lon="15.9355667"><ele>1025.0</ele><time>2026-04-12T09:37:16.974Z</time></trkpt><trkpt lat="38.011985" lon="15.9355217"><ele>1025.0</ele><time>2026-04-12T09:37:17.975Z</time></trkpt><trkpt lat="38.0118917" lon="15.9355017"><ele>1025.0</ele><time>2026-04-12T09:37:18.974Z</time></trkpt><trkpt lat="38.0118" lon="15.9354833"><ele>1025.0</ele><time>2026-04-12T09:37:19.974Z</time></trkpt><trkpt lat="38.0117033" lon="15.935465"><ele>1025.0</ele><time>2026-04-12T09:37:20.974Z</time></trkpt><trkpt lat="38.0116133" lon="15.9354333"><ele>1025.0</ele><time>2026-04-12T09:37:21.974Z</time></trkpt><trkpt lat="38.01153" lon="15.9353867"><ele>1025.0</ele><time>2026-04-12T09:37:22.975Z</time></trkpt><trkpt lat="38.0114633" lon="15.9353083"><ele>1022.2</ele><time>2026-04-12T09:37:23.974Z</time></trkpt><trkpt lat="38.011405" lon="15.9352183"><ele>1019.4</ele><time>2026-04-12T09:37:24.974Z</time></trkpt><trkpt lat="38.01135" lon="15.935115"><ele>1016.5999999999999</ele><time>2026-04-12T09:37:25.974Z</time></trkpt><trkpt lat="38.0112983" lon="15.93501"><ele>1013.8</ele><time>2026-04-12T09:37:26.974Z</time></trkpt><trkpt lat="38.01125" lon="15.9348967"><ele>1011.0</ele><time>2026-04-12T09:37:27.974Z</time></trkpt><trkpt lat="38.0111983" lon="15.9347817"><ele>1011.0</ele><time>2026-04-12T09:37:28.973Z</time></trkpt><trkpt lat="38.0111433" lon="15.934665"><ele>1010.9999999999999</ele><time>2026-04-12T09:37:29.974Z</time></trkpt><trkpt lat="38.0110883" lon="15.9345467"><ele>1010.9999999999999</ele><time>2026-04-12T09:37:30.975Z</time></trkpt><trkpt lat="38.011025" lon="15.9344383"><ele>1011.0</ele><time>2026-04-12T09:37:31.974Z</time></trkpt><trkpt lat="38.0109483" lon="15.9343333"><ele>1011.0</ele><time>2026-04-12T09:37:32.974Z</time></trkpt><trkpt lat="38.0108683" lon="15.9342433"><ele>1005.1999999999999</ele><time>2026-04-12T09:37:33.974Z</time></trkpt><trkpt lat="38.0107817" lon="15.934155"><ele>999.3999999999999</ele><time>2026-04-12T09:37:34.974Z</time></trkpt><trkpt lat="38.0107033" lon="15.9340683"><ele>993.6</ele><time>2026-04-12T09:37:35.974Z</time></trkpt><trkpt lat="38.0106433" lon="15.9339633"><ele>987.8</ele><time>2026-04-12T09:37:36.974Z</time></trkpt><trkpt lat="38.0106117" lon="15.9338333"><ele>982.0</ele><time>2026-04-12T09:37:37.974Z</time></trkpt><trkpt lat="38.0105933" lon="15.9336983"><ele>982.0</ele><time>2026-04-12T09:37:38.974Z</time></trkpt><trkpt lat="38.01057" lon="15.9335683"><ele>982.0</ele><time>2026-04-12T09:37:39.974Z</time></trkpt><trkpt lat="38.0105267" lon="15.933435"><ele>982.0</ele><time>2026-04-12T09:37:40.974Z</time></trkpt><trkpt lat="38.01047" lon="15.9333133"><ele>982.0</ele><time>2026-04-12T09:37:41.974Z</time></trkpt><trkpt lat="38.0104" lon="15.9331983"><ele>982.0</ele><time>2026-04-12T09:37:42.974Z</time></trkpt><trkpt lat="38.0103233" lon="15.933095"><ele>983.4000000000001</ele><time>2026-04-12T09:37:43.974Z</time></trkpt><trkpt lat="38.0102383" lon="15.9330117"><ele>984.8000000000001</ele><time>2026-04-12T09:37:44.974Z</time></trkpt><trkpt lat="38.010135" lon="15.9329567"><ele>986.2</ele><time>2026-04-12T09:37:45.974Z</time></trkpt><trkpt lat="38.0100233" lon="15.932945"><ele>987.6</ele><time>2026-04-12T09:37:46.974Z</time></trkpt><trkpt lat="38.0099183" lon="15.932955"><ele>989.0</ele><time>2026-04-12T09:37:47.974Z</time></trkpt><trkpt lat="38.00981" lon="15.9329683"><ele>989.0</ele><time>2026-04-12T09:37:48.974Z</time></trkpt><trkpt lat="38.0097017" lon="15.9329583"><ele>989.0</ele><time>2026-04-12T09:37:49.975Z</time></trkpt><trkpt lat="38.009585" lon="15.9329133"><ele>989.0</ele><time>2026-04-12T09:37:50.975Z</time></trkpt><trkpt lat="38.0094567" lon="15.9328633"><ele>989.0</ele><time>2026-04-12T09:37:51.974Z</time></trkpt><trkpt lat="38.00933" lon="15.9328133"><ele>989.0</ele><time>2026-04-12T09:37:52.974Z</time></trkpt><trkpt lat="38.0091967" lon="15.9327817"><ele>989.0</ele><time>2026-04-12T09:37:53.974Z</time></trkpt><trkpt lat="38.0090683" lon="15.9327267"><ele>989.0</ele><time>2026-04-12T09:37:54.975Z</time></trkpt><trkpt lat="38.0089433" lon="15.932675"><ele>989.0</ele><time>2026-04-12T09:37:55.974Z</time></trkpt><trkpt lat="38.0088283" lon="15.932655"><ele>980.75</ele><time>2026-04-12T09:37:56.975Z</time></trkpt><trkpt lat="38.008715" lon="15.9326483"><ele>972.5</ele><time>2026-04-12T09:37:57.974Z</time></trkpt><trkpt lat="38.0086033" lon="15.9326433"><ele>964.25</ele><time>2026-04-12T09:37:58.974Z</time></trkpt><trkpt lat="38.00849" lon="15.932615"><ele>956.0</ele><time>2026-04-12T09:37:59.974Z</time></trkpt><trkpt lat="38.0083683" lon="15.93257"><ele>964.75</ele><time>2026-04-12T09:38:00.974Z</time></trkpt><trkpt lat="38.0082467" lon="15.9325117"><ele>973.5</ele><time>2026-04-12T09:38:01.974Z</time></trkpt><trkpt lat="38.008115" lon="15.932445"><ele>982.25</ele><time>2026-04-12T09:38:02.974Z</time></trkpt><trkpt lat="38.007995" lon="15.932385"><ele>991.0</ele><time>2026-04-12T09:38:03.974Z</time></trkpt><trkpt lat="38.0078683" lon="15.9323233"><ele>991.0</ele><time>2026-04-12T09:38:04.974Z</time></trkpt><trkpt lat="38.0077467" lon="15.9322683"><ele>991.0</ele><time>2026-04-12T09:38:05.975Z</time></trkpt><trkpt lat="38.007625" lon="15.9322317"><ele>991.0</ele><time>2026-04-12T09:38:06.974Z</time></trkpt><trkpt lat="38.00751" lon="15.9321967"><ele>991.0</ele><time>2026-04-12T09:38:07.974Z</time></trkpt><trkpt lat="38.0074117" lon="15.93215"><ele>994.1999999999999</ele><time>2026-04-12T09:38:08.974Z</time></trkpt><trkpt lat="38.0073083" lon="15.9321033"><ele>997.3999999999999</ele><time>2026-04-12T09:38:09.974Z</time></trkpt><trkpt lat="38.0072067" lon="15.9320533"><ele>1000.6</ele><time>2026-04-12T09:38:10.974Z</time></trkpt><trkpt lat="38.0071083" lon="15.932"><ele>1003.8</ele><time>2026-04-12T09:38:11.975Z</time></trkpt><trkpt lat="38.00701" lon="15.9319433"><ele>1007.0</ele><time>2026-04-12T09:38:12.974Z</time></trkpt><trkpt lat="38.0069233" lon="15.931875"><ele>1007.0</ele><time>2026-04-12T09:38:13.975Z</time></trkpt><trkpt lat="38.0068467" lon="15.9318033"><ele>1007.0</ele><time>2026-04-12T09:38:14.974Z</time></trkpt><trkpt lat="38.0067767" lon="15.9317167"><ele>1007.0</ele><time>2026-04-12T09:38:15.975Z</time></trkpt><trkpt lat="38.0067033" lon="15.9316417"><ele>1007.0</ele><time>2026-04-12T09:38:16.974Z</time></trkpt><trkpt lat="38.0066283" lon="15.9315683"><ele>1007.0</ele><time>2026-04-12T09:38:17.974Z</time></trkpt><trkpt lat="38.0065533" lon="15.9314983"><ele>1004.8333333333334</ele><time>2026-04-12T09:38:18.974Z</time></trkpt><trkpt lat="38.006485" lon="15.9314467"><ele>1002.6666666666667</ele><time>2026-04-12T09:38:19.974Z</time></trkpt><trkpt lat="38.0064217" lon="15.9313933"><ele>1000.5</ele><time>2026-04-12T09:38:20.974Z</time></trkpt><trkpt lat="38.00636" lon="15.9313517"><ele>998.3333333333333</ele><time>2026-04-12T09:38:21.974Z</time></trkpt><trkpt lat="38.0063017" lon="15.93132"><ele>996.1666666666666</ele><time>2026-04-12T09:38:22.974Z</time></trkpt><trkpt lat="38.00618" lon="15.9312833"><ele>994.0</ele><time>2026-04-12T09:38:24.974Z</time></trkpt><trkpt lat="38.0061083" lon="15.931275"><ele>993.9999999999999</ele><time>2026-04-12T09:38:25.974Z</time></trkpt><trkpt lat="38.0060333" lon="15.93126"><ele>994.0</ele><time>2026-04-12T09:38:26.974Z</time></trkpt><trkpt lat="38.0059517" lon="15.9312283"><ele>994.0</ele><time>2026-04-12T09:38:27.974Z</time></trkpt><trkpt lat="38.005875" lon="15.9311917"><ele>994.0</ele><time>2026-04-12T09:38:28.975Z</time></trkpt><trkpt lat="38.0058133" lon="15.9311367"><ele>993.9999999999999</ele><time>2026-04-12T09:38:29.974Z</time></trkpt><trkpt lat="38.0057633" lon="15.9310567"><ele>994.0</ele><time>2026-04-12T09:38:30.974Z</time></trkpt><trkpt lat="38.0057183" lon="15.930975"><ele>990.8571428571429</ele><time>2026-04-12T09:38:31.973Z</time></trkpt><trkpt lat="38.005665" lon="15.930905"><ele>987.7142857142858</ele><time>2026-04-12T09:38:32.975Z</time></trkpt><trkpt lat="38.0056283" lon="15.9308233"><ele>984.5714285714286</ele><time>2026-04-12T09:38:33.974Z</time></trkpt><trkpt lat="38.0056" lon="15.9307383"><ele>981.4285714285714</ele><time>2026-04-12T09:38:34.974Z</time></trkpt><trkpt lat="38.0055767" lon="15.9306517"><ele>978.2857142857143</ele><time>2026-04-12T09:38:35.975Z</time></trkpt><trkpt lat="38.00556" lon="15.9305683"><ele>975.1428571428571</ele><time>2026-04-12T09:38:36.974Z</time></trkpt><trkpt lat="38.0055433" lon="15.9304783"><ele>972.0</ele><time>2026-04-12T09:38:37.975Z</time></trkpt><trkpt lat="38.005525" lon="15.9303933"><ele>972.0</ele><time>2026-04-12T09:38:38.974Z</time></trkpt><trkpt lat="38.005515" lon="15.93031"><ele>972.0</ele><time>2026-04-12T09:38:39.974Z</time></trkpt><trkpt lat="38.005505" lon="15.9302283"><ele>972.0</ele><time>2026-04-12T09:38:40.975Z</time></trkpt><trkpt lat="38.005505" lon="15.9301467"><ele>972.0</ele><time>2026-04-12T09:38:41.974Z</time></trkpt><trkpt lat="38.0054967" lon="15.9300667"><ele>972.0</ele><time>2026-04-12T09:38:42.974Z</time></trkpt><trkpt lat="38.00549" lon="15.9299867"><ele>972.0</ele><time>2026-04-12T09:38:43.975Z</time></trkpt><trkpt lat="38.005435" lon="15.9298733"><ele>972.0</ele><time>2026-04-12T09:38:45.974Z</time></trkpt><trkpt lat="38.0053467" lon="15.92985"><ele>972.0</ele><time>2026-04-12T09:38:47.975Z</time></trkpt><trkpt lat="38.0052733" lon="15.9299"><ele>972.0</ele><time>2026-04-12T09:38:49.974Z</time></trkpt><trkpt lat="38.0052717" lon="15.9300033"><ele>972.0</ele><time>2026-04-12T09:38:51.974Z</time></trkpt><trkpt lat="38.0052983" lon="15.930115"><ele>972.0</ele><time>2026-04-12T09:38:53.974Z</time></trkpt><trkpt lat="38.00533" lon="15.9302483"><ele>972.0</ele><time>2026-04-12T09:38:55.975Z</time></trkpt><trkpt lat="38.0053433" lon="15.9303267"><ele>972.0</ele><time>2026-04-12T09:38:56.974Z</time></trkpt><trkpt lat="38.00536" lon="15.93041"><ele>972.0</ele><time>2026-04-12T09:38:57.974Z</time></trkpt><trkpt lat="38.0053833" lon="15.9305"><ele>972.0</ele><time>2026-04-12T09:38:58.974Z</time></trkpt><trkpt lat="38.0054067" lon="15.93061"><ele>972.0</ele><time>2026-04-12T09:38:59.974Z</time></trkpt><trkpt lat="38.0054367" lon="15.930705"><ele>972.0</ele><time>2026-04-12T09:39:00.975Z</time></trkpt><trkpt lat="38.0054767" lon="15.9307933"><ele>972.0</ele><time>2026-04-12T09:39:01.974Z</time></trkpt><trkpt lat="38.0055217" lon="15.9308783"><ele>972.0</ele><time>2026-04-12T09:39:02.974Z</time></trkpt><trkpt lat="38.00556" lon="15.930955"><ele>972.0</ele><time>2026-04-12T09:39:03.974Z</time></trkpt><trkpt lat="38.00559" lon="15.9310283"><ele>972.0</ele><time>2026-04-12T09:39:04.974Z</time></trkpt><trkpt lat="38.00555" lon="15.93114"><ele>972.0</ele><time>2026-04-12T09:39:06.974Z</time></trkpt><trkpt lat="38.0054583" lon="15.9311033"><ele>972.0</ele><time>2026-04-12T09:39:08.974Z</time></trkpt><trkpt lat="38.0054133" lon="15.9310333"><ele>972.0</ele><time>2026-04-12T09:39:09.974Z</time></trkpt><trkpt lat="38.0053817" lon="15.93095"><ele>972.0</ele><time>2026-04-12T09:39:10.974Z</time></trkpt><trkpt lat="38.0053633" lon="15.9308667"><ele>972.0</ele><time>2026-04-12T09:39:11.974Z</time></trkpt><trkpt lat="38.0053467" lon="15.9307783"><ele>972.0</ele><time>2026-04-12T09:39:12.974Z</time></trkpt><trkpt lat="38.0053317" lon="15.9306767"><ele>972.0</ele><time>2026-04-12T09:39:13.975Z</time></trkpt><trkpt lat="38.0053033" lon="15.9305633"><ele>972.0</ele><time>2026-04-12T09:39:14.974Z</time></trkpt><trkpt lat="38.0052633" lon="15.9304533"><ele>972.0</ele><time>2026-04-12T09:39:15.976Z</time></trkpt><trkpt lat="38.0052117" lon="15.9303533"><ele>972.0</ele><time>2026-04-12T09:39:16.975Z</time></trkpt><trkpt lat="38.00515" lon="15.930245"><ele>972.0</ele><time>2026-04-12T09:39:17.975Z</time></trkpt><trkpt lat="38.0050967" lon="15.9301317"><ele>972.0</ele><time>2026-04-12T09:39:18.975Z</time></trkpt><trkpt lat="38.0050633" lon="15.9300183"><ele>972.0</ele><time>2026-04-12T09:39:19.975Z</time></trkpt><trkpt lat="38.0050783" lon="15.9298717"><ele>972.0</ele><time>2026-04-12T09:39:20.975Z</time></trkpt><trkpt lat="38.0050583" lon="15.929765"><ele>972.0</ele><time>2026-04-12T09:39:21.975Z</time></trkpt><trkpt lat="38.0050383" lon="15.9296367"><ele>974.4000000000001</ele><time>2026-04-12T09:39:22.975Z</time></trkpt><trkpt lat="38.005" lon="15.9295183"><ele>976.8000000000001</ele><time>2026-04-12T09:39:23.975Z</time></trkpt><trkpt lat="38.0049317" lon="15.92942"><ele>979.2</ele><time>2026-04-12T09:39:24.975Z</time></trkpt><trkpt lat="38.0048417" lon="15.9293367"><ele>981.6</ele><time>2026-04-12T09:39:25.975Z</time></trkpt><trkpt lat="38.0047317" lon="15.92929"><ele>984.0</ele><time>2026-04-12T09:39:26.975Z</time></trkpt><trkpt lat="38.004615" lon="15.9292667"><ele>978.6</ele><time>2026-04-12T09:39:27.975Z</time></trkpt><trkpt lat="38.0044967" lon="15.9292633"><ele>973.2</ele><time>2026-04-12T09:39:28.975Z</time></trkpt><trkpt lat="38.0043883" lon="15.9292633"><ele>967.8000000000001</ele><time>2026-04-12T09:39:29.975Z</time></trkpt><trkpt lat="38.0043" lon="15.929285"><ele>962.4000000000001</ele><time>2026-04-12T09:39:30.975Z</time></trkpt><trkpt lat="38.00423" lon="15.9293183"><ele>957.0</ele><time>2026-04-12T09:39:31.976Z</time></trkpt><trkpt lat="38.0041967" lon="15.9294233"><ele>957.0</ele><time>2026-04-12T09:39:33.975Z</time></trkpt><trkpt lat="38.00429" lon="15.9295217"><ele>957.0</ele><time>2026-04-12T09:39:35.975Z</time></trkpt><trkpt lat="38.00437" lon="15.9295433"><ele>957.0</ele><time>2026-04-12T09:39:36.975Z</time></trkpt><trkpt lat="38.0044533" lon="15.929545"><ele>957.0</ele><time>2026-04-12T09:39:37.975Z</time></trkpt><trkpt lat="38.004535" lon="15.9295467"><ele>957.0</ele><time>2026-04-12T09:39:38.975Z</time></trkpt><trkpt lat="38.00462" lon="15.92954"><ele>957.0</ele><time>2026-04-12T09:39:39.975Z</time></trkpt><trkpt lat="38.0046867" lon="15.9295567"><ele>957.0</ele><time>2026-04-12T09:39:40.975Z</time></trkpt><trkpt lat="38.0047433" lon="15.9296633"><ele>957.0</ele><time>2026-04-12T09:39:42.975Z</time></trkpt><trkpt lat="38.0046717" lon="15.9297467"><ele>957.0</ele><time>2026-04-12T09:39:44.975Z</time></trkpt><trkpt lat="38.00459" lon="15.9297583"><ele>957.0</ele><time>2026-04-12T09:39:45.975Z</time></trkpt><trkpt lat="38.0044967" lon="15.929765"><ele>957.0</ele><time>2026-04-12T09:39:46.976Z</time></trkpt><trkpt lat="38.004395" lon="15.9297667"><ele>957.0</ele><time>2026-04-12T09:39:47.975Z</time></trkpt><trkpt lat="38.0042933" lon="15.92977"><ele>957.0</ele><time>2026-04-12T09:39:48.975Z</time></trkpt><trkpt lat="38.0041933" lon="15.9297517"><ele>957.0</ele><time>2026-04-12T09:39:49.975Z</time></trkpt><trkpt lat="38.0040983" lon="15.9296967"><ele>957.0</ele><time>2026-04-12T09:39:50.975Z</time></trkpt><trkpt lat="38.00401" lon="15.9296183"><ele>957.0</ele><time>2026-04-12T09:39:51.975Z</time></trkpt><trkpt lat="38.003925" lon="15.9295283"><ele>955.4000000000001</ele><time>2026-04-12T09:39:52.976Z</time></trkpt><trkpt lat="38.00385" lon="15.92943"><ele>953.8000000000001</ele><time>2026-04-12T09:39:53.975Z</time></trkpt><trkpt lat="38.0037883" lon="15.9293283"><ele>952.2</ele><time>2026-04-12T09:39:54.975Z</time></trkpt><trkpt lat="38.0037333" lon="15.9292317"><ele>950.6</ele><time>2026-04-12T09:39:55.976Z</time></trkpt><trkpt lat="38.0036783" lon="15.9291417"><ele>949.0</ele><time>2026-04-12T09:39:56.975Z</time></trkpt><trkpt lat="38.0036217" lon="15.929055"><ele>948.9999999999999</ele><time>2026-04-12T09:39:57.975Z</time></trkpt><trkpt lat="38.0035683" lon="15.9289683"><ele>949.0</ele><time>2026-04-12T09:39:58.975Z</time></trkpt><trkpt lat="38.0035083" lon="15.9288783"><ele>949.0</ele><time>2026-04-12T09:39:59.975Z</time></trkpt><trkpt lat="38.0034483" lon="15.9288"><ele>949.0</ele><time>2026-04-12T09:40:00.975Z</time></trkpt><trkpt lat="38.00338" lon="15.9287483"><ele>948.9999999999999</ele><time>2026-04-12T09:40:01.975Z</time></trkpt><trkpt lat="38.0033033" lon="15.9287067"><ele>949.0</ele><time>2026-04-12T09:40:02.975Z</time></trkpt><trkpt lat="38.0032267" lon="15.928655"><ele>945.4999999999999</ele><time>2026-04-12T09:40:03.975Z</time></trkpt><trkpt lat="38.0031583" lon="15.9285933"><ele>942.0</ele><time>2026-04-12T09:40:04.976Z</time></trkpt><trkpt lat="38.0031" lon="15.9285233"><ele>938.5</ele><time>2026-04-12T09:40:05.975Z</time></trkpt><trkpt lat="38.0030417" lon="15.9284533"><ele>935.0</ele><time>2026-04-12T09:40:06.975Z</time></trkpt><trkpt lat="38.002985" lon="15.92839"><ele>931.4999999999999</ele><time>2026-04-12T09:40:07.976Z</time></trkpt><trkpt lat="38.002895" lon="15.9283083"><ele>928.0</ele><time>2026-04-12T09:40:09.975Z</time></trkpt><trkpt lat="38.0028067" lon="15.9283533"><ele>925.2</ele><time>2026-04-12T09:40:11.975Z</time></trkpt><trkpt lat="38.0027983" lon="15.9284967"><ele>922.4</ele><time>2026-04-12T09:40:13.975Z</time></trkpt><trkpt lat="38.0028433" lon="15.9285683"><ele>919.6000000000001</ele><time>2026-04-12T09:40:14.975Z</time></trkpt><trkpt lat="38.00292" lon="15.9286333"><ele>916.8000000000001</ele><time>2026-04-12T09:40:15.975Z</time></trkpt><trkpt lat="38.0030017" lon="15.928705"><ele>914.0</ele><time>2026-04-12T09:40:16.976Z</time></trkpt><trkpt lat="38.0030933" lon="15.928785"><ele>914.0</ele><time>2026-04-12T09:40:17.976Z</time></trkpt><trkpt lat="38.003185" lon="15.928865"><ele>914.0000000000001</ele><time>2026-04-12T09:40:18.975Z</time></trkpt><trkpt lat="38.0032717" lon="15.9289433"><ele>914.0000000000001</ele><time>2026-04-12T09:40:19.975Z</time></trkpt><trkpt lat="38.0033517" lon="15.9290217"><ele>914.0</ele><time>2026-04-12T09:40:20.975Z</time></trkpt><trkpt lat="38.0034167" lon="15.9291133"><ele>914.0</ele><time>2026-04-12T09:40:21.975Z</time></trkpt><trkpt lat="38.0034733" lon="15.92922"><ele>915.4000000000001</ele><time>2026-04-12T09:40:22.975Z</time></trkpt><trkpt lat="38.0035133" lon="15.9293433"><ele>916.8000000000001</ele><time>2026-04-12T09:40:23.975Z</time></trkpt><trkpt lat="38.0035533" lon="15.9294733"><ele>918.1999999999999</ele><time>2026-04-12T09:40:24.976Z</time></trkpt><trkpt lat="38.0036" lon="15.9296083"><ele>919.5999999999999</ele><time>2026-04-12T09:40:25.975Z</time></trkpt><trkpt lat="38.0036633" lon="15.9297317"><ele>921.0</ele><time>2026-04-12T09:40:26.975Z</time></trkpt><trkpt lat="38.0037333" lon="15.92985"><ele>921.0</ele><time>2026-04-12T09:40:27.976Z</time></trkpt><trkpt lat="38.00381" lon="15.9299633"><ele>920.9999999999999</ele><time>2026-04-12T09:40:28.975Z</time></trkpt><trkpt lat="38.0038833" lon="15.93007"><ele>920.9999999999999</ele><time>2026-04-12T09:40:29.976Z</time></trkpt><trkpt lat="38.00395" lon="15.930175"><ele>921.0</ele><time>2026-04-12T09:40:30.975Z</time></trkpt><trkpt lat="38.004015" lon="15.9302783"><ele>921.0</ele><time>2026-04-12T09:40:31.976Z</time></trkpt><trkpt lat="38.0040883" lon="15.9303667"><ele>921.1999999999999</ele><time>2026-04-12T09:40:32.976Z</time></trkpt><trkpt lat="38.0041667" lon="15.9304383"><ele>921.3999999999999</ele><time>2026-04-12T09:40:33.975Z</time></trkpt><trkpt lat="38.00425" lon="15.9304817"><ele>921.6</ele><time>2026-04-12T09:40:34.975Z</time></trkpt><trkpt lat="38.0043233" lon="15.9305283"><ele>921.8</ele><time>2026-04-12T09:40:35.976Z</time></trkpt><trkpt lat="38.004395" lon="15.9305983"><ele>922.0</ele><time>2026-04-12T09:40:36.975Z</time></trkpt><trkpt lat="38.0044467" lon="15.930695"><ele>922.0</ele><time>2026-04-12T09:40:37.975Z</time></trkpt><trkpt lat="38.0044983" lon="15.930805"><ele>922.0</ele><time>2026-04-12T09:40:38.975Z</time></trkpt><trkpt lat="38.00455" lon="15.93092"><ele>922.0</ele><time>2026-04-12T09:40:39.975Z</time></trkpt><trkpt lat="38.00459" lon="15.931035"><ele>922.0</ele><time>2026-04-12T09:40:40.975Z</time></trkpt><trkpt lat="38.00461" lon="15.9311567"><ele>922.0</ele><time>2026-04-12T09:40:41.975Z</time></trkpt><trkpt lat="38.00459" lon="15.9312817"><ele>921.6</ele><time>2026-04-12T09:40:42.976Z</time></trkpt><trkpt lat="38.0045433" lon="15.9313967"><ele>921.2</ele><time>2026-04-12T09:40:43.975Z</time></trkpt><trkpt lat="38.00448" lon="15.9315117"><ele>920.8</ele><time>2026-04-12T09:40:44.975Z</time></trkpt><trkpt lat="38.0044217" lon="15.9316233"><ele>920.4</ele><time>2026-04-12T09:40:45.976Z</time></trkpt><trkpt lat="38.004355" lon="15.9317433"><ele>920.0</ele><time>2026-04-12T09:40:46.976Z</time></trkpt><trkpt lat="38.0043" lon="15.9318567"><ele>922.0</ele><time>2026-04-12T09:40:47.975Z</time></trkpt><trkpt lat="38.004245" lon="15.93196"><ele>924.0</ele><time>2026-04-12T09:40:48.975Z</time></trkpt><trkpt lat="38.0042033" lon="15.932045"><ele>926.0</ele><time>2026-04-12T09:40:49.976Z</time></trkpt><trkpt lat="38.0040967" lon="15.9320933"><ele>928.0</ele><time>2026-04-12T09:40:51.975Z</time></trkpt><trkpt lat="38.0040383" lon="15.931985"><ele>930.0</ele><time>2026-04-12T09:40:53.975Z</time></trkpt><trkpt lat="38.0040533" lon="15.9318933"><ele>928.0</ele><time>2026-04-12T09:40:54.975Z</time></trkpt><trkpt lat="38.004095" lon="15.9318"><ele>926.0</ele><time>2026-04-12T09:40:55.975Z</time></trkpt><trkpt lat="38.0041467" lon="15.9316867"><ele>924.0</ele><time>2026-04-12T09:40:56.975Z</time></trkpt><trkpt lat="38.004215" lon="15.9315667"><ele>922.0</ele><time>2026-04-12T09:40:57.976Z</time></trkpt><trkpt lat="38.0042817" lon="15.9314583"><ele>920.0</ele><time>2026-04-12T09:40:58.975Z</time></trkpt><trkpt lat="38.004335" lon="15.931345"><ele>920.0000000000001</ele><time>2026-04-12T09:40:59.975Z</time></trkpt><trkpt lat="38.00437" lon="15.9312367"><ele>920.0</ele><time>2026-04-12T09:41:00.975Z</time></trkpt><trkpt lat="38.0043833" lon="15.931125"><ele>920.0</ele><time>2026-04-12T09:41:01.976Z</time></trkpt><trkpt lat="38.0043733" lon="15.9310183"><ele>920.0</ele><time>2026-04-12T09:41:02.975Z</time></trkpt><trkpt lat="38.0043333" lon="15.9309283"><ele>920.0000000000001</ele><time>2026-04-12T09:41:03.975Z</time></trkpt><trkpt lat="38.004265" lon="15.9308683"><ele>920.0</ele><time>2026-04-12T09:41:04.976Z</time></trkpt><trkpt lat="38.0041867" lon="15.9308383"><ele>913.8333333333334</ele><time>2026-04-12T09:41:05.975Z</time></trkpt><trkpt lat="38.0040933" lon="15.93084"><ele>907.6666666666667</ele><time>2026-04-12T09:41:06.975Z</time></trkpt><trkpt lat="38.0040017" lon="15.9308283"><ele>901.5</ele><time>2026-04-12T09:41:07.976Z</time></trkpt><trkpt lat="38.0039217" lon="15.9308017"><ele>895.3333333333333</ele><time>2026-04-12T09:41:08.975Z</time></trkpt><trkpt lat="38.003865" lon="15.9307"><ele>889.1666666666666</ele><time>2026-04-12T09:41:09.975Z</time></trkpt><trkpt lat="38.0038283" lon="15.9306083"><ele>883.0</ele><time>2026-04-12T09:41:10.975Z</time></trkpt><trkpt lat="38.0037917" lon="15.930515"><ele>883.0</ele><time>2026-04-12T09:41:11.975Z</time></trkpt><trkpt lat="38.0037367" lon="15.930415"><ele>883.0</ele><time>2026-04-12T09:41:12.975Z</time></trkpt><trkpt lat="38.0036667" lon="15.93031"><ele>883.0</ele><time>2026-04-12T09:41:13.976Z</time></trkpt><trkpt lat="38.0035783" lon="15.9302033"><ele>883.0</ele><time>2026-04-12T09:41:14.975Z</time></trkpt><trkpt lat="38.003485" lon="15.9301167"><ele>883.0</ele><time>2026-04-12T09:41:15.975Z</time></trkpt><trkpt lat="38.0033717" lon="15.93004"><ele>883.0</ele><time>2026-04-12T09:41:16.976Z</time></trkpt><trkpt lat="38.0032517" lon="15.9299933"><ele>883.0</ele><time>2026-04-12T09:41:17.975Z</time></trkpt><trkpt lat="38.003135" lon="15.929965"><ele>883.0</ele><time>2026-04-12T09:41:18.976Z</time></trkpt><trkpt lat="38.0030217" lon="15.9299467"><ele>883.0</ele><time>2026-04-12T09:41:19.975Z</time></trkpt><trkpt lat="38.0029217" lon="15.92993"><ele>883.0</ele><time>2026-04-12T09:41:20.975Z</time></trkpt><trkpt lat="38.0028417" lon="15.9299"><ele>883.0</ele><time>2026-04-12T09:41:21.975Z</time></trkpt><trkpt lat="38.0027817" lon="15.9298217"><ele>883.0</ele><time>2026-04-12T09:41:22.975Z</time></trkpt><trkpt lat="38.0027383" lon="15.929725"><ele>883.0</ele><time>2026-04-12T09:41:23.976Z</time></trkpt><trkpt lat="38.0027233" lon="15.9296"><ele>883.0</ele><time>2026-04-12T09:41:24.976Z</time></trkpt><trkpt lat="38.0026817" lon="15.9294933"><ele>883.0</ele><time>2026-04-12T09:41:25.975Z</time></trkpt><trkpt lat="38.002635" lon="15.9293933"><ele>883.0</ele><time>2026-04-12T09:41:26.975Z</time></trkpt><trkpt lat="38.0025717" lon="15.92932"><ele>883.0</ele><time>2026-04-12T09:41:27.975Z</time></trkpt><trkpt lat="38.002495" lon="15.9292783"><ele>883.0</ele><time>2026-04-12T09:41:28.976Z</time></trkpt><trkpt lat="38.002405" lon="15.9292933"><ele>883.0</ele><time>2026-04-12T09:41:29.976Z</time></trkpt><trkpt lat="38.00231" lon="15.929345"><ele>877.2</ele><time>2026-04-12T09:41:30.975Z</time></trkpt><trkpt lat="38.002215" lon="15.929425"><ele>871.4</ele><time>2026-04-12T09:41:31.975Z</time></trkpt><trkpt lat="38.00213" lon="15.929485"><ele>865.6000000000001</ele><time>2026-04-12T09:41:32.975Z</time></trkpt><trkpt lat="38.002045" lon="15.9295017"><ele>859.8000000000001</ele><time>2026-04-12T09:41:33.975Z</time></trkpt><trkpt lat="38.0019683" lon="15.9294917"><ele>854.0</ele><time>2026-04-12T09:41:34.975Z</time></trkpt><trkpt lat="38.0018983" lon="15.9294233"><ele>854.0</ele><time>2026-04-12T09:41:35.975Z</time></trkpt><trkpt lat="38.00184" lon="15.92934"><ele>854.0000000000001</ele><time>2026-04-12T09:41:36.975Z</time></trkpt><trkpt lat="38.0017733" lon="15.92925"><ele>854.0000000000001</ele><time>2026-04-12T09:41:37.975Z</time></trkpt><trkpt lat="38.001685" lon="15.9291833"><ele>854.0</ele><time>2026-04-12T09:41:38.975Z</time></trkpt><trkpt lat="38.00158" lon="15.9291667"><ele>854.0</ele><time>2026-04-12T09:41:39.976Z</time></trkpt><trkpt lat="38.0014717" lon="15.9291667"><ele>858.25</ele><time>2026-04-12T09:41:40.975Z</time></trkpt><trkpt lat="38.00135" lon="15.929165"><ele>862.5</ele><time>2026-04-12T09:41:41.975Z</time></trkpt><trkpt lat="38.0012267" lon="15.9291467"><ele>866.75</ele><time>2026-04-12T09:41:42.975Z</time></trkpt><trkpt lat="38.0011" lon="15.9291267"><ele>871.0</ele><time>2026-04-12T09:41:43.976Z</time></trkpt><trkpt lat="38.0009883" lon="15.9291133"><ele>870.9999999999999</ele><time>2026-04-12T09:41:44.976Z</time></trkpt><trkpt lat="38.0009117" lon="15.929075"><ele>871.0</ele><time>2026-04-12T09:41:45.975Z</time></trkpt><trkpt lat="38.0008617" lon="15.9290133"><ele>871.0</ele><time>2026-04-12T09:41:46.976Z</time></trkpt><trkpt lat="38.0008317" lon="15.9289283"><ele>871.0</ele><time>2026-04-12T09:41:47.975Z</time></trkpt><trkpt lat="38.00082" lon="15.9288033"><ele>870.9999999999999</ele><time>2026-04-12T09:41:48.976Z</time></trkpt><trkpt lat="38.0008133" lon="15.9287017"><ele>871.0</ele><time>2026-04-12T09:41:49.975Z</time></trkpt><trkpt lat="38.0008317" lon="15.928615"><ele>871.0</ele><time>2026-04-12T09:41:50.975Z</time></trkpt><trkpt lat="38.0008633" lon="15.9285317"><ele>870.9999999999999</ele><time>2026-04-12T09:41:51.975Z</time></trkpt><trkpt lat="38.000915" lon="15.9284567"><ele>870.9999999999999</ele><time>2026-04-12T09:41:52.976Z</time></trkpt><trkpt lat="38.0009833" lon="15.9283783"><ele>871.0</ele><time>2026-04-12T09:41:53.975Z</time></trkpt><trkpt lat="38.0010617" lon="15.9282883"><ele>871.0</ele><time>2026-04-12T09:41:54.975Z</time></trkpt><trkpt lat="38.0011417" lon="15.928205"><ele>871.5999999999999</ele><time>2026-04-12T09:41:55.974Z</time></trkpt><trkpt lat="38.0012317" lon="15.9281233"><ele>872.1999999999999</ele><time>2026-04-12T09:41:56.975Z</time></trkpt><trkpt lat="38.00132" lon="15.928045"><ele>872.8000000000001</ele><time>2026-04-12T09:41:57.975Z</time></trkpt><trkpt lat="38.0014117" lon="15.92797"><ele>873.4000000000001</ele><time>2026-04-12T09:41:58.975Z</time></trkpt><trkpt lat="38.001505" lon="15.9279083"><ele>874.0</ele><time>2026-04-12T09:41:59.976Z</time></trkpt><trkpt lat="38.0016133" lon="15.927885"><ele>879.6</ele><time>2026-04-12T09:42:00.976Z</time></trkpt><trkpt lat="38.0017167" lon="15.92786"><ele>885.2</ele><time>2026-04-12T09:42:01.975Z</time></trkpt><trkpt lat="38.001815" lon="15.927825"><ele>890.8000000000001</ele><time>2026-04-12T09:42:02.975Z</time></trkpt><trkpt lat="38.0018917" lon="15.927775"><ele>896.4000000000001</ele><time>2026-04-12T09:42:03.975Z</time></trkpt><trkpt lat="38.0019533" lon="15.9277"><ele>902.0</ele><time>2026-04-12T09:42:04.975Z</time></trkpt><trkpt lat="38.0019767" lon="15.9276033"><ele>894.8</ele><time>2026-04-12T09:42:05.975Z</time></trkpt><trkpt lat="38.0020067" lon="15.9274883"><ele>887.6</ele><time>2026-04-12T09:42:06.975Z</time></trkpt><trkpt lat="38.002055" lon="15.927375"><ele>880.3999999999999</ele><time>2026-04-12T09:42:07.975Z</time></trkpt><trkpt lat="38.00211" lon="15.9272583"><ele>873.1999999999999</ele><time>2026-04-12T09:42:08.976Z</time></trkpt><trkpt lat="38.0021583" lon="15.927155"><ele>866.0</ele><time>2026-04-12T09:42:09.975Z</time></trkpt><trkpt lat="38.002195" lon="15.9270533"><ele>866.0000000000001</ele><time>2026-04-12T09:42:10.976Z</time></trkpt><trkpt lat="38.002215" lon="15.9269533"><ele>866.0</ele><time>2026-04-12T09:42:11.975Z</time></trkpt><trkpt lat="38.0022017" lon="15.9268617"><ele>866.0</ele><time>2026-04-12T09:42:12.975Z</time></trkpt><trkpt lat="38.0021533" lon="15.9267817"><ele>866.0</ele><time>2026-04-12T09:42:13.976Z</time></trkpt><trkpt lat="38.0020817" lon="15.9267233"><ele>866.0000000000001</ele><time>2026-04-12T09:42:14.975Z</time></trkpt><trkpt lat="38.002" lon="15.9266667"><ele>866.0</ele><time>2026-04-12T09:42:15.975Z</time></trkpt><trkpt lat="38.001915" lon="15.9265967"><ele>864.4</ele><time>2026-04-12T09:42:16.976Z</time></trkpt><trkpt lat="38.0018383" lon="15.92651"><ele>862.8</ele><time>2026-04-12T09:42:17.975Z</time></trkpt><trkpt lat="38.00176" lon="15.926415"><ele>861.1999999999999</ele><time>2026-04-12T09:42:18.975Z</time></trkpt><trkpt lat="38.0016933" lon="15.92632"><ele>859.5999999999999</ele><time>2026-04-12T09:42:19.975Z</time></trkpt><trkpt lat="38.0016533" lon="15.9262267"><ele>858.0</ele><time>2026-04-12T09:42:20.976Z</time></trkpt><trkpt lat="38.0016333" lon="15.926135"><ele>858.0</ele><time>2026-04-12T09:42:21.975Z</time></trkpt><trkpt lat="38.00165" lon="15.92603"><ele>858.0</ele><time>2026-04-12T09:42:22.975Z</time></trkpt><trkpt lat="38.0016867" lon="15.9259133"><ele>858.0</ele><time>2026-04-12T09:42:23.975Z</time></trkpt><trkpt lat="38.00173" lon="15.9258017"><ele>858.0</ele><time>2026-04-12T09:42:24.975Z</time></trkpt><trkpt lat="38.0017667" lon="15.9256833"><ele>858.0</ele><time>2026-04-12T09:42:25.975Z</time></trkpt><trkpt lat="38.0017717" lon="15.92557"><ele>860.0</ele><time>2026-04-12T09:42:26.976Z</time></trkpt><trkpt lat="38.0017417" lon="15.925475"><ele>862.0</ele><time>2026-04-12T09:42:27.975Z</time></trkpt><trkpt lat="38.00168" lon="15.9254"><ele>864.0</ele><time>2026-04-12T09:42:28.976Z</time></trkpt><trkpt lat="38.001585" lon="15.9253467"><ele>866.0</ele><time>2026-04-12T09:42:29.975Z</time></trkpt><trkpt lat="38.0014683" lon="15.9253117"><ele>868.0</ele><time>2026-04-12T09:42:30.975Z</time></trkpt><trkpt lat="38.00134" lon="15.9252717"><ele>864.0</ele><time>2026-04-12T09:42:31.976Z</time></trkpt><trkpt lat="38.0012083" lon="15.9252183"><ele>860.0</ele><time>2026-04-12T09:42:32.975Z</time></trkpt><trkpt lat="38.0010817" lon="15.92517"><ele>856.0</ele><time>2026-04-12T09:42:33.975Z</time></trkpt><trkpt lat="38.0009617" lon="15.9250933"><ele>852.0</ele><time>2026-04-12T09:42:34.975Z</time></trkpt><trkpt lat="38.0008533" lon="15.9250017"><ele>845.6666666666666</ele><time>2026-04-12T09:42:35.976Z</time></trkpt><trkpt lat="38.000765" lon="15.924915"><ele>839.3333333333333</ele><time>2026-04-12T09:42:36.975Z</time></trkpt><trkpt lat="38.000695" lon="15.9248367"><ele>833.0</ele><time>2026-04-12T09:42:37.975Z</time></trkpt><trkpt lat="38.000645" lon="15.9247633"><ele>826.6666666666666</ele><time>2026-04-12T09:42:38.975Z</time></trkpt><trkpt lat="38.0006117" lon="15.9246817"><ele>820.3333333333333</ele><time>2026-04-12T09:42:39.975Z</time></trkpt><trkpt lat="38.0006" lon="15.9245817"><ele>814.0</ele><time>2026-04-12T09:42:40.975Z</time></trkpt><trkpt lat="38.0005933" lon="15.924465"><ele>814.0</ele><time>2026-04-12T09:42:41.975Z</time></trkpt><trkpt lat="38.0005883" lon="15.9243433"><ele>814.0</ele><time>2026-04-12T09:42:42.975Z</time></trkpt><trkpt lat="38.0006067" lon="15.9242"><ele>814.0</ele><time>2026-04-12T09:42:43.975Z</time></trkpt><trkpt lat="38.000625" lon="15.9240533"><ele>814.0</ele><time>2026-04-12T09:42:44.975Z</time></trkpt><trkpt lat="38.00065" lon="15.9239083"><ele>814.0</ele><time>2026-04-12T09:42:45.975Z</time></trkpt><trkpt lat="38.000675" lon="15.923765"><ele>813.8000000000001</ele><time>2026-04-12T09:42:46.975Z</time></trkpt><trkpt lat="38.0006867" lon="15.9236333"><ele>813.6</ele><time>2026-04-12T09:42:47.975Z</time></trkpt><trkpt lat="38.0006917" lon="15.923515"><ele>813.4</ele><time>2026-04-12T09:42:48.975Z</time></trkpt><trkpt lat="38.0007083" lon="15.923405"><ele>813.2</ele><time>2026-04-12T09:42:49.975Z</time></trkpt><trkpt lat="38.0007383" lon="15.9232983"><ele>813.0</ele><time>2026-04-12T09:42:50.975Z</time></trkpt><trkpt lat="38.0007867" lon="15.923195"><ele>812.4</ele><time>2026-04-12T09:42:51.975Z</time></trkpt><trkpt lat="38.0008467" lon="15.9230933"><ele>811.8</ele><time>2026-04-12T09:42:52.975Z</time></trkpt><trkpt lat="38.0008933" lon="15.92301"><ele>811.2</ele><time>2026-04-12T09:42:53.975Z</time></trkpt><trkpt lat="38.0009133" lon="15.9229017"><ele>810.6</ele><time>2026-04-12T09:42:55.975Z</time></trkpt><trkpt lat="38.000795" lon="15.9228883"><ele>810.0</ele><time>2026-04-12T09:42:57.976Z</time></trkpt><trkpt lat="38.00074" lon="15.9229317"><ele>810.0</ele><time>2026-04-12T09:42:58.975Z</time></trkpt><trkpt lat="38.000705" lon="15.923005"><ele>810.0</ele><time>2026-04-12T09:42:59.975Z</time></trkpt><trkpt lat="38.0006867" lon="15.9230883"><ele>810.0</ele><time>2026-04-12T09:43:00.975Z</time></trkpt><trkpt lat="38.0006683" lon="15.9231717"><ele>810.0</ele><time>2026-04-12T09:43:01.975Z</time></trkpt><trkpt lat="38.00064" lon="15.92325"><ele>810.0</ele><time>2026-04-12T09:43:03.975Z</time></trkpt><trkpt lat="38.0006517" lon="15.9231517"><ele>810.0</ele><time>2026-04-12T09:43:20.976Z</time></trkpt><trkpt lat="38.0006717" lon="15.9230067"><ele>810.0</ele><time>2026-04-12T09:43:22.975Z</time></trkpt><trkpt lat="38.0007017" lon="15.922885"><ele>810.0</ele><time>2026-04-12T09:43:24.975Z</time></trkpt><trkpt lat="38.0007167" lon="15.9227783"><ele>810.0</ele><time>2026-04-12T09:43:26.976Z</time></trkpt><trkpt lat="38.000705" lon="15.922665"><ele>810.0</ele><time>2026-04-12T09:43:28.976Z</time></trkpt><trkpt lat="38.00064" lon="15.9225717"><ele>810.0</ele><time>2026-04-12T09:43:30.976Z</time></trkpt><trkpt lat="38.0005583" lon="15.92247"><ele>811.6</ele><time>2026-04-12T09:43:32.975Z</time></trkpt><trkpt lat="38.0004633" lon="15.9223583"><ele>813.2</ele><time>2026-04-12T09:43:34.975Z</time></trkpt><trkpt lat="38.00041" lon="15.9222917"><ele>814.8</ele><time>2026-04-12T09:43:35.975Z</time></trkpt><trkpt lat="38.0003483" lon="15.9222283"><ele>816.4</ele><time>2026-04-12T09:43:36.975Z</time></trkpt><trkpt lat="38.00028" lon="15.92216"><ele>818.0</ele><time>2026-04-12T09:43:37.975Z</time></trkpt><trkpt lat="38.00021" lon="15.922095"><ele>818.0</ele><time>2026-04-12T09:43:38.975Z</time></trkpt><trkpt lat="38.0001417" lon="15.92203"><ele>818.0</ele><time>2026-04-12T09:43:39.975Z</time></trkpt><trkpt lat="38.00008" lon="15.92197"><ele>818.0</ele><time>2026-04-12T09:43:40.975Z</time></trkpt><trkpt lat="38.0000217" lon="15.9219133"><ele>818.0</ele><time>2026-04-12T09:43:41.976Z</time></trkpt><trkpt lat="37.99997" lon="15.9218583"><ele>818.0</ele><time>2026-04-12T09:43:42.975Z</time></trkpt><trkpt lat="37.9999183" lon="15.9218033"><ele>818.0</ele><time>2026-04-12T09:43:43.975Z</time></trkpt><trkpt lat="37.9998767" lon="15.9217367"><ele>818.0</ele><time>2026-04-12T09:43:44.975Z</time></trkpt><trkpt lat="37.9998417" lon="15.921655"><ele>817.3333333333334</ele><time>2026-04-12T09:43:45.975Z</time></trkpt><trkpt lat="37.9998183" lon="15.9215667"><ele>816.6666666666667</ele><time>2026-04-12T09:43:46.975Z</time></trkpt><trkpt lat="37.9998033" lon="15.921465"><ele>816.0</ele><time>2026-04-12T09:43:47.975Z</time></trkpt><trkpt lat="37.9997917" lon="15.9213617"><ele>815.3333333333333</ele><time>2026-04-12T09:43:48.975Z</time></trkpt><trkpt lat="37.99978" lon="15.9212617"><ele>814.6666666666666</ele><time>2026-04-12T09:43:49.975Z</time></trkpt><trkpt lat="37.9997717" lon="15.9211533"><ele>814.0</ele><time>2026-04-12T09:43:50.976Z</time></trkpt><trkpt lat="37.999765" lon="15.9210417"><ele>813.9999999999999</ele><time>2026-04-12T09:43:51.975Z</time></trkpt><trkpt lat="37.999755" lon="15.920935"><ele>814.0</ele><time>2026-04-12T09:43:52.976Z</time></trkpt><trkpt lat="37.9997367" lon="15.92083"><ele>814.0</ele><time>2026-04-12T09:43:53.975Z</time></trkpt><trkpt lat="37.9997117" lon="15.9207233"><ele>814.0</ele><time>2026-04-12T09:43:54.975Z</time></trkpt><trkpt lat="37.999695" lon="15.92062"><ele>813.9999999999999</ele><time>2026-04-12T09:43:55.975Z</time></trkpt><trkpt lat="37.9996833" lon="15.9205217"><ele>814.0</ele><time>2026-04-12T09:43:56.976Z</time></trkpt><trkpt lat="37.9996633" lon="15.92042"><ele>809.8333333333333</ele><time>2026-04-12T09:43:57.976Z</time></trkpt><trkpt lat="37.9996467" lon="15.9203233"><ele>805.6666666666666</ele><time>2026-04-12T09:43:58.975Z</time></trkpt><trkpt lat="37.999625" lon="15.920225"><ele>801.5</ele><time>2026-04-12T09:43:59.975Z</time></trkpt><trkpt lat="37.9996167" lon="15.9201417"><ele>797.3333333333333</ele><time>2026-04-12T09:44:00.975Z</time></trkpt><trkpt lat="37.9996383" lon="15.9200167"><ele>793.1666666666666</ele><time>2026-04-12T09:44:02.975Z</time></trkpt><trkpt lat="37.99969" lon="15.9198983"><ele>789.0</ele><time>2026-04-12T09:44:04.975Z</time></trkpt><trkpt lat="37.99971" lon="15.9197467"><ele>786.2</ele><time>2026-04-12T09:44:06.975Z</time></trkpt><trkpt lat="37.9996917" lon="15.919665"><ele>783.4000000000001</ele><time>2026-04-12T09:44:07.975Z</time></trkpt><trkpt lat="37.99967" lon="15.91958"><ele>780.6</ele><time>2026-04-12T09:44:08.975Z</time></trkpt><trkpt lat="37.9996333" lon="15.91944"><ele>777.8</ele><time>2026-04-12T09:44:10.975Z</time></trkpt><trkpt lat="37.9995867" lon="15.919295"><ele>775.0</ele><time>2026-04-12T09:44:12.975Z</time></trkpt><trkpt lat="37.9995283" lon="15.91915"><ele>772.1666666666666</ele><time>2026-04-12T09:44:14.975Z</time></trkpt><trkpt lat="37.99948" lon="15.9190767"><ele>769.3333333333333</ele><time>2026-04-12T09:44:15.976Z</time></trkpt><trkpt lat="37.9994367" lon="15.9190117"><ele>766.5</ele><time>2026-04-12T09:44:16.975Z</time></trkpt><trkpt lat="37.9993767" lon="15.9188983"><ele>763.6666666666666</ele><time>2026-04-12T09:44:18.976Z</time></trkpt><trkpt lat="37.9993783" lon="15.918775"><ele>760.8333333333333</ele><time>2026-04-12T09:44:20.976Z</time></trkpt><trkpt lat="37.9994167" lon="15.91867"><ele>758.0</ele><time>2026-04-12T09:44:22.976Z</time></trkpt><trkpt lat="37.99949" lon="15.9186683"><ele>758.0</ele><time>2026-04-12T09:44:24.976Z</time></trkpt><trkpt lat="37.9995683" lon="15.9187867"><ele>758.0</ele><time>2026-04-12T09:44:26.975Z</time></trkpt><trkpt lat="37.9996" lon="15.9188633"><ele>758.0</ele><time>2026-04-12T09:44:27.975Z</time></trkpt><trkpt lat="37.9996217" lon="15.919"><ele>758.0</ele><time>2026-04-12T09:44:29.975Z</time></trkpt><trkpt lat="37.9996417" lon="15.9191083"><ele>758.0</ele><time>2026-04-12T09:44:31.975Z</time></trkpt><trkpt lat="37.999705" lon="15.9191017"><ele>758.0</ele><time>2026-04-12T09:44:35.975Z</time></trkpt><trkpt lat="37.999715" lon="15.9189617"><ele>758.0</ele><time>2026-04-12T09:44:37.975Z</time></trkpt><trkpt lat="37.999705" lon="15.9188783"><ele>758.0</ele><time>2026-04-12T09:44:38.975Z</time></trkpt><trkpt lat="37.9996833" lon="15.918785"><ele>758.0</ele><time>2026-04-12T09:44:39.975Z</time></trkpt><trkpt lat="37.9996467" lon="15.9187083"><ele>758.0</ele><time>2026-04-12T09:44:40.975Z</time></trkpt><trkpt lat="37.9996067" lon="15.9185683"><ele>758.0</ele><time>2026-04-12T09:44:42.975Z</time></trkpt><trkpt lat="37.999555" lon="15.91843"><ele>754.4285714285714</ele><time>2026-04-12T09:44:44.976Z</time></trkpt><trkpt lat="37.9995433" lon="15.9183433"><ele>750.8571428571429</ele><time>2026-04-12T09:44:45.976Z</time></trkpt><trkpt lat="37.9995317" lon="15.918255"><ele>747.2857142857142</ele><time>2026-04-12T09:44:46.975Z</time></trkpt><trkpt lat="37.99952" lon="15.9181683"><ele>743.7142857142858</ele><time>2026-04-12T09:44:47.975Z</time></trkpt><trkpt lat="37.99951" lon="15.9180817"><ele>740.1428571428571</ele><time>2026-04-12T09:44:48.975Z</time></trkpt><trkpt lat="37.999505" lon="15.918"><ele>736.5714285714286</ele><time>2026-04-12T09:44:49.976Z</time></trkpt><trkpt lat="37.9995067" lon="15.91791"><ele>733.0</ele><time>2026-04-12T09:44:51.976Z</time></trkpt><trkpt lat="37.99958" lon="15.91793"><ele>733.0</ele><time>2026-04-12T09:44:54.975Z</time></trkpt><trkpt lat="37.999635" lon="15.918075"><ele>733.0</ele><time>2026-04-12T09:44:56.975Z</time></trkpt><trkpt lat="37.9996617" lon="15.9181517"><ele>733.0</ele><time>2026-04-12T09:44:57.975Z</time></trkpt><trkpt lat="37.9997067" lon="15.9182833"><ele>733.0</ele><time>2026-04-12T09:44:59.975Z</time></trkpt><trkpt lat="37.999785" lon="15.918315"><ele>733.0</ele><time>2026-04-12T09:45:02.976Z</time></trkpt><trkpt lat="37.9998033" lon="15.9182133"><ele>733.0</ele><time>2026-04-12T09:45:04.975Z</time></trkpt><trkpt lat="37.9997667" lon="15.9180583"><ele>733.0</ele><time>2026-04-12T09:45:06.975Z</time></trkpt><trkpt lat="37.999745" lon="15.9179733"><ele>733.0</ele><time>2026-04-12T09:45:07.976Z</time></trkpt><trkpt lat="37.99973" lon="15.917895"><ele>733.0</ele><time>2026-04-12T09:45:08.976Z</time></trkpt><trkpt lat="37.9997117" lon="15.917745"><ele>733.0</ele><time>2026-04-12T09:45:10.975Z</time></trkpt><trkpt lat="37.9997167" lon="15.917655"><ele>731.2</ele><time>2026-04-12T09:45:11.975Z</time></trkpt><trkpt lat="37.9997283" lon="15.91753"><ele>729.4</ele><time>2026-04-12T09:45:12.975Z</time></trkpt><trkpt lat="37.999735" lon="15.9173967"><ele>727.6</ele><time>2026-04-12T09:45:13.975Z</time></trkpt><trkpt lat="37.9997383" lon="15.9172683"><ele>725.8000000000001</ele><time>2026-04-12T09:45:14.975Z</time></trkpt><trkpt lat="37.9997433" lon="15.917155"><ele>724.0</ele><time>2026-04-12T09:45:15.975Z</time></trkpt><trkpt lat="37.9997467" lon="15.9170483"><ele>724.0</ele><time>2026-04-12T09:45:16.975Z</time></trkpt><trkpt lat="37.9997417" lon="15.9169467"><ele>724.0</ele><time>2026-04-12T09:45:17.975Z</time></trkpt><trkpt lat="37.9997283" lon="15.9168483"><ele>724.0</ele><time>2026-04-12T09:45:18.975Z</time></trkpt><trkpt lat="37.999705" lon="15.9167517"><ele>724.0</ele><time>2026-04-12T09:45:19.975Z</time></trkpt><trkpt lat="37.99968" lon="15.9166583"><ele>724.0</ele><time>2026-04-12T09:45:20.975Z</time></trkpt><trkpt lat="37.9996617" lon="15.9165633"><ele>724.0</ele><time>2026-04-12T09:45:21.975Z</time></trkpt><trkpt lat="37.9996517" lon="15.916475"><ele>723.0</ele><time>2026-04-12T09:45:22.975Z</time></trkpt><trkpt lat="37.99965" lon="15.91639"><ele>722.0</ele><time>2026-04-12T09:45:23.975Z</time></trkpt><trkpt lat="37.999665" lon="15.916305"><ele>721.0</ele><time>2026-04-12T09:45:24.975Z</time></trkpt><trkpt lat="37.9996817" lon="15.9161617"><ele>720.0</ele><time>2026-04-12T09:45:26.975Z</time></trkpt><trkpt lat="37.9996933" lon="15.9160733"><ele>719.0</ele><time>2026-04-12T09:45:28.976Z</time></trkpt><trkpt lat="37.9996117" lon="15.9160017"><ele>718.0</ele><time>2026-04-12T09:45:31.976Z</time></trkpt><trkpt lat="37.99954" lon="15.915935"><ele>717.6666666666667</ele><time>2026-04-12T09:45:33.975Z</time></trkpt><trkpt lat="37.9994817" lon="15.9158033"><ele>717.3333333333334</ele><time>2026-04-12T09:45:35.975Z</time></trkpt><trkpt lat="37.999465" lon="15.9157117"><ele>717.0</ele><time>2026-04-12T09:45:36.975Z</time></trkpt><trkpt lat="37.999455" lon="15.9156233"><ele>716.6666666666666</ele><time>2026-04-12T09:45:37.976Z</time></trkpt><trkpt lat="37.9994383" lon="15.9155333"><ele>716.3333333333333</ele><time>2026-04-12T09:45:38.976Z</time></trkpt><trkpt lat="37.9994133" lon="15.9154583"><ele>716.0</ele><time>2026-04-12T09:45:39.975Z</time></trkpt><trkpt lat="37.9993267" lon="15.915345"><ele>716.0</ele><time>2026-04-12T09:45:41.975Z</time></trkpt><trkpt lat="37.9992633" lon="15.9152983"><ele>716.0</ele><time>2026-04-12T09:45:42.975Z</time></trkpt><trkpt lat="37.9991933" lon="15.91523"><ele>716.0</ele><time>2026-04-12T09:45:43.976Z</time></trkpt><trkpt lat="37.9991217" lon="15.915165"><ele>716.0</ele><time>2026-04-12T09:45:44.975Z</time></trkpt><trkpt lat="37.9990533" lon="15.9150917"><ele>716.0</ele><time>2026-04-12T09:45:45.976Z</time></trkpt><trkpt lat="37.9989867" lon="15.9150133"><ele>716.0</ele><time>2026-04-12T09:45:46.976Z</time></trkpt><trkpt lat="37.9989117" lon="15.9149367"><ele>719.8</ele><time>2026-04-12T09:45:47.975Z</time></trkpt><trkpt lat="37.99884" lon="15.9148633"><ele>723.5999999999999</ele><time>2026-04-12T09:45:48.975Z</time></trkpt><trkpt lat="37.9987717" lon="15.91479"><ele>727.4</ele><time>2026-04-12T09:45:49.975Z</time></trkpt><trkpt lat="37.9987033" lon="15.91471"><ele>731.2</ele><time>2026-04-12T09:45:50.975Z</time></trkpt><trkpt lat="37.998645" lon="15.914625"><ele>735.0</ele><time>2026-04-12T09:45:51.975Z</time></trkpt><trkpt lat="37.9985883" lon="15.9145333"><ele>735.0</ele><time>2026-04-12T09:45:52.975Z</time></trkpt><trkpt lat="37.9985333" lon="15.9144483"><ele>735.0</ele><time>2026-04-12T09:45:53.975Z</time></trkpt><trkpt lat="37.99847" lon="15.9143667"><ele>735.0</ele><time>2026-04-12T09:45:54.975Z</time></trkpt><trkpt lat="37.9984033" lon="15.9142933"><ele>735.0</ele><time>2026-04-12T09:45:55.975Z</time></trkpt><trkpt lat="37.99833" lon="15.914235"><ele>735.0</ele><time>2026-04-12T09:45:56.975Z</time></trkpt><trkpt lat="37.9982517" lon="15.9141933"><ele>735.0</ele><time>2026-04-12T09:45:57.975Z</time></trkpt><trkpt lat="37.9981617" lon="15.9141683"><ele>734.6666666666666</ele><time>2026-04-12T09:45:58.976Z</time></trkpt><trkpt lat="37.998085" lon="15.9141583"><ele>734.3333333333334</ele><time>2026-04-12T09:45:59.975Z</time></trkpt><trkpt lat="37.998015" lon="15.9141733"><ele>734.0</ele><time>2026-04-12T09:46:00.976Z</time></trkpt><trkpt lat="37.997955" lon="15.9142"><ele>733.6666666666667</ele><time>2026-04-12T09:46:01.975Z</time></trkpt><trkpt lat="37.997895" lon="15.9142367"><ele>733.3333333333334</ele><time>2026-04-12T09:46:02.976Z</time></trkpt><trkpt lat="37.9978367" lon="15.9142783"><ele>733.0</ele><time>2026-04-12T09:46:03.975Z</time></trkpt><trkpt lat="37.99773" lon="15.9143367"><ele>733.0</ele><time>2026-04-12T09:46:05.975Z</time></trkpt><trkpt lat="37.9976367" lon="15.914265"><ele>733.0</ele><time>2026-04-12T09:46:07.975Z</time></trkpt><trkpt lat="37.9975917" lon="15.9141933"><ele>733.0</ele><time>2026-04-12T09:46:08.975Z</time></trkpt><trkpt lat="37.9975567" lon="15.9141"><ele>733.0</ele><time>2026-04-12T09:46:09.975Z</time></trkpt><trkpt lat="37.9975217" lon="15.9140083"><ele>733.0</ele><time>2026-04-12T09:46:10.975Z</time></trkpt><trkpt lat="37.9974883" lon="15.913915"><ele>733.0</ele><time>2026-04-12T09:46:11.975Z</time></trkpt><trkpt lat="37.9974483" lon="15.9138233"><ele>728.6666666666667</ele><time>2026-04-12T09:46:12.976Z</time></trkpt><trkpt lat="37.9974017" lon="15.913735"><ele>724.3333333333334</ele><time>2026-04-12T09:46:13.975Z</time></trkpt><trkpt lat="37.9973433" lon="15.91366"><ele>720.0</ele><time>2026-04-12T09:46:14.976Z</time></trkpt><trkpt lat="37.9972833" lon="15.91359"><ele>715.6666666666666</ele><time>2026-04-12T09:46:15.975Z</time></trkpt><trkpt lat="37.9972183" lon="15.9135283"><ele>711.3333333333333</ele><time>2026-04-12T09:46:16.976Z</time></trkpt><trkpt lat="37.9971483" lon="15.9134817"><ele>707.0</ele><time>2026-04-12T09:46:17.975Z</time></trkpt><trkpt lat="37.9970917" lon="15.91344"><ele>712.4000000000001</ele><time>2026-04-12T09:46:18.975Z</time></trkpt><trkpt lat="37.9970283" lon="15.9133533"><ele>717.8000000000001</ele><time>2026-04-12T09:46:20.975Z</time></trkpt><trkpt lat="37.997025" lon="15.9131933"><ele>723.2</ele><time>2026-04-12T09:46:22.976Z</time></trkpt><trkpt lat="37.99703" lon="15.9130917"><ele>728.6</ele><time>2026-04-12T09:46:23.975Z</time></trkpt><trkpt lat="37.9970167" lon="15.9129933"><ele>734.0</ele><time>2026-04-12T09:46:24.975Z</time></trkpt><trkpt lat="37.996995" lon="15.9128867"><ele>734.0</ele><time>2026-04-12T09:46:25.976Z</time></trkpt><trkpt lat="37.9969667" lon="15.91278"><ele>734.0</ele><time>2026-04-12T09:46:26.975Z</time></trkpt><trkpt lat="37.996945" lon="15.9126683"><ele>734.0</ele><time>2026-04-12T09:46:27.976Z</time></trkpt><trkpt lat="37.9969217" lon="15.91256"><ele>734.0</ele><time>2026-04-12T09:46:28.976Z</time></trkpt><trkpt lat="37.9969133" lon="15.912455"><ele>734.0</ele><time>2026-04-12T09:46:29.975Z</time></trkpt><trkpt lat="37.996915" lon="15.9123583"><ele>734.0</ele><time>2026-04-12T09:46:30.975Z</time></trkpt><trkpt lat="37.996905" lon="15.9122767"><ele>731.0</ele><time>2026-04-12T09:46:31.975Z</time></trkpt><trkpt lat="37.9968817" lon="15.9121867"><ele>728.0</ele><time>2026-04-12T09:46:33.976Z</time></trkpt><trkpt lat="37.9968" lon="15.9121917"><ele>725.0</ele><time>2026-04-12T09:46:36.975Z</time></trkpt><trkpt lat="37.99669" lon="15.912285"><ele>722.0</ele><time>2026-04-12T09:46:38.975Z</time></trkpt><trkpt lat="37.9966317" lon="15.9123483"><ele>719.0</ele><time>2026-04-12T09:46:39.975Z</time></trkpt><trkpt lat="37.9965717" lon="15.9124217"><ele>716.0</ele><time>2026-04-12T09:46:40.975Z</time></trkpt><trkpt lat="37.9965267" lon="15.9125033"><ele>710.4</ele><time>2026-04-12T09:46:41.975Z</time></trkpt><trkpt lat="37.9964867" lon="15.9125983"><ele>704.8</ele><time>2026-04-12T09:46:42.975Z</time></trkpt><trkpt lat="37.9964583" lon="15.9126933"><ele>699.1999999999999</ele><time>2026-04-12T09:46:43.976Z</time></trkpt><trkpt lat="37.99643" lon="15.9128317"><ele>693.5999999999999</ele><time>2026-04-12T09:46:45.975Z</time></trkpt><trkpt lat="37.99636" lon="15.9128983"><ele>688.0</ele><time>2026-04-12T09:46:47.975Z</time></trkpt><trkpt lat="37.99625" lon="15.91289"><ele>688.0</ele><time>2026-04-12T09:46:49.975Z</time></trkpt><trkpt lat="37.996155" lon="15.9128517"><ele>688.0</ele><time>2026-04-12T09:46:51.975Z</time></trkpt><trkpt lat="37.9960733" lon="15.9127633"><ele>688.0</ele><time>2026-04-12T09:46:53.975Z</time></trkpt><trkpt lat="37.9960283" lon="15.9126233"><ele>688.0</ele><time>2026-04-12T09:46:55.975Z</time></trkpt><trkpt lat="37.99602" lon="15.9125383"><ele>688.0</ele><time>2026-04-12T09:46:56.975Z</time></trkpt><trkpt lat="37.9960333" lon="15.9124517"><ele>688.8333333333334</ele><time>2026-04-12T09:46:57.975Z</time></trkpt><trkpt lat="37.9960583" lon="15.9123633"><ele>689.6666666666667</ele><time>2026-04-12T09:46:58.975Z</time></trkpt><trkpt lat="37.9960983" lon="15.912275"><ele>690.5</ele><time>2026-04-12T09:46:59.975Z</time></trkpt><trkpt lat="37.996145" lon="15.912195"><ele>691.3333333333334</ele><time>2026-04-12T09:47:00.975Z</time></trkpt><trkpt lat="37.9961983" lon="15.9121167"><ele>692.1666666666666</ele><time>2026-04-12T09:47:01.975Z</time></trkpt><trkpt lat="37.9962533" lon="15.9120383"><ele>693.0</ele><time>2026-04-12T09:47:02.976Z</time></trkpt><trkpt lat="37.9963033" lon="15.9119567"><ele>693.0</ele><time>2026-04-12T09:47:03.975Z</time></trkpt><trkpt lat="37.9963517" lon="15.91187"><ele>693.0</ele><time>2026-04-12T09:47:04.975Z</time></trkpt><trkpt lat="37.9964" lon="15.9117933"><ele>693.0</ele><time>2026-04-12T09:47:05.975Z</time></trkpt><trkpt lat="37.99644" lon="15.91172"><ele>693.0</ele><time>2026-04-12T09:47:06.976Z</time></trkpt><trkpt lat="37.9964783" lon="15.9116517"><ele>693.0</ele><time>2026-04-12T09:47:07.975Z</time></trkpt><trkpt lat="37.9965117" lon="15.91158"><ele>693.0</ele><time>2026-04-12T09:47:08.975Z</time></trkpt><trkpt lat="37.9965383" lon="15.9114517"><ele>687.8</ele><time>2026-04-12T09:47:10.975Z</time></trkpt><trkpt lat="37.9965167" lon="15.91131"><ele>682.5999999999999</ele><time>2026-04-12T09:47:12.976Z</time></trkpt><trkpt lat="37.9965083" lon="15.9111667"><ele>677.4000000000001</ele><time>2026-04-12T09:47:14.976Z</time></trkpt><trkpt lat="37.9965" lon="15.9110033"><ele>672.2</ele><time>2026-04-12T09:47:16.976Z</time></trkpt><trkpt lat="37.9964717" lon="15.9109133"><ele>667.0</ele><time>2026-04-12T09:47:17.975Z</time></trkpt><trkpt lat="37.9964267" lon="15.910825"><ele>662.3333333333334</ele><time>2026-04-12T09:47:18.975Z</time></trkpt><trkpt lat="37.996385" lon="15.9107367"><ele>657.6666666666667</ele><time>2026-04-12T09:47:19.975Z</time></trkpt><trkpt lat="37.9963433" lon="15.910655"><ele>653.0</ele><time>2026-04-12T09:47:20.975Z</time></trkpt><trkpt lat="37.9962983" lon="15.910585"><ele>648.3333333333334</ele><time>2026-04-12T09:47:21.975Z</time></trkpt><trkpt lat="37.99621" lon="15.91051"><ele>643.6666666666666</ele><time>2026-04-12T09:47:23.975Z</time></trkpt><trkpt lat="37.9961167" lon="15.910545"><ele>639.0</ele><time>2026-04-12T09:47:25.975Z</time></trkpt><trkpt lat="37.9960683" lon="15.91061"><ele>639.0</ele><time>2026-04-12T09:47:26.975Z</time></trkpt><trkpt lat="37.99602" lon="15.9106917"><ele>639.0</ele><time>2026-04-12T09:47:27.975Z</time></trkpt><trkpt lat="37.9959567" lon="15.9107867"><ele>639.0</ele><time>2026-04-12T09:47:28.976Z</time></trkpt><trkpt lat="37.995895" lon="15.9108767"><ele>639.0</ele><time>2026-04-12T09:47:29.975Z</time></trkpt><trkpt lat="37.9958317" lon="15.910955"><ele>639.0</ele><time>2026-04-12T09:47:30.975Z</time></trkpt><trkpt lat="37.9957733" lon="15.9110117"><ele>639.0</ele><time>2026-04-12T09:47:31.975Z</time></trkpt><trkpt lat="37.99569" lon="15.9110533"><ele>639.8333333333334</ele><time>2026-04-12T09:47:33.975Z</time></trkpt><trkpt lat="37.9956133" lon="15.9109883"><ele>640.6666666666666</ele><time>2026-04-12T09:47:35.976Z</time></trkpt><trkpt lat="37.9955733" lon="15.910905"><ele>641.5</ele><time>2026-04-12T09:47:36.975Z</time></trkpt><trkpt lat="37.9955483" lon="15.9107933"><ele>642.3333333333333</ele><time>2026-04-12T09:47:37.975Z</time></trkpt><trkpt lat="37.99553" lon="15.91068"><ele>643.1666666666666</ele><time>2026-04-12T09:47:38.975Z</time></trkpt><trkpt lat="37.995525" lon="15.9105817"><ele>644.0</ele><time>2026-04-12T09:47:39.975Z</time></trkpt><trkpt lat="37.9955133" lon="15.91044"><ele>644.0</ele><time>2026-04-12T09:47:41.975Z</time></trkpt><trkpt lat="37.9954267" lon="15.9104417"><ele>644.0</ele><time>2026-04-12T09:47:44.975Z</time></trkpt><trkpt lat="37.9953917" lon="15.91055"><ele>644.0</ele><time>2026-04-12T09:47:46.975Z</time></trkpt><trkpt lat="37.9953833" lon="15.910635"><ele>644.0</ele><time>2026-04-12T09:47:47.975Z</time></trkpt><trkpt lat="37.99538" lon="15.9107367"><ele>644.0</ele><time>2026-04-12T09:47:48.975Z</time></trkpt><trkpt lat="37.9953817" lon="15.9108517"><ele>644.0</ele><time>2026-04-12T09:47:49.975Z</time></trkpt><trkpt lat="37.9953783" lon="15.9109733"><ele>645.6</ele><time>2026-04-12T09:47:50.976Z</time></trkpt><trkpt lat="37.9953733" lon="15.9111"><ele>647.2</ele><time>2026-04-12T09:47:51.975Z</time></trkpt><trkpt lat="37.9953583" lon="15.91123"><ele>648.8000000000001</ele><time>2026-04-12T09:47:52.976Z</time></trkpt><trkpt lat="37.9953417" lon="15.9113567"><ele>650.4000000000001</ele><time>2026-04-12T09:47:53.975Z</time></trkpt><trkpt lat="37.9953283" lon="15.9114817"><ele>652.0</ele><time>2026-04-12T09:47:54.975Z</time></trkpt><trkpt lat="37.9953067" lon="15.9116117"><ele>654.4000000000001</ele><time>2026-04-12T09:47:55.975Z</time></trkpt><trkpt lat="37.995275" lon="15.9117417"><ele>656.8000000000001</ele><time>2026-04-12T09:47:56.975Z</time></trkpt><trkpt lat="37.9952317" lon="15.9118583"><ele>659.2</ele><time>2026-04-12T09:47:57.975Z</time></trkpt><trkpt lat="37.9951883" lon="15.911965"><ele>661.6</ele><time>2026-04-12T09:47:58.975Z</time></trkpt><trkpt lat="37.9951533" lon="15.9120633"><ele>664.0</ele><time>2026-04-12T09:47:59.976Z</time></trkpt><trkpt lat="37.9951217" lon="15.9121617"><ele>664.0</ele><time>2026-04-12T09:48:00.975Z</time></trkpt><trkpt lat="37.9950967" lon="15.9122633"><ele>664.0</ele><time>2026-04-12T09:48:01.975Z</time></trkpt><trkpt lat="37.99507" lon="15.9123567"><ele>664.0</ele><time>2026-04-12T09:48:02.975Z</time></trkpt><trkpt lat="37.9950333" lon="15.9124267"><ele>664.0</ele><time>2026-04-12T09:48:03.975Z</time></trkpt><trkpt lat="37.9949867" lon="15.912495"><ele>664.0</ele><time>2026-04-12T09:48:04.975Z</time></trkpt><trkpt lat="37.994925" lon="15.912575"><ele>664.0</ele><time>2026-04-12T09:48:05.975Z</time></trkpt><trkpt lat="37.9948533" lon="15.91268"><ele>658.0</ele><time>2026-04-12T09:48:06.975Z</time></trkpt><trkpt lat="37.9947783" lon="15.9127867"><ele>652.0</ele><time>2026-04-12T09:48:07.976Z</time></trkpt><trkpt lat="37.9947083" lon="15.9128883"><ele>646.0</ele><time>2026-04-12T09:48:08.976Z</time></trkpt><trkpt lat="37.994665" lon="15.912975"><ele>640.0</ele><time>2026-04-12T09:48:09.975Z</time></trkpt><trkpt lat="37.994625" lon="15.9130567"><ele>634.0</ele><time>2026-04-12T09:48:10.975Z</time></trkpt><trkpt lat="37.9945817" lon="15.9131333"><ele>634.0</ele><time>2026-04-12T09:48:11.975Z</time></trkpt><trkpt lat="37.99453" lon="15.91321"><ele>634.0</ele><time>2026-04-12T09:48:12.975Z</time></trkpt><trkpt lat="37.99448" lon="15.9132733"><ele>634.0</ele><time>2026-04-12T09:48:13.975Z</time></trkpt><trkpt lat="37.9943867" lon="15.9133633"><ele>634.0</ele><time>2026-04-12T09:48:15.976Z</time></trkpt><trkpt lat="37.9943317" lon="15.91342"><ele>634.0</ele><time>2026-04-12T09:48:17.975Z</time></trkpt><trkpt lat="37.99427" lon="15.9133333"><ele>634.0</ele><time>2026-04-12T09:48:20.975Z</time></trkpt><trkpt lat="37.9942783" lon="15.91318"><ele>634.0</ele><time>2026-04-12T09:48:22.975Z</time></trkpt><trkpt lat="37.99429" lon="15.91308"><ele>634.0</ele><time>2026-04-12T09:48:23.976Z</time></trkpt><trkpt lat="37.9943033" lon="15.9129767"><ele>634.0</ele><time>2026-04-12T09:48:24.976Z</time></trkpt><trkpt lat="37.9943183" lon="15.9128783"><ele>634.0</ele><time>2026-04-12T09:48:25.975Z</time></trkpt><trkpt lat="37.9943417" lon="15.9127733"><ele>634.0</ele><time>2026-04-12T09:48:26.975Z</time></trkpt><trkpt lat="37.9943767" lon="15.9126833"><ele>634.0</ele><time>2026-04-12T09:48:27.975Z</time></trkpt><trkpt lat="37.9944267" lon="15.9125983"><ele>632.3333333333334</ele><time>2026-04-12T09:48:28.975Z</time></trkpt><trkpt lat="37.9944833" lon="15.9125183"><ele>630.6666666666667</ele><time>2026-04-12T09:48:29.976Z</time></trkpt><trkpt lat="37.9945383" lon="15.912435"><ele>629.0</ele><time>2026-04-12T09:48:30.975Z</time></trkpt><trkpt lat="37.9945883" lon="15.9123617"><ele>627.3333333333334</ele><time>2026-04-12T09:48:31.975Z</time></trkpt><trkpt lat="37.99463" lon="15.9122883"><ele>625.6666666666666</ele><time>2026-04-12T09:48:32.975Z</time></trkpt><trkpt lat="37.9946717" lon="15.9122133"><ele>624.0</ele><time>2026-04-12T09:48:33.976Z</time></trkpt><trkpt lat="37.9946933" lon="15.91212"><ele>624.0</ele><time>2026-04-12T09:48:34.975Z</time></trkpt><trkpt lat="37.9947117" lon="15.9120167"><ele>624.0</ele><time>2026-04-12T09:48:35.975Z</time></trkpt><trkpt lat="37.9947267" lon="15.9119033"><ele>624.0</ele><time>2026-04-12T09:48:36.976Z</time></trkpt><trkpt lat="37.9947417" lon="15.9117967"><ele>624.0</ele><time>2026-04-12T09:48:37.975Z</time></trkpt><trkpt lat="37.994755" lon="15.9116917"><ele>624.0</ele><time>2026-04-12T09:48:38.975Z</time></trkpt><trkpt lat="37.9947617" lon="15.9115883"><ele>624.0</ele><time>2026-04-12T09:48:39.975Z</time></trkpt><trkpt lat="37.9947567" lon="15.911495"><ele>621.8333333333334</ele><time>2026-04-12T09:48:40.975Z</time></trkpt><trkpt lat="37.99474" lon="15.9114117"><ele>619.6666666666666</ele><time>2026-04-12T09:48:41.976Z</time></trkpt><trkpt lat="37.9947" lon="15.9113283"><ele>617.5</ele><time>2026-04-12T09:48:42.975Z</time></trkpt><trkpt lat="37.9946583" lon="15.91124"><ele>615.3333333333333</ele><time>2026-04-12T09:48:43.975Z</time></trkpt><trkpt lat="37.9946167" lon="15.9111417"><ele>613.1666666666666</ele><time>2026-04-12T09:48:44.975Z</time></trkpt><trkpt lat="37.99458" lon="15.9110417"><ele>611.0</ele><time>2026-04-12T09:48:45.975Z</time></trkpt><trkpt lat="37.994545" lon="15.9109417"><ele>609.6666666666666</ele><time>2026-04-12T09:48:46.976Z</time></trkpt><trkpt lat="37.99452" lon="15.91084"><ele>608.3333333333333</ele><time>2026-04-12T09:48:47.975Z</time></trkpt><trkpt lat="37.9945017" lon="15.9107333"><ele>607.0</ele><time>2026-04-12T09:48:48.976Z</time></trkpt><trkpt lat="37.99447" lon="15.9106283"><ele>605.6666666666666</ele><time>2026-04-12T09:48:49.975Z</time></trkpt><trkpt lat="37.99444" lon="15.9105183"><ele>604.3333333333334</ele><time>2026-04-12T09:48:50.975Z</time></trkpt><trkpt lat="37.99441" lon="15.9104117"><ele>603.0</ele><time>2026-04-12T09:48:51.975Z</time></trkpt><trkpt lat="37.9943933" lon="15.910315"><ele>603.0</ele><time>2026-04-12T09:48:52.975Z</time></trkpt><trkpt lat="37.9943883" lon="15.910215"><ele>603.0</ele><time>2026-04-12T09:48:53.976Z</time></trkpt><trkpt lat="37.994395" lon="15.9101133"><ele>603.0</ele><time>2026-04-12T09:48:54.975Z</time></trkpt><trkpt lat="37.9944217" lon="15.9100367"><ele>603.0</ele><time>2026-04-12T09:48:55.975Z</time></trkpt><trkpt lat="37.994465" lon="15.9099667"><ele>603.0</ele><time>2026-04-12T09:48:56.975Z</time></trkpt><trkpt lat="37.994525" lon="15.9099067"><ele>603.0</ele><time>2026-04-12T09:48:57.976Z</time></trkpt><trkpt lat="37.9945967" lon="15.9098433"><ele>600.5</ele><time>2026-04-12T09:48:58.975Z</time></trkpt><trkpt lat="37.9946683" lon="15.90978"><ele>598.0</ele><time>2026-04-12T09:48:59.975Z</time></trkpt><trkpt lat="37.994725" lon="15.9097117"><ele>595.5</ele><time>2026-04-12T09:49:00.976Z</time></trkpt><trkpt lat="37.994775" lon="15.9096417"><ele>593.0</ele><time>2026-04-12T09:49:01.976Z</time></trkpt><trkpt lat="37.9948067" lon="15.909555"><ele>590.5</ele><time>2026-04-12T09:49:02.976Z</time></trkpt><trkpt lat="37.9948217" lon="15.9094717"><ele>588.0</ele><time>2026-04-12T09:49:03.975Z</time></trkpt><trkpt lat="37.9948167" lon="15.9093833"><ele>588.0</ele><time>2026-04-12T09:49:04.975Z</time></trkpt><trkpt lat="37.994795" lon="15.9092883"><ele>588.0</ele><time>2026-04-12T09:49:05.975Z</time></trkpt><trkpt lat="37.9947617" lon="15.9091783"><ele>588.0</ele><time>2026-04-12T09:49:06.975Z</time></trkpt><trkpt lat="37.994725" lon="15.9090717"><ele>588.0</ele><time>2026-04-12T09:49:07.975Z</time></trkpt><trkpt lat="37.9946867" lon="15.9089617"><ele>588.0</ele><time>2026-04-12T09:49:08.976Z</time></trkpt><trkpt lat="37.9946433" lon="15.9088617"><ele>588.0</ele><time>2026-04-12T09:49:09.975Z</time></trkpt><trkpt lat="37.994595" lon="15.9087683"><ele>585.6666666666666</ele><time>2026-04-12T09:49:10.975Z</time></trkpt><trkpt lat="37.994535" lon="15.9086783"><ele>583.3333333333334</ele><time>2026-04-12T09:49:11.975Z</time></trkpt><trkpt lat="37.9944733" lon="15.9085983"><ele>581.0</ele><time>2026-04-12T09:49:12.975Z</time></trkpt><trkpt lat="37.994415" lon="15.908525"><ele>578.6666666666667</ele><time>2026-04-12T09:49:13.975Z</time></trkpt><trkpt lat="37.9943583" lon="15.9084483"><ele>576.3333333333334</ele><time>2026-04-12T09:49:14.976Z</time></trkpt><trkpt lat="37.9943133" lon="15.908385"><ele>574.0</ele><time>2026-04-12T09:49:15.975Z</time></trkpt><trkpt lat="37.99427" lon="15.9083183"><ele>570.8</ele><time>2026-04-12T09:49:16.976Z</time></trkpt><trkpt lat="37.9942733" lon="15.908185"><ele>567.5999999999999</ele><time>2026-04-12T09:49:18.975Z</time></trkpt><trkpt lat="37.9943683" lon="15.9080783"><ele>564.4</ele><time>2026-04-12T09:49:20.975Z</time></trkpt><trkpt lat="37.9944367" lon="15.9080283"><ele>561.1999999999999</ele><time>2026-04-12T09:49:21.975Z</time></trkpt><trkpt lat="37.9944967" lon="15.907965"><ele>558.0</ele><time>2026-04-12T09:49:22.976Z</time></trkpt><trkpt lat="37.994555" lon="15.9078867"><ele>558.0</ele><time>2026-04-12T09:49:23.976Z</time></trkpt><trkpt lat="37.9945983" lon="15.9077983"><ele>558.0</ele><time>2026-04-12T09:49:24.975Z</time></trkpt><trkpt lat="37.9946283" lon="15.9077133"><ele>558.0</ele><time>2026-04-12T09:49:25.976Z</time></trkpt><trkpt lat="37.9946467" lon="15.9076283"><ele>558.0</ele><time>2026-04-12T09:49:26.976Z</time></trkpt><trkpt lat="37.9946517" lon="15.907545"><ele>558.0</ele><time>2026-04-12T09:49:27.975Z</time></trkpt><trkpt lat="37.994635" lon="15.9074417"><ele>558.0</ele><time>2026-04-12T09:49:29.975Z</time></trkpt><trkpt lat="37.994565" lon="15.9073717"><ele>554.5714285714286</ele><time>2026-04-12T09:49:32.975Z</time></trkpt><trkpt lat="37.99448" lon="15.9072983"><ele>551.1428571428571</ele><time>2026-04-12T09:49:34.975Z</time></trkpt><trkpt lat="37.9944217" lon="15.907255"><ele>547.7142857142858</ele><time>2026-04-12T09:49:35.975Z</time></trkpt><trkpt lat="37.9943633" lon="15.90722"><ele>544.2857142857142</ele><time>2026-04-12T09:49:36.975Z</time></trkpt><trkpt lat="37.9943017" lon="15.9071867"><ele>540.8571428571429</ele><time>2026-04-12T09:49:37.975Z</time></trkpt><trkpt lat="37.9942383" lon="15.9071583"><ele>537.4285714285714</ele><time>2026-04-12T09:49:38.976Z</time></trkpt><trkpt lat="37.9941733" lon="15.9071517"><ele>534.0</ele><time>2026-04-12T09:49:39.975Z</time></trkpt><trkpt lat="37.9940783" lon="15.9072333"><ele>532.0</ele><time>2026-04-12T09:49:41.975Z</time></trkpt><trkpt lat="37.994045" lon="15.9073233"><ele>530.0</ele><time>2026-04-12T09:49:42.975Z</time></trkpt><trkpt lat="37.9940183" lon="15.9074183"><ele>528.0</ele><time>2026-04-12T09:49:43.976Z</time></trkpt><trkpt lat="37.9939867" lon="15.9075117"><ele>526.0</ele><time>2026-04-12T09:49:44.975Z</time></trkpt><trkpt lat="37.993945" lon="15.907595"><ele>524.0</ele><time>2026-04-12T09:49:45.975Z</time></trkpt><trkpt lat="37.9939083" lon="15.9076683"><ele>522.0</ele><time>2026-04-12T09:49:46.975Z</time></trkpt><trkpt lat="37.9938333" lon="15.9077567"><ele>522.0</ele><time>2026-04-12T09:49:48.975Z</time></trkpt><trkpt lat="37.9937433" lon="15.907755"><ele>522.0</ele><time>2026-04-12T09:49:50.975Z</time></trkpt><trkpt lat="37.9937067" lon="15.90762"><ele>522.0</ele><time>2026-04-12T09:49:52.975Z</time></trkpt><trkpt lat="37.9937267" lon="15.9075133"><ele>522.0</ele><time>2026-04-12T09:49:53.976Z</time></trkpt><trkpt lat="37.9937533" lon="15.9074"><ele>522.0</ele><time>2026-04-12T09:49:54.975Z</time></trkpt><trkpt lat="37.99378" lon="15.9072933"><ele>521.5</ele><time>2026-04-12T09:49:55.976Z</time></trkpt><trkpt lat="37.9937833" lon="15.9072017"><ele>521.0</ele><time>2026-04-12T09:49:56.975Z</time></trkpt><trkpt lat="37.9937567" lon="15.9071267"><ele>520.5</ele><time>2026-04-12T09:49:57.975Z</time></trkpt><trkpt lat="37.9937133" lon="15.9070567"><ele>520.0</ele><time>2026-04-12T09:49:58.975Z</time></trkpt><trkpt lat="37.9936517" lon="15.9069917"><ele>519.5</ele><time>2026-04-12T09:49:59.975Z</time></trkpt><trkpt lat="37.9935783" lon="15.90692"><ele>519.0</ele><time>2026-04-12T09:50:00.975Z</time></trkpt><trkpt lat="37.99349" lon="15.906845"><ele>519.0</ele><time>2026-04-12T09:50:01.975Z</time></trkpt><trkpt lat="37.9933933" lon="15.9067617"><ele>519.0</ele><time>2026-04-12T09:50:02.975Z</time></trkpt><trkpt lat="37.993295" lon="15.9066683"><ele>519.0</ele><time>2026-04-12T09:50:03.975Z</time></trkpt><trkpt lat="37.9932133" lon="15.9065767"><ele>519.0</ele><time>2026-04-12T09:50:04.975Z</time></trkpt><trkpt lat="37.9931467" lon="15.9064833"><ele>519.0</ele><time>2026-04-12T09:50:05.975Z</time></trkpt><trkpt lat="37.9930883" lon="15.9063933"><ele>514.6666666666666</ele><time>2026-04-12T09:50:06.975Z</time></trkpt><trkpt lat="37.993055" lon="15.9063"><ele>510.33333333333337</ele><time>2026-04-12T09:50:07.975Z</time></trkpt><trkpt lat="37.9930483" lon="15.9062117"><ele>506.0</ele><time>2026-04-12T09:50:08.975Z</time></trkpt><trkpt lat="37.9930667" lon="15.90612"><ele>501.6666666666667</ele><time>2026-04-12T09:50:09.975Z</time></trkpt><trkpt lat="37.9931" lon="15.9060367"><ele>497.33333333333337</ele><time>2026-04-12T09:50:10.975Z</time></trkpt><trkpt lat="37.9931467" lon="15.905945"><ele>493.0</ele><time>2026-04-12T09:50:11.975Z</time></trkpt><trkpt lat="37.9932017" lon="15.9058517"><ele>492.00000000000006</ele><time>2026-04-12T09:50:12.975Z</time></trkpt><trkpt lat="37.9932583" lon="15.9057517"><ele>491.0</ele><time>2026-04-12T09:50:13.976Z</time></trkpt><trkpt lat="37.9933183" lon="15.90565"><ele>490.0</ele><time>2026-04-12T09:50:14.975Z</time></trkpt><trkpt lat="37.9933733" lon="15.9055683"><ele>489.0</ele><time>2026-04-12T09:50:15.976Z</time></trkpt><trkpt lat="37.99342" lon="15.9054883"><ele>488.00000000000006</ele><time>2026-04-12T09:50:16.975Z</time></trkpt><trkpt lat="37.993465" lon="15.905415"><ele>487.0</ele><time>2026-04-12T09:50:17.975Z</time></trkpt><trkpt lat="37.993515" lon="15.9053567"><ele>489.83333333333337</ele><time>2026-04-12T09:50:18.975Z</time></trkpt><trkpt lat="37.993575" lon="15.9053"><ele>492.6666666666667</ele><time>2026-04-12T09:50:19.975Z</time></trkpt><trkpt lat="37.993635" lon="15.9052417"><ele>495.5</ele><time>2026-04-12T09:50:20.975Z</time></trkpt><trkpt lat="37.9937" lon="15.9051883"><ele>498.33333333333337</ele><time>2026-04-12T09:50:21.975Z</time></trkpt><trkpt lat="37.99376" lon="15.905135"><ele>501.1666666666667</ele><time>2026-04-12T09:50:22.975Z</time></trkpt><trkpt lat="37.9938083" lon="15.9050733"><ele>504.0</ele><time>2026-04-12T09:50:23.976Z</time></trkpt><trkpt lat="37.993865" lon="15.9049617"><ele>504.0</ele><time>2026-04-12T09:50:25.975Z</time></trkpt><trkpt lat="37.9938667" lon="15.9048233"><ele>504.0</ele><time>2026-04-12T09:50:27.975Z</time></trkpt><trkpt lat="37.9938633" lon="15.90472"><ele>504.0</ele><time>2026-04-12T09:50:29.975Z</time></trkpt><trkpt lat="37.993845" lon="15.9045933"><ele>504.0</ele><time>2026-04-12T09:50:56.975Z</time></trkpt><trkpt lat="37.993875" lon="15.90447"><ele>504.0</ele><time>2026-04-12T09:50:58.974Z</time></trkpt><trkpt lat="37.9938817" lon="15.9043167"><ele>498.0</ele><time>2026-04-12T09:51:00.974Z</time></trkpt><trkpt lat="37.9938633" lon="15.9041567"><ele>492.0</ele><time>2026-04-12T09:51:02.975Z</time></trkpt><trkpt lat="37.9938617" lon="15.9040717"><ele>486.0</ele><time>2026-04-12T09:51:03.974Z</time></trkpt><trkpt lat="37.993855" lon="15.903985"><ele>480.0</ele><time>2026-04-12T09:51:04.975Z</time></trkpt><trkpt lat="37.9938533" lon="15.903905"><ele>474.0</ele><time>2026-04-12T09:51:05.974Z</time></trkpt><trkpt lat="37.9938483" lon="15.9038217"><ele>468.0</ele><time>2026-04-12T09:51:06.974Z</time></trkpt><trkpt lat="37.993845" lon="15.9037383"><ele>468.0</ele><time>2026-04-12T09:51:07.974Z</time></trkpt><trkpt lat="37.9938433" lon="15.9036583"><ele>468.00000000000006</ele><time>2026-04-12T09:51:08.975Z</time></trkpt><trkpt lat="37.9938483" lon="15.9035767"><ele>468.0</ele><time>2026-04-12T09:51:09.975Z</time></trkpt><trkpt lat="37.9938617" lon="15.90349"><ele>468.0</ele><time>2026-04-12T09:51:10.975Z</time></trkpt><trkpt lat="37.9938867" lon="15.903405"><ele>468.00000000000006</ele><time>2026-04-12T09:51:11.974Z</time></trkpt><trkpt lat="37.993925" lon="15.9033133"><ele>468.0</ele><time>2026-04-12T09:51:12.974Z</time></trkpt><trkpt lat="37.993965" lon="15.9032217"><ele>468.0</ele><time>2026-04-12T09:51:13.974Z</time></trkpt><trkpt lat="37.9940017" lon="15.9031267"><ele>461.79999999999995</ele><time>2026-04-12T09:51:14.974Z</time></trkpt><trkpt lat="37.9940317" lon="15.9030433"><ele>455.59999999999997</ele><time>2026-04-12T09:51:15.975Z</time></trkpt><trkpt lat="37.99406" lon="15.90291"><ele>449.40000000000003</ele><time>2026-04-12T09:51:17.974Z</time></trkpt><trkpt lat="37.994075" lon="15.9027667"><ele>443.20000000000005</ele><time>2026-04-12T09:51:19.974Z</time></trkpt><trkpt lat="37.9940967" lon="15.9026217"><ele>437.0</ele><time>2026-04-12T09:51:21.974Z</time></trkpt><trkpt lat="37.9941333" lon="15.9024917"><ele>434.8333333333333</ele><time>2026-04-12T09:51:23.974Z</time></trkpt><trkpt lat="37.99418" lon="15.90241"><ele>432.66666666666663</ele><time>2026-04-12T09:51:25.974Z</time></trkpt><trkpt lat="37.9941667" lon="15.9023233"><ele>430.5</ele><time>2026-04-12T09:51:28.974Z</time></trkpt><trkpt lat="37.99425" lon="15.9022767"><ele>428.33333333333337</ele><time>2026-04-12T09:52:32.975Z</time></trkpt><trkpt lat="37.9941683" lon="15.9023183"><ele>426.1666666666667</ele><time>2026-04-12T09:54:59.974Z</time></trkpt><trkpt lat="37.9941033" lon="15.9023533"><ele>424.0</ele><time>2026-04-12T09:55:01.974Z</time></trkpt><trkpt lat="37.9940433" lon="15.9024417"><ele>424.00000000000006</ele><time>2026-04-12T09:55:03.974Z</time></trkpt><trkpt lat="37.99401" lon="15.90253"><ele>424.0</ele><time>2026-04-12T09:55:05.974Z</time></trkpt><trkpt lat="37.993945" lon="15.90252"><ele>424.0</ele><time>2026-04-12T09:55:08.974Z</time></trkpt><trkpt lat="37.993945" lon="15.9024333"><ele>424.0</ele><time>2026-04-12T09:55:10.975Z</time></trkpt><trkpt lat="37.99398" lon="15.9023133"><ele>424.00000000000006</ele><time>2026-04-12T09:55:12.974Z</time></trkpt><trkpt lat="37.9940033" lon="15.9022033"><ele>424.0</ele><time>2026-04-12T09:55:14.974Z</time></trkpt><trkpt lat="37.9940367" lon="15.90212"><ele>424.0</ele><time>2026-04-12T09:55:16.974Z</time></trkpt><trkpt lat="37.9941017" lon="15.90205"><ele>424.0</ele><time>2026-04-12T09:55:18.974Z</time></trkpt><trkpt lat="37.9941483" lon="15.9019533"><ele>424.0</ele><time>2026-04-12T09:55:20.975Z</time></trkpt><trkpt lat="37.9941383" lon="15.9018183"><ele>424.0</ele><time>2026-04-12T09:55:22.975Z</time></trkpt><trkpt lat="37.9940817" lon="15.9017233"><ele>424.0</ele><time>2026-04-12T09:55:24.974Z</time></trkpt><trkpt lat="37.9939917" lon="15.9017433"><ele>424.0</ele><time>2026-04-12T09:55:26.974Z</time></trkpt><trkpt lat="37.9939283" lon="15.9018767"><ele>424.0</ele><time>2026-04-12T09:55:28.974Z</time></trkpt><trkpt lat="37.9938967" lon="15.9019567"><ele>424.0</ele><time>2026-04-12T09:55:29.974Z</time></trkpt><trkpt lat="37.9938667" lon="15.902035"><ele>424.0</ele><time>2026-04-12T09:55:30.974Z</time></trkpt><trkpt lat="37.9938167" lon="15.9021417"><ele>424.0</ele><time>2026-04-12T09:55:32.974Z</time></trkpt><trkpt lat="37.9937717" lon="15.9022717"><ele>424.00000000000006</ele><time>2026-04-12T09:56:03.975Z</time></trkpt><trkpt lat="37.9937283" lon="15.9023433"><ele>424.0</ele><time>2026-04-12T09:56:05.975Z</time></trkpt><trkpt lat="37.99367" lon="15.9024733"><ele>424.0</ele><time>2026-04-12T09:56:07.974Z</time></trkpt><trkpt lat="37.993635" lon="15.9025433"><ele>424.0</ele><time>2026-04-12T09:56:08.975Z</time></trkpt><trkpt lat="37.9935917" lon="15.902615"><ele>424.00000000000006</ele><time>2026-04-12T09:56:09.974Z</time></trkpt><trkpt lat="37.9935383" lon="15.9026817"><ele>424.0</ele><time>2026-04-12T09:56:10.975Z</time></trkpt><trkpt lat="37.993495" lon="15.90275"><ele>424.0</ele><time>2026-04-12T09:56:11.974Z</time></trkpt><trkpt lat="37.99343" lon="15.9028483"><ele>424.0</ele><time>2026-04-12T09:56:13.974Z</time></trkpt><trkpt lat="37.9933783" lon="15.902785"><ele>424.0</ele><time>2026-04-12T09:56:17.974Z</time></trkpt><trkpt lat="37.993405" lon="15.9026467"><ele>424.0</ele><time>2026-04-12T09:56:19.974Z</time></trkpt><trkpt lat="37.99343" lon="15.9024983"><ele>424.0</ele><time>2026-04-12T09:56:21.975Z</time></trkpt><trkpt lat="37.9934467" lon="15.90242"><ele>424.00000000000006</ele><time>2026-04-12T09:56:22.975Z</time></trkpt><trkpt lat="37.9934517" lon="15.9023333"><ele>424.0</ele><time>2026-04-12T09:56:23.974Z</time></trkpt><trkpt lat="37.9934617" lon="15.90224"><ele>424.0</ele><time>2026-04-12T09:56:24.974Z</time></trkpt><trkpt lat="37.993475" lon="15.9021467"><ele>424.0</ele><time>2026-04-12T09:56:25.974Z</time></trkpt><trkpt lat="37.9934767" lon="15.90204"><ele>424.00000000000006</ele><time>2026-04-12T09:56:26.975Z</time></trkpt><trkpt lat="37.9934633" lon="15.90192"><ele>424.0</ele><time>2026-04-12T09:56:27.975Z</time></trkpt><trkpt lat="37.9934567" lon="15.9018"><ele>419.00000000000006</ele><time>2026-04-12T09:56:28.974Z</time></trkpt><trkpt lat="37.99344" lon="15.9016833"><ele>414.0</ele><time>2026-04-12T09:56:29.974Z</time></trkpt><trkpt lat="37.9934183" lon="15.9015783"><ele>409.0</ele><time>2026-04-12T09:56:30.974Z</time></trkpt><trkpt lat="37.9933933" lon="15.901475"><ele>404.0</ele><time>2026-04-12T09:56:31.975Z</time></trkpt><trkpt lat="37.993365" lon="15.9013917"><ele>399.00000000000006</ele><time>2026-04-12T09:56:32.974Z</time></trkpt><trkpt lat="37.9933317" lon="15.90132"><ele>394.0</ele><time>2026-04-12T09:56:33.975Z</time></trkpt><trkpt lat="37.99329" lon="15.90126"><ele>391.33333333333337</ele><time>2026-04-12T09:56:34.974Z</time></trkpt><trkpt lat="37.9932267" lon="15.901205"><ele>388.6666666666667</ele><time>2026-04-12T09:56:35.974Z</time></trkpt><trkpt lat="37.9931583" lon="15.9011567"><ele>386.0</ele><time>2026-04-12T09:56:36.975Z</time></trkpt><trkpt lat="37.99308" lon="15.9011083"><ele>383.33333333333337</ele><time>2026-04-12T09:56:37.974Z</time></trkpt><trkpt lat="37.9930033" lon="15.9010583"><ele>380.6666666666667</ele><time>2026-04-12T09:56:38.974Z</time></trkpt><trkpt lat="37.99293" lon="15.901005"><ele>378.0</ele><time>2026-04-12T09:56:39.974Z</time></trkpt><trkpt lat="37.99286" lon="15.9009433"><ele>376.0</ele><time>2026-04-12T09:56:40.974Z</time></trkpt><trkpt lat="37.9928017" lon="15.9008783"><ele>374.0</ele><time>2026-04-12T09:56:41.974Z</time></trkpt><trkpt lat="37.9927483" lon="15.9008"><ele>372.0</ele><time>2026-04-12T09:56:42.975Z</time></trkpt><trkpt lat="37.9927033" lon="15.90071"><ele>370.0</ele><time>2026-04-12T09:56:43.974Z</time></trkpt><trkpt lat="37.9926683" lon="15.9006067"><ele>368.0</ele><time>2026-04-12T09:56:44.974Z</time></trkpt><trkpt lat="37.9926317" lon="15.900495"><ele>366.0</ele><time>2026-04-12T09:56:45.975Z</time></trkpt><trkpt lat="37.9926117" lon="15.9003833"><ele>366.0</ele><time>2026-04-12T09:56:46.974Z</time></trkpt><trkpt lat="37.9926017" lon="15.9002683"><ele>366.0</ele><time>2026-04-12T09:56:47.974Z</time></trkpt><trkpt lat="37.9926067" lon="15.9001433"><ele>366.0</ele><time>2026-04-12T09:56:48.974Z</time></trkpt><trkpt lat="37.992605" lon="15.9000117"><ele>366.0</ele><time>2026-04-12T09:56:49.974Z</time></trkpt><trkpt lat="37.9925967" lon="15.89989"><ele>366.0</ele><time>2026-04-12T09:56:50.974Z</time></trkpt><trkpt lat="37.99258" lon="15.899765"><ele>360.1666666666667</ele><time>2026-04-12T09:56:51.974Z</time></trkpt><trkpt lat="37.992565" lon="15.899635"><ele>354.3333333333333</ele><time>2026-04-12T09:56:52.974Z</time></trkpt><trkpt lat="37.9925567" lon="15.89952"><ele>348.5</ele><time>2026-04-12T09:56:53.974Z</time></trkpt><trkpt lat="37.9925483" lon="15.8994133"><ele>342.66666666666663</ele><time>2026-04-12T09:56:54.974Z</time></trkpt><trkpt lat="37.992535" lon="15.8993183"><ele>336.8333333333333</ele><time>2026-04-12T09:56:55.974Z</time></trkpt><trkpt lat="37.9925167" lon="15.8992333"><ele>331.0</ele><time>2026-04-12T09:56:56.975Z</time></trkpt><trkpt lat="37.99249" lon="15.8991567"><ele>331.0</ele><time>2026-04-12T09:56:57.974Z</time></trkpt><trkpt lat="37.9924083" lon="15.8990333"><ele>331.0</ele><time>2026-04-12T09:56:59.974Z</time></trkpt><trkpt lat="37.9923567" lon="15.8989867"><ele>331.0</ele><time>2026-04-12T09:57:00.974Z</time></trkpt><trkpt lat="37.9922733" lon="15.898915"><ele>331.0</ele><time>2026-04-12T09:57:02.974Z</time></trkpt><trkpt lat="37.9923383" lon="15.8988183"><ele>331.0</ele><time>2026-04-12T09:57:51.975Z</time></trkpt><trkpt lat="37.992415" lon="15.8987667"><ele>331.0</ele><time>2026-04-12T09:57:53.975Z</time></trkpt><trkpt lat="37.9924667" lon="15.8986617"><ele>331.0</ele><time>2026-04-12T09:57:55.975Z</time></trkpt><trkpt lat="37.9924833" lon="15.8985267"><ele>331.0</ele><time>2026-04-12T09:57:57.974Z</time></trkpt><trkpt lat="37.9924617" lon="15.8983683"><ele>331.0</ele><time>2026-04-12T09:57:59.974Z</time></trkpt><trkpt lat="37.9924433" lon="15.89821"><ele>328.40000000000003</ele><time>2026-04-12T09:58:01.974Z</time></trkpt><trkpt lat="37.9924233" lon="15.8980817"><ele>325.8</ele><time>2026-04-12T09:58:03.974Z</time></trkpt><trkpt lat="37.9923567" lon="15.8979617"><ele>323.20000000000005</ele><time>2026-04-12T09:58:05.974Z</time></trkpt><trkpt lat="37.9923033" lon="15.8979017"><ele>320.6</ele><time>2026-04-12T09:58:06.974Z</time></trkpt><trkpt lat="37.9922417" lon="15.8978417"><ele>318.0</ele><time>2026-04-12T09:58:07.974Z</time></trkpt><trkpt lat="37.9921667" lon="15.8977783"><ele>318.0</ele><time>2026-04-12T09:58:08.975Z</time></trkpt><trkpt lat="37.9920867" lon="15.8977117"><ele>318.0</ele><time>2026-04-12T09:58:09.975Z</time></trkpt><trkpt lat="37.9920033" lon="15.89763"><ele>318.0</ele><time>2026-04-12T09:58:10.975Z</time></trkpt><trkpt lat="37.991915" lon="15.89756"><ele>318.0</ele><time>2026-04-12T09:58:11.974Z</time></trkpt><trkpt lat="37.9918283" lon="15.897495"><ele>318.0</ele><time>2026-04-12T09:58:12.974Z</time></trkpt><trkpt lat="37.991755" lon="15.8974383"><ele>317.2857142857143</ele><time>2026-04-12T09:58:13.975Z</time></trkpt><trkpt lat="37.991695" lon="15.8973817"><ele>316.5714285714286</ele><time>2026-04-12T09:58:14.974Z</time></trkpt><trkpt lat="37.9916483" lon="15.89732"><ele>315.8571428571429</ele><time>2026-04-12T09:58:15.974Z</time></trkpt><trkpt lat="37.9916033" lon="15.8972583"><ele>315.1428571428571</ele><time>2026-04-12T09:58:16.974Z</time></trkpt><trkpt lat="37.9915533" lon="15.8972017"><ele>314.42857142857144</ele><time>2026-04-12T09:58:17.975Z</time></trkpt><trkpt lat="37.9914967" lon="15.8971517"><ele>313.7142857142857</ele><time>2026-04-12T09:58:18.975Z</time></trkpt><trkpt lat="37.9914417" lon="15.8971083"><ele>313.0</ele><time>2026-04-12T09:58:19.975Z</time></trkpt><trkpt lat="37.9913383" lon="15.8970067"><ele>313.0</ele><time>2026-04-12T09:58:21.974Z</time></trkpt><trkpt lat="37.9912967" lon="15.896935"><ele>313.0</ele><time>2026-04-12T09:58:22.974Z</time></trkpt><trkpt lat="37.9912567" lon="15.8968667"><ele>313.0</ele><time>2026-04-12T09:58:23.975Z</time></trkpt><trkpt lat="37.991225" lon="15.8967867"><ele>313.0</ele><time>2026-04-12T09:58:24.975Z</time></trkpt><trkpt lat="37.9911917" lon="15.8966967"><ele>313.0</ele><time>2026-04-12T09:58:25.974Z</time></trkpt><trkpt lat="37.9911617" lon="15.896605"><ele>313.0</ele><time>2026-04-12T09:58:26.974Z</time></trkpt><trkpt lat="37.9911333" lon="15.8965317"><ele>313.0</ele><time>2026-04-12T09:58:27.974Z</time></trkpt><trkpt lat="37.9911" lon="15.8964467"><ele>304.16666666666663</ele><time>2026-04-12T09:58:28.974Z</time></trkpt><trkpt lat="37.99107" lon="15.8963633"><ele>295.3333333333333</ele><time>2026-04-12T09:58:29.975Z</time></trkpt><trkpt lat="37.9910467" lon="15.8962783"><ele>286.5</ele><time>2026-04-12T09:58:30.975Z</time></trkpt><trkpt lat="37.99103" lon="15.8961867"><ele>277.6666666666667</ele><time>2026-04-12T09:58:31.974Z</time></trkpt><trkpt lat="37.9909933" lon="15.8961017"><ele>268.83333333333337</ele><time>2026-04-12T09:58:32.974Z</time></trkpt><trkpt lat="37.9909333" lon="15.8960183"><ele>260.0</ele><time>2026-04-12T09:58:33.974Z</time></trkpt><trkpt lat="37.9908717" lon="15.8959367"><ele>261.6666666666667</ele><time>2026-04-12T09:58:34.974Z</time></trkpt><trkpt lat="37.9908233" lon="15.8958633"><ele>263.33333333333337</ele><time>2026-04-12T09:58:35.975Z</time></trkpt><trkpt lat="37.9907617" lon="15.895795"><ele>265.0</ele><time>2026-04-12T09:58:36.974Z</time></trkpt><trkpt lat="37.9907" lon="15.895725"><ele>266.6666666666667</ele><time>2026-04-12T09:58:37.974Z</time></trkpt><trkpt lat="37.9906367" lon="15.8956567"><ele>268.3333333333333</ele><time>2026-04-12T09:58:38.974Z</time></trkpt><trkpt lat="37.9905817" lon="15.8955883"><ele>270.0</ele><time>2026-04-12T09:58:39.974Z</time></trkpt><trkpt lat="37.990505" lon="15.8955333"><ele>270.0</ele><time>2026-04-12T09:58:40.974Z</time></trkpt><trkpt lat="37.9904367" lon="15.8954817"><ele>270.0</ele><time>2026-04-12T09:58:41.974Z</time></trkpt><trkpt lat="37.9903783" lon="15.8954333"><ele>270.0</ele><time>2026-04-12T09:58:42.974Z</time></trkpt><trkpt lat="37.99029" lon="15.8953267"><ele>270.0</ele><time>2026-04-12T09:58:44.974Z</time></trkpt><trkpt lat="37.9902183" lon="15.8952033"><ele>270.0</ele><time>2026-04-12T09:58:46.974Z</time></trkpt><trkpt lat="37.9901383" lon="15.89508"><ele>273.2</ele><time>2026-04-12T09:58:48.974Z</time></trkpt><trkpt lat="37.9900367" lon="15.8949917"><ele>276.4</ele><time>2026-04-12T09:58:50.974Z</time></trkpt><trkpt lat="37.9899433" lon="15.894985"><ele>279.6</ele><time>2026-04-12T09:58:52.975Z</time></trkpt><trkpt lat="37.989835" lon="15.8950483"><ele>282.8</ele><time>2026-04-12T09:59:04.973Z</time></trkpt><trkpt lat="37.9897467" lon="15.8951133"><ele>286.0</ele><time>2026-04-12T09:59:06.973Z</time></trkpt><trkpt lat="37.9896317" lon="15.8952083"><ele>285.99999999999994</ele><time>2026-04-12T09:59:08.973Z</time></trkpt><trkpt lat="37.989575" lon="15.895265"><ele>286.0</ele><time>2026-04-12T09:59:09.973Z</time></trkpt><trkpt lat="37.9895167" lon="15.895325"><ele>286.0</ele><time>2026-04-12T09:59:10.973Z</time></trkpt><trkpt lat="37.9894683" lon="15.8953833"><ele>286.0</ele><time>2026-04-12T09:59:11.973Z</time></trkpt><trkpt lat="37.9894167" lon="15.895455"><ele>286.0</ele><time>2026-04-12T09:59:12.974Z</time></trkpt><trkpt lat="37.989365" lon="15.8955233"><ele>285.99999999999994</ele><time>2026-04-12T09:59:13.973Z</time></trkpt><trkpt lat="37.9893183" lon="15.8955983"><ele>286.0</ele><time>2026-04-12T09:59:14.973Z</time></trkpt><trkpt lat="37.9892683" lon="15.895675"><ele>286.0</ele><time>2026-04-12T09:59:15.973Z</time></trkpt><trkpt lat="37.9892133" lon="15.89575"><ele>286.0</ele><time>2026-04-12T09:59:16.973Z</time></trkpt><trkpt lat="37.9891667" lon="15.8958283"><ele>286.0</ele><time>2026-04-12T09:59:17.973Z</time></trkpt><trkpt lat="37.98912" lon="15.8958967"><ele>286.0</ele><time>2026-04-12T09:59:18.974Z</time></trkpt><trkpt lat="37.9890433" lon="15.8960017"><ele>286.0</ele><time>2026-04-12T09:59:20.973Z</time></trkpt><trkpt lat="37.9890017" lon="15.8960667"><ele>286.0</ele><time>2026-04-12T09:59:22.974Z</time></trkpt><trkpt lat="37.9889567" lon="15.8959733"><ele>279.5</ele><time>2026-04-12T09:59:25.973Z</time></trkpt><trkpt lat="37.9890183" lon="15.8958217"><ele>273.0</ele><time>2026-04-12T09:59:27.973Z</time></trkpt><trkpt lat="37.9890483" lon="15.895735"><ele>266.5</ele><time>2026-04-12T09:59:28.973Z</time></trkpt><trkpt lat="37.9890633" lon="15.89564"><ele>260.0</ele><time>2026-04-12T09:59:29.973Z</time></trkpt><trkpt lat="37.9890683" lon="15.8955517"><ele>253.49999999999997</ele><time>2026-04-12T09:59:30.973Z</time></trkpt><trkpt lat="37.98908" lon="15.89545"><ele>247.0</ele><time>2026-04-12T09:59:31.974Z</time></trkpt><trkpt lat="37.989095" lon="15.89535"><ele>246.99999999999997</ele><time>2026-04-12T09:59:32.974Z</time></trkpt><trkpt lat="37.9891167" lon="15.8952583"><ele>247.0</ele><time>2026-04-12T09:59:33.973Z</time></trkpt><trkpt lat="37.9891333" lon="15.8951767"><ele>247.0</ele><time>2026-04-12T09:59:34.973Z</time></trkpt><trkpt lat="37.9891517" lon="15.8950567"><ele>247.0</ele><time>2026-04-12T09:59:36.973Z</time></trkpt><trkpt lat="37.9891217" lon="15.89497"><ele>246.99999999999997</ele><time>2026-04-12T09:59:38.973Z</time></trkpt><trkpt lat="37.9890633" lon="15.894855"><ele>247.0</ele><time>2026-04-12T09:59:40.973Z</time></trkpt><trkpt lat="37.9890633" lon="15.894705"><ele>243.49999999999997</ele><time>2026-04-12T09:59:42.973Z</time></trkpt><trkpt lat="37.98908" lon="15.8946067"><ele>240.0</ele><time>2026-04-12T09:59:43.974Z</time></trkpt><trkpt lat="37.9890933" lon="15.8945033"><ele>236.5</ele><time>2026-04-12T09:59:44.973Z</time></trkpt><trkpt lat="37.9891" lon="15.8943867"><ele>233.0</ele><time>2026-04-12T09:59:45.973Z</time></trkpt><trkpt lat="37.9891" lon="15.894265"><ele>229.49999999999997</ele><time>2026-04-12T09:59:46.973Z</time></trkpt><trkpt lat="37.9890933" lon="15.8941483"><ele>226.0</ele><time>2026-04-12T09:59:47.973Z</time></trkpt><trkpt lat="37.989085" lon="15.8940433"><ele>222.99999999999997</ele><time>2026-04-12T09:59:48.973Z</time></trkpt><trkpt lat="37.9890733" lon="15.89394"><ele>220.0</ele><time>2026-04-12T09:59:49.973Z</time></trkpt><trkpt lat="37.989065" lon="15.8938417"><ele>217.0</ele><time>2026-04-12T09:59:50.973Z</time></trkpt><trkpt lat="37.9890667" lon="15.8937383"><ele>214.0</ele><time>2026-04-12T09:59:51.974Z</time></trkpt><trkpt lat="37.9890817" lon="15.8936283"><ele>210.99999999999997</ele><time>2026-04-12T09:59:52.973Z</time></trkpt><trkpt lat="37.9890867" lon="15.89353"><ele>208.0</ele><time>2026-04-12T09:59:53.973Z</time></trkpt><trkpt lat="37.9890983" lon="15.8934483"><ele>205.28571428571428</ele><time>2026-04-12T09:59:54.973Z</time></trkpt><trkpt lat="37.9890983" lon="15.89336"><ele>202.57142857142858</ele><time>2026-04-12T09:59:55.973Z</time></trkpt><trkpt lat="37.9890883" lon="15.89326"><ele>199.85714285714286</ele><time>2026-04-12T09:59:56.973Z</time></trkpt><trkpt lat="37.9890633" lon="15.89317"><ele>197.14285714285714</ele><time>2026-04-12T09:59:57.974Z</time></trkpt><trkpt lat="37.98903" lon="15.8930983"><ele>194.42857142857144</ele><time>2026-04-12T09:59:58.974Z</time></trkpt><trkpt lat="37.9889817" lon="15.893025"><ele>191.71428571428572</ele><time>2026-04-12T09:59:59.973Z</time></trkpt><trkpt lat="37.9889167" lon="15.8929617"><ele>189.0</ele><time>2026-04-12T10:00:00.973Z</time></trkpt><trkpt lat="37.98886" lon="15.89289"><ele>189.0</ele><time>2026-04-12T10:00:01.973Z</time></trkpt><trkpt lat="37.9888033" lon="15.8928233"><ele>189.0</ele><time>2026-04-12T10:00:03.973Z</time></trkpt><trkpt lat="37.9887733" lon="15.8927283"><ele>189.0</ele><time>2026-04-12T10:00:05.974Z</time></trkpt><trkpt lat="37.9888083" lon="15.8925767"><ele>189.0</ele><time>2026-04-12T10:00:07.973Z</time></trkpt><trkpt lat="37.9888467" lon="15.892475"><ele>189.0</ele><time>2026-04-12T10:00:08.973Z</time></trkpt><trkpt lat="37.9888967" lon="15.8923517"><ele>187.0</ele><time>2026-04-12T10:00:09.973Z</time></trkpt><trkpt lat="37.9889467" lon="15.8922367"><ele>185.0</ele><time>2026-04-12T10:00:10.971Z</time></trkpt><trkpt lat="37.989" lon="15.8921267"><ele>183.0</ele><time>2026-04-12T10:00:11.973Z</time></trkpt><trkpt lat="37.9890367" lon="15.8920283"><ele>181.0</ele><time>2026-04-12T10:00:12.973Z</time></trkpt><trkpt lat="37.9890633" lon="15.891935"><ele>179.0</ele><time>2026-04-12T10:00:13.973Z</time></trkpt><trkpt lat="37.9890733" lon="15.891845"><ele>177.0</ele><time>2026-04-12T10:00:14.973Z</time></trkpt><trkpt lat="37.98901" lon="15.8917467"><ele>177.0</ele><time>2026-04-12T10:00:16.973Z</time></trkpt><trkpt lat="37.9889467" lon="15.891775"><ele>177.0</ele><time>2026-04-12T10:00:17.974Z</time></trkpt><trkpt lat="37.9888667" lon="15.8918417"><ele>177.0</ele><time>2026-04-12T10:00:18.973Z</time></trkpt><trkpt lat="37.9887833" lon="15.8919583"><ele>177.0</ele><time>2026-04-12T10:00:19.973Z</time></trkpt><trkpt lat="37.9887" lon="15.8920833"><ele>177.0</ele><time>2026-04-12T10:00:20.973Z</time></trkpt><trkpt lat="37.98862" lon="15.89219"><ele>177.0</ele><time>2026-04-12T10:00:21.973Z</time></trkpt><trkpt lat="37.9885383" lon="15.8922933"><ele>177.0</ele><time>2026-04-12T10:00:22.973Z</time></trkpt><trkpt lat="37.9884683" lon="15.8923883"><ele>177.0</ele><time>2026-04-12T10:00:23.973Z</time></trkpt><trkpt lat="37.988405" lon="15.8924767"><ele>177.0</ele><time>2026-04-12T10:00:24.973Z</time></trkpt><trkpt lat="37.9883533" lon="15.892565"><ele>177.0</ele><time>2026-04-12T10:00:25.973Z</time></trkpt><trkpt lat="37.9883033" lon="15.8926617"><ele>175.8</ele><time>2026-04-12T10:00:26.973Z</time></trkpt><trkpt lat="37.98826" lon="15.8927567"><ele>174.6</ele><time>2026-04-12T10:00:27.974Z</time></trkpt><trkpt lat="37.9882217" lon="15.892855"><ele>173.4</ele><time>2026-04-12T10:00:28.973Z</time></trkpt><trkpt lat="37.98818" lon="15.89295"><ele>172.20000000000002</ele><time>2026-04-12T10:00:29.973Z</time></trkpt><trkpt lat="37.98814" lon="15.89306"><ele>171.0</ele><time>2026-04-12T10:00:30.973Z</time></trkpt><trkpt lat="37.9880933" lon="15.89317"><ele>171.0</ele><time>2026-04-12T10:00:31.973Z</time></trkpt><trkpt lat="37.9880417" lon="15.8932683"><ele>171.0</ele><time>2026-04-12T10:00:32.974Z</time></trkpt><trkpt lat="37.987975" lon="15.8933733"><ele>171.0</ele><time>2026-04-12T10:00:33.973Z</time></trkpt><trkpt lat="37.9878933" lon="15.8934717"><ele>171.0</ele><time>2026-04-12T10:00:34.973Z</time></trkpt><trkpt lat="37.9878033" lon="15.8935833"><ele>171.0</ele><time>2026-04-12T10:00:35.974Z</time></trkpt><trkpt lat="37.987725" lon="15.89373"><ele>174.25</ele><time>2026-04-12T10:00:36.973Z</time></trkpt><trkpt lat="37.9876433" lon="15.8938883"><ele>177.5</ele><time>2026-04-12T10:00:37.973Z</time></trkpt><trkpt lat="37.9875633" lon="15.8940333"><ele>180.75</ele><time>2026-04-12T10:00:38.973Z</time></trkpt><trkpt lat="37.9875067" lon="15.89417"><ele>184.0</ele><time>2026-04-12T10:00:39.973Z</time></trkpt><trkpt lat="37.987475" lon="15.8942767"><ele>185.0</ele><time>2026-04-12T10:00:40.973Z</time></trkpt><trkpt lat="37.987475" lon="15.8943917"><ele>186.0</ele><time>2026-04-12T10:00:41.974Z</time></trkpt><trkpt lat="37.9875117" lon="15.89451"><ele>187.0</ele><time>2026-04-12T10:00:42.973Z</time></trkpt><trkpt lat="37.98758" lon="15.8946433"><ele>188.0</ele><time>2026-04-12T10:00:43.973Z</time></trkpt><trkpt lat="37.987655" lon="15.894795"><ele>188.0</ele><time>2026-04-12T10:00:44.973Z</time></trkpt><trkpt lat="37.98773" lon="15.8949467"><ele>188.0</ele><time>2026-04-12T10:00:45.973Z</time></trkpt><trkpt lat="37.987805" lon="15.8950833"><ele>188.0</ele><time>2026-04-12T10:00:46.973Z</time></trkpt><trkpt lat="37.9878633" lon="15.8952067"><ele>188.0</ele><time>2026-04-12T10:00:47.974Z</time></trkpt><trkpt lat="37.9878967" lon="15.8953267"><ele>189.0</ele><time>2026-04-12T10:00:48.973Z</time></trkpt><trkpt lat="37.987905" lon="15.895445"><ele>190.0</ele><time>2026-04-12T10:00:49.973Z</time></trkpt><trkpt lat="37.9878767" lon="15.89556"><ele>191.0</ele><time>2026-04-12T10:00:50.973Z</time></trkpt><trkpt lat="37.9878233" lon="15.8956683"><ele>192.0</ele><time>2026-04-12T10:00:51.973Z</time></trkpt><trkpt lat="37.98776" lon="15.8957567"><ele>193.0</ele><time>2026-04-12T10:00:52.973Z</time></trkpt><trkpt lat="37.987695" lon="15.8958317"><ele>192.99999999999997</ele><time>2026-04-12T10:00:53.973Z</time></trkpt><trkpt lat="37.987625" lon="15.89589"><ele>193.0</ele><time>2026-04-12T10:00:54.973Z</time></trkpt><trkpt lat="37.9875667" lon="15.8959333"><ele>193.0</ele><time>2026-04-12T10:00:55.974Z</time></trkpt><trkpt lat="37.9874667" lon="15.896005"><ele>193.0</ele><time>2026-04-12T10:00:57.974Z</time></trkpt><trkpt lat="37.9873817" lon="15.8960767"><ele>192.99999999999997</ele><time>2026-04-12T10:00:59.974Z</time></trkpt><trkpt lat="37.9873267" lon="15.8961167"><ele>193.0</ele><time>2026-04-12T10:01:00.973Z</time></trkpt><trkpt lat="37.98726" lon="15.89616"><ele>185.99999999999997</ele><time>2026-04-12T10:01:01.973Z</time></trkpt><trkpt lat="37.9871883" lon="15.8962017"><ele>179.0</ele><time>2026-04-12T10:01:02.973Z</time></trkpt><trkpt lat="37.9871017" lon="15.8962433"><ele>172.0</ele><time>2026-04-12T10:01:03.973Z</time></trkpt><trkpt lat="37.9870267" lon="15.8962717"><ele>165.0</ele><time>2026-04-12T10:01:04.973Z</time></trkpt><trkpt lat="37.9869517" lon="15.8962717"><ele>158.0</ele><time>2026-04-12T10:01:05.973Z</time></trkpt><trkpt lat="37.9868733" lon="15.8962433"><ele>151.0</ele><time>2026-04-12T10:01:06.973Z</time></trkpt><trkpt lat="37.9867983" lon="15.8961933"><ele>151.0</ele><time>2026-04-12T10:01:07.973Z</time></trkpt><trkpt lat="37.986715" lon="15.89612"><ele>151.0</ele><time>2026-04-12T10:01:08.974Z</time></trkpt><trkpt lat="37.98664" lon="15.8960083"><ele>151.0</ele><time>2026-04-12T10:01:09.973Z</time></trkpt><trkpt lat="37.9865633" lon="15.8958667"><ele>151.0</ele><time>2026-04-12T10:01:10.974Z</time></trkpt><trkpt lat="37.98648" lon="15.895715"><ele>150.5</ele><time>2026-04-12T10:01:11.973Z</time></trkpt><trkpt lat="37.9864017" lon="15.895575"><ele>150.0</ele><time>2026-04-12T10:01:12.973Z</time></trkpt><trkpt lat="37.9863283" lon="15.8954383"><ele>149.5</ele><time>2026-04-12T10:01:13.973Z</time></trkpt><trkpt lat="37.9862417" lon="15.8953167"><ele>149.0</ele><time>2026-04-12T10:01:14.973Z</time></trkpt><trkpt lat="37.9861567" lon="15.8951967"><ele>146.75</ele><time>2026-04-12T10:01:15.973Z</time></trkpt><trkpt lat="37.986065" lon="15.8950783"><ele>144.5</ele><time>2026-04-12T10:01:16.973Z</time></trkpt><trkpt lat="37.985965" lon="15.8949617"><ele>142.25</ele><time>2026-04-12T10:01:17.973Z</time></trkpt><trkpt lat="37.9858583" lon="15.8948417"><ele>140.0</ele><time>2026-04-12T10:01:18.974Z</time></trkpt><trkpt lat="37.9857567" lon="15.8947367"><ele>140.0</ele><time>2026-04-12T10:01:19.973Z</time></trkpt><trkpt lat="37.98566" lon="15.8946383"><ele>140.0</ele><time>2026-04-12T10:01:20.973Z</time></trkpt><trkpt lat="37.9855733" lon="15.8945483"><ele>140.0</ele><time>2026-04-12T10:01:21.974Z</time></trkpt><trkpt lat="37.9854967" lon="15.8944667"><ele>140.0</ele><time>2026-04-12T10:01:22.973Z</time></trkpt><trkpt lat="37.9854183" lon="15.8944283"><ele>140.0</ele><time>2026-04-12T10:01:23.973Z</time></trkpt><trkpt lat="37.9853217" lon="15.8944117"><ele>140.0</ele><time>2026-04-12T10:01:24.973Z</time></trkpt><trkpt lat="37.985205" lon="15.8944283"><ele>140.0</ele><time>2026-04-12T10:01:25.973Z</time></trkpt><trkpt lat="37.9850833" lon="15.89447"><ele>140.0</ele><time>2026-04-12T10:01:26.973Z</time></trkpt><trkpt lat="37.9849467" lon="15.8944917"><ele>140.0</ele><time>2026-04-12T10:01:27.973Z</time></trkpt><trkpt lat="37.984795" lon="15.89449"><ele>143.25</ele><time>2026-04-12T10:01:28.973Z</time></trkpt><trkpt lat="37.9846433" lon="15.89448"><ele>146.5</ele><time>2026-04-12T10:01:29.973Z</time></trkpt><trkpt lat="37.9844983" lon="15.8944667"><ele>149.75</ele><time>2026-04-12T10:01:30.973Z</time></trkpt><trkpt lat="37.9843717" lon="15.8944567"><ele>153.0</ele><time>2026-04-12T10:01:31.973Z</time></trkpt><trkpt lat="37.984255" lon="15.8944267"><ele>153.25</ele><time>2026-04-12T10:01:32.973Z</time></trkpt><trkpt lat="37.9841183" lon="15.894385"><ele>153.5</ele><time>2026-04-12T10:01:33.973Z</time></trkpt><trkpt lat="37.98399" lon="15.8943233"><ele>153.75</ele><time>2026-04-12T10:01:34.973Z</time></trkpt><trkpt lat="37.983865" lon="15.8942317"><ele>154.0</ele><time>2026-04-12T10:01:35.973Z</time></trkpt><trkpt lat="37.9837483" lon="15.8941433"><ele>154.0</ele><time>2026-04-12T10:01:36.973Z</time></trkpt><trkpt lat="37.9836467" lon="15.8940767"><ele>154.0</ele><time>2026-04-12T10:01:37.973Z</time></trkpt><trkpt lat="37.98356" lon="15.8940417"><ele>154.0</ele><time>2026-04-12T10:01:38.973Z</time></trkpt><trkpt lat="37.98348" lon="15.8940533"><ele>154.0</ele><time>2026-04-12T10:01:39.973Z</time></trkpt><trkpt lat="37.983425" lon="15.8941033"><ele>154.0</ele><time>2026-04-12T10:01:40.973Z</time></trkpt><trkpt lat="37.9833983" lon="15.8941983"><ele>154.0</ele><time>2026-04-12T10:01:41.973Z</time></trkpt><trkpt lat="37.9833983" lon="15.894355"><ele>154.0</ele><time>2026-04-12T10:01:42.974Z</time></trkpt><trkpt lat="37.9833883" lon="15.8945533"><ele>154.0</ele><time>2026-04-12T10:01:43.974Z</time></trkpt><trkpt lat="37.9833767" lon="15.8947633"><ele>154.0</ele><time>2026-04-12T10:01:44.973Z</time></trkpt><trkpt lat="37.9833733" lon="15.8949617"><ele>150.5</ele><time>2026-04-12T10:01:45.973Z</time></trkpt><trkpt lat="37.9833817" lon="15.89515"><ele>147.0</ele><time>2026-04-12T10:01:46.974Z</time></trkpt><trkpt lat="37.983365" lon="15.8952983"><ele>143.5</ele><time>2026-04-12T10:01:47.973Z</time></trkpt><trkpt lat="37.9833333" lon="15.8954267"><ele>140.0</ele><time>2026-04-12T10:01:48.973Z</time></trkpt><trkpt lat="37.98328" lon="15.89554"><ele>140.0</ele><time>2026-04-12T10:01:49.973Z</time></trkpt><trkpt lat="37.9832133" lon="15.8956633"><ele>140.0</ele><time>2026-04-12T10:01:50.974Z</time></trkpt><trkpt lat="37.9831333" lon="15.895775"><ele>140.0</ele><time>2026-04-12T10:01:51.973Z</time></trkpt><trkpt lat="37.9830317" lon="15.895855"><ele>140.0</ele><time>2026-04-12T10:01:52.973Z</time></trkpt><trkpt lat="37.9829233" lon="15.8959233"><ele>141.25</ele><time>2026-04-12T10:01:53.973Z</time></trkpt><trkpt lat="37.98281" lon="15.8959767"><ele>142.5</ele><time>2026-04-12T10:01:54.973Z</time></trkpt><trkpt lat="37.982695" lon="15.8960167"><ele>143.75</ele><time>2026-04-12T10:01:55.973Z</time></trkpt><trkpt lat="37.982575" lon="15.8960567"><ele>145.0</ele><time>2026-04-12T10:01:56.974Z</time></trkpt><trkpt lat="37.982455" lon="15.8961033"><ele>145.0</ele><time>2026-04-12T10:01:57.973Z</time></trkpt><trkpt lat="37.982335" lon="15.8961517"><ele>145.0</ele><time>2026-04-12T10:01:58.974Z</time></trkpt><trkpt lat="37.9821967" lon="15.8962183"><ele>145.0</ele><time>2026-04-12T10:01:59.973Z</time></trkpt><trkpt lat="37.9820617" lon="15.8963133"><ele>145.0</ele><time>2026-04-12T10:02:00.973Z</time></trkpt><trkpt lat="37.9819483" lon="15.8963983"><ele>145.0</ele><time>2026-04-12T10:02:01.974Z</time></trkpt><trkpt lat="37.98184" lon="15.89648"><ele>145.0</ele><time>2026-04-12T10:02:02.973Z</time></trkpt><trkpt lat="37.9817467" lon="15.8965367"><ele>145.0</ele><time>2026-04-12T10:02:03.974Z</time></trkpt><trkpt lat="37.9816483" lon="15.8965817"><ele>145.0</ele><time>2026-04-12T10:02:04.973Z</time></trkpt><trkpt lat="37.9815367" lon="15.8966183"><ele>145.0</ele><time>2026-04-12T10:02:05.973Z</time></trkpt><trkpt lat="37.9813967" lon="15.8966483"><ele>143.0</ele><time>2026-04-12T10:02:06.973Z</time></trkpt><trkpt lat="37.9812533" lon="15.8966683"><ele>141.0</ele><time>2026-04-12T10:02:07.973Z</time></trkpt><trkpt lat="37.981095" lon="15.8966683"><ele>139.0</ele><time>2026-04-12T10:02:08.973Z</time></trkpt><trkpt lat="37.98092" lon="15.896655"><ele>139.0</ele><time>2026-04-12T10:02:09.973Z</time></trkpt><trkpt lat="37.9807417" lon="15.896655"><ele>139.0</ele><time>2026-04-12T10:02:10.973Z</time></trkpt><trkpt lat="37.9805867" lon="15.8966567"><ele>139.0</ele><time>2026-04-12T10:02:11.974Z</time></trkpt><trkpt lat="37.9804517" lon="15.896655"><ele>139.0</ele><time>2026-04-12T10:02:12.973Z</time></trkpt><trkpt lat="37.9803183" lon="15.896645"><ele>139.0</ele><time>2026-04-12T10:02:13.973Z</time></trkpt><trkpt lat="37.9802083" lon="15.8966333"><ele>139.0</ele><time>2026-04-12T10:02:14.973Z</time></trkpt><trkpt lat="37.9800883" lon="15.896635"><ele>139.0</ele><time>2026-04-12T10:02:15.973Z</time></trkpt><trkpt lat="37.9799733" lon="15.896635"><ele>138.6</ele><time>2026-04-12T10:02:16.973Z</time></trkpt><trkpt lat="37.9798667" lon="15.8966283"><ele>138.2</ele><time>2026-04-12T10:02:17.973Z</time></trkpt><trkpt lat="37.9797633" lon="15.89662"><ele>137.79999999999998</ele><time>2026-04-12T10:02:18.973Z</time></trkpt><trkpt lat="37.9796683" lon="15.89661"><ele>137.4</ele><time>2026-04-12T10:02:19.973Z</time></trkpt><trkpt lat="37.9795783" lon="15.89658"><ele>137.0</ele><time>2026-04-12T10:02:20.974Z</time></trkpt><trkpt lat="37.9794933" lon="15.8965333"><ele>137.0</ele><time>2026-04-12T10:02:21.973Z</time></trkpt><trkpt lat="37.9794133" lon="15.8964533"><ele>137.0</ele><time>2026-04-12T10:02:22.973Z</time></trkpt><trkpt lat="37.9793517" lon="15.8963383"><ele>137.0</ele><time>2026-04-12T10:02:23.973Z</time></trkpt><trkpt lat="37.9793067" lon="15.896185"><ele>137.0</ele><time>2026-04-12T10:02:24.974Z</time></trkpt><trkpt lat="37.9792617" lon="15.896015"><ele>137.25</ele><time>2026-04-12T10:02:25.973Z</time></trkpt><trkpt lat="37.979215" lon="15.89584"><ele>137.5</ele><time>2026-04-12T10:02:26.974Z</time></trkpt><trkpt lat="37.9791783" lon="15.89567"><ele>137.75</ele><time>2026-04-12T10:02:27.973Z</time></trkpt><trkpt lat="37.97915" lon="15.8955133"><ele>138.0</ele><time>2026-04-12T10:02:28.974Z</time></trkpt><trkpt lat="37.9791233" lon="15.895375"><ele>138.0</ele><time>2026-04-12T10:02:29.974Z</time></trkpt><trkpt lat="37.9790917" lon="15.8952467"><ele>138.0</ele><time>2026-04-12T10:02:30.973Z</time></trkpt><trkpt lat="37.9790383" lon="15.8951217"><ele>138.0</ele><time>2026-04-12T10:02:31.974Z</time></trkpt><trkpt lat="37.978965" lon="15.8950017"><ele>138.0</ele><time>2026-04-12T10:02:32.973Z</time></trkpt><trkpt lat="37.9788533" lon="15.8948767"><ele>134.75</ele><time>2026-04-12T10:02:33.973Z</time></trkpt><trkpt lat="37.9787317" lon="15.8947567"><ele>131.5</ele><time>2026-04-12T10:02:34.973Z</time></trkpt><trkpt lat="37.9786283" lon="15.8946433"><ele>128.25</ele><time>2026-04-12T10:02:35.974Z</time></trkpt><trkpt lat="37.978535" lon="15.8945383"><ele>125.0</ele><time>2026-04-12T10:02:36.973Z</time></trkpt><trkpt lat="37.9784417" lon="15.89446"><ele>131.75</ele><time>2026-04-12T10:02:37.973Z</time></trkpt><trkpt lat="37.9783483" lon="15.8944133"><ele>138.5</ele><time>2026-04-12T10:02:38.973Z</time></trkpt><trkpt lat="37.9782167" lon="15.8944117"><ele>145.25</ele><time>2026-04-12T10:02:39.973Z</time></trkpt><trkpt lat="37.9780717" lon="15.8944267"><ele>152.0</ele><time>2026-04-12T10:02:40.974Z</time></trkpt><trkpt lat="37.9779217" lon="15.8944733"><ele>152.0</ele><time>2026-04-12T10:02:41.973Z</time></trkpt><trkpt lat="37.9777717" lon="15.894535"><ele>152.0</ele><time>2026-04-12T10:02:42.973Z</time></trkpt><trkpt lat="37.9776233" lon="15.89464"><ele>152.0</ele><time>2026-04-12T10:02:43.973Z</time></trkpt><trkpt lat="37.97749" lon="15.8947467"><ele>148.5</ele><time>2026-04-12T10:02:44.973Z</time></trkpt><trkpt lat="37.9773817" lon="15.8948417"><ele>145.0</ele><time>2026-04-12T10:02:45.973Z</time></trkpt><trkpt lat="37.9772867" lon="15.8949533"><ele>141.5</ele><time>2026-04-12T10:02:46.973Z</time></trkpt><trkpt lat="37.9771967" lon="15.895075"><ele>138.0</ele><time>2026-04-12T10:02:47.973Z</time></trkpt><trkpt lat="37.9771067" lon="15.8951967"><ele>137.6</ele><time>2026-04-12T10:02:48.974Z</time></trkpt><trkpt lat="37.9770117" lon="15.8952783"><ele>137.20000000000002</ele><time>2026-04-12T10:02:49.973Z</time></trkpt><trkpt lat="37.97692" lon="15.8953333"><ele>136.8</ele><time>2026-04-12T10:02:50.973Z</time></trkpt><trkpt lat="37.97681" lon="15.8953683"><ele>136.4</ele><time>2026-04-12T10:02:51.974Z</time></trkpt><trkpt lat="37.9767" lon="15.8953983"><ele>136.0</ele><time>2026-04-12T10:02:52.973Z</time></trkpt><trkpt lat="37.9765833" lon="15.8954467"><ele>136.0</ele><time>2026-04-12T10:02:53.973Z</time></trkpt><trkpt lat="37.9764583" lon="15.8955217"><ele>136.0</ele><time>2026-04-12T10:02:54.973Z</time></trkpt><trkpt lat="37.976345" lon="15.8956233"><ele>136.0</ele><time>2026-04-12T10:02:55.974Z</time></trkpt><trkpt lat="37.976235" lon="15.8957033"><ele>136.0</ele><time>2026-04-12T10:02:56.973Z</time></trkpt><trkpt lat="37.9761217" lon="15.8957667"><ele>136.0</ele><time>2026-04-12T10:02:57.973Z</time></trkpt><trkpt lat="37.9759967" lon="15.89578"><ele>136.0</ele><time>2026-04-12T10:02:58.973Z</time></trkpt><trkpt lat="37.975875" lon="15.8957717"><ele>136.0</ele><time>2026-04-12T10:02:59.974Z</time></trkpt><trkpt lat="37.9757583" lon="15.8957383"><ele>136.0</ele><time>2026-04-12T10:03:00.974Z</time></trkpt><trkpt lat="37.9756467" lon="15.8956883"><ele>132.0</ele><time>2026-04-12T10:03:01.974Z</time></trkpt><trkpt lat="37.9755433" lon="15.8956083"><ele>128.0</ele><time>2026-04-12T10:03:02.973Z</time></trkpt><trkpt lat="37.9754367" lon="15.8954983"><ele>124.0</ele><time>2026-04-12T10:03:03.973Z</time></trkpt><trkpt lat="37.975335" lon="15.8953717"><ele>120.0</ele><time>2026-04-12T10:03:04.974Z</time></trkpt><trkpt lat="37.97524" lon="15.89525"><ele>120.0</ele><time>2026-04-12T10:03:05.973Z</time></trkpt><trkpt lat="37.9751633" lon="15.89514"><ele>120.0</ele><time>2026-04-12T10:03:06.974Z</time></trkpt><trkpt lat="37.9750883" lon="15.8950383"><ele>120.0</ele><time>2026-04-12T10:03:07.974Z</time></trkpt><trkpt lat="37.9750183" lon="15.8949217"><ele>120.0</ele><time>2026-04-12T10:03:08.973Z</time></trkpt><trkpt lat="37.9749417" lon="15.8947833"><ele>119.33333333333334</ele><time>2026-04-12T10:03:09.974Z</time></trkpt><trkpt lat="37.974865" lon="15.894635"><ele>118.66666666666667</ele><time>2026-04-12T10:03:10.974Z</time></trkpt><trkpt lat="37.9747717" lon="15.89445"><ele>118.0</ele><time>2026-04-12T10:03:11.973Z</time></trkpt><trkpt lat="37.9746667" lon="15.8942633"><ele>116.25</ele><time>2026-04-12T10:03:12.973Z</time></trkpt><trkpt lat="37.974575" lon="15.8940867"><ele>114.5</ele><time>2026-04-12T10:03:13.973Z</time></trkpt><trkpt lat="37.9745017" lon="15.89394"><ele>112.75</ele><time>2026-04-12T10:03:14.974Z</time></trkpt><trkpt lat="37.9744583" lon="15.8938267"><ele>111.0</ele><time>2026-04-12T10:03:15.973Z</time></trkpt><trkpt lat="37.9744067" lon="15.8937283"><ele>111.0</ele><time>2026-04-12T10:03:16.973Z</time></trkpt><trkpt lat="37.9743417" lon="15.8936533"><ele>111.0</ele><time>2026-04-12T10:03:17.973Z</time></trkpt><trkpt lat="37.9742517" lon="15.8935867"><ele>111.0</ele><time>2026-04-12T10:03:18.973Z</time></trkpt><trkpt lat="37.9741317" lon="15.893525"><ele>111.0</ele><time>2026-04-12T10:03:19.973Z</time></trkpt><trkpt lat="37.97399" lon="15.8934733"><ele>109.5</ele><time>2026-04-12T10:03:20.973Z</time></trkpt><trkpt lat="37.9738533" lon="15.8934217"><ele>108.0</ele><time>2026-04-12T10:03:21.974Z</time></trkpt><trkpt lat="37.973735" lon="15.89337"><ele>106.5</ele><time>2026-04-12T10:03:22.973Z</time></trkpt><trkpt lat="37.9736367" lon="15.8933217"><ele>105.0</ele><time>2026-04-12T10:03:23.974Z</time></trkpt><trkpt lat="37.973555" lon="15.8932533"><ele>105.0</ele><time>2026-04-12T10:03:24.973Z</time></trkpt><trkpt lat="37.973485" lon="15.8931617"><ele>105.0</ele><time>2026-04-12T10:03:25.973Z</time></trkpt><trkpt lat="37.9734433" lon="15.8930317"><ele>105.0</ele><time>2026-04-12T10:03:26.973Z</time></trkpt><trkpt lat="37.973415" lon="15.892875"><ele>105.0</ele><time>2026-04-12T10:03:27.974Z</time></trkpt><trkpt lat="37.9734" lon="15.8927033"><ele>104.25</ele><time>2026-04-12T10:03:28.974Z</time></trkpt><trkpt lat="37.9733883" lon="15.8925333"><ele>103.5</ele><time>2026-04-12T10:03:29.973Z</time></trkpt><trkpt lat="37.9733783" lon="15.8923933"><ele>102.75</ele><time>2026-04-12T10:03:30.973Z</time></trkpt><trkpt lat="37.9733433" lon="15.8922617"><ele>102.0</ele><time>2026-04-12T10:03:31.973Z</time></trkpt><trkpt lat="37.9733" lon="15.8921483"><ele>102.5</ele><time>2026-04-12T10:03:32.973Z</time></trkpt><trkpt lat="37.9732167" lon="15.89206"><ele>103.0</ele><time>2026-04-12T10:03:33.974Z</time></trkpt><trkpt lat="37.973115" lon="15.8919783"><ele>103.5</ele><time>2026-04-12T10:03:34.973Z</time></trkpt><trkpt lat="37.97302" lon="15.891865"><ele>104.0</ele><time>2026-04-12T10:03:35.973Z</time></trkpt><trkpt lat="37.9729333" lon="15.8917267"><ele>104.0</ele><time>2026-04-12T10:03:36.973Z</time></trkpt><trkpt lat="37.9728717" lon="15.8915933"><ele>104.0</ele><time>2026-04-12T10:03:37.973Z</time></trkpt><trkpt lat="37.97282" lon="15.8914683"><ele>104.0</ele><time>2026-04-12T10:03:38.973Z</time></trkpt><trkpt lat="37.97278" lon="15.8913367"><ele>104.0</ele><time>2026-04-12T10:03:39.973Z</time></trkpt><trkpt lat="37.9727617" lon="15.8912183"><ele>104.0</ele><time>2026-04-12T10:03:40.973Z</time></trkpt><trkpt lat="37.972775" lon="15.89111"><ele>103.99999999999999</ele><time>2026-04-12T10:03:41.973Z</time></trkpt><trkpt lat="37.9728" lon="15.8910117"><ele>104.0</ele><time>2026-04-12T10:03:42.973Z</time></trkpt><trkpt lat="37.9728317" lon="15.890925"><ele>104.0</ele><time>2026-04-12T10:03:43.973Z</time></trkpt><trkpt lat="37.972865" lon="15.8908333"><ele>104.0</ele><time>2026-04-12T10:03:44.973Z</time></trkpt><trkpt lat="37.9729067" lon="15.8907567"><ele>103.99999999999999</ele><time>2026-04-12T10:03:45.973Z</time></trkpt><trkpt lat="37.972935" lon="15.8906833"><ele>104.0</ele><time>2026-04-12T10:03:46.973Z</time></trkpt><trkpt lat="37.97301" lon="15.8905467"><ele>103.4</ele><time>2026-04-12T10:03:48.973Z</time></trkpt><trkpt lat="37.97305" lon="15.890455"><ele>102.80000000000001</ele><time>2026-04-12T10:03:49.973Z</time></trkpt><trkpt lat="37.9731" lon="15.8903483"><ele>102.19999999999999</ele><time>2026-04-12T10:03:50.973Z</time></trkpt><trkpt lat="37.9731533" lon="15.89022"><ele>101.6</ele><time>2026-04-12T10:03:51.973Z</time></trkpt><trkpt lat="37.9732033" lon="15.8900983"><ele>101.0</ele><time>2026-04-12T10:03:52.973Z</time></trkpt><trkpt lat="37.9732683" lon="15.88998"><ele>101.0</ele><time>2026-04-12T10:03:53.974Z</time></trkpt><trkpt lat="37.973325" lon="15.889855"><ele>101.0</ele><time>2026-04-12T10:03:54.973Z</time></trkpt><trkpt lat="37.9733817" lon="15.8897467"><ele>101.0</ele><time>2026-04-12T10:03:55.973Z</time></trkpt><trkpt lat="37.9734333" lon="15.88965"><ele>101.0</ele><time>2026-04-12T10:03:56.973Z</time></trkpt><trkpt lat="37.9734667" lon="15.889575"><ele>101.0</ele><time>2026-04-12T10:03:57.973Z</time></trkpt><trkpt lat="37.9734683" lon="15.88948"><ele>101.0</ele><time>2026-04-12T10:03:59.974Z</time></trkpt><trkpt lat="37.9734017" lon="15.8893883"><ele>101.0</ele><time>2026-04-12T10:04:01.973Z</time></trkpt><trkpt lat="37.973315" lon="15.8893333"><ele>101.0</ele><time>2026-04-12T10:04:03.973Z</time></trkpt><trkpt lat="37.9732" lon="15.889305"><ele>101.0</ele><time>2026-04-12T10:09:02.972Z</time></trkpt><trkpt lat="37.973135" lon="15.8893"><ele>101.0</ele><time>2026-04-12T10:09:03.972Z</time></trkpt><trkpt lat="37.9730633" lon="15.8892883"><ele>101.0</ele><time>2026-04-12T10:09:04.973Z</time></trkpt><trkpt lat="37.9729383" lon="15.889265"><ele>101.0</ele><time>2026-04-12T10:09:06.972Z</time></trkpt><trkpt lat="37.9728567" lon="15.8892383"><ele>101.0</ele><time>2026-04-12T10:09:07.972Z</time></trkpt><trkpt lat="37.972755" lon="15.8891917"><ele>101.0</ele><time>2026-04-12T10:09:08.972Z</time></trkpt><trkpt lat="37.97263" lon="15.8891267"><ele>100.66666666666666</ele><time>2026-04-12T10:09:09.972Z</time></trkpt><trkpt lat="37.9725033" lon="15.88903"><ele>100.33333333333334</ele><time>2026-04-12T10:09:10.972Z</time></trkpt><trkpt lat="37.9723633" lon="15.88893"><ele>100.0</ele><time>2026-04-12T10:09:11.973Z</time></trkpt><trkpt lat="37.9722267" lon="15.8888283"><ele>100.0</ele><time>2026-04-12T10:09:12.972Z</time></trkpt><trkpt lat="37.972095" lon="15.8887217"><ele>100.0</ele><time>2026-04-12T10:09:13.972Z</time></trkpt><trkpt lat="37.9719683" lon="15.8886133"><ele>100.0</ele><time>2026-04-12T10:09:14.972Z</time></trkpt><trkpt lat="37.971815" lon="15.8885517"><ele>98.66666666666667</ele><time>2026-04-12T10:09:15.972Z</time></trkpt><trkpt lat="37.971645" lon="15.88851"><ele>97.33333333333334</ele><time>2026-04-12T10:09:16.972Z</time></trkpt><trkpt lat="37.9714633" lon="15.8885117"><ele>96.0</ele><time>2026-04-12T10:09:17.973Z</time></trkpt><trkpt lat="37.97125" lon="15.888535"><ele>96.0</ele><time>2026-04-12T10:09:18.972Z</time></trkpt><trkpt lat="37.9710117" lon="15.8885617"><ele>96.0</ele><time>2026-04-12T10:09:19.972Z</time></trkpt><trkpt lat="37.9707783" lon="15.8885933"><ele>95.0</ele><time>2026-04-12T10:09:20.973Z</time></trkpt><trkpt lat="37.97058" lon="15.88862"><ele>94.0</ele><time>2026-04-12T10:09:21.972Z</time></trkpt><trkpt lat="37.9703983" lon="15.8886333"><ele>93.0</ele><time>2026-04-12T10:09:22.973Z</time></trkpt><trkpt lat="37.9702283" lon="15.8886133"><ele>93.0</ele><time>2026-04-12T10:09:23.973Z</time></trkpt><trkpt lat="37.970045" lon="15.8885717"><ele>93.0</ele><time>2026-04-12T10:09:24.972Z</time></trkpt><trkpt lat="37.9698417" lon="15.888485"><ele>93.0</ele><time>2026-04-12T10:09:25.972Z</time></trkpt><trkpt lat="37.9696067" lon="15.8884217"><ele>92.0</ele><time>2026-04-12T10:09:26.972Z</time></trkpt><trkpt lat="37.9693483" lon="15.888375"><ele>91.0</ele><time>2026-04-12T10:09:27.972Z</time></trkpt><trkpt lat="37.9691133" lon="15.888315"><ele>91.0</ele><time>2026-04-12T10:09:28.972Z</time></trkpt><trkpt lat="37.9689017" lon="15.888265"><ele>91.0</ele><time>2026-04-12T10:09:29.972Z</time></trkpt><trkpt lat="37.9687117" lon="15.8882417"><ele>91.0</ele><time>2026-04-12T10:09:30.972Z</time></trkpt><trkpt lat="37.968535" lon="15.8882517"><ele>91.0</ele><time>2026-04-12T10:09:31.972Z</time></trkpt><trkpt lat="37.9683683" lon="15.88828"><ele>91.0</ele><time>2026-04-12T10:09:32.972Z</time></trkpt><trkpt lat="37.968215" lon="15.8883017"><ele>91.0</ele><time>2026-04-12T10:09:33.972Z</time></trkpt><trkpt lat="37.968075" lon="15.88831"><ele>91.0</ele><time>2026-04-12T10:09:34.972Z</time></trkpt><trkpt lat="37.9679417" lon="15.888305"><ele>91.0</ele><time>2026-04-12T10:09:35.972Z</time></trkpt><trkpt lat="37.9678067" lon="15.8882833"><ele>91.0</ele><time>2026-04-12T10:09:36.972Z</time></trkpt><trkpt lat="37.9676783" lon="15.8882433"><ele>91.0</ele><time>2026-04-12T10:09:37.972Z</time></trkpt><trkpt lat="37.9675367" lon="15.8882017"><ele>89.33333333333333</ele><time>2026-04-12T10:09:38.972Z</time></trkpt><trkpt lat="37.9673933" lon="15.888165"><ele>87.66666666666667</ele><time>2026-04-12T10:09:39.972Z</time></trkpt><trkpt lat="37.967245" lon="15.888135"><ele>86.0</ele><time>2026-04-12T10:09:40.972Z</time></trkpt><trkpt lat="37.9670933" lon="15.8881067"><ele>86.0</ele><time>2026-04-12T10:09:41.972Z</time></trkpt><trkpt lat="37.96694" lon="15.8880817"><ele>86.0</ele><time>2026-04-12T10:09:42.972Z</time></trkpt><trkpt lat="37.9667883" lon="15.8880567"><ele>86.0</ele><time>2026-04-12T10:09:43.972Z</time></trkpt><trkpt lat="37.9666333" lon="15.8880433"><ele>86.0</ele><time>2026-04-12T10:09:44.972Z</time></trkpt><trkpt lat="37.9664817" lon="15.8880233"><ele>86.0</ele><time>2026-04-12T10:09:45.972Z</time></trkpt><trkpt lat="37.9663317" lon="15.8880017"><ele>86.0</ele><time>2026-04-12T10:09:46.972Z</time></trkpt><trkpt lat="37.9661833" lon="15.887975"><ele>86.0</ele><time>2026-04-12T10:09:47.972Z</time></trkpt><trkpt lat="37.9660333" lon="15.8879567"><ele>86.0</ele><time>2026-04-12T10:09:48.972Z</time></trkpt><trkpt lat="37.9658817" lon="15.88794"><ele>86.0</ele><time>2026-04-12T10:09:49.972Z</time></trkpt><trkpt lat="37.9657333" lon="15.8879167"><ele>85.33333333333334</ele><time>2026-04-12T10:09:50.972Z</time></trkpt><trkpt lat="37.9655817" lon="15.8879133"><ele>84.66666666666667</ele><time>2026-04-12T10:09:51.972Z</time></trkpt><trkpt lat="37.9654317" lon="15.8879183"><ele>84.0</ele><time>2026-04-12T10:09:52.972Z</time></trkpt><trkpt lat="37.9652783" lon="15.8879417"><ele>84.0</ele><time>2026-04-12T10:09:53.972Z</time></trkpt><trkpt lat="37.96513" lon="15.8879783"><ele>84.0</ele><time>2026-04-12T10:09:54.972Z</time></trkpt><trkpt lat="37.96499" lon="15.8880267"><ele>84.0</ele><time>2026-04-12T10:09:55.972Z</time></trkpt><trkpt lat="37.9648467" lon="15.8880783"><ele>84.0</ele><time>2026-04-12T10:09:56.972Z</time></trkpt><trkpt lat="37.9646917" lon="15.8881083"><ele>84.0</ele><time>2026-04-12T10:09:57.972Z</time></trkpt><trkpt lat="37.9645367" lon="15.8881617"><ele>84.0</ele><time>2026-04-12T10:09:58.972Z</time></trkpt><trkpt lat="37.9643817" lon="15.888215"><ele>84.0</ele><time>2026-04-12T10:09:59.972Z</time></trkpt><trkpt lat="37.9642267" lon="15.8882617"><ele>84.0</ele><time>2026-04-12T10:10:00.973Z</time></trkpt><trkpt lat="37.9640817" lon="15.8883117"><ele>84.0</ele><time>2026-04-12T10:10:01.972Z</time></trkpt><trkpt lat="37.9639383" lon="15.8883617"><ele>84.0</ele><time>2026-04-12T10:10:02.972Z</time></trkpt><trkpt lat="37.9637917" lon="15.88841"><ele>83.25</ele><time>2026-04-12T10:10:03.972Z</time></trkpt><trkpt lat="37.963655" lon="15.8884583"><ele>82.5</ele><time>2026-04-12T10:10:04.973Z</time></trkpt><trkpt lat="37.9635267" lon="15.8885033"><ele>81.75</ele><time>2026-04-12T10:10:05.973Z</time></trkpt><trkpt lat="37.9634133" lon="15.8885467"><ele>81.0</ele><time>2026-04-12T10:10:06.973Z</time></trkpt><trkpt lat="37.9633033" lon="15.8885883"><ele>81.0</ele><time>2026-04-12T10:10:07.972Z</time></trkpt><trkpt lat="37.963205" lon="15.8886167"><ele>81.0</ele><time>2026-04-12T10:10:08.972Z</time></trkpt><trkpt lat="37.9631167" lon="15.8886417"><ele>81.0</ele><time>2026-04-12T10:10:09.973Z</time></trkpt><trkpt lat="37.963035" lon="15.8886783"><ele>81.0</ele><time>2026-04-12T10:10:10.972Z</time></trkpt><trkpt lat="37.9629583" lon="15.8887167"><ele>81.0</ele><time>2026-04-12T10:10:11.973Z</time></trkpt><trkpt lat="37.962885" lon="15.8887633"><ele>81.0</ele><time>2026-04-12T10:10:12.972Z</time></trkpt><trkpt lat="37.9628167" lon="15.888805"><ele>81.0</ele><time>2026-04-12T10:10:13.972Z</time></trkpt><trkpt lat="37.9627417" lon="15.8888533"><ele>81.0</ele><time>2026-04-12T10:10:14.972Z</time></trkpt><trkpt lat="37.96267" lon="15.8888733"><ele>81.0</ele><time>2026-04-12T10:10:15.972Z</time></trkpt><trkpt lat="37.9625617" lon="15.88885"><ele>81.0</ele><time>2026-04-12T10:10:17.973Z</time></trkpt><trkpt lat="37.962525" lon="15.8886983"><ele>81.0</ele><time>2026-04-12T10:10:19.973Z</time></trkpt><trkpt lat="37.9625067" lon="15.8886083"><ele>81.66666666666667</ele><time>2026-04-12T10:10:20.972Z</time></trkpt><trkpt lat="37.962485" lon="15.8885083"><ele>82.33333333333333</ele><time>2026-04-12T10:10:21.972Z</time></trkpt><trkpt lat="37.9624717" lon="15.8884"><ele>83.0</ele><time>2026-04-12T10:10:22.973Z</time></trkpt><trkpt lat="37.9624467" lon="15.8883017"><ele>83.66666666666666</ele><time>2026-04-12T10:10:23.972Z</time></trkpt><trkpt lat="37.9624283" lon="15.8882033"><ele>84.33333333333333</ele><time>2026-04-12T10:10:24.973Z</time></trkpt><trkpt lat="37.9623833" lon="15.8881317"><ele>85.0</ele><time>2026-04-12T10:10:25.972Z</time></trkpt><trkpt lat="37.9623283" lon="15.8880733"><ele>86.83333333333333</ele><time>2026-04-12T10:10:26.972Z</time></trkpt><trkpt lat="37.9622517" lon="15.8879783"><ele>88.66666666666666</ele><time>2026-04-12T10:10:28.972Z</time></trkpt><trkpt lat="37.9622067" lon="15.88786"><ele>90.5</ele><time>2026-04-12T10:10:30.972Z</time></trkpt><trkpt lat="37.9621967" lon="15.88777"><ele>92.33333333333333</ele><time>2026-04-12T10:10:31.972Z</time></trkpt><trkpt lat="37.9621917" lon="15.8876667"><ele>94.16666666666667</ele><time>2026-04-12T10:10:32.973Z</time></trkpt><trkpt lat="37.96219" lon="15.8875667"><ele>96.0</ele><time>2026-04-12T10:10:33.972Z</time></trkpt><trkpt lat="37.9621917" lon="15.8874683"><ele>96.33333333333333</ele><time>2026-04-12T10:10:34.972Z</time></trkpt><trkpt lat="37.9621983" lon="15.88737"><ele>96.66666666666666</ele><time>2026-04-12T10:10:35.972Z</time></trkpt><trkpt lat="37.9622117" lon="15.8872683"><ele>97.0</ele><time>2026-04-12T10:10:36.973Z</time></trkpt><trkpt lat="37.9622033" lon="15.887185"><ele>97.33333333333333</ele><time>2026-04-12T10:10:37.972Z</time></trkpt><trkpt lat="37.962165" lon="15.8870283"><ele>97.66666666666666</ele><time>2026-04-12T10:10:39.972Z</time></trkpt><trkpt lat="37.9621283" lon="15.88694"><ele>98.0</ele><time>2026-04-12T10:10:40.972Z</time></trkpt><trkpt lat="37.9620867" lon="15.88685"><ele>97.99999999999999</ele><time>2026-04-12T10:10:41.972Z</time></trkpt><trkpt lat="37.9620533" lon="15.8867667"><ele>98.0</ele><time>2026-04-12T10:10:42.972Z</time></trkpt><trkpt lat="37.9620083" lon="15.886695"><ele>98.0</ele><time>2026-04-12T10:10:43.973Z</time></trkpt><trkpt lat="37.9619433" lon="15.8866317"><ele>98.0</ele><time>2026-04-12T10:10:44.973Z</time></trkpt><trkpt lat="37.961875" lon="15.8865567"><ele>97.99999999999999</ele><time>2026-04-12T10:10:45.972Z</time></trkpt><trkpt lat="37.9618167" lon="15.88649"><ele>98.0</ele><time>2026-04-12T10:10:46.973Z</time></trkpt><trkpt lat="37.9617517" lon="15.8864217"><ele>97.0</ele><time>2026-04-12T10:10:47.972Z</time></trkpt><trkpt lat="37.9616917" lon="15.8863583"><ele>96.0</ele><time>2026-04-12T10:10:48.972Z</time></trkpt><trkpt lat="37.96164" lon="15.88631"><ele>95.0</ele><time>2026-04-12T10:10:49.972Z</time></trkpt><trkpt lat="37.9615867" lon="15.8862583"><ele>94.0</ele><time>2026-04-12T10:10:50.972Z</time></trkpt><trkpt lat="37.9615317" lon="15.8862133"><ele>93.0</ele><time>2026-04-12T10:10:51.972Z</time></trkpt><trkpt lat="37.9614717" lon="15.886165"><ele>92.0</ele><time>2026-04-12T10:10:52.972Z</time></trkpt><trkpt lat="37.9614" lon="15.8861117"><ele>91.0</ele><time>2026-04-12T10:10:53.972Z</time></trkpt><trkpt lat="37.96133" lon="15.88605"><ele>91.0</ele><time>2026-04-12T10:10:54.973Z</time></trkpt><trkpt lat="37.96126" lon="15.8859833"><ele>91.0</ele><time>2026-04-12T10:10:55.972Z</time></trkpt><trkpt lat="37.9611833" lon="15.88592"><ele>91.0</ele><time>2026-04-12T10:10:56.972Z</time></trkpt><trkpt lat="37.9611" lon="15.88586"><ele>91.0</ele><time>2026-04-12T10:10:57.972Z</time></trkpt><trkpt lat="37.9610217" lon="15.885775"><ele>91.0</ele><time>2026-04-12T10:10:58.972Z</time></trkpt><trkpt lat="37.96094" lon="15.8856933"><ele>88.2</ele><time>2026-04-12T10:10:59.972Z</time></trkpt><trkpt lat="37.96086" lon="15.8856"><ele>85.39999999999999</ele><time>2026-04-12T10:11:00.972Z</time></trkpt><trkpt lat="37.9607817" lon="15.8855167"><ele>82.6</ele><time>2026-04-12T10:11:01.972Z</time></trkpt><trkpt lat="37.9607117" lon="15.8854367"><ele>79.8</ele><time>2026-04-12T10:11:02.972Z</time></trkpt><trkpt lat="37.9606517" lon="15.8853567"><ele>77.0</ele><time>2026-04-12T10:11:03.972Z</time></trkpt><trkpt lat="37.9606" lon="15.8852733"><ele>77.0</ele><time>2026-04-12T10:11:04.972Z</time></trkpt><trkpt lat="37.9605483" lon="15.8852033"><ele>77.0</ele><time>2026-04-12T10:11:05.972Z</time></trkpt><trkpt lat="37.960505" lon="15.8851317"><ele>77.0</ele><time>2026-04-12T10:11:06.972Z</time></trkpt><trkpt lat="37.96041" lon="15.88502"><ele>77.0</ele><time>2026-04-12T10:11:08.972Z</time></trkpt><trkpt lat="37.960355" lon="15.884955"><ele>77.0</ele><time>2026-04-12T10:11:09.972Z</time></trkpt><trkpt lat="37.9602983" lon="15.8848933"><ele>77.0</ele><time>2026-04-12T10:11:10.972Z</time></trkpt><trkpt lat="37.960235" lon="15.8848483"><ele>77.0</ele><time>2026-04-12T10:11:11.972Z</time></trkpt><trkpt lat="37.96018" lon="15.8848"><ele>77.0</ele><time>2026-04-12T10:11:12.973Z</time></trkpt><trkpt lat="37.9601167" lon="15.8847433"><ele>77.0</ele><time>2026-04-12T10:11:13.972Z</time></trkpt><trkpt lat="37.9600667" lon="15.884685"><ele>77.0</ele><time>2026-04-12T10:11:14.972Z</time></trkpt><trkpt lat="37.9600183" lon="15.8846183"><ele>77.0</ele><time>2026-04-12T10:11:15.972Z</time></trkpt><trkpt lat="37.959955" lon="15.8845617"><ele>77.0</ele><time>2026-04-12T10:11:16.972Z</time></trkpt><trkpt lat="37.959895" lon="15.8844967"><ele>77.0</ele><time>2026-04-12T10:11:17.972Z</time></trkpt><trkpt lat="37.9598333" lon="15.8844317"><ele>76.57142857142857</ele><time>2026-04-12T10:11:18.972Z</time></trkpt><trkpt lat="37.9597783" lon="15.8843633"><ele>76.14285714285714</ele><time>2026-04-12T10:11:19.972Z</time></trkpt><trkpt lat="37.9597317" lon="15.884295"><ele>75.71428571428572</ele><time>2026-04-12T10:11:20.972Z</time></trkpt><trkpt lat="37.9596933" lon="15.8842283"><ele>75.28571428571428</ele><time>2026-04-12T10:11:21.972Z</time></trkpt><trkpt lat="37.9596583" lon="15.8841583"><ele>74.85714285714286</ele><time>2026-04-12T10:11:22.972Z</time></trkpt><trkpt lat="37.9596167" lon="15.8840833"><ele>74.42857142857143</ele><time>2026-04-12T10:11:23.973Z</time></trkpt><trkpt lat="37.9595717" lon="15.8840183"><ele>74.0</ele><time>2026-04-12T10:11:24.973Z</time></trkpt><trkpt lat="37.9595267" lon="15.8839417"><ele>74.0</ele><time>2026-04-12T10:11:25.972Z</time></trkpt><trkpt lat="37.9594817" lon="15.8838783"><ele>74.0</ele><time>2026-04-12T10:11:26.973Z</time></trkpt><trkpt lat="37.9593917" lon="15.8837817"><ele>74.0</ele><time>2026-04-12T10:11:28.972Z</time></trkpt><trkpt lat="37.9592833" lon="15.883715"><ele>74.0</ele><time>2026-04-12T10:11:30.972Z</time></trkpt><trkpt lat="37.959175" lon="15.88369"><ele>74.0</ele><time>2026-04-12T10:11:32.972Z</time></trkpt><trkpt lat="37.959075" lon="15.8837617"><ele>73.8</ele><time>2026-04-12T10:11:34.973Z</time></trkpt><trkpt lat="37.95903" lon="15.883835"><ele>73.60000000000001</ele><time>2026-04-12T10:11:35.972Z</time></trkpt><trkpt lat="37.95898" lon="15.8839417"><ele>73.4</ele><time>2026-04-12T10:11:36.972Z</time></trkpt><trkpt lat="37.95892" lon="15.8840767"><ele>73.2</ele><time>2026-04-12T10:11:37.972Z</time></trkpt><trkpt lat="37.958855" lon="15.8842217"><ele>73.0</ele><time>2026-04-12T10:11:38.972Z</time></trkpt><trkpt lat="37.9587817" lon="15.88437"><ele>72.5</ele><time>2026-04-12T10:11:39.972Z</time></trkpt><trkpt lat="37.95871" lon="15.8845167"><ele>72.0</ele><time>2026-04-12T10:11:40.972Z</time></trkpt><trkpt lat="37.95863" lon="15.8846583"><ele>71.5</ele><time>2026-04-12T10:11:41.971Z</time></trkpt><trkpt lat="37.9585433" lon="15.884795"><ele>71.0</ele><time>2026-04-12T10:11:42.972Z</time></trkpt><trkpt lat="37.9584467" lon="15.88491"><ele>70.5</ele><time>2026-04-12T10:11:43.972Z</time></trkpt><trkpt lat="37.958355" lon="15.8850267"><ele>70.0</ele><time>2026-04-12T10:11:44.972Z</time></trkpt><trkpt lat="37.95827" lon="15.8851367"><ele>69.5</ele><time>2026-04-12T10:11:45.972Z</time></trkpt><trkpt lat="37.9581983" lon="15.8852317"><ele>69.0</ele><time>2026-04-12T10:11:46.972Z</time></trkpt><trkpt lat="37.9581317" lon="15.8853233"><ele>69.0</ele><time>2026-04-12T10:11:47.972Z</time></trkpt><trkpt lat="37.95807" lon="15.8853967"><ele>69.0</ele><time>2026-04-12T10:11:48.972Z</time></trkpt><trkpt lat="37.95802" lon="15.88545"><ele>69.0</ele><time>2026-04-12T10:11:49.972Z</time></trkpt><trkpt lat="37.957935" lon="15.885465"><ele>69.0</ele><time>2026-04-12T10:11:51.972Z</time></trkpt><trkpt lat="37.95785" lon="15.8854067"><ele>69.0</ele><time>2026-04-12T10:11:53.972Z</time></trkpt><trkpt lat="37.9577933" lon="15.8853417"><ele>69.0</ele><time>2026-04-12T10:11:54.972Z</time></trkpt><trkpt lat="37.9577233" lon="15.8852533"><ele>69.0</ele><time>2026-04-12T10:11:55.972Z</time></trkpt><trkpt lat="37.9576367" lon="15.8851517"><ele>69.0</ele><time>2026-04-12T10:11:56.972Z</time></trkpt><trkpt lat="37.957535" lon="15.88504"><ele>69.0</ele><time>2026-04-12T10:11:57.972Z</time></trkpt><trkpt lat="37.9574183" lon="15.88492"><ele>69.0</ele><time>2026-04-12T10:11:58.972Z</time></trkpt><trkpt lat="37.9572783" lon="15.884815"><ele>68.0</ele><time>2026-04-12T10:11:59.972Z</time></trkpt><trkpt lat="37.95712" lon="15.884735"><ele>67.0</ele><time>2026-04-12T10:12:00.972Z</time></trkpt><trkpt lat="37.9569283" lon="15.8846633"><ele>66.0</ele><time>2026-04-12T10:12:01.972Z</time></trkpt><trkpt lat="37.95672" lon="15.884595"><ele>64.5</ele><time>2026-04-12T10:12:02.972Z</time></trkpt><trkpt lat="37.9565033" lon="15.8845317"><ele>63.0</ele><time>2026-04-12T10:12:03.972Z</time></trkpt><trkpt lat="37.9562833" lon="15.8844583"><ele>63.0</ele><time>2026-04-12T10:12:04.972Z</time></trkpt><trkpt lat="37.9560633" lon="15.8843883"><ele>63.0</ele><time>2026-04-12T10:12:05.972Z</time></trkpt><trkpt lat="37.9558433" lon="15.8843333"><ele>62.66666666666667</ele><time>2026-04-12T10:12:06.973Z</time></trkpt><trkpt lat="37.9556317" lon="15.8842733"><ele>62.333333333333336</ele><time>2026-04-12T10:12:07.972Z</time></trkpt><trkpt lat="37.9554217" lon="15.88421"><ele>62.0</ele><time>2026-04-12T10:12:08.972Z</time></trkpt><trkpt lat="37.9551983" lon="15.8841367"><ele>62.0</ele><time>2026-04-12T10:12:09.972Z</time></trkpt><trkpt lat="37.9549867" lon="15.8840683"><ele>62.0</ele><time>2026-04-12T10:12:10.972Z</time></trkpt><trkpt lat="37.9547733" lon="15.88401"><ele>62.0</ele><time>2026-04-12T10:12:11.972Z</time></trkpt><trkpt lat="37.9545633" lon="15.8839367"><ele>62.0</ele><time>2026-04-12T10:12:12.972Z</time></trkpt><trkpt lat="37.9543433" lon="15.8838733"><ele>62.0</ele><time>2026-04-12T10:12:13.972Z</time></trkpt><trkpt lat="37.95413" lon="15.8838167"><ele>62.0</ele><time>2026-04-12T10:12:14.973Z</time></trkpt><trkpt lat="37.9539183" lon="15.8837467"><ele>61.0</ele><time>2026-04-12T10:12:15.972Z</time></trkpt><trkpt lat="37.9537117" lon="15.8836717"><ele>60.0</ele><time>2026-04-12T10:12:16.973Z</time></trkpt><trkpt lat="37.953505" lon="15.8836033"><ele>59.0</ele><time>2026-04-12T10:12:17.972Z</time></trkpt><trkpt lat="37.9533" lon="15.8835417"><ele>58.66666666666667</ele><time>2026-04-12T10:12:18.973Z</time></trkpt><trkpt lat="37.95309" lon="15.883475"><ele>58.33333333333333</ele><time>2026-04-12T10:12:19.972Z</time></trkpt><trkpt lat="37.952865" lon="15.8834233"><ele>58.0</ele><time>2026-04-12T10:12:20.972Z</time></trkpt><trkpt lat="37.9526333" lon="15.88336"><ele>57.5</ele><time>2026-04-12T10:12:21.972Z</time></trkpt><trkpt lat="37.9524017" lon="15.8832867"><ele>57.0</ele><time>2026-04-12T10:12:22.972Z</time></trkpt><trkpt lat="37.9521717" lon="15.8832083"><ele>57.0</ele><time>2026-04-12T10:12:23.972Z</time></trkpt><trkpt lat="37.9519433" lon="15.883135"><ele>57.0</ele><time>2026-04-12T10:12:24.972Z</time></trkpt><trkpt lat="37.9517333" lon="15.8830633"><ele>56.0</ele><time>2026-04-12T10:12:25.973Z</time></trkpt><trkpt lat="37.951525" lon="15.8829983"><ele>55.0</ele><time>2026-04-12T10:12:26.973Z</time></trkpt><trkpt lat="37.9513333" lon="15.8829283"><ele>54.0</ele><time>2026-04-12T10:12:27.973Z</time></trkpt><trkpt lat="37.9511383" lon="15.8828683"><ele>54.0</ele><time>2026-04-12T10:12:28.972Z</time></trkpt><trkpt lat="37.9509467" lon="15.8828117"><ele>54.0</ele><time>2026-04-12T10:12:29.972Z</time></trkpt><trkpt lat="37.950755" lon="15.8827467"><ele>54.0</ele><time>2026-04-12T10:12:30.972Z</time></trkpt><trkpt lat="37.95058" lon="15.8826967"><ele>54.33333333333333</ele><time>2026-04-12T10:12:31.972Z</time></trkpt><trkpt lat="37.9504167" lon="15.88266"><ele>54.666666666666664</ele><time>2026-04-12T10:12:32.972Z</time></trkpt><trkpt lat="37.9502717" lon="15.8826083"><ele>55.0</ele><time>2026-04-12T10:12:33.972Z</time></trkpt><trkpt lat="37.95014" lon="15.882565"><ele>54.5</ele><time>2026-04-12T10:12:34.972Z</time></trkpt><trkpt lat="37.9500117" lon="15.882525"><ele>54.0</ele><time>2026-04-12T10:12:35.973Z</time></trkpt><trkpt lat="37.9498833" lon="15.88249"><ele>53.5</ele><time>2026-04-12T10:12:36.972Z</time></trkpt><trkpt lat="37.949745" lon="15.8824517"><ele>53.0</ele><time>2026-04-12T10:12:37.973Z</time></trkpt><trkpt lat="37.9495967" lon="15.8823967"><ele>53.0</ele><time>2026-04-12T10:12:38.972Z</time></trkpt><trkpt lat="37.9494433" lon="15.88235"><ele>53.0</ele><time>2026-04-12T10:12:39.973Z</time></trkpt><trkpt lat="37.9492867" lon="15.8823233"><ele>53.0</ele><time>2026-04-12T10:12:40.972Z</time></trkpt><trkpt lat="37.9491167" lon="15.8822833"><ele>52.333333333333336</ele><time>2026-04-12T10:12:41.972Z</time></trkpt><trkpt lat="37.9489467" lon="15.88223"><ele>51.66666666666667</ele><time>2026-04-12T10:12:42.973Z</time></trkpt><trkpt lat="37.948775" lon="15.88218"><ele>51.0</ele><time>2026-04-12T10:12:43.972Z</time></trkpt><trkpt lat="37.9486083" lon="15.88212"><ele>51.0</ele><time>2026-04-12T10:12:44.972Z</time></trkpt><trkpt lat="37.94843" lon="15.8820767"><ele>51.0</ele><time>2026-04-12T10:12:45.972Z</time></trkpt><trkpt lat="37.9482533" lon="15.8820117"><ele>51.0</ele><time>2026-04-12T10:12:46.973Z</time></trkpt><trkpt lat="37.9480867" lon="15.8819467"><ele>50.66666666666667</ele><time>2026-04-12T10:12:47.973Z</time></trkpt><trkpt lat="37.947905" lon="15.881885"><ele>50.333333333333336</ele><time>2026-04-12T10:12:48.972Z</time></trkpt><trkpt lat="37.9477183" lon="15.8818533"><ele>50.0</ele><time>2026-04-12T10:12:49.972Z</time></trkpt><trkpt lat="37.9475317" lon="15.8818133"><ele>50.333333333333336</ele><time>2026-04-12T10:12:50.972Z</time></trkpt><trkpt lat="37.9473467" lon="15.8817633"><ele>50.66666666666667</ele><time>2026-04-12T10:12:51.973Z</time></trkpt><trkpt lat="37.9471633" lon="15.8817083"><ele>51.0</ele><time>2026-04-12T10:12:52.972Z</time></trkpt><trkpt lat="37.9469817" lon="15.8816633"><ele>51.0</ele><time>2026-04-12T10:12:53.973Z</time></trkpt><trkpt lat="37.9468033" lon="15.881595"><ele>51.0</ele><time>2026-04-12T10:12:54.972Z</time></trkpt><trkpt lat="37.9466183" lon="15.881545"><ele>51.0</ele><time>2026-04-12T10:12:55.972Z</time></trkpt><trkpt lat="37.9464383" lon="15.8814833"><ele>50.33333333333333</ele><time>2026-04-12T10:12:56.973Z</time></trkpt><trkpt lat="37.9462567" lon="15.88145"><ele>49.666666666666664</ele><time>2026-04-12T10:12:57.972Z</time></trkpt><trkpt lat="37.9460683" lon="15.88143"><ele>49.0</ele><time>2026-04-12T10:12:58.972Z</time></trkpt><trkpt lat="37.9458717" lon="15.8814483"><ele>48.33333333333333</ele><time>2026-04-12T10:12:59.973Z</time></trkpt><trkpt lat="37.9456783" lon="15.8814717"><ele>47.666666666666664</ele><time>2026-04-12T10:13:00.972Z</time></trkpt><trkpt lat="37.9454817" lon="15.8815033"><ele>47.0</ele><time>2026-04-12T10:13:01.973Z</time></trkpt><trkpt lat="37.9452767" lon="15.8815267"><ele>47.0</ele><time>2026-04-12T10:13:02.972Z</time></trkpt><trkpt lat="37.9450833" lon="15.88155"><ele>47.0</ele><time>2026-04-12T10:13:03.972Z</time></trkpt><trkpt lat="37.944895" lon="15.8815633"><ele>47.0</ele><time>2026-04-12T10:13:04.972Z</time></trkpt><trkpt lat="37.9447133" lon="15.881575"><ele>46.0</ele><time>2026-04-12T10:13:05.972Z</time></trkpt><trkpt lat="37.9445283" lon="15.881595"><ele>45.0</ele><time>2026-04-12T10:13:06.972Z</time></trkpt><trkpt lat="37.9443283" lon="15.8816133"><ele>44.0</ele><time>2026-04-12T10:13:07.972Z</time></trkpt><trkpt lat="37.944115" lon="15.8816283"><ele>43.33333333333333</ele><time>2026-04-12T10:13:08.972Z</time></trkpt><trkpt lat="37.9439033" lon="15.8816483"><ele>42.666666666666664</ele><time>2026-04-12T10:13:09.972Z</time></trkpt><trkpt lat="37.9436917" lon="15.8816633"><ele>42.0</ele><time>2026-04-12T10:13:10.972Z</time></trkpt><trkpt lat="37.9434717" lon="15.8816883"><ele>41.0</ele><time>2026-04-12T10:13:11.972Z</time></trkpt><trkpt lat="37.943255" lon="15.8817133"><ele>40.0</ele><time>2026-04-12T10:13:12.972Z</time></trkpt><trkpt lat="37.9430433" lon="15.8817383"><ele>39.0</ele><time>2026-04-12T10:13:13.972Z</time></trkpt><trkpt lat="37.9428267" lon="15.881755"><ele>38.333333333333336</ele><time>2026-04-12T10:13:14.972Z</time></trkpt><trkpt lat="37.9426117" lon="15.8817717"><ele>37.66666666666667</ele><time>2026-04-12T10:13:15.973Z</time></trkpt><trkpt lat="37.9424167" lon="15.8817917"><ele>37.0</ele><time>2026-04-12T10:13:16.973Z</time></trkpt><trkpt lat="37.94221" lon="15.8818067"><ele>37.0</ele><time>2026-04-12T10:13:17.973Z</time></trkpt><trkpt lat="37.9420083" lon="15.8818367"><ele>37.0</ele><time>2026-04-12T10:13:18.973Z</time></trkpt><trkpt lat="37.941805" lon="15.881855"><ele>37.0</ele><time>2026-04-12T10:13:19.972Z</time></trkpt><trkpt lat="37.9415983" lon="15.8818867"><ele>36.66666666666667</ele><time>2026-04-12T10:13:20.972Z</time></trkpt><trkpt lat="37.9413917" lon="15.8818933"><ele>36.333333333333336</ele><time>2026-04-12T10:13:21.972Z</time></trkpt><trkpt lat="37.9411883" lon="15.8819117"><ele>36.0</ele><time>2026-04-12T10:13:22.972Z</time></trkpt><trkpt lat="37.9409883" lon="15.8819383"><ele>35.666666666666664</ele><time>2026-04-12T10:13:23.972Z</time></trkpt><trkpt lat="37.9408" lon="15.8819567"><ele>35.33333333333333</ele><time>2026-04-12T10:13:24.972Z</time></trkpt><trkpt lat="37.9406083" lon="15.8819667"><ele>35.0</ele><time>2026-04-12T10:13:25.972Z</time></trkpt><trkpt lat="37.9404183" lon="15.8819883"><ele>35.0</ele><time>2026-04-12T10:13:26.972Z</time></trkpt><trkpt lat="37.940245" lon="15.8820083"><ele>35.0</ele><time>2026-04-12T10:13:27.972Z</time></trkpt><trkpt lat="37.9400617" lon="15.88203"><ele>35.0</ele><time>2026-04-12T10:13:28.972Z</time></trkpt><trkpt lat="37.9399" lon="15.8820417"><ele>35.0</ele><time>2026-04-12T10:13:29.972Z</time></trkpt><trkpt lat="37.9397517" lon="15.882055"><ele>35.0</ele><time>2026-04-12T10:13:30.972Z</time></trkpt><trkpt lat="37.93961" lon="15.8820683"><ele>35.0</ele><time>2026-04-12T10:13:31.972Z</time></trkpt><trkpt lat="37.9394833" lon="15.8820833"><ele>35.0</ele><time>2026-04-12T10:13:32.972Z</time></trkpt><trkpt lat="37.9393633" lon="15.8820917"><ele>35.0</ele><time>2026-04-12T10:13:33.972Z</time></trkpt><trkpt lat="37.9392533" lon="15.8821067"><ele>35.0</ele><time>2026-04-12T10:13:34.972Z</time></trkpt><trkpt lat="37.93912" lon="15.8821317"><ele>35.0</ele><time>2026-04-12T10:13:35.972Z</time></trkpt><trkpt lat="37.938925" lon="15.8821633"><ele>35.0</ele><time>2026-04-12T10:13:36.972Z</time></trkpt><trkpt lat="37.9387017" lon="15.882165"><ele>34.0</ele><time>2026-04-12T10:13:37.972Z</time></trkpt><trkpt lat="37.9384567" lon="15.8822"><ele>33.0</ele><time>2026-04-12T10:13:38.972Z</time></trkpt><trkpt lat="37.9382267" lon="15.8822267"><ele>33.0</ele><time>2026-04-12T10:13:39.972Z</time></trkpt><trkpt lat="37.9380317" lon="15.8822367"><ele>33.0</ele><time>2026-04-12T10:13:40.972Z</time></trkpt><trkpt lat="37.9378633" lon="15.882245"><ele>33.0</ele><time>2026-04-12T10:13:41.972Z</time></trkpt><trkpt lat="37.9377167" lon="15.882265"><ele>32.666666666666664</ele><time>2026-04-12T10:13:42.973Z</time></trkpt><trkpt lat="37.9375483" lon="15.8822883"><ele>32.33333333333333</ele><time>2026-04-12T10:13:43.972Z</time></trkpt><trkpt lat="37.9373633" lon="15.8823067"><ele>32.0</ele><time>2026-04-12T10:13:44.972Z</time></trkpt><trkpt lat="37.937195" lon="15.8823083"><ele>32.0</ele><time>2026-04-12T10:13:45.972Z</time></trkpt><trkpt lat="37.937035" lon="15.8823267"><ele>32.0</ele><time>2026-04-12T10:13:46.972Z</time></trkpt><trkpt lat="37.936875" lon="15.882345"><ele>32.0</ele><time>2026-04-12T10:13:47.973Z</time></trkpt><trkpt lat="37.9367083" lon="15.8823633"><ele>31.666666666666664</ele><time>2026-04-12T10:13:48.972Z</time></trkpt><trkpt lat="37.9365267" lon="15.8823767"><ele>31.333333333333336</ele><time>2026-04-12T10:13:49.973Z</time></trkpt><trkpt lat="37.9363383" lon="15.8823967"><ele>31.0</ele><time>2026-04-12T10:13:50.972Z</time></trkpt><trkpt lat="37.93614" lon="15.8824217"><ele>31.0</ele><time>2026-04-12T10:13:51.973Z</time></trkpt><trkpt lat="37.9359317" lon="15.8824483"><ele>31.0</ele><time>2026-04-12T10:13:52.972Z</time></trkpt><trkpt lat="37.9357183" lon="15.8824717"><ele>31.0</ele><time>2026-04-12T10:13:53.972Z</time></trkpt><trkpt lat="37.9355017" lon="15.8824933"><ele>30.0</ele><time>2026-04-12T10:13:54.972Z</time></trkpt><trkpt lat="37.935265" lon="15.882515"><ele>29.0</ele><time>2026-04-12T10:13:55.972Z</time></trkpt><trkpt lat="37.9350333" lon="15.8825433"><ele>27.5</ele><time>2026-04-12T10:13:56.972Z</time></trkpt><trkpt lat="37.9348017" lon="15.882565"><ele>26.0</ele><time>2026-04-12T10:13:57.972Z</time></trkpt><trkpt lat="37.9345717" lon="15.8825917"><ele>24.0</ele><time>2026-04-12T10:13:58.972Z</time></trkpt><trkpt lat="37.93434" lon="15.8826117"><ele>22.0</ele><time>2026-04-12T10:13:59.972Z</time></trkpt><trkpt lat="37.9341067" lon="15.8826533"><ele>21.5</ele><time>2026-04-12T10:14:00.972Z</time></trkpt><trkpt lat="37.9338767" lon="15.8826717"><ele>21.0</ele><time>2026-04-12T10:14:01.972Z</time></trkpt><trkpt lat="37.933645" lon="15.8826933"><ele>21.0</ele><time>2026-04-12T10:14:02.972Z</time></trkpt><trkpt lat="37.933425" lon="15.88271"><ele>21.0</ele><time>2026-04-12T10:14:03.972Z</time></trkpt><trkpt lat="37.933205" lon="15.88274"><ele>21.0</ele><time>2026-04-12T10:14:04.972Z</time></trkpt><trkpt lat="37.932995" lon="15.8827417"><ele>20.666666666666668</ele><time>2026-04-12T10:14:05.972Z</time></trkpt><trkpt lat="37.9327767" lon="15.8827683"><ele>20.333333333333336</ele><time>2026-04-12T10:14:06.972Z</time></trkpt><trkpt lat="37.9325567" lon="15.8827933"><ele>20.0</ele><time>2026-04-12T10:14:07.972Z</time></trkpt><trkpt lat="37.9323483" lon="15.8828133"><ele>19.0</ele><time>2026-04-12T10:14:08.972Z</time></trkpt><trkpt lat="37.9321533" lon="15.8828417"><ele>18.0</ele><time>2026-04-12T10:14:09.972Z</time></trkpt><trkpt lat="37.9319683" lon="15.8828533"><ele>17.0</ele><time>2026-04-12T10:14:10.972Z</time></trkpt><trkpt lat="37.9317867" lon="15.8828417"><ele>15.666666666666668</ele><time>2026-04-12T10:14:11.972Z</time></trkpt><trkpt lat="37.9315917" lon="15.8828017"><ele>14.333333333333332</ele><time>2026-04-12T10:14:12.972Z</time></trkpt><trkpt lat="37.9313933" lon="15.88275"><ele>13.0</ele><time>2026-04-12T10:14:13.972Z</time></trkpt><trkpt lat="37.9311883" lon="15.882705"><ele>13.0</ele><time>2026-04-12T10:14:14.972Z</time></trkpt><trkpt lat="37.9309833" lon="15.8826483"><ele>13.0</ele><time>2026-04-12T10:14:15.973Z</time></trkpt><trkpt lat="37.9307783" lon="15.88261"><ele>13.0</ele><time>2026-04-12T10:14:16.973Z</time></trkpt><trkpt lat="37.9305733" lon="15.8825733"><ele>13.0</ele><time>2026-04-12T10:14:17.973Z</time></trkpt><trkpt lat="37.9303817" lon="15.8825383"><ele>13.0</ele><time>2026-04-12T10:14:18.972Z</time></trkpt><trkpt lat="37.9302" lon="15.8825"><ele>13.0</ele><time>2026-04-12T10:14:19.972Z</time></trkpt><trkpt lat="37.930035" lon="15.882455"><ele>12.0</ele><time>2026-04-12T10:14:20.972Z</time></trkpt><trkpt lat="37.9298817" lon="15.8824233"><ele>11.0</ele><time>2026-04-12T10:14:21.972Z</time></trkpt><trkpt lat="37.92974" lon="15.882395"><ele>10.0</ele><time>2026-04-12T10:14:22.972Z</time></trkpt><trkpt lat="37.9296183" lon="15.8823717"><ele>9.0</ele><time>2026-04-12T10:14:23.972Z</time></trkpt><trkpt lat="37.9295017" lon="15.8823517"><ele>9.0</ele><time>2026-04-12T10:14:24.972Z</time></trkpt><trkpt lat="37.9294" lon="15.882335"><ele>9.0</ele><time>2026-04-12T10:14:25.972Z</time></trkpt><trkpt lat="37.9293133" lon="15.88231"><ele>9.0</ele><time>2026-04-12T10:14:26.972Z</time></trkpt><trkpt lat="37.92925" lon="15.8823067"><ele>9.0</ele><time>2026-04-12T10:14:27.972Z</time></trkpt><trkpt lat="37.9291767" lon="15.8822917"><ele>9.0</ele><time>2026-04-12T10:14:29.972Z</time></trkpt><trkpt lat="37.9290317" lon="15.8824117"><ele>8.75</ele><time>2026-04-12T10:15:24.972Z</time></trkpt><trkpt lat="37.9290183" lon="15.8825267"><ele>8.5</ele><time>2026-04-12T10:15:25.972Z</time></trkpt><trkpt lat="37.9290133" lon="15.8827067"><ele>8.25</ele><time>2026-04-12T10:15:26.973Z</time></trkpt><trkpt lat="37.9290183" lon="15.8829483"><ele>8.0</ele><time>2026-04-12T10:15:27.972Z</time></trkpt><trkpt lat="37.9290283" lon="15.883235"><ele>8.5</ele><time>2026-04-12T10:15:28.972Z</time></trkpt><trkpt lat="37.9290333" lon="15.8835567"><ele>9.0</ele><time>2026-04-12T10:15:29.973Z</time></trkpt><trkpt lat="37.92903" lon="15.8839017"><ele>9.5</ele><time>2026-04-12T10:15:30.972Z</time></trkpt><trkpt lat="37.9290217" lon="15.8842733"><ele>10.0</ele><time>2026-04-12T10:15:31.972Z</time></trkpt><trkpt lat="37.9290267" lon="15.8846683"><ele>10.0</ele><time>2026-04-12T10:15:32.972Z</time></trkpt><trkpt lat="37.929025" lon="15.88508"><ele>10.0</ele><time>2026-04-12T10:15:33.972Z</time></trkpt><trkpt lat="37.9290083" lon="15.8855083"><ele>9.5</ele><time>2026-04-12T10:15:34.972Z</time></trkpt><trkpt lat="37.9289883" lon="15.88595"><ele>9.0</ele><time>2026-04-12T10:15:35.973Z</time></trkpt><trkpt lat="37.928975" lon="15.8864017"><ele>8.5</ele><time>2026-04-12T10:15:36.973Z</time></trkpt><trkpt lat="37.9289467" lon="15.88687"><ele>8.0</ele><time>2026-04-12T10:15:37.973Z</time></trkpt><trkpt lat="37.9289283" lon="15.8873417"><ele>7.0</ele><time>2026-04-12T10:15:38.972Z</time></trkpt><trkpt lat="37.9289033" lon="15.887795"><ele>6.0</ele><time>2026-04-12T10:15:39.972Z</time></trkpt><trkpt lat="37.9288683" lon="15.8882167"><ele>5.5</ele><time>2026-04-12T10:15:40.972Z</time></trkpt><trkpt lat="37.9288383" lon="15.8886033"><ele>5.0</ele><time>2026-04-12T10:15:41.973Z</time></trkpt><trkpt lat="37.928815" lon="15.88897"><ele>6.5</ele><time>2026-04-12T10:15:42.972Z</time></trkpt><trkpt lat="37.928785" lon="15.8893217"><ele>8.0</ele><time>2026-04-12T10:15:43.972Z</time></trkpt><trkpt lat="37.928755" lon="15.8896833"><ele>8.0</ele><time>2026-04-12T10:15:44.972Z</time></trkpt><trkpt lat="37.9287233" lon="15.890055"><ele>8.0</ele><time>2026-04-12T10:15:45.972Z</time></trkpt><trkpt lat="37.928695" lon="15.8904333"><ele>8.5</ele><time>2026-04-12T10:15:46.972Z</time></trkpt><trkpt lat="37.928665" lon="15.890825"><ele>9.0</ele><time>2026-04-12T10:15:47.972Z</time></trkpt><trkpt lat="37.928625" lon="15.89122"><ele>9.0</ele><time>2026-04-12T10:15:48.973Z</time></trkpt><trkpt lat="37.928585" lon="15.8916033"><ele>9.0</ele><time>2026-04-12T10:15:49.973Z</time></trkpt><trkpt lat="37.92854" lon="15.891985"><ele>8.5</ele><time>2026-04-12T10:15:50.972Z</time></trkpt><trkpt lat="37.9284933" lon="15.892385"><ele>8.0</ele><time>2026-04-12T10:15:51.972Z</time></trkpt><trkpt lat="37.9284383" lon="15.8928067"><ele>8.0</ele><time>2026-04-12T10:15:52.973Z</time></trkpt><trkpt lat="37.9283817" lon="15.8932483"><ele>8.0</ele><time>2026-04-12T10:15:53.972Z</time></trkpt><trkpt lat="37.9283433" lon="15.8936917"><ele>7.5</ele><time>2026-04-12T10:15:54.972Z</time></trkpt><trkpt lat="37.928325" lon="15.894115"><ele>7.0</ele><time>2026-04-12T10:15:55.972Z</time></trkpt><trkpt lat="37.928315" lon="15.8945067"><ele>6.5</ele><time>2026-04-12T10:15:56.972Z</time></trkpt><trkpt lat="37.9283083" lon="15.894865"><ele>6.0</ele><time>2026-04-12T10:15:57.973Z</time></trkpt><trkpt lat="37.9282917" lon="15.8951933"><ele>7.0</ele><time>2026-04-12T10:15:58.972Z</time></trkpt><trkpt lat="37.9282767" lon="15.895505"><ele>8.0</ele><time>2026-04-12T10:15:59.972Z</time></trkpt><trkpt lat="37.9282683" lon="15.8958067"><ele>8.0</ele><time>2026-04-12T10:16:00.972Z</time></trkpt><trkpt lat="37.9282567" lon="15.8960883"><ele>8.0</ele><time>2026-04-12T10:16:01.972Z</time></trkpt><trkpt lat="37.9282417" lon="15.8963683"><ele>8.0</ele><time>2026-04-12T10:16:02.972Z</time></trkpt><trkpt lat="37.9282333" lon="15.89665"><ele>8.0</ele><time>2026-04-12T10:16:03.972Z</time></trkpt><trkpt lat="37.928245" lon="15.8969233"><ele>8.0</ele><time>2026-04-12T10:16:04.972Z</time></trkpt><trkpt lat="37.92825" lon="15.8971933"><ele>8.0</ele><time>2026-04-12T10:16:05.973Z</time></trkpt><trkpt lat="37.9282583" lon="15.8974567"><ele>8.333333333333332</ele><time>2026-04-12T10:16:06.972Z</time></trkpt><trkpt lat="37.928255" lon="15.89774"><ele>8.666666666666666</ele><time>2026-04-12T10:16:07.972Z</time></trkpt><trkpt lat="37.928255" lon="15.8980017"><ele>9.0</ele><time>2026-04-12T10:16:08.972Z</time></trkpt><trkpt lat="37.9282567" lon="15.8982417"><ele>9.333333333333334</ele><time>2026-04-12T10:16:09.973Z</time></trkpt><trkpt lat="37.9282533" lon="15.8984733"><ele>9.666666666666668</ele><time>2026-04-12T10:16:10.972Z</time></trkpt><trkpt lat="37.928255" lon="15.8987"><ele>10.0</ele><time>2026-04-12T10:16:11.972Z</time></trkpt><trkpt lat="37.928255" lon="15.8989233"><ele>10.0</ele><time>2026-04-12T10:16:12.972Z</time></trkpt><trkpt lat="37.9282717" lon="15.8991633"><ele>10.0</ele><time>2026-04-12T10:16:13.973Z</time></trkpt><trkpt lat="37.92828" lon="15.8994283"><ele>10.0</ele><time>2026-04-12T10:16:14.972Z</time></trkpt><trkpt lat="37.92828" lon="15.8997083"><ele>10.0</ele><time>2026-04-12T10:16:15.972Z</time></trkpt><trkpt lat="37.92828" lon="15.9"><ele>10.0</ele><time>2026-04-12T10:16:16.973Z</time></trkpt><trkpt lat="37.9282767" lon="15.900265"><ele>10.0</ele><time>2026-04-12T10:16:17.972Z</time></trkpt><trkpt lat="37.9282833" lon="15.90051"><ele>10.0</ele><time>2026-04-12T10:16:18.973Z</time></trkpt><trkpt lat="37.9283017" lon="15.9007617"><ele>10.0</ele><time>2026-04-12T10:16:19.972Z</time></trkpt><trkpt lat="37.9283067" lon="15.9010167"><ele>10.0</ele><time>2026-04-12T10:16:20.972Z</time></trkpt><trkpt lat="37.9283167" lon="15.90128"><ele>10.0</ele><time>2026-04-12T10:16:21.972Z</time></trkpt><trkpt lat="37.928325" lon="15.9015533"><ele>10.0</ele><time>2026-04-12T10:16:22.972Z</time></trkpt><trkpt lat="37.9283383" lon="15.901825"><ele>10.0</ele><time>2026-04-12T10:16:23.972Z</time></trkpt><trkpt lat="37.92835" lon="15.9021"><ele>10.0</ele><time>2026-04-12T10:16:24.972Z</time></trkpt><trkpt lat="37.9283517" lon="15.9023767"><ele>10.0</ele><time>2026-04-12T10:16:25.972Z</time></trkpt><trkpt lat="37.92835" lon="15.9026483"><ele>10.0</ele><time>2026-04-12T10:16:26.972Z</time></trkpt><trkpt lat="37.9283583" lon="15.902905"><ele>9.666666666666668</ele><time>2026-04-12T10:16:27.972Z</time></trkpt><trkpt lat="37.9283667" lon="15.90313"><ele>9.333333333333334</ele><time>2026-04-12T10:16:28.972Z</time></trkpt><trkpt lat="37.9283783" lon="15.9033433"><ele>9.0</ele><time>2026-04-12T10:16:29.973Z</time></trkpt><trkpt lat="37.928385" lon="15.9035317"><ele>10.4</ele><time>2026-04-12T10:16:30.972Z</time></trkpt><trkpt lat="37.9283933" lon="15.90369"><ele>11.8</ele><time>2026-04-12T10:16:31.972Z</time></trkpt><trkpt lat="37.928405" lon="15.9038367"><ele>13.200000000000001</ele><time>2026-04-12T10:16:32.972Z</time></trkpt><trkpt lat="37.9284267" lon="15.9039383"><ele>14.600000000000001</ele><time>2026-04-12T10:16:33.972Z</time></trkpt><trkpt lat="37.9284517" lon="15.904025"><ele>16.0</ele><time>2026-04-12T10:16:35.972Z</time></trkpt><trkpt lat="37.9285217" lon="15.9041583"><ele>15.25</ele><time>2026-04-12T10:16:43.973Z</time></trkpt><trkpt lat="37.9285583" lon="15.90427"><ele>14.5</ele><time>2026-04-12T10:16:44.972Z</time></trkpt><trkpt lat="37.928595" lon="15.9044"><ele>13.75</ele><time>2026-04-12T10:16:45.972Z</time></trkpt><trkpt lat="37.9286417" lon="15.904555"><ele>13.0</ele><time>2026-04-12T10:16:46.973Z</time></trkpt><trkpt lat="37.9286883" lon="15.904735"><ele>13.0</ele><time>2026-04-12T10:16:47.972Z</time></trkpt><trkpt lat="37.9287267" lon="15.9049417"><ele>13.0</ele><time>2026-04-12T10:16:48.972Z</time></trkpt><trkpt lat="37.9287633" lon="15.9051683"><ele>13.0</ele><time>2026-04-12T10:16:49.972Z</time></trkpt><trkpt lat="37.928805" lon="15.9054083"><ele>12.333333333333332</ele><time>2026-04-12T10:16:50.972Z</time></trkpt><trkpt lat="37.9288433" lon="15.905665"><ele>11.666666666666666</ele><time>2026-04-12T10:16:51.972Z</time></trkpt><trkpt lat="37.9288783" lon="15.9059183"><ele>11.0</ele><time>2026-04-12T10:16:52.972Z</time></trkpt><trkpt lat="37.928925" lon="15.90618"><ele>11.0</ele><time>2026-04-12T10:16:53.973Z</time></trkpt><trkpt lat="37.92896" lon="15.9064267"><ele>11.0</ele><time>2026-04-12T10:16:54.973Z</time></trkpt><trkpt lat="37.9289917" lon="15.9066667"><ele>11.0</ele><time>2026-04-12T10:16:55.972Z</time></trkpt><trkpt lat="37.92902" lon="15.906905"><ele>11.0</ele><time>2026-04-12T10:16:56.972Z</time></trkpt><trkpt lat="37.9290567" lon="15.9071583"><ele>11.0</ele><time>2026-04-12T10:16:57.972Z</time></trkpt><trkpt lat="37.929095" lon="15.9073967"><ele>11.0</ele><time>2026-04-12T10:16:58.972Z</time></trkpt><trkpt lat="37.9291383" lon="15.9076233"><ele>10.333333333333332</ele><time>2026-04-12T10:16:59.973Z</time></trkpt><trkpt lat="37.9291717" lon="15.9078417"><ele>9.666666666666666</ele><time>2026-04-12T10:17:00.972Z</time></trkpt><trkpt lat="37.9292167" lon="15.9080483"><ele>9.0</ele><time>2026-04-12T10:17:01.972Z</time></trkpt><trkpt lat="37.9292567" lon="15.908265"><ele>9.0</ele><time>2026-04-12T10:17:02.972Z</time></trkpt><trkpt lat="37.9292683" lon="15.9084833"><ele>9.0</ele><time>2026-04-12T10:17:03.972Z</time></trkpt><trkpt lat="37.92929" lon="15.9086917"><ele>9.0</ele><time>2026-04-12T10:17:04.972Z</time></trkpt><trkpt lat="37.9292933" lon="15.9088867"><ele>9.0</ele><time>2026-04-12T10:17:05.973Z</time></trkpt><trkpt lat="37.9292983" lon="15.9090667"><ele>9.0</ele><time>2026-04-12T10:17:06.972Z</time></trkpt><trkpt lat="37.9292733" lon="15.90923"><ele>9.0</ele><time>2026-04-12T10:17:07.973Z</time></trkpt><trkpt lat="37.9293017" lon="15.9094"><ele>9.0</ele><time>2026-04-12T10:17:08.972Z</time></trkpt><trkpt lat="37.929325" lon="15.90958"><ele>9.0</ele><time>2026-04-12T10:17:09.972Z</time></trkpt><trkpt lat="37.9293667" lon="15.9097667"><ele>9.0</ele><time>2026-04-12T10:17:10.972Z</time></trkpt><trkpt lat="37.9293783" lon="15.9099533"><ele>9.0</ele><time>2026-04-12T10:17:11.972Z</time></trkpt><trkpt lat="37.9293733" lon="15.91013"><ele>9.0</ele><time>2026-04-12T10:17:12.973Z</time></trkpt><trkpt lat="37.9293783" lon="15.9103"><ele>9.75</ele><time>2026-04-12T10:17:13.972Z</time></trkpt><trkpt lat="37.929395" lon="15.9104817"><ele>10.5</ele><time>2026-04-12T10:17:14.972Z</time></trkpt><trkpt lat="37.92942" lon="15.9106633"><ele>11.25</ele><time>2026-04-12T10:17:15.972Z</time></trkpt><trkpt lat="37.929455" lon="15.9108533"><ele>12.0</ele><time>2026-04-12T10:17:16.972Z</time></trkpt><trkpt lat="37.9294917" lon="15.91105"><ele>12.333333333333332</ele><time>2026-04-12T10:17:17.972Z</time></trkpt><trkpt lat="37.9295283" lon="15.91125"><ele>12.666666666666666</ele><time>2026-04-12T10:17:18.972Z</time></trkpt><trkpt lat="37.929575" lon="15.9114567"><ele>13.0</ele><time>2026-04-12T10:17:19.972Z</time></trkpt><trkpt lat="37.9296" lon="15.911685"><ele>13.333333333333332</ele><time>2026-04-12T10:17:20.972Z</time></trkpt><trkpt lat="37.92963" lon="15.9119183"><ele>13.666666666666668</ele><time>2026-04-12T10:17:21.973Z</time></trkpt><trkpt lat="37.9296667" lon="15.9121483"><ele>14.0</ele><time>2026-04-12T10:17:22.972Z</time></trkpt><trkpt lat="37.929715" lon="15.912375"><ele>13.333333333333334</ele><time>2026-04-12T10:17:23.972Z</time></trkpt><trkpt lat="37.92975" lon="15.9125833"><ele>12.666666666666668</ele><time>2026-04-12T10:17:24.972Z</time></trkpt><trkpt lat="37.9297933" lon="15.912785"><ele>12.0</ele><time>2026-04-12T10:17:25.972Z</time></trkpt><trkpt lat="37.9298383" lon="15.9129817"><ele>12.0</ele><time>2026-04-12T10:17:26.972Z</time></trkpt><trkpt lat="37.9298517" lon="15.9131517"><ele>12.0</ele><time>2026-04-12T10:17:27.973Z</time></trkpt><trkpt lat="37.9298983" lon="15.9133567"><ele>12.0</ele><time>2026-04-12T10:17:28.972Z</time></trkpt><trkpt lat="37.9299267" lon="15.9135433"><ele>11.75</ele><time>2026-04-12T10:17:29.973Z</time></trkpt><trkpt lat="37.92995" lon="15.9137283"><ele>11.5</ele><time>2026-04-12T10:17:30.972Z</time></trkpt><trkpt lat="37.9299867" lon="15.913895"><ele>11.25</ele><time>2026-04-12T10:17:31.972Z</time></trkpt><trkpt lat="37.930015" lon="15.91407"><ele>11.0</ele><time>2026-04-12T10:17:32.973Z</time></trkpt><trkpt lat="37.9300133" lon="15.914245"><ele>11.0</ele><time>2026-04-12T10:17:33.972Z</time></trkpt><trkpt lat="37.93007" lon="15.91441"><ele>11.0</ele><time>2026-04-12T10:17:34.972Z</time></trkpt><trkpt lat="37.9301167" lon="15.914565"><ele>11.0</ele><time>2026-04-12T10:17:35.972Z</time></trkpt><trkpt lat="37.9301533" lon="15.914725"><ele>11.0</ele><time>2026-04-12T10:17:36.972Z</time></trkpt><trkpt lat="37.9301867" lon="15.9148817"><ele>11.0</ele><time>2026-04-12T10:17:37.972Z</time></trkpt><trkpt lat="37.9302" lon="15.9150417"><ele>11.0</ele><time>2026-04-12T10:17:38.973Z</time></trkpt><trkpt lat="37.9302067" lon="15.9151967"><ele>11.0</ele><time>2026-04-12T10:17:39.972Z</time></trkpt><trkpt lat="37.93022" lon="15.9153433"><ele>11.0</ele><time>2026-04-12T10:17:40.972Z</time></trkpt><trkpt lat="37.9302333" lon="15.9154867"><ele>11.0</ele><time>2026-04-12T10:17:41.973Z</time></trkpt><trkpt lat="37.9302467" lon="15.9156433"><ele>11.0</ele><time>2026-04-12T10:17:42.972Z</time></trkpt><trkpt lat="37.93026" lon="15.9157933"><ele>11.0</ele><time>2026-04-12T10:17:43.972Z</time></trkpt><trkpt lat="37.93028" lon="15.9159483"><ele>11.0</ele><time>2026-04-12T10:17:44.972Z</time></trkpt><trkpt lat="37.9303067" lon="15.9161033"><ele>11.0</ele><time>2026-04-12T10:17:45.972Z</time></trkpt><trkpt lat="37.9303267" lon="15.9162583"><ele>11.0</ele><time>2026-04-12T10:17:46.972Z</time></trkpt><trkpt lat="37.9303383" lon="15.9163983"><ele>11.0</ele><time>2026-04-12T10:17:47.972Z</time></trkpt><trkpt lat="37.9303417" lon="15.916545"><ele>11.0</ele><time>2026-04-12T10:17:48.972Z</time></trkpt><trkpt lat="37.93036" lon="15.916705"><ele>11.0</ele><time>2026-04-12T10:17:49.972Z</time></trkpt><trkpt lat="37.930365" lon="15.916875"><ele>11.0</ele><time>2026-04-12T10:17:50.972Z</time></trkpt><trkpt lat="37.93038" lon="15.9170333"><ele>11.0</ele><time>2026-04-12T10:17:51.971Z</time></trkpt><trkpt lat="37.93039" lon="15.9172133"><ele>11.0</ele><time>2026-04-12T10:17:52.971Z</time></trkpt><trkpt lat="37.9304067" lon="15.9174083"><ele>11.0</ele><time>2026-04-12T10:17:53.971Z</time></trkpt><trkpt lat="37.930425" lon="15.9176033"><ele>11.0</ele><time>2026-04-12T10:17:54.971Z</time></trkpt><trkpt lat="37.9304517" lon="15.9177917"><ele>11.0</ele><time>2026-04-12T10:17:55.971Z</time></trkpt><trkpt lat="37.9304617" lon="15.9179883"><ele>11.0</ele><time>2026-04-12T10:17:56.971Z</time></trkpt><trkpt lat="37.9304683" lon="15.9181767"><ele>11.0</ele><time>2026-04-12T10:17:57.971Z</time></trkpt><trkpt lat="37.9304817" lon="15.9183767"><ele>11.0</ele><time>2026-04-12T10:17:58.971Z</time></trkpt><trkpt lat="37.93051" lon="15.9185767"><ele>11.666666666666666</ele><time>2026-04-12T10:17:59.971Z</time></trkpt><trkpt lat="37.930535" lon="15.9187633"><ele>12.333333333333332</ele><time>2026-04-12T10:18:00.972Z</time></trkpt><trkpt lat="37.9305467" lon="15.918965"><ele>13.0</ele><time>2026-04-12T10:18:01.971Z</time></trkpt><trkpt lat="37.9305383" lon="15.919145"><ele>13.0</ele><time>2026-04-12T10:18:02.971Z</time></trkpt><trkpt lat="37.93055" lon="15.91932"><ele>13.0</ele><time>2026-04-12T10:18:03.971Z</time></trkpt><trkpt lat="37.9305883" lon="15.9194817"><ele>13.0</ele><time>2026-04-12T10:18:04.972Z</time></trkpt><trkpt lat="37.930585" lon="15.91965"><ele>13.0</ele><time>2026-04-12T10:18:05.971Z</time></trkpt><trkpt lat="37.9305933" lon="15.91981"><ele>13.0</ele><time>2026-04-12T10:18:06.971Z</time></trkpt><trkpt lat="37.930585" lon="15.9199567"><ele>13.0</ele><time>2026-04-12T10:18:07.971Z</time></trkpt><trkpt lat="37.93058" lon="15.9201"><ele>13.0</ele><time>2026-04-12T10:18:08.971Z</time></trkpt><trkpt lat="37.9305833" lon="15.920235"><ele>13.0</ele><time>2026-04-12T10:18:09.971Z</time></trkpt><trkpt lat="37.93058" lon="15.9203667"><ele>13.0</ele><time>2026-04-12T10:18:10.972Z</time></trkpt><trkpt lat="37.9305933" lon="15.9205083"><ele>12.75</ele><time>2026-04-12T10:18:11.972Z</time></trkpt><trkpt lat="37.9306067" lon="15.92068"><ele>12.5</ele><time>2026-04-12T10:18:12.971Z</time></trkpt><trkpt lat="37.9306233" lon="15.9208617"><ele>12.25</ele><time>2026-04-12T10:18:13.972Z</time></trkpt><trkpt lat="37.930635" lon="15.9210367"><ele>12.0</ele><time>2026-04-12T10:18:14.971Z</time></trkpt><trkpt lat="37.9306317" lon="15.92124"><ele>12.0</ele><time>2026-04-12T10:18:15.971Z</time></trkpt><trkpt lat="37.9306383" lon="15.921425"><ele>12.0</ele><time>2026-04-12T10:18:16.971Z</time></trkpt><trkpt lat="37.9306417" lon="15.9216167"><ele>12.0</ele><time>2026-04-12T10:18:17.971Z</time></trkpt><trkpt lat="37.9306533" lon="15.9218183"><ele>13.0</ele><time>2026-04-12T10:18:18.971Z</time></trkpt><trkpt lat="37.9306683" lon="15.922025"><ele>14.0</ele><time>2026-04-12T10:18:19.971Z</time></trkpt><trkpt lat="37.9306767" lon="15.9222217"><ele>15.0</ele><time>2026-04-12T10:18:20.971Z</time></trkpt><trkpt lat="37.930685" lon="15.9224233"><ele>14.666666666666668</ele><time>2026-04-12T10:18:21.972Z</time></trkpt><trkpt lat="37.93069" lon="15.9226217"><ele>14.333333333333334</ele><time>2026-04-12T10:18:22.971Z</time></trkpt><trkpt lat="37.930695" lon="15.9228333"><ele>14.0</ele><time>2026-04-12T10:18:23.971Z</time></trkpt><trkpt lat="37.930715" lon="15.9230333"><ele>14.0</ele><time>2026-04-12T10:18:24.971Z</time></trkpt><trkpt lat="37.9307433" lon="15.9232417"><ele>14.0</ele><time>2026-04-12T10:18:25.971Z</time></trkpt><trkpt lat="37.930725" lon="15.9234483"><ele>14.0</ele><time>2026-04-12T10:18:26.971Z</time></trkpt><trkpt lat="37.930715" lon="15.9236467"><ele>14.666666666666668</ele><time>2026-04-12T10:18:27.971Z</time></trkpt><trkpt lat="37.93069" lon="15.92385"><ele>15.333333333333332</ele><time>2026-04-12T10:18:28.971Z</time></trkpt><trkpt lat="37.9306617" lon="15.9240417"><ele>16.0</ele><time>2026-04-12T10:18:29.971Z</time></trkpt><trkpt lat="37.9306167" lon="15.924245"><ele>16.333333333333332</ele><time>2026-04-12T10:18:30.971Z</time></trkpt><trkpt lat="37.9305717" lon="15.92446"><ele>16.666666666666668</ele><time>2026-04-12T10:18:31.971Z</time></trkpt><trkpt lat="37.9305267" lon="15.9246683"><ele>17.0</ele><time>2026-04-12T10:18:32.972Z</time></trkpt><trkpt lat="37.9304817" lon="15.924875"><ele>16.0</ele><time>2026-04-12T10:18:33.971Z</time></trkpt><trkpt lat="37.9304467" lon="15.92508"><ele>15.0</ele><time>2026-04-12T10:18:34.972Z</time></trkpt><trkpt lat="37.9304217" lon="15.9252667"><ele>14.0</ele><time>2026-04-12T10:18:35.971Z</time></trkpt><trkpt lat="37.930385" lon="15.9254117"><ele>13.0</ele><time>2026-04-12T10:18:36.972Z</time></trkpt><trkpt lat="37.93034" lon="15.9255417"><ele>13.0</ele><time>2026-04-12T10:18:37.972Z</time></trkpt><trkpt lat="37.9302767" lon="15.9256783"><ele>13.0</ele><time>2026-04-12T10:18:38.971Z</time></trkpt><trkpt lat="37.9301867" lon="15.9257917"><ele>13.0</ele><time>2026-04-12T10:18:39.971Z</time></trkpt><trkpt lat="37.930095" lon="15.9258983"><ele>13.0</ele><time>2026-04-12T10:18:40.971Z</time></trkpt><trkpt lat="37.9300267" lon="15.9260267"><ele>10.333333333333332</ele><time>2026-04-12T10:18:41.971Z</time></trkpt><trkpt lat="37.9299933" lon="15.926205"><ele>7.666666666666666</ele><time>2026-04-12T10:18:42.971Z</time></trkpt><trkpt lat="37.9299683" lon="15.9264117"><ele>5.0</ele><time>2026-04-12T10:18:43.972Z</time></trkpt><trkpt lat="37.92994" lon="15.9266267"><ele>5.666666666666667</ele><time>2026-04-12T10:18:44.971Z</time></trkpt><trkpt lat="37.9299083" lon="15.92686"><ele>6.333333333333334</ele><time>2026-04-12T10:18:45.971Z</time></trkpt><trkpt lat="37.9298667" lon="15.9270983"><ele>7.0</ele><time>2026-04-12T10:18:46.972Z</time></trkpt><trkpt lat="37.9298283" lon="15.92734"><ele>7.666666666666667</ele><time>2026-04-12T10:18:47.972Z</time></trkpt><trkpt lat="37.9297933" lon="15.9275883"><ele>8.333333333333334</ele><time>2026-04-12T10:18:48.971Z</time></trkpt><trkpt lat="37.9297533" lon="15.9278333"><ele>9.0</ele><time>2026-04-12T10:18:49.971Z</time></trkpt><trkpt lat="37.929715" lon="15.9280717"><ele>9.0</ele><time>2026-04-12T10:18:50.972Z</time></trkpt><trkpt lat="37.9296817" lon="15.92832"><ele>9.0</ele><time>2026-04-12T10:18:51.972Z</time></trkpt><trkpt lat="37.9296533" lon="15.9285733"><ele>9.0</ele><time>2026-04-12T10:18:52.971Z</time></trkpt><trkpt lat="37.9296167" lon="15.92881"><ele>9.333333333333334</ele><time>2026-04-12T10:18:53.972Z</time></trkpt><trkpt lat="37.9295817" lon="15.9290467"><ele>9.666666666666668</ele><time>2026-04-12T10:18:54.971Z</time></trkpt><trkpt lat="37.9295517" lon="15.929265"><ele>10.0</ele><time>2026-04-12T10:18:55.972Z</time></trkpt><trkpt lat="37.92952" lon="15.9294883"><ele>10.333333333333334</ele><time>2026-04-12T10:18:56.971Z</time></trkpt><trkpt lat="37.92948" lon="15.9297233"><ele>10.666666666666666</ele><time>2026-04-12T10:18:57.971Z</time></trkpt><trkpt lat="37.92944" lon="15.9299517"><ele>11.0</ele><time>2026-04-12T10:18:58.972Z</time></trkpt><trkpt lat="37.9294017" lon="15.9301833"><ele>12.666666666666666</ele><time>2026-04-12T10:18:59.971Z</time></trkpt><trkpt lat="37.9293633" lon="15.9304167"><ele>14.333333333333332</ele><time>2026-04-12T10:19:00.971Z</time></trkpt><trkpt lat="37.9293067" lon="15.93064"><ele>16.0</ele><time>2026-04-12T10:19:01.971Z</time></trkpt><trkpt lat="37.92924" lon="15.9308667"><ele>15.0</ele><time>2026-04-12T10:19:02.971Z</time></trkpt><trkpt lat="37.92918" lon="15.9310817"><ele>14.0</ele><time>2026-04-12T10:19:03.972Z</time></trkpt><trkpt lat="37.929115" lon="15.93129"><ele>13.0</ele><time>2026-04-12T10:19:04.972Z</time></trkpt><trkpt lat="37.9290483" lon="15.9314967"><ele>13.0</ele><time>2026-04-12T10:19:05.971Z</time></trkpt><trkpt lat="37.9289817" lon="15.9317017"><ele>13.0</ele><time>2026-04-12T10:19:06.971Z</time></trkpt><trkpt lat="37.9289167" lon="15.9319017"><ele>13.0</ele><time>2026-04-12T10:19:07.972Z</time></trkpt><trkpt lat="37.9288517" lon="15.93208"><ele>16.0</ele><time>2026-04-12T10:19:08.971Z</time></trkpt><trkpt lat="37.9288267" lon="15.93227"><ele>19.0</ele><time>2026-04-12T10:19:09.971Z</time></trkpt><trkpt lat="37.9288483" lon="15.9324683"><ele>22.0</ele><time>2026-04-12T10:19:10.971Z</time></trkpt><trkpt lat="37.9288617" lon="15.932645"><ele>24.666666666666664</ele><time>2026-04-12T10:19:11.971Z</time></trkpt><trkpt lat="37.9288667" lon="15.932835"><ele>27.333333333333332</ele><time>2026-04-12T10:19:12.971Z</time></trkpt><trkpt lat="37.9288217" lon="15.933015"><ele>30.0</ele><time>2026-04-12T10:19:13.971Z</time></trkpt><trkpt lat="37.9287417" lon="15.933185"><ele>30.0</ele><time>2026-04-12T10:19:14.971Z</time></trkpt><trkpt lat="37.928645" lon="15.93336"><ele>30.0</ele><time>2026-04-12T10:19:15.971Z</time></trkpt><trkpt lat="37.9285483" lon="15.9335433"><ele>30.0</ele><time>2026-04-12T10:19:16.971Z</time></trkpt><trkpt lat="37.9284367" lon="15.9337267"><ele>30.333333333333336</ele><time>2026-04-12T10:19:17.971Z</time></trkpt><trkpt lat="37.9283233" lon="15.933895"><ele>30.666666666666668</ele><time>2026-04-12T10:19:18.971Z</time></trkpt><trkpt lat="37.928205" lon="15.9340533"><ele>31.0</ele><time>2026-04-12T10:19:19.971Z</time></trkpt><trkpt lat="37.9280767" lon="15.934225"><ele>47.333333333333336</ele><time>2026-04-12T10:19:20.971Z</time></trkpt><trkpt lat="37.92796" lon="15.934395"><ele>63.66666666666667</ele><time>2026-04-12T10:19:21.972Z</time></trkpt><trkpt lat="37.9278283" lon="15.93454"><ele>80.0</ele><time>2026-04-12T10:19:22.972Z</time></trkpt><trkpt lat="37.9277033" lon="15.9346933"><ele>80.0</ele><time>2026-04-12T10:19:23.972Z</time></trkpt><trkpt lat="37.927605" lon="15.9348283"><ele>80.0</ele><time>2026-04-12T10:19:24.971Z</time></trkpt><trkpt lat="37.92752" lon="15.9349517"><ele>80.0</ele><time>2026-04-12T10:19:25.971Z</time></trkpt><trkpt lat="37.9274117" lon="15.9350133"><ele>80.0</ele><time>2026-04-12T10:19:26.971Z</time></trkpt><trkpt lat="37.9273083" lon="15.935065"><ele>76.16666666666667</ele><time>2026-04-12T10:19:27.971Z</time></trkpt><trkpt lat="37.92724" lon="15.9351367"><ele>72.33333333333334</ele><time>2026-04-12T10:19:28.971Z</time></trkpt><trkpt lat="37.9271833" lon="15.9352117"><ele>68.5</ele><time>2026-04-12T10:19:29.971Z</time></trkpt><trkpt lat="37.9271317" lon="15.9352917"><ele>64.66666666666667</ele><time>2026-04-12T10:19:30.971Z</time></trkpt><trkpt lat="37.9270833" lon="15.9353717"><ele>60.833333333333336</ele><time>2026-04-12T10:19:31.971Z</time></trkpt><trkpt lat="37.9270333" lon="15.935445"><ele>57.0</ele><time>2026-04-12T10:19:32.971Z</time></trkpt><trkpt lat="37.9269867" lon="15.935515"><ele>57.0</ele><time>2026-04-12T10:19:33.971Z</time></trkpt><trkpt lat="37.9269417" lon="15.9355783"><ele>56.99999999999999</ele><time>2026-04-12T10:19:34.971Z</time></trkpt><trkpt lat="37.9268867" lon="15.93564"><ele>57.0</ele><time>2026-04-12T10:19:35.971Z</time></trkpt><trkpt lat="37.9268183" lon="15.9356817"><ele>57.0</ele><time>2026-04-12T10:19:36.972Z</time></trkpt><trkpt lat="37.92675" lon="15.9357117"><ele>56.99999999999999</ele><time>2026-04-12T10:19:37.971Z</time></trkpt><trkpt lat="37.926675" lon="15.9357383"><ele>57.0</ele><time>2026-04-12T10:19:38.972Z</time></trkpt><trkpt lat="37.9266" lon="15.9357617"><ele>57.0</ele><time>2026-04-12T10:19:39.971Z</time></trkpt><trkpt lat="37.9265217" lon="15.9357783"><ele>52.166666666666664</ele><time>2026-04-12T10:19:40.971Z</time></trkpt><trkpt lat="37.92645" lon="15.935795"><ele>47.333333333333336</ele><time>2026-04-12T10:19:41.971Z</time></trkpt><trkpt lat="37.9263783" lon="15.9358217"><ele>42.5</ele><time>2026-04-12T10:19:42.972Z</time></trkpt><trkpt lat="37.926305" lon="15.9358467"><ele>37.66666666666667</ele><time>2026-04-12T10:19:43.972Z</time></trkpt><trkpt lat="37.9262283" lon="15.9358783"><ele>32.833333333333336</ele><time>2026-04-12T10:19:44.972Z</time></trkpt><trkpt lat="37.9261433" lon="15.93591"><ele>28.0</ele><time>2026-04-12T10:19:45.971Z</time></trkpt><trkpt lat="37.92606" lon="15.9359367"><ele>28.000000000000004</ele><time>2026-04-12T10:19:46.971Z</time></trkpt><trkpt lat="37.9259767" lon="15.9359717"><ele>28.0</ele><time>2026-04-12T10:19:47.971Z</time></trkpt><trkpt lat="37.9258967" lon="15.93601"><ele>28.0</ele><time>2026-04-12T10:19:48.972Z</time></trkpt><trkpt lat="37.9258183" lon="15.936045"><ele>28.0</ele><time>2026-04-12T10:19:49.972Z</time></trkpt><trkpt lat="37.92575" lon="15.9360683"><ele>28.000000000000004</ele><time>2026-04-12T10:19:50.972Z</time></trkpt><trkpt lat="37.9256867" lon="15.9360917"><ele>28.0</ele><time>2026-04-12T10:19:51.971Z</time></trkpt><trkpt lat="37.9255783" lon="15.936095"><ele>27.000000000000004</ele><time>2026-04-12T10:19:53.971Z</time></trkpt><trkpt lat="37.9254983" lon="15.9361283"><ele>26.0</ele><time>2026-04-12T10:20:16.971Z</time></trkpt><trkpt lat="37.925465" lon="15.936245"><ele>25.0</ele><time>2026-04-12T10:20:18.971Z</time></trkpt><trkpt lat="37.9254517" lon="15.9363267"><ele>24.0</ele><time>2026-04-12T10:20:19.971Z</time></trkpt><trkpt lat="37.9254483" lon="15.9364217"><ele>23.0</ele><time>2026-04-12T10:20:20.972Z</time></trkpt><trkpt lat="37.9254667" lon="15.936575"><ele>22.0</ele><time>2026-04-12T10:20:22.971Z</time></trkpt><trkpt lat="37.9255017" lon="15.936645"><ele>22.0</ele><time>2026-04-12T10:20:23.972Z</time></trkpt><trkpt lat="37.9255567" lon="15.9366967"><ele>22.0</ele><time>2026-04-12T10:20:24.971Z</time></trkpt><trkpt lat="37.925635" lon="15.9367367"><ele>22.0</ele><time>2026-04-12T10:20:25.971Z</time></trkpt><trkpt lat="37.92573" lon="15.9367567"><ele>22.0</ele><time>2026-04-12T10:20:26.971Z</time></trkpt><trkpt lat="37.9258417" lon="15.9367583"><ele>22.0</ele><time>2026-04-12T10:20:27.972Z</time></trkpt><trkpt lat="37.925955" lon="15.93675"><ele>23.200000000000003</ele><time>2026-04-12T10:20:28.971Z</time></trkpt><trkpt lat="37.926065" lon="15.9367367"><ele>24.4</ele><time>2026-04-12T10:20:29.971Z</time></trkpt><trkpt lat="37.9261617" lon="15.9367067"><ele>25.599999999999998</ele><time>2026-04-12T10:20:30.972Z</time></trkpt><trkpt lat="37.92625" lon="15.93666"><ele>26.799999999999997</ele><time>2026-04-12T10:20:31.971Z</time></trkpt><trkpt lat="37.9263317" lon="15.936605"><ele>28.0</ele><time>2026-04-12T10:20:32.972Z</time></trkpt><trkpt lat="37.9264183" lon="15.9365567"><ele>28.000000000000004</ele><time>2026-04-12T10:20:33.971Z</time></trkpt><trkpt lat="37.926505" lon="15.9365117"><ele>28.0</ele><time>2026-04-12T10:20:34.972Z</time></trkpt><trkpt lat="37.9266017" lon="15.9364867"><ele>28.0</ele><time>2026-04-12T10:20:35.971Z</time></trkpt><trkpt lat="37.92668" lon="15.9364817"><ele>28.0</ele><time>2026-04-12T10:20:36.971Z</time></trkpt><trkpt lat="37.9267517" lon="15.9365017"><ele>28.000000000000004</ele><time>2026-04-12T10:20:37.971Z</time></trkpt><trkpt lat="37.9268117" lon="15.9365517"><ele>28.0</ele><time>2026-04-12T10:20:38.971Z</time></trkpt><trkpt lat="37.926845" lon="15.9366283"><ele>31.5</ele><time>2026-04-12T10:20:39.971Z</time></trkpt><trkpt lat="37.926835" lon="15.9367317"><ele>35.0</ele><time>2026-04-12T10:20:40.971Z</time></trkpt><trkpt lat="37.9268" lon="15.9368567"><ele>38.5</ele><time>2026-04-12T10:20:41.971Z</time></trkpt><trkpt lat="37.926715" lon="15.9369867"><ele>42.0</ele><time>2026-04-12T10:20:42.971Z</time></trkpt><trkpt lat="37.9266067" lon="15.9371167"><ele>42.0</ele><time>2026-04-12T10:20:43.971Z</time></trkpt><trkpt lat="37.9264583" lon="15.9372183"><ele>42.0</ele><time>2026-04-12T10:20:44.971Z</time></trkpt><trkpt lat="37.9262983" lon="15.9372817"><ele>42.0</ele><time>2026-04-12T10:20:45.971Z</time></trkpt><trkpt lat="37.9261633" lon="15.9373333"><ele>42.0</ele><time>2026-04-12T10:20:46.971Z</time></trkpt><trkpt lat="37.9260433" lon="15.9373567"><ele>42.0</ele><time>2026-04-12T10:20:47.971Z</time></trkpt><trkpt lat="37.925925" lon="15.9374017"><ele>42.0</ele><time>2026-04-12T10:20:48.972Z</time></trkpt><trkpt lat="37.925815" lon="15.93746"><ele>42.0</ele><time>2026-04-12T10:20:49.971Z</time></trkpt><trkpt lat="37.9257183" lon="15.9375483"><ele>37.0</ele><time>2026-04-12T10:20:50.971Z</time></trkpt><trkpt lat="37.9256283" lon="15.9376617"><ele>32.0</ele><time>2026-04-12T10:20:51.971Z</time></trkpt><trkpt lat="37.92555" lon="15.9377867"><ele>27.0</ele><time>2026-04-12T10:20:52.971Z</time></trkpt><trkpt lat="37.9254883" lon="15.9379167"><ele>22.0</ele><time>2026-04-12T10:20:53.972Z</time></trkpt><trkpt lat="37.9254383" lon="15.9380583"><ele>22.0</ele><time>2026-04-12T10:20:54.971Z</time></trkpt><trkpt lat="37.9253983" lon="15.9382217"><ele>22.0</ele><time>2026-04-12T10:20:55.972Z</time></trkpt><trkpt lat="37.9253583" lon="15.9383833"><ele>22.0</ele><time>2026-04-12T10:20:56.971Z</time></trkpt><trkpt lat="37.9253267" lon="15.9385483"><ele>22.0</ele><time>2026-04-12T10:20:57.971Z</time></trkpt><trkpt lat="37.9252983" lon="15.9387167"><ele>24.75</ele><time>2026-04-12T10:20:58.971Z</time></trkpt><trkpt lat="37.9252733" lon="15.938885"><ele>27.5</ele><time>2026-04-12T10:20:59.972Z</time></trkpt><trkpt lat="37.9252433" lon="15.9390617"><ele>30.25</ele><time>2026-04-12T10:21:00.971Z</time></trkpt><trkpt lat="37.925235" lon="15.93924"><ele>33.0</ele><time>2026-04-12T10:21:01.972Z</time></trkpt><trkpt lat="37.9252333" lon="15.9394133"><ele>33.75</ele><time>2026-04-12T10:21:02.971Z</time></trkpt><trkpt lat="37.9252533" lon="15.93959"><ele>34.5</ele><time>2026-04-12T10:21:03.971Z</time></trkpt><trkpt lat="37.9252783" lon="15.9397617"><ele>35.25</ele><time>2026-04-12T10:21:04.971Z</time></trkpt><trkpt lat="37.9253083" lon="15.9399333"><ele>36.0</ele><time>2026-04-12T10:21:05.971Z</time></trkpt><trkpt lat="37.9253383" lon="15.9401083"><ele>33.5</ele><time>2026-04-12T10:21:06.971Z</time></trkpt><trkpt lat="37.925375" lon="15.9402883"><ele>31.0</ele><time>2026-04-12T10:21:07.972Z</time></trkpt><trkpt lat="37.925405" lon="15.940465"><ele>28.5</ele><time>2026-04-12T10:21:08.972Z</time></trkpt><trkpt lat="37.9254383" lon="15.9406417"><ele>26.0</ele><time>2026-04-12T10:21:09.971Z</time></trkpt><trkpt lat="37.925465" lon="15.940825"><ele>22.25</ele><time>2026-04-12T10:21:10.971Z</time></trkpt><trkpt lat="37.92549" lon="15.9409967"><ele>18.5</ele><time>2026-04-12T10:21:11.971Z</time></trkpt><trkpt lat="37.92552" lon="15.94118"><ele>14.75</ele><time>2026-04-12T10:21:12.971Z</time></trkpt><trkpt lat="37.9255533" lon="15.941355"><ele>11.0</ele><time>2026-04-12T10:21:13.971Z</time></trkpt><trkpt lat="37.9255833" lon="15.9415233"><ele>11.0</ele><time>2026-04-12T10:21:14.972Z</time></trkpt><trkpt lat="37.9256167" lon="15.9416883"><ele>11.0</ele><time>2026-04-12T10:21:15.971Z</time></trkpt><trkpt lat="37.9256417" lon="15.94185"><ele>11.0</ele><time>2026-04-12T10:21:16.972Z</time></trkpt><trkpt lat="37.9256467" lon="15.94202"><ele>11.0</ele><time>2026-04-12T10:21:17.971Z</time></trkpt><trkpt lat="37.9256367" lon="15.9421917"><ele>12.25</ele><time>2026-04-12T10:21:18.971Z</time></trkpt><trkpt lat="37.9256033" lon="15.9423667"><ele>13.5</ele><time>2026-04-12T10:21:19.971Z</time></trkpt><trkpt lat="37.925555" lon="15.9425283"><ele>14.75</ele><time>2026-04-12T10:21:20.971Z</time></trkpt><trkpt lat="37.9255017" lon="15.9426917"><ele>16.0</ele><time>2026-04-12T10:21:21.971Z</time></trkpt><trkpt lat="37.92544" lon="15.9428533"><ele>18.666666666666664</ele><time>2026-04-12T10:21:22.971Z</time></trkpt><trkpt lat="37.9253667" lon="15.9430267"><ele>21.333333333333332</ele><time>2026-04-12T10:21:23.972Z</time></trkpt><trkpt lat="37.925295" lon="15.9431967"><ele>24.0</ele><time>2026-04-12T10:21:24.971Z</time></trkpt><trkpt lat="37.9252117" lon="15.9433517"><ele>25.5</ele><time>2026-04-12T10:21:25.971Z</time></trkpt><trkpt lat="37.92513" lon="15.9435133"><ele>27.0</ele><time>2026-04-12T10:21:26.971Z</time></trkpt><trkpt lat="37.925055" lon="15.9436733"><ele>28.5</ele><time>2026-04-12T10:21:27.971Z</time></trkpt><trkpt lat="37.9249933" lon="15.943835"><ele>30.0</ele><time>2026-04-12T10:21:28.971Z</time></trkpt><trkpt lat="37.9249567" lon="15.9440217"><ele>25.5</ele><time>2026-04-12T10:21:29.972Z</time></trkpt><trkpt lat="37.92493" lon="15.9442017"><ele>21.0</ele><time>2026-04-12T10:21:30.971Z</time></trkpt><trkpt lat="37.9249083" lon="15.9443867"><ele>16.5</ele><time>2026-04-12T10:21:31.971Z</time></trkpt><trkpt lat="37.9248833" lon="15.9445783"><ele>12.0</ele><time>2026-04-12T10:21:32.971Z</time></trkpt><trkpt lat="37.924865" lon="15.9447683"><ele>12.0</ele><time>2026-04-12T10:21:33.972Z</time></trkpt><trkpt lat="37.924845" lon="15.94496"><ele>12.0</ele><time>2026-04-12T10:21:34.971Z</time></trkpt><trkpt lat="37.9248283" lon="15.9451483"><ele>12.0</ele><time>2026-04-12T10:21:35.971Z</time></trkpt><trkpt lat="37.924815" lon="15.94534"><ele>12.0</ele><time>2026-04-12T10:21:36.971Z</time></trkpt><trkpt lat="37.924795" lon="15.94554"><ele>12.0</ele><time>2026-04-12T10:21:37.971Z</time></trkpt><trkpt lat="37.92477" lon="15.9457233"><ele>12.0</ele><time>2026-04-12T10:21:38.972Z</time></trkpt><trkpt lat="37.9247483" lon="15.9459067"><ele>12.5</ele><time>2026-04-12T10:21:39.971Z</time></trkpt><trkpt lat="37.92473" lon="15.9460833"><ele>13.0</ele><time>2026-04-12T10:21:40.971Z</time></trkpt><trkpt lat="37.924705" lon="15.9462667"><ele>13.5</ele><time>2026-04-12T10:21:41.971Z</time></trkpt><trkpt lat="37.9246867" lon="15.9464433"><ele>14.0</ele><time>2026-04-12T10:21:42.971Z</time></trkpt><trkpt lat="37.9246633" lon="15.9466267"><ele>14.5</ele><time>2026-04-12T10:21:43.972Z</time></trkpt><trkpt lat="37.9246467" lon="15.946815"><ele>15.0</ele><time>2026-04-12T10:21:44.972Z</time></trkpt><trkpt lat="37.9246333" lon="15.947"><ele>15.5</ele><time>2026-04-12T10:21:45.971Z</time></trkpt><trkpt lat="37.9246183" lon="15.9471867"><ele>16.0</ele><time>2026-04-12T10:21:46.972Z</time></trkpt><trkpt lat="37.9246017" lon="15.9473817"><ele>15.0</ele><time>2026-04-12T10:21:47.971Z</time></trkpt><trkpt lat="37.9245917" lon="15.94758"><ele>14.0</ele><time>2026-04-12T10:21:48.971Z</time></trkpt><trkpt lat="37.924575" lon="15.9477717"><ele>13.0</ele><time>2026-04-12T10:21:49.971Z</time></trkpt><trkpt lat="37.9245583" lon="15.9479633"><ele>13.0</ele><time>2026-04-12T10:21:50.972Z</time></trkpt><trkpt lat="37.9245417" lon="15.9481633"><ele>13.0</ele><time>2026-04-12T10:21:51.971Z</time></trkpt><trkpt lat="37.9245167" lon="15.9483533"><ele>13.0</ele><time>2026-04-12T10:21:52.971Z</time></trkpt><trkpt lat="37.9244933" lon="15.9485583"><ele>11.666666666666666</ele><time>2026-04-12T10:21:53.971Z</time></trkpt><trkpt lat="37.92447" lon="15.9487583"><ele>10.333333333333332</ele><time>2026-04-12T10:21:54.971Z</time></trkpt><trkpt lat="37.9244383" lon="15.9489583"><ele>9.0</ele><time>2026-04-12T10:21:55.971Z</time></trkpt><trkpt lat="37.9244083" lon="15.9491667"><ele>8.666666666666666</ele><time>2026-04-12T10:21:56.971Z</time></trkpt><trkpt lat="37.9243667" lon="15.9493633"><ele>8.333333333333332</ele><time>2026-04-12T10:21:57.971Z</time></trkpt><trkpt lat="37.9243217" lon="15.9495633"><ele>8.0</ele><time>2026-04-12T10:21:58.971Z</time></trkpt><trkpt lat="37.9242617" lon="15.9497633"><ele>7.666666666666666</ele><time>2026-04-12T10:21:59.971Z</time></trkpt><trkpt lat="37.92419" lon="15.9499483"><ele>7.333333333333334</ele><time>2026-04-12T10:22:00.971Z</time></trkpt><trkpt lat="37.9241183" lon="15.9501467"><ele>7.0</ele><time>2026-04-12T10:22:01.971Z</time></trkpt><trkpt lat="37.9240467" lon="15.95034"><ele>7.0</ele><time>2026-04-12T10:22:02.972Z</time></trkpt><trkpt lat="37.9239767" lon="15.9505333"><ele>7.0</ele><time>2026-04-12T10:22:03.971Z</time></trkpt><trkpt lat="37.9239133" lon="15.9507233"><ele>7.0</ele><time>2026-04-12T10:22:04.972Z</time></trkpt><trkpt lat="37.923845" lon="15.9509167"><ele>7.666666666666667</ele><time>2026-04-12T10:22:05.971Z</time></trkpt><trkpt lat="37.92378" lon="15.9511017"><ele>8.333333333333334</ele><time>2026-04-12T10:22:06.971Z</time></trkpt><trkpt lat="37.923715" lon="15.9512883"><ele>9.0</ele><time>2026-04-12T10:22:07.971Z</time></trkpt><trkpt lat="37.923655" lon="15.951475"><ele>9.0</ele><time>2026-04-12T10:22:08.971Z</time></trkpt><trkpt lat="37.9235917" lon="15.95166"><ele>9.0</ele><time>2026-04-12T10:22:09.972Z</time></trkpt><trkpt lat="37.92353" lon="15.951845"><ele>9.0</ele><time>2026-04-12T10:22:10.971Z</time></trkpt><trkpt lat="37.9234617" lon="15.9520283"><ele>8.666666666666666</ele><time>2026-04-12T10:22:11.971Z</time></trkpt><trkpt lat="37.9233917" lon="15.9522117"><ele>8.333333333333332</ele><time>2026-04-12T10:22:12.971Z</time></trkpt><trkpt lat="37.923325" lon="15.95239"><ele>8.0</ele><time>2026-04-12T10:22:13.971Z</time></trkpt><trkpt lat="37.9232717" lon="15.9525717"><ele>8.0</ele><time>2026-04-12T10:22:14.971Z</time></trkpt><trkpt lat="37.9232217" lon="15.9527617"><ele>8.0</ele><time>2026-04-12T10:22:15.971Z</time></trkpt><trkpt lat="37.9231717" lon="15.9529683"><ele>8.0</ele><time>2026-04-12T10:22:16.971Z</time></trkpt><trkpt lat="37.9231317" lon="15.9531683"><ele>8.0</ele><time>2026-04-12T10:22:17.971Z</time></trkpt><trkpt lat="37.92309" lon="15.9533583"><ele>8.0</ele><time>2026-04-12T10:22:18.972Z</time></trkpt><trkpt lat="37.9230467" lon="15.9535383"><ele>8.0</ele><time>2026-04-12T10:22:19.971Z</time></trkpt><trkpt lat="37.9229983" lon="15.9537033"><ele>8.0</ele><time>2026-04-12T10:22:20.972Z</time></trkpt><trkpt lat="37.92294" lon="15.953845"><ele>8.25</ele><time>2026-04-12T10:22:21.972Z</time></trkpt><trkpt lat="37.9228817" lon="15.9539933"><ele>8.5</ele><time>2026-04-12T10:22:22.971Z</time></trkpt><trkpt lat="37.9228167" lon="15.95414"><ele>8.75</ele><time>2026-04-12T10:22:23.971Z</time></trkpt><trkpt lat="37.9227433" lon="15.954285"><ele>9.0</ele><time>2026-04-12T10:22:24.971Z</time></trkpt><trkpt lat="37.9226767" lon="15.95443"><ele>9.0</ele><time>2026-04-12T10:22:25.971Z</time></trkpt><trkpt lat="37.9225983" lon="15.9545767"><ele>9.0</ele><time>2026-04-12T10:22:26.971Z</time></trkpt><trkpt lat="37.9225233" lon="15.9547367"><ele>9.0</ele><time>2026-04-12T10:22:27.972Z</time></trkpt><trkpt lat="37.92245" lon="15.954905"><ele>9.0</ele><time>2026-04-12T10:22:28.971Z</time></trkpt><trkpt lat="37.922375" lon="15.9550817"><ele>9.0</ele><time>2026-04-12T10:22:29.972Z</time></trkpt><trkpt lat="37.9223" lon="15.9552633"><ele>9.0</ele><time>2026-04-12T10:22:30.971Z</time></trkpt><trkpt lat="37.9222267" lon="15.95543"><ele>9.0</ele><time>2026-04-12T10:22:31.972Z</time></trkpt><trkpt lat="37.9221533" lon="15.9556017"><ele>9.0</ele><time>2026-04-12T10:22:32.972Z</time></trkpt><trkpt lat="37.922075" lon="15.9557717"><ele>9.0</ele><time>2026-04-12T10:22:33.971Z</time></trkpt><trkpt lat="37.921995" lon="15.95594"><ele>9.0</ele><time>2026-04-12T10:22:34.971Z</time></trkpt><trkpt lat="37.9219133" lon="15.9561117"><ele>8.666666666666666</ele><time>2026-04-12T10:22:35.972Z</time></trkpt><trkpt lat="37.921845" lon="15.9562867"><ele>8.333333333333332</ele><time>2026-04-12T10:22:36.971Z</time></trkpt><trkpt lat="37.9217817" lon="15.9564583"><ele>8.0</ele><time>2026-04-12T10:22:37.972Z</time></trkpt><trkpt lat="37.92172" lon="15.956635"><ele>7.333333333333333</ele><time>2026-04-12T10:22:38.972Z</time></trkpt><trkpt lat="37.9216517" lon="15.95681"><ele>6.666666666666666</ele><time>2026-04-12T10:22:39.972Z</time></trkpt><trkpt lat="37.9215867" lon="15.956985"><ele>6.0</ele><time>2026-04-12T10:22:40.971Z</time></trkpt><trkpt lat="37.9215217" lon="15.9571517"><ele>6.0</ele><time>2026-04-12T10:22:41.971Z</time></trkpt><trkpt lat="37.9214567" lon="15.9573117"><ele>6.0</ele><time>2026-04-12T10:22:42.971Z</time></trkpt><trkpt lat="37.921395" lon="15.9574733"><ele>6.0</ele><time>2026-04-12T10:22:43.971Z</time></trkpt><trkpt lat="37.9213383" lon="15.9576267"><ele>6.0</ele><time>2026-04-12T10:22:44.972Z</time></trkpt><trkpt lat="37.9212817" lon="15.95778"><ele>6.5</ele><time>2026-04-12T10:22:45.971Z</time></trkpt><trkpt lat="37.9212183" lon="15.9579283"><ele>7.0</ele><time>2026-04-12T10:22:46.972Z</time></trkpt><trkpt lat="37.9211583" lon="15.9580733"><ele>7.5</ele><time>2026-04-12T10:22:47.972Z</time></trkpt><trkpt lat="37.9210967" lon="15.9582233"><ele>8.0</ele><time>2026-04-12T10:22:48.971Z</time></trkpt><trkpt lat="37.9210483" lon="15.95837"><ele>7.800000000000001</ele><time>2026-04-12T10:22:49.971Z</time></trkpt><trkpt lat="37.9209967" lon="15.9585067"><ele>7.6000000000000005</ele><time>2026-04-12T10:22:50.971Z</time></trkpt><trkpt lat="37.920945" lon="15.9586417"><ele>7.3999999999999995</ele><time>2026-04-12T10:22:51.971Z</time></trkpt><trkpt lat="37.9209033" lon="15.958765"><ele>7.199999999999999</ele><time>2026-04-12T10:22:52.972Z</time></trkpt><trkpt lat="37.9208633" lon="15.95888"><ele>7.0</ele><time>2026-04-12T10:22:53.971Z</time></trkpt><trkpt lat="37.9208217" lon="15.958995"><ele>7.000000000000001</ele><time>2026-04-12T10:22:54.971Z</time></trkpt><trkpt lat="37.9207783" lon="15.9590967"><ele>7.0</ele><time>2026-04-12T10:22:55.971Z</time></trkpt><trkpt lat="37.92074" lon="15.959205"><ele>7.0</ele><time>2026-04-12T10:22:56.971Z</time></trkpt><trkpt lat="37.9207217" lon="15.9592917"><ele>7.0</ele><time>2026-04-12T10:22:57.972Z</time></trkpt><trkpt lat="37.9207217" lon="15.95939"><ele>7.000000000000001</ele><time>2026-04-12T10:22:58.971Z</time></trkpt><trkpt lat="37.9207467" lon="15.959495"><ele>7.0</ele><time>2026-04-12T10:22:59.971Z</time></trkpt><trkpt lat="37.9208" lon="15.9595967"><ele>7.25</ele><time>2026-04-12T10:23:00.971Z</time></trkpt><trkpt lat="37.92086" lon="15.959705"><ele>7.5</ele><time>2026-04-12T10:23:01.971Z</time></trkpt><trkpt lat="37.9209617" lon="15.9598517"><ele>7.75</ele><time>2026-04-12T10:23:02.971Z</time></trkpt><trkpt lat="37.92106" lon="15.9600167"><ele>8.0</ele><time>2026-04-12T10:23:03.972Z</time></trkpt><trkpt lat="37.9211517" lon="15.9601517"><ele>9.8</ele><time>2026-04-12T10:23:04.971Z</time></trkpt><trkpt lat="37.9212267" lon="15.96027"><ele>11.600000000000001</ele><time>2026-04-12T10:23:05.971Z</time></trkpt><trkpt lat="37.9212833" lon="15.9603767"><ele>13.399999999999999</ele><time>2026-04-12T10:23:06.971Z</time></trkpt><trkpt lat="37.921315" lon="15.96048"><ele>15.2</ele><time>2026-04-12T10:23:07.971Z</time></trkpt><trkpt lat="37.9213167" lon="15.9606067"><ele>17.0</ele><time>2026-04-12T10:23:08.971Z</time></trkpt><trkpt lat="37.92129" lon="15.960725"><ele>17.0</ele><time>2026-04-12T10:23:09.971Z</time></trkpt><trkpt lat="37.9212383" lon="15.9608317"><ele>17.0</ele><time>2026-04-12T10:23:10.971Z</time></trkpt><trkpt lat="37.9211567" lon="15.9609383"><ele>17.0</ele><time>2026-04-12T10:23:11.972Z</time></trkpt><trkpt lat="37.9210633" lon="15.9610383"><ele>17.0</ele><time>2026-04-12T10:23:12.972Z</time></trkpt><trkpt lat="37.9209483" lon="15.961135"><ele>16.0</ele><time>2026-04-12T10:23:13.971Z</time></trkpt><trkpt lat="37.9208367" lon="15.961235"><ele>15.0</ele><time>2026-04-12T10:23:14.972Z</time></trkpt><trkpt lat="37.9207317" lon="15.96133"><ele>14.0</ele><time>2026-04-12T10:23:15.971Z</time></trkpt><trkpt lat="37.92063" lon="15.9614283"><ele>13.0</ele><time>2026-04-12T10:23:16.971Z</time></trkpt><trkpt lat="37.9205367" lon="15.9615283"><ele>13.0</ele><time>2026-04-12T10:23:17.971Z</time></trkpt><trkpt lat="37.9204367" lon="15.9616383"><ele>13.0</ele><time>2026-04-12T10:23:18.971Z</time></trkpt><trkpt lat="37.9203583" lon="15.9617583"><ele>13.0</ele><time>2026-04-12T10:23:19.971Z</time></trkpt><trkpt lat="37.92027" lon="15.9618717"><ele>13.0</ele><time>2026-04-12T10:23:20.971Z</time></trkpt><trkpt lat="37.9201817" lon="15.9619767"><ele>11.5</ele><time>2026-04-12T10:23:21.972Z</time></trkpt><trkpt lat="37.9200367" lon="15.9624217"><ele>10.0</ele><time>2026-04-12T10:23:24.971Z</time></trkpt><trkpt lat="37.9199983" lon="15.9626067"><ele>10.0</ele><time>2026-04-12T10:23:25.971Z</time></trkpt><trkpt lat="37.9199567" lon="15.9627767"><ele>10.0</ele><time>2026-04-12T10:23:26.972Z</time></trkpt><trkpt lat="37.9199167" lon="15.9629483"><ele>10.0</ele><time>2026-04-12T10:23:27.971Z</time></trkpt><trkpt lat="37.9198833" lon="15.9631283"><ele>10.0</ele><time>2026-04-12T10:23:28.971Z</time></trkpt><trkpt lat="37.9198467" lon="15.9633333"><ele>13.0</ele><time>2026-04-12T10:23:29.972Z</time></trkpt><trkpt lat="37.9198167" lon="15.9635583"><ele>16.0</ele><time>2026-04-12T10:23:30.971Z</time></trkpt><trkpt lat="37.91979" lon="15.9638017"><ele>19.0</ele><time>2026-04-12T10:23:31.972Z</time></trkpt><trkpt lat="37.9197667" lon="15.9640583"><ele>21.666666666666664</ele><time>2026-04-12T10:23:32.972Z</time></trkpt><trkpt lat="37.9197383" lon="15.9643267"><ele>24.333333333333332</ele><time>2026-04-12T10:23:33.971Z</time></trkpt><trkpt lat="37.9197067" lon="15.9646117"><ele>27.0</ele><time>2026-04-12T10:23:34.971Z</time></trkpt><trkpt lat="37.919675" lon="15.9649083"><ele>29.5</ele><time>2026-04-12T10:23:35.971Z</time></trkpt><trkpt lat="37.919655" lon="15.9652267"><ele>32.0</ele><time>2026-04-12T10:23:36.971Z</time></trkpt><trkpt lat="37.9196467" lon="15.9655667"><ele>29.0</ele><time>2026-04-12T10:23:37.972Z</time></trkpt><trkpt lat="37.919645" lon="15.9659317"><ele>26.0</ele><time>2026-04-12T10:23:38.972Z</time></trkpt><trkpt lat="37.91965" lon="15.9663217"><ele>23.0</ele><time>2026-04-12T10:23:39.972Z</time></trkpt><trkpt lat="37.9196633" lon="15.9667433"><ele>20.0</ele><time>2026-04-12T10:23:40.971Z</time></trkpt><trkpt lat="37.91974" lon="15.9674017"><ele>16.0</ele><time>2026-04-12T10:23:41.971Z</time></trkpt><trkpt lat="37.9198117" lon="15.968095"><ele>18.0</ele><time>2026-04-12T10:23:42.971Z</time></trkpt><trkpt lat="37.919935" lon="15.9688017"><ele>13.0</ele><time>2026-04-12T10:23:43.971Z</time></trkpt><trkpt lat="37.9200583" lon="15.9695367"><ele>27.0</ele><time>2026-04-12T10:23:44.971Z</time></trkpt><trkpt lat="37.9201167" lon="15.9700967"><ele>41.0</ele><time>2026-04-12T10:23:45.971Z</time></trkpt><trkpt lat="37.9201683" lon="15.9705217"><ele>35.5</ele><time>2026-04-12T10:23:46.971Z</time></trkpt><trkpt lat="37.9202267" lon="15.970895"><ele>30.0</ele><time>2026-04-12T10:23:47.972Z</time></trkpt><trkpt lat="37.9202717" lon="15.9712533"><ele>30.0</ele><time>2026-04-12T10:23:48.971Z</time></trkpt><trkpt lat="37.92031" lon="15.9715983"><ele>30.0</ele><time>2026-04-12T10:23:49.972Z</time></trkpt><trkpt lat="37.92034" lon="15.9719417"><ele>30.0</ele><time>2026-04-12T10:23:50.971Z</time></trkpt><trkpt lat="37.9203567" lon="15.97227"><ele>30.0</ele><time>2026-04-12T10:23:51.971Z</time></trkpt><trkpt lat="37.9203667" lon="15.97258"><ele>33.0</ele><time>2026-04-12T10:23:52.971Z</time></trkpt><trkpt lat="37.920385" lon="15.9728867"><ele>36.0</ele><time>2026-04-12T10:23:53.971Z</time></trkpt><trkpt lat="37.9203733" lon="15.9731967"><ele>41.0</ele><time>2026-04-12T10:23:54.971Z</time></trkpt><trkpt lat="37.920335" lon="15.9735033"><ele>46.0</ele><time>2026-04-12T10:23:55.971Z</time></trkpt><trkpt lat="37.9202917" lon="15.973815"><ele>46.0</ele><time>2026-04-12T10:23:56.971Z</time></trkpt><trkpt lat="37.9202583" lon="15.9741"><ele>46.0</ele><time>2026-04-12T10:23:57.972Z</time></trkpt><trkpt lat="37.9202267" lon="15.9743667"><ele>46.0</ele><time>2026-04-12T10:23:58.972Z</time></trkpt><trkpt lat="37.9201883" lon="15.974615"><ele>48.333333333333336</ele><time>2026-04-12T10:23:59.971Z</time></trkpt><trkpt lat="37.9201633" lon="15.974845"><ele>50.66666666666667</ele><time>2026-04-12T10:24:00.971Z</time></trkpt><trkpt lat="37.9201483" lon="15.975055"><ele>53.0</ele><time>2026-04-12T10:24:01.971Z</time></trkpt><trkpt lat="37.9201367" lon="15.9752667"><ele>55.0</ele><time>2026-04-12T10:24:02.971Z</time></trkpt><trkpt lat="37.9201017" lon="15.9754883"><ele>57.0</ele><time>2026-04-12T10:24:03.971Z</time></trkpt><trkpt lat="37.9200733" lon="15.975715"><ele>59.0</ele><time>2026-04-12T10:24:04.971Z</time></trkpt><trkpt lat="37.9200317" lon="15.975945"><ele>46.333333333333336</ele><time>2026-04-12T10:24:05.971Z</time></trkpt><trkpt lat="37.9199833" lon="15.9761783"><ele>33.66666666666667</ele><time>2026-04-12T10:24:06.971Z</time></trkpt><trkpt lat="37.9199217" lon="15.97641"><ele>21.0</ele><time>2026-04-12T10:24:07.971Z</time></trkpt><trkpt lat="37.9198483" lon="15.9766483"><ele>23.333333333333336</ele><time>2026-04-12T10:24:08.971Z</time></trkpt><trkpt lat="37.9197667" lon="15.9768883"><ele>25.666666666666668</ele><time>2026-04-12T10:24:09.972Z</time></trkpt><trkpt lat="37.9196817" lon="15.9771317"><ele>28.0</ele><time>2026-04-12T10:24:10.972Z</time></trkpt><trkpt lat="37.9196183" lon="15.9773883"><ele>27.0</ele><time>2026-04-12T10:24:11.971Z</time></trkpt><trkpt lat="37.9195617" lon="15.977655"><ele>26.0</ele><time>2026-04-12T10:24:12.971Z</time></trkpt><trkpt lat="37.9195267" lon="15.9779183"><ele>25.0</ele><time>2026-04-12T10:24:13.971Z</time></trkpt><trkpt lat="37.9194917" lon="15.9781867"><ele>23.0</ele><time>2026-04-12T10:24:14.972Z</time></trkpt><trkpt lat="37.91948" lon="15.9784333"><ele>21.0</ele><time>2026-04-12T10:24:15.971Z</time></trkpt><trkpt lat="37.91947" lon="15.97867"><ele>19.0</ele><time>2026-04-12T10:24:16.972Z</time></trkpt><trkpt lat="37.9194567" lon="15.9788683"><ele>19.0</ele><time>2026-04-12T10:24:17.971Z</time></trkpt><trkpt lat="37.919445" lon="15.9790583"><ele>19.0</ele><time>2026-04-12T10:24:18.971Z</time></trkpt><trkpt lat="37.919435" lon="15.979235"><ele>19.0</ele><time>2026-04-12T10:24:19.971Z</time></trkpt><trkpt lat="37.919415" lon="15.9793917"><ele>19.0</ele><time>2026-04-12T10:24:20.971Z</time></trkpt><trkpt lat="37.9194033" lon="15.97952"><ele>18.333333333333332</ele><time>2026-04-12T10:24:21.971Z</time></trkpt><trkpt lat="37.9193933" lon="15.9796083"><ele>17.666666666666664</ele><time>2026-04-12T10:24:22.971Z</time></trkpt><trkpt lat="37.9193517" lon="15.9796883"><ele>17.0</ele><time>2026-04-12T10:24:24.971Z</time></trkpt><trkpt lat="37.9192617" lon="15.9796767"><ele>16.333333333333332</ele><time>2026-04-12T10:24:27.971Z</time></trkpt><trkpt lat="37.9191883" lon="15.9796317"><ele>15.666666666666666</ele><time>2026-04-12T10:24:29.971Z</time></trkpt><trkpt lat="37.9191683" lon="15.9795533"><ele>15.0</ele><time>2026-04-12T10:24:31.971Z</time></trkpt><trkpt lat="37.9191967" lon="15.9794633"><ele>15.0</ele><time>2026-04-12T10:24:34.971Z</time></trkpt><trkpt lat="37.9192267" lon="15.9793917"><ele>15.0</ele><time>2026-04-12T10:24:38.971Z</time></trkpt><trkpt lat="37.9192567" lon="15.979275"><ele>15.0</ele><time>2026-04-12T10:24:52.972Z</time></trkpt><trkpt lat="37.9192717" lon="15.979185"><ele>15.0</ele><time>2026-04-12T10:24:53.972Z</time></trkpt><trkpt lat="37.9192867" lon="15.9790633"><ele>15.0</ele><time>2026-04-12T10:24:54.971Z</time></trkpt><trkpt lat="37.9193033" lon="15.9789083"><ele>16.0</ele><time>2026-04-12T10:24:55.971Z</time></trkpt><trkpt lat="37.919315" lon="15.9787283"><ele>17.0</ele><time>2026-04-12T10:24:56.972Z</time></trkpt><trkpt lat="37.9193267" lon="15.9785517"><ele>18.0</ele><time>2026-04-12T10:24:57.971Z</time></trkpt><trkpt lat="37.9193383" lon="15.9783917"><ele>19.0</ele><time>2026-04-12T10:24:58.971Z</time></trkpt><trkpt lat="37.9193517" lon="15.9782533"><ele>20.0</ele><time>2026-04-12T10:24:59.971Z</time></trkpt><trkpt lat="37.9193633" lon="15.978135"><ele>21.0</ele><time>2026-04-12T10:25:00.972Z</time></trkpt><trkpt lat="37.9193717" lon="15.9780333"><ele>22.0</ele><time>2026-04-12T10:25:01.971Z</time></trkpt><trkpt lat="37.9193867" lon="15.9779417"><ele>23.0</ele><time>2026-04-12T10:25:02.971Z</time></trkpt><trkpt lat="37.9194" lon="15.9778617"><ele>24.000000000000004</ele><time>2026-04-12T10:25:03.971Z</time></trkpt><trkpt lat="37.9193767" lon="15.9777517"><ele>25.0</ele><time>2026-04-12T10:25:05.971Z</time></trkpt><trkpt lat="37.91926" lon="15.9777217"><ele>22.166666666666668</ele><time>2026-04-12T10:25:07.971Z</time></trkpt><trkpt lat="37.91918" lon="15.9777317"><ele>19.333333333333336</ele><time>2026-04-12T10:25:09.971Z</time></trkpt><trkpt lat="37.9191367" lon="15.97786"><ele>16.5</ele><time>2026-04-12T10:25:11.971Z</time></trkpt><trkpt lat="37.91911" lon="15.977955"><ele>13.666666666666668</ele><time>2026-04-12T10:25:12.971Z</time></trkpt><trkpt lat="37.9190833" lon="15.9780467"><ele>10.833333333333332</ele><time>2026-04-12T10:25:13.971Z</time></trkpt><trkpt lat="37.9190467" lon="15.9781333"><ele>8.0</ele><time>2026-04-12T10:25:14.971Z</time></trkpt><trkpt lat="37.9190167" lon="15.978215"><ele>8.0</ele><time>2026-04-12T10:25:15.972Z</time></trkpt><trkpt lat="37.918985" lon="15.9782917"><ele>8.0</ele><time>2026-04-12T10:25:16.971Z</time></trkpt><trkpt lat="37.91895" lon="15.9783767"><ele>8.0</ele><time>2026-04-12T10:25:17.971Z</time></trkpt><trkpt lat="37.9189133" lon="15.9784583"><ele>8.0</ele><time>2026-04-12T10:25:18.971Z</time></trkpt><trkpt lat="37.9188583" lon="15.9785967"><ele>8.0</ele><time>2026-04-12T10:25:20.971Z</time></trkpt><trkpt lat="37.918785" lon="15.9787183"><ele>7.833333333333333</ele><time>2026-04-12T10:25:22.971Z</time></trkpt><trkpt lat="37.918735" lon="15.9788117"><ele>7.666666666666666</ele><time>2026-04-12T10:25:24.971Z</time></trkpt><trkpt lat="37.918695" lon="15.9788967"><ele>7.5</ele><time>2026-04-12T10:25:27.971Z</time></trkpt><trkpt lat="37.9186783" lon="15.97899"><ele>7.333333333333334</ele><time>2026-04-12T10:26:08.971Z</time></trkpt><trkpt lat="37.918645" lon="15.97908"><ele>7.166666666666667</ele><time>2026-04-12T10:26:10.972Z</time></trkpt><trkpt lat="37.91862" lon="15.9791833"><ele>7.0</ele><time>2026-04-12T10:26:12.971Z</time></trkpt><trkpt lat="37.9186617" lon="15.979285"><ele>7.0</ele><time>2026-04-12T10:26:14.971Z</time></trkpt><trkpt lat="37.9187583" lon="15.9793783"><ele>7.0</ele><time>2026-04-12T10:26:16.971Z</time></trkpt><trkpt lat="37.91886" lon="15.9794383"><ele>7.0</ele><time>2026-04-12T10:26:18.971Z</time></trkpt><trkpt lat="37.918965" lon="15.9794983"><ele>7.0</ele><time>2026-04-12T10:26:20.971Z</time></trkpt><trkpt lat="37.9190767" lon="15.9795583"><ele>7.0</ele><time>2026-04-12T10:26:22.972Z</time></trkpt><trkpt lat="37.9191933" lon="15.9796217"><ele>6.999999999999999</ele><time>2026-04-12T10:26:24.971Z</time></trkpt><trkpt lat="37.919255" lon="15.979645"><ele>6.999999999999999</ele><time>2026-04-12T10:26:25.971Z</time></trkpt><trkpt lat="37.91935" lon="15.9796533"><ele>7.0</ele><time>2026-04-12T10:26:27.972Z</time></trkpt><trkpt lat="37.919405" lon="15.9797333"><ele>7.0</ele><time>2026-04-12T10:26:30.971Z</time></trkpt><trkpt lat="37.919385" lon="15.9798783"><ele>7.8</ele><time>2026-04-12T10:26:32.972Z</time></trkpt><trkpt lat="37.9193817" lon="15.9799667"><ele>8.6</ele><time>2026-04-12T10:26:33.972Z</time></trkpt><trkpt lat="37.91938" lon="15.9800867"><ele>9.4</ele><time>2026-04-12T10:26:34.971Z</time></trkpt><trkpt lat="37.9193683" lon="15.98022"><ele>10.200000000000001</ele><time>2026-04-12T10:26:35.971Z</time></trkpt><trkpt lat="37.91936" lon="15.9803633"><ele>11.0</ele><time>2026-04-12T10:26:36.972Z</time></trkpt><trkpt lat="37.9193533" lon="15.9805233"><ele>11.0</ele><time>2026-04-12T10:26:37.971Z</time></trkpt><trkpt lat="37.9193367" lon="15.9806917"><ele>11.0</ele><time>2026-04-12T10:26:38.971Z</time></trkpt><trkpt lat="37.9193283" lon="15.98086"><ele>11.0</ele><time>2026-04-12T10:26:39.972Z</time></trkpt><trkpt lat="37.91932" lon="15.981045"><ele>11.0</ele><time>2026-04-12T10:26:40.972Z</time></trkpt><trkpt lat="37.9193" lon="15.9812317"><ele>10.333333333333332</ele><time>2026-04-12T10:26:41.972Z</time></trkpt><trkpt lat="37.9192833" lon="15.9814333"><ele>9.666666666666666</ele><time>2026-04-12T10:26:42.972Z</time></trkpt><trkpt lat="37.9192567" lon="15.9816267"><ele>9.0</ele><time>2026-04-12T10:26:43.972Z</time></trkpt><trkpt lat="37.9192467" lon="15.9818267"><ele>8.333333333333334</ele><time>2026-04-12T10:26:44.971Z</time></trkpt><trkpt lat="37.919235" lon="15.9820333"><ele>7.666666666666667</ele><time>2026-04-12T10:26:45.971Z</time></trkpt><trkpt lat="37.9192233" lon="15.9822533"><ele>7.0</ele><time>2026-04-12T10:26:46.971Z</time></trkpt><trkpt lat="37.91921" lon="15.98247"><ele>7.0</ele><time>2026-04-12T10:26:47.971Z</time></trkpt><trkpt lat="37.919195" lon="15.9827"><ele>7.0</ele><time>2026-04-12T10:26:48.971Z</time></trkpt><trkpt lat="37.9191767" lon="15.9829283"><ele>7.0</ele><time>2026-04-12T10:26:49.971Z</time></trkpt><trkpt lat="37.91916" lon="15.983165"><ele>7.0</ele><time>2026-04-12T10:26:50.971Z</time></trkpt><trkpt lat="37.9191383" lon="15.9833967"><ele>7.0</ele><time>2026-04-12T10:26:51.971Z</time></trkpt><trkpt lat="37.9191167" lon="15.9836233"><ele>7.0</ele><time>2026-04-12T10:26:52.971Z</time></trkpt><trkpt lat="37.919105" lon="15.98385"><ele>7.0</ele><time>2026-04-12T10:26:53.971Z</time></trkpt><trkpt lat="37.919085" lon="15.9840767"><ele>7.0</ele><time>2026-04-12T10:26:54.971Z</time></trkpt><trkpt lat="37.9190583" lon="15.984305"><ele>7.0</ele><time>2026-04-12T10:26:55.971Z</time></trkpt><trkpt lat="37.9190383" lon="15.9845217"><ele>8.0</ele><time>2026-04-12T10:26:56.971Z</time></trkpt><trkpt lat="37.9190217" lon="15.9847433"><ele>9.0</ele><time>2026-04-12T10:26:57.972Z</time></trkpt><trkpt lat="37.9190167" lon="15.98497"><ele>10.0</ele><time>2026-04-12T10:26:58.972Z</time></trkpt><trkpt lat="37.91901" lon="15.9851917"><ele>10.0</ele><time>2026-04-12T10:26:59.972Z</time></trkpt><trkpt lat="37.9190183" lon="15.9854117"><ele>10.0</ele><time>2026-04-12T10:27:00.971Z</time></trkpt><trkpt lat="37.9190283" lon="15.9856317"><ele>10.0</ele><time>2026-04-12T10:27:01.971Z</time></trkpt><trkpt lat="37.9190467" lon="15.9858533"><ele>10.333333333333334</ele><time>2026-04-12T10:27:02.972Z</time></trkpt><trkpt lat="37.9190733" lon="15.9860767"><ele>10.666666666666666</ele><time>2026-04-12T10:27:03.972Z</time></trkpt><trkpt lat="37.9191017" lon="15.9863033"><ele>11.0</ele><time>2026-04-12T10:27:04.971Z</time></trkpt><trkpt lat="37.9191" lon="15.986525"><ele>11.333333333333332</ele><time>2026-04-12T10:27:05.972Z</time></trkpt><trkpt lat="37.919095" lon="15.9867517"><ele>11.666666666666666</ele><time>2026-04-12T10:27:06.971Z</time></trkpt><trkpt lat="37.9190683" lon="15.98698"><ele>12.0</ele><time>2026-04-12T10:27:07.971Z</time></trkpt><trkpt lat="37.9190317" lon="15.9872"><ele>12.0</ele><time>2026-04-12T10:27:08.971Z</time></trkpt><trkpt lat="37.9189867" lon="15.9874333"><ele>12.0</ele><time>2026-04-12T10:27:09.971Z</time></trkpt><trkpt lat="37.918925" lon="15.987655"><ele>12.0</ele><time>2026-04-12T10:27:10.971Z</time></trkpt><trkpt lat="37.9188683" lon="15.9878933"><ele>11.333333333333334</ele><time>2026-04-12T10:27:11.971Z</time></trkpt><trkpt lat="37.91883" lon="15.9881383"><ele>10.666666666666668</ele><time>2026-04-12T10:27:12.971Z</time></trkpt><trkpt lat="37.9187983" lon="15.9883867"><ele>10.0</ele><time>2026-04-12T10:27:13.971Z</time></trkpt><trkpt lat="37.91877" lon="15.9886417"><ele>10.0</ele><time>2026-04-12T10:27:14.971Z</time></trkpt><trkpt lat="37.9187483" lon="15.9888983"><ele>10.0</ele><time>2026-04-12T10:27:15.972Z</time></trkpt><trkpt lat="37.91873" lon="15.9891467"><ele>10.0</ele><time>2026-04-12T10:27:16.971Z</time></trkpt><trkpt lat="37.9187183" lon="15.9893967"><ele>10.333333333333334</ele><time>2026-04-12T10:27:17.972Z</time></trkpt><trkpt lat="37.9187033" lon="15.98965"><ele>10.666666666666666</ele><time>2026-04-12T10:27:18.971Z</time></trkpt><trkpt lat="37.9186833" lon="15.9899117"><ele>11.0</ele><time>2026-04-12T10:27:19.971Z</time></trkpt><trkpt lat="37.9186683" lon="15.9901717"><ele>11.333333333333332</ele><time>2026-04-12T10:27:20.971Z</time></trkpt><trkpt lat="37.9186467" lon="15.9904317"><ele>11.666666666666666</ele><time>2026-04-12T10:27:21.972Z</time></trkpt><trkpt lat="37.918625" lon="15.990695"><ele>12.0</ele><time>2026-04-12T10:27:22.971Z</time></trkpt><trkpt lat="37.9186067" lon="15.9909633"><ele>14.0</ele><time>2026-04-12T10:27:23.971Z</time></trkpt><trkpt lat="37.9185933" lon="15.99123"><ele>16.0</ele><time>2026-04-12T10:27:24.971Z</time></trkpt><trkpt lat="37.9185733" lon="15.9915017"><ele>18.0</ele><time>2026-04-12T10:27:25.971Z</time></trkpt><trkpt lat="37.9185533" lon="15.9917717"><ele>18.0</ele><time>2026-04-12T10:27:26.971Z</time></trkpt><trkpt lat="37.9185283" lon="15.9920283"><ele>18.0</ele><time>2026-04-12T10:27:27.972Z</time></trkpt><trkpt lat="37.9185133" lon="15.9922883"><ele>18.0</ele><time>2026-04-12T10:27:28.971Z</time></trkpt><trkpt lat="37.9184867" lon="15.9925533"><ele>16.0</ele><time>2026-04-12T10:27:29.971Z</time></trkpt><trkpt lat="37.91846" lon="15.9928167"><ele>14.0</ele><time>2026-04-12T10:27:30.971Z</time></trkpt><trkpt lat="37.9184117" lon="15.9930717"><ele>12.0</ele><time>2026-04-12T10:27:31.971Z</time></trkpt><trkpt lat="37.9183383" lon="15.9933283"><ele>10.333333333333334</ele><time>2026-04-12T10:27:32.971Z</time></trkpt><trkpt lat="37.9182617" lon="15.9935833"><ele>8.666666666666668</ele><time>2026-04-12T10:27:33.971Z</time></trkpt><trkpt lat="37.9181767" lon="15.9938333"><ele>7.0</ele><time>2026-04-12T10:27:34.971Z</time></trkpt><trkpt lat="37.91809" lon="15.9940817"><ele>7.666666666666667</ele><time>2026-04-12T10:27:35.971Z</time></trkpt><trkpt lat="37.9180067" lon="15.9943183"><ele>8.333333333333334</ele><time>2026-04-12T10:27:36.971Z</time></trkpt><trkpt lat="37.917945" lon="15.9945517"><ele>9.0</ele><time>2026-04-12T10:27:37.971Z</time></trkpt><trkpt lat="37.9178933" lon="15.9947817"><ele>9.666666666666666</ele><time>2026-04-12T10:27:38.971Z</time></trkpt><trkpt lat="37.9178733" lon="15.995045"><ele>10.333333333333332</ele><time>2026-04-12T10:27:39.972Z</time></trkpt><trkpt lat="37.9179" lon="15.99531"><ele>11.0</ele><time>2026-04-12T10:27:40.972Z</time></trkpt><trkpt lat="37.9179333" lon="15.9955733"><ele>11.0</ele><time>2026-04-12T10:27:41.971Z</time></trkpt><trkpt lat="37.9179567" lon="15.99582"><ele>11.0</ele><time>2026-04-12T10:27:42.971Z</time></trkpt><trkpt lat="37.9179833" lon="15.9960483"><ele>11.0</ele><time>2026-04-12T10:27:43.971Z</time></trkpt><trkpt lat="37.9179917" lon="15.9962583"><ele>11.666666666666666</ele><time>2026-04-12T10:27:44.971Z</time></trkpt><trkpt lat="37.91797" lon="15.9964683"><ele>12.333333333333332</ele><time>2026-04-12T10:27:45.971Z</time></trkpt><trkpt lat="37.9179033" lon="15.9966717"><ele>13.0</ele><time>2026-04-12T10:27:46.971Z</time></trkpt><trkpt lat="37.9177983" lon="15.99688"><ele>14.666666666666666</ele><time>2026-04-12T10:27:47.971Z</time></trkpt><trkpt lat="37.9176867" lon="15.9970783"><ele>16.333333333333332</ele><time>2026-04-12T10:27:48.971Z</time></trkpt><trkpt lat="37.917565" lon="15.997265"><ele>18.0</ele><time>2026-04-12T10:27:49.971Z</time></trkpt><trkpt lat="37.91744" lon="15.9974217"><ele>18.0</ele><time>2026-04-12T10:27:50.972Z</time></trkpt><trkpt lat="37.9172833" lon="15.9975083"><ele>18.0</ele><time>2026-04-12T10:27:51.971Z</time></trkpt><trkpt lat="37.9171083" lon="15.9975217"><ele>18.0</ele><time>2026-04-12T10:27:52.971Z</time></trkpt><trkpt lat="37.91694" lon="15.9974933"><ele>18.0</ele><time>2026-04-12T10:27:53.971Z</time></trkpt><trkpt lat="37.9167867" lon="15.9974717"><ele>18.0</ele><time>2026-04-12T10:27:54.972Z</time></trkpt><trkpt lat="37.9166267" lon="15.9975"><ele>18.0</ele><time>2026-04-12T10:27:55.971Z</time></trkpt><trkpt lat="37.91647" lon="15.997605"><ele>18.333333333333332</ele><time>2026-04-12T10:27:56.971Z</time></trkpt><trkpt lat="37.9163583" lon="15.99776"><ele>18.666666666666664</ele><time>2026-04-12T10:27:57.971Z</time></trkpt><trkpt lat="37.9163017" lon="15.9979567"><ele>19.0</ele><time>2026-04-12T10:27:58.971Z</time></trkpt><trkpt lat="37.9163083" lon="15.9981633"><ele>16.333333333333332</ele><time>2026-04-12T10:27:59.971Z</time></trkpt><trkpt lat="37.9163733" lon="15.998355"><ele>13.666666666666666</ele><time>2026-04-12T10:28:00.971Z</time></trkpt><trkpt lat="37.91647" lon="15.998545"><ele>11.0</ele><time>2026-04-12T10:28:01.971Z</time></trkpt><trkpt lat="37.916575" lon="15.998725"><ele>11.0</ele><time>2026-04-12T10:28:02.971Z</time></trkpt><trkpt lat="37.9167" lon="15.9988967"><ele>11.0</ele><time>2026-04-12T10:28:03.971Z</time></trkpt><trkpt lat="37.9168483" lon="15.9990083"><ele>11.0</ele><time>2026-04-12T10:28:04.971Z</time></trkpt><trkpt lat="37.9169917" lon="15.9991433"><ele>12.666666666666666</ele><time>2026-04-12T10:28:05.972Z</time></trkpt><trkpt lat="37.9171033" lon="15.99931"><ele>14.333333333333332</ele><time>2026-04-12T10:28:06.972Z</time></trkpt><trkpt lat="37.9171983" lon="15.9995017"><ele>16.0</ele><time>2026-04-12T10:28:07.971Z</time></trkpt><trkpt lat="37.9173183" lon="15.9996967"><ele>16.0</ele><time>2026-04-12T10:28:08.971Z</time></trkpt><trkpt lat="37.91746" lon="15.9999017"><ele>16.0</ele><time>2026-04-12T10:28:09.971Z</time></trkpt><trkpt lat="37.9176067" lon="16.0001183"><ele>16.0</ele><time>2026-04-12T10:28:10.971Z</time></trkpt><trkpt lat="37.917745" lon="16.0003517"><ele>20.0</ele><time>2026-04-12T10:28:11.971Z</time></trkpt><trkpt lat="37.9178683" lon="16.0006133"><ele>24.0</ele><time>2026-04-12T10:28:12.971Z</time></trkpt><trkpt lat="37.9179917" lon="16.0008767"><ele>24.0</ele><time>2026-04-12T10:28:13.971Z</time></trkpt><trkpt lat="37.9181217" lon="16.0011467"><ele>24.0</ele><time>2026-04-12T10:28:14.971Z</time></trkpt><trkpt lat="37.9182517" lon="16.0014117"><ele>20.0</ele><time>2026-04-12T10:28:15.971Z</time></trkpt><trkpt lat="37.9183833" lon="16.0016733"><ele>16.0</ele><time>2026-04-12T10:28:16.971Z</time></trkpt><trkpt lat="37.918505" lon="16.00194"><ele>29.5</ele><time>2026-04-12T10:28:17.971Z</time></trkpt><trkpt lat="37.9186317" lon="16.0022"><ele>43.0</ele><time>2026-04-12T10:28:18.971Z</time></trkpt><trkpt lat="37.9187567" lon="16.0024533"><ele>33.5</ele><time>2026-04-12T10:28:19.971Z</time></trkpt><trkpt lat="37.918885" lon="16.002705"><ele>24.0</ele><time>2026-04-12T10:28:20.971Z</time></trkpt><trkpt lat="37.9189867" lon="16.0029667"><ele>24.0</ele><time>2026-04-12T10:28:21.972Z</time></trkpt><trkpt lat="37.9190533" lon="16.0032517"><ele>24.0</ele><time>2026-04-12T10:28:22.972Z</time></trkpt><trkpt lat="37.9190967" lon="16.0035467"><ele>19.0</ele><time>2026-04-12T10:28:23.971Z</time></trkpt><trkpt lat="37.9191433" lon="16.0038333"><ele>14.0</ele><time>2026-04-12T10:28:24.971Z</time></trkpt><trkpt lat="37.9191967" lon="16.0041117"><ele>19.5</ele><time>2026-04-12T10:28:25.971Z</time></trkpt><trkpt lat="37.9192517" lon="16.0044033"><ele>25.0</ele><time>2026-04-12T10:28:26.971Z</time></trkpt><trkpt lat="37.91931" lon="16.0046933"><ele>25.0</ele><time>2026-04-12T10:28:27.972Z</time></trkpt><trkpt lat="37.9193683" lon="16.0049783"><ele>25.0</ele><time>2026-04-12T10:28:28.971Z</time></trkpt><trkpt lat="37.91942" lon="16.00527"><ele>21.5</ele><time>2026-04-12T10:28:29.971Z</time></trkpt><trkpt lat="37.9194733" lon="16.0055533"><ele>18.0</ele><time>2026-04-12T10:28:30.971Z</time></trkpt><trkpt lat="37.9195283" lon="16.0058417"><ele>17.0</ele><time>2026-04-12T10:28:31.971Z</time></trkpt><trkpt lat="37.9195783" lon="16.0061283"><ele>16.0</ele><time>2026-04-12T10:28:32.971Z</time></trkpt><trkpt lat="37.9196183" lon="16.006415"><ele>15.5</ele><time>2026-04-12T10:28:33.971Z</time></trkpt><trkpt lat="37.9196583" lon="16.0067033"><ele>15.0</ele><time>2026-04-12T10:28:34.971Z</time></trkpt><trkpt lat="37.9197017" lon="16.006985"><ele>15.0</ele><time>2026-04-12T10:28:35.971Z</time></trkpt><trkpt lat="37.9197533" lon="16.0072717"><ele>15.0</ele><time>2026-04-12T10:28:36.971Z</time></trkpt><trkpt lat="37.9198033" lon="16.0075517"><ele>14.5</ele><time>2026-04-12T10:28:37.971Z</time></trkpt><trkpt lat="37.9198383" lon="16.0078383"><ele>14.0</ele><time>2026-04-12T10:28:38.972Z</time></trkpt><trkpt lat="37.9198833" lon="16.0081183"><ele>13.5</ele><time>2026-04-12T10:28:39.971Z</time></trkpt><trkpt lat="37.9199317" lon="16.00841"><ele>13.0</ele><time>2026-04-12T10:28:40.971Z</time></trkpt><trkpt lat="37.9199767" lon="16.0087017"><ele>13.0</ele><time>2026-04-12T10:28:41.971Z</time></trkpt><trkpt lat="37.9200167" lon="16.0089967"><ele>13.0</ele><time>2026-04-12T10:28:42.971Z</time></trkpt><trkpt lat="37.920055" lon="16.0093"><ele>13.5</ele><time>2026-04-12T10:28:43.971Z</time></trkpt><trkpt lat="37.9201067" lon="16.0095833"><ele>14.0</ele><time>2026-04-12T10:28:44.971Z</time></trkpt><trkpt lat="37.9201667" lon="16.00987"><ele>12.0</ele><time>2026-04-12T10:28:45.971Z</time></trkpt><trkpt lat="37.920245" lon="16.010145"><ele>10.0</ele><time>2026-04-12T10:28:46.971Z</time></trkpt><trkpt lat="37.9203233" lon="16.0104183"><ele>10.0</ele><time>2026-04-12T10:28:47.971Z</time></trkpt><trkpt lat="37.9204033" lon="16.0106867"><ele>10.0</ele><time>2026-04-12T10:28:48.971Z</time></trkpt><trkpt lat="37.9204883" lon="16.0109467"><ele>10.0</ele><time>2026-04-12T10:28:49.971Z</time></trkpt><trkpt lat="37.920585" lon="16.0111883"><ele>10.0</ele><time>2026-04-12T10:28:50.971Z</time></trkpt><trkpt lat="37.9207033" lon="16.0114083"><ele>10.0</ele><time>2026-04-12T10:28:51.972Z</time></trkpt><trkpt lat="37.920855" lon="16.011605"><ele>10.0</ele><time>2026-04-12T10:28:52.971Z</time></trkpt><trkpt lat="37.921025" lon="16.01179"><ele>10.0</ele><time>2026-04-12T10:28:53.971Z</time></trkpt><trkpt lat="37.9211917" lon="16.01198"><ele>10.0</ele><time>2026-04-12T10:28:54.971Z</time></trkpt><trkpt lat="37.9213533" lon="16.0121867"><ele>10.0</ele><time>2026-04-12T10:28:55.971Z</time></trkpt><trkpt lat="37.921495" lon="16.0124067"><ele>10.0</ele><time>2026-04-12T10:28:56.971Z</time></trkpt><trkpt lat="37.92162" lon="16.0126283"><ele>10.0</ele><time>2026-04-12T10:28:57.971Z</time></trkpt><trkpt lat="37.92173" lon="16.0128517"><ele>11.0</ele><time>2026-04-12T10:28:58.972Z</time></trkpt><trkpt lat="37.92183" lon="16.0130833"><ele>12.0</ele><time>2026-04-12T10:28:59.971Z</time></trkpt><trkpt lat="37.9219067" lon="16.0133317"><ele>13.0</ele><time>2026-04-12T10:29:00.972Z</time></trkpt><trkpt lat="37.9219583" lon="16.013595"><ele>13.0</ele><time>2026-04-12T10:29:01.971Z</time></trkpt><trkpt lat="37.9219917" lon="16.0138617"><ele>13.0</ele><time>2026-04-12T10:29:02.972Z</time></trkpt><trkpt lat="37.9220367" lon="16.0141383"><ele>13.0</ele><time>2026-04-12T10:29:03.971Z</time></trkpt><trkpt lat="37.9221" lon="16.0144117"><ele>13.0</ele><time>2026-04-12T10:29:04.972Z</time></trkpt><trkpt lat="37.9221683" lon="16.0146867"><ele>13.0</ele><time>2026-04-12T10:29:05.972Z</time></trkpt><trkpt lat="37.9222417" lon="16.0149633"><ele>12.0</ele><time>2026-04-12T10:29:06.972Z</time></trkpt><trkpt lat="37.9223083" lon="16.0152417"><ele>11.0</ele><time>2026-04-12T10:29:07.971Z</time></trkpt><trkpt lat="37.922375" lon="16.01552"><ele>11.0</ele><time>2026-04-12T10:29:08.972Z</time></trkpt><trkpt lat="37.922445" lon="16.0157933"><ele>11.0</ele><time>2026-04-12T10:29:09.971Z</time></trkpt><trkpt lat="37.9225133" lon="16.0160667"><ele>12.666666666666666</ele><time>2026-04-12T10:29:10.972Z</time></trkpt><trkpt lat="37.92258" lon="16.0163383"><ele>14.333333333333332</ele><time>2026-04-12T10:29:11.971Z</time></trkpt><trkpt lat="37.92263" lon="16.0166117"><ele>16.0</ele><time>2026-04-12T10:29:12.971Z</time></trkpt><trkpt lat="37.9226783" lon="16.0168867"><ele>16.0</ele><time>2026-04-12T10:29:13.971Z</time></trkpt><trkpt lat="37.9227233" lon="16.0171633"><ele>16.0</ele><time>2026-04-12T10:29:14.97Z</time></trkpt><trkpt lat="37.922765" lon="16.01744"><ele>16.0</ele><time>2026-04-12T10:29:15.97Z</time></trkpt><trkpt lat="37.92282" lon="16.017715"><ele>16.0</ele><time>2026-04-12T10:29:16.97Z</time></trkpt><trkpt lat="37.9228717" lon="16.01799"><ele>16.0</ele><time>2026-04-12T10:29:17.97Z</time></trkpt><trkpt lat="37.922925" lon="16.0182633"><ele>16.0</ele><time>2026-04-12T10:29:18.97Z</time></trkpt><trkpt lat="37.9229767" lon="16.01854"><ele>15.0</ele><time>2026-04-12T10:29:19.97Z</time></trkpt><trkpt lat="37.92303" lon="16.018815"><ele>14.0</ele><time>2026-04-12T10:29:20.97Z</time></trkpt><trkpt lat="37.923085" lon="16.019095"><ele>12.666666666666668</ele><time>2026-04-12T10:29:21.97Z</time></trkpt><trkpt lat="37.9231383" lon="16.0193717"><ele>11.333333333333334</ele><time>2026-04-12T10:29:22.97Z</time></trkpt><trkpt lat="37.923185" lon="16.0196483"><ele>10.0</ele><time>2026-04-12T10:29:23.97Z</time></trkpt><trkpt lat="37.923235" lon="16.0199283"><ele>10.0</ele><time>2026-04-12T10:29:24.97Z</time></trkpt><trkpt lat="37.9232783" lon="16.020205"><ele>10.0</ele><time>2026-04-12T10:29:25.971Z</time></trkpt><trkpt lat="37.9233267" lon="16.0204867"><ele>10.0</ele><time>2026-04-12T10:29:26.97Z</time></trkpt><trkpt lat="37.92337" lon="16.020765"><ele>10.0</ele><time>2026-04-12T10:29:27.97Z</time></trkpt><trkpt lat="37.9234067" lon="16.0210483"><ele>11.0</ele><time>2026-04-12T10:29:28.97Z</time></trkpt><trkpt lat="37.9234467" lon="16.02133"><ele>12.0</ele><time>2026-04-12T10:29:29.971Z</time></trkpt><trkpt lat="37.923495" lon="16.02161"><ele>14.0</ele><time>2026-04-12T10:29:30.971Z</time></trkpt><trkpt lat="37.9235433" lon="16.0218867"><ele>16.0</ele><time>2026-04-12T10:29:31.97Z</time></trkpt><trkpt lat="37.9235883" lon="16.0221683"><ele>16.0</ele><time>2026-04-12T10:29:32.97Z</time></trkpt><trkpt lat="37.9236417" lon="16.0224483"><ele>16.0</ele><time>2026-04-12T10:29:33.97Z</time></trkpt><trkpt lat="37.9236983" lon="16.02274"><ele>16.5</ele><time>2026-04-12T10:29:34.971Z</time></trkpt><trkpt lat="37.9237533" lon="16.0230267"><ele>17.0</ele><time>2026-04-12T10:29:35.971Z</time></trkpt><trkpt lat="37.9238067" lon="16.0233117"><ele>16.0</ele><time>2026-04-12T10:29:36.971Z</time></trkpt><trkpt lat="37.9238617" lon="16.0235983"><ele>15.0</ele><time>2026-04-12T10:29:37.971Z</time></trkpt><trkpt lat="37.92392" lon="16.0238867"><ele>13.0</ele><time>2026-04-12T10:29:38.971Z</time></trkpt><trkpt lat="37.9239783" lon="16.0241833"><ele>11.0</ele><time>2026-04-12T10:29:39.97Z</time></trkpt><trkpt lat="37.924035" lon="16.024475"><ele>11.0</ele><time>2026-04-12T10:29:40.97Z</time></trkpt><trkpt lat="37.92409" lon="16.024775"><ele>11.0</ele><time>2026-04-12T10:29:41.971Z</time></trkpt><trkpt lat="37.9241483" lon="16.025075"><ele>10.5</ele><time>2026-04-12T10:29:42.97Z</time></trkpt><trkpt lat="37.9241917" lon="16.0253817"><ele>10.0</ele><time>2026-04-12T10:29:43.97Z</time></trkpt><trkpt lat="37.9242033" lon="16.0256867"><ele>11.0</ele><time>2026-04-12T10:29:44.97Z</time></trkpt><trkpt lat="37.92418" lon="16.0259817"><ele>12.0</ele><time>2026-04-12T10:29:45.97Z</time></trkpt><trkpt lat="37.92416" lon="16.0262783"><ele>12.0</ele><time>2026-04-12T10:29:46.971Z</time></trkpt><trkpt lat="37.92415" lon="16.02658"><ele>12.0</ele><time>2026-04-12T10:29:47.971Z</time></trkpt><trkpt lat="37.924145" lon="16.0268867"><ele>13.0</ele><time>2026-04-12T10:29:48.97Z</time></trkpt><trkpt lat="37.9241483" lon="16.0271883"><ele>14.0</ele><time>2026-04-12T10:29:49.971Z</time></trkpt><trkpt lat="37.92415" lon="16.02749"><ele>14.0</ele><time>2026-04-12T10:29:50.971Z</time></trkpt><trkpt lat="37.9241483" lon="16.0277933"><ele>14.0</ele><time>2026-04-12T10:29:51.971Z</time></trkpt><trkpt lat="37.9241317" lon="16.0280933"><ele>14.5</ele><time>2026-04-12T10:29:52.97Z</time></trkpt><trkpt lat="37.9240967" lon="16.0283933"><ele>15.0</ele><time>2026-04-12T10:29:53.97Z</time></trkpt><trkpt lat="37.92405" lon="16.0286917"><ele>15.0</ele><time>2026-04-12T10:29:54.97Z</time></trkpt><trkpt lat="37.9240083" lon="16.029"><ele>15.0</ele><time>2026-04-12T10:29:55.97Z</time></trkpt><trkpt lat="37.9239767" lon="16.0292883"><ele>14.5</ele><time>2026-04-12T10:29:56.97Z</time></trkpt><trkpt lat="37.923965" lon="16.029585"><ele>14.0</ele><time>2026-04-12T10:29:57.97Z</time></trkpt><trkpt lat="37.9239633" lon="16.0298767"><ele>13.666666666666668</ele><time>2026-04-12T10:29:58.97Z</time></trkpt><trkpt lat="37.9239867" lon="16.030155"><ele>13.333333333333332</ele><time>2026-04-12T10:29:59.97Z</time></trkpt><trkpt lat="37.924005" lon="16.030425"><ele>13.0</ele><time>2026-04-12T10:30:00.97Z</time></trkpt><trkpt lat="37.92402" lon="16.0306867"><ele>13.0</ele><time>2026-04-12T10:30:01.97Z</time></trkpt><trkpt lat="37.9240333" lon="16.0309517"><ele>13.0</ele><time>2026-04-12T10:30:02.971Z</time></trkpt><trkpt lat="37.9240467" lon="16.0312183"><ele>13.0</ele><time>2026-04-12T10:30:03.971Z</time></trkpt><trkpt lat="37.9240733" lon="16.031485"><ele>12.666666666666666</ele><time>2026-04-12T10:30:04.971Z</time></trkpt><trkpt lat="37.924105" lon="16.0317517"><ele>12.333333333333332</ele><time>2026-04-12T10:30:05.97Z</time></trkpt><trkpt lat="37.9241567" lon="16.0320167"><ele>12.0</ele><time>2026-04-12T10:30:06.971Z</time></trkpt><trkpt lat="37.92421" lon="16.0322833"><ele>14.666666666666668</ele><time>2026-04-12T10:30:07.97Z</time></trkpt><trkpt lat="37.92425" lon="16.0325583"><ele>17.333333333333336</ele><time>2026-04-12T10:30:08.97Z</time></trkpt><trkpt lat="37.9242633" lon="16.03284"><ele>20.0</ele><time>2026-04-12T10:30:09.971Z</time></trkpt><trkpt lat="37.9242583" lon="16.03312"><ele>22.666666666666668</ele><time>2026-04-12T10:30:10.97Z</time></trkpt><trkpt lat="37.9242367" lon="16.0334"><ele>25.333333333333336</ele><time>2026-04-12T10:30:11.971Z</time></trkpt><trkpt lat="37.9242367" lon="16.0336833"><ele>28.0</ele><time>2026-04-12T10:30:12.97Z</time></trkpt><trkpt lat="37.92427" lon="16.03397"><ele>30.0</ele><time>2026-04-12T10:30:13.971Z</time></trkpt><trkpt lat="37.9243317" lon="16.0342483"><ele>32.0</ele><time>2026-04-12T10:30:14.97Z</time></trkpt><trkpt lat="37.9244067" lon="16.03452"><ele>32.0</ele><time>2026-04-12T10:30:15.97Z</time></trkpt><trkpt lat="37.9244783" lon="16.0347983"><ele>32.0</ele><time>2026-04-12T10:30:16.97Z</time></trkpt><trkpt lat="37.924555" lon="16.0350717"><ele>29.333333333333332</ele><time>2026-04-12T10:30:17.97Z</time></trkpt><trkpt lat="37.9246383" lon="16.0353317"><ele>26.666666666666664</ele><time>2026-04-12T10:30:18.97Z</time></trkpt><trkpt lat="37.9247333" lon="16.03558"><ele>24.0</ele><time>2026-04-12T10:30:19.97Z</time></trkpt><trkpt lat="37.9248183" lon="16.0358367"><ele>20.666666666666668</ele><time>2026-04-12T10:30:20.971Z</time></trkpt><trkpt lat="37.924865" lon="16.0361017"><ele>17.333333333333336</ele><time>2026-04-12T10:30:21.97Z</time></trkpt><trkpt lat="37.9248567" lon="16.0363817"><ele>14.0</ele><time>2026-04-12T10:30:22.97Z</time></trkpt><trkpt lat="37.9248183" lon="16.036665"><ele>13.5</ele><time>2026-04-12T10:30:23.97Z</time></trkpt><trkpt lat="37.924785" lon="16.0369517"><ele>13.0</ele><time>2026-04-12T10:30:24.97Z</time></trkpt><trkpt lat="37.9247483" lon="16.03724"><ele>13.5</ele><time>2026-04-12T10:30:25.97Z</time></trkpt><trkpt lat="37.9247183" lon="16.0375283"><ele>14.0</ele><time>2026-04-12T10:30:26.97Z</time></trkpt><trkpt lat="37.9246917" lon="16.0378183"><ele>14.0</ele><time>2026-04-12T10:30:27.971Z</time></trkpt><trkpt lat="37.9246667" lon="16.0381033"><ele>14.0</ele><time>2026-04-12T10:30:28.97Z</time></trkpt><trkpt lat="37.9246433" lon="16.0383983"><ele>14.0</ele><time>2026-04-12T10:30:29.97Z</time></trkpt><trkpt lat="37.92462" lon="16.0386917"><ele>14.0</ele><time>2026-04-12T10:30:30.97Z</time></trkpt><trkpt lat="37.9245883" lon="16.0389767"><ele>15.333333333333334</ele><time>2026-04-12T10:30:31.97Z</time></trkpt><trkpt lat="37.9245533" lon="16.0392633"><ele>16.666666666666668</ele><time>2026-04-12T10:30:32.97Z</time></trkpt><trkpt lat="37.9245217" lon="16.0395383"><ele>18.0</ele><time>2026-04-12T10:30:33.971Z</time></trkpt><trkpt lat="37.924495" lon="16.039795"><ele>18.666666666666668</ele><time>2026-04-12T10:30:34.971Z</time></trkpt><trkpt lat="37.9244483" lon="16.040025"><ele>19.333333333333336</ele><time>2026-04-12T10:30:35.97Z</time></trkpt><trkpt lat="37.9243617" lon="16.040235"><ele>20.0</ele><time>2026-04-12T10:30:36.97Z</time></trkpt><trkpt lat="37.9242633" lon="16.0404467"><ele>17.666666666666668</ele><time>2026-04-12T10:30:37.97Z</time></trkpt><trkpt lat="37.9241567" lon="16.0406667"><ele>15.333333333333332</ele><time>2026-04-12T10:30:38.97Z</time></trkpt><trkpt lat="37.9240433" lon="16.0408917"><ele>13.0</ele><time>2026-04-12T10:30:39.97Z</time></trkpt><trkpt lat="37.9239267" lon="16.0411333"><ele>13.0</ele><time>2026-04-12T10:30:40.97Z</time></trkpt><trkpt lat="37.9238117" lon="16.0413883"><ele>13.0</ele><time>2026-04-12T10:30:41.97Z</time></trkpt><trkpt lat="37.9236933" lon="16.0416417"><ele>14.0</ele><time>2026-04-12T10:30:42.97Z</time></trkpt><trkpt lat="37.9235767" lon="16.041885"><ele>15.0</ele><time>2026-04-12T10:30:43.971Z</time></trkpt><trkpt lat="37.9234617" lon="16.0421433"><ele>12.5</ele><time>2026-04-12T10:30:44.97Z</time></trkpt><trkpt lat="37.9233717" lon="16.0424017"><ele>10.0</ele><time>2026-04-12T10:30:45.971Z</time></trkpt><trkpt lat="37.923305" lon="16.0426783"><ele>10.0</ele><time>2026-04-12T10:30:46.97Z</time></trkpt><trkpt lat="37.9232633" lon="16.0429667"><ele>10.0</ele><time>2026-04-12T10:30:47.97Z</time></trkpt><trkpt lat="37.9232317" lon="16.043265"><ele>9.5</ele><time>2026-04-12T10:30:48.971Z</time></trkpt><trkpt lat="37.9232083" lon="16.0435567"><ele>9.0</ele><time>2026-04-12T10:30:49.971Z</time></trkpt><trkpt lat="37.923195" lon="16.043845"><ele>9.0</ele><time>2026-04-12T10:30:50.97Z</time></trkpt><trkpt lat="37.9231767" lon="16.044135"><ele>9.0</ele><time>2026-04-12T10:30:51.971Z</time></trkpt><trkpt lat="37.9231483" lon="16.0444083"><ele>9.0</ele><time>2026-04-12T10:30:52.97Z</time></trkpt><trkpt lat="37.9231283" lon="16.044675"><ele>9.0</ele><time>2026-04-12T10:30:53.97Z</time></trkpt><trkpt lat="37.9231283" lon="16.04493"><ele>9.0</ele><time>2026-04-12T10:30:54.971Z</time></trkpt><trkpt lat="37.9231533" lon="16.0451683"><ele>9.0</ele><time>2026-04-12T10:30:55.97Z</time></trkpt><trkpt lat="37.9232133" lon="16.0453967"><ele>9.666666666666666</ele><time>2026-04-12T10:30:56.971Z</time></trkpt><trkpt lat="37.92329" lon="16.04563"><ele>10.333333333333332</ele><time>2026-04-12T10:30:57.97Z</time></trkpt><trkpt lat="37.92338" lon="16.0458683"><ele>11.0</ele><time>2026-04-12T10:30:58.97Z</time></trkpt><trkpt lat="37.923475" lon="16.04611"><ele>13.333333333333332</ele><time>2026-04-12T10:30:59.97Z</time></trkpt><trkpt lat="37.923555" lon="16.0463617"><ele>15.666666666666666</ele><time>2026-04-12T10:31:00.97Z</time></trkpt><trkpt lat="37.9236317" lon="16.0466183"><ele>18.0</ele><time>2026-04-12T10:31:01.97Z</time></trkpt><trkpt lat="37.9237" lon="16.0468833"><ele>18.0</ele><time>2026-04-12T10:31:02.97Z</time></trkpt><trkpt lat="37.9237667" lon="16.0471317"><ele>18.0</ele><time>2026-04-12T10:31:03.97Z</time></trkpt><trkpt lat="37.923835" lon="16.04737"><ele>18.0</ele><time>2026-04-12T10:31:04.97Z</time></trkpt><trkpt lat="37.9238883" lon="16.047615"><ele>16.5</ele><time>2026-04-12T10:31:05.971Z</time></trkpt><trkpt lat="37.92395" lon="16.0478783"><ele>15.0</ele><time>2026-04-12T10:31:06.971Z</time></trkpt><trkpt lat="37.9239983" lon="16.04817"><ele>13.0</ele><time>2026-04-12T10:31:07.97Z</time></trkpt><trkpt lat="37.92404" lon="16.0484683"><ele>11.0</ele><time>2026-04-12T10:31:08.971Z</time></trkpt><trkpt lat="37.9240767" lon="16.0487733"><ele>11.0</ele><time>2026-04-12T10:31:09.971Z</time></trkpt><trkpt lat="37.924125" lon="16.0490683"><ele>11.0</ele><time>2026-04-12T10:31:10.97Z</time></trkpt><trkpt lat="37.9241717" lon="16.049365"><ele>10.0</ele><time>2026-04-12T10:31:11.97Z</time></trkpt><trkpt lat="37.9242233" lon="16.0496583"><ele>9.0</ele><time>2026-04-12T10:31:12.97Z</time></trkpt><trkpt lat="37.924265" lon="16.049955"><ele>14.0</ele><time>2026-04-12T10:31:13.971Z</time></trkpt><trkpt lat="37.924305" lon="16.0502617"><ele>19.0</ele><time>2026-04-12T10:31:14.971Z</time></trkpt><trkpt lat="37.9243333" lon="16.05057"><ele>20.5</ele><time>2026-04-12T10:31:15.971Z</time></trkpt><trkpt lat="37.924335" lon="16.050885"><ele>22.0</ele><time>2026-04-12T10:31:16.971Z</time></trkpt><trkpt lat="37.92434" lon="16.0512017"><ele>22.0</ele><time>2026-04-12T10:31:17.97Z</time></trkpt><trkpt lat="37.9243533" lon="16.0515167"><ele>22.0</ele><time>2026-04-12T10:31:18.97Z</time></trkpt><trkpt lat="37.9243633" lon="16.0518433"><ele>22.5</ele><time>2026-04-12T10:31:19.97Z</time></trkpt><trkpt lat="37.9243817" lon="16.05218"><ele>23.0</ele><time>2026-04-12T10:31:20.97Z</time></trkpt><trkpt lat="37.92442" lon="16.0525133"><ele>20.5</ele><time>2026-04-12T10:31:21.97Z</time></trkpt><trkpt lat="37.9244667" lon="16.0528433"><ele>18.0</ele><time>2026-04-12T10:31:22.97Z</time></trkpt><trkpt lat="37.924505" lon="16.053185"><ele>15.0</ele><time>2026-04-12T10:31:23.97Z</time></trkpt><trkpt lat="37.9245333" lon="16.0535233"><ele>12.0</ele><time>2026-04-12T10:31:24.97Z</time></trkpt><trkpt lat="37.92457" lon="16.05386"><ele>15.5</ele><time>2026-04-12T10:31:25.97Z</time></trkpt><trkpt lat="37.9246033" lon="16.0542067"><ele>19.0</ele><time>2026-04-12T10:31:26.971Z</time></trkpt><trkpt lat="37.9246367" lon="16.0545483"><ele>19.0</ele><time>2026-04-12T10:31:27.97Z</time></trkpt><trkpt lat="37.9246533" lon="16.0548933"><ele>19.0</ele><time>2026-04-12T10:31:28.971Z</time></trkpt><trkpt lat="37.9246717" lon="16.0552383"><ele>24.5</ele><time>2026-04-12T10:31:29.971Z</time></trkpt><trkpt lat="37.9246917" lon="16.05558"><ele>30.0</ele><time>2026-04-12T10:31:30.97Z</time></trkpt><trkpt lat="37.9247267" lon="16.055915"><ele>30.0</ele><time>2026-04-12T10:31:31.97Z</time></trkpt><trkpt lat="37.9247667" lon="16.0562517"><ele>30.0</ele><time>2026-04-12T10:31:32.97Z</time></trkpt><trkpt lat="37.9248117" lon="16.0565917"><ele>26.5</ele><time>2026-04-12T10:31:33.97Z</time></trkpt><trkpt lat="37.92486" lon="16.0569333"><ele>23.0</ele><time>2026-04-12T10:31:34.971Z</time></trkpt><trkpt lat="37.9249067" lon="16.0572717"><ele>21.0</ele><time>2026-04-12T10:31:35.97Z</time></trkpt><trkpt lat="37.9249483" lon="16.0576067"><ele>19.0</ele><time>2026-04-12T10:31:36.97Z</time></trkpt><trkpt lat="37.9249867" lon="16.0579433"><ele>17.5</ele><time>2026-04-12T10:31:37.971Z</time></trkpt><trkpt lat="37.9250133" lon="16.058285"><ele>16.0</ele><time>2026-04-12T10:31:38.971Z</time></trkpt><trkpt lat="37.9250417" lon="16.0586217"><ele>31.0</ele><time>2026-04-12T10:31:39.97Z</time></trkpt><trkpt lat="37.9250683" lon="16.0589617"><ele>46.0</ele><time>2026-04-12T10:31:40.97Z</time></trkpt><trkpt lat="37.9250867" lon="16.0593017"><ele>46.0</ele><time>2026-04-12T10:31:41.97Z</time></trkpt><trkpt lat="37.925115" lon="16.0596383"><ele>46.0</ele><time>2026-04-12T10:31:42.971Z</time></trkpt><trkpt lat="37.92513" lon="16.0599767"><ele>41.5</ele><time>2026-04-12T10:31:43.97Z</time></trkpt><trkpt lat="37.9251267" lon="16.0603117"><ele>37.0</ele><time>2026-04-12T10:31:44.97Z</time></trkpt><trkpt lat="37.9251317" lon="16.0606483"><ele>34.5</ele><time>2026-04-12T10:31:45.97Z</time></trkpt><trkpt lat="37.9251483" lon="16.0609867"><ele>32.0</ele><time>2026-04-12T10:31:46.97Z</time></trkpt><trkpt lat="37.9251983" lon="16.0613067"><ele>24.0</ele><time>2026-04-12T10:31:47.971Z</time></trkpt><trkpt lat="37.92527" lon="16.061625"><ele>16.0</ele><time>2026-04-12T10:31:48.971Z</time></trkpt><trkpt lat="37.9253583" lon="16.0619117"><ele>16.0</ele><time>2026-04-12T10:31:49.97Z</time></trkpt><trkpt lat="37.925455" lon="16.0621633"><ele>16.0</ele><time>2026-04-12T10:31:50.971Z</time></trkpt><trkpt lat="37.9255417" lon="16.06238"><ele>16.0</ele><time>2026-04-12T10:31:51.97Z</time></trkpt><trkpt lat="37.9256267" lon="16.0625717"><ele>13.0</ele><time>2026-04-12T10:31:52.97Z</time></trkpt><trkpt lat="37.925715" lon="16.0627483"><ele>10.0</ele><time>2026-04-12T10:31:53.97Z</time></trkpt><trkpt lat="37.9258" lon="16.062915"><ele>7.0</ele><time>2026-04-12T10:31:54.97Z</time></trkpt><trkpt lat="37.9258933" lon="16.0630717"><ele>7.0</ele><time>2026-04-12T10:31:55.97Z</time></trkpt><trkpt lat="37.926" lon="16.0632283"><ele>7.0</ele><time>2026-04-12T10:31:56.97Z</time></trkpt><trkpt lat="37.9261367" lon="16.063395"><ele>7.0</ele><time>2026-04-12T10:31:57.97Z</time></trkpt><trkpt lat="37.926295" lon="16.0635683"><ele>6.0</ele><time>2026-04-12T10:31:58.97Z</time></trkpt><trkpt lat="37.9264617" lon="16.0637467"><ele>5.0</ele><time>2026-04-12T10:31:59.971Z</time></trkpt><trkpt lat="37.926645" lon="16.06393"><ele>7.333333333333334</ele><time>2026-04-12T10:32:00.97Z</time></trkpt><trkpt lat="37.9268133" lon="16.0641183"><ele>9.666666666666666</ele><time>2026-04-12T10:32:01.97Z</time></trkpt><trkpt lat="37.92697" lon="16.0642917"><ele>12.0</ele><time>2026-04-12T10:32:02.97Z</time></trkpt><trkpt lat="37.92711" lon="16.0644733"><ele>12.0</ele><time>2026-04-12T10:32:03.971Z</time></trkpt><trkpt lat="37.92725" lon="16.064655"><ele>12.0</ele><time>2026-04-12T10:32:04.97Z</time></trkpt><trkpt lat="37.927395" lon="16.0648417"><ele>12.0</ele><time>2026-04-12T10:32:05.97Z</time></trkpt><trkpt lat="37.9275617" lon="16.06502"><ele>17.0</ele><time>2026-04-12T10:32:06.97Z</time></trkpt><trkpt lat="37.9277533" lon="16.0651867"><ele>22.0</ele><time>2026-04-12T10:32:07.97Z</time></trkpt><trkpt lat="37.9279517" lon="16.0653467"><ele>22.0</ele><time>2026-04-12T10:32:08.97Z</time></trkpt><trkpt lat="37.9281583" lon="16.0655117"><ele>22.0</ele><time>2026-04-12T10:32:09.97Z</time></trkpt><trkpt lat="37.92837" lon="16.06566"><ele>18.5</ele><time>2026-04-12T10:32:10.97Z</time></trkpt><trkpt lat="37.9285817" lon="16.0658117"><ele>15.0</ele><time>2026-04-12T10:32:11.97Z</time></trkpt><trkpt lat="37.9288017" lon="16.0659483"><ele>15.0</ele><time>2026-04-12T10:32:12.97Z</time></trkpt><trkpt lat="37.929025" lon="16.06609"><ele>15.0</ele><time>2026-04-12T10:32:13.97Z</time></trkpt><trkpt lat="37.9292467" lon="16.066235"><ele>19.0</ele><time>2026-04-12T10:32:14.97Z</time></trkpt><trkpt lat="37.9294733" lon="16.0663833"><ele>23.0</ele><time>2026-04-12T10:32:15.97Z</time></trkpt><trkpt lat="37.9296933" lon="16.06653"><ele>20.0</ele><time>2026-04-12T10:32:16.97Z</time></trkpt><trkpt lat="37.9299133" lon="16.0666667"><ele>17.0</ele><time>2026-04-12T10:32:17.97Z</time></trkpt><trkpt lat="37.9301233" lon="16.0668067"><ele>17.0</ele><time>2026-04-12T10:32:18.97Z</time></trkpt><trkpt lat="37.9303283" lon="16.0669483"><ele>17.0</ele><time>2026-04-12T10:32:19.97Z</time></trkpt><trkpt lat="37.93053" lon="16.0670917"><ele>17.0</ele><time>2026-04-12T10:32:20.971Z</time></trkpt><trkpt lat="37.9307383" lon="16.06723"><ele>17.0</ele><time>2026-04-12T10:32:21.97Z</time></trkpt><trkpt lat="37.9309317" lon="16.06737"><ele>14.5</ele><time>2026-04-12T10:32:22.97Z</time></trkpt><trkpt lat="37.9311317" lon="16.0675133"><ele>12.0</ele><time>2026-04-12T10:32:23.97Z</time></trkpt><trkpt lat="37.93133" lon="16.0676667"><ele>12.0</ele><time>2026-04-12T10:32:24.971Z</time></trkpt><trkpt lat="37.931515" lon="16.0678233"><ele>12.0</ele><time>2026-04-12T10:32:25.971Z</time></trkpt><trkpt lat="37.931685" lon="16.0679967"><ele>12.0</ele><time>2026-04-12T10:32:26.97Z</time></trkpt><trkpt lat="37.9318533" lon="16.06819"><ele>11.5</ele><time>2026-04-12T10:32:27.97Z</time></trkpt><trkpt lat="37.9320217" lon="16.0683933"><ele>11.0</ele><time>2026-04-12T10:32:28.971Z</time></trkpt><trkpt lat="37.9321883" lon="16.0685967"><ele>11.0</ele><time>2026-04-12T10:32:29.97Z</time></trkpt><trkpt lat="37.93234" lon="16.0688117"><ele>11.0</ele><time>2026-04-12T10:32:30.97Z</time></trkpt><trkpt lat="37.9325067" lon="16.06902"><ele>10.5</ele><time>2026-04-12T10:32:31.97Z</time></trkpt><trkpt lat="37.9326717" lon="16.0692233"><ele>10.0</ele><time>2026-04-12T10:32:32.97Z</time></trkpt><trkpt lat="37.9328417" lon="16.06943"><ele>10.0</ele><time>2026-04-12T10:32:33.97Z</time></trkpt><trkpt lat="37.9330133" lon="16.06965"><ele>10.0</ele><time>2026-04-12T10:32:34.97Z</time></trkpt><trkpt lat="37.9331783" lon="16.0698683"><ele>9.0</ele><time>2026-04-12T10:32:35.97Z</time></trkpt><trkpt lat="37.933345" lon="16.0700883"><ele>8.0</ele><time>2026-04-12T10:32:36.97Z</time></trkpt><trkpt lat="37.9335133" lon="16.0703067"><ele>10.0</ele><time>2026-04-12T10:32:37.97Z</time></trkpt><trkpt lat="37.933675" lon="16.0705217"><ele>12.0</ele><time>2026-04-12T10:32:38.97Z</time></trkpt><trkpt lat="37.933845" lon="16.070745"><ele>9.5</ele><time>2026-04-12T10:32:39.97Z</time></trkpt><trkpt lat="37.93401" lon="16.0709583"><ele>7.0</ele><time>2026-04-12T10:32:40.97Z</time></trkpt><trkpt lat="37.934175" lon="16.0711733"><ele>9.0</ele><time>2026-04-12T10:32:41.97Z</time></trkpt><trkpt lat="37.9343433" lon="16.0713883"><ele>11.0</ele><time>2026-04-12T10:32:42.97Z</time></trkpt><trkpt lat="37.9345183" lon="16.0716067"><ele>10.5</ele><time>2026-04-12T10:32:43.97Z</time></trkpt><trkpt lat="37.934685" lon="16.0718233"><ele>10.0</ele><time>2026-04-12T10:32:44.971Z</time></trkpt><trkpt lat="37.9348533" lon="16.0720433"><ele>10.0</ele><time>2026-04-12T10:32:45.97Z</time></trkpt><trkpt lat="37.9350267" lon="16.07226"><ele>10.0</ele><time>2026-04-12T10:32:46.971Z</time></trkpt><trkpt lat="37.9351917" lon="16.07248"><ele>10.0</ele><time>2026-04-12T10:32:47.97Z</time></trkpt><trkpt lat="37.9353483" lon="16.0726933"><ele>10.0</ele><time>2026-04-12T10:32:48.971Z</time></trkpt><trkpt lat="37.935515" lon="16.0729067"><ele>10.0</ele><time>2026-04-12T10:32:49.97Z</time></trkpt><trkpt lat="37.9356783" lon="16.073115"><ele>10.0</ele><time>2026-04-12T10:32:50.97Z</time></trkpt><trkpt lat="37.9358417" lon="16.073335"><ele>11.0</ele><time>2026-04-12T10:32:51.97Z</time></trkpt><trkpt lat="37.9360033" lon="16.0735517"><ele>12.0</ele><time>2026-04-12T10:32:52.97Z</time></trkpt><trkpt lat="37.9361683" lon="16.0737633"><ele>12.0</ele><time>2026-04-12T10:32:53.97Z</time></trkpt><trkpt lat="37.9363333" lon="16.07398"><ele>12.0</ele><time>2026-04-12T10:32:54.97Z</time></trkpt><trkpt lat="37.9364983" lon="16.0742033"><ele>13.5</ele><time>2026-04-12T10:32:55.97Z</time></trkpt><trkpt lat="37.936665" lon="16.074415"><ele>15.0</ele><time>2026-04-12T10:32:56.97Z</time></trkpt><trkpt lat="37.9368333" lon="16.074635"><ele>15.0</ele><time>2026-04-12T10:32:57.971Z</time></trkpt><trkpt lat="37.9370067" lon="16.07485"><ele>15.0</ele><time>2026-04-12T10:32:58.971Z</time></trkpt><trkpt lat="37.937175" lon="16.0750683"><ele>11.5</ele><time>2026-04-12T10:32:59.97Z</time></trkpt><trkpt lat="37.9373433" lon="16.0752883"><ele>8.0</ele><time>2026-04-12T10:33:00.97Z</time></trkpt><trkpt lat="37.9375117" lon="16.0755117"><ele>10.5</ele><time>2026-04-12T10:33:01.97Z</time></trkpt><trkpt lat="37.93768" lon="16.0757267"><ele>13.0</ele><time>2026-04-12T10:33:02.97Z</time></trkpt><trkpt lat="37.93785" lon="16.075955"><ele>13.0</ele><time>2026-04-12T10:33:03.97Z</time></trkpt><trkpt lat="37.938015" lon="16.0761767"><ele>13.0</ele><time>2026-04-12T10:33:04.97Z</time></trkpt><trkpt lat="37.9381833" lon="16.0763917"><ele>11.5</ele><time>2026-04-12T10:33:05.97Z</time></trkpt><trkpt lat="37.9383583" lon="16.0766117"><ele>10.0</ele><time>2026-04-12T10:33:06.97Z</time></trkpt><trkpt lat="37.9385333" lon="16.076825"><ele>13.5</ele><time>2026-04-12T10:33:07.97Z</time></trkpt><trkpt lat="37.9387183" lon="16.07703"><ele>17.0</ele><time>2026-04-12T10:33:08.97Z</time></trkpt><trkpt lat="37.9389083" lon="16.0772383"><ele>17.0</ele><time>2026-04-12T10:33:09.97Z</time></trkpt><trkpt lat="37.9391083" lon="16.07743"><ele>17.0</ele><time>2026-04-12T10:33:10.97Z</time></trkpt><trkpt lat="37.9393017" lon="16.0776283"><ele>14.0</ele><time>2026-04-12T10:33:11.97Z</time></trkpt><trkpt lat="37.9394983" lon="16.077835"><ele>11.0</ele><time>2026-04-12T10:33:12.97Z</time></trkpt><trkpt lat="37.9397" lon="16.07803"><ele>11.0</ele><time>2026-04-12T10:33:13.97Z</time></trkpt><trkpt lat="37.939905" lon="16.0782217"><ele>11.0</ele><time>2026-04-12T10:33:14.97Z</time></trkpt><trkpt lat="37.9401117" lon="16.078415"><ele>10.0</ele><time>2026-04-12T10:33:15.97Z</time></trkpt><trkpt lat="37.940315" lon="16.07861"><ele>9.0</ele><time>2026-04-12T10:33:16.97Z</time></trkpt><trkpt lat="37.94051" lon="16.0787967"><ele>9.0</ele><time>2026-04-12T10:33:17.97Z</time></trkpt><trkpt lat="37.9407" lon="16.07897"><ele>9.0</ele><time>2026-04-12T10:33:18.97Z</time></trkpt><trkpt lat="37.94089" lon="16.0791483"><ele>9.5</ele><time>2026-04-12T10:33:19.97Z</time></trkpt><trkpt lat="37.9410783" lon="16.07933"><ele>10.0</ele><time>2026-04-12T10:33:20.97Z</time></trkpt><trkpt lat="37.9412633" lon="16.0795133"><ele>10.0</ele><time>2026-04-12T10:33:21.971Z</time></trkpt><trkpt lat="37.94144" lon="16.0797017"><ele>10.0</ele><time>2026-04-12T10:33:22.971Z</time></trkpt><trkpt lat="37.9416083" lon="16.079885"><ele>10.0</ele><time>2026-04-12T10:33:23.971Z</time></trkpt><trkpt lat="37.9417633" lon="16.0800733"><ele>10.0</ele><time>2026-04-12T10:33:24.97Z</time></trkpt><trkpt lat="37.9419183" lon="16.08027"><ele>10.0</ele><time>2026-04-12T10:33:25.97Z</time></trkpt><trkpt lat="37.9420783" lon="16.08047"><ele>10.0</ele><time>2026-04-12T10:33:26.97Z</time></trkpt><trkpt lat="37.9422367" lon="16.080665"><ele>10.0</ele><time>2026-04-12T10:33:27.97Z</time></trkpt><trkpt lat="37.9423917" lon="16.0808617"><ele>10.0</ele><time>2026-04-12T10:33:28.971Z</time></trkpt><trkpt lat="37.94255" lon="16.08106"><ele>10.666666666666668</ele><time>2026-04-12T10:33:29.97Z</time></trkpt><trkpt lat="37.9427067" lon="16.0812567"><ele>11.333333333333334</ele><time>2026-04-12T10:33:30.97Z</time></trkpt><trkpt lat="37.9428633" lon="16.081445"><ele>12.0</ele><time>2026-04-12T10:33:31.97Z</time></trkpt><trkpt lat="37.9430217" lon="16.081635"><ele>12.333333333333332</ele><time>2026-04-12T10:33:32.97Z</time></trkpt><trkpt lat="37.943175" lon="16.0818283"><ele>12.666666666666666</ele><time>2026-04-12T10:33:33.97Z</time></trkpt><trkpt lat="37.9433283" lon="16.0820183"><ele>13.0</ele><time>2026-04-12T10:33:34.97Z</time></trkpt><trkpt lat="37.943475" lon="16.0822017"><ele>13.0</ele><time>2026-04-12T10:33:35.97Z</time></trkpt><trkpt lat="37.9436217" lon="16.0823817"><ele>13.0</ele><time>2026-04-12T10:33:36.971Z</time></trkpt><trkpt lat="37.943765" lon="16.0825633"><ele>13.0</ele><time>2026-04-12T10:33:37.97Z</time></trkpt><trkpt lat="37.9439117" lon="16.0827383"><ele>12.333333333333332</ele><time>2026-04-12T10:33:38.971Z</time></trkpt><trkpt lat="37.9440683" lon="16.0828967"><ele>11.666666666666666</ele><time>2026-04-12T10:33:39.97Z</time></trkpt><trkpt lat="37.94422" lon="16.0830517"><ele>11.0</ele><time>2026-04-12T10:33:40.97Z</time></trkpt><trkpt lat="37.9443833" lon="16.0832033"><ele>10.0</ele><time>2026-04-12T10:33:41.971Z</time></trkpt><trkpt lat="37.94456" lon="16.0833533"><ele>9.0</ele><time>2026-04-12T10:33:42.97Z</time></trkpt><trkpt lat="37.944755" lon="16.0835067"><ele>8.0</ele><time>2026-04-12T10:33:43.971Z</time></trkpt><trkpt lat="37.9449667" lon="16.0836717"><ele>8.5</ele><time>2026-04-12T10:33:44.97Z</time></trkpt><trkpt lat="37.945195" lon="16.0838417"><ele>9.0</ele><time>2026-04-12T10:33:45.97Z</time></trkpt><trkpt lat="37.9454317" lon="16.0840383"><ele>9.0</ele><time>2026-04-12T10:33:46.97Z</time></trkpt><trkpt lat="37.9456767" lon="16.0842483"><ele>9.0</ele><time>2026-04-12T10:33:47.97Z</time></trkpt><trkpt lat="37.94593" lon="16.0844617"><ele>9.0</ele><time>2026-04-12T10:33:48.97Z</time></trkpt><trkpt lat="37.9461867" lon="16.0846733"><ele>9.0</ele><time>2026-04-12T10:33:49.971Z</time></trkpt><trkpt lat="37.9464333" lon="16.0848783"><ele>9.0</ele><time>2026-04-12T10:33:50.971Z</time></trkpt><trkpt lat="37.9466767" lon="16.0850783"><ele>9.0</ele><time>2026-04-12T10:33:51.97Z</time></trkpt><trkpt lat="37.9469167" lon="16.0852733"><ele>9.0</ele><time>2026-04-12T10:33:52.97Z</time></trkpt><trkpt lat="37.9471533" lon="16.0854683"><ele>9.0</ele><time>2026-04-12T10:33:53.97Z</time></trkpt><trkpt lat="37.9473867" lon="16.0856583"><ele>9.0</ele><time>2026-04-12T10:33:54.971Z</time></trkpt><trkpt lat="37.94762" lon="16.0858467"><ele>9.0</ele><time>2026-04-12T10:33:55.97Z</time></trkpt><trkpt lat="37.9478483" lon="16.08604"><ele>9.0</ele><time>2026-04-12T10:33:56.97Z</time></trkpt><trkpt lat="37.9480817" lon="16.086225"><ele>9.0</ele><time>2026-04-12T10:33:57.971Z</time></trkpt><trkpt lat="37.948315" lon="16.0864133"><ele>8.0</ele><time>2026-04-12T10:33:58.97Z</time></trkpt><trkpt lat="37.948545" lon="16.0866083"><ele>7.0</ele><time>2026-04-12T10:33:59.97Z</time></trkpt><trkpt lat="37.94878" lon="16.0868033"><ele>7.0</ele><time>2026-04-12T10:34:00.97Z</time></trkpt><trkpt lat="37.9490067" lon="16.0869883"><ele>7.0</ele><time>2026-04-12T10:34:01.97Z</time></trkpt><trkpt lat="37.9492383" lon="16.087175"><ele>8.0</ele><time>2026-04-12T10:34:02.97Z</time></trkpt><trkpt lat="37.94947" lon="16.0873633"><ele>9.0</ele><time>2026-04-12T10:34:03.97Z</time></trkpt><trkpt lat="37.9497033" lon="16.0875517"><ele>9.0</ele><time>2026-04-12T10:34:04.97Z</time></trkpt><trkpt lat="37.949935" lon="16.087745"><ele>9.0</ele><time>2026-04-12T10:34:05.97Z</time></trkpt><trkpt lat="37.9501633" lon="16.0879367"><ele>10.5</ele><time>2026-04-12T10:34:06.97Z</time></trkpt><trkpt lat="37.95039" lon="16.08812"><ele>12.0</ele><time>2026-04-12T10:34:07.97Z</time></trkpt><trkpt lat="37.95062" lon="16.08831"><ele>12.0</ele><time>2026-04-12T10:34:08.97Z</time></trkpt><trkpt lat="37.95085" lon="16.0884867"><ele>12.0</ele><time>2026-04-12T10:34:09.97Z</time></trkpt><trkpt lat="37.9510733" lon="16.0886683"><ele>12.0</ele><time>2026-04-12T10:34:10.97Z</time></trkpt><trkpt lat="37.9512933" lon="16.088855"><ele>12.0</ele><time>2026-04-12T10:34:11.97Z</time></trkpt><trkpt lat="37.95151" lon="16.0890383"><ele>13.5</ele><time>2026-04-12T10:34:12.971Z</time></trkpt><trkpt lat="37.9517283" lon="16.0892267"><ele>15.0</ele><time>2026-04-12T10:34:13.97Z</time></trkpt><trkpt lat="37.9519333" lon="16.08942"><ele>15.0</ele><time>2026-04-12T10:34:14.97Z</time></trkpt><trkpt lat="37.9521483" lon="16.08962"><ele>15.0</ele><time>2026-04-12T10:34:15.97Z</time></trkpt><trkpt lat="37.9523617" lon="16.0898267"><ele>16.0</ele><time>2026-04-12T10:34:16.97Z</time></trkpt><trkpt lat="37.9525717" lon="16.0900483"><ele>17.0</ele><time>2026-04-12T10:34:17.97Z</time></trkpt><trkpt lat="37.9527833" lon="16.0902717"><ele>17.0</ele><time>2026-04-12T10:34:18.97Z</time></trkpt><trkpt lat="37.953" lon="16.090505"><ele>17.0</ele><time>2026-04-12T10:34:19.971Z</time></trkpt><trkpt lat="37.9532167" lon="16.0907467"><ele>15.5</ele><time>2026-04-12T10:34:20.97Z</time></trkpt><trkpt lat="37.9534367" lon="16.0909933"><ele>14.0</ele><time>2026-04-12T10:34:21.971Z</time></trkpt><trkpt lat="37.953655" lon="16.0912417"><ele>14.0</ele><time>2026-04-12T10:34:22.97Z</time></trkpt><trkpt lat="37.953875" lon="16.0914983"><ele>14.0</ele><time>2026-04-12T10:34:23.971Z</time></trkpt><trkpt lat="37.9540967" lon="16.0917533"><ele>13.5</ele><time>2026-04-12T10:34:24.97Z</time></trkpt><trkpt lat="37.9543217" lon="16.09202"><ele>13.0</ele><time>2026-04-12T10:34:25.97Z</time></trkpt><trkpt lat="37.9545467" lon="16.0922867"><ele>11.5</ele><time>2026-04-12T10:34:26.97Z</time></trkpt><trkpt lat="37.954775" lon="16.092555"><ele>10.0</ele><time>2026-04-12T10:34:27.97Z</time></trkpt><trkpt lat="37.95501" lon="16.0928267"><ele>10.0</ele><time>2026-04-12T10:34:28.97Z</time></trkpt><trkpt lat="37.9552417" lon="16.0930917"><ele>10.0</ele><time>2026-04-12T10:34:29.971Z</time></trkpt><trkpt lat="37.9554733" lon="16.0933567"><ele>10.0</ele><time>2026-04-12T10:34:30.97Z</time></trkpt><trkpt lat="37.9556967" lon="16.0936183"><ele>10.0</ele><time>2026-04-12T10:34:31.97Z</time></trkpt><trkpt lat="37.9559167" lon="16.0938767"><ele>11.5</ele><time>2026-04-12T10:34:32.97Z</time></trkpt><trkpt lat="37.9561383" lon="16.0941317"><ele>13.0</ele><time>2026-04-12T10:34:33.97Z</time></trkpt><trkpt lat="37.9563583" lon="16.0943867"><ele>13.0</ele><time>2026-04-12T10:34:34.971Z</time></trkpt><trkpt lat="37.95658" lon="16.094645"><ele>13.0</ele><time>2026-04-12T10:34:35.97Z</time></trkpt><trkpt lat="37.9568067" lon="16.0949033"><ele>15.0</ele><time>2026-04-12T10:34:36.97Z</time></trkpt><trkpt lat="37.95703" lon="16.095155"><ele>17.0</ele><time>2026-04-12T10:34:37.971Z</time></trkpt><trkpt lat="37.9572567" lon="16.0954133"><ele>17.0</ele><time>2026-04-12T10:34:38.97Z</time></trkpt><trkpt lat="37.95747" lon="16.0956717"><ele>17.0</ele><time>2026-04-12T10:34:39.971Z</time></trkpt><trkpt lat="37.9576867" lon="16.095935"><ele>17.0</ele><time>2026-04-12T10:34:40.97Z</time></trkpt><trkpt lat="37.9579033" lon="16.0961833"><ele>17.0</ele><time>2026-04-12T10:34:41.97Z</time></trkpt><trkpt lat="37.95812" lon="16.0964217"><ele>14.0</ele><time>2026-04-12T10:34:42.97Z</time></trkpt><trkpt lat="37.9583233" lon="16.09665"><ele>11.0</ele><time>2026-04-12T10:34:43.97Z</time></trkpt><trkpt lat="37.9585133" lon="16.0968667"><ele>11.0</ele><time>2026-04-12T10:34:44.97Z</time></trkpt><trkpt lat="37.9586933" lon="16.0970683"><ele>11.0</ele><time>2026-04-12T10:34:45.971Z</time></trkpt><trkpt lat="37.958865" lon="16.097255"><ele>10.666666666666666</ele><time>2026-04-12T10:34:46.97Z</time></trkpt><trkpt lat="37.9590317" lon="16.097425"><ele>10.333333333333334</ele><time>2026-04-12T10:34:47.971Z</time></trkpt><trkpt lat="37.95918" lon="16.0976017"><ele>10.0</ele><time>2026-04-12T10:34:48.97Z</time></trkpt><trkpt lat="37.9593317" lon="16.09776"><ele>10.666666666666668</ele><time>2026-04-12T10:34:49.97Z</time></trkpt><trkpt lat="37.9594717" lon="16.0979017"><ele>11.333333333333334</ele><time>2026-04-12T10:34:50.971Z</time></trkpt><trkpt lat="37.9596133" lon="16.0980333"><ele>12.0</ele><time>2026-04-12T10:34:51.97Z</time></trkpt><trkpt lat="37.9597617" lon="16.09816"><ele>12.0</ele><time>2026-04-12T10:34:52.97Z</time></trkpt><trkpt lat="37.9599083" lon="16.0982867"><ele>12.0</ele><time>2026-04-12T10:34:53.97Z</time></trkpt><trkpt lat="37.9600667" lon="16.09842"><ele>12.0</ele><time>2026-04-12T10:34:54.97Z</time></trkpt><trkpt lat="37.9602233" lon="16.09855"><ele>13.0</ele><time>2026-04-12T10:34:55.97Z</time></trkpt><trkpt lat="37.9603667" lon="16.0986833"><ele>14.0</ele><time>2026-04-12T10:34:56.97Z</time></trkpt><trkpt lat="37.9605017" lon="16.098805"><ele>15.0</ele><time>2026-04-12T10:34:57.97Z</time></trkpt><trkpt lat="37.9606467" lon="16.09893"><ele>15.0</ele><time>2026-04-12T10:34:58.97Z</time></trkpt><trkpt lat="37.9608117" lon="16.0990517"><ele>15.0</ele><time>2026-04-12T10:34:59.97Z</time></trkpt><trkpt lat="37.9609533" lon="16.099185"><ele>15.0</ele><time>2026-04-12T10:35:00.971Z</time></trkpt><trkpt lat="37.96111" lon="16.0993133"><ele>16.0</ele><time>2026-04-12T10:35:01.97Z</time></trkpt><trkpt lat="37.9612617" lon="16.0994517"><ele>17.0</ele><time>2026-04-12T10:35:02.97Z</time></trkpt><trkpt lat="37.96141" lon="16.0995833"><ele>18.0</ele><time>2026-04-12T10:35:03.97Z</time></trkpt><trkpt lat="37.9615767" lon="16.0997167"><ele>18.333333333333332</ele><time>2026-04-12T10:35:04.97Z</time></trkpt><trkpt lat="37.9617333" lon="16.09986"><ele>18.666666666666664</ele><time>2026-04-12T10:35:05.97Z</time></trkpt><trkpt lat="37.9618983" lon="16.0999933"><ele>19.0</ele><time>2026-04-12T10:35:06.97Z</time></trkpt><trkpt lat="37.9620617" lon="16.1001233"><ele>19.0</ele><time>2026-04-12T10:35:07.97Z</time></trkpt><trkpt lat="37.962225" lon="16.100255"><ele>19.0</ele><time>2026-04-12T10:35:08.97Z</time></trkpt><trkpt lat="37.9623967" lon="16.1003967"><ele>19.0</ele><time>2026-04-12T10:35:09.971Z</time></trkpt><trkpt lat="37.9625567" lon="16.1005383"><ele>17.666666666666664</ele><time>2026-04-12T10:35:10.97Z</time></trkpt><trkpt lat="37.962725" lon="16.1006733"><ele>16.333333333333332</ele><time>2026-04-12T10:35:11.97Z</time></trkpt><trkpt lat="37.9629017" lon="16.1008083"><ele>15.0</ele><time>2026-04-12T10:35:12.97Z</time></trkpt><trkpt lat="37.9630767" lon="16.100945"><ele>15.0</ele><time>2026-04-12T10:35:13.971Z</time></trkpt><trkpt lat="37.96325" lon="16.1010833"><ele>15.0</ele><time>2026-04-12T10:35:14.97Z</time></trkpt><trkpt lat="37.9634117" lon="16.101205"><ele>15.0</ele><time>2026-04-12T10:35:15.97Z</time></trkpt><trkpt lat="37.9635767" lon="16.1013367"><ele>14.666666666666668</ele><time>2026-04-12T10:35:16.97Z</time></trkpt><trkpt lat="37.9637333" lon="16.1014483"><ele>14.333333333333334</ele><time>2026-04-12T10:35:17.97Z</time></trkpt><trkpt lat="37.96389" lon="16.10155"><ele>14.0</ele><time>2026-04-12T10:35:18.97Z</time></trkpt><trkpt lat="37.9640467" lon="16.1016583"><ele>14.0</ele><time>2026-04-12T10:35:19.97Z</time></trkpt><trkpt lat="37.9641917" lon="16.10176"><ele>14.0</ele><time>2026-04-12T10:35:20.97Z</time></trkpt><trkpt lat="37.9643383" lon="16.1018583"><ele>14.0</ele><time>2026-04-12T10:35:21.97Z</time></trkpt><trkpt lat="37.96448" lon="16.1019483"><ele>13.666666666666668</ele><time>2026-04-12T10:35:22.97Z</time></trkpt><trkpt lat="37.9646033" lon="16.1020433"><ele>13.333333333333332</ele><time>2026-04-12T10:35:23.97Z</time></trkpt><trkpt lat="37.9647467" lon="16.1021417"><ele>13.0</ele><time>2026-04-12T10:35:24.971Z</time></trkpt><trkpt lat="37.9648917" lon="16.1022567"><ele>12.666666666666666</ele><time>2026-04-12T10:35:25.97Z</time></trkpt><trkpt lat="37.9650467" lon="16.1023867"><ele>12.333333333333332</ele><time>2026-04-12T10:35:26.97Z</time></trkpt><trkpt lat="37.96519" lon="16.1025033"><ele>12.0</ele><time>2026-04-12T10:35:27.97Z</time></trkpt><trkpt lat="37.9653333" lon="16.102605"><ele>12.0</ele><time>2026-04-12T10:35:28.97Z</time></trkpt><trkpt lat="37.96547" lon="16.102715"><ele>12.0</ele><time>2026-04-12T10:35:29.97Z</time></trkpt><trkpt lat="37.965595" lon="16.1027883"><ele>12.0</ele><time>2026-04-12T10:35:30.97Z</time></trkpt><trkpt lat="37.9657333" lon="16.1028567"><ele>12.0</ele><time>2026-04-12T10:35:31.971Z</time></trkpt><trkpt lat="37.9658617" lon="16.1029283"><ele>12.0</ele><time>2026-04-12T10:35:32.97Z</time></trkpt><trkpt lat="37.96598" lon="16.1030133"><ele>12.0</ele><time>2026-04-12T10:35:33.97Z</time></trkpt><trkpt lat="37.966105" lon="16.1030983"><ele>12.0</ele><time>2026-04-12T10:35:34.971Z</time></trkpt><trkpt lat="37.96623" lon="16.1031817"><ele>12.0</ele><time>2026-04-12T10:35:35.971Z</time></trkpt><trkpt lat="37.9663567" lon="16.1032717"><ele>12.0</ele><time>2026-04-12T10:35:36.97Z</time></trkpt><trkpt lat="37.9664717" lon="16.1033733"><ele>12.0</ele><time>2026-04-12T10:35:37.971Z</time></trkpt><trkpt lat="37.9665817" lon="16.1034667"><ele>12.0</ele><time>2026-04-12T10:35:38.97Z</time></trkpt><trkpt lat="37.9666833" lon="16.1035567"><ele>12.0</ele><time>2026-04-12T10:35:39.97Z</time></trkpt><trkpt lat="37.9667833" lon="16.1036283"><ele>13.2</ele><time>2026-04-12T10:35:40.97Z</time></trkpt><trkpt lat="37.9668783" lon="16.1036867"><ele>14.399999999999999</ele><time>2026-04-12T10:35:41.97Z</time></trkpt><trkpt lat="37.966965" lon="16.1037467"><ele>15.600000000000001</ele><time>2026-04-12T10:35:42.97Z</time></trkpt><trkpt lat="37.9670417" lon="16.1038133"><ele>16.8</ele><time>2026-04-12T10:35:43.971Z</time></trkpt><trkpt lat="37.9671233" lon="16.10387"><ele>18.0</ele><time>2026-04-12T10:35:44.971Z</time></trkpt><trkpt lat="37.9671983" lon="16.103925"><ele>18.0</ele><time>2026-04-12T10:35:45.97Z</time></trkpt><trkpt lat="37.9672767" lon="16.1039767"><ele>18.0</ele><time>2026-04-12T10:35:46.971Z</time></trkpt><trkpt lat="37.9673617" lon="16.1040333"><ele>18.0</ele><time>2026-04-12T10:35:47.971Z</time></trkpt><trkpt lat="37.9674567" lon="16.1040967"><ele>18.0</ele><time>2026-04-12T10:35:48.97Z</time></trkpt><trkpt lat="37.9675417" lon="16.1041683"><ele>18.0</ele><time>2026-04-12T10:35:49.97Z</time></trkpt><trkpt lat="37.9676317" lon="16.10423"><ele>16.8</ele><time>2026-04-12T10:35:50.97Z</time></trkpt><trkpt lat="37.9677167" lon="16.1042983"><ele>15.600000000000001</ele><time>2026-04-12T10:35:51.97Z</time></trkpt><trkpt lat="37.967805" lon="16.10436"><ele>14.399999999999999</ele><time>2026-04-12T10:35:52.97Z</time></trkpt><trkpt lat="37.9678933" lon="16.1044117"><ele>13.2</ele><time>2026-04-12T10:35:53.97Z</time></trkpt><trkpt lat="37.9679933" lon="16.1044783"><ele>12.0</ele><time>2026-04-12T10:35:54.97Z</time></trkpt><trkpt lat="37.968095" lon="16.1045467"><ele>12.0</ele><time>2026-04-12T10:35:55.971Z</time></trkpt><trkpt lat="37.9682017" lon="16.1046217"><ele>12.0</ele><time>2026-04-12T10:35:56.97Z</time></trkpt><trkpt lat="37.968295" lon="16.10472"><ele>12.0</ele><time>2026-04-12T10:35:57.97Z</time></trkpt><trkpt lat="37.9684" lon="16.10481"><ele>12.0</ele><time>2026-04-12T10:35:58.97Z</time></trkpt><trkpt lat="37.968495" lon="16.104895"><ele>11.0</ele><time>2026-04-12T10:35:59.97Z</time></trkpt><trkpt lat="37.968585" lon="16.104965"><ele>10.0</ele><time>2026-04-12T10:36:00.97Z</time></trkpt><trkpt lat="37.968665" lon="16.1050167"><ele>9.0</ele><time>2026-04-12T10:36:01.97Z</time></trkpt><trkpt lat="37.9687333" lon="16.1050583"><ele>8.0</ele><time>2026-04-12T10:36:02.97Z</time></trkpt><trkpt lat="37.968805" lon="16.1050867"><ele>7.0</ele><time>2026-04-12T10:36:04.971Z</time></trkpt><trkpt lat="37.9689067" lon="16.1051567"><ele>7.0</ele><time>2026-04-12T10:36:51.971Z</time></trkpt><trkpt lat="37.9689867" lon="16.1051983"><ele>7.0</ele><time>2026-04-12T10:36:52.971Z</time></trkpt><trkpt lat="37.96909" lon="16.1052583"><ele>7.0</ele><time>2026-04-12T10:36:53.97Z</time></trkpt><trkpt lat="37.9692033" lon="16.10534"><ele>7.0</ele><time>2026-04-12T10:36:54.97Z</time></trkpt><trkpt lat="37.9693317" lon="16.1054333"><ele>6.666666666666667</ele><time>2026-04-12T10:36:55.97Z</time></trkpt><trkpt lat="37.9694717" lon="16.10554"><ele>6.333333333333334</ele><time>2026-04-12T10:36:56.97Z</time></trkpt><trkpt lat="37.9696133" lon="16.105655"><ele>6.0</ele><time>2026-04-12T10:36:57.97Z</time></trkpt><trkpt lat="37.96976" lon="16.1057733"><ele>6.0</ele><time>2026-04-12T10:36:58.97Z</time></trkpt><trkpt lat="37.9699133" lon="16.1058983"><ele>6.0</ele><time>2026-04-12T10:36:59.97Z</time></trkpt><trkpt lat="37.9700783" lon="16.1060267"><ele>6.0</ele><time>2026-04-12T10:37:00.97Z</time></trkpt><trkpt lat="37.97025" lon="16.1061483"><ele>6.333333333333334</ele><time>2026-04-12T10:37:01.971Z</time></trkpt><trkpt lat="37.9704267" lon="16.106275"><ele>6.666666666666667</ele><time>2026-04-12T10:37:02.97Z</time></trkpt><trkpt lat="37.9705983" lon="16.1064033"><ele>7.0</ele><time>2026-04-12T10:37:03.97Z</time></trkpt><trkpt lat="37.970775" lon="16.10653"><ele>7.333333333333334</ele><time>2026-04-12T10:37:04.971Z</time></trkpt><trkpt lat="37.9709467" lon="16.1066633"><ele>7.666666666666666</ele><time>2026-04-12T10:37:05.97Z</time></trkpt><trkpt lat="37.9711267" lon="16.106795"><ele>8.0</ele><time>2026-04-12T10:37:06.971Z</time></trkpt><trkpt lat="37.9713117" lon="16.10693"><ele>8.0</ele><time>2026-04-12T10:37:07.971Z</time></trkpt><trkpt lat="37.9715" lon="16.1070733"><ele>8.0</ele><time>2026-04-12T10:37:08.971Z</time></trkpt><trkpt lat="37.9716933" lon="16.1072117"><ele>8.0</ele><time>2026-04-12T10:37:09.97Z</time></trkpt><trkpt lat="37.9718867" lon="16.1073483"><ele>8.0</ele><time>2026-04-12T10:37:10.971Z</time></trkpt><trkpt lat="37.97208" lon="16.1074917"><ele>8.0</ele><time>2026-04-12T10:37:11.971Z</time></trkpt><trkpt lat="37.9722733" lon="16.1076367"><ele>8.0</ele><time>2026-04-12T10:37:12.97Z</time></trkpt><trkpt lat="37.9724717" lon="16.1077783"><ele>9.5</ele><time>2026-04-12T10:37:13.97Z</time></trkpt><trkpt lat="37.9726717" lon="16.10793"><ele>11.0</ele><time>2026-04-12T10:37:14.971Z</time></trkpt><trkpt lat="37.9728733" lon="16.1080867"><ele>11.0</ele><time>2026-04-12T10:37:15.97Z</time></trkpt><trkpt lat="37.9730717" lon="16.1082367"><ele>11.0</ele><time>2026-04-12T10:37:16.97Z</time></trkpt><trkpt lat="37.97327" lon="16.1084033"><ele>10.5</ele><time>2026-04-12T10:37:17.97Z</time></trkpt><trkpt lat="37.9734567" lon="16.10858"><ele>10.0</ele><time>2026-04-12T10:37:18.971Z</time></trkpt><trkpt lat="37.973645" lon="16.1087783"><ele>10.0</ele><time>2026-04-12T10:37:19.97Z</time></trkpt><trkpt lat="37.9738317" lon="16.1089733"><ele>10.0</ele><time>2026-04-12T10:37:20.971Z</time></trkpt><trkpt lat="37.9740183" lon="16.1091667"><ele>9.5</ele><time>2026-04-12T10:37:21.97Z</time></trkpt><trkpt lat="37.9742017" lon="16.10936"><ele>9.0</ele><time>2026-04-12T10:37:22.971Z</time></trkpt><trkpt lat="37.97439" lon="16.1095517"><ele>9.0</ele><time>2026-04-12T10:37:23.97Z</time></trkpt><trkpt lat="37.97458" lon="16.1097467"><ele>9.0</ele><time>2026-04-12T10:37:24.971Z</time></trkpt><trkpt lat="37.9747717" lon="16.109945"><ele>8.0</ele><time>2026-04-12T10:37:25.97Z</time></trkpt><trkpt lat="37.97496" lon="16.1101417"><ele>7.0</ele><time>2026-04-12T10:37:26.97Z</time></trkpt><trkpt lat="37.9751417" lon="16.1103383"><ele>9.5</ele><time>2026-04-12T10:37:27.97Z</time></trkpt><trkpt lat="37.9753267" lon="16.1105383"><ele>12.0</ele><time>2026-04-12T10:37:28.971Z</time></trkpt><trkpt lat="37.975515" lon="16.1107333"><ele>12.0</ele><time>2026-04-12T10:37:29.971Z</time></trkpt><trkpt lat="37.9757117" lon="16.1109333"><ele>12.0</ele><time>2026-04-12T10:37:30.97Z</time></trkpt><trkpt lat="37.9759033" lon="16.1111333"><ele>12.0</ele><time>2026-04-12T10:37:31.971Z</time></trkpt><trkpt lat="37.9760933" lon="16.111325"><ele>12.0</ele><time>2026-04-12T10:37:32.97Z</time></trkpt><trkpt lat="37.9762833" lon="16.1115083"><ele>9.0</ele><time>2026-04-12T10:37:33.971Z</time></trkpt><trkpt lat="37.9764767" lon="16.1116783"><ele>6.0</ele><time>2026-04-12T10:37:34.97Z</time></trkpt><trkpt lat="37.97667" lon="16.1118533"><ele>8.5</ele><time>2026-04-12T10:37:35.97Z</time></trkpt><trkpt lat="37.9768633" lon="16.112015"><ele>11.0</ele><time>2026-04-12T10:37:36.97Z</time></trkpt><trkpt lat="37.9770583" lon="16.11216"><ele>11.0</ele><time>2026-04-12T10:37:37.97Z</time></trkpt><trkpt lat="37.9772517" lon="16.112315"><ele>11.0</ele><time>2026-04-12T10:37:38.97Z</time></trkpt><trkpt lat="37.97745" lon="16.11247"><ele>10.0</ele><time>2026-04-12T10:37:39.97Z</time></trkpt><trkpt lat="37.9776533" lon="16.1126133"><ele>9.0</ele><time>2026-04-12T10:37:40.97Z</time></trkpt><trkpt lat="37.977865" lon="16.11275"><ele>9.0</ele><time>2026-04-12T10:37:41.97Z</time></trkpt><trkpt lat="37.9780817" lon="16.112885"><ele>9.0</ele><time>2026-04-12T10:37:42.97Z</time></trkpt><trkpt lat="37.9783" lon="16.1130067"><ele>9.0</ele><time>2026-04-12T10:37:43.97Z</time></trkpt><trkpt lat="37.97852" lon="16.113135"><ele>9.0</ele><time>2026-04-12T10:37:44.97Z</time></trkpt><trkpt lat="37.9787467" lon="16.11326"><ele>9.0</ele><time>2026-04-12T10:37:45.97Z</time></trkpt><trkpt lat="37.9789717" lon="16.1133917"><ele>9.0</ele><time>2026-04-12T10:37:46.97Z</time></trkpt><trkpt lat="37.9792033" lon="16.1135233"><ele>10.0</ele><time>2026-04-12T10:37:47.971Z</time></trkpt><trkpt lat="37.9794283" lon="16.1136567"><ele>11.0</ele><time>2026-04-12T10:37:48.97Z</time></trkpt><trkpt lat="37.97966" lon="16.1137867"><ele>11.0</ele><time>2026-04-12T10:37:49.97Z</time></trkpt><trkpt lat="37.9798867" lon="16.1139183"><ele>11.0</ele><time>2026-04-12T10:37:50.97Z</time></trkpt><trkpt lat="37.9801183" lon="16.1140467"><ele>9.0</ele><time>2026-04-12T10:37:51.97Z</time></trkpt><trkpt lat="37.9803533" lon="16.1141933"><ele>7.0</ele><time>2026-04-12T10:37:52.97Z</time></trkpt><trkpt lat="37.9805967" lon="16.1143333"><ele>7.0</ele><time>2026-04-12T10:37:53.97Z</time></trkpt><trkpt lat="37.9808433" lon="16.114475"><ele>7.0</ele><time>2026-04-12T10:37:54.97Z</time></trkpt><trkpt lat="37.98109" lon="16.114615"><ele>6.5</ele><time>2026-04-12T10:37:55.97Z</time></trkpt><trkpt lat="37.9813317" lon="16.1147617"><ele>6.0</ele><time>2026-04-12T10:37:56.97Z</time></trkpt><trkpt lat="37.9815817" lon="16.1148933"><ele>5.0</ele><time>2026-04-12T10:37:57.97Z</time></trkpt><trkpt lat="37.9818217" lon="16.1150367"><ele>4.0</ele><time>2026-04-12T10:37:58.97Z</time></trkpt><trkpt lat="37.9820617" lon="16.11518"><ele>4.0</ele><time>2026-04-12T10:37:59.97Z</time></trkpt><trkpt lat="37.9822967" lon="16.1153217"><ele>4.0</ele><time>2026-04-12T10:38:00.97Z</time></trkpt><trkpt lat="37.98254" lon="16.1154583"><ele>4.5</ele><time>2026-04-12T10:38:01.97Z</time></trkpt><trkpt lat="37.982775" lon="16.1155917"><ele>5.0</ele><time>2026-04-12T10:38:02.97Z</time></trkpt><trkpt lat="37.9830117" lon="16.1157317"><ele>5.0</ele><time>2026-04-12T10:38:03.97Z</time></trkpt><trkpt lat="37.9832583" lon="16.115865"><ele>5.0</ele><time>2026-04-12T10:38:04.97Z</time></trkpt><trkpt lat="37.9835" lon="16.1160067"><ele>5.0</ele><time>2026-04-12T10:38:05.97Z</time></trkpt><trkpt lat="37.9837433" lon="16.11614"><ele>5.0</ele><time>2026-04-12T10:38:06.97Z</time></trkpt><trkpt lat="37.9839817" lon="16.1162867"><ele>5.0</ele><time>2026-04-12T10:38:07.97Z</time></trkpt><trkpt lat="37.984225" lon="16.1164283"><ele>5.0</ele><time>2026-04-12T10:38:08.97Z</time></trkpt><trkpt lat="37.9844667" lon="16.1165617"><ele>5.0</ele><time>2026-04-12T10:38:09.97Z</time></trkpt><trkpt lat="37.9847067" lon="16.1166967"><ele>5.0</ele><time>2026-04-12T10:38:10.97Z</time></trkpt><trkpt lat="37.9849433" lon="16.1168317"><ele>5.0</ele><time>2026-04-12T10:38:11.971Z</time></trkpt><trkpt lat="37.985175" lon="16.1169583"><ele>5.0</ele><time>2026-04-12T10:38:12.97Z</time></trkpt><trkpt lat="37.9853983" lon="16.1170783"><ele>5.0</ele><time>2026-04-12T10:38:13.97Z</time></trkpt><trkpt lat="37.985625" lon="16.1171883"><ele>5.0</ele><time>2026-04-12T10:38:14.971Z</time></trkpt><trkpt lat="37.9858467" lon="16.1173017"><ele>5.333333333333334</ele><time>2026-04-12T10:38:15.97Z</time></trkpt><trkpt lat="37.9860483" lon="16.1174167"><ele>5.666666666666667</ele><time>2026-04-12T10:38:16.97Z</time></trkpt><trkpt lat="37.9862467" lon="16.1175417"><ele>6.0</ele><time>2026-04-12T10:38:17.97Z</time></trkpt><trkpt lat="37.9864483" lon="16.11768"><ele>6.0</ele><time>2026-04-12T10:38:18.97Z</time></trkpt><trkpt lat="37.986645" lon="16.117815"><ele>6.0</ele><time>2026-04-12T10:38:19.97Z</time></trkpt><trkpt lat="37.9868433" lon="16.117945"><ele>6.0</ele><time>2026-04-12T10:38:20.97Z</time></trkpt><trkpt lat="37.987045" lon="16.1180733"><ele>6.5</ele><time>2026-04-12T10:38:21.97Z</time></trkpt><trkpt lat="37.987245" lon="16.1182"><ele>7.0</ele><time>2026-04-12T10:38:22.97Z</time></trkpt><trkpt lat="37.98745" lon="16.118325"><ele>7.5</ele><time>2026-04-12T10:38:23.97Z</time></trkpt><trkpt lat="37.987655" lon="16.1184533"><ele>8.0</ele><time>2026-04-12T10:38:24.97Z</time></trkpt><trkpt lat="37.9878633" lon="16.1185783"><ele>8.0</ele><time>2026-04-12T10:38:25.97Z</time></trkpt><trkpt lat="37.9880767" lon="16.1187"><ele>8.0</ele><time>2026-04-12T10:38:26.97Z</time></trkpt><trkpt lat="37.9882933" lon="16.1188183"><ele>7.5</ele><time>2026-04-12T10:38:27.971Z</time></trkpt><trkpt lat="37.988505" lon="16.1189417"><ele>7.0</ele><time>2026-04-12T10:38:28.971Z</time></trkpt><trkpt lat="37.9887167" lon="16.1190683"><ele>7.0</ele><time>2026-04-12T10:38:29.97Z</time></trkpt><trkpt lat="37.988925" lon="16.1191883"><ele>7.0</ele><time>2026-04-12T10:38:30.97Z</time></trkpt><trkpt lat="37.98913" lon="16.1193117"><ele>8.5</ele><time>2026-04-12T10:38:31.97Z</time></trkpt><trkpt lat="37.9893367" lon="16.119425"><ele>10.0</ele><time>2026-04-12T10:38:32.97Z</time></trkpt><trkpt lat="37.9895383" lon="16.1195517"><ele>10.0</ele><time>2026-04-12T10:38:33.971Z</time></trkpt><trkpt lat="37.98974" lon="16.119665"><ele>10.0</ele><time>2026-04-12T10:38:34.971Z</time></trkpt><trkpt lat="37.9899267" lon="16.1197717"><ele>10.0</ele><time>2026-04-12T10:38:35.97Z</time></trkpt><trkpt lat="37.990105" lon="16.1198717"><ele>9.0</ele><time>2026-04-12T10:38:36.97Z</time></trkpt><trkpt lat="37.99028" lon="16.119975"><ele>8.0</ele><time>2026-04-12T10:38:37.97Z</time></trkpt><trkpt lat="37.990455" lon="16.1200717"><ele>7.0</ele><time>2026-04-12T10:38:38.971Z</time></trkpt><trkpt lat="37.9906317" lon="16.120165"><ele>7.0</ele><time>2026-04-12T10:38:39.97Z</time></trkpt><trkpt lat="37.99081" lon="16.1202617"><ele>7.0</ele><time>2026-04-12T10:38:40.97Z</time></trkpt><trkpt lat="37.9909917" lon="16.120355"><ele>7.0</ele><time>2026-04-12T10:38:41.97Z</time></trkpt><trkpt lat="37.991175" lon="16.1204417"><ele>8.333333333333334</ele><time>2026-04-12T10:38:42.97Z</time></trkpt><trkpt lat="37.9913617" lon="16.1205267"><ele>9.666666666666666</ele><time>2026-04-12T10:38:43.97Z</time></trkpt><trkpt lat="37.9915533" lon="16.1206083"><ele>11.0</ele><time>2026-04-12T10:38:44.97Z</time></trkpt><trkpt lat="37.9917617" lon="16.1206883"><ele>10.5</ele><time>2026-04-12T10:38:45.97Z</time></trkpt><trkpt lat="37.99198" lon="16.1207767"><ele>10.0</ele><time>2026-04-12T10:38:46.97Z</time></trkpt><trkpt lat="37.9922167" lon="16.12086"><ele>10.0</ele><time>2026-04-12T10:38:47.97Z</time></trkpt><trkpt lat="37.9924533" lon="16.1209433"><ele>10.0</ele><time>2026-04-12T10:38:48.97Z</time></trkpt><trkpt lat="37.9927033" lon="16.1210317"><ele>11.5</ele><time>2026-04-12T10:38:49.97Z</time></trkpt><trkpt lat="37.9929667" lon="16.12112"><ele>13.0</ele><time>2026-04-12T10:38:50.97Z</time></trkpt><trkpt lat="37.9932333" lon="16.1212117"><ele>15.5</ele><time>2026-04-12T10:38:51.97Z</time></trkpt><trkpt lat="37.9935017" lon="16.1213067"><ele>18.0</ele><time>2026-04-12T10:38:52.97Z</time></trkpt><trkpt lat="37.9937783" lon="16.1214117"><ele>18.0</ele><time>2026-04-12T10:38:53.97Z</time></trkpt><trkpt lat="37.9940467" lon="16.12151"><ele>18.0</ele><time>2026-04-12T10:38:54.97Z</time></trkpt><trkpt lat="37.99432" lon="16.1216067"><ele>14.5</ele><time>2026-04-12T10:38:55.97Z</time></trkpt><trkpt lat="37.99459" lon="16.1217017"><ele>11.0</ele><time>2026-04-12T10:38:56.971Z</time></trkpt><trkpt lat="37.9948633" lon="16.1217933"><ele>13.0</ele><time>2026-04-12T10:38:57.97Z</time></trkpt><trkpt lat="37.995125" lon="16.12188"><ele>15.0</ele><time>2026-04-12T10:38:58.97Z</time></trkpt><trkpt lat="37.9953783" lon="16.1219733"><ele>15.0</ele><time>2026-04-12T10:38:59.97Z</time></trkpt><trkpt lat="37.995625" lon="16.1220617"><ele>15.0</ele><time>2026-04-12T10:39:00.97Z</time></trkpt><trkpt lat="37.99587" lon="16.1221517"><ele>20.0</ele><time>2026-04-12T10:39:01.97Z</time></trkpt><trkpt lat="37.9961083" lon="16.1222367"><ele>25.0</ele><time>2026-04-12T10:39:02.97Z</time></trkpt><trkpt lat="37.9963433" lon="16.122325"><ele>18.5</ele><time>2026-04-12T10:39:03.97Z</time></trkpt><trkpt lat="37.9965833" lon="16.1224067"><ele>12.0</ele><time>2026-04-12T10:39:04.971Z</time></trkpt><trkpt lat="37.996825" lon="16.1224917"><ele>12.0</ele><time>2026-04-12T10:39:05.97Z</time></trkpt><trkpt lat="37.99706" lon="16.1225767"><ele>12.0</ele><time>2026-04-12T10:39:06.97Z</time></trkpt><trkpt lat="37.997295" lon="16.12266"><ele>11.0</ele><time>2026-04-12T10:39:07.97Z</time></trkpt><trkpt lat="37.9975233" lon="16.12274"><ele>10.0</ele><time>2026-04-12T10:39:08.971Z</time></trkpt><trkpt lat="37.9977533" lon="16.122815"><ele>10.0</ele><time>2026-04-12T10:39:09.971Z</time></trkpt><trkpt lat="37.9979817" lon="16.122875"><ele>10.0</ele><time>2026-04-12T10:39:10.97Z</time></trkpt><trkpt lat="37.9982117" lon="16.1228967"><ele>9.0</ele><time>2026-04-12T10:39:11.97Z</time></trkpt><trkpt lat="37.9984317" lon="16.1228883"><ele>8.0</ele><time>2026-04-12T10:39:12.97Z</time></trkpt><trkpt lat="37.9986417" lon="16.1228617"><ele>7.0</ele><time>2026-04-12T10:39:13.97Z</time></trkpt><trkpt lat="37.99884" lon="16.1228417"><ele>7.0</ele><time>2026-04-12T10:39:14.97Z</time></trkpt><trkpt lat="37.9990367" lon="16.12283"><ele>7.0</ele><time>2026-04-12T10:39:15.97Z</time></trkpt><trkpt lat="37.9992183" lon="16.1228283"><ele>7.0</ele><time>2026-04-12T10:39:16.97Z</time></trkpt><trkpt lat="37.99941" lon="16.122845"><ele>7.666666666666667</ele><time>2026-04-12T10:39:17.97Z</time></trkpt><trkpt lat="37.9995933" lon="16.1228783"><ele>8.333333333333334</ele><time>2026-04-12T10:39:18.97Z</time></trkpt><trkpt lat="37.9997567" lon="16.12294"><ele>9.0</ele><time>2026-04-12T10:39:19.97Z</time></trkpt><trkpt lat="37.999905" lon="16.1230217"><ele>9.0</ele><time>2026-04-12T10:39:20.971Z</time></trkpt><trkpt lat="38.0000533" lon="16.123125"><ele>9.0</ele><time>2026-04-12T10:39:21.97Z</time></trkpt><trkpt lat="38.0001967" lon="16.123245"><ele>9.0</ele><time>2026-04-12T10:39:22.97Z</time></trkpt><trkpt lat="38.000335" lon="16.1233817"><ele>8.333333333333334</ele><time>2026-04-12T10:39:23.971Z</time></trkpt><trkpt lat="38.0004617" lon="16.1235283"><ele>7.666666666666667</ele><time>2026-04-12T10:39:24.971Z</time></trkpt><trkpt lat="38.0005867" lon="16.1236917"><ele>7.0</ele><time>2026-04-12T10:39:25.97Z</time></trkpt><trkpt lat="38.0007183" lon="16.123875"><ele>7.5</ele><time>2026-04-12T10:39:26.97Z</time></trkpt><trkpt lat="38.00087" lon="16.1240717"><ele>8.0</ele><time>2026-04-12T10:39:27.971Z</time></trkpt><trkpt lat="38.00104" lon="16.1242767"><ele>8.0</ele><time>2026-04-12T10:39:28.97Z</time></trkpt><trkpt lat="38.0012133" lon="16.1245033"><ele>8.0</ele><time>2026-04-12T10:39:29.97Z</time></trkpt><trkpt lat="38.0013633" lon="16.1247267"><ele>7.333333333333333</ele><time>2026-04-12T10:39:30.97Z</time></trkpt><trkpt lat="38.0015083" lon="16.1249417"><ele>6.666666666666666</ele><time>2026-04-12T10:39:31.971Z</time></trkpt><trkpt lat="38.001645" lon="16.1251467"><ele>6.0</ele><time>2026-04-12T10:39:32.97Z</time></trkpt><trkpt lat="38.0017717" lon="16.1253233"><ele>5.333333333333333</ele><time>2026-04-12T10:39:33.97Z</time></trkpt><trkpt lat="38.0018817" lon="16.1254733"><ele>4.666666666666666</ele><time>2026-04-12T10:39:34.97Z</time></trkpt><trkpt lat="38.00199" lon="16.125615"><ele>4.0</ele><time>2026-04-12T10:39:35.971Z</time></trkpt><trkpt lat="38.0021067" lon="16.125735"><ele>4.0</ele><time>2026-04-12T10:39:36.97Z</time></trkpt><trkpt lat="38.0022333" lon="16.125845"><ele>4.0</ele><time>2026-04-12T10:39:37.97Z</time></trkpt><trkpt lat="38.00238" lon="16.1259483"><ele>4.0</ele><time>2026-04-12T10:39:38.97Z</time></trkpt><trkpt lat="38.0025467" lon="16.1260533"><ele>6.333333333333333</ele><time>2026-04-12T10:39:39.97Z</time></trkpt><trkpt lat="38.0027317" lon="16.1261683"><ele>8.666666666666666</ele><time>2026-04-12T10:39:40.97Z</time></trkpt><trkpt lat="38.0029417" lon="16.1262983"><ele>11.0</ele><time>2026-04-12T10:39:41.97Z</time></trkpt><trkpt lat="38.0031683" lon="16.1264233"><ele>9.5</ele><time>2026-04-12T10:39:42.97Z</time></trkpt><trkpt lat="38.0034033" lon="16.1265567"><ele>8.0</ele><time>2026-04-12T10:39:43.97Z</time></trkpt><trkpt lat="38.0036483" lon="16.126685"><ele>8.0</ele><time>2026-04-12T10:39:44.97Z</time></trkpt><trkpt lat="38.00391" lon="16.1268317"><ele>8.0</ele><time>2026-04-12T10:39:45.97Z</time></trkpt><trkpt lat="38.0041733" lon="16.1269717"><ele>13.5</ele><time>2026-04-12T10:39:46.97Z</time></trkpt><trkpt lat="38.0044133" lon="16.12711"><ele>19.0</ele><time>2026-04-12T10:39:47.97Z</time></trkpt><trkpt lat="38.0046417" lon="16.1272233"><ele>19.0</ele><time>2026-04-12T10:39:48.97Z</time></trkpt><trkpt lat="38.0048683" lon="16.1273217"><ele>19.0</ele><time>2026-04-12T10:39:49.97Z</time></trkpt><trkpt lat="38.0050917" lon="16.1274133"><ele>15.0</ele><time>2026-04-12T10:39:50.97Z</time></trkpt><trkpt lat="38.0053133" lon="16.1275067"><ele>11.0</ele><time>2026-04-12T10:39:51.97Z</time></trkpt><trkpt lat="38.0055383" lon="16.1275967"><ele>11.0</ele><time>2026-04-12T10:39:52.97Z</time></trkpt><trkpt lat="38.0057633" lon="16.1276917"><ele>11.0</ele><time>2026-04-12T10:39:53.97Z</time></trkpt><trkpt lat="38.00599" lon="16.1277917"><ele>11.0</ele><time>2026-04-12T10:39:54.971Z</time></trkpt><trkpt lat="38.0062217" lon="16.1278967"><ele>11.0</ele><time>2026-04-12T10:39:55.97Z</time></trkpt><trkpt lat="38.0064467" lon="16.128"><ele>10.0</ele><time>2026-04-12T10:39:56.97Z</time></trkpt><trkpt lat="38.0066733" lon="16.1281233"><ele>9.0</ele><time>2026-04-12T10:39:57.97Z</time></trkpt><trkpt lat="38.0068933" lon="16.1282517"><ele>9.0</ele><time>2026-04-12T10:39:58.97Z</time></trkpt><trkpt lat="38.007115" lon="16.12838"><ele>9.0</ele><time>2026-04-12T10:39:59.97Z</time></trkpt><trkpt lat="38.00734" lon="16.1285117"><ele>12.5</ele><time>2026-04-12T10:40:00.971Z</time></trkpt><trkpt lat="38.007565" lon="16.1286367"><ele>16.0</ele><time>2026-04-12T10:40:01.97Z</time></trkpt><trkpt lat="38.0077883" lon="16.1287683"><ele>16.0</ele><time>2026-04-12T10:40:02.971Z</time></trkpt><trkpt lat="38.0080167" lon="16.1289017"><ele>16.0</ele><time>2026-04-12T10:40:03.97Z</time></trkpt><trkpt lat="38.0082467" lon="16.1290333"><ele>13.0</ele><time>2026-04-12T10:40:04.97Z</time></trkpt><trkpt lat="38.0084767" lon="16.1291667"><ele>10.0</ele><time>2026-04-12T10:40:05.971Z</time></trkpt><trkpt lat="38.00871" lon="16.12931"><ele>10.0</ele><time>2026-04-12T10:40:06.97Z</time></trkpt><trkpt lat="38.00894" lon="16.1294533"><ele>10.0</ele><time>2026-04-12T10:40:07.97Z</time></trkpt><trkpt lat="38.0091733" lon="16.1295967"><ele>10.5</ele><time>2026-04-12T10:40:08.971Z</time></trkpt><trkpt lat="38.009405" lon="16.1297467"><ele>11.0</ele><time>2026-04-12T10:40:09.971Z</time></trkpt><trkpt lat="38.0096417" lon="16.1298967"><ele>10.0</ele><time>2026-04-12T10:40:10.97Z</time></trkpt><trkpt lat="38.009875" lon="16.1300417"><ele>9.0</ele><time>2026-04-12T10:40:11.97Z</time></trkpt><trkpt lat="38.01011" lon="16.13019"><ele>9.0</ele><time>2026-04-12T10:40:12.971Z</time></trkpt><trkpt lat="38.0103433" lon="16.130335"><ele>9.0</ele><time>2026-04-12T10:40:13.97Z</time></trkpt><trkpt lat="38.0105817" lon="16.1304817"><ele>9.0</ele><time>2026-04-12T10:40:14.971Z</time></trkpt><trkpt lat="38.010815" lon="16.1306267"><ele>9.0</ele><time>2026-04-12T10:40:15.97Z</time></trkpt><trkpt lat="38.0110467" lon="16.130765"><ele>10.0</ele><time>2026-04-12T10:40:16.971Z</time></trkpt><trkpt lat="38.0112783" lon="16.1309083"><ele>11.0</ele><time>2026-04-12T10:40:17.97Z</time></trkpt><trkpt lat="38.0114983" lon="16.1310517"><ele>15.0</ele><time>2026-04-12T10:40:18.971Z</time></trkpt><trkpt lat="38.0117167" lon="16.131185"><ele>19.0</ele><time>2026-04-12T10:40:19.97Z</time></trkpt><trkpt lat="38.0119333" lon="16.1313233"><ele>19.0</ele><time>2026-04-12T10:40:20.97Z</time></trkpt><trkpt lat="38.0121483" lon="16.1314533"><ele>19.0</ele><time>2026-04-12T10:40:21.97Z</time></trkpt><trkpt lat="38.0123667" lon="16.13159"><ele>17.0</ele><time>2026-04-12T10:40:22.971Z</time></trkpt><trkpt lat="38.01259" lon="16.131725"><ele>15.0</ele><time>2026-04-12T10:40:23.97Z</time></trkpt><trkpt lat="38.01281" lon="16.131855"><ele>15.0</ele><time>2026-04-12T10:40:24.97Z</time></trkpt><trkpt lat="38.0130317" lon="16.1319833"><ele>15.0</ele><time>2026-04-12T10:40:25.971Z</time></trkpt><trkpt lat="38.0132483" lon="16.13212"><ele>13.5</ele><time>2026-04-12T10:40:26.97Z</time></trkpt><trkpt lat="38.0134717" lon="16.132255"><ele>12.0</ele><time>2026-04-12T10:40:27.97Z</time></trkpt><trkpt lat="38.013695" lon="16.1323917"><ele>12.0</ele><time>2026-04-12T10:40:28.971Z</time></trkpt><trkpt lat="38.0139183" lon="16.1325233"><ele>12.0</ele><time>2026-04-12T10:40:29.97Z</time></trkpt><trkpt lat="38.0141417" lon="16.1326617"><ele>15.5</ele><time>2026-04-12T10:40:30.97Z</time></trkpt><trkpt lat="38.0143583" lon="16.1327883"><ele>19.0</ele><time>2026-04-12T10:40:31.971Z</time></trkpt><trkpt lat="38.0145817" lon="16.1329183"><ele>19.0</ele><time>2026-04-12T10:40:32.97Z</time></trkpt><trkpt lat="38.0147983" lon="16.1330483"><ele>19.0</ele><time>2026-04-12T10:40:33.97Z</time></trkpt><trkpt lat="38.01501" lon="16.1331733"><ele>17.666666666666664</ele><time>2026-04-12T10:40:34.97Z</time></trkpt><trkpt lat="38.015215" lon="16.1332967"><ele>16.333333333333332</ele><time>2026-04-12T10:40:35.97Z</time></trkpt><trkpt lat="38.0154133" lon="16.133415"><ele>15.0</ele><time>2026-04-12T10:40:36.971Z</time></trkpt><trkpt lat="38.0156033" lon="16.1335317"><ele>15.0</ele><time>2026-04-12T10:40:37.97Z</time></trkpt><trkpt lat="38.0157817" lon="16.1336417"><ele>15.0</ele><time>2026-04-12T10:40:38.971Z</time></trkpt><trkpt lat="38.0159617" lon="16.1337417"><ele>15.0</ele><time>2026-04-12T10:40:39.97Z</time></trkpt><trkpt lat="38.0161367" lon="16.1338167"><ele>16.666666666666668</ele><time>2026-04-12T10:40:40.971Z</time></trkpt><trkpt lat="38.016315" lon="16.1338783"><ele>18.333333333333336</ele><time>2026-04-12T10:40:41.971Z</time></trkpt><trkpt lat="38.0165017" lon="16.1338833"><ele>20.0</ele><time>2026-04-12T10:40:42.97Z</time></trkpt><trkpt lat="38.016675" lon="16.1338467"><ele>20.0</ele><time>2026-04-12T10:40:43.971Z</time></trkpt><trkpt lat="38.0168567" lon="16.1337633"><ele>20.0</ele><time>2026-04-12T10:40:44.971Z</time></trkpt><trkpt lat="38.0170333" lon="16.1336367"><ele>20.0</ele><time>2026-04-12T10:40:45.97Z</time></trkpt><trkpt lat="38.0172183" lon="16.133525"><ele>20.0</ele><time>2026-04-12T10:40:46.97Z</time></trkpt><trkpt lat="38.0173867" lon="16.1334333"><ele>20.0</ele><time>2026-04-12T10:40:47.97Z</time></trkpt><trkpt lat="38.0175617" lon="16.1333817"><ele>20.0</ele><time>2026-04-12T10:40:48.971Z</time></trkpt><trkpt lat="38.01774" lon="16.1333883"><ele>17.333333333333336</ele><time>2026-04-12T10:40:49.97Z</time></trkpt><trkpt lat="38.0179233" lon="16.1334233"><ele>14.666666666666668</ele><time>2026-04-12T10:40:50.97Z</time></trkpt><trkpt lat="38.018105" lon="16.1334833"><ele>12.0</ele><time>2026-04-12T10:40:51.971Z</time></trkpt><trkpt lat="38.0182833" lon="16.1335583"><ele>10.666666666666666</ele><time>2026-04-12T10:40:52.97Z</time></trkpt><trkpt lat="38.018455" lon="16.1336483"><ele>9.333333333333332</ele><time>2026-04-12T10:40:53.97Z</time></trkpt><trkpt lat="38.0186317" lon="16.1337267"><ele>8.0</ele><time>2026-04-12T10:40:54.97Z</time></trkpt><trkpt lat="38.0188133" lon="16.13381"><ele>8.0</ele><time>2026-04-12T10:40:55.97Z</time></trkpt><trkpt lat="38.0189967" lon="16.133895"><ele>8.0</ele><time>2026-04-12T10:40:56.97Z</time></trkpt><trkpt lat="38.0191717" lon="16.1339667"><ele>8.0</ele><time>2026-04-12T10:40:57.971Z</time></trkpt><trkpt lat="38.0193283" lon="16.1340433"><ele>8.333333333333332</ele><time>2026-04-12T10:40:58.97Z</time></trkpt><trkpt lat="38.0194933" lon="16.1341217"><ele>8.666666666666666</ele><time>2026-04-12T10:40:59.97Z</time></trkpt><trkpt lat="38.0196417" lon="16.1342033"><ele>9.0</ele><time>2026-04-12T10:41:00.97Z</time></trkpt><trkpt lat="38.0197917" lon="16.1342883"><ele>9.0</ele><time>2026-04-12T10:41:01.97Z</time></trkpt><trkpt lat="38.0199317" lon="16.1344"><ele>9.0</ele><time>2026-04-12T10:41:02.971Z</time></trkpt><trkpt lat="38.0200583" lon="16.134535"><ele>9.0</ele><time>2026-04-12T10:41:03.97Z</time></trkpt><trkpt lat="38.0201683" lon="16.1346917"><ele>9.666666666666666</ele><time>2026-04-12T10:41:04.97Z</time></trkpt><trkpt lat="38.0202667" lon="16.1348567"><ele>10.333333333333332</ele><time>2026-04-12T10:41:05.971Z</time></trkpt><trkpt lat="38.0203767" lon="16.1350283"><ele>11.0</ele><time>2026-04-12T10:41:06.971Z</time></trkpt><trkpt lat="38.020475" lon="16.1351933"><ele>11.0</ele><time>2026-04-12T10:41:07.97Z</time></trkpt><trkpt lat="38.02057" lon="16.1353667"><ele>11.0</ele><time>2026-04-12T10:41:08.971Z</time></trkpt><trkpt lat="38.0206683" lon="16.135545"><ele>11.0</ele><time>2026-04-12T10:41:09.97Z</time></trkpt><trkpt lat="38.020785" lon="16.135725"><ele>12.333333333333332</ele><time>2026-04-12T10:41:10.971Z</time></trkpt><trkpt lat="38.0209133" lon="16.1359083"><ele>13.666666666666666</ele><time>2026-04-12T10:41:11.97Z</time></trkpt><trkpt lat="38.0210617" lon="16.13609"><ele>15.0</ele><time>2026-04-12T10:41:12.97Z</time></trkpt><trkpt lat="38.02121" lon="16.136295"><ele>15.0</ele><time>2026-04-12T10:41:13.971Z</time></trkpt><trkpt lat="38.0213833" lon="16.1364767"><ele>15.0</ele><time>2026-04-12T10:41:14.97Z</time></trkpt><trkpt lat="38.0215533" lon="16.1366733"><ele>16.5</ele><time>2026-04-12T10:41:15.97Z</time></trkpt><trkpt lat="38.0217317" lon="16.13688"><ele>18.0</ele><time>2026-04-12T10:41:16.971Z</time></trkpt><trkpt lat="38.02191" lon="16.137085"><ele>18.0</ele><time>2026-04-12T10:41:17.97Z</time></trkpt><trkpt lat="38.0220933" lon="16.1372967"><ele>18.0</ele><time>2026-04-12T10:41:18.97Z</time></trkpt><trkpt lat="38.022285" lon="16.1375033"><ele>17.5</ele><time>2026-04-12T10:41:19.97Z</time></trkpt><trkpt lat="38.0224783" lon="16.1377167"><ele>17.0</ele><time>2026-04-12T10:41:20.97Z</time></trkpt><trkpt lat="38.022685" lon="16.13792"><ele>17.0</ele><time>2026-04-12T10:41:21.97Z</time></trkpt><trkpt lat="38.02291" lon="16.1380817"><ele>17.0</ele><time>2026-04-12T10:41:22.97Z</time></trkpt><trkpt lat="38.0231517" lon="16.1382233"><ele>14.5</ele><time>2026-04-12T10:41:23.97Z</time></trkpt><trkpt lat="38.0234017" lon="16.1383533"><ele>12.0</ele><time>2026-04-12T10:41:24.97Z</time></trkpt><trkpt lat="38.02366" lon="16.13849"><ele>12.0</ele><time>2026-04-12T10:41:25.97Z</time></trkpt><trkpt lat="38.0239167" lon="16.1386167"><ele>12.0</ele><time>2026-04-12T10:41:26.97Z</time></trkpt><trkpt lat="38.0241767" lon="16.1387483"><ele>16.0</ele><time>2026-04-12T10:41:27.97Z</time></trkpt><trkpt lat="38.0244267" lon="16.1388817"><ele>20.0</ele><time>2026-04-12T10:41:28.97Z</time></trkpt><trkpt lat="38.0246667" lon="16.1389967"><ele>16.5</ele><time>2026-04-12T10:41:29.971Z</time></trkpt><trkpt lat="38.0249067" lon="16.1390933"><ele>13.0</ele><time>2026-04-12T10:41:30.97Z</time></trkpt><trkpt lat="38.02514" lon="16.1391783"><ele>13.0</ele><time>2026-04-12T10:41:31.97Z</time></trkpt><trkpt lat="38.0253717" lon="16.1392683"><ele>13.0</ele><time>2026-04-12T10:41:32.97Z</time></trkpt><trkpt lat="38.025595" lon="16.1393583"><ele>16.0</ele><time>2026-04-12T10:41:33.97Z</time></trkpt><trkpt lat="38.0258233" lon="16.1394517"><ele>19.0</ele><time>2026-04-12T10:41:34.97Z</time></trkpt><trkpt lat="38.0260567" lon="16.1395783"><ele>19.0</ele><time>2026-04-12T10:41:35.97Z</time></trkpt><trkpt lat="38.0262767" lon="16.1397267"><ele>19.0</ele><time>2026-04-12T10:41:36.97Z</time></trkpt><trkpt lat="38.026485" lon="16.139885"><ele>19.333333333333332</ele><time>2026-04-12T10:41:37.97Z</time></trkpt><trkpt lat="38.0266733" lon="16.1400333"><ele>19.666666666666668</ele><time>2026-04-12T10:41:38.97Z</time></trkpt><trkpt lat="38.0268367" lon="16.1401683"><ele>20.0</ele><time>2026-04-12T10:41:39.97Z</time></trkpt><trkpt lat="38.02696" lon="16.1402917"><ele>20.0</ele><time>2026-04-12T10:41:40.97Z</time></trkpt><trkpt lat="38.0270667" lon="16.14038"><ele>20.0</ele><time>2026-04-12T10:41:41.971Z</time></trkpt><trkpt lat="38.027155" lon="16.140465"><ele>20.0</ele><time>2026-04-12T10:41:42.971Z</time></trkpt><trkpt lat="38.02726" lon="16.14056"><ele>20.0</ele><time>2026-04-12T10:41:43.971Z</time></trkpt><trkpt lat="38.0273883" lon="16.1406867"><ele>20.666666666666668</ele><time>2026-04-12T10:41:44.97Z</time></trkpt><trkpt lat="38.0275417" lon="16.140855"><ele>21.333333333333332</ele><time>2026-04-12T10:41:45.97Z</time></trkpt><trkpt lat="38.027715" lon="16.1410317"><ele>22.0</ele><time>2026-04-12T10:41:46.97Z</time></trkpt><trkpt lat="38.0279017" lon="16.14122"><ele>22.0</ele><time>2026-04-12T10:41:47.971Z</time></trkpt><trkpt lat="38.0280967" lon="16.14142"><ele>22.0</ele><time>2026-04-12T10:41:48.97Z</time></trkpt><trkpt lat="38.0282933" lon="16.141605"><ele>25.5</ele><time>2026-04-12T10:41:49.97Z</time></trkpt><trkpt lat="38.02849" lon="16.14179"><ele>29.0</ele><time>2026-04-12T10:41:50.97Z</time></trkpt><trkpt lat="38.028695" lon="16.1419567"><ele>29.0</ele><time>2026-04-12T10:41:51.97Z</time></trkpt><trkpt lat="38.0289083" lon="16.1421183"><ele>29.0</ele><time>2026-04-12T10:41:52.97Z</time></trkpt><trkpt lat="38.029115" lon="16.1422567"><ele>20.5</ele><time>2026-04-12T10:41:53.97Z</time></trkpt><trkpt lat="38.0293233" lon="16.14236"><ele>12.0</ele><time>2026-04-12T10:41:54.97Z</time></trkpt><trkpt lat="38.0295467" lon="16.1424067"><ele>12.0</ele><time>2026-04-12T10:41:55.97Z</time></trkpt><trkpt lat="38.0297883" lon="16.1424183"><ele>12.0</ele><time>2026-04-12T10:41:56.971Z</time></trkpt><trkpt lat="38.0300417" lon="16.14243"><ele>17.5</ele><time>2026-04-12T10:41:57.97Z</time></trkpt><trkpt lat="38.0303067" lon="16.1424333"><ele>23.0</ele><time>2026-04-12T10:41:58.97Z</time></trkpt><trkpt lat="38.030545" lon="16.1424367"><ele>23.0</ele><time>2026-04-12T10:41:59.969Z</time></trkpt><trkpt lat="38.0307717" lon="16.1424767"><ele>23.0</ele><time>2026-04-12T10:42:00.97Z</time></trkpt><trkpt lat="38.030985" lon="16.1425783"><ele>26.0</ele><time>2026-04-12T10:42:01.97Z</time></trkpt><trkpt lat="38.0311867" lon="16.1427367"><ele>29.0</ele><time>2026-04-12T10:42:02.97Z</time></trkpt><trkpt lat="38.0314" lon="16.1428783"><ele>29.0</ele><time>2026-04-12T10:42:03.97Z</time></trkpt><trkpt lat="38.0316283" lon="16.1430017"><ele>29.0</ele><time>2026-04-12T10:42:04.97Z</time></trkpt><trkpt lat="38.0318617" lon="16.143105"><ele>24.5</ele><time>2026-04-12T10:42:05.97Z</time></trkpt><trkpt lat="38.0321117" lon="16.14319"><ele>20.0</ele><time>2026-04-12T10:42:06.97Z</time></trkpt><trkpt lat="38.0323617" lon="16.1432433"><ele>22.5</ele><time>2026-04-12T10:42:07.97Z</time></trkpt><trkpt lat="38.0326167" lon="16.1432633"><ele>25.0</ele><time>2026-04-12T10:42:08.971Z</time></trkpt><trkpt lat="38.0328717" lon="16.143255"><ele>40.0</ele><time>2026-04-12T10:42:09.97Z</time></trkpt><trkpt lat="38.033115" lon="16.143195"><ele>55.0</ele><time>2026-04-12T10:42:10.97Z</time></trkpt><trkpt lat="38.033365" lon="16.143085"><ele>55.0</ele><time>2026-04-12T10:42:11.971Z</time></trkpt><trkpt lat="38.033625" lon="16.1429717"><ele>55.0</ele><time>2026-04-12T10:42:12.97Z</time></trkpt><trkpt lat="38.0338883" lon="16.14288"><ele>49.0</ele><time>2026-04-12T10:42:13.97Z</time></trkpt><trkpt lat="38.0341617" lon="16.1428117"><ele>43.0</ele><time>2026-04-12T10:42:14.97Z</time></trkpt><trkpt lat="38.034445" lon="16.1427517"><ele>43.0</ele><time>2026-04-12T10:42:15.971Z</time></trkpt><trkpt lat="38.0347383" lon="16.1426917"><ele>43.0</ele><time>2026-04-12T10:42:16.97Z</time></trkpt><trkpt lat="38.035025" lon="16.1426333"><ele>37.0</ele><time>2026-04-12T10:42:17.97Z</time></trkpt><trkpt lat="38.035305" lon="16.1425817"><ele>31.0</ele><time>2026-04-12T10:42:18.97Z</time></trkpt><trkpt lat="38.0355867" lon="16.1425367"><ele>26.0</ele><time>2026-04-12T10:42:19.97Z</time></trkpt><trkpt lat="38.0358583" lon="16.1425233"><ele>21.0</ele><time>2026-04-12T10:42:20.97Z</time></trkpt><trkpt lat="38.0361383" lon="16.1425383"><ele>21.0</ele><time>2026-04-12T10:42:21.97Z</time></trkpt><trkpt lat="38.0364233" lon="16.142585"><ele>21.0</ele><time>2026-04-12T10:42:22.97Z</time></trkpt><trkpt lat="38.03671" lon="16.1426267"><ele>24.0</ele><time>2026-04-12T10:42:23.971Z</time></trkpt><trkpt lat="38.0369883" lon="16.1426683"><ele>27.0</ele><time>2026-04-12T10:42:24.97Z</time></trkpt><trkpt lat="38.0372533" lon="16.1426933"><ele>28.5</ele><time>2026-04-12T10:42:25.97Z</time></trkpt><trkpt lat="38.0374983" lon="16.14272"><ele>30.0</ele><time>2026-04-12T10:42:26.971Z</time></trkpt><trkpt lat="38.0377317" lon="16.1427683"><ele>30.0</ele><time>2026-04-12T10:42:27.97Z</time></trkpt><trkpt lat="38.03794" lon="16.142875"><ele>30.0</ele><time>2026-04-12T10:42:28.97Z</time></trkpt><trkpt lat="38.0381217" lon="16.1430383"><ele>30.0</ele><time>2026-04-12T10:42:29.97Z</time></trkpt><trkpt lat="38.0382867" lon="16.14325"><ele>31.333333333333336</ele><time>2026-04-12T10:42:30.97Z</time></trkpt><trkpt lat="38.0384217" lon="16.1434733"><ele>32.66666666666667</ele><time>2026-04-12T10:42:31.97Z</time></trkpt><trkpt lat="38.0385467" lon="16.1436667"><ele>34.0</ele><time>2026-04-12T10:42:32.971Z</time></trkpt><trkpt lat="38.03866" lon="16.14382"><ele>34.0</ele><time>2026-04-12T10:42:33.971Z</time></trkpt><trkpt lat="38.0387483" lon="16.143945"><ele>34.0</ele><time>2026-04-12T10:42:34.971Z</time></trkpt><trkpt lat="38.03881" lon="16.1440367"><ele>34.0</ele><time>2026-04-12T10:42:35.97Z</time></trkpt><trkpt lat="38.038855" lon="16.1441067"><ele>34.0</ele><time>2026-04-12T10:42:36.971Z</time></trkpt><trkpt lat="38.0388967" lon="16.1441733"><ele>34.0</ele><time>2026-04-12T10:42:52.97Z</time></trkpt><trkpt lat="38.038975" lon="16.14427"><ele>35.4</ele><time>2026-04-12T10:42:54.97Z</time></trkpt><trkpt lat="38.03903" lon="16.144335"><ele>36.8</ele><time>2026-04-12T10:42:55.97Z</time></trkpt><trkpt lat="38.0390917" lon="16.14443"><ele>38.199999999999996</ele><time>2026-04-12T10:42:56.97Z</time></trkpt><trkpt lat="38.0391617" lon="16.1445267"><ele>39.599999999999994</ele><time>2026-04-12T10:42:57.97Z</time></trkpt><trkpt lat="38.0392367" lon="16.1446067"><ele>41.0</ele><time>2026-04-12T10:42:58.97Z</time></trkpt><trkpt lat="38.0393183" lon="16.1446883"><ele>41.0</ele><time>2026-04-12T10:42:59.97Z</time></trkpt><trkpt lat="38.0394233" lon="16.14474"><ele>41.0</ele><time>2026-04-12T10:43:00.97Z</time></trkpt><trkpt lat="38.0395483" lon="16.1447617"><ele>41.0</ele><time>2026-04-12T10:43:01.97Z</time></trkpt><trkpt lat="38.039675" lon="16.1447383"><ele>41.0</ele><time>2026-04-12T10:43:02.97Z</time></trkpt><trkpt lat="38.0398017" lon="16.1446733"><ele>41.0</ele><time>2026-04-12T10:43:03.97Z</time></trkpt><trkpt lat="38.0399017" lon="16.1445483"><ele>41.0</ele><time>2026-04-12T10:43:04.97Z</time></trkpt><trkpt lat="38.03999" lon="16.1443817"><ele>41.0</ele><time>2026-04-12T10:43:05.97Z</time></trkpt><trkpt lat="38.0400833" lon="16.144205"><ele>43.666666666666664</ele><time>2026-04-12T10:43:06.971Z</time></trkpt><trkpt lat="38.040165" lon="16.14404"><ele>46.33333333333333</ele><time>2026-04-12T10:43:07.97Z</time></trkpt><trkpt lat="38.04024" lon="16.143865"><ele>49.0</ele><time>2026-04-12T10:43:08.97Z</time></trkpt><trkpt lat="38.0403033" lon="16.1436567"><ele>49.0</ele><time>2026-04-12T10:43:09.971Z</time></trkpt><trkpt lat="38.0403583" lon="16.1434117"><ele>49.0</ele><time>2026-04-12T10:43:10.97Z</time></trkpt><trkpt lat="38.0404117" lon="16.1431483"><ele>49.0</ele><time>2026-04-12T10:43:11.97Z</time></trkpt><trkpt lat="38.0404767" lon="16.1428983"><ele>56.0</ele><time>2026-04-12T10:43:12.971Z</time></trkpt><trkpt lat="38.04059" lon="16.14266"><ele>63.0</ele><time>2026-04-12T10:43:13.97Z</time></trkpt><trkpt lat="38.0407433" lon="16.1424333"><ele>57.0</ele><time>2026-04-12T10:43:14.97Z</time></trkpt><trkpt lat="38.04095" lon="16.1422033"><ele>51.0</ele><time>2026-04-12T10:43:15.97Z</time></trkpt><trkpt lat="38.041185" lon="16.1419867"><ele>51.0</ele><time>2026-04-12T10:43:16.97Z</time></trkpt><trkpt lat="38.0414433" lon="16.14176"><ele>51.0</ele><time>2026-04-12T10:43:17.971Z</time></trkpt><trkpt lat="38.0416933" lon="16.1415267"><ele>44.0</ele><time>2026-04-12T10:43:18.97Z</time></trkpt><trkpt lat="38.04194" lon="16.1413067"><ele>37.0</ele><time>2026-04-12T10:43:19.97Z</time></trkpt><trkpt lat="38.0421717" lon="16.14111"><ele>37.0</ele><time>2026-04-12T10:43:20.97Z</time></trkpt><trkpt lat="38.0424167" lon="16.1409433"><ele>37.0</ele><time>2026-04-12T10:43:21.971Z</time></trkpt><trkpt lat="38.042685" lon="16.140805"><ele>34.5</ele><time>2026-04-12T10:43:22.97Z</time></trkpt><trkpt lat="38.04297" lon="16.1407133"><ele>32.0</ele><time>2026-04-12T10:43:23.97Z</time></trkpt><trkpt lat="38.0432917" lon="16.14063"><ele>28.0</ele><time>2026-04-12T10:43:24.97Z</time></trkpt><trkpt lat="38.0436133" lon="16.1405533"><ele>24.0</ele><time>2026-04-12T10:43:25.97Z</time></trkpt><trkpt lat="38.0439517" lon="16.1404583"><ele>19.0</ele><time>2026-04-12T10:43:26.971Z</time></trkpt><trkpt lat="38.0443" lon="16.1403283"><ele>14.0</ele><time>2026-04-12T10:43:27.97Z</time></trkpt><trkpt lat="38.0446517" lon="16.1401867"><ele>11.5</ele><time>2026-04-12T10:43:28.97Z</time></trkpt><trkpt lat="38.0449967" lon="16.1400417"><ele>9.0</ele><time>2026-04-12T10:43:29.97Z</time></trkpt><trkpt lat="38.04534" lon="16.1398933"><ele>9.0</ele><time>2026-04-12T10:43:30.97Z</time></trkpt><trkpt lat="38.0456633" lon="16.139755"><ele>9.0</ele><time>2026-04-12T10:43:31.97Z</time></trkpt><trkpt lat="38.0459667" lon="16.139615"><ele>9.0</ele><time>2026-04-12T10:43:32.97Z</time></trkpt><trkpt lat="38.04626" lon="16.139495"><ele>9.0</ele><time>2026-04-12T10:43:33.97Z</time></trkpt><trkpt lat="38.04657" lon="16.139415"><ele>8.5</ele><time>2026-04-12T10:43:34.97Z</time></trkpt><trkpt lat="38.046885" lon="16.1393833"><ele>8.0</ele><time>2026-04-12T10:43:35.97Z</time></trkpt><trkpt lat="38.04721" lon="16.13939"><ele>7.5</ele><time>2026-04-12T10:43:36.97Z</time></trkpt><trkpt lat="38.0475367" lon="16.139395"><ele>7.0</ele><time>2026-04-12T10:43:37.97Z</time></trkpt><trkpt lat="38.047875" lon="16.139385"><ele>7.0</ele><time>2026-04-12T10:43:38.97Z</time></trkpt><trkpt lat="38.0482217" lon="16.1393817"><ele>7.0</ele><time>2026-04-12T10:43:39.971Z</time></trkpt><trkpt lat="38.0485767" lon="16.1393783"><ele>6.5</ele><time>2026-04-12T10:43:40.97Z</time></trkpt><trkpt lat="38.0489367" lon="16.1393733"><ele>6.0</ele><time>2026-04-12T10:43:41.971Z</time></trkpt><trkpt lat="38.0492983" lon="16.1393617"><ele>6.0</ele><time>2026-04-12T10:43:42.97Z</time></trkpt><trkpt lat="38.04965" lon="16.1393483"><ele>6.0</ele><time>2026-04-12T10:43:43.97Z</time></trkpt><trkpt lat="38.0499967" lon="16.1393367"><ele>6.0</ele><time>2026-04-12T10:43:44.97Z</time></trkpt><trkpt lat="38.050325" lon="16.139325"><ele>6.0</ele><time>2026-04-12T10:43:45.97Z</time></trkpt><trkpt lat="38.0506283" lon="16.13932"><ele>6.5</ele><time>2026-04-12T10:43:46.97Z</time></trkpt><trkpt lat="38.05091" lon="16.1393117"><ele>7.0</ele><time>2026-04-12T10:43:47.971Z</time></trkpt><trkpt lat="38.0511767" lon="16.1393"><ele>7.0</ele><time>2026-04-12T10:43:48.97Z</time></trkpt><trkpt lat="38.0514267" lon="16.1392933"><ele>7.0</ele><time>2026-04-12T10:43:49.97Z</time></trkpt><trkpt lat="38.051655" lon="16.1392883"><ele>7.333333333333334</ele><time>2026-04-12T10:43:50.97Z</time></trkpt><trkpt lat="38.0518683" lon="16.1392867"><ele>7.666666666666666</ele><time>2026-04-12T10:43:51.97Z</time></trkpt><trkpt lat="38.0520783" lon="16.1392817"><ele>8.0</ele><time>2026-04-12T10:43:52.97Z</time></trkpt><trkpt lat="38.0522817" lon="16.1392817"><ele>9.0</ele><time>2026-04-12T10:43:53.97Z</time></trkpt><trkpt lat="38.0524567" lon="16.1392933"><ele>10.0</ele><time>2026-04-12T10:43:54.971Z</time></trkpt><trkpt lat="38.0526267" lon="16.1392817"><ele>11.0</ele><time>2026-04-12T10:43:55.97Z</time></trkpt><trkpt lat="38.0527833" lon="16.1392767"><ele>11.0</ele><time>2026-04-12T10:43:56.97Z</time></trkpt><trkpt lat="38.0529083" lon="16.1392867"><ele>11.0</ele><time>2026-04-12T10:43:57.97Z</time></trkpt><trkpt lat="38.0530167" lon="16.1392883"><ele>11.0</ele><time>2026-04-12T10:43:58.97Z</time></trkpt><trkpt lat="38.0531117" lon="16.1392917"><ele>11.0</ele><time>2026-04-12T10:43:59.97Z</time></trkpt><trkpt lat="38.0532283" lon="16.1392817"><ele>11.0</ele><time>2026-04-12T10:44:00.97Z</time></trkpt><trkpt lat="38.0533933" lon="16.1392733"><ele>11.5</ele><time>2026-04-12T10:44:01.97Z</time></trkpt><trkpt lat="38.0536067" lon="16.13925"><ele>12.0</ele><time>2026-04-12T10:44:02.97Z</time></trkpt><trkpt lat="38.053865" lon="16.1392567"><ele>14.0</ele><time>2026-04-12T10:44:03.97Z</time></trkpt><trkpt lat="38.054145" lon="16.13928"><ele>16.0</ele><time>2026-04-12T10:44:04.97Z</time></trkpt><trkpt lat="38.05444" lon="16.1393217"><ele>16.0</ele><time>2026-04-12T10:44:05.97Z</time></trkpt><trkpt lat="38.0547467" lon="16.1393733"><ele>16.0</ele><time>2026-04-12T10:44:06.971Z</time></trkpt><trkpt lat="38.0550767" lon="16.13944"><ele>16.5</ele><time>2026-04-12T10:44:07.97Z</time></trkpt><trkpt lat="38.0554017" lon="16.1395167"><ele>17.0</ele><time>2026-04-12T10:44:08.971Z</time></trkpt><trkpt lat="38.05571" lon="16.1395817"><ele>16.5</ele><time>2026-04-12T10:44:09.971Z</time></trkpt><trkpt lat="38.0559933" lon="16.1396467"><ele>16.0</ele><time>2026-04-12T10:44:10.97Z</time></trkpt><trkpt lat="38.05627" lon="16.1396883"><ele>16.0</ele><time>2026-04-12T10:44:11.97Z</time></trkpt><trkpt lat="38.05656" lon="16.1396733"><ele>16.0</ele><time>2026-04-12T10:44:12.971Z</time></trkpt><trkpt lat="38.0568533" lon="16.139605"><ele>16.5</ele><time>2026-04-12T10:44:13.97Z</time></trkpt><trkpt lat="38.0571633" lon="16.13952"><ele>17.0</ele><time>2026-04-12T10:44:14.97Z</time></trkpt><trkpt lat="38.0574867" lon="16.139455"><ele>15.0</ele><time>2026-04-12T10:44:15.97Z</time></trkpt><trkpt lat="38.0578067" lon="16.1394533"><ele>13.0</ele><time>2026-04-12T10:44:16.97Z</time></trkpt><trkpt lat="38.0581467" lon="16.139505"><ele>12.5</ele><time>2026-04-12T10:44:17.97Z</time></trkpt><trkpt lat="38.05851" lon="16.1395717"><ele>12.0</ele><time>2026-04-12T10:44:18.97Z</time></trkpt><trkpt lat="38.058875" lon="16.139645"><ele>10.0</ele><time>2026-04-12T10:44:19.97Z</time></trkpt><trkpt lat="38.059235" lon="16.139715"><ele>8.0</ele><time>2026-04-12T10:44:20.97Z</time></trkpt><trkpt lat="38.0595683" lon="16.1397833"><ele>8.0</ele><time>2026-04-12T10:44:21.971Z</time></trkpt><trkpt lat="38.0598617" lon="16.1398117"><ele>8.0</ele><time>2026-04-12T10:44:22.971Z</time></trkpt><trkpt lat="38.0601433" lon="16.1398117"><ele>10.5</ele><time>2026-04-12T10:44:23.97Z</time></trkpt><trkpt lat="38.0604133" lon="16.1398033"><ele>13.0</ele><time>2026-04-12T10:44:24.971Z</time></trkpt><trkpt lat="38.0606783" lon="16.1398083"><ele>12.5</ele><time>2026-04-12T10:44:25.97Z</time></trkpt><trkpt lat="38.0609317" lon="16.1398233"><ele>12.0</ele><time>2026-04-12T10:44:26.97Z</time></trkpt><trkpt lat="38.0611717" lon="16.1398433"><ele>12.0</ele><time>2026-04-12T10:44:27.971Z</time></trkpt><trkpt lat="38.0614067" lon="16.1398783"><ele>12.0</ele><time>2026-04-12T10:44:28.97Z</time></trkpt><trkpt lat="38.061625" lon="16.13993"><ele>11.0</ele><time>2026-04-12T10:44:29.97Z</time></trkpt><trkpt lat="38.0618367" lon="16.13997"><ele>10.0</ele><time>2026-04-12T10:44:30.971Z</time></trkpt><trkpt lat="38.0620483" lon="16.1400083"><ele>9.0</ele><time>2026-04-12T10:44:31.97Z</time></trkpt><trkpt lat="38.0622683" lon="16.1400467"><ele>9.666666666666666</ele><time>2026-04-12T10:44:32.97Z</time></trkpt><trkpt lat="38.0624883" lon="16.1400833"><ele>10.333333333333332</ele><time>2026-04-12T10:44:33.971Z</time></trkpt><trkpt lat="38.0626983" lon="16.1401183"><ele>11.0</ele><time>2026-04-12T10:44:34.97Z</time></trkpt><trkpt lat="38.0628933" lon="16.1401567"><ele>11.0</ele><time>2026-04-12T10:44:35.97Z</time></trkpt><trkpt lat="38.063075" lon="16.1402033"><ele>11.0</ele><time>2026-04-12T10:44:36.97Z</time></trkpt><trkpt lat="38.06324" lon="16.1402267"><ele>11.0</ele><time>2026-04-12T10:44:37.97Z</time></trkpt><trkpt lat="38.0633933" lon="16.1402517"><ele>10.5</ele><time>2026-04-12T10:44:38.97Z</time></trkpt><trkpt lat="38.063535" lon="16.14028"><ele>10.0</ele><time>2026-04-12T10:44:39.97Z</time></trkpt><trkpt lat="38.0636733" lon="16.140305"><ele>9.5</ele><time>2026-04-12T10:44:40.97Z</time></trkpt><trkpt lat="38.06382" lon="16.1403217"><ele>9.0</ele><time>2026-04-12T10:44:41.97Z</time></trkpt><trkpt lat="38.0639767" lon="16.140345"><ele>9.666666666666666</ele><time>2026-04-12T10:44:42.97Z</time></trkpt><trkpt lat="38.0641417" lon="16.14038"><ele>10.333333333333332</ele><time>2026-04-12T10:44:43.97Z</time></trkpt><trkpt lat="38.0643017" lon="16.14042"><ele>11.0</ele><time>2026-04-12T10:44:44.97Z</time></trkpt><trkpt lat="38.064475" lon="16.14046"><ele>11.0</ele><time>2026-04-12T10:44:45.971Z</time></trkpt><trkpt lat="38.0646583" lon="16.1404983"><ele>11.0</ele><time>2026-04-12T10:44:46.97Z</time></trkpt><trkpt lat="38.0648583" lon="16.140555"><ele>11.0</ele><time>2026-04-12T10:44:47.97Z</time></trkpt><trkpt lat="38.0650733" lon="16.1406167"><ele>10.5</ele><time>2026-04-12T10:44:48.97Z</time></trkpt><trkpt lat="38.0653017" lon="16.1406867"><ele>10.0</ele><time>2026-04-12T10:44:49.97Z</time></trkpt><trkpt lat="38.0655317" lon="16.1407533"><ele>10.0</ele><time>2026-04-12T10:44:50.97Z</time></trkpt><trkpt lat="38.065765" lon="16.1408233"><ele>10.0</ele><time>2026-04-12T10:44:51.971Z</time></trkpt><trkpt lat="38.0660083" lon="16.14091"><ele>11.0</ele><time>2026-04-12T10:44:52.97Z</time></trkpt><trkpt lat="38.06626" lon="16.141005"><ele>12.0</ele><time>2026-04-12T10:44:53.97Z</time></trkpt><trkpt lat="38.0665117" lon="16.1410917"><ele>13.0</ele><time>2026-04-12T10:44:54.97Z</time></trkpt><trkpt lat="38.0667717" lon="16.1411667"><ele>14.0</ele><time>2026-04-12T10:44:55.97Z</time></trkpt><trkpt lat="38.0670333" lon="16.1412467"><ele>14.0</ele><time>2026-04-12T10:44:56.971Z</time></trkpt><trkpt lat="38.0672933" lon="16.141325"><ele>14.0</ele><time>2026-04-12T10:44:57.97Z</time></trkpt><trkpt lat="38.0675567" lon="16.1413967"><ele>15.0</ele><time>2026-04-12T10:44:58.97Z</time></trkpt><trkpt lat="38.067815" lon="16.1414817"><ele>16.0</ele><time>2026-04-12T10:44:59.97Z</time></trkpt><trkpt lat="38.0680717" lon="16.14157"><ele>17.5</ele><time>2026-04-12T10:45:00.971Z</time></trkpt><trkpt lat="38.0683283" lon="16.1416583"><ele>19.0</ele><time>2026-04-12T10:45:01.971Z</time></trkpt><trkpt lat="38.0685933" lon="16.1417317"><ele>19.0</ele><time>2026-04-12T10:45:02.97Z</time></trkpt><trkpt lat="38.068855" lon="16.141805"><ele>19.0</ele><time>2026-04-12T10:45:03.971Z</time></trkpt><trkpt lat="38.06912" lon="16.141875"><ele>19.5</ele><time>2026-04-12T10:45:04.971Z</time></trkpt><trkpt lat="38.06938" lon="16.14195"><ele>20.0</ele><time>2026-04-12T10:45:05.97Z</time></trkpt><trkpt lat="38.06964" lon="16.1420217"><ele>20.0</ele><time>2026-04-12T10:45:06.97Z</time></trkpt><trkpt lat="38.0699033" lon="16.1421"><ele>20.0</ele><time>2026-04-12T10:45:07.97Z</time></trkpt><trkpt lat="38.070165" lon="16.1421733"><ele>21.5</ele><time>2026-04-12T10:45:08.97Z</time></trkpt><trkpt lat="38.07043" lon="16.1422367"><ele>23.0</ele><time>2026-04-12T10:45:09.97Z</time></trkpt><trkpt lat="38.0706967" lon="16.14231"><ele>22.0</ele><time>2026-04-12T10:45:10.97Z</time></trkpt><trkpt lat="38.0709633" lon="16.1423817"><ele>21.0</ele><time>2026-04-12T10:45:11.97Z</time></trkpt><trkpt lat="38.0712317" lon="16.1424483"><ele>21.0</ele><time>2026-04-12T10:45:12.97Z</time></trkpt><trkpt lat="38.0715017" lon="16.1425133"><ele>21.0</ele><time>2026-04-12T10:45:13.97Z</time></trkpt><trkpt lat="38.0717667" lon="16.1425867"><ele>19.5</ele><time>2026-04-12T10:45:14.971Z</time></trkpt><trkpt lat="38.0720367" lon="16.1426567"><ele>18.0</ele><time>2026-04-12T10:45:15.971Z</time></trkpt><trkpt lat="38.07231" lon="16.14273"><ele>19.5</ele><time>2026-04-12T10:45:16.97Z</time></trkpt><trkpt lat="38.072575" lon="16.1427967"><ele>21.0</ele><time>2026-04-12T10:45:17.971Z</time></trkpt><trkpt lat="38.072845" lon="16.142875"><ele>21.0</ele><time>2026-04-12T10:45:18.971Z</time></trkpt><trkpt lat="38.0731083" lon="16.142945"><ele>21.0</ele><time>2026-04-12T10:45:19.97Z</time></trkpt><trkpt lat="38.07338" lon="16.1430083"><ele>24.0</ele><time>2026-04-12T10:45:20.97Z</time></trkpt><trkpt lat="38.073645" lon="16.1430867"><ele>27.0</ele><time>2026-04-12T10:45:21.971Z</time></trkpt><trkpt lat="38.0739133" lon="16.1431533"><ele>24.0</ele><time>2026-04-12T10:45:22.97Z</time></trkpt><trkpt lat="38.0741817" lon="16.1432183"><ele>21.0</ele><time>2026-04-12T10:45:23.97Z</time></trkpt><trkpt lat="38.0744517" lon="16.143285"><ele>21.0</ele><time>2026-04-12T10:45:24.97Z</time></trkpt><trkpt lat="38.074725" lon="16.1433517"><ele>21.0</ele><time>2026-04-12T10:45:25.97Z</time></trkpt><trkpt lat="38.0749983" lon="16.1434283"><ele>21.5</ele><time>2026-04-12T10:45:26.97Z</time></trkpt><trkpt lat="38.0752733" lon="16.1434983"><ele>22.0</ele><time>2026-04-12T10:45:27.97Z</time></trkpt><trkpt lat="38.07555" lon="16.1435667"><ele>23.5</ele><time>2026-04-12T10:45:28.971Z</time></trkpt><trkpt lat="38.0758267" lon="16.143635"><ele>25.0</ele><time>2026-04-12T10:45:29.97Z</time></trkpt><trkpt lat="38.0761083" lon="16.143705"><ele>25.0</ele><time>2026-04-12T10:45:30.971Z</time></trkpt><trkpt lat="38.07639" lon="16.1437833"><ele>25.0</ele><time>2026-04-12T10:45:31.97Z</time></trkpt><trkpt lat="38.07667" lon="16.14386"><ele>24.5</ele><time>2026-04-12T10:45:32.97Z</time></trkpt><trkpt lat="38.0769533" lon="16.1439367"><ele>24.0</ele><time>2026-04-12T10:45:33.971Z</time></trkpt><trkpt lat="38.0772317" lon="16.14401"><ele>22.5</ele><time>2026-04-12T10:45:34.97Z</time></trkpt><trkpt lat="38.0775117" lon="16.1440767"><ele>21.0</ele><time>2026-04-12T10:45:35.97Z</time></trkpt><trkpt lat="38.07779" lon="16.144145"><ele>21.0</ele><time>2026-04-12T10:45:36.971Z</time></trkpt><trkpt lat="38.078075" lon="16.144205"><ele>21.0</ele><time>2026-04-12T10:45:37.971Z</time></trkpt><trkpt lat="38.0783567" lon="16.1442717"><ele>22.0</ele><time>2026-04-12T10:45:38.97Z</time></trkpt><trkpt lat="38.07862" lon="16.1443617"><ele>23.0</ele><time>2026-04-12T10:45:39.97Z</time></trkpt><trkpt lat="38.0788883" lon="16.14449"><ele>26.0</ele><time>2026-04-12T10:45:40.97Z</time></trkpt><trkpt lat="38.0791567" lon="16.1446683"><ele>29.0</ele><time>2026-04-12T10:45:41.97Z</time></trkpt><trkpt lat="38.0794067" lon="16.1448733"><ele>22.0</ele><time>2026-04-12T10:45:42.97Z</time></trkpt><trkpt lat="38.079655" lon="16.145085"><ele>15.0</ele><time>2026-04-12T10:45:43.97Z</time></trkpt><trkpt lat="38.079905" lon="16.1453"><ele>13.0</ele><time>2026-04-12T10:45:44.971Z</time></trkpt><trkpt lat="38.0801517" lon="16.1455083"><ele>11.0</ele><time>2026-04-12T10:45:45.971Z</time></trkpt><trkpt lat="38.0803967" lon="16.1457367"><ele>11.0</ele><time>2026-04-12T10:45:46.97Z</time></trkpt><trkpt lat="38.080635" lon="16.1459767"><ele>11.0</ele><time>2026-04-12T10:45:47.97Z</time></trkpt><trkpt lat="38.080885" lon="16.1462083"><ele>10.0</ele><time>2026-04-12T10:45:48.97Z</time></trkpt><trkpt lat="38.08112" lon="16.1464517"><ele>9.0</ele><time>2026-04-12T10:45:49.97Z</time></trkpt><trkpt lat="38.0813583" lon="16.14669"><ele>9.0</ele><time>2026-04-12T10:45:50.97Z</time></trkpt><trkpt lat="38.0815917" lon="16.1469233"><ele>9.0</ele><time>2026-04-12T10:45:51.97Z</time></trkpt><trkpt lat="38.08182" lon="16.1471483"><ele>9.0</ele><time>2026-04-12T10:45:52.968Z</time></trkpt><trkpt lat="38.0820383" lon="16.1473517"><ele>9.0</ele><time>2026-04-12T10:45:53.97Z</time></trkpt><trkpt lat="38.0822433" lon="16.14756"><ele>9.5</ele><time>2026-04-12T10:45:54.97Z</time></trkpt><trkpt lat="38.0824483" lon="16.1477667"><ele>10.0</ele><time>2026-04-12T10:45:55.97Z</time></trkpt><trkpt lat="38.08265" lon="16.147965"><ele>10.0</ele><time>2026-04-12T10:45:56.97Z</time></trkpt><trkpt lat="38.08285" lon="16.1481583"><ele>10.0</ele><time>2026-04-12T10:45:57.971Z</time></trkpt><trkpt lat="38.0830267" lon="16.1483467"><ele>10.0</ele><time>2026-04-12T10:45:58.971Z</time></trkpt><trkpt lat="38.0832017" lon="16.148515"><ele>10.0</ele><time>2026-04-12T10:45:59.971Z</time></trkpt><trkpt lat="38.08335" lon="16.1486733"><ele>10.0</ele><time>2026-04-12T10:46:00.97Z</time></trkpt><trkpt lat="38.0834667" lon="16.1487933"><ele>10.166666666666668</ele><time>2026-04-12T10:46:01.971Z</time></trkpt><trkpt lat="38.0835383" lon="16.1488683"><ele>10.333333333333334</ele><time>2026-04-12T10:46:02.97Z</time></trkpt><trkpt lat="38.0835833" lon="16.14893"><ele>10.5</ele><time>2026-04-12T10:46:04.97Z</time></trkpt><trkpt lat="38.08353" lon="16.148825"><ele>10.666666666666666</ele><time>2026-04-12T11:38:11.963Z</time></trkpt><trkpt lat="38.0834733" lon="16.1487767"><ele>10.833333333333332</ele><time>2026-04-12T11:38:12.963Z</time></trkpt><trkpt lat="38.0834083" lon="16.1487033"><ele>11.0</ele><time>2026-04-12T11:38:13.962Z</time></trkpt><trkpt lat="38.0833383" lon="16.148635"><ele>10.8</ele><time>2026-04-12T11:38:14.963Z</time></trkpt><trkpt lat="38.0832633" lon="16.148565"><ele>10.600000000000001</ele><time>2026-04-12T11:38:15.963Z</time></trkpt><trkpt lat="38.0831867" lon="16.1484867"><ele>10.4</ele><time>2026-04-12T11:38:16.963Z</time></trkpt><trkpt lat="38.0831017" lon="16.1484017"><ele>10.2</ele><time>2026-04-12T11:38:17.963Z</time></trkpt><trkpt lat="38.0830167" lon="16.1483167"><ele>10.0</ele><time>2026-04-12T11:38:18.962Z</time></trkpt><trkpt lat="38.082925" lon="16.148235"><ele>10.0</ele><time>2026-04-12T11:38:19.962Z</time></trkpt><trkpt lat="38.082835" lon="16.1481467"><ele>10.0</ele><time>2026-04-12T11:38:20.962Z</time></trkpt><trkpt lat="38.08275" lon="16.1480567"><ele>10.0</ele><time>2026-04-12T11:38:21.962Z</time></trkpt><trkpt lat="38.0826617" lon="16.14796"><ele>10.0</ele><time>2026-04-12T11:38:22.962Z</time></trkpt><trkpt lat="38.08258" lon="16.1478767"><ele>10.0</ele><time>2026-04-12T11:38:23.962Z</time></trkpt><trkpt lat="38.0824967" lon="16.1477933"><ele>10.25</ele><time>2026-04-12T11:38:24.962Z</time></trkpt><trkpt lat="38.0824083" lon="16.1477083"><ele>10.5</ele><time>2026-04-12T11:38:25.962Z</time></trkpt><trkpt lat="38.0823217" lon="16.1476117"><ele>10.75</ele><time>2026-04-12T11:38:26.963Z</time></trkpt><trkpt lat="38.08223" lon="16.1475133"><ele>11.0</ele><time>2026-04-12T11:38:27.962Z</time></trkpt><trkpt lat="38.08213" lon="16.1474183"><ele>10.5</ele><time>2026-04-12T11:38:28.962Z</time></trkpt><trkpt lat="38.0820267" lon="16.1473167"><ele>10.0</ele><time>2026-04-12T11:38:29.962Z</time></trkpt><trkpt lat="38.0819217" lon="16.1472083"><ele>9.5</ele><time>2026-04-12T11:38:30.962Z</time></trkpt><trkpt lat="38.08182" lon="16.1471083"><ele>9.0</ele><time>2026-04-12T11:38:31.963Z</time></trkpt><trkpt lat="38.0817183" lon="16.1470067"><ele>9.0</ele><time>2026-04-12T11:38:32.963Z</time></trkpt><trkpt lat="38.0816133" lon="16.146905"><ele>9.0</ele><time>2026-04-12T11:38:33.962Z</time></trkpt><trkpt lat="38.0815133" lon="16.1468017"><ele>9.0</ele><time>2026-04-12T11:38:34.962Z</time></trkpt><trkpt lat="38.0814117" lon="16.1466967"><ele>9.0</ele><time>2026-04-12T11:38:35.963Z</time></trkpt><trkpt lat="38.08131" lon="16.1465967"><ele>9.0</ele><time>2026-04-12T11:38:36.963Z</time></trkpt><trkpt lat="38.0812" lon="16.1464983"><ele>9.0</ele><time>2026-04-12T11:38:37.963Z</time></trkpt><trkpt lat="38.0810867" lon="16.146395"><ele>9.0</ele><time>2026-04-12T11:38:38.962Z</time></trkpt><trkpt lat="38.08097" lon="16.1462917"><ele>9.0</ele><time>2026-04-12T11:38:39.962Z</time></trkpt><trkpt lat="38.0808667" lon="16.146195"><ele>9.5</ele><time>2026-04-12T11:38:40.962Z</time></trkpt><trkpt lat="38.0807567" lon="16.1460933"><ele>10.0</ele><time>2026-04-12T11:38:41.962Z</time></trkpt><trkpt lat="38.08064" lon="16.145985"><ele>10.5</ele><time>2026-04-12T11:38:42.963Z</time></trkpt><trkpt lat="38.08053" lon="16.1458717"><ele>11.0</ele><time>2026-04-12T11:38:43.962Z</time></trkpt><trkpt lat="38.0804283" lon="16.14576"><ele>13.25</ele><time>2026-04-12T11:38:44.962Z</time></trkpt><trkpt lat="38.0803067" lon="16.145645"><ele>15.5</ele><time>2026-04-12T11:38:45.962Z</time></trkpt><trkpt lat="38.080195" lon="16.1455333"><ele>17.75</ele><time>2026-04-12T11:38:46.962Z</time></trkpt><trkpt lat="38.0800883" lon="16.1454217"><ele>20.0</ele><time>2026-04-12T11:38:47.963Z</time></trkpt><trkpt lat="38.079975" lon="16.1453117"><ele>18.75</ele><time>2026-04-12T11:38:48.962Z</time></trkpt><trkpt lat="38.0798633" lon="16.1452133"><ele>17.5</ele><time>2026-04-12T11:38:49.962Z</time></trkpt><trkpt lat="38.0797417" lon="16.1451233"><ele>16.25</ele><time>2026-04-12T11:38:50.963Z</time></trkpt><trkpt lat="38.0796233" lon="16.145035"><ele>15.0</ele><time>2026-04-12T11:38:51.962Z</time></trkpt><trkpt lat="38.0795" lon="16.1449417"><ele>17.0</ele><time>2026-04-12T11:38:52.962Z</time></trkpt><trkpt lat="38.0793767" lon="16.1448467"><ele>19.0</ele><time>2026-04-12T11:38:53.962Z</time></trkpt><trkpt lat="38.0792517" lon="16.1447583"><ele>21.0</ele><time>2026-04-12T11:38:54.962Z</time></trkpt><trkpt lat="38.0791233" lon="16.144665"><ele>23.0</ele><time>2026-04-12T11:38:55.962Z</time></trkpt><trkpt lat="38.079005" lon="16.1445683"><ele>23.0</ele><time>2026-04-12T11:38:56.962Z</time></trkpt><trkpt lat="38.0788867" lon="16.1444683"><ele>23.0</ele><time>2026-04-12T11:38:57.962Z</time></trkpt><trkpt lat="38.0787633" lon="16.1443867"><ele>23.0</ele><time>2026-04-12T11:38:58.962Z</time></trkpt><trkpt lat="38.078625" lon="16.1443033"><ele>23.0</ele><time>2026-04-12T11:38:59.963Z</time></trkpt><trkpt lat="38.0784767" lon="16.1442467"><ele>23.0</ele><time>2026-04-12T11:39:00.962Z</time></trkpt><trkpt lat="38.0783283" lon="16.1441983"><ele>23.0</ele><time>2026-04-12T11:39:01.962Z</time></trkpt><trkpt lat="38.0781767" lon="16.1441617"><ele>23.0</ele><time>2026-04-12T11:39:02.962Z</time></trkpt><trkpt lat="38.078025" lon="16.14413"><ele>22.333333333333336</ele><time>2026-04-12T11:39:03.962Z</time></trkpt><trkpt lat="38.0778717" lon="16.1440967"><ele>21.666666666666668</ele><time>2026-04-12T11:39:04.962Z</time></trkpt><trkpt lat="38.07772" lon="16.14406"><ele>21.0</ele><time>2026-04-12T11:39:05.962Z</time></trkpt><trkpt lat="38.0775617" lon="16.1440267"><ele>22.0</ele><time>2026-04-12T11:39:06.962Z</time></trkpt><trkpt lat="38.0774" lon="16.14398"><ele>23.0</ele><time>2026-04-12T11:39:07.962Z</time></trkpt><trkpt lat="38.0772367" lon="16.143945"><ele>24.0</ele><time>2026-04-12T11:39:08.962Z</time></trkpt><trkpt lat="38.0770667" lon="16.1439033"><ele>24.0</ele><time>2026-04-12T11:39:09.962Z</time></trkpt><trkpt lat="38.0769" lon="16.1438667"><ele>24.0</ele><time>2026-04-12T11:39:10.962Z</time></trkpt><trkpt lat="38.0767283" lon="16.1438217"><ele>24.0</ele><time>2026-04-12T11:39:11.962Z</time></trkpt><trkpt lat="38.076555" lon="16.1437817"><ele>24.333333333333336</ele><time>2026-04-12T11:39:12.962Z</time></trkpt><trkpt lat="38.0763783" lon="16.1437383"><ele>24.666666666666668</ele><time>2026-04-12T11:39:13.963Z</time></trkpt><trkpt lat="38.0761967" lon="16.14369"><ele>25.0</ele><time>2026-04-12T11:39:14.962Z</time></trkpt><trkpt lat="38.0760217" lon="16.14364"><ele>25.0</ele><time>2026-04-12T11:39:15.962Z</time></trkpt><trkpt lat="38.07584" lon="16.143595"><ele>25.0</ele><time>2026-04-12T11:39:16.963Z</time></trkpt><trkpt lat="38.0756633" lon="16.143545"><ele>25.0</ele><time>2026-04-12T11:39:17.962Z</time></trkpt><trkpt lat="38.0754867" lon="16.14351"><ele>24.0</ele><time>2026-04-12T11:39:18.962Z</time></trkpt><trkpt lat="38.0753117" lon="16.143465"><ele>23.0</ele><time>2026-04-12T11:39:19.963Z</time></trkpt><trkpt lat="38.0751367" lon="16.1434217"><ele>22.0</ele><time>2026-04-12T11:39:20.962Z</time></trkpt><trkpt lat="38.074955" lon="16.1433783"><ele>21.666666666666664</ele><time>2026-04-12T11:39:21.962Z</time></trkpt><trkpt lat="38.0747783" lon="16.1433383"><ele>21.333333333333332</ele><time>2026-04-12T11:39:22.962Z</time></trkpt><trkpt lat="38.0746067" lon="16.1433033"><ele>21.0</ele><time>2026-04-12T11:39:23.963Z</time></trkpt><trkpt lat="38.0744317" lon="16.1432517"><ele>23.0</ele><time>2026-04-12T11:39:24.962Z</time></trkpt><trkpt lat="38.07426" lon="16.1432083"><ele>25.0</ele><time>2026-04-12T11:39:25.963Z</time></trkpt><trkpt lat="38.07409" lon="16.143165"><ele>27.0</ele><time>2026-04-12T11:39:26.962Z</time></trkpt><trkpt lat="38.073925" lon="16.143115"><ele>27.0</ele><time>2026-04-12T11:39:27.963Z</time></trkpt><trkpt lat="38.0737533" lon="16.1430683"><ele>27.0</ele><time>2026-04-12T11:39:28.962Z</time></trkpt><trkpt lat="38.07358" lon="16.1430233"><ele>27.0</ele><time>2026-04-12T11:39:29.963Z</time></trkpt><trkpt lat="38.073415" lon="16.142975"><ele>25.0</ele><time>2026-04-12T11:39:30.962Z</time></trkpt><trkpt lat="38.0732367" lon="16.14293"><ele>23.0</ele><time>2026-04-12T11:39:31.962Z</time></trkpt><trkpt lat="38.07306" lon="16.14288"><ele>21.0</ele><time>2026-04-12T11:39:32.962Z</time></trkpt><trkpt lat="38.072885" lon="16.1428233"><ele>21.0</ele><time>2026-04-12T11:39:33.962Z</time></trkpt><trkpt lat="38.072705" lon="16.1427783"><ele>21.0</ele><time>2026-04-12T11:39:34.962Z</time></trkpt><trkpt lat="38.07252" lon="16.142735"><ele>21.0</ele><time>2026-04-12T11:39:35.962Z</time></trkpt><trkpt lat="38.0723433" lon="16.1426917"><ele>20.0</ele><time>2026-04-12T11:39:36.963Z</time></trkpt><trkpt lat="38.0721667" lon="16.1426467"><ele>19.0</ele><time>2026-04-12T11:39:37.962Z</time></trkpt><trkpt lat="38.0719833" lon="16.1425967"><ele>18.0</ele><time>2026-04-12T11:39:38.962Z</time></trkpt><trkpt lat="38.071795" lon="16.14255"><ele>19.0</ele><time>2026-04-12T11:39:39.962Z</time></trkpt><trkpt lat="38.0716067" lon="16.1425033"><ele>20.0</ele><time>2026-04-12T11:39:40.962Z</time></trkpt><trkpt lat="38.07142" lon="16.1424533"><ele>21.0</ele><time>2026-04-12T11:39:41.962Z</time></trkpt><trkpt lat="38.0712417" lon="16.1424067"><ele>21.666666666666668</ele><time>2026-04-12T11:39:42.962Z</time></trkpt><trkpt lat="38.0710533" lon="16.1423533"><ele>22.333333333333336</ele><time>2026-04-12T11:39:43.962Z</time></trkpt><trkpt lat="38.07086" lon="16.1422967"><ele>23.0</ele><time>2026-04-12T11:39:44.962Z</time></trkpt><trkpt lat="38.0706683" lon="16.1422483"><ele>23.0</ele><time>2026-04-12T11:39:45.962Z</time></trkpt><trkpt lat="38.0704733" lon="16.1422033"><ele>23.0</ele><time>2026-04-12T11:39:46.963Z</time></trkpt><trkpt lat="38.0702817" lon="16.142155"><ele>23.0</ele><time>2026-04-12T11:39:47.962Z</time></trkpt><trkpt lat="38.07008" lon="16.1421033"><ele>22.0</ele><time>2026-04-12T11:39:48.962Z</time></trkpt><trkpt lat="38.0698917" lon="16.142045"><ele>21.0</ele><time>2026-04-12T11:39:49.962Z</time></trkpt><trkpt lat="38.069705" lon="16.14199"><ele>20.0</ele><time>2026-04-12T11:39:50.963Z</time></trkpt><trkpt lat="38.0695167" lon="16.1419333"><ele>20.0</ele><time>2026-04-12T11:39:51.962Z</time></trkpt><trkpt lat="38.0693217" lon="16.1418833"><ele>20.0</ele><time>2026-04-12T11:39:52.962Z</time></trkpt><trkpt lat="38.0691333" lon="16.14183"><ele>20.0</ele><time>2026-04-12T11:39:53.962Z</time></trkpt><trkpt lat="38.068945" lon="16.1417767"><ele>19.666666666666668</ele><time>2026-04-12T11:39:54.963Z</time></trkpt><trkpt lat="38.0687433" lon="16.141715"><ele>19.333333333333332</ele><time>2026-04-12T11:39:55.962Z</time></trkpt><trkpt lat="38.0685517" lon="16.1416617"><ele>19.0</ele><time>2026-04-12T11:39:56.963Z</time></trkpt><trkpt lat="38.0683567" lon="16.1416067"><ele>20.0</ele><time>2026-04-12T11:39:57.962Z</time></trkpt><trkpt lat="38.0681583" lon="16.1415433"><ele>21.0</ele><time>2026-04-12T11:39:58.962Z</time></trkpt><trkpt lat="38.0679617" lon="16.1414817"><ele>22.0</ele><time>2026-04-12T11:39:59.963Z</time></trkpt><trkpt lat="38.067765" lon="16.1414117"><ele>22.0</ele><time>2026-04-12T11:40:00.962Z</time></trkpt><trkpt lat="38.0675633" lon="16.14135"><ele>22.0</ele><time>2026-04-12T11:40:01.963Z</time></trkpt><trkpt lat="38.0673633" lon="16.141285"><ele>22.0</ele><time>2026-04-12T11:40:02.962Z</time></trkpt><trkpt lat="38.0671583" lon="16.141225"><ele>19.333333333333332</ele><time>2026-04-12T11:40:03.962Z</time></trkpt><trkpt lat="38.0669567" lon="16.1411683"><ele>16.666666666666668</ele><time>2026-04-12T11:40:04.963Z</time></trkpt><trkpt lat="38.066755" lon="16.1410983"><ele>14.0</ele><time>2026-04-12T11:40:05.962Z</time></trkpt><trkpt lat="38.0665533" lon="16.1410333"><ele>13.333333333333334</ele><time>2026-04-12T11:40:06.962Z</time></trkpt><trkpt lat="38.0663517" lon="16.1409733"><ele>12.666666666666668</ele><time>2026-04-12T11:40:07.962Z</time></trkpt><trkpt lat="38.0661483" lon="16.1409133"><ele>12.0</ele><time>2026-04-12T11:40:08.962Z</time></trkpt><trkpt lat="38.0659433" lon="16.140855"><ele>12.333333333333332</ele><time>2026-04-12T11:40:09.962Z</time></trkpt><trkpt lat="38.06574" lon="16.1407883"><ele>12.666666666666666</ele><time>2026-04-12T11:40:10.962Z</time></trkpt><trkpt lat="38.065535" lon="16.140725"><ele>13.0</ele><time>2026-04-12T11:40:11.962Z</time></trkpt><trkpt lat="38.0653367" lon="16.14067"><ele>13.0</ele><time>2026-04-12T11:40:12.962Z</time></trkpt><trkpt lat="38.065135" lon="16.1406067"><ele>13.0</ele><time>2026-04-12T11:40:13.962Z</time></trkpt><trkpt lat="38.06493" lon="16.14055"><ele>13.0</ele><time>2026-04-12T11:40:14.962Z</time></trkpt><trkpt lat="38.0647283" lon="16.1404983"><ele>12.333333333333332</ele><time>2026-04-12T11:40:15.962Z</time></trkpt><trkpt lat="38.0645217" lon="16.140445"><ele>11.666666666666666</ele><time>2026-04-12T11:40:16.962Z</time></trkpt><trkpt lat="38.0643233" lon="16.1403967"><ele>11.0</ele><time>2026-04-12T11:40:17.962Z</time></trkpt><trkpt lat="38.0641217" lon="16.140355"><ele>10.333333333333332</ele><time>2026-04-12T11:40:18.962Z</time></trkpt><trkpt lat="38.0639183" lon="16.14032"><ele>9.666666666666666</ele><time>2026-04-12T11:40:19.962Z</time></trkpt><trkpt lat="38.06372" lon="16.1402783"><ele>9.0</ele><time>2026-04-12T11:40:20.962Z</time></trkpt><trkpt lat="38.0635183" lon="16.1402433"><ele>9.0</ele><time>2026-04-12T11:40:21.962Z</time></trkpt><trkpt lat="38.063315" lon="16.1402017"><ele>9.0</ele><time>2026-04-12T11:40:22.962Z</time></trkpt><trkpt lat="38.0631167" lon="16.1401717"><ele>9.0</ele><time>2026-04-12T11:40:23.963Z</time></trkpt><trkpt lat="38.06291" lon="16.14013"><ele>9.0</ele><time>2026-04-12T11:40:24.962Z</time></trkpt><trkpt lat="38.0627067" lon="16.1400933"><ele>9.0</ele><time>2026-04-12T11:40:25.963Z</time></trkpt><trkpt lat="38.0625017" lon="16.1400583"><ele>9.0</ele><time>2026-04-12T11:40:26.962Z</time></trkpt><trkpt lat="38.06229" lon="16.14002"><ele>9.0</ele><time>2026-04-12T11:40:27.962Z</time></trkpt><trkpt lat="38.0620883" lon="16.1399833"><ele>9.0</ele><time>2026-04-12T11:40:28.962Z</time></trkpt><trkpt lat="38.0618817" lon="16.1399517"><ele>9.0</ele><time>2026-04-12T11:40:29.962Z</time></trkpt><trkpt lat="38.0616767" lon="16.1399067"><ele>10.0</ele><time>2026-04-12T11:40:30.963Z</time></trkpt><trkpt lat="38.0614683" lon="16.1398717"><ele>11.0</ele><time>2026-04-12T11:40:31.962Z</time></trkpt><trkpt lat="38.0612667" lon="16.1398367"><ele>12.0</ele><time>2026-04-12T11:40:32.962Z</time></trkpt><trkpt lat="38.0610667" lon="16.1398017"><ele>12.0</ele><time>2026-04-12T11:40:33.963Z</time></trkpt><trkpt lat="38.0608633" lon="16.13978"><ele>12.0</ele><time>2026-04-12T11:40:34.962Z</time></trkpt><trkpt lat="38.0606583" lon="16.139765"><ele>12.0</ele><time>2026-04-12T11:40:35.963Z</time></trkpt><trkpt lat="38.0604583" lon="16.1397617"><ele>12.333333333333332</ele><time>2026-04-12T11:40:36.963Z</time></trkpt><trkpt lat="38.0602583" lon="16.1397633"><ele>12.666666666666666</ele><time>2026-04-12T11:40:37.962Z</time></trkpt><trkpt lat="38.06006" lon="16.1397633"><ele>13.0</ele><time>2026-04-12T11:40:38.962Z</time></trkpt><trkpt lat="38.0598533" lon="16.1397667"><ele>11.333333333333332</ele><time>2026-04-12T11:40:39.962Z</time></trkpt><trkpt lat="38.05966" lon="16.139755"><ele>9.666666666666666</ele><time>2026-04-12T11:40:40.962Z</time></trkpt><trkpt lat="38.0594617" lon="16.1397283"><ele>8.0</ele><time>2026-04-12T11:40:41.963Z</time></trkpt><trkpt lat="38.059265" lon="16.139695"><ele>9.333333333333332</ele><time>2026-04-12T11:40:42.962Z</time></trkpt><trkpt lat="38.0590667" lon="16.1396617"><ele>10.666666666666666</ele><time>2026-04-12T11:40:43.962Z</time></trkpt><trkpt lat="38.0588683" lon="16.139625"><ele>12.0</ele><time>2026-04-12T11:40:44.962Z</time></trkpt><trkpt lat="38.05867" lon="16.13958"><ele>12.0</ele><time>2026-04-12T11:40:45.962Z</time></trkpt><trkpt lat="38.0584617" lon="16.1395417"><ele>12.0</ele><time>2026-04-12T11:40:46.962Z</time></trkpt><trkpt lat="38.05826" lon="16.1395033"><ele>12.0</ele><time>2026-04-12T11:40:47.962Z</time></trkpt><trkpt lat="38.058055" lon="16.1394667"><ele>12.333333333333332</ele><time>2026-04-12T11:40:48.963Z</time></trkpt><trkpt lat="38.05785" lon="16.139435"><ele>12.666666666666666</ele><time>2026-04-12T11:40:49.962Z</time></trkpt><trkpt lat="38.057645" lon="16.1394083"><ele>13.0</ele><time>2026-04-12T11:40:50.963Z</time></trkpt><trkpt lat="38.0574383" lon="16.13939"><ele>14.333333333333332</ele><time>2026-04-12T11:40:51.962Z</time></trkpt><trkpt lat="38.0572283" lon="16.1393967"><ele>15.666666666666668</ele><time>2026-04-12T11:40:52.962Z</time></trkpt><trkpt lat="38.0570217" lon="16.1394417"><ele>17.0</ele><time>2026-04-12T11:40:53.962Z</time></trkpt><trkpt lat="38.0568167" lon="16.139505"><ele>17.0</ele><time>2026-04-12T11:40:54.963Z</time></trkpt><trkpt lat="38.0566267" lon="16.1395583"><ele>17.0</ele><time>2026-04-12T11:40:55.963Z</time></trkpt><trkpt lat="38.0564217" lon="16.1396067"><ele>17.0</ele><time>2026-04-12T11:40:56.962Z</time></trkpt><trkpt lat="38.05622" lon="16.139635"><ele>17.0</ele><time>2026-04-12T11:40:57.962Z</time></trkpt><trkpt lat="38.05602" lon="16.1396317"><ele>17.0</ele><time>2026-04-12T11:40:58.962Z</time></trkpt><trkpt lat="38.0558233" lon="16.1396083"><ele>17.0</ele><time>2026-04-12T11:40:59.963Z</time></trkpt><trkpt lat="38.05563" lon="16.13956"><ele>17.0</ele><time>2026-04-12T11:41:00.962Z</time></trkpt><trkpt lat="38.05544" lon="16.1395133"><ele>17.0</ele><time>2026-04-12T11:41:01.962Z</time></trkpt><trkpt lat="38.0552533" lon="16.1394633"><ele>17.0</ele><time>2026-04-12T11:41:02.962Z</time></trkpt><trkpt lat="38.05506" lon="16.139415"><ele>16.666666666666668</ele><time>2026-04-12T11:41:03.962Z</time></trkpt><trkpt lat="38.05487" lon="16.1393783"><ele>16.333333333333332</ele><time>2026-04-12T11:41:04.962Z</time></trkpt><trkpt lat="38.0546783" lon="16.139335"><ele>16.0</ele><time>2026-04-12T11:41:05.962Z</time></trkpt><trkpt lat="38.0544917" lon="16.1392917"><ele>16.0</ele><time>2026-04-12T11:41:06.962Z</time></trkpt><trkpt lat="38.0543033" lon="16.1392467"><ele>16.0</ele><time>2026-04-12T11:41:07.962Z</time></trkpt><trkpt lat="38.0541067" lon="16.1392083"><ele>16.0</ele><time>2026-04-12T11:41:08.963Z</time></trkpt><trkpt lat="38.053905" lon="16.1392067"><ele>14.666666666666666</ele><time>2026-04-12T11:41:09.963Z</time></trkpt><trkpt lat="38.0536933" lon="16.1392167"><ele>13.333333333333332</ele><time>2026-04-12T11:41:10.962Z</time></trkpt><trkpt lat="38.053485" lon="16.139225"><ele>12.0</ele><time>2026-04-12T11:41:11.962Z</time></trkpt><trkpt lat="38.053285" lon="16.13923"><ele>11.666666666666666</ele><time>2026-04-12T11:41:12.962Z</time></trkpt><trkpt lat="38.05306" lon="16.1392033"><ele>11.333333333333332</ele><time>2026-04-12T11:41:13.962Z</time></trkpt><trkpt lat="38.052865" lon="16.1392333"><ele>11.0</ele><time>2026-04-12T11:41:14.962Z</time></trkpt><trkpt lat="38.0526767" lon="16.1392467"><ele>11.0</ele><time>2026-04-12T11:41:15.962Z</time></trkpt><trkpt lat="38.0525" lon="16.1392367"><ele>11.0</ele><time>2026-04-12T11:41:16.962Z</time></trkpt><trkpt lat="38.05234" lon="16.1392383"><ele>11.0</ele><time>2026-04-12T11:41:17.962Z</time></trkpt><trkpt lat="38.052175" lon="16.1392417"><ele>10.0</ele><time>2026-04-12T11:41:18.963Z</time></trkpt><trkpt lat="38.052015" lon="16.1392383"><ele>9.0</ele><time>2026-04-12T11:41:19.962Z</time></trkpt><trkpt lat="38.0518433" lon="16.1392483"><ele>8.0</ele><time>2026-04-12T11:41:20.963Z</time></trkpt><trkpt lat="38.05166" lon="16.1392583"><ele>7.666666666666666</ele><time>2026-04-12T11:41:21.962Z</time></trkpt><trkpt lat="38.0514733" lon="16.13926"><ele>7.333333333333334</ele><time>2026-04-12T11:41:22.963Z</time></trkpt><trkpt lat="38.0512783" lon="16.1392683"><ele>7.0</ele><time>2026-04-12T11:41:23.962Z</time></trkpt><trkpt lat="38.051085" lon="16.13927"><ele>7.0</ele><time>2026-04-12T11:41:24.963Z</time></trkpt><trkpt lat="38.0508817" lon="16.139275"><ele>7.0</ele><time>2026-04-12T11:41:25.962Z</time></trkpt><trkpt lat="38.0506683" lon="16.13929"><ele>7.0</ele><time>2026-04-12T11:41:26.962Z</time></trkpt><trkpt lat="38.0504567" lon="16.1393"><ele>6.666666666666667</ele><time>2026-04-12T11:41:27.962Z</time></trkpt><trkpt lat="38.050245" lon="16.1393117"><ele>6.333333333333334</ele><time>2026-04-12T11:41:28.963Z</time></trkpt><trkpt lat="38.0500283" lon="16.13932"><ele>6.0</ele><time>2026-04-12T11:41:29.962Z</time></trkpt><trkpt lat="38.0498217" lon="16.13932"><ele>5.666666666666667</ele><time>2026-04-12T11:41:30.963Z</time></trkpt><trkpt lat="38.0496017" lon="16.13933"><ele>5.333333333333334</ele><time>2026-04-12T11:41:31.962Z</time></trkpt><trkpt lat="38.0493883" lon="16.1393317"><ele>5.0</ele><time>2026-04-12T11:41:32.962Z</time></trkpt><trkpt lat="38.0491733" lon="16.1393383"><ele>5.333333333333334</ele><time>2026-04-12T11:41:33.962Z</time></trkpt><trkpt lat="38.0489583" lon="16.1393483"><ele>5.666666666666667</ele><time>2026-04-12T11:41:34.962Z</time></trkpt><trkpt lat="38.0487383" lon="16.1393567"><ele>6.0</ele><time>2026-04-12T11:41:35.962Z</time></trkpt><trkpt lat="38.0485183" lon="16.1393667"><ele>6.0</ele><time>2026-04-12T11:41:36.962Z</time></trkpt><trkpt lat="38.0482983" lon="16.1393683"><ele>6.0</ele><time>2026-04-12T11:41:37.962Z</time></trkpt><trkpt lat="38.04808" lon="16.1393717"><ele>6.0</ele><time>2026-04-12T11:41:38.962Z</time></trkpt><trkpt lat="38.0478533" lon="16.13938"><ele>6.333333333333334</ele><time>2026-04-12T11:41:39.963Z</time></trkpt><trkpt lat="38.04764" lon="16.1393833"><ele>6.666666666666667</ele><time>2026-04-12T11:41:40.962Z</time></trkpt><trkpt lat="38.0474183" lon="16.139385"><ele>7.0</ele><time>2026-04-12T11:41:41.962Z</time></trkpt><trkpt lat="38.0472" lon="16.139385"><ele>7.333333333333334</ele><time>2026-04-12T11:41:42.963Z</time></trkpt><trkpt lat="38.0469917" lon="16.1393883"><ele>7.666666666666666</ele><time>2026-04-12T11:41:43.962Z</time></trkpt><trkpt lat="38.0467833" lon="16.1393917"><ele>8.0</ele><time>2026-04-12T11:41:44.962Z</time></trkpt><trkpt lat="38.04658" lon="16.139405"><ele>8.333333333333332</ele><time>2026-04-12T11:41:45.963Z</time></trkpt><trkpt lat="38.04638" lon="16.1394333"><ele>8.666666666666666</ele><time>2026-04-12T11:41:46.963Z</time></trkpt><trkpt lat="38.0461883" lon="16.1394767"><ele>9.0</ele><time>2026-04-12T11:41:47.963Z</time></trkpt><trkpt lat="38.0460033" lon="16.1395383"><ele>9.0</ele><time>2026-04-12T11:41:48.962Z</time></trkpt><trkpt lat="38.04582" lon="16.1396133"><ele>9.0</ele><time>2026-04-12T11:41:49.963Z</time></trkpt><trkpt lat="38.045645" lon="16.1396917"><ele>9.0</ele><time>2026-04-12T11:41:50.962Z</time></trkpt><trkpt lat="38.0454783" lon="16.1397733"><ele>9.0</ele><time>2026-04-12T11:41:51.962Z</time></trkpt><trkpt lat="38.0453117" lon="16.1398533"><ele>9.0</ele><time>2026-04-12T11:41:52.962Z</time></trkpt><trkpt lat="38.0451383" lon="16.1399233"><ele>9.0</ele><time>2026-04-12T11:41:53.963Z</time></trkpt><trkpt lat="38.04497" lon="16.1399933"><ele>10.666666666666668</ele><time>2026-04-12T11:41:54.962Z</time></trkpt><trkpt lat="38.0448033" lon="16.14006"><ele>12.333333333333334</ele><time>2026-04-12T11:41:55.962Z</time></trkpt><trkpt lat="38.04464" lon="16.1401267"><ele>14.0</ele><time>2026-04-12T11:41:56.962Z</time></trkpt><trkpt lat="38.0444667" lon="16.1402083"><ele>14.0</ele><time>2026-04-12T11:41:57.962Z</time></trkpt><trkpt lat="38.0442983" lon="16.1402833"><ele>14.0</ele><time>2026-04-12T11:41:58.962Z</time></trkpt><trkpt lat="38.0441267" lon="16.14036"><ele>14.0</ele><time>2026-04-12T11:41:59.962Z</time></trkpt><trkpt lat="38.043955" lon="16.140435"><ele>17.333333333333336</ele><time>2026-04-12T11:42:00.962Z</time></trkpt><trkpt lat="38.04378" lon="16.140505"><ele>20.666666666666668</ele><time>2026-04-12T11:42:01.962Z</time></trkpt><trkpt lat="38.0436017" lon="16.14058"><ele>24.0</ele><time>2026-04-12T11:42:02.963Z</time></trkpt><trkpt lat="38.0434233" lon="16.1406433"><ele>22.0</ele><time>2026-04-12T11:42:03.962Z</time></trkpt><trkpt lat="38.0432383" lon="16.140695"><ele>20.0</ele><time>2026-04-12T11:42:04.963Z</time></trkpt><trkpt lat="38.0430483" lon="16.14073"><ele>18.0</ele><time>2026-04-12T11:42:05.963Z</time></trkpt><trkpt lat="38.042855" lon="16.1407717"><ele>18.0</ele><time>2026-04-12T11:42:06.963Z</time></trkpt><trkpt lat="38.042675" lon="16.1408067"><ele>18.0</ele><time>2026-04-12T11:42:07.963Z</time></trkpt><trkpt lat="38.0424983" lon="16.14088"><ele>18.0</ele><time>2026-04-12T11:42:08.962Z</time></trkpt><trkpt lat="38.04233" lon="16.1409733"><ele>24.333333333333336</ele><time>2026-04-12T11:42:09.962Z</time></trkpt><trkpt lat="38.042165" lon="16.1410917"><ele>30.666666666666668</ele><time>2026-04-12T11:42:10.962Z</time></trkpt><trkpt lat="38.0419983" lon="16.14122"><ele>37.0</ele><time>2026-04-12T11:42:11.962Z</time></trkpt><trkpt lat="38.0418367" lon="16.1413617"><ele>37.0</ele><time>2026-04-12T11:42:12.962Z</time></trkpt><trkpt lat="38.04168" lon="16.1415083"><ele>37.0</ele><time>2026-04-12T11:42:13.962Z</time></trkpt><trkpt lat="38.0415217" lon="16.1416683"><ele>37.0</ele><time>2026-04-12T11:42:14.962Z</time></trkpt><trkpt lat="38.0413667" lon="16.1418267"><ele>41.66666666666667</ele><time>2026-04-12T11:42:15.962Z</time></trkpt><trkpt lat="38.041205" lon="16.1419833"><ele>46.333333333333336</ele><time>2026-04-12T11:42:16.963Z</time></trkpt><trkpt lat="38.041055" lon="16.14213"><ele>51.0</ele><time>2026-04-12T11:42:17.962Z</time></trkpt><trkpt lat="38.0409217" lon="16.1422617"><ele>54.0</ele><time>2026-04-12T11:42:18.962Z</time></trkpt><trkpt lat="38.0407883" lon="16.1423867"><ele>57.0</ele><time>2026-04-12T11:42:19.962Z</time></trkpt><trkpt lat="38.0406733" lon="16.1425117"><ele>60.0</ele><time>2026-04-12T11:42:20.962Z</time></trkpt><trkpt lat="38.0405833" lon="16.1426283"><ele>63.0</ele><time>2026-04-12T11:42:21.962Z</time></trkpt><trkpt lat="38.040525" lon="16.1427333"><ele>63.0</ele><time>2026-04-12T11:42:22.962Z</time></trkpt><trkpt lat="38.0404917" lon="16.1428167"><ele>63.0</ele><time>2026-04-12T11:42:23.963Z</time></trkpt><trkpt lat="38.04045" lon="16.1429067"><ele>63.0</ele><time>2026-04-12T11:42:25.962Z</time></trkpt><trkpt lat="38.0404083" lon="16.143035"><ele>63.0</ele><time>2026-04-12T11:43:21.961Z</time></trkpt><trkpt lat="38.0403883" lon="16.1431333"><ele>63.0</ele><time>2026-04-12T11:43:22.962Z</time></trkpt><trkpt lat="38.0403733" lon="16.1432533"><ele>63.0</ele><time>2026-04-12T11:43:23.961Z</time></trkpt><trkpt lat="38.0403517" lon="16.1433883"><ele>59.5</ele><time>2026-04-12T11:43:24.962Z</time></trkpt><trkpt lat="38.0403283" lon="16.1435333"><ele>56.0</ele><time>2026-04-12T11:43:25.961Z</time></trkpt><trkpt lat="38.0402867" lon="16.1436883"><ele>52.5</ele><time>2026-04-12T11:43:26.962Z</time></trkpt><trkpt lat="38.0402317" lon="16.14386"><ele>49.0</ele><time>2026-04-12T11:43:27.961Z</time></trkpt><trkpt lat="38.0401567" lon="16.14404"><ele>46.33333333333333</ele><time>2026-04-12T11:43:28.962Z</time></trkpt><trkpt lat="38.0400683" lon="16.1442117"><ele>43.666666666666664</ele><time>2026-04-12T11:43:29.961Z</time></trkpt><trkpt lat="38.0399717" lon="16.1443833"><ele>41.0</ele><time>2026-04-12T11:43:30.961Z</time></trkpt><trkpt lat="38.0398817" lon="16.1445383"><ele>41.0</ele><time>2026-04-12T11:43:31.961Z</time></trkpt><trkpt lat="38.0397867" lon="16.144665"><ele>41.0</ele><time>2026-04-12T11:43:32.961Z</time></trkpt><trkpt lat="38.0396767" lon="16.14477"><ele>41.0</ele><time>2026-04-12T11:43:33.961Z</time></trkpt><trkpt lat="38.0395283" lon="16.1448117"><ele>41.0</ele><time>2026-04-12T11:43:34.961Z</time></trkpt><trkpt lat="38.039365" lon="16.144805"><ele>41.0</ele><time>2026-04-12T11:43:35.961Z</time></trkpt><trkpt lat="38.0392033" lon="16.14475"><ele>41.0</ele><time>2026-04-12T11:43:36.961Z</time></trkpt><trkpt lat="38.0390683" lon="16.14459"><ele>41.0</ele><time>2026-04-12T11:43:37.962Z</time></trkpt><trkpt lat="38.0389583" lon="16.1444017"><ele>38.666666666666664</ele><time>2026-04-12T11:43:38.962Z</time></trkpt><trkpt lat="38.0388533" lon="16.1442017"><ele>36.333333333333336</ele><time>2026-04-12T11:43:39.961Z</time></trkpt><trkpt lat="38.0387333" lon="16.144"><ele>34.0</ele><time>2026-04-12T11:43:40.962Z</time></trkpt><trkpt lat="38.038605" lon="16.1437983"><ele>34.0</ele><time>2026-04-12T11:43:41.962Z</time></trkpt><trkpt lat="38.0384733" lon="16.1436"><ele>34.0</ele><time>2026-04-12T11:43:42.962Z</time></trkpt><trkpt lat="38.0383483" lon="16.1433867"><ele>34.0</ele><time>2026-04-12T11:43:43.961Z</time></trkpt><trkpt lat="38.038225" lon="16.1431633"><ele>32.66666666666667</ele><time>2026-04-12T11:43:44.961Z</time></trkpt><trkpt lat="38.0380733" lon="16.1429867"><ele>31.333333333333336</ele><time>2026-04-12T11:43:45.962Z</time></trkpt><trkpt lat="38.0378967" lon="16.14283"><ele>30.0</ele><time>2026-04-12T11:43:46.961Z</time></trkpt><trkpt lat="38.0377017" lon="16.1427267"><ele>30.0</ele><time>2026-04-12T11:43:47.961Z</time></trkpt><trkpt lat="38.0374817" lon="16.14265"><ele>30.0</ele><time>2026-04-12T11:43:48.962Z</time></trkpt><trkpt lat="38.0372533" lon="16.1426333"><ele>28.5</ele><time>2026-04-12T11:43:49.962Z</time></trkpt><trkpt lat="38.0370217" lon="16.142625"><ele>27.0</ele><time>2026-04-12T11:43:50.961Z</time></trkpt><trkpt lat="38.0367817" lon="16.142625"><ele>24.0</ele><time>2026-04-12T11:43:51.961Z</time></trkpt><trkpt lat="38.036545" lon="16.1426067"><ele>21.0</ele><time>2026-04-12T11:43:52.961Z</time></trkpt><trkpt lat="38.036305" lon="16.14258"><ele>21.0</ele><time>2026-04-12T11:43:53.962Z</time></trkpt><trkpt lat="38.0360617" lon="16.14254"><ele>21.0</ele><time>2026-04-12T11:43:54.961Z</time></trkpt><trkpt lat="38.0358133" lon="16.1425133"><ele>26.0</ele><time>2026-04-12T11:43:55.961Z</time></trkpt><trkpt lat="38.035565" lon="16.142525"><ele>31.0</ele><time>2026-04-12T11:43:56.961Z</time></trkpt><trkpt lat="38.03531" lon="16.14256"><ele>31.0</ele><time>2026-04-12T11:43:57.961Z</time></trkpt><trkpt lat="38.0350533" lon="16.1426067"><ele>31.0</ele><time>2026-04-12T11:43:58.961Z</time></trkpt><trkpt lat="38.0347967" lon="16.1426417"><ele>37.0</ele><time>2026-04-12T11:43:59.961Z</time></trkpt><trkpt lat="38.034545" lon="16.142685"><ele>43.0</ele><time>2026-04-12T11:44:00.961Z</time></trkpt><trkpt lat="38.03429" lon="16.1427383"><ele>49.0</ele><time>2026-04-12T11:44:01.961Z</time></trkpt><trkpt lat="38.0340283" lon="16.1427917"><ele>55.0</ele><time>2026-04-12T11:44:02.962Z</time></trkpt><trkpt lat="38.033775" lon="16.1428567"><ele>55.0</ele><time>2026-04-12T11:44:03.961Z</time></trkpt><trkpt lat="38.033525" lon="16.1429467"><ele>55.0</ele><time>2026-04-12T11:44:04.961Z</time></trkpt><trkpt lat="38.03328" lon="16.1430383"><ele>57.5</ele><time>2026-04-12T11:44:05.961Z</time></trkpt><trkpt lat="38.033045" lon="16.143115"><ele>60.0</ele><time>2026-04-12T11:44:06.962Z</time></trkpt><trkpt lat="38.03279" lon="16.1431717"><ele>60.0</ele><time>2026-04-12T11:44:07.961Z</time></trkpt><trkpt lat="38.0325317" lon="16.1432"><ele>60.0</ele><time>2026-04-12T11:44:08.961Z</time></trkpt><trkpt lat="38.03226" lon="16.1431867"><ele>52.0</ele><time>2026-04-12T11:44:09.961Z</time></trkpt><trkpt lat="38.0319983" lon="16.143135"><ele>44.0</ele><time>2026-04-12T11:44:10.961Z</time></trkpt><trkpt lat="38.0317417" lon="16.14305"><ele>36.5</ele><time>2026-04-12T11:44:11.961Z</time></trkpt><trkpt lat="38.03149" lon="16.1429467"><ele>29.0</ele><time>2026-04-12T11:44:12.962Z</time></trkpt><trkpt lat="38.0312533" lon="16.14282"><ele>29.0</ele><time>2026-04-12T11:44:13.961Z</time></trkpt><trkpt lat="38.031035" lon="16.1426683"><ele>29.0</ele><time>2026-04-12T11:44:14.961Z</time></trkpt><trkpt lat="38.0308233" lon="16.1425283"><ele>26.0</ele><time>2026-04-12T11:44:15.961Z</time></trkpt><trkpt lat="38.0306017" lon="16.1424317"><ele>23.0</ele><time>2026-04-12T11:44:16.962Z</time></trkpt><trkpt lat="38.03039" lon="16.1423767"><ele>38.0</ele><time>2026-04-12T11:44:17.961Z</time></trkpt><trkpt lat="38.03019" lon="16.142345"><ele>53.0</ele><time>2026-04-12T11:44:18.962Z</time></trkpt><trkpt lat="38.0300183" lon="16.1423183"><ele>68.0</ele><time>2026-04-12T11:44:19.961Z</time></trkpt><trkpt lat="38.029885" lon="16.1423033"><ele>68.0</ele><time>2026-04-12T11:44:20.961Z</time></trkpt><trkpt lat="38.02979" lon="16.1423033"><ele>68.0</ele><time>2026-04-12T11:44:21.961Z</time></trkpt><trkpt lat="38.0297233" lon="16.142315"><ele>68.0</ele><time>2026-04-12T11:44:22.962Z</time></trkpt><trkpt lat="38.02964" lon="16.1423233"><ele>68.0</ele><time>2026-04-12T11:46:06.961Z</time></trkpt><trkpt lat="38.0295617" lon="16.1423333"><ele>68.0</ele><time>2026-04-12T11:46:07.961Z</time></trkpt><trkpt lat="38.029425" lon="16.1423217"><ele>68.0</ele><time>2026-04-12T11:46:08.961Z</time></trkpt><trkpt lat="38.029245" lon="16.1422867"><ele>68.0</ele><time>2026-04-12T11:46:09.961Z</time></trkpt><trkpt lat="38.0290417" lon="16.1422017"><ele>68.0</ele><time>2026-04-12T11:46:10.961Z</time></trkpt><trkpt lat="38.02883" lon="16.1420667"><ele>48.5</ele><time>2026-04-12T11:46:11.961Z</time></trkpt><trkpt lat="38.028605" lon="16.1419033"><ele>29.0</ele><time>2026-04-12T11:46:12.961Z</time></trkpt><trkpt lat="38.02838" lon="16.14171"><ele>25.5</ele><time>2026-04-12T11:46:13.961Z</time></trkpt><trkpt lat="38.02815" lon="16.14151"><ele>22.0</ele><time>2026-04-12T11:46:14.961Z</time></trkpt><trkpt lat="38.0279217" lon="16.141275"><ele>22.0</ele><time>2026-04-12T11:46:15.961Z</time></trkpt><trkpt lat="38.0276883" lon="16.141025"><ele>22.0</ele><time>2026-04-12T11:46:16.961Z</time></trkpt><trkpt lat="38.0274383" lon="16.1407617"><ele>21.0</ele><time>2026-04-12T11:46:17.961Z</time></trkpt><trkpt lat="38.0271767" lon="16.1405"><ele>20.0</ele><time>2026-04-12T11:46:18.961Z</time></trkpt><trkpt lat="38.0269033" lon="16.1402483"><ele>19.5</ele><time>2026-04-12T11:46:19.961Z</time></trkpt><trkpt lat="38.0266217" lon="16.1400067"><ele>19.0</ele><time>2026-04-12T11:46:20.961Z</time></trkpt><trkpt lat="38.02633" lon="16.1397783"><ele>19.0</ele><time>2026-04-12T11:46:21.962Z</time></trkpt><trkpt lat="38.0260333" lon="16.1395733"><ele>19.0</ele><time>2026-04-12T11:46:22.961Z</time></trkpt><trkpt lat="38.0257283" lon="16.1393933"><ele>16.0</ele><time>2026-04-12T11:46:23.961Z</time></trkpt><trkpt lat="38.0254017" lon="16.13924"><ele>13.0</ele><time>2026-04-12T11:46:24.961Z</time></trkpt><trkpt lat="38.025055" lon="16.13912"><ele>16.5</ele><time>2026-04-12T11:46:25.962Z</time></trkpt><trkpt lat="38.0247167" lon="16.13899"><ele>20.0</ele><time>2026-04-12T11:46:26.961Z</time></trkpt><trkpt lat="38.0243967" lon="16.1388383"><ele>16.0</ele><time>2026-04-12T11:46:27.961Z</time></trkpt><trkpt lat="38.0240783" lon="16.138675"><ele>12.0</ele><time>2026-04-12T11:46:28.961Z</time></trkpt><trkpt lat="38.0237617" lon="16.13851"><ele>12.0</ele><time>2026-04-12T11:46:29.961Z</time></trkpt><trkpt lat="38.0234617" lon="16.138355"><ele>12.0</ele><time>2026-04-12T11:46:30.961Z</time></trkpt><trkpt lat="38.02317" lon="16.1382"><ele>14.5</ele><time>2026-04-12T11:46:31.961Z</time></trkpt><trkpt lat="38.0228783" lon="16.138045"><ele>17.0</ele><time>2026-04-12T11:46:32.962Z</time></trkpt><trkpt lat="38.022605" lon="16.1378517"><ele>17.5</ele><time>2026-04-12T11:46:33.961Z</time></trkpt><trkpt lat="38.02235" lon="16.137615"><ele>18.0</ele><time>2026-04-12T11:46:34.961Z</time></trkpt><trkpt lat="38.0221067" lon="16.137325"><ele>18.0</ele><time>2026-04-12T11:46:35.962Z</time></trkpt><trkpt lat="38.0218617" lon="16.13702"><ele>18.0</ele><time>2026-04-12T11:46:36.961Z</time></trkpt><trkpt lat="38.0216283" lon="16.136735"><ele>16.5</ele><time>2026-04-12T11:46:37.961Z</time></trkpt><trkpt lat="38.0213967" lon="16.136465"><ele>15.0</ele><time>2026-04-12T11:46:38.961Z</time></trkpt><trkpt lat="38.02117" lon="16.1361933"><ele>15.0</ele><time>2026-04-12T11:46:39.961Z</time></trkpt><trkpt lat="38.0209533" lon="16.1359383"><ele>15.0</ele><time>2026-04-12T11:46:40.961Z</time></trkpt><trkpt lat="38.0207417" lon="16.1356633"><ele>13.0</ele><time>2026-04-12T11:46:41.962Z</time></trkpt><trkpt lat="38.020555" lon="16.1353867"><ele>11.0</ele><time>2026-04-12T11:46:42.961Z</time></trkpt><trkpt lat="38.0203817" lon="16.1351017"><ele>12.0</ele><time>2026-04-12T11:46:43.962Z</time></trkpt><trkpt lat="38.0202267" lon="16.1348233"><ele>13.0</ele><time>2026-04-12T11:46:44.961Z</time></trkpt><trkpt lat="38.0200883" lon="16.1345683"><ele>11.0</ele><time>2026-04-12T11:46:45.961Z</time></trkpt><trkpt lat="38.0199117" lon="16.13435"><ele>9.0</ele><time>2026-04-12T11:46:46.961Z</time></trkpt><trkpt lat="38.0197133" lon="16.134195"><ele>9.0</ele><time>2026-04-12T11:46:47.961Z</time></trkpt><trkpt lat="38.01947" lon="16.1340817"><ele>9.0</ele><time>2026-04-12T11:46:48.962Z</time></trkpt><trkpt lat="38.0192167" lon="16.1339583"><ele>8.5</ele><time>2026-04-12T11:46:49.961Z</time></trkpt><trkpt lat="38.0189683" lon="16.1338517"><ele>8.0</ele><time>2026-04-12T11:46:50.962Z</time></trkpt><trkpt lat="38.018725" lon="16.133735"><ele>8.0</ele><time>2026-04-12T11:46:51.961Z</time></trkpt><trkpt lat="38.0184883" lon="16.1336383"><ele>8.0</ele><time>2026-04-12T11:46:52.961Z</time></trkpt><trkpt lat="38.0182717" lon="16.133545"><ele>9.333333333333332</ele><time>2026-04-12T11:46:53.961Z</time></trkpt><trkpt lat="38.018075" lon="16.13345"><ele>10.666666666666666</ele><time>2026-04-12T11:46:54.962Z</time></trkpt><trkpt lat="38.0178733" lon="16.1333783"><ele>12.0</ele><time>2026-04-12T11:46:55.962Z</time></trkpt><trkpt lat="38.0176667" lon="16.133345"><ele>14.666666666666668</ele><time>2026-04-12T11:46:56.961Z</time></trkpt><trkpt lat="38.0174517" lon="16.13338"><ele>17.333333333333336</ele><time>2026-04-12T11:46:57.961Z</time></trkpt><trkpt lat="38.0172317" lon="16.1334533"><ele>20.0</ele><time>2026-04-12T11:46:58.961Z</time></trkpt><trkpt lat="38.0170167" lon="16.1335817"><ele>20.0</ele><time>2026-04-12T11:46:59.961Z</time></trkpt><trkpt lat="38.0168" lon="16.1337033"><ele>20.0</ele><time>2026-04-12T11:47:00.961Z</time></trkpt><trkpt lat="38.0165933" lon="16.1337967"><ele>21.5</ele><time>2026-04-12T11:47:01.962Z</time></trkpt><trkpt lat="38.01637" lon="16.1338433"><ele>23.0</ele><time>2026-04-12T11:47:02.961Z</time></trkpt><trkpt lat="38.0161467" lon="16.1338317"><ele>23.0</ele><time>2026-04-12T11:47:03.961Z</time></trkpt><trkpt lat="38.0159083" lon="16.1337567"><ele>23.0</ele><time>2026-04-12T11:47:04.961Z</time></trkpt><trkpt lat="38.0156533" lon="16.1336167"><ele>25.0</ele><time>2026-04-12T11:47:05.961Z</time></trkpt><trkpt lat="38.0153883" lon="16.1334283"><ele>27.0</ele><time>2026-04-12T11:47:06.962Z</time></trkpt><trkpt lat="38.01511" lon="16.133215"><ele>23.0</ele><time>2026-04-12T11:47:07.961Z</time></trkpt><trkpt lat="38.0147983" lon="16.1330267"><ele>19.0</ele><time>2026-04-12T11:47:08.962Z</time></trkpt><trkpt lat="38.0144783" lon="16.132835"><ele>15.5</ele><time>2026-04-12T11:47:09.961Z</time></trkpt><trkpt lat="38.0141383" lon="16.132635"><ele>12.0</ele><time>2026-04-12T11:47:10.961Z</time></trkpt><trkpt lat="38.013795" lon="16.132425"><ele>13.5</ele><time>2026-04-12T11:47:11.961Z</time></trkpt><trkpt lat="38.0134467" lon="16.1322183"><ele>15.0</ele><time>2026-04-12T11:47:12.962Z</time></trkpt><trkpt lat="38.0130817" lon="16.1319967"><ele>15.0</ele><time>2026-04-12T11:47:13.961Z</time></trkpt><trkpt lat="38.0127167" lon="16.1317717"><ele>15.0</ele><time>2026-04-12T11:47:14.961Z</time></trkpt><trkpt lat="38.0123433" lon="16.1315367"><ele>17.0</ele><time>2026-04-12T11:47:15.961Z</time></trkpt><trkpt lat="38.0119617" lon="16.1313133"><ele>19.0</ele><time>2026-04-12T11:47:16.961Z</time></trkpt><trkpt lat="38.0115783" lon="16.1310767"><ele>17.5</ele><time>2026-04-12T11:47:17.962Z</time></trkpt><trkpt lat="38.0112033" lon="16.1308517"><ele>16.0</ele><time>2026-04-12T11:47:18.961Z</time></trkpt><trkpt lat="38.0108783" lon="16.1306483"><ele>12.5</ele><time>2026-04-12T11:47:19.962Z</time></trkpt><trkpt lat="38.0106083" lon="16.13048"><ele>9.0</ele><time>2026-04-12T11:47:20.961Z</time></trkpt><trkpt lat="38.010395" lon="16.1303517"><ele>9.0</ele><time>2026-04-12T11:47:21.961Z</time></trkpt><trkpt lat="38.0102117" lon="16.130235"><ele>9.0</ele><time>2026-04-12T11:47:22.962Z</time></trkpt><trkpt lat="38.0100317" lon="16.1301233"><ele>9.0</ele><time>2026-04-12T11:47:23.961Z</time></trkpt><trkpt lat="38.009865" lon="16.13002"><ele>8.75</ele><time>2026-04-12T11:47:24.962Z</time></trkpt><trkpt lat="38.0097233" lon="16.1299217"><ele>8.5</ele><time>2026-04-12T11:47:25.961Z</time></trkpt><trkpt lat="38.0096033" lon="16.1298383"><ele>8.25</ele><time>2026-04-12T11:47:26.961Z</time></trkpt><trkpt lat="38.0094967" lon="16.129775"><ele>8.0</ele><time>2026-04-12T11:47:27.961Z</time></trkpt><trkpt lat="38.0094033" lon="16.1297167"><ele>8.5</ele><time>2026-04-12T11:47:28.961Z</time></trkpt><trkpt lat="38.0093367" lon="16.1296533"><ele>9.0</ele><time>2026-04-12T11:47:29.961Z</time></trkpt><trkpt lat="38.0092917" lon="16.1295933"><ele>9.5</ele><time>2026-04-12T11:47:30.961Z</time></trkpt><trkpt lat="38.00924" lon="16.1294783"><ele>10.0</ele><time>2026-04-12T11:47:32.961Z</time></trkpt><trkpt lat="38.00919" lon="16.1294167"><ele>10.5</ele><time>2026-04-12T11:47:35.961Z</time></trkpt><trkpt lat="38.00924" lon="16.12933"><ele>11.0</ele><time>2026-04-12T11:48:48.961Z</time></trkpt><trkpt lat="38.0092817" lon="16.12927"><ele>10.75</ele><time>2026-04-12T11:50:56.961Z</time></trkpt><trkpt lat="38.0091467" lon="16.1292817"><ele>10.5</ele><time>2026-04-12T11:50:58.961Z</time></trkpt><trkpt lat="38.009045" lon="16.12929"><ele>10.25</ele><time>2026-04-12T11:50:59.962Z</time></trkpt><trkpt lat="38.0089417" lon="16.1292833"><ele>10.0</ele><time>2026-04-12T11:51:00.961Z</time></trkpt><trkpt lat="38.0088267" lon="16.1292483"><ele>10.0</ele><time>2026-04-12T11:51:01.961Z</time></trkpt><trkpt lat="38.0086883" lon="16.1291933"><ele>10.0</ele><time>2026-04-12T11:51:02.961Z</time></trkpt><trkpt lat="38.0085333" lon="16.129125"><ele>10.0</ele><time>2026-04-12T11:51:03.961Z</time></trkpt><trkpt lat="38.0083717" lon="16.129045"><ele>12.0</ele><time>2026-04-12T11:51:04.962Z</time></trkpt><trkpt lat="38.0082017" lon="16.1289483"><ele>14.0</ele><time>2026-04-12T11:51:05.961Z</time></trkpt><trkpt lat="38.008015" lon="16.1288433"><ele>16.0</ele><time>2026-04-12T11:51:06.961Z</time></trkpt><trkpt lat="38.00782" lon="16.1287433"><ele>16.0</ele><time>2026-04-12T11:51:07.961Z</time></trkpt><trkpt lat="38.0076167" lon="16.1286267"><ele>16.0</ele><time>2026-04-12T11:51:08.961Z</time></trkpt><trkpt lat="38.0074033" lon="16.1285233"><ele>12.5</ele><time>2026-04-12T11:51:09.961Z</time></trkpt><trkpt lat="38.00719" lon="16.1284167"><ele>9.0</ele><time>2026-04-12T11:51:10.961Z</time></trkpt><trkpt lat="38.0069767" lon="16.1282883"><ele>10.0</ele><time>2026-04-12T11:51:11.961Z</time></trkpt><trkpt lat="38.00676" lon="16.1281617"><ele>11.0</ele><time>2026-04-12T11:51:12.961Z</time></trkpt><trkpt lat="38.0065483" lon="16.12804"><ele>11.0</ele><time>2026-04-12T11:51:13.962Z</time></trkpt><trkpt lat="38.00633" lon="16.1279217"><ele>11.0</ele><time>2026-04-12T11:51:14.961Z</time></trkpt><trkpt lat="38.006105" lon="16.12781"><ele>11.0</ele><time>2026-04-12T11:51:15.961Z</time></trkpt><trkpt lat="38.005885" lon="16.1277117"><ele>11.0</ele><time>2026-04-12T11:51:16.961Z</time></trkpt><trkpt lat="38.0056683" lon="16.12762"><ele>11.0</ele><time>2026-04-12T11:51:17.962Z</time></trkpt><trkpt lat="38.005445" lon="16.1275333"><ele>11.0</ele><time>2026-04-12T11:51:18.961Z</time></trkpt><trkpt lat="38.00522" lon="16.1274383"><ele>15.0</ele><time>2026-04-12T11:51:19.961Z</time></trkpt><trkpt lat="38.0049983" lon="16.1273317"><ele>19.0</ele><time>2026-04-12T11:51:20.961Z</time></trkpt><trkpt lat="38.0047783" lon="16.1272317"><ele>19.0</ele><time>2026-04-12T11:51:21.961Z</time></trkpt><trkpt lat="38.0045533" lon="16.1271317"><ele>19.0</ele><time>2026-04-12T11:51:22.961Z</time></trkpt><trkpt lat="38.0043233" lon="16.1270233"><ele>13.5</ele><time>2026-04-12T11:51:23.961Z</time></trkpt><trkpt lat="38.0040983" lon="16.1269083"><ele>8.0</ele><time>2026-04-12T11:51:24.961Z</time></trkpt><trkpt lat="38.00387" lon="16.126785"><ele>8.0</ele><time>2026-04-12T11:51:25.961Z</time></trkpt><trkpt lat="38.0036417" lon="16.1266667"><ele>8.0</ele><time>2026-04-12T11:51:26.961Z</time></trkpt><trkpt lat="38.0034183" lon="16.12654"><ele>9.5</ele><time>2026-04-12T11:51:27.961Z</time></trkpt><trkpt lat="38.00319" lon="16.1264083"><ele>11.0</ele><time>2026-04-12T11:51:28.962Z</time></trkpt><trkpt lat="38.0029717" lon="16.126275"><ele>11.0</ele><time>2026-04-12T11:51:29.961Z</time></trkpt><trkpt lat="38.0027467" lon="16.12614"><ele>11.0</ele><time>2026-04-12T11:51:30.962Z</time></trkpt><trkpt lat="38.0025283" lon="16.1259967"><ele>10.5</ele><time>2026-04-12T11:51:31.961Z</time></trkpt><trkpt lat="38.0023083" lon="16.1258417"><ele>10.0</ele><time>2026-04-12T11:51:32.961Z</time></trkpt><trkpt lat="38.0021017" lon="16.125665"><ele>10.0</ele><time>2026-04-12T11:51:33.961Z</time></trkpt><trkpt lat="38.0019117" lon="16.1254517"><ele>10.0</ele><time>2026-04-12T11:51:34.961Z</time></trkpt><trkpt lat="38.00174" lon="16.1252367"><ele>9.0</ele><time>2026-04-12T11:51:35.961Z</time></trkpt><trkpt lat="38.0015767" lon="16.1250117"><ele>8.0</ele><time>2026-04-12T11:51:36.961Z</time></trkpt><trkpt lat="38.0014167" lon="16.124795"><ele>8.0</ele><time>2026-04-12T11:51:37.961Z</time></trkpt><trkpt lat="38.00125" lon="16.1245833"><ele>8.0</ele><time>2026-04-12T11:51:38.962Z</time></trkpt><trkpt lat="38.0010883" lon="16.1243817"><ele>8.0</ele><time>2026-04-12T11:51:39.961Z</time></trkpt><trkpt lat="38.0009467" lon="16.1241833"><ele>8.0</ele><time>2026-04-12T11:51:40.962Z</time></trkpt><trkpt lat="38.0008167" lon="16.124"><ele>8.0</ele><time>2026-04-12T11:51:41.961Z</time></trkpt><trkpt lat="38.0006867" lon="16.1238217"><ele>7.666666666666666</ele><time>2026-04-12T11:51:42.961Z</time></trkpt><trkpt lat="38.0005667" lon="16.1236517"><ele>7.333333333333334</ele><time>2026-04-12T11:51:43.961Z</time></trkpt><trkpt lat="38.00044" lon="16.1234917"><ele>7.0</ele><time>2026-04-12T11:51:44.961Z</time></trkpt><trkpt lat="38.000305" lon="16.1233317"><ele>7.666666666666667</ele><time>2026-04-12T11:51:45.961Z</time></trkpt><trkpt lat="38.0001617" lon="16.12319"><ele>8.333333333333334</ele><time>2026-04-12T11:51:46.961Z</time></trkpt><trkpt lat="38.0000133" lon="16.1230717"><ele>9.0</ele><time>2026-04-12T11:51:47.961Z</time></trkpt><trkpt lat="37.99986" lon="16.122975"><ele>9.0</ele><time>2026-04-12T11:51:48.961Z</time></trkpt><trkpt lat="37.9996967" lon="16.1228933"><ele>9.0</ele><time>2026-04-12T11:51:49.961Z</time></trkpt><trkpt lat="37.9995317" lon="16.1228233"><ele>9.0</ele><time>2026-04-12T11:51:50.962Z</time></trkpt><trkpt lat="37.99937" lon="16.1227867"><ele>9.0</ele><time>2026-04-12T11:51:51.961Z</time></trkpt><trkpt lat="37.999225" lon="16.1227667"><ele>9.0</ele><time>2026-04-12T11:51:52.961Z</time></trkpt><trkpt lat="37.9990967" lon="16.122765"><ele>9.0</ele><time>2026-04-12T11:51:53.961Z</time></trkpt><trkpt lat="37.9989833" lon="16.1227667"><ele>9.0</ele><time>2026-04-12T11:51:54.961Z</time></trkpt><trkpt lat="37.998905" lon="16.1227733"><ele>8.6</ele><time>2026-04-12T11:51:55.961Z</time></trkpt><trkpt lat="37.9988217" lon="16.12275"><ele>8.2</ele><time>2026-04-12T11:51:57.961Z</time></trkpt><trkpt lat="37.9988717" lon="16.122635"><ele>7.799999999999999</ele><time>2026-04-12T11:53:48.961Z</time></trkpt><trkpt lat="37.998935" lon="16.1225567"><ele>7.3999999999999995</ele><time>2026-04-12T11:53:49.961Z</time></trkpt><trkpt lat="37.9990083" lon="16.122475"><ele>7.0</ele><time>2026-04-12T11:53:50.961Z</time></trkpt><trkpt lat="37.999075" lon="16.1224"><ele>7.6</ele><time>2026-04-12T11:53:51.961Z</time></trkpt><trkpt lat="37.9991483" lon="16.122335"><ele>8.2</ele><time>2026-04-12T11:53:52.962Z</time></trkpt><trkpt lat="37.99923" lon="16.1222883"><ele>8.8</ele><time>2026-04-12T11:53:53.961Z</time></trkpt><trkpt lat="37.9993267" lon="16.122245"><ele>9.4</ele><time>2026-04-12T11:53:54.961Z</time></trkpt><trkpt lat="37.9994383" lon="16.1221967"><ele>10.0</ele><time>2026-04-12T11:53:55.961Z</time></trkpt><trkpt lat="37.99955" lon="16.1221517"><ele>10.2</ele><time>2026-04-12T11:53:56.962Z</time></trkpt><trkpt lat="37.999655" lon="16.1220933"><ele>10.4</ele><time>2026-04-12T11:53:57.961Z</time></trkpt><trkpt lat="37.9997483" lon="16.1220317"><ele>10.600000000000001</ele><time>2026-04-12T11:53:58.961Z</time></trkpt><trkpt lat="37.9998417" lon="16.1219517"><ele>10.8</ele><time>2026-04-12T11:53:59.962Z</time></trkpt><trkpt lat="37.99994" lon="16.12188"><ele>11.0</ele><time>2026-04-12T11:54:00.961Z</time></trkpt><trkpt lat="38.0000317" lon="16.1218033"><ele>11.0</ele><time>2026-04-12T11:54:01.961Z</time></trkpt><trkpt lat="38.0001233" lon="16.1217467"><ele>11.0</ele><time>2026-04-12T11:54:02.962Z</time></trkpt><trkpt lat="38.0002033" lon="16.1217083"><ele>11.0</ele><time>2026-04-12T11:54:03.961Z</time></trkpt><trkpt lat="38.000265" lon="16.121675"><ele>11.0</ele><time>2026-04-12T11:54:04.962Z</time></trkpt><trkpt lat="38.0003233" lon="16.1216367"><ele>11.0</ele><time>2026-04-12T11:54:05.961Z</time></trkpt><trkpt lat="38.0003783" lon="16.1215933"><ele>11.0</ele><time>2026-04-12T11:54:06.961Z</time></trkpt><trkpt lat="38.0004367" lon="16.121555"><ele>11.166666666666666</ele><time>2026-04-12T11:54:07.961Z</time></trkpt><trkpt lat="38.0004967" lon="16.1215283"><ele>11.333333333333332</ele><time>2026-04-12T11:54:08.961Z</time></trkpt><trkpt lat="38.000565" lon="16.1215083"><ele>11.5</ele><time>2026-04-12T11:54:09.961Z</time></trkpt><trkpt lat="38.0006483" lon="16.1215"><ele>11.666666666666666</ele><time>2026-04-12T11:54:10.961Z</time></trkpt><trkpt lat="38.0007283" lon="16.1214567"><ele>11.833333333333334</ele><time>2026-04-12T11:54:11.961Z</time></trkpt><trkpt lat="38.0008167" lon="16.1213967"><ele>12.0</ele><time>2026-04-12T11:54:12.961Z</time></trkpt><trkpt lat="38.0009017" lon="16.1213267"><ele>12.399999999999999</ele><time>2026-04-12T11:54:13.961Z</time></trkpt><trkpt lat="38.0009867" lon="16.1212383"><ele>12.799999999999999</ele><time>2026-04-12T11:54:14.961Z</time></trkpt><trkpt lat="38.001075" lon="16.1211483"><ele>13.2</ele><time>2026-04-12T11:54:15.961Z</time></trkpt><trkpt lat="38.0011583" lon="16.121055"><ele>13.6</ele><time>2026-04-12T11:54:16.962Z</time></trkpt><trkpt lat="38.0012467" lon="16.1209683"><ele>14.0</ele><time>2026-04-12T11:54:17.961Z</time></trkpt><trkpt lat="38.0013267" lon="16.1208833"><ele>14.000000000000002</ele><time>2026-04-12T11:54:18.961Z</time></trkpt><trkpt lat="38.0014167" lon="16.1208083"><ele>14.0</ele><time>2026-04-12T11:54:19.961Z</time></trkpt><trkpt lat="38.0014917" lon="16.1207467"><ele>14.0</ele><time>2026-04-12T11:54:20.961Z</time></trkpt><trkpt lat="38.0015617" lon="16.120695"><ele>14.0</ele><time>2026-04-12T11:54:21.961Z</time></trkpt><trkpt lat="38.0016233" lon="16.12066"><ele>14.000000000000002</ele><time>2026-04-12T11:54:22.961Z</time></trkpt><trkpt lat="38.00169" lon="16.1206483"><ele>14.0</ele><time>2026-04-12T11:54:23.962Z</time></trkpt><trkpt lat="38.0017567" lon="16.1206517"><ele>14.166666666666668</ele><time>2026-04-12T11:54:24.962Z</time></trkpt><trkpt lat="38.00183" lon="16.1206567"><ele>14.333333333333334</ele><time>2026-04-12T11:54:25.961Z</time></trkpt><trkpt lat="38.0019117" lon="16.1206517"><ele>14.5</ele><time>2026-04-12T11:54:26.962Z</time></trkpt><trkpt lat="38.0019967" lon="16.1206283"><ele>14.666666666666668</ele><time>2026-04-12T11:54:27.961Z</time></trkpt><trkpt lat="38.0020717" lon="16.1205883"><ele>14.833333333333334</ele><time>2026-04-12T11:54:28.961Z</time></trkpt><trkpt lat="38.0021317" lon="16.12054"><ele>15.0</ele><time>2026-04-12T11:54:29.962Z</time></trkpt><trkpt lat="38.0022083" lon="16.1204267"><ele>15.0</ele><time>2026-04-12T11:54:31.962Z</time></trkpt><trkpt lat="38.0022467" lon="16.1203617"><ele>15.0</ele><time>2026-04-12T11:54:32.962Z</time></trkpt><trkpt lat="38.0022817" lon="16.120295"><ele>15.0</ele><time>2026-04-12T11:54:33.961Z</time></trkpt><trkpt lat="38.002355" lon="16.1202267"><ele>15.0</ele><time>2026-04-12T11:54:35.961Z</time></trkpt><trkpt lat="38.0024683" lon="16.1202"><ele>15.0</ele><time>2026-04-12T11:54:37.961Z</time></trkpt><trkpt lat="38.00255" lon="16.1201733"><ele>15.0</ele><time>2026-04-12T11:54:38.961Z</time></trkpt><trkpt lat="38.0026517" lon="16.1201383"><ele>15.0</ele><time>2026-04-12T11:54:39.961Z</time></trkpt><trkpt lat="38.0027633" lon="16.1200967"><ele>15.0</ele><time>2026-04-12T11:54:40.961Z</time></trkpt><trkpt lat="38.002875" lon="16.1200583"><ele>15.0</ele><time>2026-04-12T11:54:41.961Z</time></trkpt><trkpt lat="38.00298" lon="16.1200233"><ele>15.0</ele><time>2026-04-12T11:54:42.962Z</time></trkpt><trkpt lat="38.0030717" lon="16.1199917"><ele>15.0</ele><time>2026-04-12T11:54:43.961Z</time></trkpt><trkpt lat="38.00315" lon="16.11999"><ele>15.0</ele><time>2026-04-12T11:54:44.961Z</time></trkpt><trkpt lat="38.0032233" lon="16.1200183"><ele>15.0</ele><time>2026-04-12T11:54:45.961Z</time></trkpt><trkpt lat="38.0032917" lon="16.12009"><ele>15.0</ele><time>2026-04-12T11:54:46.961Z</time></trkpt><trkpt lat="38.0033717" lon="16.1201917"><ele>15.0</ele><time>2026-04-12T11:54:47.961Z</time></trkpt><trkpt lat="38.0034567" lon="16.12032"><ele>15.0</ele><time>2026-04-12T11:54:48.961Z</time></trkpt><trkpt lat="38.003555" lon="16.1204583"><ele>14.5</ele><time>2026-04-12T11:54:49.961Z</time></trkpt><trkpt lat="38.003645" lon="16.1206033"><ele>14.0</ele><time>2026-04-12T11:54:50.961Z</time></trkpt><trkpt lat="38.0037383" lon="16.1207367"><ele>13.5</ele><time>2026-04-12T11:54:51.962Z</time></trkpt><trkpt lat="38.0038133" lon="16.1208567"><ele>13.0</ele><time>2026-04-12T11:54:52.961Z</time></trkpt><trkpt lat="38.00389" lon="16.1209433"><ele>12.999999999999998</ele><time>2026-04-12T11:54:53.961Z</time></trkpt><trkpt lat="38.00395" lon="16.1210183"><ele>13.0</ele><time>2026-04-12T11:54:54.962Z</time></trkpt><trkpt lat="38.0040167" lon="16.121075"><ele>13.0</ele><time>2026-04-12T11:54:55.962Z</time></trkpt><trkpt lat="38.004095" lon="16.1211033"><ele>13.0</ele><time>2026-04-12T11:54:56.962Z</time></trkpt><trkpt lat="38.0041833" lon="16.1211117"><ele>12.999999999999998</ele><time>2026-04-12T11:54:57.962Z</time></trkpt><trkpt lat="38.004285" lon="16.1211017"><ele>13.0</ele><time>2026-04-12T11:54:58.962Z</time></trkpt><trkpt lat="38.0044" lon="16.121075"><ele>13.0</ele><time>2026-04-12T11:54:59.962Z</time></trkpt><trkpt lat="38.004515" lon="16.12104"><ele>13.0</ele><time>2026-04-12T11:55:00.961Z</time></trkpt><trkpt lat="38.00462" lon="16.1209917"><ele>13.0</ele><time>2026-04-12T11:55:01.961Z</time></trkpt><trkpt lat="38.0047217" lon="16.1209433"><ele>13.0</ele><time>2026-04-12T11:55:02.961Z</time></trkpt><trkpt lat="38.0048033" lon="16.1208883"><ele>13.0</ele><time>2026-04-12T11:55:03.961Z</time></trkpt><trkpt lat="38.0048817" lon="16.1208333"><ele>13.0</ele><time>2026-04-12T11:55:04.962Z</time></trkpt><trkpt lat="38.0049733" lon="16.1207767"><ele>13.0</ele><time>2026-04-12T11:55:05.962Z</time></trkpt><trkpt lat="38.0050767" lon="16.12073"><ele>13.0</ele><time>2026-04-12T11:55:06.961Z</time></trkpt><trkpt lat="38.0051933" lon="16.120685"><ele>13.0</ele><time>2026-04-12T11:55:07.962Z</time></trkpt><trkpt lat="38.0053133" lon="16.120645"><ele>14.0</ele><time>2026-04-12T11:55:08.961Z</time></trkpt><trkpt lat="38.0054317" lon="16.1206083"><ele>15.0</ele><time>2026-04-12T11:55:09.961Z</time></trkpt><trkpt lat="38.0055517" lon="16.1205883"><ele>16.0</ele><time>2026-04-12T11:55:10.961Z</time></trkpt><trkpt lat="38.005665" lon="16.1205667"><ele>17.0</ele><time>2026-04-12T11:55:11.961Z</time></trkpt><trkpt lat="38.0057783" lon="16.1205483"><ele>17.0</ele><time>2026-04-12T11:55:12.961Z</time></trkpt><trkpt lat="38.0058867" lon="16.1205283"><ele>17.0</ele><time>2026-04-12T11:55:13.961Z</time></trkpt><trkpt lat="38.0059933" lon="16.1205033"><ele>17.0</ele><time>2026-04-12T11:55:14.961Z</time></trkpt><trkpt lat="38.0060933" lon="16.1204717"><ele>17.0</ele><time>2026-04-12T11:55:15.961Z</time></trkpt><trkpt lat="38.0061933" lon="16.120445"><ele>17.0</ele><time>2026-04-12T11:55:16.961Z</time></trkpt><trkpt lat="38.00628" lon="16.1204167"><ele>17.0</ele><time>2026-04-12T11:55:17.961Z</time></trkpt><trkpt lat="38.006365" lon="16.120395"><ele>17.0</ele><time>2026-04-12T11:55:18.961Z</time></trkpt><trkpt lat="38.006465" lon="16.1203833"><ele>17.0</ele><time>2026-04-12T11:55:19.961Z</time></trkpt><trkpt lat="38.0065783" lon="16.1203667"><ele>17.0</ele><time>2026-04-12T11:55:20.961Z</time></trkpt><trkpt lat="38.006705" lon="16.1203367"><ele>17.0</ele><time>2026-04-12T11:55:21.962Z</time></trkpt><trkpt lat="38.006835" lon="16.1203017"><ele>17.0</ele><time>2026-04-12T11:55:22.962Z</time></trkpt><trkpt lat="38.00696" lon="16.1202683"><ele>17.0</ele><time>2026-04-12T11:55:23.961Z</time></trkpt><trkpt lat="38.007075" lon="16.1202283"><ele>17.0</ele><time>2026-04-12T11:55:24.961Z</time></trkpt><trkpt lat="38.0071967" lon="16.1202167"><ele>17.0</ele><time>2026-04-12T11:55:25.961Z</time></trkpt><trkpt lat="38.00732" lon="16.120215"><ele>17.0</ele><time>2026-04-12T11:55:26.961Z</time></trkpt><trkpt lat="38.0074467" lon="16.1202217"><ele>17.0</ele><time>2026-04-12T11:55:27.962Z</time></trkpt><trkpt lat="38.0075717" lon="16.1202117"><ele>17.0</ele><time>2026-04-12T11:55:28.961Z</time></trkpt><trkpt lat="38.007695" lon="16.1202"><ele>17.0</ele><time>2026-04-12T11:55:29.962Z</time></trkpt><trkpt lat="38.0078183" lon="16.1201933"><ele>18.25</ele><time>2026-04-12T11:55:30.962Z</time></trkpt><trkpt lat="38.00794" lon="16.1201883"><ele>19.5</ele><time>2026-04-12T11:55:31.961Z</time></trkpt><trkpt lat="38.008055" lon="16.1201817"><ele>20.75</ele><time>2026-04-12T11:55:32.961Z</time></trkpt><trkpt lat="38.0081667" lon="16.12019"><ele>22.0</ele><time>2026-04-12T11:55:33.962Z</time></trkpt><trkpt lat="38.0082717" lon="16.1202083"><ele>22.5</ele><time>2026-04-12T11:55:34.961Z</time></trkpt><trkpt lat="38.0083683" lon="16.120225"><ele>23.0</ele><time>2026-04-12T11:55:35.961Z</time></trkpt><trkpt lat="38.0084467" lon="16.1202317"><ele>23.5</ele><time>2026-04-12T11:55:36.961Z</time></trkpt><trkpt lat="38.008515" lon="16.1202533"><ele>24.0</ele><time>2026-04-12T11:55:37.961Z</time></trkpt><trkpt lat="38.008575" lon="16.1202833"><ele>24.500000000000004</ele><time>2026-04-12T11:55:38.961Z</time></trkpt><trkpt lat="38.0086867" lon="16.1203067"><ele>25.0</ele><time>2026-04-12T11:55:40.961Z</time></trkpt><trkpt lat="38.0088" lon="16.1203233"><ele>25.0</ele><time>2026-04-12T11:55:42.961Z</time></trkpt><trkpt lat="38.0088833" lon="16.1203233"><ele>25.0</ele><time>2026-04-12T11:55:44.962Z</time></trkpt><trkpt lat="38.0089" lon="16.1202317"><ele>25.0</ele><time>2026-04-12T11:55:46.961Z</time></trkpt><trkpt lat="38.0088467" lon="16.1200667"><ele>25.0</ele><time>2026-04-12T11:55:48.961Z</time></trkpt><trkpt lat="38.0088133" lon="16.1199683"><ele>25.0</ele><time>2026-04-12T11:55:49.961Z</time></trkpt><trkpt lat="38.0087867" lon="16.1198517"><ele>25.0</ele><time>2026-04-12T11:55:50.962Z</time></trkpt><trkpt lat="38.008765" lon="16.1197383"><ele>25.0</ele><time>2026-04-12T11:55:51.961Z</time></trkpt><trkpt lat="38.0087433" lon="16.1196233"><ele>25.0</ele><time>2026-04-12T11:55:52.961Z</time></trkpt><trkpt lat="38.0087217" lon="16.1195133"><ele>25.0</ele><time>2026-04-12T11:55:53.962Z</time></trkpt><trkpt lat="38.00871" lon="16.1194033"><ele>25.0</ele><time>2026-04-12T11:55:54.961Z</time></trkpt><trkpt lat="38.0087067" lon="16.11929"><ele>25.0</ele><time>2026-04-12T11:55:55.961Z</time></trkpt><trkpt lat="38.0087033" lon="16.1191667"><ele>25.0</ele><time>2026-04-12T11:55:56.961Z</time></trkpt><trkpt lat="38.0086983" lon="16.11905"><ele>25.0</ele><time>2026-04-12T11:55:57.961Z</time></trkpt><trkpt lat="38.0086917" lon="16.1189333"><ele>25.0</ele><time>2026-04-12T11:55:58.962Z</time></trkpt><trkpt lat="38.0086883" lon="16.1188067"><ele>25.0</ele><time>2026-04-12T11:55:59.962Z</time></trkpt><trkpt lat="38.0086883" lon="16.1186867"><ele>25.166666666666668</ele><time>2026-04-12T11:56:00.962Z</time></trkpt><trkpt lat="38.0087" lon="16.1185717"><ele>25.333333333333336</ele><time>2026-04-12T11:56:01.961Z</time></trkpt><trkpt lat="38.008725" lon="16.1184717"><ele>25.5</ele><time>2026-04-12T11:56:02.961Z</time></trkpt><trkpt lat="38.008755" lon="16.1183817"><ele>25.666666666666664</ele><time>2026-04-12T11:56:03.961Z</time></trkpt><trkpt lat="38.008795" lon="16.1182867"><ele>25.833333333333332</ele><time>2026-04-12T11:56:04.961Z</time></trkpt><trkpt lat="38.0088383" lon="16.118185"><ele>26.0</ele><time>2026-04-12T11:56:05.961Z</time></trkpt><trkpt lat="38.00889" lon="16.11807"><ele>26.0</ele><time>2026-04-12T11:56:06.961Z</time></trkpt><trkpt lat="38.008935" lon="16.1179317"><ele>26.0</ele><time>2026-04-12T11:56:07.961Z</time></trkpt><trkpt lat="38.0089733" lon="16.1177833"><ele>26.0</ele><time>2026-04-12T11:56:08.962Z</time></trkpt><trkpt lat="38.0090083" lon="16.117635"><ele>26.0</ele><time>2026-04-12T11:56:09.961Z</time></trkpt><trkpt lat="38.0090367" lon="16.1175067"><ele>25.833333333333332</ele><time>2026-04-12T11:56:10.961Z</time></trkpt><trkpt lat="38.0090583" lon="16.1173917"><ele>25.666666666666664</ele><time>2026-04-12T11:56:11.962Z</time></trkpt><trkpt lat="38.0090783" lon="16.1172933"><ele>25.5</ele><time>2026-04-12T11:56:12.961Z</time></trkpt><trkpt lat="38.0090933" lon="16.11721"><ele>25.333333333333336</ele><time>2026-04-12T11:56:13.961Z</time></trkpt><trkpt lat="38.00911" lon="16.1171267"><ele>25.166666666666668</ele><time>2026-04-12T11:56:14.962Z</time></trkpt><trkpt lat="38.0091317" lon="16.1170433"><ele>25.0</ele><time>2026-04-12T11:56:15.961Z</time></trkpt><trkpt lat="38.0091617" lon="16.11696"><ele>25.666666666666668</ele><time>2026-04-12T11:56:16.961Z</time></trkpt><trkpt lat="38.009205" lon="16.1168683"><ele>26.333333333333336</ele><time>2026-04-12T11:56:17.962Z</time></trkpt><trkpt lat="38.0092567" lon="16.1167717"><ele>27.0</ele><time>2026-04-12T11:56:18.961Z</time></trkpt><trkpt lat="38.00931" lon="16.1166783"><ele>27.666666666666664</ele><time>2026-04-12T11:56:19.961Z</time></trkpt><trkpt lat="38.0093567" lon="16.1166"><ele>28.333333333333332</ele><time>2026-04-12T11:56:20.961Z</time></trkpt><trkpt lat="38.0093983" lon="16.1165267"><ele>29.0</ele><time>2026-04-12T11:56:21.961Z</time></trkpt><trkpt lat="38.0094417" lon="16.1164583"><ele>28.999999999999996</ele><time>2026-04-12T11:56:22.961Z</time></trkpt><trkpt lat="38.0094917" lon="16.1163883"><ele>29.0</ele><time>2026-04-12T11:56:23.961Z</time></trkpt><trkpt lat="38.009555" lon="16.1163233"><ele>29.0</ele><time>2026-04-12T11:56:24.961Z</time></trkpt><trkpt lat="38.0096333" lon="16.1162533"><ele>29.0</ele><time>2026-04-12T11:56:25.962Z</time></trkpt><trkpt lat="38.009705" lon="16.116185"><ele>28.999999999999996</ele><time>2026-04-12T11:56:26.961Z</time></trkpt><trkpt lat="38.009775" lon="16.1161183"><ele>29.0</ele><time>2026-04-12T11:56:27.962Z</time></trkpt><trkpt lat="38.0098333" lon="16.1160567"><ele>28.999999999999996</ele><time>2026-04-12T11:56:28.962Z</time></trkpt><trkpt lat="38.0098883" lon="16.1159933"><ele>29.0</ele><time>2026-04-12T11:56:29.961Z</time></trkpt><trkpt lat="38.0099433" lon="16.115925"><ele>29.0</ele><time>2026-04-12T11:56:30.962Z</time></trkpt><trkpt lat="38.0100017" lon="16.1158533"><ele>29.0</ele><time>2026-04-12T11:56:31.961Z</time></trkpt><trkpt lat="38.0100583" lon="16.1157783"><ele>28.999999999999996</ele><time>2026-04-12T11:56:32.961Z</time></trkpt><trkpt lat="38.0101233" lon="16.1157133"><ele>29.0</ele><time>2026-04-12T11:56:33.961Z</time></trkpt><trkpt lat="38.01019" lon="16.115645"><ele>29.142857142857146</ele><time>2026-04-12T11:56:34.962Z</time></trkpt><trkpt lat="38.0102617" lon="16.1155867"><ele>29.285714285714285</ele><time>2026-04-12T11:56:35.961Z</time></trkpt><trkpt lat="38.0103333" lon="16.1155417"><ele>29.42857142857143</ele><time>2026-04-12T11:56:36.961Z</time></trkpt><trkpt lat="38.0103983" lon="16.1155067"><ele>29.571428571428573</ele><time>2026-04-12T11:56:37.961Z</time></trkpt><trkpt lat="38.01046" lon="16.1154783"><ele>29.714285714285715</ele><time>2026-04-12T11:56:38.961Z</time></trkpt><trkpt lat="38.010525" lon="16.1154467"><ele>29.857142857142858</ele><time>2026-04-12T11:56:39.961Z</time></trkpt><trkpt lat="38.0105983" lon="16.1154183"><ele>30.0</ele><time>2026-04-12T11:56:40.961Z</time></trkpt><trkpt lat="38.01067" lon="16.1153983"><ele>30.0</ele><time>2026-04-12T11:56:41.961Z</time></trkpt><trkpt lat="38.0107467" lon="16.1153867"><ele>30.0</ele><time>2026-04-12T11:56:42.962Z</time></trkpt><trkpt lat="38.0108283" lon="16.115365"><ele>30.0</ele><time>2026-04-12T11:56:43.961Z</time></trkpt><trkpt lat="38.01091" lon="16.1153283"><ele>30.0</ele><time>2026-04-12T11:56:44.961Z</time></trkpt><trkpt lat="38.0109917" lon="16.1152917"><ele>30.0</ele><time>2026-04-12T11:56:45.961Z</time></trkpt><trkpt lat="38.011075" lon="16.11524"><ele>30.0</ele><time>2026-04-12T11:56:46.961Z</time></trkpt><trkpt lat="38.0111717" lon="16.1151717"><ele>30.5</ele><time>2026-04-12T11:56:47.961Z</time></trkpt><trkpt lat="38.011285" lon="16.1150867"><ele>31.0</ele><time>2026-04-12T11:56:48.962Z</time></trkpt><trkpt lat="38.0114067" lon="16.1149983"><ele>31.5</ele><time>2026-04-12T11:56:49.961Z</time></trkpt><trkpt lat="38.0115233" lon="16.1149067"><ele>32.0</ele><time>2026-04-12T11:56:50.961Z</time></trkpt><trkpt lat="38.0116317" lon="16.11482"><ele>32.4</ele><time>2026-04-12T11:56:51.961Z</time></trkpt><trkpt lat="38.0117183" lon="16.1147417"><ele>32.800000000000004</ele><time>2026-04-12T11:56:52.962Z</time></trkpt><trkpt lat="38.0117983" lon="16.1146783"><ele>33.2</ele><time>2026-04-12T11:56:53.961Z</time></trkpt><trkpt lat="38.011875" lon="16.1146283"><ele>33.6</ele><time>2026-04-12T11:56:54.961Z</time></trkpt><trkpt lat="38.0119633" lon="16.1146"><ele>34.0</ele><time>2026-04-12T11:56:55.962Z</time></trkpt><trkpt lat="38.01206" lon="16.1145917"><ele>34.0</ele><time>2026-04-12T11:56:56.961Z</time></trkpt><trkpt lat="38.01217" lon="16.11459"><ele>34.0</ele><time>2026-04-12T11:56:57.962Z</time></trkpt><trkpt lat="38.0122733" lon="16.1145833"><ele>34.0</ele><time>2026-04-12T11:56:58.961Z</time></trkpt><trkpt lat="38.0123783" lon="16.1145783"><ele>34.0</ele><time>2026-04-12T11:56:59.961Z</time></trkpt><trkpt lat="38.0124767" lon="16.1145583"><ele>34.0</ele><time>2026-04-12T11:57:00.961Z</time></trkpt><trkpt lat="38.012565" lon="16.114535"><ele>34.833333333333336</ele><time>2026-04-12T11:57:01.962Z</time></trkpt><trkpt lat="38.0126417" lon="16.114505"><ele>35.66666666666667</ele><time>2026-04-12T11:57:02.961Z</time></trkpt><trkpt lat="38.01271" lon="16.1144533"><ele>36.5</ele><time>2026-04-12T11:57:03.961Z</time></trkpt><trkpt lat="38.012765" lon="16.11438"><ele>37.333333333333336</ele><time>2026-04-12T11:57:04.961Z</time></trkpt><trkpt lat="38.0128183" lon="16.11429"><ele>38.166666666666664</ele><time>2026-04-12T11:57:05.962Z</time></trkpt><trkpt lat="38.0128733" lon="16.1141783"><ele>39.0</ele><time>2026-04-12T11:57:06.961Z</time></trkpt><trkpt lat="38.0129167" lon="16.1140467"><ele>39.0</ele><time>2026-04-12T11:57:07.962Z</time></trkpt><trkpt lat="38.0129683" lon="16.1139017"><ele>39.0</ele><time>2026-04-12T11:57:08.961Z</time></trkpt><trkpt lat="38.0130283" lon="16.1137317"><ele>39.0</ele><time>2026-04-12T11:57:09.961Z</time></trkpt><trkpt lat="38.013075" lon="16.1135483"><ele>39.0</ele><time>2026-04-12T11:57:10.961Z</time></trkpt><trkpt lat="38.0131083" lon="16.1133733"><ele>39.0</ele><time>2026-04-12T11:57:11.962Z</time></trkpt><trkpt lat="38.0131333" lon="16.1132067"><ele>39.0</ele><time>2026-04-12T11:57:12.961Z</time></trkpt><trkpt lat="38.013155" lon="16.1130717"><ele>39.0</ele><time>2026-04-12T11:57:13.961Z</time></trkpt><trkpt lat="38.0131883" lon="16.1129483"><ele>39.0</ele><time>2026-04-12T11:57:14.961Z</time></trkpt><trkpt lat="38.013225" lon="16.1128267"><ele>39.0</ele><time>2026-04-12T11:57:15.962Z</time></trkpt><trkpt lat="38.0132817" lon="16.1126917"><ele>40.0</ele><time>2026-04-12T11:57:16.962Z</time></trkpt><trkpt lat="38.01335" lon="16.1125517"><ele>41.0</ele><time>2026-04-12T11:57:17.961Z</time></trkpt><trkpt lat="38.0134217" lon="16.112415"><ele>42.0</ele><time>2026-04-12T11:57:18.962Z</time></trkpt><trkpt lat="38.0134833" lon="16.1122883"><ele>43.0</ele><time>2026-04-12T11:57:19.962Z</time></trkpt><trkpt lat="38.01354" lon="16.11216"><ele>43.0</ele><time>2026-04-12T11:57:20.962Z</time></trkpt><trkpt lat="38.0135917" lon="16.112025"><ele>43.0</ele><time>2026-04-12T11:57:21.961Z</time></trkpt><trkpt lat="38.0136417" lon="16.1118833"><ele>43.0</ele><time>2026-04-12T11:57:22.961Z</time></trkpt><trkpt lat="38.0136917" lon="16.1117367"><ele>43.0</ele><time>2026-04-12T11:57:23.961Z</time></trkpt><trkpt lat="38.0137417" lon="16.1116"><ele>42.4</ele><time>2026-04-12T11:57:24.961Z</time></trkpt><trkpt lat="38.01379" lon="16.1114733"><ele>41.8</ele><time>2026-04-12T11:57:25.961Z</time></trkpt><trkpt lat="38.013845" lon="16.1113533"><ele>41.2</ele><time>2026-04-12T11:57:26.962Z</time></trkpt><trkpt lat="38.0138983" lon="16.1112333"><ele>40.6</ele><time>2026-04-12T11:57:27.961Z</time></trkpt><trkpt lat="38.0139633" lon="16.111115"><ele>40.0</ele><time>2026-04-12T11:57:28.961Z</time></trkpt><trkpt lat="38.01403" lon="16.111005"><ele>40.0</ele><time>2026-04-12T11:57:29.962Z</time></trkpt><trkpt lat="38.0141017" lon="16.110905"><ele>40.0</ele><time>2026-04-12T11:57:30.961Z</time></trkpt><trkpt lat="38.0141717" lon="16.1108233"><ele>40.0</ele><time>2026-04-12T11:57:31.961Z</time></trkpt><trkpt lat="38.0142367" lon="16.11077"><ele>40.0</ele><time>2026-04-12T11:57:32.961Z</time></trkpt><trkpt lat="38.01433" lon="16.1107983"><ele>40.0</ele><time>2026-04-12T11:57:35.962Z</time></trkpt><trkpt lat="38.01439" lon="16.110825"><ele>40.0</ele><time>2026-04-12T11:57:36.962Z</time></trkpt><trkpt lat="38.0144733" lon="16.1108567"><ele>40.8</ele><time>2026-04-12T11:57:37.962Z</time></trkpt><trkpt lat="38.0145733" lon="16.110875"><ele>41.6</ele><time>2026-04-12T11:57:38.961Z</time></trkpt><trkpt lat="38.0146833" lon="16.1108783"><ele>42.400000000000006</ele><time>2026-04-12T11:57:39.961Z</time></trkpt><trkpt lat="38.0147917" lon="16.1108733"><ele>43.2</ele><time>2026-04-12T11:57:40.961Z</time></trkpt><trkpt lat="38.014875" lon="16.11086"><ele>44.0</ele><time>2026-04-12T11:57:41.961Z</time></trkpt><trkpt lat="38.0149367" lon="16.1108283"><ele>44.6</ele><time>2026-04-12T11:57:42.962Z</time></trkpt><trkpt lat="38.0150317" lon="16.1107083"><ele>45.2</ele><time>2026-04-12T11:57:44.961Z</time></trkpt><trkpt lat="38.0150767" lon="16.1106133"><ele>45.800000000000004</ele><time>2026-04-12T11:57:45.961Z</time></trkpt><trkpt lat="38.01512" lon="16.110495"><ele>46.400000000000006</ele><time>2026-04-12T11:57:46.961Z</time></trkpt><trkpt lat="38.0151567" lon="16.11037"><ele>47.0</ele><time>2026-04-12T11:57:47.961Z</time></trkpt><trkpt lat="38.015195" lon="16.1102533"><ele>47.0</ele><time>2026-04-12T11:57:48.962Z</time></trkpt><trkpt lat="38.0152583" lon="16.1101483"><ele>47.0</ele><time>2026-04-12T11:57:49.961Z</time></trkpt><trkpt lat="38.0153283" lon="16.11007"><ele>47.0</ele><time>2026-04-12T11:57:50.961Z</time></trkpt><trkpt lat="38.01541" lon="16.110015"><ele>47.0</ele><time>2026-04-12T11:57:51.961Z</time></trkpt><trkpt lat="38.0155067" lon="16.1099883"><ele>47.0</ele><time>2026-04-12T11:57:52.962Z</time></trkpt><trkpt lat="38.0156217" lon="16.1099933"><ele>47.0</ele><time>2026-04-12T11:57:53.961Z</time></trkpt><trkpt lat="38.015735" lon="16.11001"><ele>47.0</ele><time>2026-04-12T11:57:54.961Z</time></trkpt><trkpt lat="38.0158367" lon="16.1100383"><ele>47.0</ele><time>2026-04-12T11:57:55.962Z</time></trkpt><trkpt lat="38.0159233" lon="16.1100783"><ele>47.0</ele><time>2026-04-12T11:57:56.961Z</time></trkpt><trkpt lat="38.016" lon="16.1101383"><ele>47.0</ele><time>2026-04-12T11:57:57.961Z</time></trkpt><trkpt lat="38.0160633" lon="16.1102117"><ele>47.33333333333333</ele><time>2026-04-12T11:57:58.961Z</time></trkpt><trkpt lat="38.0161067" lon="16.1102783"><ele>47.666666666666664</ele><time>2026-04-12T11:57:59.961Z</time></trkpt><trkpt lat="38.016175" lon="16.11025"><ele>48.0</ele><time>2026-04-12T11:58:02.961Z</time></trkpt><trkpt lat="38.0161967" lon="16.1101683"><ele>48.33333333333333</ele><time>2026-04-12T11:58:03.961Z</time></trkpt><trkpt lat="38.016215" lon="16.1100517"><ele>48.666666666666664</ele><time>2026-04-12T11:58:04.962Z</time></trkpt><trkpt lat="38.01624" lon="16.1099233"><ele>49.0</ele><time>2026-04-12T11:58:05.961Z</time></trkpt><trkpt lat="38.0162567" lon="16.109795"><ele>50.666666666666664</ele><time>2026-04-12T11:58:06.962Z</time></trkpt><trkpt lat="38.016265" lon="16.1096833"><ele>52.33333333333333</ele><time>2026-04-12T11:58:07.962Z</time></trkpt><trkpt lat="38.0162567" lon="16.1095767"><ele>54.0</ele><time>2026-04-12T11:58:08.961Z</time></trkpt><trkpt lat="38.0162333" lon="16.1094733"><ele>55.66666666666667</ele><time>2026-04-12T11:58:09.961Z</time></trkpt><trkpt lat="38.0161733" lon="16.1094083"><ele>57.333333333333336</ele><time>2026-04-12T11:58:10.961Z</time></trkpt><trkpt lat="38.01609" lon="16.1093633"><ele>59.0</ele><time>2026-04-12T11:58:11.961Z</time></trkpt><trkpt lat="38.015985" lon="16.109325"><ele>59.0</ele><time>2026-04-12T11:58:12.961Z</time></trkpt><trkpt lat="38.0158567" lon="16.1092817"><ele>59.0</ele><time>2026-04-12T11:58:13.961Z</time></trkpt><trkpt lat="38.0157333" lon="16.1092283"><ele>59.0</ele><time>2026-04-12T11:58:14.962Z</time></trkpt><trkpt lat="38.015605" lon="16.109165"><ele>59.0</ele><time>2026-04-12T11:58:15.961Z</time></trkpt><trkpt lat="38.015475" lon="16.10908"><ele>59.75</ele><time>2026-04-12T11:58:16.961Z</time></trkpt><trkpt lat="38.0153517" lon="16.1089933"><ele>60.5</ele><time>2026-04-12T11:58:17.962Z</time></trkpt><trkpt lat="38.0152333" lon="16.1089033"><ele>61.25</ele><time>2026-04-12T11:58:18.961Z</time></trkpt><trkpt lat="38.0151367" lon="16.1088217"><ele>62.0</ele><time>2026-04-12T11:58:19.961Z</time></trkpt><trkpt lat="38.0150567" lon="16.10876"><ele>59.6</ele><time>2026-04-12T11:58:20.961Z</time></trkpt><trkpt lat="38.0149867" lon="16.1086917"><ele>57.2</ele><time>2026-04-12T11:58:21.961Z</time></trkpt><trkpt lat="38.01492" lon="16.10861"><ele>54.8</ele><time>2026-04-12T11:58:22.961Z</time></trkpt><trkpt lat="38.0148683" lon="16.1085133"><ele>52.4</ele><time>2026-04-12T11:58:23.961Z</time></trkpt><trkpt lat="38.0148367" lon="16.1084067"><ele>50.0</ele><time>2026-04-12T11:58:24.961Z</time></trkpt><trkpt lat="38.0148183" lon="16.1082867"><ele>50.5</ele><time>2026-04-12T11:58:25.961Z</time></trkpt><trkpt lat="38.0148217" lon="16.1081517"><ele>51.0</ele><time>2026-04-12T11:58:26.961Z</time></trkpt><trkpt lat="38.01483" lon="16.1079933"><ele>51.5</ele><time>2026-04-12T11:58:27.962Z</time></trkpt><trkpt lat="38.0148283" lon="16.1078317"><ele>52.0</ele><time>2026-04-12T11:58:28.961Z</time></trkpt><trkpt lat="38.0148133" lon="16.1076733"><ele>52.0</ele><time>2026-04-12T11:58:29.961Z</time></trkpt><trkpt lat="38.01478" lon="16.1075083"><ele>52.0</ele><time>2026-04-12T11:58:30.962Z</time></trkpt><trkpt lat="38.0147467" lon="16.1073417"><ele>52.0</ele><time>2026-04-12T11:58:31.961Z</time></trkpt><trkpt lat="38.0147233" lon="16.1071867"><ele>52.0</ele><time>2026-04-12T11:58:32.962Z</time></trkpt><trkpt lat="38.01471" lon="16.1070567"><ele>52.25</ele><time>2026-04-12T11:58:33.961Z</time></trkpt><trkpt lat="38.0147117" lon="16.10693"><ele>52.5</ele><time>2026-04-12T11:58:34.962Z</time></trkpt><trkpt lat="38.0147367" lon="16.1067983"><ele>52.75</ele><time>2026-04-12T11:58:35.961Z</time></trkpt><trkpt lat="38.01478" lon="16.1066467"><ele>53.0</ele><time>2026-04-12T11:58:36.961Z</time></trkpt><trkpt lat="38.0148433" lon="16.10648"><ele>53.0</ele><time>2026-04-12T11:58:37.961Z</time></trkpt><trkpt lat="38.0149067" lon="16.1063217"><ele>53.0</ele><time>2026-04-12T11:58:38.961Z</time></trkpt><trkpt lat="38.0149633" lon="16.10618"><ele>53.0</ele><time>2026-04-12T11:58:39.961Z</time></trkpt><trkpt lat="38.0149983" lon="16.106045"><ele>53.0</ele><time>2026-04-12T11:58:40.961Z</time></trkpt><trkpt lat="38.0150033" lon="16.1059133"><ele>53.0</ele><time>2026-04-12T11:58:41.961Z</time></trkpt><trkpt lat="38.0149867" lon="16.1057783"><ele>53.0</ele><time>2026-04-12T11:58:42.961Z</time></trkpt><trkpt lat="38.0149583" lon="16.105635"><ele>53.0</ele><time>2026-04-12T11:58:43.961Z</time></trkpt><trkpt lat="38.0149117" lon="16.10549"><ele>53.0</ele><time>2026-04-12T11:58:44.961Z</time></trkpt><trkpt lat="38.0148567" lon="16.1053483"><ele>53.8</ele><time>2026-04-12T11:58:45.961Z</time></trkpt><trkpt lat="38.0148033" lon="16.10522"><ele>54.599999999999994</ele><time>2026-04-12T11:58:46.961Z</time></trkpt><trkpt lat="38.014765" lon="16.1050983"><ele>55.400000000000006</ele><time>2026-04-12T11:58:47.961Z</time></trkpt><trkpt lat="38.0147333" lon="16.1049783"><ele>56.2</ele><time>2026-04-12T11:58:48.961Z</time></trkpt><trkpt lat="38.0147133" lon="16.1048683"><ele>57.0</ele><time>2026-04-12T11:58:49.962Z</time></trkpt><trkpt lat="38.0146967" lon="16.1047833"><ele>57.0</ele><time>2026-04-12T11:58:50.961Z</time></trkpt><trkpt lat="38.01467" lon="16.1046633"><ele>57.0</ele><time>2026-04-12T11:58:52.961Z</time></trkpt><trkpt lat="38.014655" lon="16.10449"><ele>57.0</ele><time>2026-04-12T11:58:54.961Z</time></trkpt><trkpt lat="38.014655" lon="16.1043683"><ele>57.0</ele><time>2026-04-12T11:58:55.962Z</time></trkpt><trkpt lat="38.0146633" lon="16.1042317"><ele>57.0</ele><time>2026-04-12T11:58:56.961Z</time></trkpt><trkpt lat="38.0146867" lon="16.1040733"><ele>57.75</ele><time>2026-04-12T11:58:57.962Z</time></trkpt><trkpt lat="38.01471" lon="16.1039067"><ele>58.5</ele><time>2026-04-12T11:58:58.961Z</time></trkpt><trkpt lat="38.0147367" lon="16.1037233"><ele>59.25</ele><time>2026-04-12T11:58:59.962Z</time></trkpt><trkpt lat="38.0147467" lon="16.1035433"><ele>60.0</ele><time>2026-04-12T11:59:00.961Z</time></trkpt><trkpt lat="38.01475" lon="16.103365"><ele>61.5</ele><time>2026-04-12T11:59:01.962Z</time></trkpt><trkpt lat="38.014745" lon="16.1031967"><ele>63.0</ele><time>2026-04-12T11:59:02.962Z</time></trkpt><trkpt lat="38.014745" lon="16.1030317"><ele>64.5</ele><time>2026-04-12T11:59:03.961Z</time></trkpt><trkpt lat="38.0147467" lon="16.10287"><ele>66.0</ele><time>2026-04-12T11:59:04.961Z</time></trkpt><trkpt lat="38.0147617" lon="16.10271"><ele>66.0</ele><time>2026-04-12T11:59:05.961Z</time></trkpt><trkpt lat="38.0147883" lon="16.1025667"><ele>66.0</ele><time>2026-04-12T11:59:06.961Z</time></trkpt><trkpt lat="38.01483" lon="16.102435"><ele>66.0</ele><time>2026-04-12T11:59:07.961Z</time></trkpt><trkpt lat="38.0148917" lon="16.1023133"><ele>66.0</ele><time>2026-04-12T11:59:08.962Z</time></trkpt><trkpt lat="38.0149633" lon="16.1022"><ele>67.5</ele><time>2026-04-12T11:59:09.962Z</time></trkpt><trkpt lat="38.0150533" lon="16.10209"><ele>69.0</ele><time>2026-04-12T11:59:10.962Z</time></trkpt><trkpt lat="38.0151467" lon="16.1019867"><ele>70.5</ele><time>2026-04-12T11:59:11.962Z</time></trkpt><trkpt lat="38.0152417" lon="16.1018933"><ele>72.0</ele><time>2026-04-12T11:59:12.961Z</time></trkpt><trkpt lat="38.0153117" lon="16.1018033"><ele>72.0</ele><time>2026-04-12T11:59:13.962Z</time></trkpt><trkpt lat="38.0153583" lon="16.1017267"><ele>72.0</ele><time>2026-04-12T11:59:14.961Z</time></trkpt><trkpt lat="38.0153917" lon="16.1016517"><ele>72.0</ele><time>2026-04-12T11:59:15.961Z</time></trkpt><trkpt lat="38.0154067" lon="16.1015017"><ele>72.0</ele><time>2026-04-12T11:59:17.962Z</time></trkpt><trkpt lat="38.0153867" lon="16.1014183"><ele>72.0</ele><time>2026-04-12T11:59:18.962Z</time></trkpt><trkpt lat="38.0153467" lon="16.10132"><ele>72.0</ele><time>2026-04-12T11:59:19.961Z</time></trkpt><trkpt lat="38.0152667" lon="16.1012367"><ele>71.75</ele><time>2026-04-12T11:59:20.961Z</time></trkpt><trkpt lat="38.015165" lon="16.1011667"><ele>71.5</ele><time>2026-04-12T11:59:21.961Z</time></trkpt><trkpt lat="38.0150467" lon="16.1011033"><ele>71.25</ele><time>2026-04-12T11:59:22.961Z</time></trkpt><trkpt lat="38.014935" lon="16.10103"><ele>71.0</ele><time>2026-04-12T11:59:23.961Z</time></trkpt><trkpt lat="38.01484" lon="16.1009367"><ele>71.0</ele><time>2026-04-12T11:59:24.961Z</time></trkpt><trkpt lat="38.0147733" lon="16.1008267"><ele>71.0</ele><time>2026-04-12T11:59:25.961Z</time></trkpt><trkpt lat="38.0147217" lon="16.1007167"><ele>71.0</ele><time>2026-04-12T11:59:26.961Z</time></trkpt><trkpt lat="38.0146867" lon="16.1006067"><ele>71.0</ele><time>2026-04-12T11:59:27.962Z</time></trkpt><trkpt lat="38.0146633" lon="16.1005067"><ele>71.0</ele><time>2026-04-12T11:59:28.961Z</time></trkpt><trkpt lat="38.0146683" lon="16.100405"><ele>71.0</ele><time>2026-04-12T11:59:29.962Z</time></trkpt><trkpt lat="38.0146883" lon="16.1003067"><ele>71.0</ele><time>2026-04-12T11:59:30.962Z</time></trkpt><trkpt lat="38.0147317" lon="16.1001933"><ele>71.0</ele><time>2026-04-12T11:59:31.962Z</time></trkpt><trkpt lat="38.0147967" lon="16.10007"><ele>71.0</ele><time>2026-04-12T11:59:32.961Z</time></trkpt><trkpt lat="38.014875" lon="16.09993"><ele>71.0</ele><time>2026-04-12T11:59:33.962Z</time></trkpt><trkpt lat="38.0149683" lon="16.0997817"><ele>73.25</ele><time>2026-04-12T11:59:34.961Z</time></trkpt><trkpt lat="38.0150667" lon="16.0996467"><ele>75.5</ele><time>2026-04-12T11:59:35.961Z</time></trkpt><trkpt lat="38.0151717" lon="16.0995317"><ele>77.75</ele><time>2026-04-12T11:59:36.961Z</time></trkpt><trkpt lat="38.0152717" lon="16.0994367"><ele>80.0</ele><time>2026-04-12T11:59:37.962Z</time></trkpt><trkpt lat="38.0153483" lon="16.0993417"><ele>80.0</ele><time>2026-04-12T11:59:38.962Z</time></trkpt><trkpt lat="38.0154" lon="16.0992417"><ele>80.0</ele><time>2026-04-12T11:59:39.961Z</time></trkpt><trkpt lat="38.0154267" lon="16.0991367"><ele>80.0</ele><time>2026-04-12T11:59:40.961Z</time></trkpt><trkpt lat="38.0154417" lon="16.099025"><ele>80.0</ele><time>2026-04-12T11:59:41.961Z</time></trkpt><trkpt lat="38.0154567" lon="16.0989117"><ele>80.0</ele><time>2026-04-12T11:59:42.961Z</time></trkpt><trkpt lat="38.015485" lon="16.09879"><ele>80.4</ele><time>2026-04-12T11:59:43.962Z</time></trkpt><trkpt lat="38.015525" lon="16.0986567"><ele>80.8</ele><time>2026-04-12T11:59:44.962Z</time></trkpt><trkpt lat="38.0155633" lon="16.09852"><ele>81.19999999999999</ele><time>2026-04-12T11:59:45.961Z</time></trkpt><trkpt lat="38.0155967" lon="16.0983817"><ele>81.6</ele><time>2026-04-12T11:59:46.961Z</time></trkpt><trkpt lat="38.0156283" lon="16.098255"><ele>82.0</ele><time>2026-04-12T11:59:47.962Z</time></trkpt><trkpt lat="38.0156533" lon="16.0981367"><ele>84.6</ele><time>2026-04-12T11:59:48.962Z</time></trkpt><trkpt lat="38.0156617" lon="16.0980333"><ele>87.19999999999999</ele><time>2026-04-12T11:59:49.962Z</time></trkpt><trkpt lat="38.0156533" lon="16.0979217"><ele>89.8</ele><time>2026-04-12T11:59:50.961Z</time></trkpt><trkpt lat="38.0156083" lon="16.097805"><ele>92.4</ele><time>2026-04-12T11:59:51.961Z</time></trkpt><trkpt lat="38.0155483" lon="16.0976883"><ele>95.0</ele><time>2026-04-12T11:59:52.961Z</time></trkpt><trkpt lat="38.0154767" lon="16.0975817"><ele>95.0</ele><time>2026-04-12T11:59:53.961Z</time></trkpt><trkpt lat="38.0154033" lon="16.0974983"><ele>95.0</ele><time>2026-04-12T11:59:54.962Z</time></trkpt><trkpt lat="38.0153367" lon="16.0974517"><ele>95.0</ele><time>2026-04-12T11:59:55.961Z</time></trkpt><trkpt lat="38.0151883" lon="16.0974583"><ele>95.0</ele><time>2026-04-12T11:59:57.961Z</time></trkpt><trkpt lat="38.0150817" lon="16.0974783"><ele>95.0</ele><time>2026-04-12T11:59:58.961Z</time></trkpt><trkpt lat="38.01497" lon="16.0974933"><ele>94.25</ele><time>2026-04-12T11:59:59.961Z</time></trkpt><trkpt lat="38.0148533" lon="16.0974833"><ele>93.5</ele><time>2026-04-12T12:00:00.961Z</time></trkpt><trkpt lat="38.0147367" lon="16.09743"><ele>92.75</ele><time>2026-04-12T12:00:01.962Z</time></trkpt><trkpt lat="38.0146167" lon="16.097345"><ele>92.0</ele><time>2026-04-12T12:00:02.962Z</time></trkpt><trkpt lat="38.0145033" lon="16.097235"><ele>94.66666666666667</ele><time>2026-04-12T12:00:03.962Z</time></trkpt><trkpt lat="38.0144017" lon="16.0970867"><ele>97.33333333333334</ele><time>2026-04-12T12:00:04.961Z</time></trkpt><trkpt lat="38.0143083" lon="16.096915"><ele>100.0</ele><time>2026-04-12T12:00:05.961Z</time></trkpt><trkpt lat="38.014225" lon="16.0967517"><ele>100.0</ele><time>2026-04-12T12:00:06.962Z</time></trkpt><trkpt lat="38.0141633" lon="16.0966117"><ele>100.0</ele><time>2026-04-12T12:00:07.962Z</time></trkpt><trkpt lat="38.014135" lon="16.096495"><ele>100.0</ele><time>2026-04-12T12:00:08.961Z</time></trkpt><trkpt lat="38.0141233" lon="16.0963783"><ele>100.0</ele><time>2026-04-12T12:00:09.961Z</time></trkpt><trkpt lat="38.0141217" lon="16.0962617"><ele>100.0</ele><time>2026-04-12T12:00:10.961Z</time></trkpt><trkpt lat="38.0141317" lon="16.096145"><ele>102.0</ele><time>2026-04-12T12:00:11.961Z</time></trkpt><trkpt lat="38.0141467" lon="16.0960217"><ele>104.0</ele><time>2026-04-12T12:00:12.961Z</time></trkpt><trkpt lat="38.0141567" lon="16.0958783"><ele>106.0</ele><time>2026-04-12T12:00:13.962Z</time></trkpt><trkpt lat="38.014145" lon="16.0957167"><ele>108.0</ele><time>2026-04-12T12:00:14.962Z</time></trkpt><trkpt lat="38.01412" lon="16.095535"><ele>111.5</ele><time>2026-04-12T12:00:15.961Z</time></trkpt><trkpt lat="38.014095" lon="16.0953483"><ele>115.0</ele><time>2026-04-12T12:00:16.962Z</time></trkpt><trkpt lat="38.014075" lon="16.0951683"><ele>118.5</ele><time>2026-04-12T12:00:17.961Z</time></trkpt><trkpt lat="38.0140633" lon="16.095035"><ele>122.0</ele><time>2026-04-12T12:00:18.961Z</time></trkpt><trkpt lat="38.0140517" lon="16.0949467"><ele>122.6</ele><time>2026-04-12T12:00:21.961Z</time></trkpt><trkpt lat="38.0140517" lon="16.09485"><ele>123.19999999999999</ele><time>2026-04-12T12:00:25.961Z</time></trkpt><trkpt lat="38.0140633" lon="16.09476"><ele>123.8</ele><time>2026-04-12T12:00:26.961Z</time></trkpt><trkpt lat="38.0140817" lon="16.0946417"><ele>124.4</ele><time>2026-04-12T12:00:27.961Z</time></trkpt><trkpt lat="38.0140983" lon="16.0944933"><ele>125.0</ele><time>2026-04-12T12:00:28.961Z</time></trkpt><trkpt lat="38.0140983" lon="16.0943383"><ele>125.0</ele><time>2026-04-12T12:00:29.961Z</time></trkpt><trkpt lat="38.0140933" lon="16.094175"><ele>125.0</ele><time>2026-04-12T12:00:30.961Z</time></trkpt><trkpt lat="38.01408" lon="16.0940083"><ele>125.0</ele><time>2026-04-12T12:00:31.962Z</time></trkpt><trkpt lat="38.0140583" lon="16.0938633"><ele>125.0</ele><time>2026-04-12T12:00:32.961Z</time></trkpt><trkpt lat="38.0140283" lon="16.0937567"><ele>124.16666666666666</ele><time>2026-04-12T12:00:33.961Z</time></trkpt><trkpt lat="38.0139883" lon="16.093675"><ele>123.33333333333333</ele><time>2026-04-12T12:00:34.962Z</time></trkpt><trkpt lat="38.0139267" lon="16.0936033"><ele>122.5</ele><time>2026-04-12T12:00:35.961Z</time></trkpt><trkpt lat="38.0138533" lon="16.09355"><ele>121.66666666666666</ele><time>2026-04-12T12:00:36.961Z</time></trkpt><trkpt lat="38.0137717" lon="16.0934983"><ele>120.83333333333333</ele><time>2026-04-12T12:00:37.961Z</time></trkpt><trkpt lat="38.0137083" lon="16.09344"><ele>120.0</ele><time>2026-04-12T12:00:38.961Z</time></trkpt><trkpt lat="38.0136567" lon="16.0933717"><ele>120.0</ele><time>2026-04-12T12:00:39.961Z</time></trkpt><trkpt lat="38.013625" lon="16.0933"><ele>120.0</ele><time>2026-04-12T12:00:40.961Z</time></trkpt><trkpt lat="38.0136217" lon="16.0931267"><ele>120.0</ele><time>2026-04-12T12:00:42.962Z</time></trkpt><trkpt lat="38.01365" lon="16.0930067"><ele>120.0</ele><time>2026-04-12T12:00:43.961Z</time></trkpt><trkpt lat="38.0136983" lon="16.0928617"><ele>120.0</ele><time>2026-04-12T12:00:44.962Z</time></trkpt><trkpt lat="38.01375" lon="16.0927133"><ele>119.6</ele><time>2026-04-12T12:00:45.961Z</time></trkpt><trkpt lat="38.0138017" lon="16.0925733"><ele>119.2</ele><time>2026-04-12T12:00:46.961Z</time></trkpt><trkpt lat="38.013845" lon="16.09245"><ele>118.80000000000001</ele><time>2026-04-12T12:00:47.961Z</time></trkpt><trkpt lat="38.01388" lon="16.092345"><ele>118.4</ele><time>2026-04-12T12:00:48.961Z</time></trkpt><trkpt lat="38.0139" lon="16.09225"><ele>118.0</ele><time>2026-04-12T12:00:49.961Z</time></trkpt><trkpt lat="38.0139067" lon="16.0921567"><ele>117.16666666666667</ele><time>2026-04-12T12:00:50.962Z</time></trkpt><trkpt lat="38.013885" lon="16.0920667"><ele>116.33333333333334</ele><time>2026-04-12T12:00:51.961Z</time></trkpt><trkpt lat="38.0138517" lon="16.09198"><ele>115.5</ele><time>2026-04-12T12:00:52.962Z</time></trkpt><trkpt lat="38.013815" lon="16.0919083"><ele>114.66666666666666</ele><time>2026-04-12T12:00:53.961Z</time></trkpt><trkpt lat="38.0137367" lon="16.0917967"><ele>113.83333333333333</ele><time>2026-04-12T12:00:55.962Z</time></trkpt><trkpt lat="38.0136583" lon="16.0917"><ele>113.0</ele><time>2026-04-12T12:00:57.961Z</time></trkpt><trkpt lat="38.013615" lon="16.0915467"><ele>111.4</ele><time>2026-04-12T12:00:59.961Z</time></trkpt><trkpt lat="38.01361" lon="16.0914317"><ele>109.80000000000001</ele><time>2026-04-12T12:01:00.961Z</time></trkpt><trkpt lat="38.0136067" lon="16.0912883"><ele>108.2</ele><time>2026-04-12T12:01:01.961Z</time></trkpt><trkpt lat="38.0136033" lon="16.091145"><ele>106.6</ele><time>2026-04-12T12:01:02.961Z</time></trkpt><trkpt lat="38.0135967" lon="16.0910033"><ele>105.0</ele><time>2026-04-12T12:01:03.962Z</time></trkpt><trkpt lat="38.0135883" lon="16.0908833"><ele>105.0</ele><time>2026-04-12T12:01:04.962Z</time></trkpt><trkpt lat="38.0135733" lon="16.09077"><ele>105.0</ele><time>2026-04-12T12:01:05.962Z</time></trkpt><trkpt lat="38.0135433" lon="16.0906783"><ele>105.0</ele><time>2026-04-12T12:01:06.961Z</time></trkpt><trkpt lat="38.0134967" lon="16.090595"><ele>105.0</ele><time>2026-04-12T12:01:07.961Z</time></trkpt><trkpt lat="38.0134283" lon="16.0904983"><ele>105.0</ele><time>2026-04-12T12:01:08.961Z</time></trkpt><trkpt lat="38.0133517" lon="16.0903983"><ele>106.0</ele><time>2026-04-12T12:01:09.961Z</time></trkpt><trkpt lat="38.0132817" lon="16.0902733"><ele>107.0</ele><time>2026-04-12T12:01:10.962Z</time></trkpt><trkpt lat="38.013215" lon="16.0901483"><ele>108.0</ele><time>2026-04-12T12:01:11.961Z</time></trkpt><trkpt lat="38.0131417" lon="16.0900233"><ele>109.0</ele><time>2026-04-12T12:01:12.961Z</time></trkpt><trkpt lat="38.013085" lon="16.0899083"><ele>107.0</ele><time>2026-04-12T12:01:13.961Z</time></trkpt><trkpt lat="38.0130367" lon="16.0898033"><ele>105.0</ele><time>2026-04-12T12:01:14.961Z</time></trkpt><trkpt lat="38.012985" lon="16.0897033"><ele>103.0</ele><time>2026-04-12T12:01:15.961Z</time></trkpt><trkpt lat="38.012955" lon="16.0895983"><ele>101.0</ele><time>2026-04-12T12:01:16.962Z</time></trkpt><trkpt lat="38.012925" lon="16.089475"><ele>99.0</ele><time>2026-04-12T12:01:17.962Z</time></trkpt><trkpt lat="38.0129033" lon="16.0893483"><ele>99.0</ele><time>2026-04-12T12:01:18.961Z</time></trkpt><trkpt lat="38.0128833" lon="16.0892183"><ele>99.0</ele><time>2026-04-12T12:01:19.961Z</time></trkpt><trkpt lat="38.0128633" lon="16.089105"><ele>99.0</ele><time>2026-04-12T12:01:20.961Z</time></trkpt><trkpt lat="38.012835" lon="16.089005"><ele>99.0</ele><time>2026-04-12T12:01:21.961Z</time></trkpt><trkpt lat="38.01279" lon="16.08891"><ele>99.0</ele><time>2026-04-12T12:01:22.961Z</time></trkpt><trkpt lat="38.0127317" lon="16.08882"><ele>97.5</ele><time>2026-04-12T12:01:23.961Z</time></trkpt><trkpt lat="38.0126783" lon="16.08874"><ele>96.0</ele><time>2026-04-12T12:01:24.961Z</time></trkpt><trkpt lat="38.0126283" lon="16.0886733"><ele>94.5</ele><time>2026-04-12T12:01:25.961Z</time></trkpt><trkpt lat="38.0125933" lon="16.088585"><ele>93.0</ele><time>2026-04-12T12:01:27.961Z</time></trkpt><trkpt lat="38.01268" lon="16.0885817"><ele>91.5</ele><time>2026-04-12T12:01:30.961Z</time></trkpt><trkpt lat="38.012745" lon="16.0886133"><ele>90.0</ele><time>2026-04-12T12:01:31.961Z</time></trkpt><trkpt lat="38.01283" lon="16.0886617"><ele>90.0</ele><time>2026-04-12T12:01:32.961Z</time></trkpt><trkpt lat="38.01292" lon="16.088725"><ele>90.0</ele><time>2026-04-12T12:01:33.961Z</time></trkpt><trkpt lat="38.0130083" lon="16.0888033"><ele>90.0</ele><time>2026-04-12T12:01:34.961Z</time></trkpt><trkpt lat="38.013085" lon="16.0889"><ele>90.0</ele><time>2026-04-12T12:01:35.961Z</time></trkpt><trkpt lat="38.0131567" lon="16.08899"><ele>90.0</ele><time>2026-04-12T12:01:36.961Z</time></trkpt><trkpt lat="38.0132217" lon="16.089075"><ele>89.4</ele><time>2026-04-12T12:01:37.962Z</time></trkpt><trkpt lat="38.013275" lon="16.0891333"><ele>88.8</ele><time>2026-04-12T12:01:38.961Z</time></trkpt><trkpt lat="38.0133817" lon="16.08919"><ele>88.19999999999999</ele><time>2026-04-12T12:01:40.961Z</time></trkpt><trkpt lat="38.0134633" lon="16.089125"><ele>87.6</ele><time>2026-04-12T12:01:42.961Z</time></trkpt><trkpt lat="38.01349" lon="16.08897"><ele>87.0</ele><time>2026-04-12T12:01:44.961Z</time></trkpt><trkpt lat="38.0134683" lon="16.0888033"><ele>87.0</ele><time>2026-04-12T12:01:46.961Z</time></trkpt><trkpt lat="38.013455" lon="16.0886883"><ele>87.0</ele><time>2026-04-12T12:01:47.961Z</time></trkpt><trkpt lat="38.01346" lon="16.0885717"><ele>87.0</ele><time>2026-04-12T12:01:48.962Z</time></trkpt><trkpt lat="38.0134833" lon="16.0884433"><ele>87.0</ele><time>2026-04-12T12:01:49.961Z</time></trkpt><trkpt lat="38.0135117" lon="16.08832"><ele>87.0</ele><time>2026-04-12T12:01:50.961Z</time></trkpt><trkpt lat="38.013525" lon="16.088185"><ele>86.75</ele><time>2026-04-12T12:01:51.961Z</time></trkpt><trkpt lat="38.013525" lon="16.08804"><ele>86.5</ele><time>2026-04-12T12:01:52.961Z</time></trkpt><trkpt lat="38.0135117" lon="16.08789"><ele>86.25</ele><time>2026-04-12T12:01:53.962Z</time></trkpt><trkpt lat="38.013495" lon="16.0877133"><ele>86.0</ele><time>2026-04-12T12:01:54.961Z</time></trkpt><trkpt lat="38.01347" lon="16.0875283"><ele>86.0</ele><time>2026-04-12T12:01:55.961Z</time></trkpt><trkpt lat="38.0134383" lon="16.0873467"><ele>86.0</ele><time>2026-04-12T12:01:56.961Z</time></trkpt><trkpt lat="38.0134167" lon="16.0871833"><ele>86.0</ele><time>2026-04-12T12:01:57.962Z</time></trkpt><trkpt lat="38.0133983" lon="16.0870283"><ele>86.0</ele><time>2026-04-12T12:01:58.961Z</time></trkpt><trkpt lat="38.0133833" lon="16.0868967"><ele>86.0</ele><time>2026-04-12T12:01:59.962Z</time></trkpt><trkpt lat="38.0133767" lon="16.0867717"><ele>86.0</ele><time>2026-04-12T12:02:00.961Z</time></trkpt><trkpt lat="38.01338" lon="16.0866283"><ele>86.0</ele><time>2026-04-12T12:02:01.961Z</time></trkpt><trkpt lat="38.0133983" lon="16.0864667"><ele>86.0</ele><time>2026-04-12T12:02:02.961Z</time></trkpt><trkpt lat="38.01343" lon="16.086295"><ele>85.75</ele><time>2026-04-12T12:02:03.961Z</time></trkpt><trkpt lat="38.01346" lon="16.0861283"><ele>85.5</ele><time>2026-04-12T12:02:04.961Z</time></trkpt><trkpt lat="38.0134883" lon="16.08595"><ele>85.25</ele><time>2026-04-12T12:02:05.961Z</time></trkpt><trkpt lat="38.0135167" lon="16.08578"><ele>85.0</ele><time>2026-04-12T12:02:06.961Z</time></trkpt><trkpt lat="38.0135533" lon="16.08562"><ele>85.0</ele><time>2026-04-12T12:02:07.961Z</time></trkpt><trkpt lat="38.0135767" lon="16.0854767"><ele>85.0</ele><time>2026-04-12T12:02:08.961Z</time></trkpt><trkpt lat="38.0136" lon="16.085335"><ele>85.0</ele><time>2026-04-12T12:02:09.961Z</time></trkpt><trkpt lat="38.013625" lon="16.0852133"><ele>85.0</ele><time>2026-04-12T12:02:10.961Z</time></trkpt><trkpt lat="38.01364" lon="16.0851083"><ele>85.0</ele><time>2026-04-12T12:02:11.961Z</time></trkpt><trkpt lat="38.0136583" lon="16.0850167"><ele>85.16666666666666</ele><time>2026-04-12T12:02:12.961Z</time></trkpt><trkpt lat="38.0136767" lon="16.0849183"><ele>85.33333333333333</ele><time>2026-04-12T12:02:13.961Z</time></trkpt><trkpt lat="38.0136933" lon="16.0848233"><ele>85.5</ele><time>2026-04-12T12:02:14.962Z</time></trkpt><trkpt lat="38.01371" lon="16.08472"><ele>85.66666666666667</ele><time>2026-04-12T12:02:15.961Z</time></trkpt><trkpt lat="38.0137267" lon="16.0846083"><ele>85.83333333333334</ele><time>2026-04-12T12:02:16.961Z</time></trkpt><trkpt lat="38.0137417" lon="16.0844967"><ele>86.0</ele><time>2026-04-12T12:02:17.962Z</time></trkpt><trkpt lat="38.0137583" lon="16.0844017"><ele>86.0</ele><time>2026-04-12T12:02:18.961Z</time></trkpt><trkpt lat="38.0137817" lon="16.0842983"><ele>86.0</ele><time>2026-04-12T12:02:20.962Z</time></trkpt><trkpt lat="38.0137683" lon="16.0842067"><ele>86.0</ele><time>2026-04-12T12:04:34.961Z</time></trkpt><trkpt lat="38.0137417" lon="16.0841283"><ele>86.0</ele><time>2026-04-12T12:04:36.961Z</time></trkpt><trkpt lat="38.0136967" lon="16.08402"><ele>86.0</ele><time>2026-04-12T12:04:38.961Z</time></trkpt><trkpt lat="38.0136267" lon="16.0839183"><ele>86.0</ele><time>2026-04-12T12:04:40.962Z</time></trkpt><trkpt lat="38.0135333" lon="16.0838967"><ele>86.0</ele><time>2026-04-12T12:04:42.961Z</time></trkpt><trkpt lat="38.013415" lon="16.0839667"><ele>86.0</ele><time>2026-04-12T12:04:44.961Z</time></trkpt><trkpt lat="38.0133483" lon="16.084015"><ele>86.0</ele><time>2026-04-12T12:04:45.962Z</time></trkpt><trkpt lat="38.0132983" lon="16.084075"><ele>86.0</ele><time>2026-04-12T12:04:46.962Z</time></trkpt><trkpt lat="38.0132883" lon="16.0842033"><ele>86.0</ele><time>2026-04-12T12:04:48.961Z</time></trkpt><trkpt lat="38.0133283" lon="16.084295"><ele>86.0</ele><time>2026-04-12T12:04:49.962Z</time></trkpt><trkpt lat="38.0133783" lon="16.0843783"><ele>86.0</ele><time>2026-04-12T12:04:50.961Z</time></trkpt><trkpt lat="38.0134233" lon="16.0844383"><ele>86.0</ele><time>2026-04-12T12:04:51.961Z</time></trkpt><trkpt lat="38.0135033" lon="16.0844967"><ele>86.0</ele><time>2026-04-12T12:04:53.961Z</time></trkpt><trkpt lat="38.0136317" lon="16.0845267"><ele>86.0</ele><time>2026-04-12T12:04:55.961Z</time></trkpt><trkpt lat="38.013695" lon="16.08453"><ele>86.0</ele><time>2026-04-12T12:04:56.962Z</time></trkpt><trkpt lat="38.0137417" lon="16.0846233"><ele>86.0</ele><time>2026-04-12T12:04:58.961Z</time></trkpt><trkpt lat="38.01373" lon="16.084785"><ele>86.0</ele><time>2026-04-12T12:05:00.961Z</time></trkpt><trkpt lat="38.01371" lon="16.0848817"><ele>86.0</ele><time>2026-04-12T12:05:01.961Z</time></trkpt><trkpt lat="38.013685" lon="16.0849917"><ele>86.0</ele><time>2026-04-12T12:05:02.961Z</time></trkpt><trkpt lat="38.0136633" lon="16.0851067"><ele>86.0</ele><time>2026-04-12T12:05:03.961Z</time></trkpt><trkpt lat="38.0136417" lon="16.0852067"><ele>85.83333333333334</ele><time>2026-04-12T12:05:04.961Z</time></trkpt><trkpt lat="38.0136217" lon="16.0852983"><ele>85.66666666666667</ele><time>2026-04-12T12:05:05.961Z</time></trkpt><trkpt lat="38.0135967" lon="16.08539"><ele>85.5</ele><time>2026-04-12T12:05:06.962Z</time></trkpt><trkpt lat="38.013575" lon="16.0854883"><ele>85.33333333333333</ele><time>2026-04-12T12:05:07.961Z</time></trkpt><trkpt lat="38.0135583" lon="16.085605"><ele>85.16666666666666</ele><time>2026-04-12T12:05:08.962Z</time></trkpt><trkpt lat="38.0135333" lon="16.0857233"><ele>85.0</ele><time>2026-04-12T12:05:09.961Z</time></trkpt><trkpt lat="38.0135233" lon="16.08585"><ele>84.8</ele><time>2026-04-12T12:05:10.962Z</time></trkpt><trkpt lat="38.01351" lon="16.0859783"><ele>84.6</ele><time>2026-04-12T12:05:11.961Z</time></trkpt><trkpt lat="38.0134933" lon="16.0861067"><ele>84.4</ele><time>2026-04-12T12:05:12.962Z</time></trkpt><trkpt lat="38.0134733" lon="16.0862267"><ele>84.2</ele><time>2026-04-12T12:05:13.961Z</time></trkpt><trkpt lat="38.013455" lon="16.0863567"><ele>84.0</ele><time>2026-04-12T12:05:14.961Z</time></trkpt><trkpt lat="38.013435" lon="16.0864833"><ele>84.4</ele><time>2026-04-12T12:05:15.961Z</time></trkpt><trkpt lat="38.01341" lon="16.086605"><ele>84.80000000000001</ele><time>2026-04-12T12:05:16.961Z</time></trkpt><trkpt lat="38.0133917" lon="16.0867183"><ele>85.19999999999999</ele><time>2026-04-12T12:05:17.961Z</time></trkpt><trkpt lat="38.013385" lon="16.0868267"><ele>85.6</ele><time>2026-04-12T12:05:18.961Z</time></trkpt><trkpt lat="38.0133933" lon="16.086935"><ele>86.0</ele><time>2026-04-12T12:05:19.962Z</time></trkpt><trkpt lat="38.0134133" lon="16.087065"><ele>86.0</ele><time>2026-04-12T12:05:20.961Z</time></trkpt><trkpt lat="38.0134333" lon="16.08721"><ele>86.0</ele><time>2026-04-12T12:05:21.962Z</time></trkpt><trkpt lat="38.0134517" lon="16.087365"><ele>86.0</ele><time>2026-04-12T12:05:22.958Z</time></trkpt><trkpt lat="38.0134667" lon="16.0875033"><ele>86.0</ele><time>2026-04-12T12:05:23.961Z</time></trkpt><trkpt lat="38.0134833" lon="16.0876483"><ele>86.0</ele><time>2026-04-12T12:05:24.962Z</time></trkpt><trkpt lat="38.0135" lon="16.0877867"><ele>86.0</ele><time>2026-04-12T12:05:25.961Z</time></trkpt><trkpt lat="38.0135133" lon="16.087905"><ele>86.0</ele><time>2026-04-12T12:05:26.961Z</time></trkpt><trkpt lat="38.0135283" lon="16.08801"><ele>86.0</ele><time>2026-04-12T12:05:27.961Z</time></trkpt><trkpt lat="38.0135283" lon="16.088105"><ele>86.0</ele><time>2026-04-12T12:05:28.961Z</time></trkpt><trkpt lat="38.0135283" lon="16.08821"><ele>86.0</ele><time>2026-04-12T12:05:29.961Z</time></trkpt><trkpt lat="38.0135133" lon="16.0883167"><ele>86.16666666666667</ele><time>2026-04-12T12:05:30.961Z</time></trkpt><trkpt lat="38.013485" lon="16.08842"><ele>86.33333333333334</ele><time>2026-04-12T12:05:31.962Z</time></trkpt><trkpt lat="38.0134617" lon="16.0885417"><ele>86.5</ele><time>2026-04-12T12:05:32.961Z</time></trkpt><trkpt lat="38.0134417" lon="16.0886617"><ele>86.66666666666667</ele><time>2026-04-12T12:05:33.961Z</time></trkpt><trkpt lat="38.0134267" lon="16.08876"><ele>86.83333333333333</ele><time>2026-04-12T12:05:34.961Z</time></trkpt><trkpt lat="38.013435" lon="16.0888517"><ele>87.0</ele><time>2026-04-12T12:05:35.961Z</time></trkpt><trkpt lat="38.013445" lon="16.08894"><ele>87.0</ele><time>2026-04-12T12:05:36.961Z</time></trkpt><trkpt lat="38.0134567" lon="16.0890617"><ele>87.0</ele><time>2026-04-12T12:05:38.961Z</time></trkpt><trkpt lat="38.0134067" lon="16.0891583"><ele>87.0</ele><time>2026-04-12T12:05:40.961Z</time></trkpt><trkpt lat="38.0133083" lon="16.0891783"><ele>87.0</ele><time>2026-04-12T12:05:42.961Z</time></trkpt><trkpt lat="38.0132017" lon="16.0891"><ele>87.0</ele><time>2026-04-12T12:05:44.961Z</time></trkpt><trkpt lat="38.0131433" lon="16.0890117"><ele>87.6</ele><time>2026-04-12T12:05:45.961Z</time></trkpt><trkpt lat="38.0130833" lon="16.08891"><ele>88.19999999999999</ele><time>2026-04-12T12:05:46.961Z</time></trkpt><trkpt lat="38.0130083" lon="16.0888017"><ele>88.8</ele><time>2026-04-12T12:05:47.962Z</time></trkpt><trkpt lat="38.0129283" lon="16.08872"><ele>89.4</ele><time>2026-04-12T12:05:48.961Z</time></trkpt><trkpt lat="38.0128383" lon="16.0886567"><ele>90.0</ele><time>2026-04-12T12:05:49.961Z</time></trkpt><trkpt lat="38.0127517" lon="16.08861"><ele>90.0</ele><time>2026-04-12T12:05:50.962Z</time></trkpt><trkpt lat="38.0126817" lon="16.0885783"><ele>90.0</ele><time>2026-04-12T12:05:51.961Z</time></trkpt><trkpt lat="38.0125767" lon="16.0885017"><ele>90.0</ele><time>2026-04-12T12:05:53.962Z</time></trkpt><trkpt lat="38.01254" lon="16.088425"><ele>90.0</ele><time>2026-04-12T12:05:54.962Z</time></trkpt><trkpt lat="38.0125083" lon="16.0883283"><ele>90.0</ele><time>2026-04-12T12:05:55.961Z</time></trkpt><trkpt lat="38.0124683" lon="16.0882367"><ele>90.0</ele><time>2026-04-12T12:05:56.961Z</time></trkpt><trkpt lat="38.0124033" lon="16.088145"><ele>86.6</ele><time>2026-04-12T12:05:57.961Z</time></trkpt><trkpt lat="38.0123233" lon="16.08806"><ele>83.2</ele><time>2026-04-12T12:05:58.961Z</time></trkpt><trkpt lat="38.012235" lon="16.08797"><ele>79.8</ele><time>2026-04-12T12:05:59.961Z</time></trkpt><trkpt lat="38.0121517" lon="16.0878917"><ele>76.4</ele><time>2026-04-12T12:06:00.961Z</time></trkpt><trkpt lat="38.012085" lon="16.0878417"><ele>73.0</ele><time>2026-04-12T12:06:01.962Z</time></trkpt><trkpt lat="38.012015" lon="16.0878233"><ele>73.0</ele><time>2026-04-12T12:06:02.962Z</time></trkpt><trkpt lat="38.0119433" lon="16.08784"><ele>73.0</ele><time>2026-04-12T12:06:03.962Z</time></trkpt><trkpt lat="38.0118683" lon="16.0878933"><ele>73.0</ele><time>2026-04-12T12:06:04.961Z</time></trkpt><trkpt lat="38.0117967" lon="16.0879733"><ele>73.0</ele><time>2026-04-12T12:06:05.961Z</time></trkpt><trkpt lat="38.011725" lon="16.0880617"><ele>73.0</ele><time>2026-04-12T12:06:06.962Z</time></trkpt><trkpt lat="38.0116567" lon="16.0881483"><ele>72.4</ele><time>2026-04-12T12:06:07.961Z</time></trkpt><trkpt lat="38.0116017" lon="16.08825"><ele>71.8</ele><time>2026-04-12T12:06:08.961Z</time></trkpt><trkpt lat="38.011555" lon="16.0883633"><ele>71.2</ele><time>2026-04-12T12:06:09.961Z</time></trkpt><trkpt lat="38.0115133" lon="16.0884717"><ele>70.6</ele><time>2026-04-12T12:06:10.962Z</time></trkpt><trkpt lat="38.011475" lon="16.088565"><ele>70.0</ele><time>2026-04-12T12:06:11.962Z</time></trkpt><trkpt lat="38.01142" lon="16.0886433"><ele>71.83333333333333</ele><time>2026-04-12T12:06:12.962Z</time></trkpt><trkpt lat="38.0113533" lon="16.0886933"><ele>73.66666666666666</ele><time>2026-04-12T12:06:13.961Z</time></trkpt><trkpt lat="38.0112767" lon="16.0887267"><ele>75.5</ele><time>2026-04-12T12:06:14.962Z</time></trkpt><trkpt lat="38.0111883" lon="16.0887383"><ele>77.33333333333333</ele><time>2026-04-12T12:06:15.961Z</time></trkpt><trkpt lat="38.011095" lon="16.0887267"><ele>79.16666666666667</ele><time>2026-04-12T12:06:16.962Z</time></trkpt><trkpt lat="38.0109983" lon="16.0886917"><ele>81.0</ele><time>2026-04-12T12:06:17.962Z</time></trkpt><trkpt lat="38.010895" lon="16.088635"><ele>80.6</ele><time>2026-04-12T12:06:18.961Z</time></trkpt><trkpt lat="38.0107867" lon="16.0885867"><ele>80.19999999999999</ele><time>2026-04-12T12:06:19.962Z</time></trkpt><trkpt lat="38.0106783" lon="16.0885517"><ele>79.80000000000001</ele><time>2026-04-12T12:06:20.962Z</time></trkpt><trkpt lat="38.0105767" lon="16.0885183"><ele>79.4</ele><time>2026-04-12T12:06:21.961Z</time></trkpt><trkpt lat="38.0104833" lon="16.088485"><ele>79.0</ele><time>2026-04-12T12:06:22.961Z</time></trkpt><trkpt lat="38.0104017" lon="16.0884583"><ele>79.0</ele><time>2026-04-12T12:06:23.961Z</time></trkpt><trkpt lat="38.0103283" lon="16.0884283"><ele>79.0</ele><time>2026-04-12T12:06:24.961Z</time></trkpt><trkpt lat="38.0102617" lon="16.0883883"><ele>79.0</ele><time>2026-04-12T12:06:25.961Z</time></trkpt><trkpt lat="38.0102133" lon="16.0883367"><ele>79.0</ele><time>2026-04-12T12:06:26.961Z</time></trkpt><trkpt lat="38.0101733" lon="16.0882683"><ele>79.0</ele><time>2026-04-12T12:06:27.961Z</time></trkpt><trkpt lat="38.0101267" lon="16.0881067"><ele>79.0</ele><time>2026-04-12T12:06:29.962Z</time></trkpt><trkpt lat="38.0101183" lon="16.088005"><ele>77.83333333333333</ele><time>2026-04-12T12:06:30.961Z</time></trkpt><trkpt lat="38.01011" lon="16.0879017"><ele>76.66666666666666</ele><time>2026-04-12T12:06:31.961Z</time></trkpt><trkpt lat="38.0101033" lon="16.0878017"><ele>75.5</ele><time>2026-04-12T12:06:32.961Z</time></trkpt><trkpt lat="38.0100867" lon="16.0877017"><ele>74.33333333333333</ele><time>2026-04-12T12:06:33.962Z</time></trkpt><trkpt lat="38.0100567" lon="16.0876117"><ele>73.16666666666667</ele><time>2026-04-12T12:06:34.961Z</time></trkpt><trkpt lat="38.0100083" lon="16.0875367"><ele>72.0</ele><time>2026-04-12T12:06:35.962Z</time></trkpt><trkpt lat="38.0099483" lon="16.0874717"><ele>71.2</ele><time>2026-04-12T12:06:36.961Z</time></trkpt><trkpt lat="38.0098717" lon="16.0874483"><ele>70.4</ele><time>2026-04-12T12:06:37.961Z</time></trkpt><trkpt lat="38.0097817" lon="16.08745"><ele>69.6</ele><time>2026-04-12T12:06:38.961Z</time></trkpt><trkpt lat="38.009675" lon="16.08747"><ele>68.8</ele><time>2026-04-12T12:06:39.962Z</time></trkpt><trkpt lat="38.0095667" lon="16.087515"><ele>68.0</ele><time>2026-04-12T12:06:40.962Z</time></trkpt><trkpt lat="38.0094633" lon="16.0875667"><ele>68.0</ele><time>2026-04-12T12:06:41.961Z</time></trkpt><trkpt lat="38.0093667" lon="16.08762"><ele>68.0</ele><time>2026-04-12T12:06:42.961Z</time></trkpt><trkpt lat="38.0092733" lon="16.0876517"><ele>68.0</ele><time>2026-04-12T12:06:43.961Z</time></trkpt><trkpt lat="38.0091883" lon="16.0876467"><ele>68.0</ele><time>2026-04-12T12:06:44.961Z</time></trkpt><trkpt lat="38.0090967" lon="16.0876133"><ele>68.0</ele><time>2026-04-12T12:06:45.961Z</time></trkpt><trkpt lat="38.0090033" lon="16.087545"><ele>66.75</ele><time>2026-04-12T12:06:46.961Z</time></trkpt><trkpt lat="38.0088983" lon="16.0874567"><ele>65.5</ele><time>2026-04-12T12:06:47.961Z</time></trkpt><trkpt lat="38.00878" lon="16.0873517"><ele>64.25</ele><time>2026-04-12T12:06:48.961Z</time></trkpt><trkpt lat="38.0086667" lon="16.08726"><ele>63.0</ele><time>2026-04-12T12:06:49.961Z</time></trkpt><trkpt lat="38.0085633" lon="16.0871767"><ele>61.75</ele><time>2026-04-12T12:06:50.961Z</time></trkpt><trkpt lat="38.0084583" lon="16.08711"><ele>60.5</ele><time>2026-04-12T12:06:51.962Z</time></trkpt><trkpt lat="38.0083583" lon="16.0870517"><ele>59.25</ele><time>2026-04-12T12:06:52.961Z</time></trkpt><trkpt lat="38.00825" lon="16.0870133"><ele>58.0</ele><time>2026-04-12T12:06:53.961Z</time></trkpt><trkpt lat="38.0081317" lon="16.0870033"><ele>56.5</ele><time>2026-04-12T12:06:54.961Z</time></trkpt><trkpt lat="38.0080083" lon="16.08702"><ele>55.0</ele><time>2026-04-12T12:06:55.961Z</time></trkpt><trkpt lat="38.0078783" lon="16.08705"><ele>53.5</ele><time>2026-04-12T12:06:56.961Z</time></trkpt><trkpt lat="38.007745" lon="16.087095"><ele>52.0</ele><time>2026-04-12T12:06:57.961Z</time></trkpt><trkpt lat="38.0076117" lon="16.08715"><ele>50.0</ele><time>2026-04-12T12:06:58.961Z</time></trkpt><trkpt lat="38.0074683" lon="16.0872117"><ele>48.0</ele><time>2026-04-12T12:06:59.961Z</time></trkpt><trkpt lat="38.007335" lon="16.0872683"><ele>46.0</ele><time>2026-04-12T12:07:00.961Z</time></trkpt><trkpt lat="38.0072" lon="16.0873233"><ele>44.0</ele><time>2026-04-12T12:07:01.961Z</time></trkpt><trkpt lat="38.0070733" lon="16.0873833"><ele>45.0</ele><time>2026-04-12T12:07:02.961Z</time></trkpt><trkpt lat="38.00695" lon="16.0874483"><ele>46.0</ele><time>2026-04-12T12:07:03.961Z</time></trkpt><trkpt lat="38.0068333" lon="16.0875183"><ele>47.0</ele><time>2026-04-12T12:07:04.961Z</time></trkpt><trkpt lat="38.0067317" lon="16.0876067"><ele>48.0</ele><time>2026-04-12T12:07:05.961Z</time></trkpt><trkpt lat="38.0066383" lon="16.0877033"><ele>45.25</ele><time>2026-04-12T12:07:06.961Z</time></trkpt><trkpt lat="38.00656" lon="16.087815"><ele>42.5</ele><time>2026-04-12T12:07:07.961Z</time></trkpt><trkpt lat="38.006505" lon="16.0879517"><ele>39.75</ele><time>2026-04-12T12:07:08.962Z</time></trkpt><trkpt lat="38.0064667" lon="16.0880967"><ele>37.0</ele><time>2026-04-12T12:07:09.961Z</time></trkpt><trkpt lat="38.0064383" lon="16.088235"><ele>37.0</ele><time>2026-04-12T12:07:10.961Z</time></trkpt><trkpt lat="38.0064" lon="16.0883517"><ele>37.0</ele><time>2026-04-12T12:07:11.961Z</time></trkpt><trkpt lat="38.00635" lon="16.08842"><ele>37.0</ele><time>2026-04-12T12:07:12.961Z</time></trkpt><trkpt lat="38.0062217" lon="16.088405"><ele>37.0</ele><time>2026-04-12T12:07:14.961Z</time></trkpt><trkpt lat="38.0061533" lon="16.08835"><ele>37.0</ele><time>2026-04-12T12:07:15.961Z</time></trkpt><trkpt lat="38.0061033" lon="16.0882467"><ele>37.0</ele><time>2026-04-12T12:07:16.961Z</time></trkpt><trkpt lat="38.0060517" lon="16.0881017"><ele>37.0</ele><time>2026-04-12T12:07:17.961Z</time></trkpt><trkpt lat="38.0059917" lon="16.0879367"><ele>37.0</ele><time>2026-04-12T12:07:18.961Z</time></trkpt><trkpt lat="38.0059233" lon="16.087735"><ele>37.0</ele><time>2026-04-12T12:07:19.961Z</time></trkpt><trkpt lat="38.005855" lon="16.08754"><ele>36.0</ele><time>2026-04-12T12:07:20.962Z</time></trkpt><trkpt lat="38.00578" lon="16.0873517"><ele>35.0</ele><time>2026-04-12T12:07:21.961Z</time></trkpt><trkpt lat="38.0056933" lon="16.0871767"><ele>34.0</ele><time>2026-04-12T12:07:22.961Z</time></trkpt><trkpt lat="38.00561" lon="16.0870017"><ele>34.0</ele><time>2026-04-12T12:07:23.961Z</time></trkpt><trkpt lat="38.00553" lon="16.086835"><ele>34.0</ele><time>2026-04-12T12:07:24.961Z</time></trkpt><trkpt lat="38.00544" lon="16.0866517"><ele>34.0</ele><time>2026-04-12T12:07:25.961Z</time></trkpt><trkpt lat="38.0053467" lon="16.08647"><ele>34.0</ele><time>2026-04-12T12:07:26.961Z</time></trkpt><trkpt lat="38.0052483" lon="16.086285"><ele>34.0</ele><time>2026-04-12T12:07:27.962Z</time></trkpt><trkpt lat="38.005155" lon="16.0860917"><ele>34.0</ele><time>2026-04-12T12:07:28.961Z</time></trkpt><trkpt lat="38.0050517" lon="16.0858867"><ele>33.66666666666667</ele><time>2026-04-12T12:07:29.961Z</time></trkpt><trkpt lat="38.0049417" lon="16.0856817"><ele>33.333333333333336</ele><time>2026-04-12T12:07:30.962Z</time></trkpt><trkpt lat="38.0048417" lon="16.0854767"><ele>33.0</ele><time>2026-04-12T12:07:31.961Z</time></trkpt><trkpt lat="38.0047467" lon="16.085285"><ele>33.0</ele><time>2026-04-12T12:07:32.961Z</time></trkpt><trkpt lat="38.00466" lon="16.085115"><ele>33.0</ele><time>2026-04-12T12:07:33.961Z</time></trkpt><trkpt lat="38.0045867" lon="16.084965"><ele>33.0</ele><time>2026-04-12T12:07:34.962Z</time></trkpt><trkpt lat="38.0045267" lon="16.084845"><ele>33.0</ele><time>2026-04-12T12:07:35.961Z</time></trkpt><trkpt lat="38.0044833" lon="16.0847533"><ele>33.0</ele><time>2026-04-12T12:07:36.961Z</time></trkpt><trkpt lat="38.0044433" lon="16.0846417"><ele>33.0</ele><time>2026-04-12T12:07:38.961Z</time></trkpt><trkpt lat="38.0044167" lon="16.084555"><ele>33.0</ele><time>2026-04-12T12:07:42.961Z</time></trkpt><trkpt lat="38.0043667" lon="16.0844567"><ele>33.0</ele><time>2026-04-12T12:07:44.962Z</time></trkpt><trkpt lat="38.00432" lon="16.0843867"><ele>33.0</ele><time>2026-04-12T12:07:45.961Z</time></trkpt><trkpt lat="38.0042667" lon="16.0843017"><ele>33.0</ele><time>2026-04-12T12:07:46.961Z</time></trkpt><trkpt lat="38.00421" lon="16.0842067"><ele>32.75</ele><time>2026-04-12T12:07:47.961Z</time></trkpt><trkpt lat="38.0041367" lon="16.0840767"><ele>32.5</ele><time>2026-04-12T12:07:48.961Z</time></trkpt><trkpt lat="38.0040583" lon="16.0839267"><ele>32.25</ele><time>2026-04-12T12:07:49.961Z</time></trkpt><trkpt lat="38.0039783" lon="16.0837717"><ele>32.0</ele><time>2026-04-12T12:07:50.961Z</time></trkpt><trkpt lat="38.0038983" lon="16.0836067"><ele>32.0</ele><time>2026-04-12T12:07:51.961Z</time></trkpt><trkpt lat="38.0038133" lon="16.0834283"><ele>32.0</ele><time>2026-04-12T12:07:52.961Z</time></trkpt><trkpt lat="38.0037283" lon="16.08324"><ele>32.0</ele><time>2026-04-12T12:07:53.961Z</time></trkpt><trkpt lat="38.0036483" lon="16.0830683"><ele>32.5</ele><time>2026-04-12T12:07:54.962Z</time></trkpt><trkpt lat="38.0035733" lon="16.08292"><ele>33.0</ele><time>2026-04-12T12:07:55.961Z</time></trkpt><trkpt lat="38.0035067" lon="16.082795"><ele>33.5</ele><time>2026-04-12T12:07:56.961Z</time></trkpt><trkpt lat="38.00344" lon="16.0826967"><ele>34.0</ele><time>2026-04-12T12:07:57.961Z</time></trkpt><trkpt lat="38.003365" lon="16.0826217"><ele>34.333333333333336</ele><time>2026-04-12T12:07:58.961Z</time></trkpt><trkpt lat="38.003285" lon="16.082565"><ele>34.66666666666667</ele><time>2026-04-12T12:07:59.961Z</time></trkpt><trkpt lat="38.0032017" lon="16.0825417"><ele>35.0</ele><time>2026-04-12T12:08:00.961Z</time></trkpt><trkpt lat="38.0031267" lon="16.082535"><ele>35.333333333333336</ele><time>2026-04-12T12:08:01.961Z</time></trkpt><trkpt lat="38.0030517" lon="16.082555"><ele>35.666666666666664</ele><time>2026-04-12T12:08:02.961Z</time></trkpt><trkpt lat="38.002975" lon="16.0825867"><ele>36.0</ele><time>2026-04-12T12:08:03.961Z</time></trkpt><trkpt lat="38.00288" lon="16.0826367"><ele>36.0</ele><time>2026-04-12T12:08:04.961Z</time></trkpt><trkpt lat="38.0027567" lon="16.0827167"><ele>36.0</ele><time>2026-04-12T12:08:05.961Z</time></trkpt><trkpt lat="38.0026117" lon="16.0828133"><ele>36.0</ele><time>2026-04-12T12:08:06.961Z</time></trkpt><trkpt lat="38.002455" lon="16.08291"><ele>39.0</ele><time>2026-04-12T12:08:07.961Z</time></trkpt><trkpt lat="38.0023017" lon="16.083"><ele>42.0</ele><time>2026-04-12T12:08:08.961Z</time></trkpt><trkpt lat="38.0021333" lon="16.08309"><ele>45.0</ele><time>2026-04-12T12:08:09.961Z</time></trkpt><trkpt lat="38.0019567" lon="16.0831883"><ele>43.0</ele><time>2026-04-12T12:08:10.961Z</time></trkpt><trkpt lat="38.001765" lon="16.0832867"><ele>41.0</ele><time>2026-04-12T12:08:11.962Z</time></trkpt><trkpt lat="38.0015617" lon="16.0833883"><ele>39.0</ele><time>2026-04-12T12:08:12.961Z</time></trkpt><trkpt lat="38.00136" lon="16.0835"><ele>39.0</ele><time>2026-04-12T12:08:13.961Z</time></trkpt><trkpt lat="38.0011517" lon="16.083605"><ele>39.0</ele><time>2026-04-12T12:08:14.962Z</time></trkpt><trkpt lat="38.0009433" lon="16.0837217"><ele>38.0</ele><time>2026-04-12T12:08:15.961Z</time></trkpt><trkpt lat="38.0007283" lon="16.0838367"><ele>37.0</ele><time>2026-04-12T12:08:16.961Z</time></trkpt><trkpt lat="38.0005117" lon="16.08396"><ele>37.0</ele><time>2026-04-12T12:08:17.961Z</time></trkpt><trkpt lat="38.0002933" lon="16.0840783"><ele>37.0</ele><time>2026-04-12T12:08:18.962Z</time></trkpt><trkpt lat="38.000065" lon="16.0841867"><ele>34.5</ele><time>2026-04-12T12:08:19.961Z</time></trkpt><trkpt lat="37.9998367" lon="16.0843"><ele>32.0</ele><time>2026-04-12T12:08:20.961Z</time></trkpt><trkpt lat="37.9996117" lon="16.0844167"><ele>32.0</ele><time>2026-04-12T12:08:21.961Z</time></trkpt><trkpt lat="37.9994" lon="16.084525"><ele>32.0</ele><time>2026-04-12T12:08:22.961Z</time></trkpt><trkpt lat="37.9991917" lon="16.08464"><ele>32.0</ele><time>2026-04-12T12:08:23.961Z</time></trkpt><trkpt lat="37.9989933" lon="16.0847533"><ele>32.0</ele><time>2026-04-12T12:08:24.961Z</time></trkpt><trkpt lat="37.9987883" lon="16.0848583"><ele>32.0</ele><time>2026-04-12T12:08:25.961Z</time></trkpt><trkpt lat="37.998605" lon="16.0849533"><ele>32.0</ele><time>2026-04-12T12:08:26.961Z</time></trkpt><trkpt lat="37.9984267" lon="16.0850517"><ele>32.0</ele><time>2026-04-12T12:08:27.961Z</time></trkpt><trkpt lat="37.99826" lon="16.085145"><ele>32.0</ele><time>2026-04-12T12:08:28.962Z</time></trkpt><trkpt lat="37.9980967" lon="16.0852267"><ele>33.33333333333333</ele><time>2026-04-12T12:08:29.961Z</time></trkpt><trkpt lat="37.99793" lon="16.0853133"><ele>34.666666666666664</ele><time>2026-04-12T12:08:30.962Z</time></trkpt><trkpt lat="37.9977483" lon="16.0854067"><ele>36.0</ele><time>2026-04-12T12:08:31.961Z</time></trkpt><trkpt lat="37.9975617" lon="16.0854967"><ele>35.333333333333336</ele><time>2026-04-12T12:08:32.961Z</time></trkpt><trkpt lat="37.99737" lon="16.0855933"><ele>34.66666666666667</ele><time>2026-04-12T12:08:33.961Z</time></trkpt><trkpt lat="37.9971783" lon="16.0856933"><ele>34.0</ele><time>2026-04-12T12:08:34.961Z</time></trkpt><trkpt lat="37.9969817" lon="16.0857917"><ele>34.0</ele><time>2026-04-12T12:08:35.961Z</time></trkpt><trkpt lat="37.9968067" lon="16.0858817"><ele>34.0</ele><time>2026-04-12T12:08:36.961Z</time></trkpt><trkpt lat="37.996655" lon="16.085945"><ele>34.0</ele><time>2026-04-12T12:08:37.961Z</time></trkpt><trkpt lat="37.9965267" lon="16.0859683"><ele>34.66666666666667</ele><time>2026-04-12T12:08:38.962Z</time></trkpt><trkpt lat="37.9963933" lon="16.08593"><ele>35.333333333333336</ele><time>2026-04-12T12:08:39.961Z</time></trkpt><trkpt lat="37.996235" lon="16.085845"><ele>36.0</ele><time>2026-04-12T12:08:40.961Z</time></trkpt><trkpt lat="37.996065" lon="16.0857417"><ele>37.333333333333336</ele><time>2026-04-12T12:08:41.961Z</time></trkpt><trkpt lat="37.9958833" lon="16.08563"><ele>38.66666666666667</ele><time>2026-04-12T12:08:42.961Z</time></trkpt><trkpt lat="37.9957017" lon="16.0855117"><ele>40.0</ele><time>2026-04-12T12:08:43.961Z</time></trkpt><trkpt lat="37.995505" lon="16.0853967"><ele>40.0</ele><time>2026-04-12T12:08:44.961Z</time></trkpt><trkpt lat="37.9953033" lon="16.0852783"><ele>40.0</ele><time>2026-04-12T12:08:45.962Z</time></trkpt><trkpt lat="37.9950983" lon="16.085165"><ele>40.0</ele><time>2026-04-12T12:08:46.961Z</time></trkpt><trkpt lat="37.994905" lon="16.0850567"><ele>39.0</ele><time>2026-04-12T12:08:47.961Z</time></trkpt><trkpt lat="37.99473" lon="16.0849583"><ele>38.0</ele><time>2026-04-12T12:08:48.961Z</time></trkpt><trkpt lat="37.9945867" lon="16.0848833"><ele>37.0</ele><time>2026-04-12T12:08:49.962Z</time></trkpt><trkpt lat="37.994465" lon="16.0848217"><ele>37.75</ele><time>2026-04-12T12:08:50.961Z</time></trkpt><trkpt lat="37.9943517" lon="16.084765"><ele>38.5</ele><time>2026-04-12T12:08:51.961Z</time></trkpt><trkpt lat="37.99424" lon="16.0847183"><ele>39.25</ele><time>2026-04-12T12:08:52.962Z</time></trkpt><trkpt lat="37.9941167" lon="16.0846967"><ele>40.0</ele><time>2026-04-12T12:08:53.961Z</time></trkpt><trkpt lat="37.9939967" lon="16.084705"><ele>40.0</ele><time>2026-04-12T12:08:54.961Z</time></trkpt><trkpt lat="37.99387" lon="16.08476"><ele>40.0</ele><time>2026-04-12T12:08:55.961Z</time></trkpt><trkpt lat="37.99372" lon="16.0848483"><ele>40.0</ele><time>2026-04-12T12:08:56.962Z</time></trkpt><trkpt lat="37.9935617" lon="16.0849717"><ele>38.66666666666667</ele><time>2026-04-12T12:08:57.961Z</time></trkpt><trkpt lat="37.9933933" lon="16.085095"><ele>37.333333333333336</ele><time>2026-04-12T12:08:58.962Z</time></trkpt><trkpt lat="37.993205" lon="16.0852233"><ele>36.0</ele><time>2026-04-12T12:08:59.962Z</time></trkpt><trkpt lat="37.9930183" lon="16.085355"><ele>36.0</ele><time>2026-04-12T12:09:00.962Z</time></trkpt><trkpt lat="37.9928283" lon="16.0854867"><ele>36.0</ele><time>2026-04-12T12:09:01.961Z</time></trkpt><trkpt lat="37.9926517" lon="16.0856067"><ele>36.0</ele><time>2026-04-12T12:09:02.961Z</time></trkpt><trkpt lat="37.992485" lon="16.0857167"><ele>37.333333333333336</ele><time>2026-04-12T12:09:03.961Z</time></trkpt><trkpt lat="37.99232" lon="16.0858267"><ele>38.66666666666667</ele><time>2026-04-12T12:09:04.961Z</time></trkpt><trkpt lat="37.9921617" lon="16.085935"><ele>40.0</ele><time>2026-04-12T12:09:05.962Z</time></trkpt><trkpt lat="37.99201" lon="16.0860383"><ele>40.0</ele><time>2026-04-12T12:09:06.961Z</time></trkpt><trkpt lat="37.9918683" lon="16.0861333"><ele>40.0</ele><time>2026-04-12T12:09:07.962Z</time></trkpt><trkpt lat="37.99173" lon="16.086215"><ele>40.0</ele><time>2026-04-12T12:09:08.961Z</time></trkpt><trkpt lat="37.9915767" lon="16.0862633"><ele>42.0</ele><time>2026-04-12T12:09:09.961Z</time></trkpt><trkpt lat="37.9914017" lon="16.08629"><ele>44.0</ele><time>2026-04-12T12:09:10.961Z</time></trkpt><trkpt lat="37.9912167" lon="16.0863083"><ele>46.0</ele><time>2026-04-12T12:09:11.962Z</time></trkpt><trkpt lat="37.9910267" lon="16.0863183"><ele>46.333333333333336</ele><time>2026-04-12T12:09:12.961Z</time></trkpt><trkpt lat="37.99083" lon="16.0863267"><ele>46.666666666666664</ele><time>2026-04-12T12:09:13.961Z</time></trkpt><trkpt lat="37.99063" lon="16.0863433"><ele>47.0</ele><time>2026-04-12T12:09:14.961Z</time></trkpt><trkpt lat="37.9904283" lon="16.086365"><ele>47.0</ele><time>2026-04-12T12:09:15.961Z</time></trkpt><trkpt lat="37.9902267" lon="16.0863767"><ele>47.0</ele><time>2026-04-12T12:09:16.961Z</time></trkpt><trkpt lat="37.9900383" lon="16.086385"><ele>47.0</ele><time>2026-04-12T12:09:17.961Z</time></trkpt><trkpt lat="37.98986" lon="16.08639"><ele>47.0</ele><time>2026-04-12T12:09:18.961Z</time></trkpt><trkpt lat="37.9896917" lon="16.0863983"><ele>47.0</ele><time>2026-04-12T12:09:19.961Z</time></trkpt><trkpt lat="37.9895583" lon="16.0863983"><ele>47.0</ele><time>2026-04-12T12:09:20.962Z</time></trkpt><trkpt lat="37.989465" lon="16.0863917"><ele>47.0</ele><time>2026-04-12T12:09:21.961Z</time></trkpt><trkpt lat="37.9893933" lon="16.0863717"><ele>47.0</ele><time>2026-04-12T12:09:22.961Z</time></trkpt><trkpt lat="37.9893067" lon="16.08627"><ele>47.0</ele><time>2026-04-12T12:09:24.961Z</time></trkpt><trkpt lat="37.9892883" lon="16.0861883"><ele>47.0</ele><time>2026-04-12T12:09:25.962Z</time></trkpt><trkpt lat="37.98929" lon="16.0860883"><ele>47.0</ele><time>2026-04-12T12:09:26.961Z</time></trkpt><trkpt lat="37.9893067" lon="16.0859717"><ele>47.0</ele><time>2026-04-12T12:09:27.961Z</time></trkpt><trkpt lat="37.9893417" lon="16.0858283"><ele>49.33333333333333</ele><time>2026-04-12T12:09:28.961Z</time></trkpt><trkpt lat="37.9893883" lon="16.085655"><ele>51.666666666666664</ele><time>2026-04-12T12:09:29.961Z</time></trkpt><trkpt lat="37.9894433" lon="16.0854583"><ele>54.0</ele><time>2026-04-12T12:09:30.961Z</time></trkpt><trkpt lat="37.989505" lon="16.08524"><ele>54.0</ele><time>2026-04-12T12:09:31.961Z</time></trkpt><trkpt lat="37.98956" lon="16.0850083"><ele>54.0</ele><time>2026-04-12T12:09:32.961Z</time></trkpt><trkpt lat="37.989625" lon="16.084755"><ele>54.0</ele><time>2026-04-12T12:09:33.962Z</time></trkpt><trkpt lat="37.9896967" lon="16.0845083"><ele>55.0</ele><time>2026-04-12T12:09:34.961Z</time></trkpt><trkpt lat="37.9897717" lon="16.084245"><ele>56.0</ele><time>2026-04-12T12:09:35.961Z</time></trkpt><trkpt lat="37.9898417" lon="16.0839817"><ele>57.0</ele><time>2026-04-12T12:09:36.961Z</time></trkpt><trkpt lat="37.98992" lon="16.0837083"><ele>57.5</ele><time>2026-04-12T12:09:37.961Z</time></trkpt><trkpt lat="37.99" lon="16.0834233"><ele>58.0</ele><time>2026-04-12T12:09:38.961Z</time></trkpt><trkpt lat="37.990075" lon="16.0831433"><ele>62.5</ele><time>2026-04-12T12:09:39.961Z</time></trkpt><trkpt lat="37.9901517" lon="16.0828683"><ele>67.0</ele><time>2026-04-12T12:09:40.96Z</time></trkpt><trkpt lat="37.9902283" lon="16.08259"><ele>67.0</ele><time>2026-04-12T12:09:41.96Z</time></trkpt><trkpt lat="37.9902883" lon="16.0823067"><ele>67.0</ele><time>2026-04-12T12:09:42.96Z</time></trkpt><trkpt lat="37.990355" lon="16.0820317"><ele>67.0</ele><time>2026-04-12T12:09:43.961Z</time></trkpt><trkpt lat="37.9904133" lon="16.0817767"><ele>67.0</ele><time>2026-04-12T12:09:44.96Z</time></trkpt><trkpt lat="37.9904867" lon="16.0815183"><ele>67.0</ele><time>2026-04-12T12:09:45.961Z</time></trkpt><trkpt lat="37.9905533" lon="16.0812783"><ele>67.0</ele><time>2026-04-12T12:09:46.96Z</time></trkpt><trkpt lat="37.990615" lon="16.08105"><ele>67.0</ele><time>2026-04-12T12:09:47.961Z</time></trkpt><trkpt lat="37.9906867" lon="16.0808317"><ele>67.0</ele><time>2026-04-12T12:09:48.96Z</time></trkpt><trkpt lat="37.99076" lon="16.0806267"><ele>65.66666666666666</ele><time>2026-04-12T12:09:49.96Z</time></trkpt><trkpt lat="37.9908567" lon="16.0804317"><ele>64.33333333333333</ele><time>2026-04-12T12:09:50.96Z</time></trkpt><trkpt lat="37.9909667" lon="16.08023"><ele>63.0</ele><time>2026-04-12T12:09:51.96Z</time></trkpt><trkpt lat="37.99108" lon="16.0800217"><ele>65.0</ele><time>2026-04-12T12:09:52.96Z</time></trkpt><trkpt lat="37.9911983" lon="16.0798183"><ele>67.0</ele><time>2026-04-12T12:09:53.96Z</time></trkpt><trkpt lat="37.9913067" lon="16.0796233"><ele>69.0</ele><time>2026-04-12T12:09:54.96Z</time></trkpt><trkpt lat="37.99141" lon="16.07944"><ele>69.0</ele><time>2026-04-12T12:09:55.96Z</time></trkpt><trkpt lat="37.991515" lon="16.079275"><ele>69.0</ele><time>2026-04-12T12:09:56.96Z</time></trkpt><trkpt lat="37.99164" lon="16.0791233"><ele>69.0</ele><time>2026-04-12T12:09:57.96Z</time></trkpt><trkpt lat="37.9917833" lon="16.0789817"><ele>69.0</ele><time>2026-04-12T12:09:58.96Z</time></trkpt><trkpt lat="37.991935" lon="16.078835"><ele>69.0</ele><time>2026-04-12T12:09:59.96Z</time></trkpt><trkpt lat="37.9920867" lon="16.0786667"><ele>69.0</ele><time>2026-04-12T12:10:00.96Z</time></trkpt><trkpt lat="37.9922317" lon="16.0784883"><ele>69.0</ele><time>2026-04-12T12:10:01.96Z</time></trkpt><trkpt lat="37.99238" lon="16.078305"><ele>69.0</ele><time>2026-04-12T12:10:02.96Z</time></trkpt><trkpt lat="37.9925217" lon="16.0781133"><ele>69.0</ele><time>2026-04-12T12:10:03.96Z</time></trkpt><trkpt lat="37.9926683" lon="16.0779117"><ele>71.0</ele><time>2026-04-12T12:10:04.961Z</time></trkpt><trkpt lat="37.9928067" lon="16.0776967"><ele>73.0</ele><time>2026-04-12T12:10:05.961Z</time></trkpt><trkpt lat="37.9929383" lon="16.077475"><ele>75.0</ele><time>2026-04-12T12:10:06.961Z</time></trkpt><trkpt lat="37.99308" lon="16.0772633"><ele>75.33333333333333</ele><time>2026-04-12T12:10:07.96Z</time></trkpt><trkpt lat="37.993215" lon="16.077065"><ele>75.66666666666666</ele><time>2026-04-12T12:10:08.96Z</time></trkpt><trkpt lat="37.9933517" lon="16.07687"><ele>76.0</ele><time>2026-04-12T12:10:09.96Z</time></trkpt><trkpt lat="37.9934833" lon="16.076675"><ele>77.33333333333333</ele><time>2026-04-12T12:10:10.961Z</time></trkpt><trkpt lat="37.9935967" lon="16.0764883"><ele>78.66666666666667</ele><time>2026-04-12T12:10:11.96Z</time></trkpt><trkpt lat="37.9937" lon="16.076315"><ele>80.0</ele><time>2026-04-12T12:10:12.96Z</time></trkpt><trkpt lat="37.9937917" lon="16.0761467"><ele>80.0</ele><time>2026-04-12T12:10:13.96Z</time></trkpt><trkpt lat="37.9938783" lon="16.0760017"><ele>80.0</ele><time>2026-04-12T12:10:14.96Z</time></trkpt><trkpt lat="37.993965" lon="16.07587"><ele>80.0</ele><time>2026-04-12T12:10:15.96Z</time></trkpt><trkpt lat="37.99407" lon="16.075755"><ele>80.0</ele><time>2026-04-12T12:10:16.96Z</time></trkpt><trkpt lat="37.9941983" lon="16.07567"><ele>80.0</ele><time>2026-04-12T12:10:17.96Z</time></trkpt><trkpt lat="37.9943583" lon="16.0755967"><ele>80.0</ele><time>2026-04-12T12:10:18.96Z</time></trkpt><trkpt lat="37.9945417" lon="16.07552"><ele>80.0</ele><time>2026-04-12T12:10:19.96Z</time></trkpt><trkpt lat="37.9947333" lon="16.0754433"><ele>80.0</ele><time>2026-04-12T12:10:20.96Z</time></trkpt><trkpt lat="37.994935" lon="16.07537"><ele>80.0</ele><time>2026-04-12T12:10:21.96Z</time></trkpt><trkpt lat="37.9951267" lon="16.0753"><ele>80.0</ele><time>2026-04-12T12:10:22.96Z</time></trkpt><trkpt lat="37.9953133" lon="16.075225"><ele>80.66666666666667</ele><time>2026-04-12T12:10:23.96Z</time></trkpt><trkpt lat="37.9954967" lon="16.0751517"><ele>81.33333333333333</ele><time>2026-04-12T12:10:24.961Z</time></trkpt><trkpt lat="37.995685" lon="16.0750783"><ele>82.0</ele><time>2026-04-12T12:10:25.96Z</time></trkpt><trkpt lat="37.9958633" lon="16.0750017"><ele>83.25</ele><time>2026-04-12T12:10:26.96Z</time></trkpt><trkpt lat="37.9960217" lon="16.074935"><ele>84.5</ele><time>2026-04-12T12:10:27.96Z</time></trkpt><trkpt lat="37.9961583" lon="16.0748683"><ele>85.75</ele><time>2026-04-12T12:10:28.96Z</time></trkpt><trkpt lat="37.9962783" lon="16.0748"><ele>87.0</ele><time>2026-04-12T12:10:29.961Z</time></trkpt><trkpt lat="37.9964" lon="16.0747067"><ele>87.0</ele><time>2026-04-12T12:10:30.961Z</time></trkpt><trkpt lat="37.996525" lon="16.0745833"><ele>87.0</ele><time>2026-04-12T12:10:31.96Z</time></trkpt><trkpt lat="37.9966617" lon="16.0744467"><ele>87.0</ele><time>2026-04-12T12:10:32.961Z</time></trkpt><trkpt lat="37.99681" lon="16.0742783"><ele>88.66666666666667</ele><time>2026-04-12T12:10:33.961Z</time></trkpt><trkpt lat="37.9969583" lon="16.0741083"><ele>90.33333333333334</ele><time>2026-04-12T12:10:34.96Z</time></trkpt><trkpt lat="37.997105" lon="16.0739283"><ele>92.0</ele><time>2026-04-12T12:10:35.96Z</time></trkpt><trkpt lat="37.997245" lon="16.07375"><ele>92.0</ele><time>2026-04-12T12:10:36.96Z</time></trkpt><trkpt lat="37.997385" lon="16.0735917"><ele>92.0</ele><time>2026-04-12T12:10:37.96Z</time></trkpt><trkpt lat="37.9975167" lon="16.0734433"><ele>92.0</ele><time>2026-04-12T12:10:38.96Z</time></trkpt><trkpt lat="37.9976517" lon="16.0732933"><ele>95.33333333333334</ele><time>2026-04-12T12:10:39.96Z</time></trkpt><trkpt lat="37.9977833" lon="16.07314"><ele>98.66666666666667</ele><time>2026-04-12T12:10:40.96Z</time></trkpt><trkpt lat="37.9979217" lon="16.0729783"><ele>102.0</ele><time>2026-04-12T12:10:41.96Z</time></trkpt><trkpt lat="37.9980533" lon="16.07282"><ele>102.0</ele><time>2026-04-12T12:10:42.96Z</time></trkpt><trkpt lat="37.9981733" lon="16.072675"><ele>102.0</ele><time>2026-04-12T12:10:43.96Z</time></trkpt><trkpt lat="37.9982867" lon="16.0725333"><ele>102.0</ele><time>2026-04-12T12:10:44.96Z</time></trkpt><trkpt lat="37.9983867" lon="16.0723867"><ele>103.0</ele><time>2026-04-12T12:10:45.96Z</time></trkpt><trkpt lat="37.99848" lon="16.0722467"><ele>104.0</ele><time>2026-04-12T12:10:46.96Z</time></trkpt><trkpt lat="37.99856" lon="16.0721133"><ele>105.0</ele><time>2026-04-12T12:10:47.96Z</time></trkpt><trkpt lat="37.9986217" lon="16.07199"><ele>106.0</ele><time>2026-04-12T12:10:48.961Z</time></trkpt><trkpt lat="37.9986567" lon="16.0718833"><ele>106.0</ele><time>2026-04-12T12:10:49.96Z</time></trkpt><trkpt lat="37.9986633" lon="16.07176"><ele>106.0</ele><time>2026-04-12T12:10:50.96Z</time></trkpt><trkpt lat="37.9986417" lon="16.07162"><ele>106.0</ele><time>2026-04-12T12:10:51.96Z</time></trkpt><trkpt lat="37.9985883" lon="16.0714733"><ele>106.0</ele><time>2026-04-12T12:10:52.96Z</time></trkpt><trkpt lat="37.998515" lon="16.0713017"><ele>105.66666666666667</ele><time>2026-04-12T12:10:53.96Z</time></trkpt><trkpt lat="37.9984233" lon="16.071115"><ele>105.33333333333334</ele><time>2026-04-12T12:10:54.96Z</time></trkpt><trkpt lat="37.9983267" lon="16.0709117"><ele>105.0</ele><time>2026-04-12T12:10:55.961Z</time></trkpt><trkpt lat="37.9982283" lon="16.0707017"><ele>106.33333333333334</ele><time>2026-04-12T12:10:56.961Z</time></trkpt><trkpt lat="37.9981333" lon="16.07049"><ele>107.66666666666667</ele><time>2026-04-12T12:10:57.961Z</time></trkpt><trkpt lat="37.9980467" lon="16.07029"><ele>109.0</ele><time>2026-04-12T12:10:58.96Z</time></trkpt><trkpt lat="37.9979667" lon="16.0701017"><ele>110.66666666666667</ele><time>2026-04-12T12:10:59.961Z</time></trkpt><trkpt lat="37.9979067" lon="16.0699117"><ele>112.33333333333334</ele><time>2026-04-12T12:11:00.96Z</time></trkpt><trkpt lat="37.9978817" lon="16.0697117"><ele>114.0</ele><time>2026-04-12T12:11:01.96Z</time></trkpt><trkpt lat="37.99787" lon="16.06951"><ele>114.0</ele><time>2026-04-12T12:11:02.96Z</time></trkpt><trkpt lat="37.9978617" lon="16.0693333"><ele>114.0</ele><time>2026-04-12T12:11:03.96Z</time></trkpt><trkpt lat="37.9978467" lon="16.0691717"><ele>114.0</ele><time>2026-04-12T12:11:04.96Z</time></trkpt><trkpt lat="37.997805" lon="16.0690133"><ele>114.0</ele><time>2026-04-12T12:11:05.961Z</time></trkpt><trkpt lat="37.9977233" lon="16.0688583"><ele>113.66666666666666</ele><time>2026-04-12T12:11:06.96Z</time></trkpt><trkpt lat="37.99762" lon="16.0687017"><ele>113.33333333333333</ele><time>2026-04-12T12:11:07.96Z</time></trkpt><trkpt lat="37.9975033" lon="16.06854"><ele>113.0</ele><time>2026-04-12T12:11:08.96Z</time></trkpt><trkpt lat="37.9973967" lon="16.0683833"><ele>114.25</ele><time>2026-04-12T12:11:09.96Z</time></trkpt><trkpt lat="37.9972967" lon="16.0682367"><ele>115.5</ele><time>2026-04-12T12:11:10.96Z</time></trkpt><trkpt lat="37.99721" lon="16.0681033"><ele>116.75</ele><time>2026-04-12T12:11:11.96Z</time></trkpt><trkpt lat="37.9971083" lon="16.0679783"><ele>118.0</ele><time>2026-04-12T12:11:12.96Z</time></trkpt><trkpt lat="37.997" lon="16.0678467"><ele>118.0</ele><time>2026-04-12T12:11:13.96Z</time></trkpt><trkpt lat="37.99688" lon="16.0677233"><ele>118.0</ele><time>2026-04-12T12:11:14.96Z</time></trkpt><trkpt lat="37.9967483" lon="16.0676067"><ele>118.0</ele><time>2026-04-12T12:11:15.96Z</time></trkpt><trkpt lat="37.9966167" lon="16.0674983"><ele>121.33333333333334</ele><time>2026-04-12T12:11:16.96Z</time></trkpt><trkpt lat="37.9964833" lon="16.0673867"><ele>124.66666666666666</ele><time>2026-04-12T12:11:17.96Z</time></trkpt><trkpt lat="37.9963383" lon="16.067265"><ele>128.0</ele><time>2026-04-12T12:11:18.96Z</time></trkpt><trkpt lat="37.9961983" lon="16.0671367"><ele>128.0</ele><time>2026-04-12T12:11:19.96Z</time></trkpt><trkpt lat="37.9960667" lon="16.0669983"><ele>128.0</ele><time>2026-04-12T12:11:20.96Z</time></trkpt><trkpt lat="37.9959417" lon="16.0668633"><ele>128.0</ele><time>2026-04-12T12:11:21.96Z</time></trkpt><trkpt lat="37.9958217" lon="16.06675"><ele>130.75</ele><time>2026-04-12T12:11:22.96Z</time></trkpt><trkpt lat="37.995695" lon="16.06665"><ele>133.5</ele><time>2026-04-12T12:11:23.961Z</time></trkpt><trkpt lat="37.9955667" lon="16.0665983"><ele>136.25</ele><time>2026-04-12T12:11:24.96Z</time></trkpt><trkpt lat="37.9954517" lon="16.0666"><ele>139.0</ele><time>2026-04-12T12:11:25.96Z</time></trkpt><trkpt lat="37.9953267" lon="16.066645"><ele>139.0</ele><time>2026-04-12T12:11:26.961Z</time></trkpt><trkpt lat="37.9951983" lon="16.066695"><ele>139.0</ele><time>2026-04-12T12:11:27.961Z</time></trkpt><trkpt lat="37.9950817" lon="16.0667517"><ele>139.0</ele><time>2026-04-12T12:11:28.96Z</time></trkpt><trkpt lat="37.99496" lon="16.0667917"><ele>139.0</ele><time>2026-04-12T12:11:29.96Z</time></trkpt><trkpt lat="37.99484" lon="16.066805"><ele>140.6</ele><time>2026-04-12T12:11:30.96Z</time></trkpt><trkpt lat="37.9947283" lon="16.0667883"><ele>142.2</ele><time>2026-04-12T12:11:31.96Z</time></trkpt><trkpt lat="37.99462" lon="16.06675"><ele>143.79999999999998</ele><time>2026-04-12T12:11:32.96Z</time></trkpt><trkpt lat="37.9945267" lon="16.0667"><ele>145.4</ele><time>2026-04-12T12:11:33.96Z</time></trkpt><trkpt lat="37.9944567" lon="16.0666383"><ele>147.0</ele><time>2026-04-12T12:11:34.96Z</time></trkpt><trkpt lat="37.9943967" lon="16.0665767"><ele>149.0</ele><time>2026-04-12T12:11:35.96Z</time></trkpt><trkpt lat="37.9943617" lon="16.0664817"><ele>151.0</ele><time>2026-04-12T12:11:36.96Z</time></trkpt><trkpt lat="37.9943383" lon="16.0663583"><ele>153.0</ele><time>2026-04-12T12:11:37.961Z</time></trkpt><trkpt lat="37.99434" lon="16.06621"><ele>155.0</ele><time>2026-04-12T12:11:38.96Z</time></trkpt><trkpt lat="37.9943433" lon="16.0660283"><ele>157.0</ele><time>2026-04-12T12:11:39.96Z</time></trkpt><trkpt lat="37.9943367" lon="16.0658217"><ele>158.0</ele><time>2026-04-12T12:11:40.961Z</time></trkpt><trkpt lat="37.9943333" lon="16.0656067"><ele>159.0</ele><time>2026-04-12T12:11:41.96Z</time></trkpt><trkpt lat="37.9943283" lon="16.0653933"><ele>160.0</ele><time>2026-04-12T12:11:42.96Z</time></trkpt><trkpt lat="37.9943217" lon="16.065155"><ele>161.33333333333334</ele><time>2026-04-12T12:11:43.96Z</time></trkpt><trkpt lat="37.9943033" lon="16.0649383"><ele>162.66666666666666</ele><time>2026-04-12T12:11:44.96Z</time></trkpt><trkpt lat="37.99428" lon="16.0647017"><ele>164.0</ele><time>2026-04-12T12:11:45.96Z</time></trkpt><trkpt lat="37.994245" lon="16.06447"><ele>164.0</ele><time>2026-04-12T12:11:46.96Z</time></trkpt><trkpt lat="37.9942117" lon="16.0642417"><ele>164.0</ele><time>2026-04-12T12:11:47.96Z</time></trkpt><trkpt lat="37.9941717" lon="16.0639983"><ele>164.0</ele><time>2026-04-12T12:11:48.96Z</time></trkpt><trkpt lat="37.994145" lon="16.06376"><ele>169.33333333333331</ele><time>2026-04-12T12:11:49.961Z</time></trkpt><trkpt lat="37.99412" lon="16.063525"><ele>174.66666666666666</ele><time>2026-04-12T12:11:50.96Z</time></trkpt><trkpt lat="37.994095" lon="16.0632983"><ele>180.0</ele><time>2026-04-12T12:11:51.96Z</time></trkpt><trkpt lat="37.9940683" lon="16.06309"><ele>180.2</ele><time>2026-04-12T12:11:52.96Z</time></trkpt><trkpt lat="37.99406" lon="16.0629133"><ele>180.4</ele><time>2026-04-12T12:11:53.96Z</time></trkpt><trkpt lat="37.994065" lon="16.0627767"><ele>180.60000000000002</ele><time>2026-04-12T12:11:54.96Z</time></trkpt><trkpt lat="37.9940867" lon="16.0626567"><ele>180.8</ele><time>2026-04-12T12:11:55.96Z</time></trkpt><trkpt lat="37.9941383" lon="16.062555"><ele>181.0</ele><time>2026-04-12T12:11:56.96Z</time></trkpt><trkpt lat="37.9942167" lon="16.0624667"><ele>182.0</ele><time>2026-04-12T12:11:57.96Z</time></trkpt><trkpt lat="37.9943167" lon="16.06238"><ele>183.0</ele><time>2026-04-12T12:11:58.961Z</time></trkpt><trkpt lat="37.9944317" lon="16.0623067"><ele>184.0</ele><time>2026-04-12T12:11:59.96Z</time></trkpt><trkpt lat="37.9945483" lon="16.0622383"><ele>185.0</ele><time>2026-04-12T12:12:00.961Z</time></trkpt><trkpt lat="37.99465" lon="16.06215"><ele>185.0</ele><time>2026-04-12T12:12:01.96Z</time></trkpt><trkpt lat="37.994745" lon="16.06203"><ele>185.0</ele><time>2026-04-12T12:12:02.96Z</time></trkpt><trkpt lat="37.9948317" lon="16.06189"><ele>185.0</ele><time>2026-04-12T12:12:03.961Z</time></trkpt><trkpt lat="37.9949167" lon="16.0617533"><ele>185.0</ele><time>2026-04-12T12:12:04.96Z</time></trkpt><trkpt lat="37.9949967" lon="16.06161"><ele>186.33333333333331</ele><time>2026-04-12T12:12:05.96Z</time></trkpt><trkpt lat="37.9950783" lon="16.0614533"><ele>187.66666666666666</ele><time>2026-04-12T12:12:06.961Z</time></trkpt><trkpt lat="37.9951633" lon="16.061295"><ele>189.0</ele><time>2026-04-12T12:12:07.96Z</time></trkpt><trkpt lat="37.9952617" lon="16.0611383"><ele>189.0</ele><time>2026-04-12T12:12:08.96Z</time></trkpt><trkpt lat="37.995365" lon="16.0609683"><ele>189.0</ele><time>2026-04-12T12:12:09.96Z</time></trkpt><trkpt lat="37.995475" lon="16.0607933"><ele>189.0</ele><time>2026-04-12T12:12:10.96Z</time></trkpt><trkpt lat="37.9955933" lon="16.0606233"><ele>189.33333333333334</ele><time>2026-04-12T12:12:11.96Z</time></trkpt><trkpt lat="37.9957233" lon="16.0604617"><ele>189.66666666666669</ele><time>2026-04-12T12:12:12.96Z</time></trkpt><trkpt lat="37.9958483" lon="16.060305"><ele>190.0</ele><time>2026-04-12T12:12:13.96Z</time></trkpt><trkpt lat="37.9959767" lon="16.0601333"><ele>191.0</ele><time>2026-04-12T12:12:14.96Z</time></trkpt><trkpt lat="37.9961017" lon="16.0599717"><ele>192.0</ele><time>2026-04-12T12:12:15.96Z</time></trkpt><trkpt lat="37.9962217" lon="16.0598133"><ele>193.0</ele><time>2026-04-12T12:12:16.96Z</time></trkpt><trkpt lat="37.9963283" lon="16.0596667"><ele>194.0</ele><time>2026-04-12T12:12:17.96Z</time></trkpt><trkpt lat="37.99644" lon="16.0595233"><ele>195.0</ele><time>2026-04-12T12:12:18.96Z</time></trkpt><trkpt lat="37.9965483" lon="16.0593917"><ele>196.0</ele><time>2026-04-12T12:12:19.961Z</time></trkpt><trkpt lat="37.9966483" lon="16.05927"><ele>197.0</ele><time>2026-04-12T12:12:20.961Z</time></trkpt><trkpt lat="37.996745" lon="16.0591433"><ele>198.0</ele><time>2026-04-12T12:12:21.96Z</time></trkpt><trkpt lat="37.99683" lon="16.059025"><ele>199.0</ele><time>2026-04-12T12:12:22.96Z</time></trkpt><trkpt lat="37.996915" lon="16.0589183"><ele>200.0</ele><time>2026-04-12T12:12:23.96Z</time></trkpt><trkpt lat="37.997" lon="16.0588083"><ele>201.0</ele><time>2026-04-12T12:12:24.961Z</time></trkpt><trkpt lat="37.9970833" lon="16.058705"><ele>201.0</ele><time>2026-04-12T12:12:25.96Z</time></trkpt><trkpt lat="37.99717" lon="16.0585983"><ele>201.0</ele><time>2026-04-12T12:12:26.961Z</time></trkpt><trkpt lat="37.9972533" lon="16.0584917"><ele>201.0</ele><time>2026-04-12T12:12:27.96Z</time></trkpt><trkpt lat="37.9973317" lon="16.058385"><ele>201.0</ele><time>2026-04-12T12:12:28.961Z</time></trkpt><trkpt lat="37.997405" lon="16.058275"><ele>201.0</ele><time>2026-04-12T12:12:29.961Z</time></trkpt><trkpt lat="37.9974767" lon="16.0581767"><ele>201.0</ele><time>2026-04-12T12:12:30.96Z</time></trkpt><trkpt lat="37.9975383" lon="16.0580667"><ele>201.0</ele><time>2026-04-12T12:12:31.96Z</time></trkpt><trkpt lat="37.9975817" lon="16.0579417"><ele>201.0</ele><time>2026-04-12T12:12:32.96Z</time></trkpt><trkpt lat="37.9976067" lon="16.0577983"><ele>201.0</ele><time>2026-04-12T12:12:33.96Z</time></trkpt><trkpt lat="37.9976183" lon="16.0576417"><ele>203.25</ele><time>2026-04-12T12:12:34.96Z</time></trkpt><trkpt lat="37.997625" lon="16.057475"><ele>205.5</ele><time>2026-04-12T12:12:35.96Z</time></trkpt><trkpt lat="37.9976217" lon="16.0573033"><ele>207.75</ele><time>2026-04-12T12:12:36.96Z</time></trkpt><trkpt lat="37.9976167" lon="16.05712"><ele>210.0</ele><time>2026-04-12T12:12:37.96Z</time></trkpt><trkpt lat="37.9976067" lon="16.056935"><ele>210.0</ele><time>2026-04-12T12:12:38.96Z</time></trkpt><trkpt lat="37.9975983" lon="16.0567617"><ele>210.0</ele><time>2026-04-12T12:12:39.96Z</time></trkpt><trkpt lat="37.9975883" lon="16.0565817"><ele>210.0</ele><time>2026-04-12T12:12:40.96Z</time></trkpt><trkpt lat="37.9975783" lon="16.0564083"><ele>210.0</ele><time>2026-04-12T12:12:41.961Z</time></trkpt><trkpt lat="37.99757" lon="16.0562417"><ele>210.0</ele><time>2026-04-12T12:12:42.959Z</time></trkpt><trkpt lat="37.9975667" lon="16.0560783"><ele>210.0</ele><time>2026-04-12T12:12:43.961Z</time></trkpt><trkpt lat="37.9975667" lon="16.055925"><ele>210.0</ele><time>2026-04-12T12:12:44.961Z</time></trkpt><trkpt lat="37.9975717" lon="16.0557817"><ele>210.0</ele><time>2026-04-12T12:12:45.96Z</time></trkpt><trkpt lat="37.997595" lon="16.0556367"><ele>210.0</ele><time>2026-04-12T12:12:46.961Z</time></trkpt><trkpt lat="37.9976417" lon="16.0554883"><ele>210.0</ele><time>2026-04-12T12:12:47.96Z</time></trkpt><trkpt lat="37.9977133" lon="16.0553517"><ele>210.0</ele><time>2026-04-12T12:12:48.96Z</time></trkpt><trkpt lat="37.997805" lon="16.0552433"><ele>210.0</ele><time>2026-04-12T12:12:49.961Z</time></trkpt><trkpt lat="37.9979083" lon="16.05514"><ele>210.0</ele><time>2026-04-12T12:12:50.96Z</time></trkpt><trkpt lat="37.99801" lon="16.0550333"><ele>210.0</ele><time>2026-04-12T12:12:51.96Z</time></trkpt><trkpt lat="37.9981017" lon="16.0549233"><ele>210.0</ele><time>2026-04-12T12:12:52.96Z</time></trkpt><trkpt lat="37.998175" lon="16.054805"><ele>210.0</ele><time>2026-04-12T12:12:53.961Z</time></trkpt><trkpt lat="37.9982267" lon="16.054665"><ele>210.0</ele><time>2026-04-12T12:12:54.961Z</time></trkpt><trkpt lat="37.99826" lon="16.0545083"><ele>210.0</ele><time>2026-04-12T12:12:55.961Z</time></trkpt><trkpt lat="37.9982717" lon="16.054335"><ele>210.0</ele><time>2026-04-12T12:12:56.961Z</time></trkpt><trkpt lat="37.99828" lon="16.05415"><ele>210.0</ele><time>2026-04-12T12:12:57.96Z</time></trkpt><trkpt lat="37.99829" lon="16.0539683"><ele>209.5</ele><time>2026-04-12T12:12:58.96Z</time></trkpt><trkpt lat="37.9982967" lon="16.0537867"><ele>209.0</ele><time>2026-04-12T12:12:59.96Z</time></trkpt><trkpt lat="37.9983" lon="16.0536"><ele>208.5</ele><time>2026-04-12T12:13:00.96Z</time></trkpt><trkpt lat="37.9983083" lon="16.0534067"><ele>208.0</ele><time>2026-04-12T12:13:01.96Z</time></trkpt><trkpt lat="37.9983183" lon="16.0532217"><ele>208.66666666666666</ele><time>2026-04-12T12:13:02.961Z</time></trkpt><trkpt lat="37.9983333" lon="16.0530367"><ele>209.33333333333331</ele><time>2026-04-12T12:13:03.96Z</time></trkpt><trkpt lat="37.9983417" lon="16.0528467"><ele>210.0</ele><time>2026-04-12T12:13:04.96Z</time></trkpt><trkpt lat="37.9983517" lon="16.0526433"><ele>213.33333333333331</ele><time>2026-04-12T12:13:05.96Z</time></trkpt><trkpt lat="37.99835" lon="16.0524367"><ele>216.66666666666666</ele><time>2026-04-12T12:13:06.96Z</time></trkpt><trkpt lat="37.9983417" lon="16.0522233"><ele>220.0</ele><time>2026-04-12T12:13:07.96Z</time></trkpt><trkpt lat="37.9983033" lon="16.0520133"><ele>220.0</ele><time>2026-04-12T12:13:08.96Z</time></trkpt><trkpt lat="37.99825" lon="16.0518183"><ele>220.0</ele><time>2026-04-12T12:13:09.96Z</time></trkpt><trkpt lat="37.998205" lon="16.0516433"><ele>220.0</ele><time>2026-04-12T12:13:10.96Z</time></trkpt><trkpt lat="37.9981633" lon="16.05148"><ele>220.0</ele><time>2026-04-12T12:13:11.961Z</time></trkpt><trkpt lat="37.9981283" lon="16.05131"><ele>221.0</ele><time>2026-04-12T12:13:12.96Z</time></trkpt><trkpt lat="37.9981067" lon="16.0511467"><ele>222.0</ele><time>2026-04-12T12:13:13.961Z</time></trkpt><trkpt lat="37.9981117" lon="16.0509967"><ele>223.0</ele><time>2026-04-12T12:13:14.961Z</time></trkpt><trkpt lat="37.998145" lon="16.0508367"><ele>224.0</ele><time>2026-04-12T12:13:15.961Z</time></trkpt><trkpt lat="37.9982017" lon="16.0506617"><ele>224.0</ele><time>2026-04-12T12:13:16.96Z</time></trkpt><trkpt lat="37.998275" lon="16.05047"><ele>224.0</ele><time>2026-04-12T12:13:17.96Z</time></trkpt><trkpt lat="37.998355" lon="16.0502617"><ele>224.0</ele><time>2026-04-12T12:13:18.96Z</time></trkpt><trkpt lat="37.99843" lon="16.0500517"><ele>227.33333333333334</ele><time>2026-04-12T12:13:19.96Z</time></trkpt><trkpt lat="37.9985083" lon="16.049835"><ele>230.66666666666669</ele><time>2026-04-12T12:13:20.961Z</time></trkpt><trkpt lat="37.9985783" lon="16.0496267"><ele>234.0</ele><time>2026-04-12T12:13:21.96Z</time></trkpt><trkpt lat="37.998655" lon="16.0494333"><ele>234.0</ele><time>2026-04-12T12:13:22.96Z</time></trkpt><trkpt lat="37.9987167" lon="16.0492583"><ele>234.0</ele><time>2026-04-12T12:13:23.96Z</time></trkpt><trkpt lat="37.9987733" lon="16.0491017"><ele>234.0</ele><time>2026-04-12T12:13:24.96Z</time></trkpt><trkpt lat="37.998805" lon="16.04895"><ele>234.0</ele><time>2026-04-12T12:13:25.961Z</time></trkpt><trkpt lat="37.9988083" lon="16.04879"><ele>233.5</ele><time>2026-04-12T12:13:26.96Z</time></trkpt><trkpt lat="37.99878" lon="16.048635"><ele>233.0</ele><time>2026-04-12T12:13:27.96Z</time></trkpt><trkpt lat="37.9987317" lon="16.0484983"><ele>232.5</ele><time>2026-04-12T12:13:28.96Z</time></trkpt><trkpt lat="37.9986717" lon="16.0483683"><ele>232.0</ele><time>2026-04-12T12:13:29.96Z</time></trkpt><trkpt lat="37.9986183" lon="16.048235"><ele>231.5</ele><time>2026-04-12T12:13:30.96Z</time></trkpt><trkpt lat="37.99858" lon="16.0480883"><ele>231.0</ele><time>2026-04-12T12:13:31.96Z</time></trkpt><trkpt lat="37.9985533" lon="16.0479317"><ele>230.5</ele><time>2026-04-12T12:13:32.96Z</time></trkpt><trkpt lat="37.9985383" lon="16.047745"><ele>230.0</ele><time>2026-04-12T12:13:33.961Z</time></trkpt><trkpt lat="37.998525" lon="16.0475633"><ele>230.6</ele><time>2026-04-12T12:13:34.961Z</time></trkpt><trkpt lat="37.9985167" lon="16.0473967"><ele>231.2</ele><time>2026-04-12T12:13:35.96Z</time></trkpt><trkpt lat="37.9985083" lon="16.047245"><ele>231.8</ele><time>2026-04-12T12:13:36.96Z</time></trkpt><trkpt lat="37.9984983" lon="16.0471167"><ele>232.4</ele><time>2026-04-12T12:13:37.96Z</time></trkpt><trkpt lat="37.9984633" lon="16.0470217"><ele>233.0</ele><time>2026-04-12T12:13:38.96Z</time></trkpt><trkpt lat="37.9984" lon="16.0469433"><ele>236.25</ele><time>2026-04-12T12:13:39.961Z</time></trkpt><trkpt lat="37.9983033" lon="16.04689"><ele>239.5</ele><time>2026-04-12T12:13:40.961Z</time></trkpt><trkpt lat="37.9981933" lon="16.04687"><ele>242.75</ele><time>2026-04-12T12:13:41.96Z</time></trkpt><trkpt lat="37.9980583" lon="16.0468783"><ele>246.0</ele><time>2026-04-12T12:13:42.96Z</time></trkpt><trkpt lat="37.9979067" lon="16.0469333"><ele>246.0</ele><time>2026-04-12T12:13:43.96Z</time></trkpt><trkpt lat="37.997765" lon="16.047"><ele>246.00000000000003</ele><time>2026-04-12T12:13:44.961Z</time></trkpt><trkpt lat="37.99764" lon="16.047045"><ele>246.00000000000003</ele><time>2026-04-12T12:13:45.96Z</time></trkpt><trkpt lat="37.9975483" lon="16.0470733"><ele>246.0</ele><time>2026-04-12T12:13:46.96Z</time></trkpt><trkpt lat="37.99748" lon="16.0470767"><ele>246.0</ele><time>2026-04-12T12:13:47.96Z</time></trkpt><trkpt lat="37.99743" lon="16.0470267"><ele>246.0</ele><time>2026-04-12T12:13:48.961Z</time></trkpt><trkpt lat="37.997415" lon="16.0469317"><ele>246.00000000000003</ele><time>2026-04-12T12:13:49.96Z</time></trkpt><trkpt lat="37.9974283" lon="16.0468383"><ele>246.00000000000003</ele><time>2026-04-12T12:13:50.96Z</time></trkpt><trkpt lat="37.9974783" lon="16.046755"><ele>246.0</ele><time>2026-04-12T12:13:51.96Z</time></trkpt><trkpt lat="37.9975717" lon="16.0466667"><ele>246.0</ele><time>2026-04-12T12:13:52.96Z</time></trkpt><trkpt lat="37.9976983" lon="16.0465583"><ele>250.66666666666669</ele><time>2026-04-12T12:13:53.96Z</time></trkpt><trkpt lat="37.9978517" lon="16.046445"><ele>255.33333333333334</ele><time>2026-04-12T12:13:54.961Z</time></trkpt><trkpt lat="37.997995" lon="16.0463333"><ele>260.0</ele><time>2026-04-12T12:13:55.961Z</time></trkpt><trkpt lat="37.998145" lon="16.0462483"><ele>260.0</ele><time>2026-04-12T12:13:56.96Z</time></trkpt><trkpt lat="37.99828" lon="16.0461833"><ele>260.0</ele><time>2026-04-12T12:13:57.96Z</time></trkpt><trkpt lat="37.9984083" lon="16.0461317"><ele>260.0</ele><time>2026-04-12T12:13:58.96Z</time></trkpt><trkpt lat="37.9985217" lon="16.0460883"><ele>260.0</ele><time>2026-04-12T12:13:59.96Z</time></trkpt><trkpt lat="37.9986117" lon="16.04604"><ele>259.4</ele><time>2026-04-12T12:14:00.96Z</time></trkpt><trkpt lat="37.9986817" lon="16.0459817"><ele>258.8</ele><time>2026-04-12T12:14:01.96Z</time></trkpt><trkpt lat="37.9987217" lon="16.045905"><ele>258.2</ele><time>2026-04-12T12:14:02.961Z</time></trkpt><trkpt lat="37.9987167" lon="16.0457983"><ele>257.6</ele><time>2026-04-12T12:14:03.96Z</time></trkpt><trkpt lat="37.998685" lon="16.04565"><ele>257.0</ele><time>2026-04-12T12:14:04.96Z</time></trkpt><trkpt lat="37.9986517" lon="16.04547"><ele>257.0</ele><time>2026-04-12T12:14:05.96Z</time></trkpt><trkpt lat="37.9986283" lon="16.0453017"><ele>257.0</ele><time>2026-04-12T12:14:06.961Z</time></trkpt><trkpt lat="37.99861" lon="16.0451533"><ele>257.0</ele><time>2026-04-12T12:14:07.96Z</time></trkpt><trkpt lat="37.9986117" lon="16.0450317"><ele>257.0</ele><time>2026-04-12T12:14:08.96Z</time></trkpt><trkpt lat="37.9986267" lon="16.044925"><ele>257.0</ele><time>2026-04-12T12:14:09.96Z</time></trkpt><trkpt lat="37.9986583" lon="16.0448317"><ele>260.8</ele><time>2026-04-12T12:14:10.961Z</time></trkpt><trkpt lat="37.99873" lon="16.044765"><ele>264.6</ele><time>2026-04-12T12:14:11.96Z</time></trkpt><trkpt lat="37.9988283" lon="16.0447117"><ele>268.40000000000003</ele><time>2026-04-12T12:14:12.96Z</time></trkpt><trkpt lat="37.998925" lon="16.0446533"><ele>272.2</ele><time>2026-04-12T12:14:13.96Z</time></trkpt><trkpt lat="37.9989983" lon="16.0445967"><ele>276.0</ele><time>2026-04-12T12:14:14.961Z</time></trkpt><trkpt lat="37.999045" lon="16.0445333"><ele>276.0</ele><time>2026-04-12T12:14:15.96Z</time></trkpt><trkpt lat="37.9989967" lon="16.0444217"><ele>276.0</ele><time>2026-04-12T12:14:17.96Z</time></trkpt><trkpt lat="37.9989167" lon="16.044415"><ele>276.0</ele><time>2026-04-12T12:14:18.96Z</time></trkpt><trkpt lat="37.9987883" lon="16.0444567"><ele>276.0</ele><time>2026-04-12T12:14:19.96Z</time></trkpt><trkpt lat="37.9986267" lon="16.0445117"><ele>276.0</ele><time>2026-04-12T12:14:20.96Z</time></trkpt><trkpt lat="37.9984617" lon="16.04456"><ele>276.0</ele><time>2026-04-12T12:14:21.96Z</time></trkpt><trkpt lat="37.9983033" lon="16.0446167"><ele>276.0</ele><time>2026-04-12T12:14:22.96Z</time></trkpt><trkpt lat="37.9981717" lon="16.0446833"><ele>277.25</ele><time>2026-04-12T12:14:23.96Z</time></trkpt><trkpt lat="37.9980583" lon="16.0447417"><ele>278.5</ele><time>2026-04-12T12:14:24.96Z</time></trkpt><trkpt lat="37.9979583" lon="16.044785"><ele>279.75</ele><time>2026-04-12T12:14:25.96Z</time></trkpt><trkpt lat="37.99785" lon="16.0447883"><ele>281.0</ele><time>2026-04-12T12:14:26.96Z</time></trkpt><trkpt lat="37.997715" lon="16.0447683"><ele>281.0</ele><time>2026-04-12T12:14:27.96Z</time></trkpt><trkpt lat="37.99755" lon="16.044715"><ele>281.0</ele><time>2026-04-12T12:14:28.961Z</time></trkpt><trkpt lat="37.9974133" lon="16.0446767"><ele>281.0</ele><time>2026-04-12T12:14:29.96Z</time></trkpt><trkpt lat="37.9973" lon="16.0446433"><ele>281.0</ele><time>2026-04-12T12:14:30.961Z</time></trkpt><trkpt lat="37.997205" lon="16.044615"><ele>281.6</ele><time>2026-04-12T12:14:31.96Z</time></trkpt><trkpt lat="37.99713" lon="16.044575"><ele>282.20000000000005</ele><time>2026-04-12T12:14:32.96Z</time></trkpt><trkpt lat="37.997085" lon="16.0445133"><ele>282.79999999999995</ele><time>2026-04-12T12:14:33.96Z</time></trkpt><trkpt lat="37.9971067" lon="16.044375"><ele>283.4</ele><time>2026-04-12T12:14:35.961Z</time></trkpt><trkpt lat="37.99723" lon="16.0443033"><ele>284.0</ele><time>2026-04-12T12:14:37.96Z</time></trkpt><trkpt lat="37.997345" lon="16.04431"><ele>284.0</ele><time>2026-04-12T12:14:38.96Z</time></trkpt><trkpt lat="37.9974733" lon="16.0443283"><ele>284.0</ele><time>2026-04-12T12:14:39.96Z</time></trkpt><trkpt lat="37.9975917" lon="16.04435"><ele>284.0</ele><time>2026-04-12T12:14:40.96Z</time></trkpt><trkpt lat="37.9976917" lon="16.0443817"><ele>284.0</ele><time>2026-04-12T12:14:41.96Z</time></trkpt><trkpt lat="37.997785" lon="16.04441"><ele>284.0</ele><time>2026-04-12T12:14:42.96Z</time></trkpt><trkpt lat="37.9978617" lon="16.0444483"><ele>283.4</ele><time>2026-04-12T12:14:43.96Z</time></trkpt><trkpt lat="37.9979333" lon="16.04446"><ele>282.79999999999995</ele><time>2026-04-12T12:14:44.96Z</time></trkpt><trkpt lat="37.99801" lon="16.0443567"><ele>282.20000000000005</ele><time>2026-04-12T12:14:46.961Z</time></trkpt><trkpt lat="37.998015" lon="16.0442517"><ele>281.6</ele><time>2026-04-12T12:14:47.96Z</time></trkpt><trkpt lat="37.9980067" lon="16.0441133"><ele>281.0</ele><time>2026-04-12T12:14:48.961Z</time></trkpt><trkpt lat="37.997995" lon="16.043965"><ele>283.75</ele><time>2026-04-12T12:14:49.961Z</time></trkpt><trkpt lat="37.9979867" lon="16.0438217"><ele>286.5</ele><time>2026-04-12T12:14:50.96Z</time></trkpt><trkpt lat="37.9979783" lon="16.04367"><ele>289.25</ele><time>2026-04-12T12:14:51.961Z</time></trkpt><trkpt lat="37.9979617" lon="16.04351"><ele>292.0</ele><time>2026-04-12T12:14:52.96Z</time></trkpt><trkpt lat="37.9979283" lon="16.043345"><ele>293.75</ele><time>2026-04-12T12:14:53.96Z</time></trkpt><trkpt lat="37.9978867" lon="16.0431783"><ele>295.5</ele><time>2026-04-12T12:14:54.96Z</time></trkpt><trkpt lat="37.9978417" lon="16.0430167"><ele>297.25</ele><time>2026-04-12T12:14:55.961Z</time></trkpt><trkpt lat="37.9977917" lon="16.0428817"><ele>299.0</ele><time>2026-04-12T12:14:56.961Z</time></trkpt><trkpt lat="37.9977283" lon="16.042765"><ele>299.0</ele><time>2026-04-12T12:14:57.961Z</time></trkpt><trkpt lat="37.9976517" lon="16.042665"><ele>299.0</ele><time>2026-04-12T12:14:58.96Z</time></trkpt><trkpt lat="37.9975467" lon="16.04259"><ele>299.0</ele><time>2026-04-12T12:14:59.961Z</time></trkpt><trkpt lat="37.9974217" lon="16.0425533"><ele>299.0</ele><time>2026-04-12T12:15:00.96Z</time></trkpt><trkpt lat="37.9972767" lon="16.0425767"><ele>299.8</ele><time>2026-04-12T12:15:01.961Z</time></trkpt><trkpt lat="37.997145" lon="16.04263"><ele>300.59999999999997</ele><time>2026-04-12T12:15:02.96Z</time></trkpt><trkpt lat="37.99704" lon="16.0426717"><ele>301.4</ele><time>2026-04-12T12:15:03.96Z</time></trkpt><trkpt lat="37.9969517" lon="16.0426967"><ele>302.2</ele><time>2026-04-12T12:15:04.96Z</time></trkpt><trkpt lat="37.99687" lon="16.0426967"><ele>303.0</ele><time>2026-04-12T12:15:05.96Z</time></trkpt><trkpt lat="37.996805" lon="16.0426683"><ele>303.0</ele><time>2026-04-12T12:15:06.96Z</time></trkpt><trkpt lat="37.9967583" lon="16.0425967"><ele>303.0</ele><time>2026-04-12T12:15:07.96Z</time></trkpt><trkpt lat="37.9967533" lon="16.042515"><ele>303.0</ele><time>2026-04-12T12:15:08.96Z</time></trkpt><trkpt lat="37.9967833" lon="16.0424333"><ele>303.0</ele><time>2026-04-12T12:15:09.96Z</time></trkpt><trkpt lat="37.996855" lon="16.042355"><ele>303.0</ele><time>2026-04-12T12:15:10.96Z</time></trkpt><trkpt lat="37.9969533" lon="16.0422783"><ele>303.0</ele><time>2026-04-12T12:15:11.961Z</time></trkpt><trkpt lat="37.99708" lon="16.0422"><ele>305.0</ele><time>2026-04-12T12:15:12.961Z</time></trkpt><trkpt lat="37.9972317" lon="16.0421217"><ele>307.0</ele><time>2026-04-12T12:15:13.96Z</time></trkpt><trkpt lat="37.997375" lon="16.0420383"><ele>309.0</ele><time>2026-04-12T12:15:14.961Z</time></trkpt><trkpt lat="37.997515" lon="16.0419633"><ele>309.0</ele><time>2026-04-12T12:15:15.96Z</time></trkpt><trkpt lat="37.997625" lon="16.0418983"><ele>309.0</ele><time>2026-04-12T12:15:16.96Z</time></trkpt><trkpt lat="37.9977283" lon="16.0418317"><ele>309.0</ele><time>2026-04-12T12:15:17.96Z</time></trkpt><trkpt lat="37.99782" lon="16.0417517"><ele>309.0</ele><time>2026-04-12T12:15:18.96Z</time></trkpt><trkpt lat="37.9979067" lon="16.041655"><ele>314.0</ele><time>2026-04-12T12:15:19.96Z</time></trkpt><trkpt lat="37.9979733" lon="16.0415383"><ele>319.0</ele><time>2026-04-12T12:15:20.96Z</time></trkpt><trkpt lat="37.99803" lon="16.0414033"><ele>324.0</ele><time>2026-04-12T12:15:21.96Z</time></trkpt><trkpt lat="37.9980933" lon="16.041255"><ele>329.0</ele><time>2026-04-12T12:15:22.961Z</time></trkpt><trkpt lat="37.998175" lon="16.0410883"><ele>329.0</ele><time>2026-04-12T12:15:23.96Z</time></trkpt><trkpt lat="37.9982483" lon="16.040945"><ele>329.0</ele><time>2026-04-12T12:15:24.96Z</time></trkpt><trkpt lat="37.9983217" lon="16.0408317"><ele>329.0</ele><time>2026-04-12T12:15:25.96Z</time></trkpt><trkpt lat="37.998395" lon="16.0407517"><ele>329.0</ele><time>2026-04-12T12:15:26.96Z</time></trkpt><trkpt lat="37.9984883" lon="16.0406967"><ele>342.0</ele><time>2026-04-12T12:15:27.961Z</time></trkpt><trkpt lat="37.9985967" lon="16.040645"><ele>355.0</ele><time>2026-04-12T12:15:28.96Z</time></trkpt><trkpt lat="37.998725" lon="16.040645"><ele>368.0</ele><time>2026-04-12T12:15:29.96Z</time></trkpt><trkpt lat="37.9988467" lon="16.0406667"><ele>381.0</ele><time>2026-04-12T12:15:30.961Z</time></trkpt><trkpt lat="37.9989817" lon="16.0407217"><ele>381.0</ele><time>2026-04-12T12:15:31.96Z</time></trkpt><trkpt lat="37.9991317" lon="16.0407567"><ele>381.0</ele><time>2026-04-12T12:15:32.96Z</time></trkpt><trkpt lat="37.9992983" lon="16.0407933"><ele>381.0</ele><time>2026-04-12T12:15:33.96Z</time></trkpt><trkpt lat="37.9994583" lon="16.0408267"><ele>382.8</ele><time>2026-04-12T12:15:34.96Z</time></trkpt><trkpt lat="37.9995867" lon="16.0408483"><ele>384.6</ele><time>2026-04-12T12:15:35.96Z</time></trkpt><trkpt lat="37.999685" lon="16.0408767"><ele>386.4</ele><time>2026-04-12T12:15:36.96Z</time></trkpt><trkpt lat="37.999765" lon="16.04087"><ele>388.2</ele><time>2026-04-12T12:15:37.96Z</time></trkpt><trkpt lat="37.999825" lon="16.0407533"><ele>390.0</ele><time>2026-04-12T12:15:39.96Z</time></trkpt><trkpt lat="37.9997917" lon="16.0406833"><ele>390.0</ele><time>2026-04-12T12:15:40.961Z</time></trkpt><trkpt lat="37.9997083" lon="16.0406217"><ele>390.0</ele><time>2026-04-12T12:15:41.96Z</time></trkpt><trkpt lat="37.9995883" lon="16.0405883"><ele>390.0</ele><time>2026-04-12T12:15:42.96Z</time></trkpt><trkpt lat="37.9994533" lon="16.0405917"><ele>390.0</ele><time>2026-04-12T12:15:43.96Z</time></trkpt><trkpt lat="37.9993283" lon="16.04062"><ele>390.0</ele><time>2026-04-12T12:15:44.96Z</time></trkpt><trkpt lat="37.9992117" lon="16.0406317"><ele>390.0</ele><time>2026-04-12T12:15:45.96Z</time></trkpt><trkpt lat="37.9991083" lon="16.040595"><ele>390.0</ele><time>2026-04-12T12:15:46.96Z</time></trkpt><trkpt lat="37.9990133" lon="16.0405467"><ele>390.0</ele><time>2026-04-12T12:15:47.96Z</time></trkpt><trkpt lat="37.9989067" lon="16.040495"><ele>390.0</ele><time>2026-04-12T12:15:48.96Z</time></trkpt><trkpt lat="37.9987783" lon="16.0404517"><ele>387.75</ele><time>2026-04-12T12:15:49.961Z</time></trkpt><trkpt lat="37.9986217" lon="16.040425"><ele>385.5</ele><time>2026-04-12T12:15:50.96Z</time></trkpt><trkpt lat="37.9984767" lon="16.040405"><ele>383.25</ele><time>2026-04-12T12:15:51.961Z</time></trkpt><trkpt lat="37.9983417" lon="16.0403933"><ele>381.0</ele><time>2026-04-12T12:15:52.96Z</time></trkpt><trkpt lat="37.9982133" lon="16.0403633"><ele>377.5</ele><time>2026-04-12T12:15:53.961Z</time></trkpt><trkpt lat="37.9980983" lon="16.0403133"><ele>374.0</ele><time>2026-04-12T12:15:54.961Z</time></trkpt><trkpt lat="37.99799" lon="16.0402533"><ele>370.5</ele><time>2026-04-12T12:15:55.961Z</time></trkpt><trkpt lat="37.99789" lon="16.0401817"><ele>367.0</ele><time>2026-04-12T12:15:56.96Z</time></trkpt><trkpt lat="37.9977817" lon="16.0400883"><ele>364.75</ele><time>2026-04-12T12:15:57.961Z</time></trkpt><trkpt lat="37.9976883" lon="16.0399317"><ele>362.5</ele><time>2026-04-12T12:15:58.96Z</time></trkpt><trkpt lat="37.9976" lon="16.0398167"><ele>360.25</ele><time>2026-04-12T12:15:59.96Z</time></trkpt><trkpt lat="37.99753" lon="16.0396867"><ele>358.0</ele><time>2026-04-12T12:16:00.96Z</time></trkpt><trkpt lat="37.9974633" lon="16.0395717"><ele>358.0</ele><time>2026-04-12T12:16:01.96Z</time></trkpt><trkpt lat="37.9974233" lon="16.0394517"><ele>358.0</ele><time>2026-04-12T12:16:02.96Z</time></trkpt><trkpt lat="37.9974083" lon="16.0393367"><ele>358.0</ele><time>2026-04-12T12:16:03.961Z</time></trkpt><trkpt lat="37.9974217" lon="16.0392317"><ele>358.0</ele><time>2026-04-12T12:16:04.96Z</time></trkpt><trkpt lat="37.9974467" lon="16.039135"><ele>358.0</ele><time>2026-04-12T12:16:05.96Z</time></trkpt><trkpt lat="37.9975217" lon="16.0390483"><ele>367.0</ele><time>2026-04-12T12:16:06.96Z</time></trkpt><trkpt lat="37.99761" lon="16.0389417"><ele>376.0</ele><time>2026-04-12T12:16:07.96Z</time></trkpt><trkpt lat="37.9976983" lon="16.0388433"><ele>385.0</ele><time>2026-04-12T12:16:08.96Z</time></trkpt><trkpt lat="37.997755" lon="16.03872"><ele>394.0</ele><time>2026-04-12T12:16:09.961Z</time></trkpt><trkpt lat="37.997795" lon="16.0386017"><ele>394.0</ele><time>2026-04-12T12:16:10.96Z</time></trkpt><trkpt lat="37.9978233" lon="16.0385"><ele>394.0</ele><time>2026-04-12T12:16:11.961Z</time></trkpt><trkpt lat="37.9978517" lon="16.038425"><ele>394.0</ele><time>2026-04-12T12:16:12.96Z</time></trkpt><trkpt lat="37.9979383" lon="16.0384217"><ele>394.0</ele><time>2026-04-12T12:16:14.96Z</time></trkpt><trkpt lat="37.997935" lon="16.038575"><ele>394.0</ele><time>2026-04-12T12:16:16.961Z</time></trkpt><trkpt lat="37.99788" lon="16.0387033"><ele>394.0</ele><time>2026-04-12T12:16:17.96Z</time></trkpt><trkpt lat="37.9977983" lon="16.0388617"><ele>394.0</ele><time>2026-04-12T12:16:18.96Z</time></trkpt><trkpt lat="37.997715" lon="16.0390233"><ele>394.0</ele><time>2026-04-12T12:16:19.96Z</time></trkpt><trkpt lat="37.997655" lon="16.03916"><ele>394.0</ele><time>2026-04-12T12:16:20.961Z</time></trkpt><trkpt lat="37.9976233" lon="16.0392717"><ele>394.0</ele><time>2026-04-12T12:16:21.961Z</time></trkpt><trkpt lat="37.9976117" lon="16.03936"><ele>394.0</ele><time>2026-04-12T12:16:22.961Z</time></trkpt><trkpt lat="37.9976367" lon="16.03945"><ele>394.0</ele><time>2026-04-12T12:16:23.96Z</time></trkpt><trkpt lat="37.9977067" lon="16.0395217"><ele>394.0</ele><time>2026-04-12T12:16:24.96Z</time></trkpt><trkpt lat="37.9978017" lon="16.03958"><ele>394.0</ele><time>2026-04-12T12:16:25.96Z</time></trkpt><trkpt lat="37.9978983" lon="16.0396517"><ele>394.0</ele><time>2026-04-12T12:16:26.961Z</time></trkpt><trkpt lat="37.9979683" lon="16.0397567"><ele>394.0</ele><time>2026-04-12T12:16:27.96Z</time></trkpt><trkpt lat="37.99803" lon="16.0398483"><ele>394.0</ele><time>2026-04-12T12:16:28.96Z</time></trkpt><trkpt lat="37.9980833" lon="16.0399217"><ele>394.0</ele><time>2026-04-12T12:16:29.96Z</time></trkpt><trkpt lat="37.99816" lon="16.039965"><ele>394.0</ele><time>2026-04-12T12:16:30.96Z</time></trkpt><trkpt lat="37.9982517" lon="16.03996"><ele>401.0</ele><time>2026-04-12T12:16:31.961Z</time></trkpt><trkpt lat="37.9983633" lon="16.0399333"><ele>408.0</ele><time>2026-04-12T12:16:32.961Z</time></trkpt><trkpt lat="37.99848" lon="16.0399183"><ele>415.0</ele><time>2026-04-12T12:16:33.96Z</time></trkpt><trkpt lat="37.9985967" lon="16.0399233"><ele>422.0</ele><time>2026-04-12T12:16:34.96Z</time></trkpt><trkpt lat="37.9987167" lon="16.0399617"><ele>414.0</ele><time>2026-04-12T12:16:35.961Z</time></trkpt><trkpt lat="37.9988333" lon="16.040025"><ele>406.0</ele><time>2026-04-12T12:16:36.96Z</time></trkpt><trkpt lat="37.9989533" lon="16.04005"><ele>398.0</ele><time>2026-04-12T12:16:37.961Z</time></trkpt><trkpt lat="37.9990917" lon="16.0400483"><ele>390.0</ele><time>2026-04-12T12:16:38.96Z</time></trkpt><trkpt lat="37.9992383" lon="16.04003"><ele>390.0</ele><time>2026-04-12T12:16:39.96Z</time></trkpt><trkpt lat="37.999375" lon="16.0400133"><ele>390.0</ele><time>2026-04-12T12:16:40.96Z</time></trkpt><trkpt lat="37.999505" lon="16.040015"><ele>390.0</ele><time>2026-04-12T12:16:41.96Z</time></trkpt><trkpt lat="37.9996367" lon="16.0400417"><ele>390.0</ele><time>2026-04-12T12:16:42.96Z</time></trkpt><trkpt lat="37.999765" lon="16.0400783"><ele>390.0</ele><time>2026-04-12T12:16:43.96Z</time></trkpt><trkpt lat="37.999875" lon="16.040115"><ele>390.0</ele><time>2026-04-12T12:16:44.96Z</time></trkpt><trkpt lat="37.999965" lon="16.0401217"><ele>390.0</ele><time>2026-04-12T12:16:45.96Z</time></trkpt><trkpt lat="38.0000317" lon="16.0400867"><ele>390.0</ele><time>2026-04-12T12:16:46.96Z</time></trkpt><trkpt lat="38.0000783" lon="16.0400183"><ele>390.0</ele><time>2026-04-12T12:16:47.96Z</time></trkpt><trkpt lat="38.000125" lon="16.0399117"><ele>390.0</ele><time>2026-04-12T12:16:48.96Z</time></trkpt><trkpt lat="38.0001683" lon="16.0397517"><ele>395.75</ele><time>2026-04-12T12:16:49.96Z</time></trkpt><trkpt lat="38.000225" lon="16.0395917"><ele>401.5</ele><time>2026-04-12T12:16:50.96Z</time></trkpt><trkpt lat="38.0002933" lon="16.0394267"><ele>407.25</ele><time>2026-04-12T12:16:51.961Z</time></trkpt><trkpt lat="38.000335" lon="16.0393483"><ele>413.0</ele><time>2026-04-12T12:16:52.96Z</time></trkpt><trkpt lat="38.0004433" lon="16.0393033"><ele>413.0</ele><time>2026-04-12T12:16:54.961Z</time></trkpt><trkpt lat="38.0005217" lon="16.039325"><ele>413.0</ele><time>2026-04-12T12:16:55.961Z</time></trkpt><trkpt lat="38.0005917" lon="16.03936"><ele>413.0</ele><time>2026-04-12T12:16:56.96Z</time></trkpt><trkpt lat="38.000695" lon="16.0393917"><ele>413.0</ele><time>2026-04-12T12:16:57.96Z</time></trkpt><trkpt lat="38.0008167" lon="16.0394067"><ele>413.0</ele><time>2026-04-12T12:16:58.96Z</time></trkpt><trkpt lat="38.000945" lon="16.039415"><ele>411.79999999999995</ele><time>2026-04-12T12:16:59.96Z</time></trkpt><trkpt lat="38.0010633" lon="16.039435"><ele>410.6</ele><time>2026-04-12T12:17:00.96Z</time></trkpt><trkpt lat="38.0011583" lon="16.0394583"><ele>409.4</ele><time>2026-04-12T12:17:01.96Z</time></trkpt><trkpt lat="38.0012383" lon="16.0394667"><ele>408.20000000000005</ele><time>2026-04-12T12:17:02.96Z</time></trkpt><trkpt lat="38.00131" lon="16.0393533"><ele>407.0</ele><time>2026-04-12T12:17:04.96Z</time></trkpt><trkpt lat="38.0012867" lon="16.039275"><ele>407.0</ele><time>2026-04-12T12:17:05.96Z</time></trkpt><trkpt lat="38.0012067" lon="16.0392183"><ele>407.0</ele><time>2026-04-12T12:17:06.96Z</time></trkpt><trkpt lat="38.001085" lon="16.0391933"><ele>407.0</ele><time>2026-04-12T12:17:07.96Z</time></trkpt><trkpt lat="38.0009633" lon="16.0391783"><ele>407.0</ele><time>2026-04-12T12:17:08.96Z</time></trkpt><trkpt lat="38.00086" lon="16.03915"><ele>407.0</ele><time>2026-04-12T12:17:09.96Z</time></trkpt><trkpt lat="38.0007833" lon="16.0391117"><ele>412.6</ele><time>2026-04-12T12:17:10.96Z</time></trkpt><trkpt lat="38.0007667" lon="16.0390233"><ele>418.20000000000005</ele><time>2026-04-12T12:17:11.96Z</time></trkpt><trkpt lat="38.00076" lon="16.038905"><ele>423.8</ele><time>2026-04-12T12:17:12.96Z</time></trkpt><trkpt lat="38.000765" lon="16.0387567"><ele>429.4</ele><time>2026-04-12T12:17:13.961Z</time></trkpt><trkpt lat="38.0007633" lon="16.0386117"><ele>435.0</ele><time>2026-04-12T12:17:14.961Z</time></trkpt><trkpt lat="38.0007567" lon="16.0384833"><ele>435.0</ele><time>2026-04-12T12:17:15.96Z</time></trkpt><trkpt lat="38.00074" lon="16.038375"><ele>435.0</ele><time>2026-04-12T12:17:16.96Z</time></trkpt><trkpt lat="38.000705" lon="16.03828"><ele>435.0</ele><time>2026-04-12T12:17:17.96Z</time></trkpt><trkpt lat="38.0006433" lon="16.0382267"><ele>435.0</ele><time>2026-04-12T12:17:18.96Z</time></trkpt><trkpt lat="38.0005767" lon="16.0382267"><ele>435.0</ele><time>2026-04-12T12:17:19.961Z</time></trkpt><trkpt lat="38.0005067" lon="16.0382817"><ele>435.0</ele><time>2026-04-12T12:17:20.96Z</time></trkpt><trkpt lat="38.0004433" lon="16.0383833"><ele>435.0</ele><time>2026-04-12T12:17:21.96Z</time></trkpt><trkpt lat="38.0004067" lon="16.03851"><ele>435.0</ele><time>2026-04-12T12:17:22.96Z</time></trkpt><trkpt lat="38.000375" lon="16.03863"><ele>435.0</ele><time>2026-04-12T12:17:23.96Z</time></trkpt><trkpt lat="38.0003367" lon="16.0387167"><ele>435.0</ele><time>2026-04-12T12:17:24.96Z</time></trkpt><trkpt lat="38.000265" lon="16.0387933"><ele>435.0</ele><time>2026-04-12T12:17:25.96Z</time></trkpt><trkpt lat="38.0001733" lon="16.0388633"><ele>435.0</ele><time>2026-04-12T12:17:26.96Z</time></trkpt><trkpt lat="38.0000783" lon="16.0389333"><ele>435.0</ele><time>2026-04-12T12:17:27.96Z</time></trkpt><trkpt lat="37.999975" lon="16.0389983"><ele>435.0</ele><time>2026-04-12T12:17:28.96Z</time></trkpt><trkpt lat="37.99987" lon="16.039025"><ele>435.0</ele><time>2026-04-12T12:17:29.96Z</time></trkpt><trkpt lat="37.9997733" lon="16.039025"><ele>435.0</ele><time>2026-04-12T12:17:30.96Z</time></trkpt><trkpt lat="37.9996967" lon="16.0390667"><ele>431.3333333333333</ele><time>2026-04-12T12:17:31.961Z</time></trkpt><trkpt lat="37.99965" lon="16.0391367"><ele>427.66666666666663</ele><time>2026-04-12T12:17:32.96Z</time></trkpt><trkpt lat="37.9996083" lon="16.03921"><ele>424.0</ele><time>2026-04-12T12:17:33.96Z</time></trkpt><trkpt lat="37.9995533" lon="16.0392567"><ele>420.3333333333333</ele><time>2026-04-12T12:17:34.96Z</time></trkpt><trkpt lat="37.9994617" lon="16.0392583"><ele>416.66666666666663</ele><time>2026-04-12T12:17:35.961Z</time></trkpt><trkpt lat="37.9993417" lon="16.03925"><ele>413.0</ele><time>2026-04-12T12:17:36.96Z</time></trkpt><trkpt lat="37.999205" lon="16.0392417"><ele>414.79999999999995</ele><time>2026-04-12T12:17:37.96Z</time></trkpt><trkpt lat="37.99908" lon="16.0392367"><ele>416.6</ele><time>2026-04-12T12:17:38.961Z</time></trkpt><trkpt lat="37.9989717" lon="16.039235"><ele>418.4</ele><time>2026-04-12T12:17:39.96Z</time></trkpt><trkpt lat="37.9988833" lon="16.0392117"><ele>420.20000000000005</ele><time>2026-04-12T12:17:40.96Z</time></trkpt><trkpt lat="37.99882" lon="16.039165"><ele>422.0</ele><time>2026-04-12T12:17:41.96Z</time></trkpt><trkpt lat="37.998815" lon="16.03906"><ele>424.6</ele><time>2026-04-12T12:17:43.96Z</time></trkpt><trkpt lat="37.998905" lon="16.0390067"><ele>427.20000000000005</ele><time>2026-04-12T12:17:45.96Z</time></trkpt><trkpt lat="37.9990033" lon="16.0390167"><ele>429.8</ele><time>2026-04-12T12:17:46.96Z</time></trkpt><trkpt lat="37.9991133" lon="16.0390183"><ele>432.4</ele><time>2026-04-12T12:17:47.96Z</time></trkpt><trkpt lat="37.9992317" lon="16.0389917"><ele>435.0</ele><time>2026-04-12T12:17:48.96Z</time></trkpt><trkpt lat="37.9993533" lon="16.0389417"><ele>435.0</ele><time>2026-04-12T12:17:49.957Z</time></trkpt><trkpt lat="37.9994817" lon="16.0388483"><ele>435.0</ele><time>2026-04-12T12:17:50.96Z</time></trkpt><trkpt lat="37.9996083" lon="16.0387433"><ele>435.0</ele><time>2026-04-12T12:17:51.96Z</time></trkpt><trkpt lat="37.9997083" lon="16.038645"><ele>435.0</ele><time>2026-04-12T12:17:52.961Z</time></trkpt><trkpt lat="37.9997883" lon="16.0385283"><ele>435.0</ele><time>2026-04-12T12:17:53.96Z</time></trkpt><trkpt lat="37.999865" lon="16.03841"><ele>435.0</ele><time>2026-04-12T12:17:54.96Z</time></trkpt><trkpt lat="37.9999267" lon="16.0382967"><ele>435.0</ele><time>2026-04-12T12:17:55.96Z</time></trkpt><trkpt lat="37.9999733" lon="16.0381983"><ele>435.0</ele><time>2026-04-12T12:17:56.96Z</time></trkpt><trkpt lat="37.9999933" lon="16.0381183"><ele>435.0</ele><time>2026-04-12T12:17:57.96Z</time></trkpt><trkpt lat="37.99993" lon="16.0380033"><ele>435.0</ele><time>2026-04-12T12:17:59.961Z</time></trkpt><trkpt lat="37.9998683" lon="16.0380233"><ele>435.0</ele><time>2026-04-12T12:18:00.96Z</time></trkpt><trkpt lat="37.9998133" lon="16.0380917"><ele>435.0</ele><time>2026-04-12T12:18:01.96Z</time></trkpt><trkpt lat="37.9997517" lon="16.038225"><ele>435.0</ele><time>2026-04-12T12:18:02.961Z</time></trkpt><trkpt lat="37.9996733" lon="16.038345"><ele>435.0</ele><time>2026-04-12T12:18:03.96Z</time></trkpt><trkpt lat="37.9995883" lon="16.038425"><ele>435.0</ele><time>2026-04-12T12:18:04.96Z</time></trkpt><trkpt lat="37.9994867" lon="16.03847"><ele>435.0</ele><time>2026-04-12T12:18:05.96Z</time></trkpt><trkpt lat="37.9993967" lon="16.0384933"><ele>435.0</ele><time>2026-04-12T12:18:06.96Z</time></trkpt><trkpt lat="37.9993283" lon="16.038495"><ele>435.0</ele><time>2026-04-12T12:18:07.96Z</time></trkpt><trkpt lat="37.9992783" lon="16.038445"><ele>435.0</ele><time>2026-04-12T12:18:08.96Z</time></trkpt><trkpt lat="37.99924" lon="16.0383567"><ele>435.0</ele><time>2026-04-12T12:18:09.961Z</time></trkpt><trkpt lat="37.99919" lon="16.0382383"><ele>440.0</ele><time>2026-04-12T12:18:10.961Z</time></trkpt><trkpt lat="37.9991267" lon="16.038085"><ele>445.0</ele><time>2026-04-12T12:18:11.96Z</time></trkpt><trkpt lat="37.9990617" lon="16.0379117"><ele>450.0</ele><time>2026-04-12T12:18:12.96Z</time></trkpt><trkpt lat="37.99901" lon="16.03775"><ele>455.0</ele><time>2026-04-12T12:18:13.96Z</time></trkpt><trkpt lat="37.9989667" lon="16.037575"><ele>457.0</ele><time>2026-04-12T12:18:14.96Z</time></trkpt><trkpt lat="37.9989367" lon="16.0374"><ele>459.0</ele><time>2026-04-12T12:18:15.96Z</time></trkpt><trkpt lat="37.9989183" lon="16.0372367"><ele>461.0</ele><time>2026-04-12T12:18:16.96Z</time></trkpt><trkpt lat="37.9989083" lon="16.0370833"><ele>463.0</ele><time>2026-04-12T12:18:17.96Z</time></trkpt><trkpt lat="37.9989167" lon="16.036925"><ele>463.0</ele><time>2026-04-12T12:18:18.961Z</time></trkpt><trkpt lat="37.9989033" lon="16.036745"><ele>463.0</ele><time>2026-04-12T12:18:19.96Z</time></trkpt><trkpt lat="37.9988817" lon="16.0365733"><ele>463.0</ele><time>2026-04-12T12:18:20.96Z</time></trkpt><trkpt lat="37.9988633" lon="16.036395"><ele>463.0</ele><time>2026-04-12T12:18:21.96Z</time></trkpt><trkpt lat="37.99886" lon="16.0362367"><ele>465.4</ele><time>2026-04-12T12:18:22.96Z</time></trkpt><trkpt lat="37.9988667" lon="16.036115"><ele>467.79999999999995</ele><time>2026-04-12T12:18:23.96Z</time></trkpt><trkpt lat="37.9988883" lon="16.0360367"><ele>470.2</ele><time>2026-04-12T12:18:24.96Z</time></trkpt><trkpt lat="37.9989767" lon="16.0360033"><ele>472.6</ele><time>2026-04-12T12:18:26.96Z</time></trkpt><trkpt lat="37.9990117" lon="16.03616"><ele>475.0</ele><time>2026-04-12T12:18:28.96Z</time></trkpt><trkpt lat="37.9990133" lon="16.0363017"><ele>475.0</ele><time>2026-04-12T12:18:29.96Z</time></trkpt><trkpt lat="37.9990183" lon="16.0364917"><ele>475.0</ele><time>2026-04-12T12:18:30.96Z</time></trkpt><trkpt lat="37.9990233" lon="16.036685"><ele>475.0</ele><time>2026-04-12T12:18:31.961Z</time></trkpt><trkpt lat="37.9990383" lon="16.0368533"><ele>475.0</ele><time>2026-04-12T12:18:32.96Z</time></trkpt><trkpt lat="37.9990617" lon="16.0370083"><ele>473.2</ele><time>2026-04-12T12:18:33.96Z</time></trkpt><trkpt lat="37.99909" lon="16.03714"><ele>471.4</ele><time>2026-04-12T12:18:34.96Z</time></trkpt><trkpt lat="37.9991217" lon="16.0372533"><ele>469.6</ele><time>2026-04-12T12:18:35.961Z</time></trkpt><trkpt lat="37.9991667" lon="16.037335"><ele>467.8</ele><time>2026-04-12T12:18:36.96Z</time></trkpt><trkpt lat="37.99922" lon="16.0373983"><ele>466.0</ele><time>2026-04-12T12:18:37.96Z</time></trkpt><trkpt lat="37.9993283" lon="16.0373367"><ele>466.0</ele><time>2026-04-12T12:18:39.96Z</time></trkpt><trkpt lat="37.9993617" lon="16.0372367"><ele>466.0</ele><time>2026-04-12T12:18:40.961Z</time></trkpt><trkpt lat="37.9993917" lon="16.0371083"><ele>466.0</ele><time>2026-04-12T12:18:41.96Z</time></trkpt><trkpt lat="37.9994033" lon="16.0369467"><ele>466.0</ele><time>2026-04-12T12:18:42.96Z</time></trkpt><trkpt lat="37.9994117" lon="16.03678"><ele>472.75</ele><time>2026-04-12T12:18:43.96Z</time></trkpt><trkpt lat="37.9994217" lon="16.036625"><ele>479.5</ele><time>2026-04-12T12:18:44.96Z</time></trkpt><trkpt lat="37.999425" lon="16.0364617"><ele>486.25</ele><time>2026-04-12T12:18:45.96Z</time></trkpt><trkpt lat="37.9994067" lon="16.0362967"><ele>493.0</ele><time>2026-04-12T12:18:46.96Z</time></trkpt><trkpt lat="37.9993717" lon="16.0361283"><ele>493.0</ele><time>2026-04-12T12:18:47.96Z</time></trkpt><trkpt lat="37.9993117" lon="16.0359483"><ele>493.0</ele><time>2026-04-12T12:18:48.96Z</time></trkpt><trkpt lat="37.999245" lon="16.0357767"><ele>493.0</ele><time>2026-04-12T12:18:49.96Z</time></trkpt><trkpt lat="37.9991967" lon="16.035635"><ele>493.0</ele><time>2026-04-12T12:18:50.96Z</time></trkpt><trkpt lat="37.9991717" lon="16.0355133"><ele>493.2</ele><time>2026-04-12T12:18:51.96Z</time></trkpt><trkpt lat="37.9991733" lon="16.0353967"><ele>493.4</ele><time>2026-04-12T12:18:52.96Z</time></trkpt><trkpt lat="37.9991567" lon="16.0352617"><ele>493.59999999999997</ele><time>2026-04-12T12:18:53.96Z</time></trkpt><trkpt lat="37.999125" lon="16.0351117"><ele>493.79999999999995</ele><time>2026-04-12T12:18:54.96Z</time></trkpt><trkpt lat="37.9990717" lon="16.0349833"><ele>494.0</ele><time>2026-04-12T12:18:55.96Z</time></trkpt><trkpt lat="37.9990067" lon="16.0348767"><ele>493.66666666666663</ele><time>2026-04-12T12:18:56.96Z</time></trkpt><trkpt lat="37.9989633" lon="16.0347717"><ele>493.3333333333333</ele><time>2026-04-12T12:18:57.96Z</time></trkpt><trkpt lat="37.998925" lon="16.0346867"><ele>493.0</ele><time>2026-04-12T12:18:58.96Z</time></trkpt><trkpt lat="37.998905" lon="16.0346083"><ele>492.66666666666663</ele><time>2026-04-12T12:18:59.96Z</time></trkpt><trkpt lat="37.998945" lon="16.0345217"><ele>492.3333333333333</ele><time>2026-04-12T12:19:01.96Z</time></trkpt><trkpt lat="37.999045" lon="16.034615"><ele>492.0</ele><time>2026-04-12T12:19:03.96Z</time></trkpt><trkpt lat="37.9991067" lon="16.0347117"><ele>498.25</ele><time>2026-04-12T12:19:04.96Z</time></trkpt><trkpt lat="37.999185" lon="16.03484"><ele>504.5</ele><time>2026-04-12T12:19:05.96Z</time></trkpt><trkpt lat="37.9992633" lon="16.03496"><ele>510.75</ele><time>2026-04-12T12:19:06.96Z</time></trkpt><trkpt lat="37.9993467" lon="16.0351367"><ele>517.0</ele><time>2026-04-12T12:19:07.96Z</time></trkpt><trkpt lat="37.999415" lon="16.0352983"><ele>517.0</ele><time>2026-04-12T12:19:08.96Z</time></trkpt><trkpt lat="37.9994667" lon="16.03543"><ele>517.0</ele><time>2026-04-12T12:19:09.96Z</time></trkpt><trkpt lat="37.999495" lon="16.0355217"><ele>517.0</ele><time>2026-04-12T12:19:10.96Z</time></trkpt><trkpt lat="37.999535" lon="16.0356067"><ele>517.0</ele><time>2026-04-12T12:19:12.96Z</time></trkpt><trkpt lat="37.9995283" lon="16.0355217"><ele>517.0</ele><time>2026-04-12T12:19:14.96Z</time></trkpt><trkpt lat="37.9995067" lon="16.03544"><ele>517.0</ele><time>2026-04-12T12:19:15.96Z</time></trkpt><trkpt lat="37.9994683" lon="16.0353117"><ele>517.0</ele><time>2026-04-12T12:19:16.96Z</time></trkpt><trkpt lat="37.999425" lon="16.0351483"><ele>517.0</ele><time>2026-04-12T12:19:17.96Z</time></trkpt><trkpt lat="37.9993933" lon="16.0349967"><ele>517.0</ele><time>2026-04-12T12:19:18.961Z</time></trkpt><trkpt lat="37.9993667" lon="16.034865"><ele>517.0</ele><time>2026-04-12T12:19:19.96Z</time></trkpt><trkpt lat="37.9993733" lon="16.034745"><ele>518.8000000000001</ele><time>2026-04-12T12:19:20.96Z</time></trkpt><trkpt lat="37.9993917" lon="16.03464"><ele>520.6</ele><time>2026-04-12T12:19:21.96Z</time></trkpt><trkpt lat="37.9994417" lon="16.0345333"><ele>522.4000000000001</ele><time>2026-04-12T12:19:22.96Z</time></trkpt><trkpt lat="37.9995267" lon="16.03442"><ele>524.2</ele><time>2026-04-12T12:19:23.961Z</time></trkpt><trkpt lat="37.9996317" lon="16.0343067"><ele>526.0</ele><time>2026-04-12T12:19:24.961Z</time></trkpt><trkpt lat="37.999735" lon="16.0341867"><ele>528.0</ele><time>2026-04-12T12:19:25.96Z</time></trkpt><trkpt lat="37.999805" lon="16.0340783"><ele>530.0</ele><time>2026-04-12T12:19:26.96Z</time></trkpt><trkpt lat="37.9998517" lon="16.0339683"><ele>532.0</ele><time>2026-04-12T12:19:27.96Z</time></trkpt><trkpt lat="37.9998783" lon="16.0338733"><ele>534.0</ele><time>2026-04-12T12:19:28.961Z</time></trkpt><trkpt lat="37.9998833" lon="16.0337833"><ele>536.0</ele><time>2026-04-12T12:19:29.96Z</time></trkpt><trkpt lat="37.999865" lon="16.0337067"><ele>538.0</ele><time>2026-04-12T12:19:30.96Z</time></trkpt><trkpt lat="37.9997783" lon="16.0336083"><ele>538.0</ele><time>2026-04-12T12:19:32.96Z</time></trkpt><trkpt lat="37.9997433" lon="16.033515"><ele>538.0</ele><time>2026-04-12T12:19:34.961Z</time></trkpt><trkpt lat="37.9998033" lon="16.03346"><ele>538.0</ele><time>2026-04-12T12:19:37.96Z</time></trkpt><trkpt lat="37.99989" lon="16.0335083"><ele>538.0</ele><time>2026-04-12T12:19:39.96Z</time></trkpt><trkpt lat="37.999935" lon="16.0335767"><ele>538.0</ele><time>2026-04-12T12:19:40.96Z</time></trkpt><trkpt lat="37.9999717" lon="16.03367"><ele>538.0</ele><time>2026-04-12T12:19:41.96Z</time></trkpt><trkpt lat="38.0000033" lon="16.0337767"><ele>538.0</ele><time>2026-04-12T12:19:42.96Z</time></trkpt><trkpt lat="38.0000083" lon="16.0338917"><ele>538.0</ele><time>2026-04-12T12:19:43.961Z</time></trkpt><trkpt lat="37.99999" lon="16.0340017"><ele>538.0</ele><time>2026-04-12T12:19:44.96Z</time></trkpt><trkpt lat="37.999945" lon="16.0341"><ele>538.0</ele><time>2026-04-12T12:19:45.96Z</time></trkpt><trkpt lat="37.9998967" lon="16.0342033"><ele>538.0</ele><time>2026-04-12T12:19:46.96Z</time></trkpt><trkpt lat="37.9998717" lon="16.0342867"><ele>538.0</ele><time>2026-04-12T12:19:47.96Z</time></trkpt><trkpt lat="37.9998883" lon="16.03442"><ele>538.0</ele><time>2026-04-12T12:19:49.96Z</time></trkpt><trkpt lat="37.9999683" lon="16.0344583"><ele>538.0</ele><time>2026-04-12T12:19:51.96Z</time></trkpt><trkpt lat="38.000075" lon="16.03438"><ele>538.0</ele><time>2026-04-12T12:19:53.961Z</time></trkpt><trkpt lat="38.0001083" lon="16.034275"><ele>538.0</ele><time>2026-04-12T12:19:54.96Z</time></trkpt><trkpt lat="38.00013" lon="16.0341167"><ele>538.0</ele><time>2026-04-12T12:19:55.96Z</time></trkpt><trkpt lat="38.0001333" lon="16.0339283"><ele>538.0</ele><time>2026-04-12T12:19:56.96Z</time></trkpt><trkpt lat="38.0001117" lon="16.0337583"><ele>538.0</ele><time>2026-04-12T12:19:57.96Z</time></trkpt><trkpt lat="38.0000783" lon="16.0336217"><ele>538.0</ele><time>2026-04-12T12:19:58.96Z</time></trkpt><trkpt lat="38.0000333" lon="16.033525"><ele>538.0</ele><time>2026-04-12T12:19:59.96Z</time></trkpt><trkpt lat="37.99999" lon="16.0334433"><ele>538.0</ele><time>2026-04-12T12:20:01.96Z</time></trkpt><trkpt lat="37.9999467" lon="16.03338"><ele>538.0</ele><time>2026-04-12T12:20:22.96Z</time></trkpt><trkpt lat="37.99999" lon="16.033465"><ele>538.0</ele><time>2026-04-12T12:21:11.96Z</time></trkpt><trkpt lat="38.0000217" lon="16.03357"><ele>538.0</ele><time>2026-04-12T12:21:14.96Z</time></trkpt><trkpt lat="38.000055" lon="16.0336617"><ele>538.0</ele><time>2026-04-12T12:21:17.961Z</time></trkpt><trkpt lat="38.00008" lon="16.0337783"><ele>538.0</ele><time>2026-04-12T12:21:20.96Z</time></trkpt><trkpt lat="38.000095" lon="16.0339133"><ele>538.0</ele><time>2026-04-12T12:21:22.96Z</time></trkpt><trkpt lat="38.0000883" lon="16.0340183"><ele>538.0</ele><time>2026-04-12T12:21:23.96Z</time></trkpt><trkpt lat="38.0000683" lon="16.0341333"><ele>538.0</ele><time>2026-04-12T12:21:24.96Z</time></trkpt><trkpt lat="38.0000317" lon="16.034235"><ele>538.0</ele><time>2026-04-12T12:21:25.961Z</time></trkpt><trkpt lat="37.9999967" lon="16.0343217"><ele>538.0</ele><time>2026-04-12T12:21:26.96Z</time></trkpt><trkpt lat="37.9999183" lon="16.0344233"><ele>538.0</ele><time>2026-04-12T12:21:28.96Z</time></trkpt><trkpt lat="37.9998433" lon="16.034365"><ele>538.0</ele><time>2026-04-12T12:21:30.96Z</time></trkpt><trkpt lat="37.99987" lon="16.0341567"><ele>538.0</ele><time>2026-04-12T12:21:32.96Z</time></trkpt><trkpt lat="37.99992" lon="16.034015"><ele>538.0</ele><time>2026-04-12T12:21:33.961Z</time></trkpt><trkpt lat="37.99994" lon="16.0339083"><ele>538.0</ele><time>2026-04-12T12:21:34.96Z</time></trkpt><trkpt lat="37.9999433" lon="16.0337967"><ele>538.0</ele><time>2026-04-12T12:21:35.96Z</time></trkpt><trkpt lat="37.9999217" lon="16.0336783"><ele>538.0</ele><time>2026-04-12T12:21:36.96Z</time></trkpt><trkpt lat="37.9998933" lon="16.033585"><ele>538.0</ele><time>2026-04-12T12:21:37.96Z</time></trkpt><trkpt lat="37.999855" lon="16.0335067"><ele>538.0</ele><time>2026-04-12T12:21:38.96Z</time></trkpt><trkpt lat="37.999765" lon="16.0334133"><ele>538.0</ele><time>2026-04-12T12:21:40.96Z</time></trkpt><trkpt lat="37.9996817" lon="16.03334"><ele>538.0</ele><time>2026-04-12T12:21:42.96Z</time></trkpt><trkpt lat="37.99966" lon="16.033215"><ele>538.0</ele><time>2026-04-12T12:21:44.96Z</time></trkpt><trkpt lat="37.9996567" lon="16.0330817"><ele>538.0</ele><time>2026-04-12T12:21:46.96Z</time></trkpt><trkpt lat="37.9996533" lon="16.0329317"><ele>538.0</ele><time>2026-04-12T12:21:48.961Z</time></trkpt><trkpt lat="37.9996567" lon="16.0327967"><ele>540.0</ele><time>2026-04-12T12:21:50.96Z</time></trkpt><trkpt lat="37.9997117" lon="16.03267"><ele>542.0</ele><time>2026-04-12T12:21:52.961Z</time></trkpt><trkpt lat="37.9997717" lon="16.032575"><ele>544.0</ele><time>2026-04-12T12:21:54.96Z</time></trkpt><trkpt lat="37.9998183" lon="16.0324917"><ele>546.0</ele><time>2026-04-12T12:21:56.96Z</time></trkpt><trkpt lat="37.9998267" lon="16.0323933"><ele>548.0</ele><time>2026-04-12T12:21:58.961Z</time></trkpt><trkpt lat="37.9998083" lon="16.0322767"><ele>549.0</ele><time>2026-04-12T12:22:01.96Z</time></trkpt><trkpt lat="37.999875" lon="16.03229"><ele>550.0</ele><time>2026-04-12T12:22:05.96Z</time></trkpt><trkpt lat="37.9999083" lon="16.0323717"><ele>551.0</ele><time>2026-04-12T12:22:07.96Z</time></trkpt><trkpt lat="37.9998433" lon="16.0323383"><ele>552.0</ele><time>2026-04-12T12:22:15.96Z</time></trkpt><trkpt lat="37.9997533" lon="16.0322983"><ele>553.0</ele><time>2026-04-12T12:22:17.96Z</time></trkpt><trkpt lat="37.99969" lon="16.03225"><ele>554.0</ele><time>2026-04-12T12:22:19.961Z</time></trkpt><trkpt lat="37.999675" lon="16.0321567"><ele>554.0</ele><time>2026-04-12T12:22:22.96Z</time></trkpt><trkpt lat="37.999685" lon="16.032075"><ele>554.0</ele><time>2026-04-12T12:22:26.96Z</time></trkpt><trkpt lat="37.9996183" lon="16.0320933"><ele>554.0</ele><time>2026-04-12T12:22:30.96Z</time></trkpt><trkpt lat="37.9997017" lon="16.0320633"><ele>554.0</ele><time>2026-04-12T12:23:44.961Z</time></trkpt><trkpt lat="37.9997633" lon="16.0320367"><ele>554.0</ele><time>2026-04-12T12:23:48.96Z</time></trkpt><trkpt lat="37.9998067" lon="16.0321433"><ele>554.0</ele><time>2026-04-12T12:24:40.96Z</time></trkpt><trkpt lat="37.9998617" lon="16.0322083"><ele>554.0</ele><time>2026-04-12T12:24:42.961Z</time></trkpt><trkpt lat="37.999925" lon="16.032285"><ele>554.0</ele><time>2026-04-12T12:24:44.96Z</time></trkpt><trkpt lat="38.0000133" lon="16.0323467"><ele>554.0</ele><time>2026-04-12T12:24:46.96Z</time></trkpt><trkpt lat="38.00008" lon="16.032435"><ele>554.0</ele><time>2026-04-12T12:24:48.961Z</time></trkpt><trkpt lat="38.0001283" lon="16.03251"><ele>554.0</ele><time>2026-04-12T12:24:50.96Z</time></trkpt><trkpt lat="38.000135" lon="16.0325917"><ele>554.0</ele><time>2026-04-12T12:24:52.96Z</time></trkpt><trkpt lat="38.0001317" lon="16.032475"><ele>554.0</ele><time>2026-04-12T12:25:16.96Z</time></trkpt><trkpt lat="38.0000533" lon="16.0323467"><ele>554.0</ele><time>2026-04-12T12:25:18.961Z</time></trkpt><trkpt lat="38.0000033" lon="16.0322767"><ele>554.0</ele><time>2026-04-12T12:25:19.96Z</time></trkpt><trkpt lat="37.9999617" lon="16.0322133"><ele>554.0</ele><time>2026-04-12T12:25:20.96Z</time></trkpt><trkpt lat="37.9998967" lon="16.0321167"><ele>554.0</ele><time>2026-04-12T12:25:22.96Z</time></trkpt><trkpt lat="37.9998783" lon="16.03202"><ele>554.0</ele><time>2026-04-12T12:25:24.96Z</time></trkpt><trkpt lat="37.99982" lon="16.0319533"><ele>554.0</ele><time>2026-04-12T12:25:27.96Z</time></trkpt><trkpt lat="37.999765" lon="16.0320533"><ele>554.0</ele><time>2026-04-12T12:25:30.96Z</time></trkpt><trkpt lat="37.9997067" lon="16.0321267"><ele>554.0</ele><time>2026-04-12T12:25:32.96Z</time></trkpt><trkpt lat="37.9996817" lon="16.0322233"><ele>554.0</ele><time>2026-04-12T12:25:34.96Z</time></trkpt><trkpt lat="37.99972" lon="16.0323283"><ele>554.0</ele><time>2026-04-12T12:25:36.96Z</time></trkpt><trkpt lat="37.9997983" lon="16.0323933"><ele>554.0</ele><time>2026-04-12T12:25:38.96Z</time></trkpt><trkpt lat="37.9998367" lon="16.0324567"><ele>552.8</ele><time>2026-04-12T12:25:42.96Z</time></trkpt><trkpt lat="37.9997833" lon="16.0325217"><ele>551.5999999999999</ele><time>2026-04-12T12:25:47.96Z</time></trkpt><trkpt lat="37.9998167" lon="16.0326317"><ele>550.4</ele><time>2026-04-12T12:25:49.961Z</time></trkpt><trkpt lat="37.9997983" lon="16.03271"><ele>549.1999999999999</ele><time>2026-04-12T12:25:51.96Z</time></trkpt><trkpt lat="37.999685" lon="16.0327917"><ele>548.0</ele><time>2026-04-12T12:25:53.96Z</time></trkpt><trkpt lat="37.999625" lon="16.0328933"><ele>548.0</ele><time>2026-04-12T12:25:55.96Z</time></trkpt><trkpt lat="37.9996217" lon="16.033015"><ele>548.0</ele><time>2026-04-12T12:25:57.96Z</time></trkpt><trkpt lat="37.999605" lon="16.0331133"><ele>548.0</ele><time>2026-04-12T12:25:59.96Z</time></trkpt><trkpt lat="37.99962" lon="16.0331933"><ele>548.0</ele><time>2026-04-12T12:26:02.96Z</time></trkpt><trkpt lat="37.99963" lon="16.033275"><ele>548.0</ele><time>2026-04-12T12:26:04.961Z</time></trkpt><trkpt lat="37.9996433" lon="16.0333767"><ele>548.0</ele><time>2026-04-12T12:26:06.96Z</time></trkpt><trkpt lat="37.9997" lon="16.0334683"><ele>546.3333333333333</ele><time>2026-04-12T12:26:08.96Z</time></trkpt><trkpt lat="37.9997633" lon="16.0335567"><ele>544.6666666666666</ele><time>2026-04-12T12:26:10.96Z</time></trkpt><trkpt lat="37.9998067" lon="16.03363"><ele>543.0</ele><time>2026-04-12T12:26:12.96Z</time></trkpt><trkpt lat="37.9998283" lon="16.0337167"><ele>541.3333333333334</ele><time>2026-04-12T12:26:14.96Z</time></trkpt><trkpt lat="37.9998433" lon="16.0338183"><ele>539.6666666666667</ele><time>2026-04-12T12:26:17.96Z</time></trkpt><trkpt lat="37.99989" lon="16.033905"><ele>538.0</ele><time>2026-04-12T12:26:20.961Z</time></trkpt><trkpt lat="37.999855" lon="16.0338317"><ele>538.0</ele><time>2026-04-12T12:26:35.961Z</time></trkpt><trkpt lat="37.9998133" lon="16.0337367"><ele>538.0</ele><time>2026-04-12T12:26:37.961Z</time></trkpt><trkpt lat="37.9997717" lon="16.0336667"><ele>538.0</ele><time>2026-04-12T12:26:39.96Z</time></trkpt><trkpt lat="37.9997533" lon="16.0335733"><ele>538.0</ele><time>2026-04-12T12:26:41.96Z</time></trkpt><trkpt lat="37.999725" lon="16.0334817"><ele>538.0</ele><time>2026-04-12T12:26:43.96Z</time></trkpt><trkpt lat="37.9996783" lon="16.033385"><ele>538.0</ele><time>2026-04-12T12:26:45.96Z</time></trkpt><trkpt lat="37.99966" lon="16.0332517"><ele>540.0</ele><time>2026-04-12T12:26:47.961Z</time></trkpt><trkpt lat="37.9996383" lon="16.0331333"><ele>542.0</ele><time>2026-04-12T12:26:49.96Z</time></trkpt><trkpt lat="37.99959" lon="16.0330383"><ele>544.0</ele><time>2026-04-12T12:26:51.959Z</time></trkpt><trkpt lat="37.999515" lon="16.03295"><ele>546.0</ele><time>2026-04-12T12:26:53.959Z</time></trkpt><trkpt lat="37.9994117" lon="16.0328733"><ele>548.0</ele><time>2026-04-12T12:26:55.959Z</time></trkpt><trkpt lat="37.9992983" lon="16.0328217"><ele>548.0</ele><time>2026-04-12T12:26:57.959Z</time></trkpt><trkpt lat="37.9991933" lon="16.0327983"><ele>548.0</ele><time>2026-04-12T12:26:59.959Z</time></trkpt><trkpt lat="37.9991183" lon="16.0327767"><ele>548.0</ele><time>2026-04-12T12:27:01.959Z</time></trkpt><trkpt lat="37.99907" lon="16.032715"><ele>548.0</ele><time>2026-04-12T12:27:03.959Z</time></trkpt><trkpt lat="37.99904" lon="16.0325933"><ele>548.0</ele><time>2026-04-12T12:27:05.959Z</time></trkpt><trkpt lat="37.999015" lon="16.032515"><ele>548.0</ele><time>2026-04-12T12:27:06.959Z</time></trkpt><trkpt lat="37.9989817" lon="16.0324467"><ele>543.8333333333333</ele><time>2026-04-12T12:27:07.959Z</time></trkpt><trkpt lat="37.99888" lon="16.03235"><ele>539.6666666666666</ele><time>2026-04-12T12:27:09.96Z</time></trkpt><trkpt lat="37.9988117" lon="16.032325"><ele>535.5</ele><time>2026-04-12T12:27:10.959Z</time></trkpt><trkpt lat="37.9987517" lon="16.0322967"><ele>531.3333333333334</ele><time>2026-04-12T12:27:11.959Z</time></trkpt><trkpt lat="37.998655" lon="16.0321983"><ele>527.1666666666667</ele><time>2026-04-12T12:27:13.959Z</time></trkpt><trkpt lat="37.99862" lon="16.0321317"><ele>523.0</ele><time>2026-04-12T12:27:14.96Z</time></trkpt><trkpt lat="37.9986017" lon="16.0320033"><ele>523.0</ele><time>2026-04-12T12:27:16.959Z</time></trkpt><trkpt lat="37.9986417" lon="16.0318717"><ele>523.0</ele><time>2026-04-12T12:27:18.959Z</time></trkpt><trkpt lat="37.9986833" lon="16.031795"><ele>523.0</ele><time>2026-04-12T12:27:19.959Z</time></trkpt><trkpt lat="37.9987267" lon="16.0317083"><ele>523.0</ele><time>2026-04-12T12:27:20.96Z</time></trkpt><trkpt lat="37.9987683" lon="16.0316167"><ele>523.0</ele><time>2026-04-12T12:27:21.959Z</time></trkpt><trkpt lat="37.9988133" lon="16.0315217"><ele>523.0</ele><time>2026-04-12T12:27:22.959Z</time></trkpt><trkpt lat="37.9988533" lon="16.031425"><ele>521.4</ele><time>2026-04-12T12:27:23.959Z</time></trkpt><trkpt lat="37.9988883" lon="16.0313167"><ele>519.8</ele><time>2026-04-12T12:27:24.96Z</time></trkpt><trkpt lat="37.99891" lon="16.0311983"><ele>518.2</ele><time>2026-04-12T12:27:25.959Z</time></trkpt><trkpt lat="37.9989217" lon="16.0310867"><ele>516.6</ele><time>2026-04-12T12:27:26.959Z</time></trkpt><trkpt lat="37.998915" lon="16.0309733"><ele>515.0</ele><time>2026-04-12T12:27:27.96Z</time></trkpt><trkpt lat="37.99889" lon="16.0308617"><ele>520.6666666666666</ele><time>2026-04-12T12:27:28.959Z</time></trkpt><trkpt lat="37.99886" lon="16.030765"><ele>526.3333333333333</ele><time>2026-04-12T12:27:29.959Z</time></trkpt><trkpt lat="37.9988317" lon="16.030675"><ele>532.0</ele><time>2026-04-12T12:27:30.959Z</time></trkpt><trkpt lat="37.9988067" lon="16.030595"><ele>537.6666666666666</ele><time>2026-04-12T12:27:31.959Z</time></trkpt><trkpt lat="37.99873" lon="16.030625"><ele>543.3333333333334</ele><time>2026-04-12T12:27:33.959Z</time></trkpt><trkpt lat="37.9987033" lon="16.0307"><ele>549.0</ele><time>2026-04-12T12:27:34.96Z</time></trkpt><trkpt lat="37.9986667" lon="16.030795"><ele>549.0</ele><time>2026-04-12T12:27:35.96Z</time></trkpt><trkpt lat="37.9986167" lon="16.03086"><ele>549.0</ele><time>2026-04-12T12:27:36.959Z</time></trkpt><trkpt lat="37.9984967" lon="16.0308533"><ele>549.0</ele><time>2026-04-12T12:27:38.96Z</time></trkpt><trkpt lat="37.99844" lon="16.0308017"><ele>549.0</ele><time>2026-04-12T12:27:39.96Z</time></trkpt><trkpt lat="37.9983767" lon="16.0307467"><ele>549.0</ele><time>2026-04-12T12:27:40.959Z</time></trkpt><trkpt lat="37.9983167" lon="16.0307067"><ele>549.0</ele><time>2026-04-12T12:27:41.959Z</time></trkpt><trkpt lat="37.9982533" lon="16.0306817"><ele>547.6666666666666</ele><time>2026-04-12T12:27:42.959Z</time></trkpt><trkpt lat="37.9981833" lon="16.0306633"><ele>546.3333333333334</ele><time>2026-04-12T12:27:43.959Z</time></trkpt><trkpt lat="37.99811" lon="16.0306533"><ele>545.0</ele><time>2026-04-12T12:27:44.959Z</time></trkpt><trkpt lat="37.9980367" lon="16.0306433"><ele>543.6666666666667</ele><time>2026-04-12T12:27:45.959Z</time></trkpt><trkpt lat="37.9979483" lon="16.03067"><ele>542.3333333333334</ele><time>2026-04-12T12:27:46.96Z</time></trkpt><trkpt lat="37.9978617" lon="16.0306983"><ele>541.0</ele><time>2026-04-12T12:27:47.959Z</time></trkpt><trkpt lat="37.997775" lon="16.0307467"><ele>538.2</ele><time>2026-04-12T12:27:48.959Z</time></trkpt><trkpt lat="37.997685" lon="16.0308117"><ele>535.4000000000001</ele><time>2026-04-12T12:27:49.959Z</time></trkpt><trkpt lat="37.997585" lon="16.0308883"><ele>532.6</ele><time>2026-04-12T12:27:50.959Z</time></trkpt><trkpt lat="37.9974833" lon="16.0309517"><ele>529.8000000000001</ele><time>2026-04-12T12:27:51.96Z</time></trkpt><trkpt lat="37.99739" lon="16.0309983"><ele>527.0</ele><time>2026-04-12T12:27:52.96Z</time></trkpt><trkpt lat="37.99732" lon="16.031055"><ele>527.0</ele><time>2026-04-12T12:27:53.959Z</time></trkpt><trkpt lat="37.99725" lon="16.03108"><ele>527.0</ele><time>2026-04-12T12:27:54.96Z</time></trkpt><trkpt lat="37.99716" lon="16.0310833"><ele>527.0</ele><time>2026-04-12T12:27:55.959Z</time></trkpt><trkpt lat="37.9970617" lon="16.0310883"><ele>527.0</ele><time>2026-04-12T12:27:56.959Z</time></trkpt><trkpt lat="37.9969683" lon="16.0311033"><ele>527.0</ele><time>2026-04-12T12:27:57.96Z</time></trkpt><trkpt lat="37.99688" lon="16.0311267"><ele>527.0</ele><time>2026-04-12T12:27:58.959Z</time></trkpt><trkpt lat="37.99681" lon="16.03115"><ele>527.0000000000001</ele><time>2026-04-12T12:27:59.959Z</time></trkpt><trkpt lat="37.9967467" lon="16.031145"><ele>527.0</ele><time>2026-04-12T12:28:00.959Z</time></trkpt><trkpt lat="37.9966833" lon="16.031125"><ele>527.0</ele><time>2026-04-12T12:28:01.959Z</time></trkpt><trkpt lat="37.996625" lon="16.0310767"><ele>527.0</ele><time>2026-04-12T12:28:02.96Z</time></trkpt><trkpt lat="37.99657" lon="16.0310133"><ele>527.0</ele><time>2026-04-12T12:28:03.96Z</time></trkpt><trkpt lat="37.9965283" lon="16.0309367"><ele>527.0000000000001</ele><time>2026-04-12T12:28:04.959Z</time></trkpt><trkpt lat="37.9964817" lon="16.0308533"><ele>527.0</ele><time>2026-04-12T12:28:05.96Z</time></trkpt><trkpt lat="37.9964317" lon="16.0307533"><ele>530.0</ele><time>2026-04-12T12:28:06.959Z</time></trkpt><trkpt lat="37.9963733" lon="16.03066"><ele>533.0</ele><time>2026-04-12T12:28:07.96Z</time></trkpt><trkpt lat="37.9963117" lon="16.0305567"><ele>536.0</ele><time>2026-04-12T12:28:08.959Z</time></trkpt><trkpt lat="37.9962533" lon="16.0304533"><ele>539.0</ele><time>2026-04-12T12:28:09.959Z</time></trkpt><trkpt lat="37.9962033" lon="16.0303567"><ele>542.0</ele><time>2026-04-12T12:28:10.96Z</time></trkpt><trkpt lat="37.9961567" lon="16.0302567"><ele>542.0</ele><time>2026-04-12T12:28:11.959Z</time></trkpt><trkpt lat="37.9961117" lon="16.030175"><ele>542.0</ele><time>2026-04-12T12:28:12.959Z</time></trkpt><trkpt lat="37.9960667" lon="16.0300967"><ele>542.0</ele><time>2026-04-12T12:28:13.959Z</time></trkpt><trkpt lat="37.9960217" lon="16.0300317"><ele>542.0</ele><time>2026-04-12T12:28:14.959Z</time></trkpt><trkpt lat="37.9959367" lon="16.0299667"><ele>542.0</ele><time>2026-04-12T12:28:16.959Z</time></trkpt><trkpt lat="37.995855" lon="16.030005"><ele>542.0</ele><time>2026-04-12T12:28:18.959Z</time></trkpt><trkpt lat="37.9958183" lon="16.0300817"><ele>539.8000000000001</ele><time>2026-04-12T12:28:19.959Z</time></trkpt><trkpt lat="37.9957867" lon="16.030195"><ele>537.6</ele><time>2026-04-12T12:28:20.96Z</time></trkpt><trkpt lat="37.9957617" lon="16.0303217"><ele>535.4000000000001</ele><time>2026-04-12T12:28:21.959Z</time></trkpt><trkpt lat="37.9957283" lon="16.030435"><ele>533.2</ele><time>2026-04-12T12:28:22.959Z</time></trkpt><trkpt lat="37.9956917" lon="16.03053"><ele>531.0</ele><time>2026-04-12T12:28:23.959Z</time></trkpt><trkpt lat="37.995645" lon="16.0306117"><ele>531.0</ele><time>2026-04-12T12:28:24.959Z</time></trkpt><trkpt lat="37.9955867" lon="16.030665"><ele>531.0</ele><time>2026-04-12T12:28:25.959Z</time></trkpt><trkpt lat="37.995515" lon="16.0307283"><ele>531.0</ele><time>2026-04-12T12:28:27.959Z</time></trkpt><trkpt lat="37.9954417" lon="16.0308233"><ele>531.0</ele><time>2026-04-12T12:29:19.96Z</time></trkpt><trkpt lat="37.9953783" lon="16.03088"><ele>531.0</ele><time>2026-04-12T12:29:20.96Z</time></trkpt><trkpt lat="37.99531" lon="16.030925"><ele>531.0</ele><time>2026-04-12T12:29:21.96Z</time></trkpt><trkpt lat="37.9952233" lon="16.03097"><ele>534.0</ele><time>2026-04-12T12:29:22.96Z</time></trkpt><trkpt lat="37.995155" lon="16.030975"><ele>537.0</ele><time>2026-04-12T12:29:23.959Z</time></trkpt><trkpt lat="37.9950883" lon="16.0309583"><ele>540.0</ele><time>2026-04-12T12:29:24.959Z</time></trkpt><trkpt lat="37.99502" lon="16.0308783"><ele>543.0</ele><time>2026-04-12T12:29:25.959Z</time></trkpt><trkpt lat="37.9949333" lon="16.0307683"><ele>546.0</ele><time>2026-04-12T12:29:26.959Z</time></trkpt><trkpt lat="37.9948417" lon="16.030665"><ele>546.0</ele><time>2026-04-12T12:29:27.959Z</time></trkpt><trkpt lat="37.9947383" lon="16.030585"><ele>546.0</ele><time>2026-04-12T12:29:28.959Z</time></trkpt><trkpt lat="37.99461" lon="16.0305333"><ele>546.0</ele><time>2026-04-12T12:29:29.959Z</time></trkpt><trkpt lat="37.994475" lon="16.030485"><ele>546.0</ele><time>2026-04-12T12:29:30.959Z</time></trkpt><trkpt lat="37.9943583" lon="16.0304333"><ele>546.0</ele><time>2026-04-12T12:29:31.959Z</time></trkpt><trkpt lat="37.994255" lon="16.0304017"><ele>546.0</ele><time>2026-04-12T12:29:32.959Z</time></trkpt><trkpt lat="37.9941667" lon="16.0303917"><ele>546.0</ele><time>2026-04-12T12:29:33.959Z</time></trkpt><trkpt lat="37.9940983" lon="16.0303933"><ele>546.0</ele><time>2026-04-12T12:29:34.96Z</time></trkpt><trkpt lat="37.9940033" lon="16.0303767"><ele>546.0</ele><time>2026-04-12T12:29:36.959Z</time></trkpt><trkpt lat="37.99394" lon="16.030325"><ele>546.0</ele><time>2026-04-12T12:29:38.959Z</time></trkpt><trkpt lat="37.9938783" lon="16.0302317"><ele>543.5</ele><time>2026-04-12T12:29:40.96Z</time></trkpt><trkpt lat="37.9938317" lon="16.0301667"><ele>541.0</ele><time>2026-04-12T12:29:41.959Z</time></trkpt><trkpt lat="37.9937883" lon="16.0301"><ele>538.5</ele><time>2026-04-12T12:29:42.959Z</time></trkpt><trkpt lat="37.9937367" lon="16.0300417"><ele>536.0</ele><time>2026-04-12T12:29:43.96Z</time></trkpt><trkpt lat="37.99369" lon="16.0299833"><ele>533.5</ele><time>2026-04-12T12:29:44.959Z</time></trkpt><trkpt lat="37.9936383" lon="16.0299333"><ele>531.0</ele><time>2026-04-12T12:29:45.959Z</time></trkpt><trkpt lat="37.9935517" lon="16.029835"><ele>530.6</ele><time>2026-04-12T12:29:47.96Z</time></trkpt><trkpt lat="37.9935183" lon="16.0296967"><ele>530.2</ele><time>2026-04-12T12:29:49.96Z</time></trkpt><trkpt lat="37.9935067" lon="16.02953"><ele>529.8</ele><time>2026-04-12T12:29:51.959Z</time></trkpt><trkpt lat="37.993495" lon="16.0294367"><ele>529.4</ele><time>2026-04-12T12:29:52.959Z</time></trkpt><trkpt lat="37.993475" lon="16.029345"><ele>529.0</ele><time>2026-04-12T12:29:53.959Z</time></trkpt><trkpt lat="37.993455" lon="16.02926"><ele>529.0</ele><time>2026-04-12T12:29:54.959Z</time></trkpt><trkpt lat="37.9934467" lon="16.0291783"><ele>529.0</ele><time>2026-04-12T12:29:55.959Z</time></trkpt><trkpt lat="37.9934683" lon="16.0290417"><ele>529.0</ele><time>2026-04-12T12:29:57.959Z</time></trkpt><trkpt lat="37.9935533" lon="16.02893"><ele>529.0</ele><time>2026-04-12T12:29:59.96Z</time></trkpt><trkpt lat="37.993615" lon="16.028885"><ele>529.0</ele><time>2026-04-12T12:30:00.959Z</time></trkpt><trkpt lat="37.9936767" lon="16.028835"><ele>529.0</ele><time>2026-04-12T12:30:01.959Z</time></trkpt><trkpt lat="37.99373" lon="16.028785"><ele>524.2</ele><time>2026-04-12T12:30:02.959Z</time></trkpt><trkpt lat="37.99379" lon="16.0286583"><ele>519.4</ele><time>2026-04-12T12:30:04.96Z</time></trkpt><trkpt lat="37.9938017" lon="16.0285783"><ele>514.6</ele><time>2026-04-12T12:30:05.959Z</time></trkpt><trkpt lat="37.993785" lon="16.0284333"><ele>509.8</ele><time>2026-04-12T12:30:07.959Z</time></trkpt><trkpt lat="37.9937533" lon="16.02831"><ele>505.0</ele><time>2026-04-12T12:30:09.959Z</time></trkpt><trkpt lat="37.9937517" lon="16.02818"><ele>499.4</ele><time>2026-04-12T12:30:11.96Z</time></trkpt><trkpt lat="37.9938017" lon="16.02804"><ele>493.8</ele><time>2026-04-12T12:30:13.959Z</time></trkpt><trkpt lat="37.993875" lon="16.0279517"><ele>488.20000000000005</ele><time>2026-04-12T12:30:15.959Z</time></trkpt><trkpt lat="37.9939767" lon="16.027935"><ele>482.6</ele><time>2026-04-12T12:30:17.959Z</time></trkpt><trkpt lat="37.99404" lon="16.02795"><ele>477.0</ele><time>2026-04-12T12:30:18.959Z</time></trkpt><trkpt lat="37.9941117" lon="16.0279733"><ele>477.8333333333333</ele><time>2026-04-12T12:30:19.959Z</time></trkpt><trkpt lat="37.9941783" lon="16.027995"><ele>478.66666666666663</ele><time>2026-04-12T12:30:20.959Z</time></trkpt><trkpt lat="37.9942467" lon="16.0280083"><ele>479.5</ele><time>2026-04-12T12:30:21.96Z</time></trkpt><trkpt lat="37.9943183" lon="16.0280183"><ele>480.3333333333333</ele><time>2026-04-12T12:30:22.959Z</time></trkpt><trkpt lat="37.9943917" lon="16.0280217"><ele>481.16666666666663</ele><time>2026-04-12T12:30:23.959Z</time></trkpt><trkpt lat="37.994455" lon="16.0280167"><ele>482.0</ele><time>2026-04-12T12:30:24.959Z</time></trkpt><trkpt lat="37.9945583" lon="16.0279783"><ele>481.99999999999994</ele><time>2026-04-12T12:30:26.959Z</time></trkpt><trkpt lat="37.9946267" lon="16.027915"><ele>482.0</ele><time>2026-04-12T12:30:28.959Z</time></trkpt><trkpt lat="37.9946333" lon="16.0278233"><ele>482.0</ele><time>2026-04-12T12:30:30.959Z</time></trkpt><trkpt lat="37.99455" lon="16.0277417"><ele>482.0</ele><time>2026-04-12T12:30:32.96Z</time></trkpt><trkpt lat="37.994485" lon="16.02772"><ele>481.99999999999994</ele><time>2026-04-12T12:30:33.96Z</time></trkpt><trkpt lat="37.994415" lon="16.027685"><ele>482.0</ele><time>2026-04-12T12:30:34.959Z</time></trkpt><trkpt lat="37.994345" lon="16.0276433"><ele>481.99999999999994</ele><time>2026-04-12T12:30:35.96Z</time></trkpt><trkpt lat="37.9942783" lon="16.0276117"><ele>482.0</ele><time>2026-04-12T12:30:36.959Z</time></trkpt><trkpt lat="37.994195" lon="16.0275233"><ele>482.0</ele><time>2026-04-12T12:30:38.96Z</time></trkpt><trkpt lat="37.9941983" lon="16.027435"><ele>482.0</ele><time>2026-04-12T12:30:40.96Z</time></trkpt><trkpt lat="37.9942733" lon="16.0274317"><ele>481.99999999999994</ele><time>2026-04-12T12:30:42.96Z</time></trkpt><trkpt lat="37.9943833" lon="16.0274867"><ele>482.0</ele><time>2026-04-12T12:30:44.959Z</time></trkpt><trkpt lat="37.9945117" lon="16.0274833"><ele>479.8333333333333</ele><time>2026-04-12T12:30:46.959Z</time></trkpt><trkpt lat="37.994575" lon="16.0274367"><ele>477.66666666666663</ele><time>2026-04-12T12:30:47.959Z</time></trkpt><trkpt lat="37.9946467" lon="16.0273783"><ele>475.5</ele><time>2026-04-12T12:30:48.959Z</time></trkpt><trkpt lat="37.9947167" lon="16.0273333"><ele>473.33333333333337</ele><time>2026-04-12T12:30:49.959Z</time></trkpt><trkpt lat="37.99479" lon="16.027315"><ele>471.1666666666667</ele><time>2026-04-12T12:30:50.959Z</time></trkpt><trkpt lat="37.9948683" lon="16.0273083"><ele>469.0</ele><time>2026-04-12T12:30:51.959Z</time></trkpt><trkpt lat="37.9949567" lon="16.0272567"><ele>469.00000000000006</ele><time>2026-04-12T12:30:53.959Z</time></trkpt><trkpt lat="37.9949617" lon="16.0271717"><ele>469.0</ele><time>2026-04-12T12:30:56.959Z</time></trkpt><trkpt lat="37.9948967" lon="16.0270817"><ele>469.0</ele><time>2026-04-12T12:30:58.959Z</time></trkpt><trkpt lat="37.9948483" lon="16.0270167"><ele>469.0</ele><time>2026-04-12T12:30:59.959Z</time></trkpt><trkpt lat="37.9947983" lon="16.0269283"><ele>469.00000000000006</ele><time>2026-04-12T12:31:00.959Z</time></trkpt><trkpt lat="37.9947467" lon="16.0268183"><ele>469.0</ele><time>2026-04-12T12:31:01.96Z</time></trkpt><trkpt lat="37.994685" lon="16.026715"><ele>466.1666666666667</ele><time>2026-04-12T12:31:02.96Z</time></trkpt><trkpt lat="37.9946383" lon="16.0266217"><ele>463.33333333333337</ele><time>2026-04-12T12:31:03.959Z</time></trkpt><trkpt lat="37.9946017" lon="16.0265383"><ele>460.5</ele><time>2026-04-12T12:31:04.96Z</time></trkpt><trkpt lat="37.9945617" lon="16.02646"><ele>457.66666666666663</ele><time>2026-04-12T12:31:05.959Z</time></trkpt><trkpt lat="37.994505" lon="16.026325"><ele>454.8333333333333</ele><time>2026-04-12T12:31:07.959Z</time></trkpt><trkpt lat="37.9945117" lon="16.0262117"><ele>452.0</ele><time>2026-04-12T12:31:09.959Z</time></trkpt><trkpt lat="37.9945883" lon="16.0261383"><ele>451.99999999999994</ele><time>2026-04-12T12:31:11.96Z</time></trkpt><trkpt lat="37.994675" lon="16.0260667"><ele>452.0</ele><time>2026-04-12T12:31:13.96Z</time></trkpt><trkpt lat="37.9947167" lon="16.025985"><ele>452.0</ele><time>2026-04-12T12:31:15.959Z</time></trkpt><trkpt lat="37.9947683" lon="16.0258933"><ele>452.0</ele><time>2026-04-12T12:31:17.96Z</time></trkpt><trkpt lat="37.9948667" lon="16.0258417"><ele>451.99999999999994</ele><time>2026-04-12T12:31:19.959Z</time></trkpt><trkpt lat="37.9949317" lon="16.0258333"><ele>452.0</ele><time>2026-04-12T12:31:20.96Z</time></trkpt><trkpt lat="37.99504" lon="16.0257983"><ele>451.2857142857143</ele><time>2026-04-12T12:31:22.959Z</time></trkpt><trkpt lat="37.9951067" lon="16.0257633"><ele>450.57142857142856</ele><time>2026-04-12T12:31:24.96Z</time></trkpt><trkpt lat="37.9951467" lon="16.0256867"><ele>449.85714285714283</ele><time>2026-04-12T12:31:27.96Z</time></trkpt><trkpt lat="37.99513" lon="16.02558"><ele>449.1428571428571</ele><time>2026-04-12T12:31:30.959Z</time></trkpt><trkpt lat="37.9950983" lon="16.02551"><ele>448.42857142857144</ele><time>2026-04-12T12:31:32.959Z</time></trkpt><trkpt lat="37.9950567" lon="16.0254367"><ele>447.71428571428567</ele><time>2026-04-12T12:31:34.96Z</time></trkpt><trkpt lat="37.9950133" lon="16.0253667"><ele>447.0</ele><time>2026-04-12T12:31:36.959Z</time></trkpt><trkpt lat="37.9949417" lon="16.0252867"><ele>447.0</ele><time>2026-04-12T12:31:38.96Z</time></trkpt><trkpt lat="37.99487" lon="16.0251933"><ele>447.00000000000006</ele><time>2026-04-12T12:31:40.959Z</time></trkpt><trkpt lat="37.9948017" lon="16.0250883"><ele>447.00000000000006</ele><time>2026-04-12T12:31:42.959Z</time></trkpt><trkpt lat="37.99476" lon="16.024955"><ele>447.0</ele><time>2026-04-12T12:31:44.959Z</time></trkpt><trkpt lat="37.9947417" lon="16.0248167"><ele>447.0</ele><time>2026-04-12T12:31:46.96Z</time></trkpt><trkpt lat="37.994735" lon="16.0247067"><ele>447.57142857142856</ele><time>2026-04-12T12:31:48.959Z</time></trkpt><trkpt lat="37.9947183" lon="16.0246283"><ele>448.1428571428571</ele><time>2026-04-12T12:31:50.959Z</time></trkpt><trkpt lat="37.9946817" lon="16.0245633"><ele>448.71428571428567</ele><time>2026-04-12T12:31:52.959Z</time></trkpt><trkpt lat="37.99459" lon="16.0245083"><ele>449.2857142857143</ele><time>2026-04-12T12:31:55.959Z</time></trkpt><trkpt lat="37.9945233" lon="16.0245"><ele>449.8571428571429</ele><time>2026-04-12T12:31:57.96Z</time></trkpt><trkpt lat="37.9944517" lon="16.0245283"><ele>450.4285714285714</ele><time>2026-04-12T12:31:59.959Z</time></trkpt><trkpt lat="37.9943817" lon="16.0245683"><ele>451.0</ele><time>2026-04-12T12:32:01.959Z</time></trkpt><trkpt lat="37.9943217" lon="16.0246417"><ele>451.0</ele><time>2026-04-12T12:32:03.959Z</time></trkpt><trkpt lat="37.9942483" lon="16.02473"><ele>451.0</ele><time>2026-04-12T12:32:05.959Z</time></trkpt><trkpt lat="37.99418" lon="16.0248233"><ele>451.0</ele><time>2026-04-12T12:32:07.959Z</time></trkpt><trkpt lat="37.9941" lon="16.0249083"><ele>451.0</ele><time>2026-04-12T12:32:09.96Z</time></trkpt><trkpt lat="37.9940433" lon="16.0249567"><ele>451.0</ele><time>2026-04-12T12:32:10.96Z</time></trkpt><trkpt lat="37.993935" lon="16.0250383"><ele>450.50000000000006</ele><time>2026-04-12T12:32:12.959Z</time></trkpt><trkpt lat="37.9938467" lon="16.025105"><ele>450.0</ele><time>2026-04-12T12:32:14.959Z</time></trkpt><trkpt lat="37.9937667" lon="16.0251633"><ele>449.5</ele><time>2026-04-12T12:32:16.959Z</time></trkpt><trkpt lat="37.9937017" lon="16.0251883"><ele>449.0</ele><time>2026-04-12T12:32:18.959Z</time></trkpt><trkpt lat="37.9937" lon="16.0250967"><ele>448.50000000000006</ele><time>2026-04-12T12:32:22.959Z</time></trkpt><trkpt lat="37.9937583" lon="16.02502"><ele>448.0</ele><time>2026-04-12T12:32:24.959Z</time></trkpt><trkpt lat="37.9938283" lon="16.0249483"><ele>451.6666666666667</ele><time>2026-04-12T12:32:26.959Z</time></trkpt><trkpt lat="37.9938833" lon="16.0248583"><ele>455.33333333333337</ele><time>2026-04-12T12:32:28.959Z</time></trkpt><trkpt lat="37.9939217" lon="16.02476"><ele>459.0</ele><time>2026-04-12T12:32:30.959Z</time></trkpt><trkpt lat="37.99395" lon="16.0246667"><ele>462.66666666666663</ele><time>2026-04-12T12:32:32.959Z</time></trkpt><trkpt lat="37.9939683" lon="16.0245883"><ele>466.3333333333333</ele><time>2026-04-12T12:32:34.959Z</time></trkpt><trkpt lat="37.99399" lon="16.024485"><ele>470.0</ele><time>2026-04-12T12:32:37.959Z</time></trkpt><trkpt lat="37.9940167" lon="16.024365"><ele>470.0</ele><time>2026-04-12T12:32:40.959Z</time></trkpt><trkpt lat="37.9940383" lon="16.0242667"><ele>470.0</ele><time>2026-04-12T12:32:42.959Z</time></trkpt><trkpt lat="37.9940817" lon="16.0241767"><ele>470.0</ele><time>2026-04-12T12:32:44.959Z</time></trkpt><trkpt lat="37.9941683" lon="16.0241133"><ele>470.0</ele><time>2026-04-12T12:32:46.959Z</time></trkpt><trkpt lat="37.99427" lon="16.02405"><ele>470.0</ele><time>2026-04-12T12:32:48.959Z</time></trkpt><trkpt lat="37.9943767" lon="16.0239967"><ele>467.49999999999994</ele><time>2026-04-12T12:32:50.959Z</time></trkpt><trkpt lat="37.994485" lon="16.0239567"><ele>465.0</ele><time>2026-04-12T12:32:52.959Z</time></trkpt><trkpt lat="37.994545" lon="16.0238983"><ele>462.5</ele><time>2026-04-12T12:32:54.96Z</time></trkpt><trkpt lat="37.9945433" lon="16.0237817"><ele>460.0</ele><time>2026-04-12T12:32:57.959Z</time></trkpt><trkpt lat="37.9944917" lon="16.0237183"><ele>457.49999999999994</ele><time>2026-04-12T12:32:59.959Z</time></trkpt><trkpt lat="37.99442" lon="16.02373"><ele>455.0</ele><time>2026-04-12T12:33:01.959Z</time></trkpt><trkpt lat="37.99434" lon="16.0237617"><ele>454.99999999999994</ele><time>2026-04-12T12:33:03.959Z</time></trkpt><trkpt lat="37.994255" lon="16.0237917"><ele>455.0</ele><time>2026-04-12T12:33:05.959Z</time></trkpt><trkpt lat="37.9941733" lon="16.023785"><ele>455.0</ele><time>2026-04-12T12:33:07.96Z</time></trkpt><trkpt lat="37.994095" lon="16.0237617"><ele>455.0</ele><time>2026-04-12T12:33:09.96Z</time></trkpt><trkpt lat="37.9940083" lon="16.0237433"><ele>454.99999999999994</ele><time>2026-04-12T12:33:11.96Z</time></trkpt><trkpt lat="37.9939333" lon="16.0237567"><ele>455.0</ele><time>2026-04-12T12:33:13.959Z</time></trkpt><trkpt lat="37.9938533" lon="16.0238067"><ele>458.0</ele><time>2026-04-12T12:33:15.959Z</time></trkpt><trkpt lat="37.993755" lon="16.0238783"><ele>461.0</ele><time>2026-04-12T12:33:17.96Z</time></trkpt><trkpt lat="37.9936467" lon="16.023955"><ele>464.0</ele><time>2026-04-12T12:33:19.96Z</time></trkpt><trkpt lat="37.993555" lon="16.0240383"><ele>467.0</ele><time>2026-04-12T12:33:21.959Z</time></trkpt><trkpt lat="37.9934817" lon="16.0241183"><ele>470.0</ele><time>2026-04-12T12:33:23.959Z</time></trkpt><trkpt lat="37.99342" lon="16.0241783"><ele>469.99999999999994</ele><time>2026-04-12T12:33:25.959Z</time></trkpt><trkpt lat="37.993355" lon="16.0241917"><ele>470.0</ele><time>2026-04-12T12:33:27.959Z</time></trkpt><trkpt lat="37.9933217" lon="16.024115"><ele>470.0</ele><time>2026-04-12T12:33:30.959Z</time></trkpt><trkpt lat="37.993345" lon="16.02404"><ele>470.0</ele><time>2026-04-12T12:33:32.959Z</time></trkpt><trkpt lat="37.99338" lon="16.023945"><ele>469.99999999999994</ele><time>2026-04-12T12:33:34.96Z</time></trkpt><trkpt lat="37.993425" lon="16.023835"><ele>470.0</ele><time>2026-04-12T12:33:36.959Z</time></trkpt><trkpt lat="37.9934683" lon="16.02373"><ele>472.49999999999994</ele><time>2026-04-12T12:33:38.959Z</time></trkpt><trkpt lat="37.993515" lon="16.0236483"><ele>475.0</ele><time>2026-04-12T12:33:40.96Z</time></trkpt><trkpt lat="37.9935567" lon="16.023585"><ele>477.5</ele><time>2026-04-12T12:33:42.959Z</time></trkpt><trkpt lat="37.9936017" lon="16.0235117"><ele>480.0</ele><time>2026-04-12T12:33:44.959Z</time></trkpt><trkpt lat="37.9936517" lon="16.0234333"><ele>482.49999999999994</ele><time>2026-04-12T12:33:46.959Z</time></trkpt><trkpt lat="37.9937217" lon="16.0233533"><ele>485.0</ele><time>2026-04-12T12:33:48.959Z</time></trkpt><trkpt lat="37.9937767" lon="16.02327"><ele>485.66666666666663</ele><time>2026-04-12T12:33:50.959Z</time></trkpt><trkpt lat="37.9937967" lon="16.0231867"><ele>486.3333333333333</ele><time>2026-04-12T12:33:52.959Z</time></trkpt><trkpt lat="37.993795" lon="16.0230883"><ele>487.0</ele><time>2026-04-12T12:33:54.959Z</time></trkpt><trkpt lat="37.9937733" lon="16.0229967"><ele>487.66666666666663</ele><time>2026-04-12T12:33:56.959Z</time></trkpt><trkpt lat="37.9937217" lon="16.0229"><ele>488.3333333333333</ele><time>2026-04-12T12:33:58.959Z</time></trkpt><trkpt lat="37.993665" lon="16.0228117"><ele>489.0</ele><time>2026-04-12T12:34:00.959Z</time></trkpt><trkpt lat="37.993595" lon="16.0227233"><ele>489.0</ele><time>2026-04-12T12:34:02.96Z</time></trkpt><trkpt lat="37.9935283" lon="16.022635"><ele>489.0</ele><time>2026-04-12T12:34:04.959Z</time></trkpt><trkpt lat="37.9934733" lon="16.02255"><ele>489.0</ele><time>2026-04-12T12:34:06.959Z</time></trkpt><trkpt lat="37.99343" lon="16.022445"><ele>489.0</ele><time>2026-04-12T12:34:08.959Z</time></trkpt><trkpt lat="37.9933817" lon="16.022325"><ele>489.0</ele><time>2026-04-12T12:34:10.96Z</time></trkpt><trkpt lat="37.9933533" lon="16.022245"><ele>495.0</ele><time>2026-04-12T12:34:11.959Z</time></trkpt><trkpt lat="37.993305" lon="16.0221083"><ele>501.0</ele><time>2026-04-12T12:34:13.959Z</time></trkpt><trkpt lat="37.9932583" lon="16.02197"><ele>507.0</ele><time>2026-04-12T12:34:15.96Z</time></trkpt><trkpt lat="37.99324" lon="16.02183"><ele>513.0</ele><time>2026-04-12T12:34:17.959Z</time></trkpt><trkpt lat="37.9932417" lon="16.0217233"><ele>519.0</ele><time>2026-04-12T12:34:19.959Z</time></trkpt><trkpt lat="37.9932533" lon="16.0216367"><ele>519.0</ele><time>2026-04-12T12:34:21.96Z</time></trkpt><trkpt lat="37.9932567" lon="16.0215383"><ele>519.0</ele><time>2026-04-12T12:34:24.959Z</time></trkpt><trkpt lat="37.9932467" lon="16.0214517"><ele>519.0</ele><time>2026-04-12T12:34:26.959Z</time></trkpt><trkpt lat="37.9931867" lon="16.021485"><ele>519.0</ele><time>2026-04-12T12:34:30.959Z</time></trkpt><trkpt lat="37.9931483" lon="16.0216033"><ele>519.0</ele><time>2026-04-12T12:34:32.96Z</time></trkpt><trkpt lat="37.9931217" lon="16.0216783"><ele>519.0</ele><time>2026-04-12T12:34:33.959Z</time></trkpt><trkpt lat="37.9930983" lon="16.0217667"><ele>519.5714285714286</ele><time>2026-04-12T12:34:34.96Z</time></trkpt><trkpt lat="37.993075" lon="16.021855"><ele>520.1428571428571</ele><time>2026-04-12T12:34:35.96Z</time></trkpt><trkpt lat="37.9930517" lon="16.0219467"><ele>520.7142857142857</ele><time>2026-04-12T12:34:36.96Z</time></trkpt><trkpt lat="37.99303" lon="16.0220433"><ele>521.2857142857142</ele><time>2026-04-12T12:34:37.96Z</time></trkpt><trkpt lat="37.9930133" lon="16.022135"><ele>521.8571428571429</ele><time>2026-04-12T12:34:38.959Z</time></trkpt><trkpt lat="37.9929967" lon="16.0222267"><ele>522.4285714285713</ele><time>2026-04-12T12:34:39.959Z</time></trkpt><trkpt lat="37.9929867" lon="16.0223083"><ele>523.0</ele><time>2026-04-12T12:34:40.959Z</time></trkpt><trkpt lat="37.9929567" lon="16.0224617"><ele>523.0</ele><time>2026-04-12T12:34:42.96Z</time></trkpt><trkpt lat="37.992905" lon="16.0225867"><ele>523.0</ele><time>2026-04-12T12:34:44.959Z</time></trkpt><trkpt lat="37.9928283" lon="16.022685"><ele>523.0</ele><time>2026-04-12T12:34:46.959Z</time></trkpt><trkpt lat="37.9927783" lon="16.0227383"><ele>523.0</ele><time>2026-04-12T12:34:47.959Z</time></trkpt><trkpt lat="37.9927317" lon="16.0227967"><ele>523.0</ele><time>2026-04-12T12:34:48.959Z</time></trkpt><trkpt lat="37.9926783" lon="16.022855"><ele>523.0</ele><time>2026-04-12T12:34:49.959Z</time></trkpt><trkpt lat="37.9926267" lon="16.0229067"><ele>522.9999999999999</ele><time>2026-04-12T12:34:50.959Z</time></trkpt><trkpt lat="37.99257" lon="16.0229517"><ele>523.0</ele><time>2026-04-12T12:34:51.96Z</time></trkpt><trkpt lat="37.9925117" lon="16.0229967"><ele>523.0</ele><time>2026-04-12T12:34:52.959Z</time></trkpt><trkpt lat="37.99245" lon="16.02304"><ele>523.0</ele><time>2026-04-12T12:34:53.959Z</time></trkpt><trkpt lat="37.9923967" lon="16.02309"><ele>523.0</ele><time>2026-04-12T12:34:54.96Z</time></trkpt><trkpt lat="37.9923483" lon="16.023145"><ele>522.9999999999999</ele><time>2026-04-12T12:34:55.959Z</time></trkpt><trkpt lat="37.9923033" lon="16.0232067"><ele>523.0</ele><time>2026-04-12T12:34:56.96Z</time></trkpt><trkpt lat="37.9922617" lon="16.0232833"><ele>525.1666666666667</ele><time>2026-04-12T12:34:57.96Z</time></trkpt><trkpt lat="37.9922167" lon="16.0233417"><ele>527.3333333333334</ele><time>2026-04-12T12:34:58.959Z</time></trkpt><trkpt lat="37.992125" lon="16.02338"><ele>529.5</ele><time>2026-04-12T12:35:00.96Z</time></trkpt><trkpt lat="37.9920283" lon="16.0233267"><ele>531.6666666666666</ele><time>2026-04-12T12:35:02.96Z</time></trkpt><trkpt lat="37.99197" lon="16.02329"><ele>533.8333333333333</ele><time>2026-04-12T12:35:03.96Z</time></trkpt><trkpt lat="37.9919083" lon="16.0232533"><ele>536.0</ele><time>2026-04-12T12:35:04.96Z</time></trkpt><trkpt lat="37.991845" lon="16.0232117"><ele>538.8333333333333</ele><time>2026-04-12T12:35:05.96Z</time></trkpt><trkpt lat="37.9917883" lon="16.0231667"><ele>541.6666666666666</ele><time>2026-04-12T12:35:06.959Z</time></trkpt><trkpt lat="37.991675" lon="16.0231267"><ele>544.5</ele><time>2026-04-12T12:35:08.959Z</time></trkpt><trkpt lat="37.9916033" lon="16.0231367"><ele>547.3333333333334</ele><time>2026-04-12T12:35:09.959Z</time></trkpt><trkpt lat="37.9915267" lon="16.0231383"><ele>550.1666666666667</ele><time>2026-04-12T12:35:10.959Z</time></trkpt><trkpt lat="37.991455" lon="16.0231433"><ele>553.0</ele><time>2026-04-12T12:35:11.959Z</time></trkpt><trkpt lat="37.99135" lon="16.02313"><ele>556.4</ele><time>2026-04-12T12:35:13.959Z</time></trkpt><trkpt lat="37.991265" lon="16.0231283"><ele>559.8</ele><time>2026-04-12T12:35:15.959Z</time></trkpt><trkpt lat="37.9911783" lon="16.0231417"><ele>563.2</ele><time>2026-04-12T12:35:17.959Z</time></trkpt><trkpt lat="37.9910533" lon="16.0231583"><ele>566.6</ele><time>2026-04-12T12:35:19.959Z</time></trkpt><trkpt lat="37.9909867" lon="16.0231683"><ele>570.0</ele><time>2026-04-12T12:35:20.959Z</time></trkpt><trkpt lat="37.9908767" lon="16.0231883"><ele>570.5</ele><time>2026-04-12T12:35:22.96Z</time></trkpt><trkpt lat="37.9908133" lon="16.0232283"><ele>571.0</ele><time>2026-04-12T12:35:24.959Z</time></trkpt><trkpt lat="37.9907617" lon="16.0233183"><ele>571.5</ele><time>2026-04-12T12:35:32.959Z</time></trkpt><trkpt lat="37.990685" lon="16.0234067"><ele>572.0</ele><time>2026-04-12T12:35:34.959Z</time></trkpt><trkpt lat="37.9906433" lon="16.0234683"><ele>572.5</ele><time>2026-04-12T12:35:35.96Z</time></trkpt><trkpt lat="37.9905583" lon="16.023545"><ele>573.0</ele><time>2026-04-12T12:35:37.96Z</time></trkpt><trkpt lat="37.9904917" lon="16.02354"><ele>573.0</ele><time>2026-04-12T12:35:39.959Z</time></trkpt><trkpt lat="37.9904467" lon="16.0234383"><ele>573.0</ele><time>2026-04-12T12:35:41.959Z</time></trkpt><trkpt lat="37.9904467" lon="16.0233583"><ele>573.0</ele><time>2026-04-12T12:35:42.959Z</time></trkpt><trkpt lat="37.9904517" lon="16.023275"><ele>573.0</ele><time>2026-04-12T12:35:43.959Z</time></trkpt><trkpt lat="37.9904617" lon="16.0231883"><ele>573.0</ele><time>2026-04-12T12:35:44.959Z</time></trkpt><trkpt lat="37.9904617" lon="16.0231033"><ele>573.0</ele><time>2026-04-12T12:35:45.959Z</time></trkpt><trkpt lat="37.9904517" lon="16.023015"><ele>573.0</ele><time>2026-04-12T12:35:46.959Z</time></trkpt><trkpt lat="37.9904417" lon="16.02293"><ele>573.0</ele><time>2026-04-12T12:35:47.959Z</time></trkpt><trkpt lat="37.99043" lon="16.02284"><ele>573.0</ele><time>2026-04-12T12:35:48.959Z</time></trkpt><trkpt lat="37.9904167" lon="16.0227533"><ele>573.0</ele><time>2026-04-12T12:35:49.959Z</time></trkpt><trkpt lat="37.9904083" lon="16.022665"><ele>573.0</ele><time>2026-04-12T12:35:50.959Z</time></trkpt><trkpt lat="37.9903967" lon="16.0225783"><ele>573.0</ele><time>2026-04-12T12:35:51.959Z</time></trkpt><trkpt lat="37.9903517" lon="16.022445"><ele>573.0</ele><time>2026-04-12T12:35:53.959Z</time></trkpt><trkpt lat="37.9903133" lon="16.0223767"><ele>572.5</ele><time>2026-04-12T12:35:54.959Z</time></trkpt><trkpt lat="37.9902683" lon="16.022315"><ele>572.0</ele><time>2026-04-12T12:35:55.959Z</time></trkpt><trkpt lat="37.9902167" lon="16.0222617"><ele>571.5</ele><time>2026-04-12T12:35:56.959Z</time></trkpt><trkpt lat="37.9901433" lon="16.0221717"><ele>571.0</ele><time>2026-04-12T12:35:58.959Z</time></trkpt><trkpt lat="37.9900767" lon="16.022075"><ele>570.5</ele><time>2026-04-12T12:36:13.96Z</time></trkpt><trkpt lat="37.9900217" lon="16.0219667"><ele>570.0</ele><time>2026-04-12T12:36:15.959Z</time></trkpt><trkpt lat="37.989965" lon="16.0219133"><ele>570.0</ele><time>2026-04-12T12:36:18.959Z</time></trkpt><trkpt lat="37.98991" lon="16.0218583"><ele>570.0</ele><time>2026-04-12T12:36:21.959Z</time></trkpt><trkpt lat="37.9898617" lon="16.02179"><ele>570.0</ele><time>2026-04-12T12:36:23.959Z</time></trkpt><trkpt lat="37.98982" lon="16.0217167"><ele>570.0</ele><time>2026-04-12T12:36:25.959Z</time></trkpt><trkpt lat="37.98978" lon="16.02162"><ele>570.0</ele><time>2026-04-12T12:36:27.959Z</time></trkpt><trkpt lat="37.989715" lon="16.0215133"><ele>570.0</ele><time>2026-04-12T12:36:29.96Z</time></trkpt><trkpt lat="37.98963" lon="16.0214367"><ele>574.2</ele><time>2026-04-12T12:36:31.959Z</time></trkpt><trkpt lat="37.9895283" lon="16.0213717"><ele>578.4</ele><time>2026-04-12T12:36:33.959Z</time></trkpt><trkpt lat="37.98945" lon="16.0213233"><ele>582.6</ele><time>2026-04-12T12:36:35.959Z</time></trkpt><trkpt lat="37.9893917" lon="16.0212583"><ele>586.8</ele><time>2026-04-12T12:36:37.96Z</time></trkpt><trkpt lat="37.9893583" lon="16.02113"><ele>591.0</ele><time>2026-04-12T12:36:39.959Z</time></trkpt><trkpt lat="37.98935" lon="16.0210433"><ele>591.0</ele><time>2026-04-12T12:36:40.959Z</time></trkpt><trkpt lat="37.98934" lon="16.0209533"><ele>591.0</ele><time>2026-04-12T12:36:41.96Z</time></trkpt><trkpt lat="37.9893317" lon="16.0208717"><ele>591.0</ele><time>2026-04-12T12:36:42.959Z</time></trkpt><trkpt lat="37.9893083" lon="16.020735"><ele>591.0</ele><time>2026-04-12T12:36:44.959Z</time></trkpt><trkpt lat="37.9892533" lon="16.0206617"><ele>591.0</ele><time>2026-04-12T12:36:46.959Z</time></trkpt><trkpt lat="37.989155" lon="16.0206183"><ele>591.0</ele><time>2026-04-12T12:36:48.959Z</time></trkpt><trkpt lat="37.989035" lon="16.020605"><ele>593.6</ele><time>2026-04-12T12:36:50.959Z</time></trkpt><trkpt lat="37.9889233" lon="16.0206167"><ele>596.2</ele><time>2026-04-12T12:36:52.959Z</time></trkpt><trkpt lat="37.98882" lon="16.02064"><ele>598.8</ele><time>2026-04-12T12:36:54.959Z</time></trkpt><trkpt lat="37.988715" lon="16.0206617"><ele>601.4</ele><time>2026-04-12T12:36:56.959Z</time></trkpt><trkpt lat="37.9886283" lon="16.0206967"><ele>604.0</ele><time>2026-04-12T12:36:58.959Z</time></trkpt><trkpt lat="37.98853" lon="16.02076"><ele>604.0</ele><time>2026-04-12T12:37:00.96Z</time></trkpt><trkpt lat="37.988435" lon="16.0208017"><ele>604.0</ele><time>2026-04-12T12:37:02.959Z</time></trkpt><trkpt lat="37.9883033" lon="16.0207467"><ele>604.0</ele><time>2026-04-12T12:37:04.96Z</time></trkpt><trkpt lat="37.9882117" lon="16.0207033"><ele>604.0</ele><time>2026-04-12T12:37:05.959Z</time></trkpt><trkpt lat="37.988125" lon="16.0206617"><ele>604.0</ele><time>2026-04-12T12:37:06.959Z</time></trkpt><trkpt lat="37.98805" lon="16.0206167"><ele>604.0</ele><time>2026-04-12T12:37:07.959Z</time></trkpt><trkpt lat="37.98797" lon="16.02058"><ele>604.0</ele><time>2026-04-12T12:37:08.96Z</time></trkpt><trkpt lat="37.9879" lon="16.02053"><ele>604.0</ele><time>2026-04-12T12:37:09.959Z</time></trkpt><trkpt lat="37.9878383" lon="16.0204733"><ele>604.0</ele><time>2026-04-12T12:37:10.96Z</time></trkpt><trkpt lat="37.9877817" lon="16.0204033"><ele>604.0</ele><time>2026-04-12T12:37:11.959Z</time></trkpt><trkpt lat="37.98773" lon="16.0203383"><ele>604.0</ele><time>2026-04-12T12:37:12.96Z</time></trkpt><trkpt lat="37.98764" lon="16.0202717"><ele>604.0</ele><time>2026-04-12T12:37:14.958Z</time></trkpt><trkpt lat="37.987545" lon="16.0201817"><ele>604.0</ele><time>2026-04-12T12:37:16.958Z</time></trkpt><trkpt lat="37.987495" lon="16.0201283"><ele>604.0</ele><time>2026-04-12T12:37:17.959Z</time></trkpt><trkpt lat="37.9874467" lon="16.0200767"><ele>604.0</ele><time>2026-04-12T12:37:18.958Z</time></trkpt><trkpt lat="37.98739" lon="16.0200367"><ele>604.0</ele><time>2026-04-12T12:37:19.958Z</time></trkpt><trkpt lat="37.987265" lon="16.019975"><ele>604.0</ele><time>2026-04-12T12:37:21.958Z</time></trkpt><trkpt lat="37.987195" lon="16.019955"><ele>602.2</ele><time>2026-04-12T12:37:22.958Z</time></trkpt><trkpt lat="37.9871083" lon="16.019945"><ele>600.4</ele><time>2026-04-12T12:37:23.958Z</time></trkpt><trkpt lat="37.987005" lon="16.019955"><ele>598.6</ele><time>2026-04-12T12:37:24.958Z</time></trkpt><trkpt lat="37.9869067" lon="16.019975"><ele>596.8</ele><time>2026-04-12T12:37:25.958Z</time></trkpt><trkpt lat="37.9868217" lon="16.0199983"><ele>595.0</ele><time>2026-04-12T12:37:26.958Z</time></trkpt><trkpt lat="37.9867367" lon="16.0200117"><ele>593.5</ele><time>2026-04-12T12:37:27.958Z</time></trkpt><trkpt lat="37.9866567" lon="16.0200083"><ele>592.0</ele><time>2026-04-12T12:37:28.958Z</time></trkpt><trkpt lat="37.9865783" lon="16.0199783"><ele>590.5</ele><time>2026-04-12T12:37:29.959Z</time></trkpt><trkpt lat="37.986505" lon="16.0199433"><ele>589.0</ele><time>2026-04-12T12:37:30.958Z</time></trkpt><trkpt lat="37.9864367" lon="16.01989"><ele>587.5</ele><time>2026-04-12T12:37:31.958Z</time></trkpt><trkpt lat="37.98639" lon="16.0198267"><ele>586.0</ele><time>2026-04-12T12:37:32.958Z</time></trkpt><trkpt lat="37.9863583" lon="16.019745"><ele>589.0</ele><time>2026-04-12T12:37:33.958Z</time></trkpt><trkpt lat="37.98633" lon="16.019665"><ele>592.0</ele><time>2026-04-12T12:37:34.958Z</time></trkpt><trkpt lat="37.986305" lon="16.019585"><ele>595.0</ele><time>2026-04-12T12:37:35.958Z</time></trkpt><trkpt lat="37.9862517" lon="16.01946"><ele>598.0</ele><time>2026-04-12T12:37:37.958Z</time></trkpt><trkpt lat="37.9861817" lon="16.0193833"><ele>601.0</ele><time>2026-04-12T12:37:39.958Z</time></trkpt><trkpt lat="37.9861017" lon="16.01934"><ele>604.0</ele><time>2026-04-12T12:37:41.958Z</time></trkpt><trkpt lat="37.986" lon="16.01932"><ele>604.0</ele><time>2026-04-12T12:37:43.958Z</time></trkpt><trkpt lat="37.985895" lon="16.01932"><ele>604.0</ele><time>2026-04-12T12:37:45.958Z</time></trkpt><trkpt lat="37.9857967" lon="16.0192917"><ele>604.0</ele><time>2026-04-12T12:37:47.958Z</time></trkpt><trkpt lat="37.9857383" lon="16.0192617"><ele>604.0</ele><time>2026-04-12T12:37:48.958Z</time></trkpt><trkpt lat="37.98568" lon="16.01922"><ele>604.0</ele><time>2026-04-12T12:37:49.959Z</time></trkpt><trkpt lat="37.9856233" lon="16.019175"><ele>604.0</ele><time>2026-04-12T12:37:50.958Z</time></trkpt><trkpt lat="37.9855217" lon="16.0190983"><ele>602.8333333333334</ele><time>2026-04-12T12:37:52.958Z</time></trkpt><trkpt lat="37.985475" lon="16.01904"><ele>601.6666666666667</ele><time>2026-04-12T12:37:53.958Z</time></trkpt><trkpt lat="37.9854333" lon="16.01898"><ele>600.5</ele><time>2026-04-12T12:37:54.958Z</time></trkpt><trkpt lat="37.98536" lon="16.018885"><ele>599.3333333333334</ele><time>2026-04-12T12:37:56.958Z</time></trkpt><trkpt lat="37.9853417" lon="16.0187967"><ele>598.1666666666666</ele><time>2026-04-12T12:37:58.958Z</time></trkpt><trkpt lat="37.9853683" lon="16.0186667"><ele>597.0</ele><time>2026-04-12T12:38:00.958Z</time></trkpt><trkpt lat="37.985375" lon="16.0185867"><ele>597.0</ele><time>2026-04-12T12:38:02.958Z</time></trkpt><trkpt lat="37.9853517" lon="16.0185033"><ele>597.0</ele><time>2026-04-12T12:38:06.958Z</time></trkpt><trkpt lat="37.9852317" lon="16.018435"><ele>597.0</ele><time>2026-04-12T12:38:17.958Z</time></trkpt><trkpt lat="37.985155" lon="16.0183967"><ele>597.0</ele><time>2026-04-12T12:38:18.958Z</time></trkpt><trkpt lat="37.9850883" lon="16.0183633"><ele>597.0</ele><time>2026-04-12T12:38:19.958Z</time></trkpt><trkpt lat="37.985025" lon="16.0183367"><ele>597.0</ele><time>2026-04-12T12:38:20.959Z</time></trkpt><trkpt lat="37.9849317" lon="16.0183417"><ele>595.2</ele><time>2026-04-12T12:38:22.958Z</time></trkpt><trkpt lat="37.9848667" lon="16.01841"><ele>593.4000000000001</ele><time>2026-04-12T12:38:24.959Z</time></trkpt><trkpt lat="37.98486" lon="16.01857"><ele>591.5999999999999</ele><time>2026-04-12T12:38:26.958Z</time></trkpt><trkpt lat="37.9848633" lon="16.0186717"><ele>589.8</ele><time>2026-04-12T12:38:27.958Z</time></trkpt><trkpt lat="37.9848667" lon="16.018775"><ele>588.0</ele><time>2026-04-12T12:38:28.958Z</time></trkpt><trkpt lat="37.98487" lon="16.018875"><ele>588.0</ele><time>2026-04-12T12:38:29.959Z</time></trkpt><trkpt lat="37.984875" lon="16.0189733"><ele>588.0</ele><time>2026-04-12T12:38:30.958Z</time></trkpt><trkpt lat="37.9848817" lon="16.0190567"><ele>588.0</ele><time>2026-04-12T12:38:31.958Z</time></trkpt><trkpt lat="37.9849017" lon="16.0191583"><ele>588.0</ele><time>2026-04-12T12:38:33.958Z</time></trkpt><trkpt lat="37.98483" lon="16.0191783"><ele>588.0</ele><time>2026-04-12T12:38:37.958Z</time></trkpt><trkpt lat="37.9848017" lon="16.01909"><ele>588.0</ele><time>2026-04-12T12:38:39.958Z</time></trkpt><trkpt lat="37.9847783" lon="16.0189583"><ele>588.0</ele><time>2026-04-12T12:38:41.958Z</time></trkpt><trkpt lat="37.9847267" lon="16.01891"><ele>588.0</ele><time>2026-04-12T12:38:44.958Z</time></trkpt><trkpt lat="37.98468" lon="16.01899"><ele>588.0</ele><time>2026-04-12T12:38:46.959Z</time></trkpt><trkpt lat="37.984655" lon="16.0190683"><ele>588.0</ele><time>2026-04-12T12:38:47.959Z</time></trkpt><trkpt lat="37.984625" lon="16.0191817"><ele>588.0</ele><time>2026-04-12T12:38:48.958Z</time></trkpt><trkpt lat="37.9846017" lon="16.0193283"><ele>588.0</ele><time>2026-04-12T12:38:49.958Z</time></trkpt><trkpt lat="37.984575" lon="16.0194633"><ele>587.0</ele><time>2026-04-12T12:38:50.958Z</time></trkpt><trkpt lat="37.9845417" lon="16.019595"><ele>586.0</ele><time>2026-04-12T12:38:51.959Z</time></trkpt><trkpt lat="37.9845167" lon="16.01971"><ele>585.0</ele><time>2026-04-12T12:38:52.958Z</time></trkpt><trkpt lat="37.9844983" lon="16.019825"><ele>584.0</ele><time>2026-04-12T12:38:53.958Z</time></trkpt><trkpt lat="37.984485" lon="16.01993"><ele>583.0</ele><time>2026-04-12T12:38:54.958Z</time></trkpt><trkpt lat="37.9844667" lon="16.02004"><ele>582.8333333333334</ele><time>2026-04-12T12:38:55.958Z</time></trkpt><trkpt lat="37.9844467" lon="16.0201467"><ele>582.6666666666667</ele><time>2026-04-12T12:38:56.958Z</time></trkpt><trkpt lat="37.9844183" lon="16.020255"><ele>582.5</ele><time>2026-04-12T12:38:57.958Z</time></trkpt><trkpt lat="37.98439" lon="16.0203583"><ele>582.3333333333334</ele><time>2026-04-12T12:38:58.958Z</time></trkpt><trkpt lat="37.9843717" lon="16.02047"><ele>582.1666666666666</ele><time>2026-04-12T12:38:59.958Z</time></trkpt><trkpt lat="37.9843633" lon="16.0205783"><ele>582.0</ele><time>2026-04-12T12:39:00.958Z</time></trkpt><trkpt lat="37.9843667" lon="16.0207083"><ele>581.6</ele><time>2026-04-12T12:39:01.958Z</time></trkpt><trkpt lat="37.9843717" lon="16.0208633"><ele>581.2</ele><time>2026-04-12T12:39:02.958Z</time></trkpt><trkpt lat="37.98438" lon="16.021015"><ele>580.8</ele><time>2026-04-12T12:39:03.958Z</time></trkpt><trkpt lat="37.9843917" lon="16.0211467"><ele>580.4</ele><time>2026-04-12T12:39:04.958Z</time></trkpt><trkpt lat="37.98439" lon="16.0212633"><ele>580.0</ele><time>2026-04-12T12:39:05.958Z</time></trkpt><trkpt lat="37.984365" lon="16.021375"><ele>580.0</ele><time>2026-04-12T12:39:06.959Z</time></trkpt><trkpt lat="37.9843383" lon="16.0214983"><ele>580.0</ele><time>2026-04-12T12:39:07.958Z</time></trkpt><trkpt lat="37.9843067" lon="16.0216417"><ele>580.0</ele><time>2026-04-12T12:39:08.958Z</time></trkpt><trkpt lat="37.984275" lon="16.021805"><ele>580.0</ele><time>2026-04-12T12:39:09.958Z</time></trkpt><trkpt lat="37.9842467" lon="16.021955"><ele>579.3333333333334</ele><time>2026-04-12T12:39:10.958Z</time></trkpt><trkpt lat="37.9842217" lon="16.0220867"><ele>578.6666666666667</ele><time>2026-04-12T12:39:11.958Z</time></trkpt><trkpt lat="37.9841983" lon="16.0222083"><ele>578.0</ele><time>2026-04-12T12:39:12.958Z</time></trkpt><trkpt lat="37.98417" lon="16.022315"><ele>577.3333333333334</ele><time>2026-04-12T12:39:13.958Z</time></trkpt><trkpt lat="37.9841333" lon="16.0224033"><ele>576.6666666666666</ele><time>2026-04-12T12:39:14.959Z</time></trkpt><trkpt lat="37.9840883" lon="16.02248"><ele>576.0</ele><time>2026-04-12T12:39:15.959Z</time></trkpt><trkpt lat="37.984055" lon="16.0225517"><ele>580.5</ele><time>2026-04-12T12:39:16.958Z</time></trkpt><trkpt lat="37.98402" lon="16.02263"><ele>585.0</ele><time>2026-04-12T12:39:17.958Z</time></trkpt><trkpt lat="37.9839933" lon="16.0227217"><ele>589.5</ele><time>2026-04-12T12:39:18.959Z</time></trkpt><trkpt lat="37.9839783" lon="16.0228183"><ele>594.0</ele><time>2026-04-12T12:39:19.958Z</time></trkpt><trkpt lat="37.9839817" lon="16.0229283"><ele>598.5</ele><time>2026-04-12T12:39:20.958Z</time></trkpt><trkpt lat="37.984005" lon="16.0230367"><ele>603.0</ele><time>2026-04-12T12:39:21.959Z</time></trkpt><trkpt lat="37.9840217" lon="16.02314"><ele>603.0</ele><time>2026-04-12T12:39:22.958Z</time></trkpt><trkpt lat="37.9840333" lon="16.023245"><ele>603.0</ele><time>2026-04-12T12:39:23.958Z</time></trkpt><trkpt lat="37.9840417" lon="16.02334"><ele>603.0</ele><time>2026-04-12T12:39:24.958Z</time></trkpt><trkpt lat="37.9840533" lon="16.0234317"><ele>603.0</ele><time>2026-04-12T12:39:25.958Z</time></trkpt><trkpt lat="37.98406" lon="16.0235383"><ele>603.0</ele><time>2026-04-12T12:39:26.958Z</time></trkpt><trkpt lat="37.984055" lon="16.0236517"><ele>603.0</ele><time>2026-04-12T12:39:27.958Z</time></trkpt><trkpt lat="37.9840533" lon="16.023765"><ele>601.0</ele><time>2026-04-12T12:39:28.958Z</time></trkpt><trkpt lat="37.984045" lon="16.0238783"><ele>599.0</ele><time>2026-04-12T12:39:29.958Z</time></trkpt><trkpt lat="37.984045" lon="16.0239867"><ele>597.0</ele><time>2026-04-12T12:39:30.958Z</time></trkpt><trkpt lat="37.9840383" lon="16.024095"><ele>595.0</ele><time>2026-04-12T12:39:31.958Z</time></trkpt><trkpt lat="37.9840267" lon="16.0241833"><ele>593.0</ele><time>2026-04-12T12:39:32.958Z</time></trkpt><trkpt lat="37.9840033" lon="16.02426"><ele>591.0</ele><time>2026-04-12T12:39:33.958Z</time></trkpt><trkpt lat="37.9839717" lon="16.0243333"><ele>589.0</ele><time>2026-04-12T12:39:34.958Z</time></trkpt><trkpt lat="37.98392" lon="16.024405"><ele>587.0</ele><time>2026-04-12T12:39:35.959Z</time></trkpt><trkpt lat="37.98387" lon="16.0244633"><ele>585.0</ele><time>2026-04-12T12:39:36.958Z</time></trkpt><trkpt lat="37.983815" lon="16.0245067"><ele>583.0</ele><time>2026-04-12T12:39:37.959Z</time></trkpt><trkpt lat="37.983705" lon="16.02455"><ele>581.0</ele><time>2026-04-12T12:39:39.959Z</time></trkpt><trkpt lat="37.9836383" lon="16.0245583"><ele>579.0</ele><time>2026-04-12T12:39:40.958Z</time></trkpt><trkpt lat="37.98356" lon="16.02456"><ele>579.0</ele><time>2026-04-12T12:39:41.958Z</time></trkpt><trkpt lat="37.9834867" lon="16.02456"><ele>579.0</ele><time>2026-04-12T12:39:42.958Z</time></trkpt><trkpt lat="37.98341" lon="16.0245467"><ele>579.0</ele><time>2026-04-12T12:39:43.958Z</time></trkpt><trkpt lat="37.9833367" lon="16.0245167"><ele>579.0</ele><time>2026-04-12T12:39:44.958Z</time></trkpt><trkpt lat="37.983265" lon="16.0244733"><ele>579.0</ele><time>2026-04-12T12:39:45.958Z</time></trkpt><trkpt lat="37.9831833" lon="16.0244183"><ele>579.0</ele><time>2026-04-12T12:39:46.959Z</time></trkpt><trkpt lat="37.9830933" lon="16.024355"><ele>582.1666666666666</ele><time>2026-04-12T12:39:47.958Z</time></trkpt><trkpt lat="37.9830317" lon="16.02428"><ele>585.3333333333334</ele><time>2026-04-12T12:39:48.958Z</time></trkpt><trkpt lat="37.98297" lon="16.0242183"><ele>588.5</ele><time>2026-04-12T12:39:49.958Z</time></trkpt><trkpt lat="37.9829133" lon="16.0241767"><ele>591.6666666666667</ele><time>2026-04-12T12:39:50.958Z</time></trkpt><trkpt lat="37.9828517" lon="16.0241567"><ele>594.8333333333334</ele><time>2026-04-12T12:39:51.959Z</time></trkpt><trkpt lat="37.9827317" lon="16.0241983"><ele>598.0</ele><time>2026-04-12T12:39:53.958Z</time></trkpt><trkpt lat="37.9826567" lon="16.0242433"><ele>598.0</ele><time>2026-04-12T12:39:54.958Z</time></trkpt><trkpt lat="37.982565" lon="16.0242917"><ele>598.0</ele><time>2026-04-12T12:39:55.958Z</time></trkpt><trkpt lat="37.982465" lon="16.024325"><ele>598.0</ele><time>2026-04-12T12:39:56.958Z</time></trkpt><trkpt lat="37.9823617" lon="16.02435"><ele>598.0</ele><time>2026-04-12T12:39:57.959Z</time></trkpt><trkpt lat="37.982265" lon="16.0243633"><ele>598.0</ele><time>2026-04-12T12:39:58.958Z</time></trkpt><trkpt lat="37.9821833" lon="16.0243717"><ele>599.5</ele><time>2026-04-12T12:39:59.958Z</time></trkpt><trkpt lat="37.9820967" lon="16.02435"><ele>601.0</ele><time>2026-04-12T12:40:01.958Z</time></trkpt><trkpt lat="37.9821083" lon="16.02427"><ele>602.5</ele><time>2026-04-12T12:42:32.958Z</time></trkpt><trkpt lat="37.9821717" lon="16.02422"><ele>604.0</ele><time>2026-04-12T12:42:34.959Z</time></trkpt><trkpt lat="37.9822567" lon="16.02417"><ele>605.5</ele><time>2026-04-12T12:42:36.958Z</time></trkpt><trkpt lat="37.9823117" lon="16.0241217"><ele>607.0</ele><time>2026-04-12T12:42:37.959Z</time></trkpt><trkpt lat="37.98238" lon="16.02406"><ele>609.6666666666667</ele><time>2026-04-12T12:42:38.959Z</time></trkpt><trkpt lat="37.9824433" lon="16.0239817"><ele>612.3333333333334</ele><time>2026-04-12T12:42:39.959Z</time></trkpt><trkpt lat="37.982505" lon="16.0239233"><ele>615.0</ele><time>2026-04-12T12:42:40.959Z</time></trkpt><trkpt lat="37.98259" lon="16.0238267"><ele>617.6666666666666</ele><time>2026-04-12T12:42:42.958Z</time></trkpt><trkpt lat="37.9826067" lon="16.0237383"><ele>620.3333333333333</ele><time>2026-04-12T12:42:45.958Z</time></trkpt><trkpt lat="37.982515" lon="16.0237583"><ele>623.0</ele><time>2026-04-12T12:42:47.959Z</time></trkpt><trkpt lat="37.98245" lon="16.023785"><ele>625.1666666666666</ele><time>2026-04-12T12:42:48.959Z</time></trkpt><trkpt lat="37.982385" lon="16.02381"><ele>627.3333333333333</ele><time>2026-04-12T12:42:49.958Z</time></trkpt><trkpt lat="37.9823233" lon="16.02383"><ele>629.5</ele><time>2026-04-12T12:42:50.958Z</time></trkpt><trkpt lat="37.98226" lon="16.0238483"><ele>631.6666666666666</ele><time>2026-04-12T12:42:51.959Z</time></trkpt><trkpt lat="37.9821417" lon="16.0238583"><ele>633.8333333333334</ele><time>2026-04-12T12:42:53.958Z</time></trkpt><trkpt lat="37.9820733" lon="16.02385"><ele>636.0</ele><time>2026-04-12T12:42:54.958Z</time></trkpt><trkpt lat="37.98201" lon="16.0238183"><ele>636.0</ele><time>2026-04-12T12:42:55.958Z</time></trkpt><trkpt lat="37.9819433" lon="16.0237783"><ele>636.0</ele><time>2026-04-12T12:42:56.958Z</time></trkpt><trkpt lat="37.9818717" lon="16.023735"><ele>636.0</ele><time>2026-04-12T12:42:57.958Z</time></trkpt><trkpt lat="37.9817967" lon="16.02366"><ele>636.0</ele><time>2026-04-12T12:42:58.959Z</time></trkpt><trkpt lat="37.98172" lon="16.0236"><ele>636.0</ele><time>2026-04-12T12:42:59.958Z</time></trkpt><trkpt lat="37.9816483" lon="16.0235417"><ele>636.0</ele><time>2026-04-12T12:43:00.958Z</time></trkpt><trkpt lat="37.9815617" lon="16.0235067"><ele>637.4</ele><time>2026-04-12T12:43:01.959Z</time></trkpt><trkpt lat="37.98148" lon="16.0234733"><ele>638.8</ele><time>2026-04-12T12:43:02.959Z</time></trkpt><trkpt lat="37.9813967" lon="16.0234533"><ele>640.1999999999999</ele><time>2026-04-12T12:43:03.958Z</time></trkpt><trkpt lat="37.9812983" lon="16.0234517"><ele>641.6</ele><time>2026-04-12T12:43:04.958Z</time></trkpt><trkpt lat="37.9811983" lon="16.0234567"><ele>643.0</ele><time>2026-04-12T12:43:05.958Z</time></trkpt><trkpt lat="37.9810817" lon="16.023465"><ele>643.0</ele><time>2026-04-12T12:43:06.958Z</time></trkpt><trkpt lat="37.9809483" lon="16.0234817"><ele>643.0</ele><time>2026-04-12T12:43:07.958Z</time></trkpt><trkpt lat="37.9808317" lon="16.0235117"><ele>643.0</ele><time>2026-04-12T12:43:08.958Z</time></trkpt><trkpt lat="37.98073" lon="16.0235317"><ele>643.0</ele><time>2026-04-12T12:43:09.958Z</time></trkpt><trkpt lat="37.9806267" lon="16.0235433"><ele>643.0</ele><time>2026-04-12T12:43:10.958Z</time></trkpt><trkpt lat="37.9805317" lon="16.0235633"><ele>643.0</ele><time>2026-04-12T12:43:11.959Z</time></trkpt><trkpt lat="37.9804333" lon="16.023575"><ele>643.0</ele><time>2026-04-12T12:43:12.958Z</time></trkpt><trkpt lat="37.9803333" lon="16.0235983"><ele>643.0</ele><time>2026-04-12T12:43:13.958Z</time></trkpt><trkpt lat="37.98025" lon="16.023625"><ele>643.0</ele><time>2026-04-12T12:43:14.958Z</time></trkpt><trkpt lat="37.9801783" lon="16.0236517"><ele>643.0</ele><time>2026-04-12T12:43:15.958Z</time></trkpt><trkpt lat="37.9800767" lon="16.023685"><ele>643.0</ele><time>2026-04-12T12:43:17.958Z</time></trkpt><trkpt lat="37.9799917" lon="16.0237233"><ele>643.0</ele><time>2026-04-12T12:43:20.958Z</time></trkpt><trkpt lat="37.9799067" lon="16.0237767"><ele>643.0</ele><time>2026-04-12T12:43:22.958Z</time></trkpt><trkpt lat="37.979825" lon="16.02384"><ele>643.0</ele><time>2026-04-12T12:43:24.958Z</time></trkpt><trkpt lat="37.9799133" lon="16.0236983"><ele>643.0</ele><time>2026-04-12T12:43:30.958Z</time></trkpt><trkpt lat="37.9799867" lon="16.0236367"><ele>643.0</ele><time>2026-04-12T12:43:31.958Z</time></trkpt><trkpt lat="37.9800583" lon="16.0235333"><ele>643.0</ele><time>2026-04-12T12:43:33.959Z</time></trkpt><trkpt lat="37.9800633" lon="16.0234367"><ele>643.0</ele><time>2026-04-12T12:43:35.958Z</time></trkpt><trkpt lat="37.9799783" lon="16.02342"><ele>643.0</ele><time>2026-04-12T12:43:38.959Z</time></trkpt><trkpt lat="37.9798617" lon="16.0235067"><ele>644.3333333333334</ele><time>2026-04-12T12:43:40.958Z</time></trkpt><trkpt lat="37.9797967" lon="16.02355"><ele>645.6666666666667</ele><time>2026-04-12T12:43:41.958Z</time></trkpt><trkpt lat="37.9797317" lon="16.023575"><ele>647.0</ele><time>2026-04-12T12:43:42.958Z</time></trkpt><trkpt lat="37.979625" lon="16.023565"><ele>648.3333333333334</ele><time>2026-04-12T12:43:44.958Z</time></trkpt><trkpt lat="37.97958" lon="16.0234717"><ele>649.6666666666666</ele><time>2026-04-12T12:43:46.958Z</time></trkpt><trkpt lat="37.979605" lon="16.0233317"><ele>651.0</ele><time>2026-04-12T12:43:48.959Z</time></trkpt><trkpt lat="37.9796317" lon="16.0232533"><ele>652.0</ele><time>2026-04-12T12:43:49.958Z</time></trkpt><trkpt lat="37.97967" lon="16.0231683"><ele>653.0</ele><time>2026-04-12T12:43:50.959Z</time></trkpt><trkpt lat="37.9797033" lon="16.0230783"><ele>654.0</ele><time>2026-04-12T12:43:51.958Z</time></trkpt><trkpt lat="37.979745" lon="16.0229967"><ele>655.0</ele><time>2026-04-12T12:43:52.958Z</time></trkpt><trkpt lat="37.9797933" lon="16.022915"><ele>656.0</ele><time>2026-04-12T12:43:53.958Z</time></trkpt><trkpt lat="37.9798617" lon="16.022845"><ele>657.0</ele><time>2026-04-12T12:43:54.958Z</time></trkpt><trkpt lat="37.9799283" lon="16.0227783"><ele>657.0</ele><time>2026-04-12T12:43:55.958Z</time></trkpt><trkpt lat="37.97999" lon="16.0227117"><ele>657.0</ele><time>2026-04-12T12:43:56.959Z</time></trkpt><trkpt lat="37.9800383" lon="16.0226417"><ele>657.0</ele><time>2026-04-12T12:43:57.958Z</time></trkpt><trkpt lat="37.9800667" lon="16.0225583"><ele>657.0</ele><time>2026-04-12T12:43:58.958Z</time></trkpt><trkpt lat="37.9800817" lon="16.0224517"><ele>657.0</ele><time>2026-04-12T12:43:59.958Z</time></trkpt><trkpt lat="37.9800833" lon="16.0223433"><ele>657.0</ele><time>2026-04-12T12:44:00.959Z</time></trkpt><trkpt lat="37.98008" lon="16.0222517"><ele>660.1666666666666</ele><time>2026-04-12T12:44:01.959Z</time></trkpt><trkpt lat="37.9801067" lon="16.0221067"><ele>663.3333333333334</ele><time>2026-04-12T12:44:03.958Z</time></trkpt><trkpt lat="37.98015" lon="16.0220417"><ele>666.5</ele><time>2026-04-12T12:44:04.958Z</time></trkpt><trkpt lat="37.9802133" lon="16.0219867"><ele>669.6666666666667</ele><time>2026-04-12T12:44:05.958Z</time></trkpt><trkpt lat="37.9802867" lon="16.021935"><ele>672.8333333333334</ele><time>2026-04-12T12:44:06.959Z</time></trkpt><trkpt lat="37.98035" lon="16.0218733"><ele>676.0</ele><time>2026-04-12T12:44:07.958Z</time></trkpt><trkpt lat="37.980405" lon="16.02179"><ele>676.0</ele><time>2026-04-12T12:44:08.958Z</time></trkpt><trkpt lat="37.9804617" lon="16.0216817"><ele>676.0</ele><time>2026-04-12T12:44:09.959Z</time></trkpt><trkpt lat="37.9805233" lon="16.0215783"><ele>676.0</ele><time>2026-04-12T12:44:10.958Z</time></trkpt><trkpt lat="37.98057" lon="16.021495"><ele>676.0</ele><time>2026-04-12T12:44:11.958Z</time></trkpt><trkpt lat="37.9806217" lon="16.0214183"><ele>676.0</ele><time>2026-04-12T12:44:12.958Z</time></trkpt><trkpt lat="37.98068" lon="16.021345"><ele>676.0</ele><time>2026-04-12T12:44:13.958Z</time></trkpt><trkpt lat="37.9807467" lon="16.021275"><ele>676.3333333333334</ele><time>2026-04-12T12:44:14.958Z</time></trkpt><trkpt lat="37.9808117" lon="16.021215"><ele>676.6666666666667</ele><time>2026-04-12T12:44:15.958Z</time></trkpt><trkpt lat="37.98086" lon="16.0211617"><ele>677.0</ele><time>2026-04-12T12:44:16.958Z</time></trkpt><trkpt lat="37.9809183" lon="16.021075"><ele>677.3333333333334</ele><time>2026-04-12T12:44:18.958Z</time></trkpt><trkpt lat="37.9809217" lon="16.020975"><ele>677.6666666666666</ele><time>2026-04-12T12:44:20.958Z</time></trkpt><trkpt lat="37.9809017" lon="16.0208283"><ele>678.0</ele><time>2026-04-12T12:44:22.958Z</time></trkpt><trkpt lat="37.980895" lon="16.0207367"><ele>674.4</ele><time>2026-04-12T12:44:24.958Z</time></trkpt><trkpt lat="37.9809783" lon="16.02069"><ele>670.8</ele><time>2026-04-12T12:44:27.958Z</time></trkpt><trkpt lat="37.98111" lon="16.0207083"><ele>667.2</ele><time>2026-04-12T12:44:29.958Z</time></trkpt><trkpt lat="37.9811983" lon="16.0207217"><ele>663.6</ele><time>2026-04-12T12:44:30.958Z</time></trkpt><trkpt lat="37.9812917" lon="16.020715"><ele>660.0</ele><time>2026-04-12T12:44:31.958Z</time></trkpt><trkpt lat="37.98138" lon="16.02069"><ele>660.0</ele><time>2026-04-12T12:44:32.958Z</time></trkpt><trkpt lat="37.981465" lon="16.020655"><ele>660.0</ele><time>2026-04-12T12:44:33.958Z</time></trkpt><trkpt lat="37.9815433" lon="16.0206033"><ele>660.0</ele><time>2026-04-12T12:44:34.959Z</time></trkpt><trkpt lat="37.981605" lon="16.0205333"><ele>660.0</ele><time>2026-04-12T12:44:35.959Z</time></trkpt><trkpt lat="37.9816533" lon="16.0204517"><ele>660.0</ele><time>2026-04-12T12:44:36.958Z</time></trkpt><trkpt lat="37.98169" lon="16.0203633"><ele>660.0</ele><time>2026-04-12T12:44:37.958Z</time></trkpt><trkpt lat="37.9817217" lon="16.0202917"><ele>662.8333333333334</ele><time>2026-04-12T12:44:38.959Z</time></trkpt><trkpt lat="37.9817933" lon="16.020205"><ele>665.6666666666666</ele><time>2026-04-12T12:44:40.958Z</time></trkpt><trkpt lat="37.9818967" lon="16.0202433"><ele>668.5</ele><time>2026-04-12T12:44:42.958Z</time></trkpt><trkpt lat="37.981945" lon="16.0203117"><ele>671.3333333333333</ele><time>2026-04-12T12:44:43.958Z</time></trkpt><trkpt lat="37.9819767" lon="16.0204133"><ele>674.1666666666666</ele><time>2026-04-12T12:44:44.959Z</time></trkpt><trkpt lat="37.9820067" lon="16.0205083"><ele>677.0</ele><time>2026-04-12T12:44:45.958Z</time></trkpt><trkpt lat="37.9820467" lon="16.0206333"><ele>677.0</ele><time>2026-04-12T12:44:47.958Z</time></trkpt><trkpt lat="37.9821133" lon="16.0206383"><ele>677.0</ele><time>2026-04-12T12:44:49.958Z</time></trkpt><trkpt lat="37.982165" lon="16.02057"><ele>677.0</ele><time>2026-04-12T12:44:50.959Z</time></trkpt><trkpt lat="37.9822217" lon="16.02046"><ele>677.0</ele><time>2026-04-12T12:44:51.958Z</time></trkpt><trkpt lat="37.982275" lon="16.02034"><ele>677.0</ele><time>2026-04-12T12:44:52.958Z</time></trkpt><trkpt lat="37.982325" lon="16.020225"><ele>677.0</ele><time>2026-04-12T12:44:53.958Z</time></trkpt><trkpt lat="37.9823483" lon="16.0201117"><ele>677.0</ele><time>2026-04-12T12:44:54.959Z</time></trkpt><trkpt lat="37.98237" lon="16.0200217"><ele>677.0</ele><time>2026-04-12T12:44:55.958Z</time></trkpt><trkpt lat="37.9823833" lon="16.0199367"><ele>677.0</ele><time>2026-04-12T12:44:56.959Z</time></trkpt><trkpt lat="37.98244" lon="16.0198033"><ele>677.0</ele><time>2026-04-12T12:44:58.958Z</time></trkpt><trkpt lat="37.9824983" lon="16.0197367"><ele>677.0</ele><time>2026-04-12T12:44:59.958Z</time></trkpt><trkpt lat="37.9825633" lon="16.0196817"><ele>675.7142857142857</ele><time>2026-04-12T12:45:00.958Z</time></trkpt><trkpt lat="37.9826167" lon="16.019605"><ele>674.4285714285714</ele><time>2026-04-12T12:45:01.958Z</time></trkpt><trkpt lat="37.9826467" lon="16.0195267"><ele>673.1428571428571</ele><time>2026-04-12T12:45:02.958Z</time></trkpt><trkpt lat="37.9826583" lon="16.0194367"><ele>671.8571428571429</ele><time>2026-04-12T12:45:03.959Z</time></trkpt><trkpt lat="37.9826567" lon="16.0193517"><ele>670.5714285714286</ele><time>2026-04-12T12:45:04.958Z</time></trkpt><trkpt lat="37.9826633" lon="16.0192667"><ele>669.2857142857142</ele><time>2026-04-12T12:45:05.959Z</time></trkpt><trkpt lat="37.98268" lon="16.0191683"><ele>668.0</ele><time>2026-04-12T12:45:06.958Z</time></trkpt><trkpt lat="37.9827133" lon="16.019065"><ele>667.5</ele><time>2026-04-12T12:45:07.959Z</time></trkpt><trkpt lat="37.98276" lon="16.0189183"><ele>667.0</ele><time>2026-04-12T12:45:08.958Z</time></trkpt><trkpt lat="37.982805" lon="16.0187767"><ele>666.5</ele><time>2026-04-12T12:45:09.958Z</time></trkpt><trkpt lat="37.9828617" lon="16.0186383"><ele>666.0</ele><time>2026-04-12T12:45:10.958Z</time></trkpt><trkpt lat="37.982895" lon="16.0185033"><ele>666.0</ele><time>2026-04-12T12:45:11.958Z</time></trkpt><trkpt lat="37.9829133" lon="16.01836"><ele>666.0</ele><time>2026-04-12T12:45:12.958Z</time></trkpt><trkpt lat="37.9829267" lon="16.0181983"><ele>666.0</ele><time>2026-04-12T12:45:13.958Z</time></trkpt><trkpt lat="37.98295" lon="16.0180267"><ele>666.0</ele><time>2026-04-12T12:45:14.958Z</time></trkpt><trkpt lat="37.98298" lon="16.0178367"><ele>666.5</ele><time>2026-04-12T12:45:15.958Z</time></trkpt><trkpt lat="37.983005" lon="16.01767"><ele>667.0</ele><time>2026-04-12T12:45:16.959Z</time></trkpt><trkpt lat="37.9830217" lon="16.0175017"><ele>667.5</ele><time>2026-04-12T12:45:17.958Z</time></trkpt><trkpt lat="37.9830533" lon="16.017345"><ele>668.0</ele><time>2026-04-12T12:45:18.958Z</time></trkpt><trkpt lat="37.9830917" lon="16.017195"><ele>668.5</ele><time>2026-04-12T12:45:19.958Z</time></trkpt><trkpt lat="37.9831267" lon="16.017055"><ele>669.0</ele><time>2026-04-12T12:45:20.959Z</time></trkpt><trkpt lat="37.983165" lon="16.0169133"><ele>669.5</ele><time>2026-04-12T12:45:21.959Z</time></trkpt><trkpt lat="37.983185" lon="16.0167733"><ele>670.0</ele><time>2026-04-12T12:45:22.958Z</time></trkpt><trkpt lat="37.9832117" lon="16.0166383"><ele>670.0</ele><time>2026-04-12T12:45:23.958Z</time></trkpt><trkpt lat="37.983245" lon="16.0165033"><ele>670.0</ele><time>2026-04-12T12:45:24.958Z</time></trkpt><trkpt lat="37.9832883" lon="16.0163683"><ele>670.0</ele><time>2026-04-12T12:45:25.958Z</time></trkpt><trkpt lat="37.9833333" lon="16.0162317"><ele>670.0</ele><time>2026-04-12T12:45:26.958Z</time></trkpt><trkpt lat="37.9833983" lon="16.0160833"><ele>668.0</ele><time>2026-04-12T12:45:27.959Z</time></trkpt><trkpt lat="37.9834483" lon="16.0159383"><ele>666.0</ele><time>2026-04-12T12:45:28.958Z</time></trkpt><trkpt lat="37.9834883" lon="16.0157717"><ele>664.0</ele><time>2026-04-12T12:45:29.959Z</time></trkpt><trkpt lat="37.9835083" lon="16.0155967"><ele>662.0</ele><time>2026-04-12T12:45:30.958Z</time></trkpt><trkpt lat="37.98351" lon="16.0154083"><ele>667.0</ele><time>2026-04-12T12:45:31.958Z</time></trkpt><trkpt lat="37.9835" lon="16.0152217"><ele>672.0</ele><time>2026-04-12T12:45:32.958Z</time></trkpt><trkpt lat="37.9834967" lon="16.0150633"><ele>677.0</ele><time>2026-04-12T12:45:33.958Z</time></trkpt><trkpt lat="37.9835017" lon="16.01496"><ele>682.0</ele><time>2026-04-12T12:45:34.958Z</time></trkpt><trkpt lat="37.9835483" lon="16.01482"><ele>684.8</ele><time>2026-04-12T12:45:36.959Z</time></trkpt><trkpt lat="37.9836017" lon="16.0147367"><ele>687.6</ele><time>2026-04-12T12:45:37.958Z</time></trkpt><trkpt lat="37.98367" lon="16.0146317"><ele>690.4</ele><time>2026-04-12T12:45:38.959Z</time></trkpt><trkpt lat="37.9837467" lon="16.01451"><ele>693.1999999999999</ele><time>2026-04-12T12:45:39.958Z</time></trkpt><trkpt lat="37.98382" lon="16.0143717"><ele>696.0</ele><time>2026-04-12T12:45:40.958Z</time></trkpt><trkpt lat="37.9838883" lon="16.0142417"><ele>698.1666666666666</ele><time>2026-04-12T12:45:41.958Z</time></trkpt><trkpt lat="37.9839367" lon="16.014125"><ele>700.3333333333334</ele><time>2026-04-12T12:45:42.958Z</time></trkpt><trkpt lat="37.9839767" lon="16.0140267"><ele>702.5</ele><time>2026-04-12T12:45:43.958Z</time></trkpt><trkpt lat="37.983995" lon="16.013925"><ele>704.6666666666667</ele><time>2026-04-12T12:45:44.959Z</time></trkpt><trkpt lat="37.983995" lon="16.0138283"><ele>706.8333333333334</ele><time>2026-04-12T12:45:45.958Z</time></trkpt><trkpt lat="37.9839783" lon="16.0137367"><ele>709.0</ele><time>2026-04-12T12:45:46.958Z</time></trkpt><trkpt lat="37.9839417" lon="16.0136317"><ele>709.0</ele><time>2026-04-12T12:45:47.958Z</time></trkpt><trkpt lat="37.983895" lon="16.01351"><ele>709.0</ele><time>2026-04-12T12:45:48.959Z</time></trkpt><trkpt lat="37.9838417" lon="16.0133633"><ele>709.0</ele><time>2026-04-12T12:45:49.958Z</time></trkpt><trkpt lat="37.983795" lon="16.013205"><ele>709.0</ele><time>2026-04-12T12:45:50.959Z</time></trkpt><trkpt lat="37.983745" lon="16.01307"><ele>707.8333333333334</ele><time>2026-04-12T12:45:51.958Z</time></trkpt><trkpt lat="37.9836983" lon="16.01295"><ele>706.6666666666667</ele><time>2026-04-12T12:45:52.958Z</time></trkpt><trkpt lat="37.9836667" lon="16.0128583"><ele>705.5</ele><time>2026-04-12T12:45:53.958Z</time></trkpt><trkpt lat="37.9836517" lon="16.0127767"><ele>704.3333333333334</ele><time>2026-04-12T12:45:54.959Z</time></trkpt><trkpt lat="37.9836917" lon="16.0126383"><ele>703.1666666666666</ele><time>2026-04-12T12:45:56.958Z</time></trkpt><trkpt lat="37.9837433" lon="16.0125783"><ele>702.0</ele><time>2026-04-12T12:45:57.958Z</time></trkpt><trkpt lat="37.9838083" lon="16.012535"><ele>702.0</ele><time>2026-04-12T12:45:58.958Z</time></trkpt><trkpt lat="37.9838967" lon="16.0125033"><ele>702.0</ele><time>2026-04-12T12:45:59.958Z</time></trkpt><trkpt lat="37.9840083" lon="16.0124733"><ele>702.0</ele><time>2026-04-12T12:46:00.958Z</time></trkpt><trkpt lat="37.98413" lon="16.012435"><ele>702.0</ele><time>2026-04-12T12:46:01.958Z</time></trkpt><trkpt lat="37.984245" lon="16.0124"><ele>701.8333333333334</ele><time>2026-04-12T12:46:02.958Z</time></trkpt><trkpt lat="37.9843533" lon="16.0123617"><ele>701.6666666666666</ele><time>2026-04-12T12:46:03.958Z</time></trkpt><trkpt lat="37.9844483" lon="16.012325"><ele>701.5</ele><time>2026-04-12T12:46:04.958Z</time></trkpt><trkpt lat="37.9845283" lon="16.0122933"><ele>701.3333333333333</ele><time>2026-04-12T12:46:05.958Z</time></trkpt><trkpt lat="37.9846067" lon="16.01226"><ele>701.1666666666666</ele><time>2026-04-12T12:46:06.959Z</time></trkpt><trkpt lat="37.9846683" lon="16.0122233"><ele>701.0</ele><time>2026-04-12T12:46:07.958Z</time></trkpt><trkpt lat="37.9847183" lon="16.01217"><ele>701.0</ele><time>2026-04-12T12:46:08.958Z</time></trkpt><trkpt lat="37.9847617" lon="16.0121083"><ele>701.0</ele><time>2026-04-12T12:46:09.959Z</time></trkpt><trkpt lat="37.9848067" lon="16.0120367"><ele>701.0</ele><time>2026-04-12T12:46:10.958Z</time></trkpt><trkpt lat="37.9848517" lon="16.01194"><ele>701.0</ele><time>2026-04-12T12:46:11.958Z</time></trkpt><trkpt lat="37.9848967" lon="16.01183"><ele>701.0</ele><time>2026-04-12T12:46:12.958Z</time></trkpt><trkpt lat="37.9849283" lon="16.0117217"><ele>701.0</ele><time>2026-04-12T12:46:13.959Z</time></trkpt><trkpt lat="37.9849333" lon="16.0116133"><ele>698.8333333333333</ele><time>2026-04-12T12:46:14.958Z</time></trkpt><trkpt lat="37.9849383" lon="16.0115033"><ele>696.6666666666666</ele><time>2026-04-12T12:46:15.958Z</time></trkpt><trkpt lat="37.984945" lon="16.011395"><ele>694.5</ele><time>2026-04-12T12:46:16.958Z</time></trkpt><trkpt lat="37.9849567" lon="16.0112983"><ele>692.3333333333334</ele><time>2026-04-12T12:46:17.959Z</time></trkpt><trkpt lat="37.984985" lon="16.011225"><ele>690.1666666666667</ele><time>2026-04-12T12:46:18.958Z</time></trkpt><trkpt lat="37.9850267" lon="16.0111533"><ele>688.0</ele><time>2026-04-12T12:46:19.959Z</time></trkpt><trkpt lat="37.9850717" lon="16.0110833"><ele>693.5</ele><time>2026-04-12T12:46:20.958Z</time></trkpt><trkpt lat="37.985115" lon="16.0110167"><ele>699.0</ele><time>2026-04-12T12:46:21.959Z</time></trkpt><trkpt lat="37.98516" lon="16.010945"><ele>704.5</ele><time>2026-04-12T12:46:22.958Z</time></trkpt><trkpt lat="37.9851917" lon="16.0108683"><ele>710.0</ele><time>2026-04-12T12:46:23.958Z</time></trkpt><trkpt lat="37.9852167" lon="16.0107883"><ele>715.5</ele><time>2026-04-12T12:46:24.958Z</time></trkpt><trkpt lat="37.9852267" lon="16.0106317"><ele>721.0</ele><time>2026-04-12T12:46:26.958Z</time></trkpt><trkpt lat="37.98522" lon="16.0105517"><ele>721.0</ele><time>2026-04-12T12:46:27.958Z</time></trkpt><trkpt lat="37.9852067" lon="16.0104733"><ele>721.0</ele><time>2026-04-12T12:46:28.958Z</time></trkpt><trkpt lat="37.9851817" lon="16.0103233"><ele>721.0</ele><time>2026-04-12T12:46:30.959Z</time></trkpt><trkpt lat="37.9851667" lon="16.010185"><ele>721.0</ele><time>2026-04-12T12:46:32.959Z</time></trkpt><trkpt lat="37.985145" lon="16.0100383"><ele>721.0</ele><time>2026-04-12T12:46:34.959Z</time></trkpt><trkpt lat="37.9851183" lon="16.0099483"><ele>720.8571428571429</ele><time>2026-04-12T12:46:35.958Z</time></trkpt><trkpt lat="37.9850867" lon="16.0098533"><ele>720.7142857142858</ele><time>2026-04-12T12:46:36.959Z</time></trkpt><trkpt lat="37.9850483" lon="16.00977"><ele>720.5714285714286</ele><time>2026-04-12T12:46:37.958Z</time></trkpt><trkpt lat="37.9850267" lon="16.009685"><ele>720.4285714285714</ele><time>2026-04-12T12:46:38.958Z</time></trkpt><trkpt lat="37.9850167" lon="16.0095917"><ele>720.2857142857143</ele><time>2026-04-12T12:46:39.958Z</time></trkpt><trkpt lat="37.9850133" lon="16.009505"><ele>720.1428571428571</ele><time>2026-04-12T12:46:40.958Z</time></trkpt><trkpt lat="37.9850067" lon="16.009425"><ele>720.0</ele><time>2026-04-12T12:46:41.958Z</time></trkpt><trkpt lat="37.9849917" lon="16.0092883"><ele>720.3333333333334</ele><time>2026-04-12T12:46:43.959Z</time></trkpt><trkpt lat="37.9849817" lon="16.00918"><ele>720.6666666666666</ele><time>2026-04-12T12:46:45.958Z</time></trkpt><trkpt lat="37.98499" lon="16.0090683"><ele>721.0</ele><time>2026-04-12T12:46:47.959Z</time></trkpt><trkpt lat="37.9850283" lon="16.0089567"><ele>721.3333333333333</ele><time>2026-04-12T12:46:49.958Z</time></trkpt><trkpt lat="37.9850117" lon="16.00886"><ele>721.6666666666666</ele><time>2026-04-12T12:46:50.959Z</time></trkpt><trkpt lat="37.9849783" lon="16.00875"><ele>722.0</ele><time>2026-04-12T12:46:51.959Z</time></trkpt><trkpt lat="37.9849383" lon="16.008655"><ele>716.8</ele><time>2026-04-12T12:46:52.958Z</time></trkpt><trkpt lat="37.9848933" lon="16.008555"><ele>711.6</ele><time>2026-04-12T12:46:53.958Z</time></trkpt><trkpt lat="37.9848483" lon="16.008455"><ele>706.4</ele><time>2026-04-12T12:46:54.959Z</time></trkpt><trkpt lat="37.9848017" lon="16.008355"><ele>701.1999999999999</ele><time>2026-04-12T12:46:55.958Z</time></trkpt><trkpt lat="37.984765" lon="16.008245"><ele>696.0</ele><time>2026-04-12T12:46:56.959Z</time></trkpt><trkpt lat="37.9847367" lon="16.0081267"><ele>696.0</ele><time>2026-04-12T12:46:57.958Z</time></trkpt><trkpt lat="37.984715" lon="16.008005"><ele>696.0</ele><time>2026-04-12T12:46:58.958Z</time></trkpt><trkpt lat="37.9846867" lon="16.0078933"><ele>696.0</ele><time>2026-04-12T12:46:59.958Z</time></trkpt><trkpt lat="37.9846533" lon="16.0077917"><ele>696.0</ele><time>2026-04-12T12:47:00.958Z</time></trkpt><trkpt lat="37.9846217" lon="16.0076933"><ele>696.0</ele><time>2026-04-12T12:47:01.959Z</time></trkpt><trkpt lat="37.9846067" lon="16.0076083"><ele>696.0</ele><time>2026-04-12T12:47:02.958Z</time></trkpt><trkpt lat="37.984595" lon="16.0074433"><ele>694.0</ele><time>2026-04-12T12:47:04.958Z</time></trkpt><trkpt lat="37.9845967" lon="16.0073317"><ele>692.0</ele><time>2026-04-12T12:47:05.958Z</time></trkpt><trkpt lat="37.9845983" lon="16.0072033"><ele>690.0</ele><time>2026-04-12T12:47:06.958Z</time></trkpt><trkpt lat="37.9845983" lon="16.0070667"><ele>688.0</ele><time>2026-04-12T12:47:07.959Z</time></trkpt><trkpt lat="37.98459" lon="16.0069333"><ele>686.0</ele><time>2026-04-12T12:47:08.959Z</time></trkpt><trkpt lat="37.9845717" lon="16.0068183"><ele>686.0</ele><time>2026-04-12T12:47:09.958Z</time></trkpt><trkpt lat="37.9845567" lon="16.006715"><ele>686.0</ele><time>2026-04-12T12:47:10.958Z</time></trkpt><trkpt lat="37.9845483" lon="16.006635"><ele>686.0</ele><time>2026-04-12T12:47:11.958Z</time></trkpt><trkpt lat="37.98458" lon="16.0065183"><ele>686.0</ele><time>2026-04-12T12:47:13.958Z</time></trkpt><trkpt lat="37.9846333" lon="16.0064733"><ele>686.0</ele><time>2026-04-12T12:47:14.958Z</time></trkpt><trkpt lat="37.9847167" lon="16.0064267"><ele>686.0</ele><time>2026-04-12T12:47:15.958Z</time></trkpt><trkpt lat="37.9848017" lon="16.0063933"><ele>683.5999999999999</ele><time>2026-04-12T12:47:16.959Z</time></trkpt><trkpt lat="37.98488" lon="16.00637"><ele>681.2</ele><time>2026-04-12T12:47:17.958Z</time></trkpt><trkpt lat="37.9849383" lon="16.006335"><ele>678.8</ele><time>2026-04-12T12:47:18.959Z</time></trkpt><trkpt lat="37.98507" lon="16.0063083"><ele>676.4000000000001</ele><time>2026-04-12T12:47:20.958Z</time></trkpt><trkpt lat="37.9851583" lon="16.0063117"><ele>674.0</ele><time>2026-04-12T12:47:21.958Z</time></trkpt><trkpt lat="37.9852567" lon="16.0063183"><ele>674.0</ele><time>2026-04-12T12:47:22.958Z</time></trkpt><trkpt lat="37.9853517" lon="16.006325"><ele>674.0</ele><time>2026-04-12T12:47:23.958Z</time></trkpt><trkpt lat="37.98544" lon="16.00633"><ele>674.0</ele><time>2026-04-12T12:47:24.958Z</time></trkpt><trkpt lat="37.9855167" lon="16.006335"><ele>674.0</ele><time>2026-04-12T12:47:25.959Z</time></trkpt><trkpt lat="37.9855833" lon="16.0063383"><ele>674.0</ele><time>2026-04-12T12:47:26.959Z</time></trkpt><trkpt lat="37.9857017" lon="16.00634"><ele>674.0</ele><time>2026-04-12T12:47:28.958Z</time></trkpt><trkpt lat="37.9858267" lon="16.006345"><ele>677.4000000000001</ele><time>2026-04-12T12:47:30.958Z</time></trkpt><trkpt lat="37.9859083" lon="16.0063467"><ele>680.8</ele><time>2026-04-12T12:47:31.958Z</time></trkpt><trkpt lat="37.9860033" lon="16.0063533"><ele>684.2</ele><time>2026-04-12T12:47:32.959Z</time></trkpt><trkpt lat="37.9860983" lon="16.0063483"><ele>687.5999999999999</ele><time>2026-04-12T12:47:33.959Z</time></trkpt><trkpt lat="37.9861983" lon="16.0063367"><ele>691.0</ele><time>2026-04-12T12:47:34.958Z</time></trkpt><trkpt lat="37.9862717" lon="16.0062783"><ele>691.0</ele><time>2026-04-12T12:47:35.958Z</time></trkpt><trkpt lat="37.9863217" lon="16.00619"><ele>691.0</ele><time>2026-04-12T12:47:36.958Z</time></trkpt><trkpt lat="37.9863433" lon="16.00609"><ele>691.0</ele><time>2026-04-12T12:47:37.959Z</time></trkpt><trkpt lat="37.9863317" lon="16.0059717"><ele>691.0</ele><time>2026-04-12T12:47:38.958Z</time></trkpt><trkpt lat="37.9862917" lon="16.0058533"><ele>691.0</ele><time>2026-04-12T12:47:39.959Z</time></trkpt><trkpt lat="37.9862217" lon="16.0057217"><ele>693.3333333333334</ele><time>2026-04-12T12:47:40.958Z</time></trkpt><trkpt lat="37.9861217" lon="16.00558"><ele>695.6666666666666</ele><time>2026-04-12T12:47:41.958Z</time></trkpt><trkpt lat="37.9860067" lon="16.0054583"><ele>698.0</ele><time>2026-04-12T12:47:42.958Z</time></trkpt><trkpt lat="37.985865" lon="16.00534"><ele>691.6666666666666</ele><time>2026-04-12T12:47:43.958Z</time></trkpt><trkpt lat="37.9857133" lon="16.0052283"><ele>685.3333333333334</ele><time>2026-04-12T12:47:44.958Z</time></trkpt><trkpt lat="37.9855867" lon="16.0051333"><ele>679.0</ele><time>2026-04-12T12:47:45.959Z</time></trkpt><trkpt lat="37.9854717" lon="16.005045"><ele>678.2</ele><time>2026-04-12T12:47:46.958Z</time></trkpt><trkpt lat="37.985375" lon="16.00496"><ele>677.4000000000001</ele><time>2026-04-12T12:47:47.958Z</time></trkpt><trkpt lat="37.9852967" lon="16.0048683"><ele>676.6</ele><time>2026-04-12T12:47:48.958Z</time></trkpt><trkpt lat="37.9852467" lon="16.0047617"><ele>675.8</ele><time>2026-04-12T12:47:49.958Z</time></trkpt><trkpt lat="37.9852283" lon="16.0046583"><ele>675.0</ele><time>2026-04-12T12:47:50.958Z</time></trkpt><trkpt lat="37.985245" lon="16.004545"><ele>675.0</ele><time>2026-04-12T12:47:51.958Z</time></trkpt><trkpt lat="37.9852933" lon="16.0044367"><ele>675.0</ele><time>2026-04-12T12:47:52.958Z</time></trkpt><trkpt lat="37.9853517" lon="16.00435"><ele>675.0</ele><time>2026-04-12T12:47:53.958Z</time></trkpt><trkpt lat="37.9854683" lon="16.0042767"><ele>675.0</ele><time>2026-04-12T12:47:54.958Z</time></trkpt><trkpt lat="37.9856167" lon="16.0041967"><ele>674.0</ele><time>2026-04-12T12:47:55.958Z</time></trkpt><trkpt lat="37.98578" lon="16.0041117"><ele>673.0</ele><time>2026-04-12T12:47:56.958Z</time></trkpt><trkpt lat="37.98596" lon="16.0040133"><ele>672.0</ele><time>2026-04-12T12:47:57.958Z</time></trkpt><trkpt lat="37.986145" lon="16.0038967"><ele>672.0</ele><time>2026-04-12T12:47:58.958Z</time></trkpt><trkpt lat="37.9863283" lon="16.0037733"><ele>672.0</ele><time>2026-04-12T12:47:59.958Z</time></trkpt><trkpt lat="37.986495" lon="16.0036667"><ele>672.0</ele><time>2026-04-12T12:48:00.958Z</time></trkpt><trkpt lat="37.9866617" lon="16.003565"><ele>673.6666666666666</ele><time>2026-04-12T12:48:01.959Z</time></trkpt><trkpt lat="37.9868167" lon="16.0034667"><ele>675.3333333333333</ele><time>2026-04-12T12:48:02.958Z</time></trkpt><trkpt lat="37.9869583" lon="16.0033867"><ele>677.0</ele><time>2026-04-12T12:48:03.959Z</time></trkpt><trkpt lat="37.9870783" lon="16.0033083"><ele>677.0</ele><time>2026-04-12T12:48:04.958Z</time></trkpt><trkpt lat="37.9871767" lon="16.00322"><ele>677.0</ele><time>2026-04-12T12:48:05.958Z</time></trkpt><trkpt lat="37.987255" lon="16.0031067"><ele>677.0</ele><time>2026-04-12T12:48:06.958Z</time></trkpt><trkpt lat="37.98731" lon="16.0029933"><ele>677.0</ele><time>2026-04-12T12:48:07.958Z</time></trkpt><trkpt lat="37.987355" lon="16.0028817"><ele>677.0</ele><time>2026-04-12T12:48:08.959Z</time></trkpt><trkpt lat="37.9873933" lon="16.00277"><ele>677.0</ele><time>2026-04-12T12:48:09.958Z</time></trkpt><trkpt lat="37.98742" lon="16.002665"><ele>677.0</ele><time>2026-04-12T12:48:10.959Z</time></trkpt><trkpt lat="37.9874117" lon="16.00255"><ele>677.0</ele><time>2026-04-12T12:48:11.958Z</time></trkpt><trkpt lat="37.9873833" lon="16.0024667"><ele>677.0</ele><time>2026-04-12T12:48:12.958Z</time></trkpt><trkpt lat="37.987345" lon="16.0023783"><ele>677.0</ele><time>2026-04-12T12:48:13.958Z</time></trkpt><trkpt lat="37.9872867" lon="16.0022933"><ele>677.0</ele><time>2026-04-12T12:48:14.958Z</time></trkpt><trkpt lat="37.9871983" lon="16.0022033"><ele>680.0</ele><time>2026-04-12T12:48:15.958Z</time></trkpt><trkpt lat="37.9870983" lon="16.0021117"><ele>683.0</ele><time>2026-04-12T12:48:16.958Z</time></trkpt><trkpt lat="37.986985" lon="16.0020383"><ele>686.0</ele><time>2026-04-12T12:48:17.958Z</time></trkpt><trkpt lat="37.986875" lon="16.0019867"><ele>689.0</ele><time>2026-04-12T12:48:18.959Z</time></trkpt><trkpt lat="37.9867567" lon="16.00196"><ele>689.75</ele><time>2026-04-12T12:48:19.958Z</time></trkpt><trkpt lat="37.9866317" lon="16.0019667"><ele>690.5</ele><time>2026-04-12T12:48:20.958Z</time></trkpt><trkpt lat="37.98649" lon="16.002"><ele>691.25</ele><time>2026-04-12T12:48:21.958Z</time></trkpt><trkpt lat="37.9863267" lon="16.0020367"><ele>692.0</ele><time>2026-04-12T12:48:22.959Z</time></trkpt><trkpt lat="37.9861817" lon="16.0020783"><ele>692.0</ele><time>2026-04-12T12:48:23.958Z</time></trkpt><trkpt lat="37.9860533" lon="16.0021167"><ele>692.0</ele><time>2026-04-12T12:48:24.958Z</time></trkpt><trkpt lat="37.9859533" lon="16.0021283"><ele>692.0</ele><time>2026-04-12T12:48:25.958Z</time></trkpt><trkpt lat="37.9858583" lon="16.0021067"><ele>692.0</ele><time>2026-04-12T12:48:26.958Z</time></trkpt><trkpt lat="37.9857583" lon="16.0020483"><ele>692.0</ele><time>2026-04-12T12:48:27.958Z</time></trkpt><trkpt lat="37.985645" lon="16.0019483"><ele>689.6666666666666</ele><time>2026-04-12T12:48:28.959Z</time></trkpt><trkpt lat="37.9855183" lon="16.0018267"><ele>687.3333333333334</ele><time>2026-04-12T12:48:29.958Z</time></trkpt><trkpt lat="37.9853733" lon="16.0016783"><ele>685.0</ele><time>2026-04-12T12:48:30.959Z</time></trkpt><trkpt lat="37.9852417" lon="16.0015417"><ele>684.5</ele><time>2026-04-12T12:48:31.958Z</time></trkpt><trkpt lat="37.9851233" lon="16.001415"><ele>684.0</ele><time>2026-04-12T12:48:32.959Z</time></trkpt><trkpt lat="37.985015" lon="16.0013083"><ele>683.5</ele><time>2026-04-12T12:48:33.958Z</time></trkpt><trkpt lat="37.9849517" lon="16.00119"><ele>683.0</ele><time>2026-04-12T12:48:34.958Z</time></trkpt><trkpt lat="37.9848917" lon="16.0010783"><ele>683.0</ele><time>2026-04-12T12:48:35.958Z</time></trkpt><trkpt lat="37.984865" lon="16.0009767"><ele>683.0</ele><time>2026-04-12T12:48:36.958Z</time></trkpt><trkpt lat="37.9848683" lon="16.00087"><ele>683.0</ele><time>2026-04-12T12:48:37.958Z</time></trkpt><trkpt lat="37.9848867" lon="16.000765"><ele>683.0</ele><time>2026-04-12T12:48:38.959Z</time></trkpt><trkpt lat="37.9849367" lon="16.0006667"><ele>683.0</ele><time>2026-04-12T12:48:39.959Z</time></trkpt><trkpt lat="37.9850017" lon="16.000565"><ele>683.0</ele><time>2026-04-12T12:48:40.958Z</time></trkpt><trkpt lat="37.9850417" lon="16.0004667"><ele>683.2</ele><time>2026-04-12T12:48:41.958Z</time></trkpt><trkpt lat="37.98505" lon="16.0003483"><ele>683.4</ele><time>2026-04-12T12:48:42.958Z</time></trkpt><trkpt lat="37.9850333" lon="16.0002083"><ele>683.6</ele><time>2026-04-12T12:48:43.959Z</time></trkpt><trkpt lat="37.9849933" lon="16.000075"><ele>683.8000000000001</ele><time>2026-04-12T12:48:44.958Z</time></trkpt><trkpt lat="37.984935" lon="15.9999283"><ele>684.0</ele><time>2026-04-12T12:48:45.958Z</time></trkpt><trkpt lat="37.984855" lon="15.9997533"><ele>684.0</ele><time>2026-04-12T12:48:46.958Z</time></trkpt><trkpt lat="37.9847667" lon="15.999575"><ele>684.0</ele><time>2026-04-12T12:48:47.958Z</time></trkpt><trkpt lat="37.984685" lon="15.9994067"><ele>684.0</ele><time>2026-04-12T12:48:48.958Z</time></trkpt><trkpt lat="37.9846117" lon="15.999245"><ele>683.0</ele><time>2026-04-12T12:48:49.959Z</time></trkpt><trkpt lat="37.9845483" lon="15.9991033"><ele>682.0</ele><time>2026-04-12T12:48:50.958Z</time></trkpt><trkpt lat="37.98449" lon="15.9989833"><ele>681.0</ele><time>2026-04-12T12:48:51.959Z</time></trkpt><trkpt lat="37.9844267" lon="15.9988967"><ele>680.0</ele><time>2026-04-12T12:48:52.959Z</time></trkpt><trkpt lat="37.9843683" lon="15.998835"><ele>679.0</ele><time>2026-04-12T12:48:53.958Z</time></trkpt><trkpt lat="37.9842967" lon="15.9988067"><ele>679.0</ele><time>2026-04-12T12:48:54.958Z</time></trkpt><trkpt lat="37.9842133" lon="15.998815"><ele>679.0</ele><time>2026-04-12T12:48:55.958Z</time></trkpt><trkpt lat="37.984115" lon="15.9988633"><ele>679.0</ele><time>2026-04-12T12:48:56.959Z</time></trkpt><trkpt lat="37.9840083" lon="15.9989483"><ele>679.0</ele><time>2026-04-12T12:48:57.958Z</time></trkpt><trkpt lat="37.9839" lon="15.9990583"><ele>676.25</ele><time>2026-04-12T12:48:58.958Z</time></trkpt><trkpt lat="37.9837967" lon="15.9991583"><ele>673.5</ele><time>2026-04-12T12:48:59.958Z</time></trkpt><trkpt lat="37.9836867" lon="15.999235"><ele>670.75</ele><time>2026-04-12T12:49:00.958Z</time></trkpt><trkpt lat="37.98357" lon="15.99929"><ele>668.0</ele><time>2026-04-12T12:49:01.958Z</time></trkpt><trkpt lat="37.98343" lon="15.9993283"><ele>661.3333333333333</ele><time>2026-04-12T12:49:02.958Z</time></trkpt><trkpt lat="37.9832617" lon="15.9993367"><ele>654.6666666666666</ele><time>2026-04-12T12:49:03.959Z</time></trkpt><trkpt lat="37.9830617" lon="15.99936"><ele>648.0</ele><time>2026-04-12T12:49:04.958Z</time></trkpt><trkpt lat="37.9828517" lon="15.999365"><ele>648.0</ele><time>2026-04-12T12:49:05.959Z</time></trkpt><trkpt lat="37.9826583" lon="15.9993917"><ele>648.0</ele><time>2026-04-12T12:49:06.958Z</time></trkpt><trkpt lat="37.98249" lon="15.9994117"><ele>648.0</ele><time>2026-04-12T12:49:07.958Z</time></trkpt><trkpt lat="37.982345" lon="15.999425"><ele>648.2</ele><time>2026-04-12T12:49:08.958Z</time></trkpt><trkpt lat="37.9822233" lon="15.9994283"><ele>648.4</ele><time>2026-04-12T12:49:09.959Z</time></trkpt><trkpt lat="37.9821217" lon="15.999405"><ele>648.6</ele><time>2026-04-12T12:49:10.958Z</time></trkpt><trkpt lat="37.9820183" lon="15.9993567"><ele>648.8000000000001</ele><time>2026-04-12T12:49:11.958Z</time></trkpt><trkpt lat="37.9819317" lon="15.9993"><ele>649.0</ele><time>2026-04-12T12:49:12.958Z</time></trkpt><trkpt lat="37.9818517" lon="15.9992683"><ele>649.0</ele><time>2026-04-12T12:49:13.959Z</time></trkpt><trkpt lat="37.9817683" lon="15.99928"><ele>649.0</ele><time>2026-04-12T12:49:14.958Z</time></trkpt><trkpt lat="37.98168" lon="15.9993183"><ele>649.0</ele><time>2026-04-12T12:49:15.958Z</time></trkpt><trkpt lat="37.981595" lon="15.9993933"><ele>649.0</ele><time>2026-04-12T12:49:16.958Z</time></trkpt><trkpt lat="37.98151" lon="15.99946"><ele>649.0</ele><time>2026-04-12T12:49:17.958Z</time></trkpt><trkpt lat="37.9814283" lon="15.9994917"><ele>649.1666666666667</ele><time>2026-04-12T12:49:18.958Z</time></trkpt><trkpt lat="37.9813417" lon="15.9994783"><ele>649.3333333333334</ele><time>2026-04-12T12:49:19.958Z</time></trkpt><trkpt lat="37.9812533" lon="15.9994467"><ele>649.5</ele><time>2026-04-12T12:49:20.958Z</time></trkpt><trkpt lat="37.9811933" lon="15.9993733"><ele>649.6666666666666</ele><time>2026-04-12T12:49:21.958Z</time></trkpt><trkpt lat="37.9811667" lon="15.9992817"><ele>649.8333333333333</ele><time>2026-04-12T12:49:22.958Z</time></trkpt><trkpt lat="37.9811783" lon="15.9991567"><ele>650.0</ele><time>2026-04-12T12:49:23.958Z</time></trkpt><trkpt lat="37.9812167" lon="15.9990033"><ele>659.6666666666666</ele><time>2026-04-12T12:49:24.958Z</time></trkpt><trkpt lat="37.9812683" lon="15.9988083"><ele>669.3333333333334</ele><time>2026-04-12T12:49:25.959Z</time></trkpt><trkpt lat="37.9813167" lon="15.99861"><ele>679.0</ele><time>2026-04-12T12:49:26.959Z</time></trkpt><trkpt lat="37.9813517" lon="15.9984467"><ele>678.0</ele><time>2026-04-12T12:49:27.958Z</time></trkpt><trkpt lat="37.9813733" lon="15.9983233"><ele>677.0</ele><time>2026-04-12T12:49:28.958Z</time></trkpt><trkpt lat="37.98138" lon="15.9982117"><ele>676.0</ele><time>2026-04-12T12:49:29.958Z</time></trkpt><trkpt lat="37.981375" lon="15.99812"><ele>675.0</ele><time>2026-04-12T12:49:30.958Z</time></trkpt><trkpt lat="37.9813583" lon="15.9980417"><ele>674.0</ele><time>2026-04-12T12:49:31.958Z</time></trkpt><trkpt lat="37.9812933" lon="15.9979533"><ele>673.0</ele><time>2026-04-12T12:49:33.958Z</time></trkpt><trkpt lat="37.9812267" lon="15.9980117"><ele>673.0</ele><time>2026-04-12T12:49:35.958Z</time></trkpt><trkpt lat="37.9812067" lon="15.99811"><ele>673.0</ele><time>2026-04-12T12:49:36.958Z</time></trkpt><trkpt lat="37.9811967" lon="15.99825"><ele>673.0</ele><time>2026-04-12T12:49:37.958Z</time></trkpt><trkpt lat="37.9812017" lon="15.9984167"><ele>673.0</ele><time>2026-04-12T12:49:38.958Z</time></trkpt><trkpt lat="37.9811933" lon="15.9985667"><ele>673.0</ele><time>2026-04-12T12:49:39.958Z</time></trkpt><trkpt lat="37.9811717" lon="15.9986967"><ele>674.2</ele><time>2026-04-12T12:49:40.959Z</time></trkpt><trkpt lat="37.98114" lon="15.9988117"><ele>675.4</ele><time>2026-04-12T12:49:41.958Z</time></trkpt><trkpt lat="37.9810933" lon="15.99891"><ele>676.6</ele><time>2026-04-12T12:49:42.958Z</time></trkpt><trkpt lat="37.9810233" lon="15.99899"><ele>677.8000000000001</ele><time>2026-04-12T12:49:43.958Z</time></trkpt><trkpt lat="37.98093" lon="15.9990517"><ele>679.0</ele><time>2026-04-12T12:49:44.958Z</time></trkpt><trkpt lat="37.98082" lon="15.9991"><ele>675.5</ele><time>2026-04-12T12:49:45.959Z</time></trkpt><trkpt lat="37.9807017" lon="15.9991367"><ele>672.0</ele><time>2026-04-12T12:49:46.958Z</time></trkpt><trkpt lat="37.9805767" lon="15.9991583"><ele>668.5</ele><time>2026-04-12T12:49:47.959Z</time></trkpt><trkpt lat="37.9804467" lon="15.9991617"><ele>665.0</ele><time>2026-04-12T12:49:48.959Z</time></trkpt><trkpt lat="37.9803317" lon="15.9991517"><ele>665.0</ele><time>2026-04-12T12:49:49.958Z</time></trkpt><trkpt lat="37.9802283" lon="15.99915"><ele>665.0</ele><time>2026-04-12T12:49:50.958Z</time></trkpt><trkpt lat="37.9801433" lon="15.9991833"><ele>665.0</ele><time>2026-04-12T12:49:51.959Z</time></trkpt><trkpt lat="37.9800583" lon="15.99924"><ele>665.0</ele><time>2026-04-12T12:49:52.959Z</time></trkpt><trkpt lat="37.9799767" lon="15.999315"><ele>665.0</ele><time>2026-04-12T12:49:53.958Z</time></trkpt><trkpt lat="37.9799" lon="15.9993817"><ele>664.5</ele><time>2026-04-12T12:49:54.959Z</time></trkpt><trkpt lat="37.979825" lon="15.99942"><ele>664.0</ele><time>2026-04-12T12:49:55.958Z</time></trkpt><trkpt lat="37.9797483" lon="15.9994217"><ele>663.5</ele><time>2026-04-12T12:49:56.958Z</time></trkpt><trkpt lat="37.9796667" lon="15.99939"><ele>663.0</ele><time>2026-04-12T12:49:57.958Z</time></trkpt><trkpt lat="37.979585" lon="15.999335"><ele>662.5</ele><time>2026-04-12T12:49:58.958Z</time></trkpt><trkpt lat="37.9794917" lon="15.9992533"><ele>662.0</ele><time>2026-04-12T12:49:59.958Z</time></trkpt><trkpt lat="37.9793733" lon="15.999135"><ele>659.6666666666666</ele><time>2026-04-12T12:50:00.958Z</time></trkpt><trkpt lat="37.9792267" lon="15.999015"><ele>657.3333333333334</ele><time>2026-04-12T12:50:01.958Z</time></trkpt><trkpt lat="37.9790833" lon="15.9989"><ele>655.0</ele><time>2026-04-12T12:50:02.958Z</time></trkpt><trkpt lat="37.9789617" lon="15.9988"><ele>654.2</ele><time>2026-04-12T12:50:03.958Z</time></trkpt><trkpt lat="37.9788617" lon="15.9987267"><ele>653.4</ele><time>2026-04-12T12:50:04.958Z</time></trkpt><trkpt lat="37.97878" lon="15.9986717"><ele>652.5999999999999</ele><time>2026-04-12T12:50:05.958Z</time></trkpt><trkpt lat="37.9787033" lon="15.9986567"><ele>651.8</ele><time>2026-04-12T12:50:06.958Z</time></trkpt><trkpt lat="37.9786283" lon="15.9986733"><ele>651.0</ele><time>2026-04-12T12:50:07.958Z</time></trkpt><trkpt lat="37.978545" lon="15.998715"><ele>651.0</ele><time>2026-04-12T12:50:08.958Z</time></trkpt><trkpt lat="37.97845" lon="15.9987917"><ele>651.0</ele><time>2026-04-12T12:50:09.959Z</time></trkpt><trkpt lat="37.9783367" lon="15.9989117"><ele>651.0</ele><time>2026-04-12T12:50:10.958Z</time></trkpt><trkpt lat="37.9782333" lon="15.9990417"><ele>651.0</ele><time>2026-04-12T12:50:11.959Z</time></trkpt><trkpt lat="37.9781317" lon="15.999155"><ele>648.25</ele><time>2026-04-12T12:50:12.959Z</time></trkpt><trkpt lat="37.9780483" lon="15.9992617"><ele>645.5</ele><time>2026-04-12T12:50:13.958Z</time></trkpt><trkpt lat="37.97798" lon="15.9993567"><ele>642.75</ele><time>2026-04-12T12:50:14.958Z</time></trkpt><trkpt lat="37.97793" lon="15.9994867"><ele>640.0</ele><time>2026-04-12T12:50:15.958Z</time></trkpt><trkpt lat="37.9779067" lon="15.9996383"><ele>640.0</ele><time>2026-04-12T12:50:16.959Z</time></trkpt><trkpt lat="37.9779017" lon="15.999815"><ele>640.0</ele><time>2026-04-12T12:50:17.958Z</time></trkpt><trkpt lat="37.9779067" lon="15.99999"><ele>640.0</ele><time>2026-04-12T12:50:18.958Z</time></trkpt><trkpt lat="37.9778883" lon="16.00016"><ele>640.0</ele><time>2026-04-12T12:50:19.958Z</time></trkpt><trkpt lat="37.9778483" lon="16.0003283"><ele>640.0</ele><time>2026-04-12T12:50:20.958Z</time></trkpt><trkpt lat="37.9777933" lon="16.0005033"><ele>640.0</ele><time>2026-04-12T12:50:21.958Z</time></trkpt><trkpt lat="37.97772" lon="16.000695"><ele>640.0</ele><time>2026-04-12T12:50:22.958Z</time></trkpt><trkpt lat="37.9776333" lon="16.000895"><ele>630.3333333333334</ele><time>2026-04-12T12:50:23.959Z</time></trkpt><trkpt lat="37.9775467" lon="16.00109"><ele>620.6666666666666</ele><time>2026-04-12T12:50:24.958Z</time></trkpt><trkpt lat="37.9774583" lon="16.001275"><ele>611.0</ele><time>2026-04-12T12:50:25.958Z</time></trkpt><trkpt lat="37.9773767" lon="16.0014417"><ele>610.0</ele><time>2026-04-12T12:50:26.958Z</time></trkpt><trkpt lat="37.9772867" lon="16.0016017"><ele>609.0</ele><time>2026-04-12T12:50:27.958Z</time></trkpt><trkpt lat="37.9771883" lon="16.0017517"><ele>608.0</ele><time>2026-04-12T12:50:28.958Z</time></trkpt><trkpt lat="37.97707" lon="16.0018933"><ele>608.0</ele><time>2026-04-12T12:50:29.958Z</time></trkpt><trkpt lat="37.976955" lon="16.00203"><ele>608.0</ele><time>2026-04-12T12:50:30.959Z</time></trkpt><trkpt lat="37.9768467" lon="16.0021583"><ele>608.0</ele><time>2026-04-12T12:50:31.958Z</time></trkpt><trkpt lat="37.97673" lon="16.00227"><ele>608.25</ele><time>2026-04-12T12:50:32.958Z</time></trkpt><trkpt lat="37.9766067" lon="16.0023617"><ele>608.5</ele><time>2026-04-12T12:50:33.958Z</time></trkpt><trkpt lat="37.9764767" lon="16.0024367"><ele>608.75</ele><time>2026-04-12T12:50:34.958Z</time></trkpt><trkpt lat="37.976355" lon="16.002515"><ele>609.0</ele><time>2026-04-12T12:50:35.959Z</time></trkpt><trkpt lat="37.9762467" lon="16.002615"><ele>609.0</ele><time>2026-04-12T12:50:36.958Z</time></trkpt><trkpt lat="37.976165" lon="16.00274"><ele>609.0</ele><time>2026-04-12T12:50:37.958Z</time></trkpt><trkpt lat="37.9760867" lon="16.0028967"><ele>609.0</ele><time>2026-04-12T12:50:38.958Z</time></trkpt><trkpt lat="37.9759933" lon="16.00305"><ele>609.0</ele><time>2026-04-12T12:50:39.959Z</time></trkpt><trkpt lat="37.9759033" lon="16.0031817"><ele>609.0</ele><time>2026-04-12T12:50:40.959Z</time></trkpt><trkpt lat="37.9758217" lon="16.0032933"><ele>609.0</ele><time>2026-04-12T12:50:41.958Z</time></trkpt><trkpt lat="37.97578" lon="16.0034217"><ele>609.0</ele><time>2026-04-12T12:50:42.959Z</time></trkpt><trkpt lat="37.975735" lon="16.0035583"><ele>609.0</ele><time>2026-04-12T12:50:43.958Z</time></trkpt><trkpt lat="37.9756733" lon="16.0036933"><ele>610.0</ele><time>2026-04-12T12:50:44.958Z</time></trkpt><trkpt lat="37.975605" lon="16.00382"><ele>611.0</ele><time>2026-04-12T12:50:45.958Z</time></trkpt><trkpt lat="37.97557" lon="16.003945"><ele>612.0</ele><time>2026-04-12T12:50:46.959Z</time></trkpt><trkpt lat="37.9755483" lon="16.00407"><ele>613.0</ele><time>2026-04-12T12:50:47.958Z</time></trkpt><trkpt lat="37.975545" lon="16.0042133"><ele>614.0</ele><time>2026-04-12T12:50:48.958Z</time></trkpt><trkpt lat="37.975535" lon="16.0043417"><ele>611.2</ele><time>2026-04-12T12:50:49.958Z</time></trkpt><trkpt lat="37.9755017" lon="16.004445"><ele>608.4</ele><time>2026-04-12T12:50:50.958Z</time></trkpt><trkpt lat="37.97544" lon="16.0045167"><ele>605.6</ele><time>2026-04-12T12:50:51.958Z</time></trkpt><trkpt lat="37.975365" lon="16.0045583"><ele>602.8</ele><time>2026-04-12T12:50:52.959Z</time></trkpt><trkpt lat="37.9752717" lon="16.0045933"><ele>600.0</ele><time>2026-04-12T12:50:53.958Z</time></trkpt><trkpt lat="37.9751617" lon="16.0046333"><ele>600.0</ele><time>2026-04-12T12:50:54.958Z</time></trkpt><trkpt lat="37.9750517" lon="16.0047083"><ele>600.0</ele><time>2026-04-12T12:50:55.958Z</time></trkpt><trkpt lat="37.9749567" lon="16.00483"><ele>600.0</ele><time>2026-04-12T12:50:56.958Z</time></trkpt><trkpt lat="37.9748883" lon="16.004955"><ele>600.0</ele><time>2026-04-12T12:50:57.958Z</time></trkpt><trkpt lat="37.9748333" lon="16.0050667"><ele>600.0</ele><time>2026-04-12T12:50:58.958Z</time></trkpt><trkpt lat="37.9747667" lon="16.0051483"><ele>600.0</ele><time>2026-04-12T12:50:59.958Z</time></trkpt><trkpt lat="37.9746883" lon="16.005185"><ele>600.0</ele><time>2026-04-12T12:51:00.958Z</time></trkpt><trkpt lat="37.9745783" lon="16.0051833"><ele>600.0</ele><time>2026-04-12T12:51:01.958Z</time></trkpt><trkpt lat="37.9744583" lon="16.0051567"><ele>600.0</ele><time>2026-04-12T12:51:02.958Z</time></trkpt><trkpt lat="37.9743517" lon="16.0051517"><ele>600.0</ele><time>2026-04-12T12:51:03.959Z</time></trkpt><trkpt lat="37.9742383" lon="16.0051817"><ele>600.0</ele><time>2026-04-12T12:51:04.958Z</time></trkpt><trkpt lat="37.97414" lon="16.0052517"><ele>600.0</ele><time>2026-04-12T12:51:05.958Z</time></trkpt><trkpt lat="37.9740533" lon="16.0053433"><ele>600.0</ele><time>2026-04-12T12:51:06.958Z</time></trkpt><trkpt lat="37.9739817" lon="16.0054117"><ele>600.0</ele><time>2026-04-12T12:51:07.958Z</time></trkpt><trkpt lat="37.9739133" lon="16.005435"><ele>601.2</ele><time>2026-04-12T12:51:08.959Z</time></trkpt><trkpt lat="37.9738467" lon="16.00542"><ele>602.4</ele><time>2026-04-12T12:51:09.958Z</time></trkpt><trkpt lat="37.9737817" lon="16.0053633"><ele>603.6</ele><time>2026-04-12T12:51:10.958Z</time></trkpt><trkpt lat="37.97371" lon="16.0052433"><ele>604.8</ele><time>2026-04-12T12:51:11.959Z</time></trkpt><trkpt lat="37.9736383" lon="16.0051"><ele>606.0</ele><time>2026-04-12T12:51:12.958Z</time></trkpt><trkpt lat="37.9735533" lon="16.00498"><ele>606.0</ele><time>2026-04-12T12:51:13.958Z</time></trkpt><trkpt lat="37.9734517" lon="16.0048867"><ele>606.0</ele><time>2026-04-12T12:51:14.959Z</time></trkpt><trkpt lat="37.9733317" lon="16.0048267"><ele>606.0</ele><time>2026-04-12T12:51:15.958Z</time></trkpt><trkpt lat="37.973205" lon="16.0048"><ele>606.0</ele><time>2026-04-12T12:51:16.958Z</time></trkpt><trkpt lat="37.9730733" lon="16.0048033"><ele>606.0</ele><time>2026-04-12T12:51:17.958Z</time></trkpt><trkpt lat="37.9729467" lon="16.0048467"><ele>606.0</ele><time>2026-04-12T12:51:18.958Z</time></trkpt><trkpt lat="37.9728317" lon="16.0049017"><ele>606.0</ele><time>2026-04-12T12:51:19.959Z</time></trkpt><trkpt lat="37.972715" lon="16.0049467"><ele>606.0</ele><time>2026-04-12T12:51:20.958Z</time></trkpt><trkpt lat="37.9725967" lon="16.004955"><ele>603.25</ele><time>2026-04-12T12:51:21.958Z</time></trkpt><trkpt lat="37.9724683" lon="16.0049183"><ele>600.5</ele><time>2026-04-12T12:51:22.958Z</time></trkpt><trkpt lat="37.9723333" lon="16.004865"><ele>597.75</ele><time>2026-04-12T12:51:23.958Z</time></trkpt><trkpt lat="37.97222" lon="16.0048033"><ele>595.0</ele><time>2026-04-12T12:51:24.958Z</time></trkpt><trkpt lat="37.9721167" lon="16.0047217"><ele>595.0</ele><time>2026-04-12T12:51:25.958Z</time></trkpt><trkpt lat="37.9720333" lon="16.0046067"><ele>595.0</ele><time>2026-04-12T12:51:26.958Z</time></trkpt><trkpt lat="37.9719683" lon="16.0044583"><ele>595.0</ele><time>2026-04-12T12:51:27.958Z</time></trkpt><trkpt lat="37.9718983" lon="16.00431"><ele>595.0</ele><time>2026-04-12T12:51:28.958Z</time></trkpt><trkpt lat="37.9718133" lon="16.0042067"><ele>593.5</ele><time>2026-04-12T12:51:29.959Z</time></trkpt><trkpt lat="37.9717" lon="16.0041317"><ele>592.0</ele><time>2026-04-12T12:51:30.958Z</time></trkpt><trkpt lat="37.9715767" lon="16.004085"><ele>590.5</ele><time>2026-04-12T12:51:31.958Z</time></trkpt><trkpt lat="37.97143" lon="16.00408"><ele>589.0</ele><time>2026-04-12T12:51:32.958Z</time></trkpt><trkpt lat="37.971285" lon="16.00412"><ele>586.0</ele><time>2026-04-12T12:51:33.958Z</time></trkpt><trkpt lat="37.971155" lon="16.00417"><ele>583.0</ele><time>2026-04-12T12:51:34.959Z</time></trkpt><trkpt lat="37.97103" lon="16.0042217"><ele>580.0</ele><time>2026-04-12T12:51:35.958Z</time></trkpt><trkpt lat="37.970925" lon="16.0042483"><ele>577.0</ele><time>2026-04-12T12:51:36.959Z</time></trkpt><trkpt lat="37.9708417" lon="16.004235"><ele>574.8000000000001</ele><time>2026-04-12T12:51:37.959Z</time></trkpt><trkpt lat="37.9707667" lon="16.0041967"><ele>572.6</ele><time>2026-04-12T12:51:38.958Z</time></trkpt><trkpt lat="37.970705" lon="16.004115"><ele>570.4000000000001</ele><time>2026-04-12T12:51:39.958Z</time></trkpt><trkpt lat="37.9706583" lon="16.0039883"><ele>568.2</ele><time>2026-04-12T12:51:40.958Z</time></trkpt><trkpt lat="37.97061" lon="16.003845"><ele>566.0</ele><time>2026-04-12T12:51:41.958Z</time></trkpt><trkpt lat="37.9705367" lon="16.00371"><ele>566.0</ele><time>2026-04-12T12:51:42.959Z</time></trkpt><trkpt lat="37.9704117" lon="16.003595"><ele>566.0</ele><time>2026-04-12T12:51:43.958Z</time></trkpt><trkpt lat="37.9702667" lon="16.0034817"><ele>566.0</ele><time>2026-04-12T12:51:44.958Z</time></trkpt><trkpt lat="37.9701133" lon="16.003355"><ele>556.3333333333333</ele><time>2026-04-12T12:51:45.958Z</time></trkpt><trkpt lat="37.9699683" lon="16.0032367"><ele>546.6666666666666</ele><time>2026-04-12T12:51:46.958Z</time></trkpt><trkpt lat="37.96983" lon="16.003125"><ele>537.0</ele><time>2026-04-12T12:51:47.958Z</time></trkpt><trkpt lat="37.9696833" lon="16.003025"><ele>537.0</ele><time>2026-04-12T12:51:48.958Z</time></trkpt><trkpt lat="37.969525" lon="16.002945"><ele>537.0</ele><time>2026-04-12T12:51:49.958Z</time></trkpt><trkpt lat="37.9693433" lon="16.002885"><ele>537.0</ele><time>2026-04-12T12:51:50.958Z</time></trkpt><trkpt lat="37.969145" lon="16.002835"><ele>539.3333333333334</ele><time>2026-04-12T12:51:51.958Z</time></trkpt><trkpt lat="37.9689367" lon="16.0028017"><ele>541.6666666666667</ele><time>2026-04-12T12:51:52.958Z</time></trkpt><trkpt lat="37.9687083" lon="16.002765"><ele>544.0</ele><time>2026-04-12T12:51:53.958Z</time></trkpt><trkpt lat="37.968485" lon="16.0027217"><ele>545.0</ele><time>2026-04-12T12:51:54.959Z</time></trkpt><trkpt lat="37.968295" lon="16.0026917"><ele>546.0</ele><time>2026-04-12T12:51:55.959Z</time></trkpt><trkpt lat="37.9681367" lon="16.00266"><ele>547.0</ele><time>2026-04-12T12:51:56.958Z</time></trkpt><trkpt lat="37.96802" lon="16.00265"><ele>547.0</ele><time>2026-04-12T12:51:57.958Z</time></trkpt><trkpt lat="37.9679167" lon="16.0026767"><ele>547.0</ele><time>2026-04-12T12:51:58.958Z</time></trkpt><trkpt lat="37.967815" lon="16.0027483"><ele>547.0</ele><time>2026-04-12T12:51:59.958Z</time></trkpt><trkpt lat="37.9677083" lon="16.0028633"><ele>547.0</ele><time>2026-04-12T12:52:00.958Z</time></trkpt><trkpt lat="37.9675883" lon="16.00301"><ele>548.3333333333334</ele><time>2026-04-12T12:52:01.958Z</time></trkpt><trkpt lat="37.9674583" lon="16.003165"><ele>549.6666666666666</ele><time>2026-04-12T12:52:02.958Z</time></trkpt><trkpt lat="37.9673267" lon="16.0032967"><ele>551.0</ele><time>2026-04-12T12:52:03.959Z</time></trkpt><trkpt lat="37.9672083" lon="16.0033933"><ele>551.0</ele><time>2026-04-12T12:52:04.958Z</time></trkpt><trkpt lat="37.9671167" lon="16.0034733"><ele>551.0</ele><time>2026-04-12T12:52:05.958Z</time></trkpt><trkpt lat="37.967035" lon="16.003545"><ele>551.0</ele><time>2026-04-12T12:52:06.958Z</time></trkpt><trkpt lat="37.9669617" lon="16.0036517"><ele>551.0</ele><time>2026-04-12T12:52:07.959Z</time></trkpt><trkpt lat="37.9668933" lon="16.0037883"><ele>551.0</ele><time>2026-04-12T12:52:08.958Z</time></trkpt><trkpt lat="37.9668117" lon="16.0039067"><ele>551.0</ele><time>2026-04-12T12:52:09.958Z</time></trkpt><trkpt lat="37.9667167" lon="16.0040083"><ele>551.0</ele><time>2026-04-12T12:52:10.959Z</time></trkpt><trkpt lat="37.9666133" lon="16.0040917"><ele>551.0</ele><time>2026-04-12T12:52:11.958Z</time></trkpt><trkpt lat="37.96649" lon="16.0041717"><ele>552.75</ele><time>2026-04-12T12:52:12.958Z</time></trkpt><trkpt lat="37.966365" lon="16.00425"><ele>554.5</ele><time>2026-04-12T12:52:13.958Z</time></trkpt><trkpt lat="37.9662617" lon="16.0043583"><ele>556.25</ele><time>2026-04-12T12:52:14.958Z</time></trkpt><trkpt lat="37.966185" lon="16.004505"><ele>558.0</ele><time>2026-04-12T12:52:15.958Z</time></trkpt><trkpt lat="37.9661167" lon="16.0046817"><ele>558.0</ele><time>2026-04-12T12:52:16.958Z</time></trkpt><trkpt lat="37.9660433" lon="16.00485"><ele>558.0</ele><time>2026-04-12T12:52:17.958Z</time></trkpt><trkpt lat="37.965985" lon="16.0050033"><ele>558.0</ele><time>2026-04-12T12:52:18.958Z</time></trkpt><trkpt lat="37.965945" lon="16.00513"><ele>558.0</ele><time>2026-04-12T12:52:19.958Z</time></trkpt><trkpt lat="37.9659483" lon="16.0052667"><ele>555.8333333333334</ele><time>2026-04-12T12:52:20.958Z</time></trkpt><trkpt lat="37.9659883" lon="16.0053983"><ele>553.6666666666666</ele><time>2026-04-12T12:52:21.958Z</time></trkpt><trkpt lat="37.96604" lon="16.0055117"><ele>551.5</ele><time>2026-04-12T12:52:22.958Z</time></trkpt><trkpt lat="37.9660817" lon="16.0056067"><ele>549.3333333333333</ele><time>2026-04-12T12:52:23.958Z</time></trkpt><trkpt lat="37.96609" lon="16.0056933"><ele>547.1666666666666</ele><time>2026-04-12T12:52:24.959Z</time></trkpt><trkpt lat="37.966075" lon="16.0057767"><ele>545.0</ele><time>2026-04-12T12:52:25.958Z</time></trkpt><trkpt lat="37.9660233" lon="16.005845"><ele>544.0</ele><time>2026-04-12T12:52:26.958Z</time></trkpt><trkpt lat="37.9659317" lon="16.005885"><ele>543.0</ele><time>2026-04-12T12:52:27.958Z</time></trkpt><trkpt lat="37.9658083" lon="16.0059017"><ele>542.0</ele><time>2026-04-12T12:52:28.958Z</time></trkpt><trkpt lat="37.9656583" lon="16.005895"><ele>541.0</ele><time>2026-04-12T12:52:29.959Z</time></trkpt><trkpt lat="37.9654867" lon="16.0058617"><ele>548.25</ele><time>2026-04-12T12:52:30.958Z</time></trkpt><trkpt lat="37.965315" lon="16.0058267"><ele>555.5</ele><time>2026-04-12T12:52:31.958Z</time></trkpt><trkpt lat="37.9651717" lon="16.0057917"><ele>562.75</ele><time>2026-04-12T12:52:32.958Z</time></trkpt><trkpt lat="37.9650467" lon="16.0057933"><ele>570.0</ele><time>2026-04-12T12:52:33.958Z</time></trkpt><trkpt lat="37.9649383" lon="16.0058183"><ele>569.4</ele><time>2026-04-12T12:52:34.958Z</time></trkpt><trkpt lat="37.9648367" lon="16.00587"><ele>568.8</ele><time>2026-04-12T12:52:35.959Z</time></trkpt><trkpt lat="37.9647317" lon="16.0059483"><ele>568.2</ele><time>2026-04-12T12:52:36.958Z</time></trkpt><trkpt lat="37.9646333" lon="16.00602"><ele>567.6</ele><time>2026-04-12T12:52:37.958Z</time></trkpt><trkpt lat="37.964555" lon="16.006075"><ele>567.0</ele><time>2026-04-12T12:52:38.958Z</time></trkpt><trkpt lat="37.9644733" lon="16.006085"><ele>567.0</ele><time>2026-04-12T12:52:39.958Z</time></trkpt><trkpt lat="37.964395" lon="16.0060567"><ele>567.0</ele><time>2026-04-12T12:52:40.958Z</time></trkpt><trkpt lat="37.9643317" lon="16.0059717"><ele>567.0</ele><time>2026-04-12T12:52:41.958Z</time></trkpt><trkpt lat="37.9643" lon="16.0058567"><ele>567.0</ele><time>2026-04-12T12:52:42.958Z</time></trkpt><trkpt lat="37.964285" lon="16.0057317"><ele>567.0</ele><time>2026-04-12T12:52:43.958Z</time></trkpt><trkpt lat="37.9643" lon="16.0055917"><ele>568.0</ele><time>2026-04-12T12:52:44.959Z</time></trkpt><trkpt lat="37.96435" lon="16.0054217"><ele>569.0</ele><time>2026-04-12T12:52:45.958Z</time></trkpt><trkpt lat="37.96441" lon="16.005235"><ele>570.0</ele><time>2026-04-12T12:52:46.959Z</time></trkpt><trkpt lat="37.9644767" lon="16.0051067"><ele>571.0</ele><time>2026-04-12T12:52:47.958Z</time></trkpt><trkpt lat="37.9645417" lon="16.0050267"><ele>571.2</ele><time>2026-04-12T12:52:48.959Z</time></trkpt><trkpt lat="37.96462" lon="16.004975"><ele>571.4000000000001</ele><time>2026-04-12T12:52:49.958Z</time></trkpt><trkpt lat="37.9647167" lon="16.0049467"><ele>571.6</ele><time>2026-04-12T12:52:50.958Z</time></trkpt><trkpt lat="37.9648217" lon="16.004915"><ele>571.8000000000001</ele><time>2026-04-12T12:52:51.958Z</time></trkpt><trkpt lat="37.96493" lon="16.0048533"><ele>572.0</ele><time>2026-04-12T12:52:52.958Z</time></trkpt><trkpt lat="37.9650217" lon="16.00477"><ele>572.0</ele><time>2026-04-12T12:52:53.959Z</time></trkpt><trkpt lat="37.96509" lon="16.00468"><ele>572.0</ele><time>2026-04-12T12:52:54.958Z</time></trkpt><trkpt lat="37.9651267" lon="16.00459"><ele>572.0</ele><time>2026-04-12T12:52:55.958Z</time></trkpt><trkpt lat="37.965135" lon="16.0045017"><ele>572.0</ele><time>2026-04-12T12:52:56.959Z</time></trkpt><trkpt lat="37.9651167" lon="16.0044083"><ele>572.0</ele><time>2026-04-12T12:52:57.958Z</time></trkpt><trkpt lat="37.9650633" lon="16.00432"><ele>572.0</ele><time>2026-04-12T12:52:58.958Z</time></trkpt><trkpt lat="37.9649567" lon="16.004225"><ele>576.0</ele><time>2026-04-12T12:52:59.959Z</time></trkpt><trkpt lat="37.964815" lon="16.0041267"><ele>580.0</ele><time>2026-04-12T12:53:00.958Z</time></trkpt><trkpt lat="37.9646717" lon="16.0040083"><ele>584.0</ele><time>2026-04-12T12:53:01.959Z</time></trkpt><trkpt lat="37.9645617" lon="16.0038833"><ele>584.0</ele><time>2026-04-12T12:53:02.958Z</time></trkpt><trkpt lat="37.964465" lon="16.0037767"><ele>584.0</ele><time>2026-04-12T12:53:03.958Z</time></trkpt><trkpt lat="37.9643783" lon="16.0037"><ele>584.0</ele><time>2026-04-12T12:53:04.958Z</time></trkpt><trkpt lat="37.96428" lon="16.0036667"><ele>584.0</ele><time>2026-04-12T12:53:05.958Z</time></trkpt><trkpt lat="37.9641717" lon="16.0036533"><ele>584.0</ele><time>2026-04-12T12:53:06.958Z</time></trkpt><trkpt lat="37.964065" lon="16.00364"><ele>584.2</ele><time>2026-04-12T12:53:07.958Z</time></trkpt><trkpt lat="37.96397" lon="16.0036133"><ele>584.4</ele><time>2026-04-12T12:53:08.959Z</time></trkpt><trkpt lat="37.9638967" lon="16.00354"><ele>584.6</ele><time>2026-04-12T12:53:09.958Z</time></trkpt><trkpt lat="37.9638467" lon="16.0034283"><ele>584.8</ele><time>2026-04-12T12:53:10.959Z</time></trkpt><trkpt lat="37.9637833" lon="16.0033167"><ele>585.0</ele><time>2026-04-12T12:53:11.958Z</time></trkpt><trkpt lat="37.9636833" lon="16.0032283"><ele>585.0</ele><time>2026-04-12T12:53:12.958Z</time></trkpt><trkpt lat="37.9635767" lon="16.0031517"><ele>585.0</ele><time>2026-04-12T12:53:13.958Z</time></trkpt><trkpt lat="37.9634783" lon="16.003085"><ele>585.0</ele><time>2026-04-12T12:53:14.958Z</time></trkpt><trkpt lat="37.9633883" lon="16.0030617"><ele>585.0</ele><time>2026-04-12T12:53:15.958Z</time></trkpt><trkpt lat="37.963295" lon="16.0030867"><ele>585.0</ele><time>2026-04-12T12:53:16.958Z</time></trkpt><trkpt lat="37.9632133" lon="16.00316"><ele>584.6</ele><time>2026-04-12T12:53:17.958Z</time></trkpt><trkpt lat="37.963155" lon="16.00329"><ele>584.2</ele><time>2026-04-12T12:53:18.958Z</time></trkpt><trkpt lat="37.9630983" lon="16.0033967"><ele>583.8</ele><time>2026-04-12T12:53:19.958Z</time></trkpt><trkpt lat="37.9630283" lon="16.0034683"><ele>583.4</ele><time>2026-04-12T12:53:20.958Z</time></trkpt><trkpt lat="37.96294" lon="16.0035083"><ele>583.0</ele><time>2026-04-12T12:53:21.958Z</time></trkpt><trkpt lat="37.9628283" lon="16.003505"><ele>578.8</ele><time>2026-04-12T12:53:22.959Z</time></trkpt><trkpt lat="37.9627183" lon="16.003475"><ele>574.5999999999999</ele><time>2026-04-12T12:53:23.958Z</time></trkpt><trkpt lat="37.9626067" lon="16.0034567"><ele>570.4000000000001</ele><time>2026-04-12T12:53:24.957Z</time></trkpt><trkpt lat="37.962495" lon="16.003415"><ele>566.2</ele><time>2026-04-12T12:53:25.958Z</time></trkpt><trkpt lat="37.9624033" lon="16.00335"><ele>562.0</ele><time>2026-04-12T12:53:26.958Z</time></trkpt><trkpt lat="37.96233" lon="16.0033133"><ele>562.0</ele><time>2026-04-12T12:53:27.958Z</time></trkpt><trkpt lat="37.9622617" lon="16.00333"><ele>562.0</ele><time>2026-04-12T12:53:28.958Z</time></trkpt><trkpt lat="37.9621917" lon="16.0034817"><ele>562.0</ele><time>2026-04-12T12:53:30.959Z</time></trkpt><trkpt lat="37.9621817" lon="16.003625"><ele>562.0</ele><time>2026-04-12T12:53:31.958Z</time></trkpt><trkpt lat="37.9621683" lon="16.0037667"><ele>562.0</ele><time>2026-04-12T12:53:32.958Z</time></trkpt><trkpt lat="37.9621167" lon="16.0038817"><ele>558.25</ele><time>2026-04-12T12:53:33.959Z</time></trkpt><trkpt lat="37.9620233" lon="16.003985"><ele>554.5</ele><time>2026-04-12T12:53:34.958Z</time></trkpt><trkpt lat="37.9619" lon="16.00408"><ele>550.75</ele><time>2026-04-12T12:53:35.958Z</time></trkpt><trkpt lat="37.9617817" lon="16.00417"><ele>547.0</ele><time>2026-04-12T12:53:36.958Z</time></trkpt><trkpt lat="37.961695" lon="16.00424"><ele>542.2</ele><time>2026-04-12T12:53:37.958Z</time></trkpt><trkpt lat="37.9616217" lon="16.004295"><ele>537.4000000000001</ele><time>2026-04-12T12:53:38.958Z</time></trkpt><trkpt lat="37.9615567" lon="16.004295"><ele>532.5999999999999</ele><time>2026-04-12T12:53:39.958Z</time></trkpt><trkpt lat="37.9614783" lon="16.0041883"><ele>527.8</ele><time>2026-04-12T12:53:41.958Z</time></trkpt><trkpt lat="37.9615467" lon="16.004045"><ele>523.0</ele><time>2026-04-12T12:53:43.959Z</time></trkpt><trkpt lat="37.9616467" lon="16.003995"><ele>527.8</ele><time>2026-04-12T12:53:59.958Z</time></trkpt><trkpt lat="37.9617633" lon="16.003915"><ele>532.5999999999999</ele><time>2026-04-12T12:54:01.958Z</time></trkpt><trkpt lat="37.961835" lon="16.0038533"><ele>537.4000000000001</ele><time>2026-04-12T12:54:02.958Z</time></trkpt><trkpt lat="37.9618883" lon="16.0037833"><ele>542.2</ele><time>2026-04-12T12:54:03.958Z</time></trkpt><trkpt lat="37.9619233" lon="16.0036967"><ele>547.0</ele><time>2026-04-12T12:54:04.958Z</time></trkpt><trkpt lat="37.9619317" lon="16.003585"><ele>547.0</ele><time>2026-04-12T12:54:05.959Z</time></trkpt><trkpt lat="37.9619183" lon="16.0034583"><ele>547.0</ele><time>2026-04-12T12:54:06.958Z</time></trkpt><trkpt lat="37.9618833" lon="16.0033217"><ele>547.0</ele><time>2026-04-12T12:54:07.958Z</time></trkpt><trkpt lat="37.9618383" lon="16.0031783"><ele>547.0</ele><time>2026-04-12T12:54:08.958Z</time></trkpt><trkpt lat="37.9617983" lon="16.0030283"><ele>547.0</ele><time>2026-04-12T12:54:09.958Z</time></trkpt><trkpt lat="37.961775" lon="16.0028883"><ele>547.0</ele><time>2026-04-12T12:54:10.958Z</time></trkpt><trkpt lat="37.9617567" lon="16.0027683"><ele>547.0</ele><time>2026-04-12T12:54:11.958Z</time></trkpt><trkpt lat="37.96173" lon="16.0026583"><ele>547.0</ele><time>2026-04-12T12:54:12.959Z</time></trkpt><trkpt lat="37.96167" lon="16.0025483"><ele>547.0</ele><time>2026-04-12T12:54:13.959Z</time></trkpt><trkpt lat="37.961575" lon="16.0024367"><ele>547.0</ele><time>2026-04-12T12:54:14.959Z</time></trkpt><trkpt lat="37.9614367" lon="16.00233"><ele>547.0</ele><time>2026-04-12T12:54:15.958Z</time></trkpt><trkpt lat="37.9612967" lon="16.0022033"><ele>547.0</ele><time>2026-04-12T12:54:16.959Z</time></trkpt><trkpt lat="37.961155" lon="16.0020783"><ele>547.0</ele><time>2026-04-12T12:54:17.958Z</time></trkpt><trkpt lat="37.9610183" lon="16.0019633"><ele>547.0</ele><time>2026-04-12T12:54:18.958Z</time></trkpt><trkpt lat="37.9609" lon="16.0018617"><ele>547.0</ele><time>2026-04-12T12:54:19.958Z</time></trkpt><trkpt lat="37.9608067" lon="16.0017733"><ele>547.0</ele><time>2026-04-12T12:54:20.958Z</time></trkpt><trkpt lat="37.960735" lon="16.0016817"><ele>545.0</ele><time>2026-04-12T12:54:21.959Z</time></trkpt><trkpt lat="37.9606783" lon="16.0015783"><ele>543.0</ele><time>2026-04-12T12:54:22.958Z</time></trkpt><trkpt lat="37.960635" lon="16.0014833"><ele>541.0</ele><time>2026-04-12T12:54:23.959Z</time></trkpt><trkpt lat="37.9605917" lon="16.0013983"><ele>539.0</ele><time>2026-04-12T12:54:24.958Z</time></trkpt><trkpt lat="37.960525" lon="16.001345"><ele>537.0</ele><time>2026-04-12T12:54:25.958Z</time></trkpt><trkpt lat="37.96046" lon="16.0013467"><ele>535.0</ele><time>2026-04-12T12:54:26.958Z</time></trkpt><trkpt lat="37.9603967" lon="16.001385"><ele>535.0</ele><time>2026-04-12T12:54:27.958Z</time></trkpt><trkpt lat="37.9603467" lon="16.001535"><ele>535.0</ele><time>2026-04-12T12:54:28.958Z</time></trkpt><trkpt lat="37.9602933" lon="16.001705"><ele>535.0</ele><time>2026-04-12T12:54:29.958Z</time></trkpt><trkpt lat="37.96022" lon="16.00185"><ele>535.0</ele><time>2026-04-12T12:54:30.959Z</time></trkpt><trkpt lat="37.960135" lon="16.0019617"><ele>531.2</ele><time>2026-04-12T12:54:31.958Z</time></trkpt><trkpt lat="37.96006" lon="16.002025"><ele>527.4</ele><time>2026-04-12T12:54:32.958Z</time></trkpt><trkpt lat="37.959975" lon="16.002035"><ele>523.6</ele><time>2026-04-12T12:54:33.958Z</time></trkpt><trkpt lat="37.9598783" lon="16.002015"><ele>519.8</ele><time>2026-04-12T12:54:34.959Z</time></trkpt><trkpt lat="37.959765" lon="16.0019817"><ele>516.0</ele><time>2026-04-12T12:54:35.958Z</time></trkpt><trkpt lat="37.9596567" lon="16.0019383"><ele>517.0</ele><time>2026-04-12T12:54:36.958Z</time></trkpt><trkpt lat="37.9595567" lon="16.0018733"><ele>518.0</ele><time>2026-04-12T12:54:37.958Z</time></trkpt><trkpt lat="37.9594683" lon="16.0017983"><ele>519.0</ele><time>2026-04-12T12:54:38.958Z</time></trkpt><trkpt lat="37.9593817" lon="16.0017267"><ele>520.0</ele><time>2026-04-12T12:54:39.958Z</time></trkpt><trkpt lat="37.9593167" lon="16.00162"><ele>521.0</ele><time>2026-04-12T12:54:40.958Z</time></trkpt><trkpt lat="37.959275" lon="16.0015133"><ele>521.0</ele><time>2026-04-12T12:54:41.958Z</time></trkpt><trkpt lat="37.95925" lon="16.0014"><ele>521.0</ele><time>2026-04-12T12:54:42.958Z</time></trkpt><trkpt lat="37.9592417" lon="16.0012617"><ele>521.0</ele><time>2026-04-12T12:54:43.959Z</time></trkpt><trkpt lat="37.959245" lon="16.001135"><ele>521.0</ele><time>2026-04-12T12:54:44.958Z</time></trkpt><trkpt lat="37.9592533" lon="16.0010333"><ele>521.0</ele><time>2026-04-12T12:54:45.958Z</time></trkpt><trkpt lat="37.95926" lon="16.0009"><ele>513.8</ele><time>2026-04-12T12:54:47.958Z</time></trkpt><trkpt lat="37.9591983" lon="16.0009233"><ele>506.6</ele><time>2026-04-12T12:54:50.958Z</time></trkpt><trkpt lat="37.959145" lon="16.0010783"><ele>499.4</ele><time>2026-04-12T12:54:52.958Z</time></trkpt><trkpt lat="37.959095" lon="16.0012033"><ele>492.2</ele><time>2026-04-12T12:54:53.958Z</time></trkpt><trkpt lat="37.9590217" lon="16.001325"><ele>485.0</ele><time>2026-04-12T12:54:54.959Z</time></trkpt><trkpt lat="37.9589467" lon="16.0014267"><ele>485.0</ele><time>2026-04-12T12:54:55.958Z</time></trkpt><trkpt lat="37.9588767" lon="16.0014967"><ele>485.0</ele><time>2026-04-12T12:54:56.958Z</time></trkpt><trkpt lat="37.9588" lon="16.00154"><ele>485.0</ele><time>2026-04-12T12:54:57.958Z</time></trkpt><trkpt lat="37.9587033" lon="16.0015933"><ele>485.0</ele><time>2026-04-12T12:54:58.958Z</time></trkpt><trkpt lat="37.9585683" lon="16.0016183"><ele>485.0</ele><time>2026-04-12T12:54:59.958Z</time></trkpt><trkpt lat="37.958435" lon="16.0016483"><ele>483.25</ele><time>2026-04-12T12:55:00.958Z</time></trkpt><trkpt lat="37.9582933" lon="16.0016683"><ele>481.5</ele><time>2026-04-12T12:55:01.959Z</time></trkpt><trkpt lat="37.95815" lon="16.001675"><ele>479.75</ele><time>2026-04-12T12:55:02.959Z</time></trkpt><trkpt lat="37.9580167" lon="16.0016967"><ele>478.0</ele><time>2026-04-12T12:55:03.958Z</time></trkpt><trkpt lat="37.9578833" lon="16.0017417"><ele>478.0</ele><time>2026-04-12T12:55:04.958Z</time></trkpt><trkpt lat="37.95775" lon="16.0017883"><ele>478.0</ele><time>2026-04-12T12:55:05.958Z</time></trkpt><trkpt lat="37.95762" lon="16.00183"><ele>478.0</ele><time>2026-04-12T12:55:06.958Z</time></trkpt><trkpt lat="37.95749" lon="16.00189"><ele>478.0</ele><time>2026-04-12T12:55:07.958Z</time></trkpt><trkpt lat="37.9573633" lon="16.0019867"><ele>477.0</ele><time>2026-04-12T12:55:08.958Z</time></trkpt><trkpt lat="37.957245" lon="16.0021267"><ele>476.0</ele><time>2026-04-12T12:55:09.958Z</time></trkpt><trkpt lat="37.9571383" lon="16.002265"><ele>475.0</ele><time>2026-04-12T12:55:10.958Z</time></trkpt><trkpt lat="37.95705" lon="16.002405"><ele>472.4</ele><time>2026-04-12T12:55:11.958Z</time></trkpt><trkpt lat="37.956995" lon="16.002535"><ele>469.8</ele><time>2026-04-12T12:55:12.958Z</time></trkpt><trkpt lat="37.95695" lon="16.0026533"><ele>467.20000000000005</ele><time>2026-04-12T12:55:13.959Z</time></trkpt><trkpt lat="37.9569117" lon="16.0027433"><ele>464.6</ele><time>2026-04-12T12:55:14.958Z</time></trkpt><trkpt lat="37.9568433" lon="16.00279"><ele>462.0</ele><time>2026-04-12T12:55:15.958Z</time></trkpt><trkpt lat="37.9567533" lon="16.002815"><ele>465.0</ele><time>2026-04-12T12:55:16.958Z</time></trkpt><trkpt lat="37.95664" lon="16.0028533"><ele>468.0</ele><time>2026-04-12T12:55:17.958Z</time></trkpt><trkpt lat="37.9565083" lon="16.0029133"><ele>471.0</ele><time>2026-04-12T12:55:18.959Z</time></trkpt><trkpt lat="37.9563833" lon="16.0030233"><ele>474.0</ele><time>2026-04-12T12:55:19.958Z</time></trkpt><trkpt lat="37.9562917" lon="16.0031783"><ele>470.25</ele><time>2026-04-12T12:55:20.958Z</time></trkpt><trkpt lat="37.9562283" lon="16.0033317"><ele>466.5</ele><time>2026-04-12T12:55:21.958Z</time></trkpt><trkpt lat="37.9561533" lon="16.0034883"><ele>462.75</ele><time>2026-04-12T12:55:22.958Z</time></trkpt><trkpt lat="37.9560717" lon="16.0036417"><ele>459.0</ele><time>2026-04-12T12:55:23.958Z</time></trkpt><trkpt lat="37.9559867" lon="16.0037883"><ele>459.0</ele><time>2026-04-12T12:55:24.958Z</time></trkpt><trkpt lat="37.9559033" lon="16.0039333"><ele>459.0</ele><time>2026-04-12T12:55:25.958Z</time></trkpt><trkpt lat="37.9558183" lon="16.0040633"><ele>459.0</ele><time>2026-04-12T12:55:26.959Z</time></trkpt><trkpt lat="37.95574" lon="16.004175"><ele>459.0</ele><time>2026-04-12T12:55:27.958Z</time></trkpt><trkpt lat="37.95567" lon="16.00429"><ele>457.2</ele><time>2026-04-12T12:55:28.958Z</time></trkpt><trkpt lat="37.9556267" lon="16.004405"><ele>455.4</ele><time>2026-04-12T12:55:29.958Z</time></trkpt><trkpt lat="37.9555833" lon="16.0045083"><ele>453.6</ele><time>2026-04-12T12:55:30.958Z</time></trkpt><trkpt lat="37.9555133" lon="16.004595"><ele>451.8</ele><time>2026-04-12T12:55:31.958Z</time></trkpt><trkpt lat="37.9554017" lon="16.0046533"><ele>450.0</ele><time>2026-04-12T12:55:32.959Z</time></trkpt><trkpt lat="37.955265" lon="16.0047183"><ele>450.0</ele><time>2026-04-12T12:55:33.958Z</time></trkpt><trkpt lat="37.95513" lon="16.004785"><ele>450.0</ele><time>2026-04-12T12:55:34.958Z</time></trkpt><trkpt lat="37.9550033" lon="16.0048433"><ele>450.0</ele><time>2026-04-12T12:55:35.959Z</time></trkpt><trkpt lat="37.9548733" lon="16.004885"><ele>450.0</ele><time>2026-04-12T12:55:36.959Z</time></trkpt><trkpt lat="37.95478" lon="16.0049083"><ele>448.0</ele><time>2026-04-12T12:55:37.959Z</time></trkpt><trkpt lat="37.9547167" lon="16.0049067"><ele>446.0</ele><time>2026-04-12T12:55:39.958Z</time></trkpt><trkpt lat="37.9546183" lon="16.0048883"><ele>444.0</ele><time>2026-04-12T12:55:43.958Z</time></trkpt><trkpt lat="37.954545" lon="16.00489"><ele>442.0</ele><time>2026-04-12T12:55:44.959Z</time></trkpt><trkpt lat="37.9544483" lon="16.0048767"><ele>440.0</ele><time>2026-04-12T12:55:45.959Z</time></trkpt><trkpt lat="37.9543333" lon="16.0048483"><ele>441.75</ele><time>2026-04-12T12:55:46.959Z</time></trkpt><trkpt lat="37.95419" lon="16.0048"><ele>443.5</ele><time>2026-04-12T12:55:47.958Z</time></trkpt><trkpt lat="37.9540483" lon="16.0047417"><ele>445.25</ele><time>2026-04-12T12:55:48.958Z</time></trkpt><trkpt lat="37.9539167" lon="16.0046783"><ele>447.0</ele><time>2026-04-12T12:55:49.958Z</time></trkpt><trkpt lat="37.9537967" lon="16.0046333"><ele>447.0</ele><time>2026-04-12T12:55:50.958Z</time></trkpt><trkpt lat="37.953685" lon="16.0045983"><ele>447.0</ele><time>2026-04-12T12:55:51.959Z</time></trkpt><trkpt lat="37.953565" lon="16.0045867"><ele>447.0</ele><time>2026-04-12T12:55:52.958Z</time></trkpt><trkpt lat="37.953455" lon="16.0045917"><ele>447.0</ele><time>2026-04-12T12:55:53.958Z</time></trkpt><trkpt lat="37.95335" lon="16.0046217"><ele>452.25</ele><time>2026-04-12T12:55:54.958Z</time></trkpt><trkpt lat="37.95324" lon="16.00466"><ele>457.5</ele><time>2026-04-12T12:55:55.959Z</time></trkpt><trkpt lat="37.9531217" lon="16.0047067"><ele>462.75</ele><time>2026-04-12T12:55:56.959Z</time></trkpt><trkpt lat="37.9529983" lon="16.0047467"><ele>468.0</ele><time>2026-04-12T12:55:57.959Z</time></trkpt><trkpt lat="37.95289" lon="16.0047783"><ele>468.0</ele><time>2026-04-12T12:55:58.958Z</time></trkpt><trkpt lat="37.9527933" lon="16.0047967"><ele>467.99999999999994</ele><time>2026-04-12T12:55:59.958Z</time></trkpt><trkpt lat="37.95271" lon="16.0047817"><ele>467.99999999999994</ele><time>2026-04-12T12:56:00.958Z</time></trkpt><trkpt lat="37.9526317" lon="16.0047383"><ele>468.0</ele><time>2026-04-12T12:56:01.959Z</time></trkpt><trkpt lat="37.95256" lon="16.0046683"><ele>468.0</ele><time>2026-04-12T12:56:02.958Z</time></trkpt><trkpt lat="37.9524883" lon="16.0045633"><ele>469.66666666666663</ele><time>2026-04-12T12:56:03.958Z</time></trkpt><trkpt lat="37.95241" lon="16.0043967"><ele>471.3333333333333</ele><time>2026-04-12T12:56:04.958Z</time></trkpt><trkpt lat="37.9523283" lon="16.0042083"><ele>473.0</ele><time>2026-04-12T12:56:05.958Z</time></trkpt><trkpt lat="37.952245" lon="16.0040317"><ele>473.5</ele><time>2026-04-12T12:56:06.958Z</time></trkpt><trkpt lat="37.9521633" lon="16.003875"><ele>474.0</ele><time>2026-04-12T12:56:07.958Z</time></trkpt><trkpt lat="37.9520917" lon="16.00374"><ele>474.5</ele><time>2026-04-12T12:56:08.958Z</time></trkpt><trkpt lat="37.9520317" lon="16.0036183"><ele>475.0</ele><time>2026-04-12T12:56:09.958Z</time></trkpt><trkpt lat="37.9519917" lon="16.0035133"><ele>475.00000000000006</ele><time>2026-04-12T12:56:10.958Z</time></trkpt><trkpt lat="37.95198" lon="16.00341"><ele>475.0</ele><time>2026-04-12T12:56:11.958Z</time></trkpt><trkpt lat="37.9519883" lon="16.0033183"><ele>475.0</ele><time>2026-04-12T12:56:12.959Z</time></trkpt><trkpt lat="37.9520167" lon="16.003225"><ele>475.0</ele><time>2026-04-12T12:56:13.959Z</time></trkpt><trkpt lat="37.9520767" lon="16.0031283"><ele>475.00000000000006</ele><time>2026-04-12T12:56:14.959Z</time></trkpt><trkpt lat="37.9521267" lon="16.003035"><ele>475.0</ele><time>2026-04-12T12:56:15.959Z</time></trkpt><trkpt lat="37.9521583" lon="16.0029433"><ele>474.1666666666667</ele><time>2026-04-12T12:56:16.958Z</time></trkpt><trkpt lat="37.95217" lon="16.0028467"><ele>473.33333333333337</ele><time>2026-04-12T12:56:17.958Z</time></trkpt><trkpt lat="37.95216" lon="16.00275"><ele>472.5</ele><time>2026-04-12T12:56:18.958Z</time></trkpt><trkpt lat="37.9521317" lon="16.0026567"><ele>471.66666666666663</ele><time>2026-04-12T12:56:19.958Z</time></trkpt><trkpt lat="37.9520967" lon="16.002565"><ele>470.8333333333333</ele><time>2026-04-12T12:56:20.958Z</time></trkpt><trkpt lat="37.9520683" lon="16.002475"><ele>470.0</ele><time>2026-04-12T12:56:21.958Z</time></trkpt><trkpt lat="37.95203" lon="16.00238"><ele>469.49999999999994</ele><time>2026-04-12T12:56:22.958Z</time></trkpt><trkpt lat="37.9520033" lon="16.002295"><ele>469.0</ele><time>2026-04-12T12:56:23.958Z</time></trkpt><trkpt lat="37.9519933" lon="16.002195"><ele>468.5</ele><time>2026-04-12T12:56:24.959Z</time></trkpt><trkpt lat="37.9519983" lon="16.0020883"><ele>468.0</ele><time>2026-04-12T12:56:25.958Z</time></trkpt><trkpt lat="37.9520133" lon="16.0019617"><ele>467.49999999999994</ele><time>2026-04-12T12:56:26.958Z</time></trkpt><trkpt lat="37.95201" lon="16.00183"><ele>467.0</ele><time>2026-04-12T12:56:27.959Z</time></trkpt><trkpt lat="37.9519833" lon="16.001705"><ele>464.40000000000003</ele><time>2026-04-12T12:56:28.959Z</time></trkpt><trkpt lat="37.95193" lon="16.00158"><ele>461.80000000000007</ele><time>2026-04-12T12:56:29.958Z</time></trkpt><trkpt lat="37.9518733" lon="16.0014717"><ele>459.2</ele><time>2026-04-12T12:56:30.959Z</time></trkpt><trkpt lat="37.9518217" lon="16.0013833"><ele>456.6</ele><time>2026-04-12T12:56:31.958Z</time></trkpt><trkpt lat="37.9517433" lon="16.0013083"><ele>454.0</ele><time>2026-04-12T12:56:32.958Z</time></trkpt><trkpt lat="37.951655" lon="16.0012483"><ele>454.0</ele><time>2026-04-12T12:56:33.958Z</time></trkpt><trkpt lat="37.951565" lon="16.0011917"><ele>454.0</ele><time>2026-04-12T12:56:34.958Z</time></trkpt><trkpt lat="37.9514783" lon="16.001125"><ele>454.0</ele><time>2026-04-12T12:56:35.959Z</time></trkpt><trkpt lat="37.951425" lon="16.0010417"><ele>454.0</ele><time>2026-04-12T12:56:36.959Z</time></trkpt><trkpt lat="37.9513867" lon="16.0009517"><ele>454.0</ele><time>2026-04-12T12:56:37.958Z</time></trkpt><trkpt lat="37.951365" lon="16.000845"><ele>452.0</ele><time>2026-04-12T12:56:38.958Z</time></trkpt><trkpt lat="37.951365" lon="16.00071"><ele>450.0</ele><time>2026-04-12T12:56:39.959Z</time></trkpt><trkpt lat="37.9513833" lon="16.0005483"><ele>448.0</ele><time>2026-04-12T12:56:40.958Z</time></trkpt><trkpt lat="37.9513967" lon="16.0003883"><ele>446.0</ele><time>2026-04-12T12:56:41.958Z</time></trkpt><trkpt lat="37.95141" lon="16.0002483"><ele>446.0</ele><time>2026-04-12T12:56:42.958Z</time></trkpt><trkpt lat="37.95141" lon="16.000125"><ele>446.0</ele><time>2026-04-12T12:56:43.959Z</time></trkpt><trkpt lat="37.95139" lon="16.0000183"><ele>446.0</ele><time>2026-04-12T12:56:44.958Z</time></trkpt><trkpt lat="37.95135" lon="15.9999283"><ele>446.0</ele><time>2026-04-12T12:56:45.958Z</time></trkpt><trkpt lat="37.9512883" lon="15.9998383"><ele>446.0</ele><time>2026-04-12T12:56:46.958Z</time></trkpt><trkpt lat="37.9512033" lon="15.9997317"><ele>446.0</ele><time>2026-04-12T12:56:47.958Z</time></trkpt><trkpt lat="37.951115" lon="15.9996267"><ele>446.0</ele><time>2026-04-12T12:56:48.958Z</time></trkpt><trkpt lat="37.9510317" lon="15.99953"><ele>446.0</ele><time>2026-04-12T12:56:49.959Z</time></trkpt><trkpt lat="37.9509567" lon="15.99945"><ele>446.0</ele><time>2026-04-12T12:56:50.959Z</time></trkpt><trkpt lat="37.950875" lon="15.9994067"><ele>446.0</ele><time>2026-04-12T12:56:51.958Z</time></trkpt><trkpt lat="37.9507767" lon="15.99941"><ele>441.75</ele><time>2026-04-12T12:56:52.959Z</time></trkpt><trkpt lat="37.95066" lon="15.9994383"><ele>437.5</ele><time>2026-04-12T12:56:53.958Z</time></trkpt><trkpt lat="37.950535" lon="15.999465"><ele>433.25</ele><time>2026-04-12T12:56:54.958Z</time></trkpt><trkpt lat="37.9504133" lon="15.9994867"><ele>429.0</ele><time>2026-04-12T12:56:55.959Z</time></trkpt><trkpt lat="37.9503083" lon="15.9994917"><ele>429.0</ele><time>2026-04-12T12:56:56.958Z</time></trkpt><trkpt lat="37.9502167" lon="15.9994867"><ele>429.0</ele><time>2026-04-12T12:56:57.958Z</time></trkpt><trkpt lat="37.9501233" lon="15.9994717"><ele>429.0</ele><time>2026-04-12T12:56:58.958Z</time></trkpt><trkpt lat="37.9500283" lon="15.9994483"><ele>429.0</ele><time>2026-04-12T12:56:59.958Z</time></trkpt><trkpt lat="37.9499267" lon="15.9994417"><ele>429.0</ele><time>2026-04-12T12:57:00.958Z</time></trkpt><trkpt lat="37.94983" lon="15.9994683"><ele>428.8333333333333</ele><time>2026-04-12T12:57:01.958Z</time></trkpt><trkpt lat="37.9497317" lon="15.999525"><ele>428.66666666666663</ele><time>2026-04-12T12:57:02.958Z</time></trkpt><trkpt lat="37.9496467" lon="15.9995783"><ele>428.5</ele><time>2026-04-12T12:57:03.958Z</time></trkpt><trkpt lat="37.9495717" lon="15.9996017"><ele>428.3333333333333</ele><time>2026-04-12T12:57:04.958Z</time></trkpt><trkpt lat="37.9494983" lon="15.9995867"><ele>428.16666666666663</ele><time>2026-04-12T12:57:05.958Z</time></trkpt><trkpt lat="37.9494333" lon="15.9995267"><ele>428.0</ele><time>2026-04-12T12:57:06.959Z</time></trkpt><trkpt lat="37.949355" lon="15.99944"><ele>428.0</ele><time>2026-04-12T12:57:07.959Z</time></trkpt><trkpt lat="37.949265" lon="15.9993417"><ele>428.0</ele><time>2026-04-12T12:57:08.958Z</time></trkpt><trkpt lat="37.949145" lon="15.99924"><ele>428.0</ele><time>2026-04-12T12:57:09.958Z</time></trkpt><trkpt lat="37.9490117" lon="15.9991517"><ele>428.0</ele><time>2026-04-12T12:57:10.959Z</time></trkpt><trkpt lat="37.94888" lon="15.99908"><ele>433.5</ele><time>2026-04-12T12:57:11.958Z</time></trkpt><trkpt lat="37.9487533" lon="15.9990133"><ele>439.0</ele><time>2026-04-12T12:57:12.958Z</time></trkpt><trkpt lat="37.9486267" lon="15.9989467"><ele>444.5</ele><time>2026-04-12T12:57:13.958Z</time></trkpt><trkpt lat="37.948515" lon="15.998865"><ele>450.0</ele><time>2026-04-12T12:57:14.958Z</time></trkpt><trkpt lat="37.948415" lon="15.9987767"><ele>446.6</ele><time>2026-04-12T12:57:15.959Z</time></trkpt><trkpt lat="37.94832" lon="15.9986967"><ele>443.2</ele><time>2026-04-12T12:57:16.958Z</time></trkpt><trkpt lat="37.9482183" lon="15.9986533"><ele>439.79999999999995</ele><time>2026-04-12T12:57:17.958Z</time></trkpt><trkpt lat="37.9481133" lon="15.9986583"><ele>436.4</ele><time>2026-04-12T12:57:18.958Z</time></trkpt><trkpt lat="37.9480133" lon="15.9987183"><ele>433.0</ele><time>2026-04-12T12:57:19.958Z</time></trkpt><trkpt lat="37.947915" lon="15.998815"><ele>433.0</ele><time>2026-04-12T12:57:20.958Z</time></trkpt><trkpt lat="37.94782" lon="15.9989417"><ele>433.0</ele><time>2026-04-12T12:57:21.958Z</time></trkpt><trkpt lat="37.9477117" lon="15.9990533"><ele>433.0</ele><time>2026-04-12T12:57:22.958Z</time></trkpt><trkpt lat="37.9475833" lon="15.999135"><ele>433.0</ele><time>2026-04-12T12:57:23.958Z</time></trkpt><trkpt lat="37.94743" lon="15.9991833"><ele>431.0</ele><time>2026-04-12T12:57:24.958Z</time></trkpt><trkpt lat="37.9472683" lon="15.9992133"><ele>429.0</ele><time>2026-04-12T12:57:25.959Z</time></trkpt><trkpt lat="37.9471133" lon="15.9992333"><ele>427.0</ele><time>2026-04-12T12:57:26.958Z</time></trkpt><trkpt lat="37.9469633" lon="15.9992433"><ele>427.0</ele><time>2026-04-12T12:57:27.959Z</time></trkpt><trkpt lat="37.946845" lon="15.9992533"><ele>427.00000000000006</ele><time>2026-04-12T12:57:28.958Z</time></trkpt><trkpt lat="37.9467467" lon="15.9992833"><ele>427.00000000000006</ele><time>2026-04-12T12:57:29.958Z</time></trkpt><trkpt lat="37.9466617" lon="15.9993317"><ele>427.0</ele><time>2026-04-12T12:57:30.958Z</time></trkpt><trkpt lat="37.9465817" lon="15.999405"><ele>427.0</ele><time>2026-04-12T12:57:31.958Z</time></trkpt><trkpt lat="37.9465" lon="15.99947"><ele>430.0</ele><time>2026-04-12T12:57:32.959Z</time></trkpt><trkpt lat="37.946405" lon="15.9995267"><ele>433.00000000000006</ele><time>2026-04-12T12:57:33.958Z</time></trkpt><trkpt lat="37.9463033" lon="15.9995433"><ele>436.00000000000006</ele><time>2026-04-12T12:57:34.958Z</time></trkpt><trkpt lat="37.9461883" lon="15.9995283"><ele>439.0</ele><time>2026-04-12T12:57:35.958Z</time></trkpt><trkpt lat="37.9460783" lon="15.9995117"><ele>442.0</ele><time>2026-04-12T12:57:36.958Z</time></trkpt><trkpt lat="37.9459833" lon="15.9995083"><ele>442.0</ele><time>2026-04-12T12:57:37.958Z</time></trkpt><trkpt lat="37.9458883" lon="15.9995367"><ele>442.00000000000006</ele><time>2026-04-12T12:57:38.958Z</time></trkpt><trkpt lat="37.9457983" lon="15.9995917"><ele>442.00000000000006</ele><time>2026-04-12T12:57:39.958Z</time></trkpt><trkpt lat="37.94572" lon="15.99967"><ele>442.0</ele><time>2026-04-12T12:57:40.958Z</time></trkpt><trkpt lat="37.94565" lon="15.9997767"><ele>442.0</ele><time>2026-04-12T12:57:41.959Z</time></trkpt><trkpt lat="37.9455983" lon="15.9999"><ele>441.0</ele><time>2026-04-12T12:57:42.958Z</time></trkpt><trkpt lat="37.9455417" lon="16.0000417"><ele>440.0</ele><time>2026-04-12T12:57:43.958Z</time></trkpt><trkpt lat="37.9455" lon="16.0002"><ele>439.0</ele><time>2026-04-12T12:57:44.958Z</time></trkpt><trkpt lat="37.94546" lon="16.0003567"><ele>438.0</ele><time>2026-04-12T12:57:45.959Z</time></trkpt><trkpt lat="37.945415" lon="16.000505"><ele>438.0</ele><time>2026-04-12T12:57:46.958Z</time></trkpt><trkpt lat="37.9453633" lon="16.0006433"><ele>437.99999999999994</ele><time>2026-04-12T12:57:47.958Z</time></trkpt><trkpt lat="37.945305" lon="16.0007783"><ele>437.99999999999994</ele><time>2026-04-12T12:57:48.959Z</time></trkpt><trkpt lat="37.9452433" lon="16.000885"><ele>438.0</ele><time>2026-04-12T12:57:49.958Z</time></trkpt><trkpt lat="37.945195" lon="16.0009567"><ele>438.0</ele><time>2026-04-12T12:57:50.958Z</time></trkpt><trkpt lat="37.9450817" lon="16.0009733"><ele>438.6666666666667</ele><time>2026-04-12T12:57:52.959Z</time></trkpt><trkpt lat="37.9450183" lon="16.0009433"><ele>439.33333333333337</ele><time>2026-04-12T12:57:53.958Z</time></trkpt><trkpt lat="37.94496" lon="16.0008783"><ele>440.0</ele><time>2026-04-12T12:57:54.958Z</time></trkpt><trkpt lat="37.9449067" lon="16.00081"><ele>440.6666666666667</ele><time>2026-04-12T12:57:55.958Z</time></trkpt><trkpt lat="37.944845" lon="16.0008267"><ele>441.33333333333337</ele><time>2026-04-12T12:57:56.959Z</time></trkpt><trkpt lat="37.9447433" lon="16.000955"><ele>442.0</ele><time>2026-04-12T12:57:58.958Z</time></trkpt><trkpt lat="37.9446817" lon="16.0010583"><ele>439.20000000000005</ele><time>2026-04-12T12:57:59.958Z</time></trkpt><trkpt lat="37.9446033" lon="16.00118"><ele>436.40000000000003</ele><time>2026-04-12T12:58:00.958Z</time></trkpt><trkpt lat="37.9445233" lon="16.00128"><ele>433.59999999999997</ele><time>2026-04-12T12:58:01.958Z</time></trkpt><trkpt lat="37.9444467" lon="16.0013417"><ele>430.79999999999995</ele><time>2026-04-12T12:58:02.958Z</time></trkpt><trkpt lat="37.9443633" lon="16.00137"><ele>428.0</ele><time>2026-04-12T12:58:03.958Z</time></trkpt><trkpt lat="37.94426" lon="16.0013667"><ele>425.25</ele><time>2026-04-12T12:58:04.958Z</time></trkpt><trkpt lat="37.944135" lon="16.00132"><ele>422.5</ele><time>2026-04-12T12:58:05.958Z</time></trkpt><trkpt lat="37.94401" lon="16.001275"><ele>419.75</ele><time>2026-04-12T12:58:06.958Z</time></trkpt><trkpt lat="37.9439067" lon="16.0012267"><ele>417.0</ele><time>2026-04-12T12:58:07.959Z</time></trkpt><trkpt lat="37.9438183" lon="16.0011917"><ele>417.0</ele><time>2026-04-12T12:58:08.958Z</time></trkpt><trkpt lat="37.9437483" lon="16.00113"><ele>417.0</ele><time>2026-04-12T12:58:09.958Z</time></trkpt><trkpt lat="37.9436933" lon="16.00106"><ele>417.0</ele><time>2026-04-12T12:58:10.959Z</time></trkpt><trkpt lat="37.94366" lon="16.0009633"><ele>417.0</ele><time>2026-04-12T12:58:11.958Z</time></trkpt><trkpt lat="37.9436183" lon="16.0008667"><ele>417.0</ele><time>2026-04-12T12:58:12.958Z</time></trkpt><trkpt lat="37.943555" lon="16.00079"><ele>417.0</ele><time>2026-04-12T12:58:13.959Z</time></trkpt><trkpt lat="37.9434783" lon="16.0007383"><ele>415.5</ele><time>2026-04-12T12:58:14.958Z</time></trkpt><trkpt lat="37.9433983" lon="16.0007017"><ele>414.0</ele><time>2026-04-12T12:58:15.958Z</time></trkpt><trkpt lat="37.9433333" lon="16.000645"><ele>412.5</ele><time>2026-04-12T12:58:16.958Z</time></trkpt><trkpt lat="37.9432733" lon="16.0005783"><ele>411.0</ele><time>2026-04-12T12:58:17.958Z</time></trkpt><trkpt lat="37.9432217" lon="16.0004767"><ele>409.5</ele><time>2026-04-12T12:58:18.959Z</time></trkpt><trkpt lat="37.9431633" lon="16.0003717"><ele>408.0</ele><time>2026-04-12T12:58:19.959Z</time></trkpt><trkpt lat="37.9430967" lon="16.0002867"><ele>408.0</ele><time>2026-04-12T12:58:20.958Z</time></trkpt><trkpt lat="37.943005" lon="16.0002183"><ele>408.0</ele><time>2026-04-12T12:58:21.958Z</time></trkpt><trkpt lat="37.942925" lon="16.00016"><ele>408.0</ele><time>2026-04-12T12:58:22.958Z</time></trkpt><trkpt lat="37.942875" lon="16.0000967"><ele>408.0</ele><time>2026-04-12T12:58:23.958Z</time></trkpt><trkpt lat="37.942835" lon="16.0000267"><ele>408.0</ele><time>2026-04-12T12:58:24.958Z</time></trkpt><trkpt lat="37.942815" lon="15.999945"><ele>408.0</ele><time>2026-04-12T12:58:25.958Z</time></trkpt><trkpt lat="37.9428233" lon="15.9998433"><ele>408.0</ele><time>2026-04-12T12:58:26.958Z</time></trkpt><trkpt lat="37.9428717" lon="15.99973"><ele>408.0</ele><time>2026-04-12T12:58:27.959Z</time></trkpt><trkpt lat="37.9429667" lon="15.9996133"><ele>408.0</ele><time>2026-04-12T12:58:28.958Z</time></trkpt><trkpt lat="37.9430383" lon="15.9995183"><ele>408.0</ele><time>2026-04-12T12:58:29.958Z</time></trkpt><trkpt lat="37.9430883" lon="15.9994383"><ele>408.0</ele><time>2026-04-12T12:58:30.958Z</time></trkpt><trkpt lat="37.943105" lon="15.999295"><ele>408.0</ele><time>2026-04-12T12:58:32.958Z</time></trkpt><trkpt lat="37.943055" lon="15.999215"><ele>408.0</ele><time>2026-04-12T12:58:34.958Z</time></trkpt><trkpt lat="37.9429833" lon="15.9991983"><ele>408.0</ele><time>2026-04-12T12:58:35.958Z</time></trkpt><trkpt lat="37.942875" lon="15.9992133"><ele>408.0</ele><time>2026-04-12T12:58:36.959Z</time></trkpt><trkpt lat="37.9427383" lon="15.9992517"><ele>408.0</ele><time>2026-04-12T12:58:37.959Z</time></trkpt><trkpt lat="37.9425817" lon="15.9992983"><ele>402.33333333333337</ele><time>2026-04-12T12:58:38.958Z</time></trkpt><trkpt lat="37.9424217" lon="15.9993433"><ele>396.6666666666667</ele><time>2026-04-12T12:58:39.959Z</time></trkpt><trkpt lat="37.9422717" lon="15.9993917"><ele>391.0</ele><time>2026-04-12T12:58:40.958Z</time></trkpt><trkpt lat="37.942125" lon="15.999425"><ele>391.0</ele><time>2026-04-12T12:58:41.958Z</time></trkpt><trkpt lat="37.941995" lon="15.9994517"><ele>391.0</ele><time>2026-04-12T12:58:42.958Z</time></trkpt><trkpt lat="37.9418733" lon="15.9995083"><ele>391.0</ele><time>2026-04-12T12:58:43.958Z</time></trkpt><trkpt lat="37.941745" lon="15.999575"><ele>391.0</ele><time>2026-04-12T12:58:44.958Z</time></trkpt><trkpt lat="37.9416233" lon="15.9996783"><ele>390.75</ele><time>2026-04-12T12:58:45.958Z</time></trkpt><trkpt lat="37.9414967" lon="15.9997867"><ele>390.5</ele><time>2026-04-12T12:58:46.959Z</time></trkpt><trkpt lat="37.9413867" lon="15.9998633"><ele>390.25</ele><time>2026-04-12T12:58:47.958Z</time></trkpt><trkpt lat="37.941295" lon="15.9998983"><ele>390.0</ele><time>2026-04-12T12:58:48.959Z</time></trkpt><trkpt lat="37.9412067" lon="15.9999017"><ele>390.0</ele><time>2026-04-12T12:58:49.958Z</time></trkpt><trkpt lat="37.941135" lon="15.9998783"><ele>390.0</ele><time>2026-04-12T12:58:50.959Z</time></trkpt><trkpt lat="37.941075" lon="15.9998083"><ele>390.0</ele><time>2026-04-12T12:58:51.958Z</time></trkpt><trkpt lat="37.9410267" lon="15.9997083"><ele>390.0</ele><time>2026-04-12T12:58:52.958Z</time></trkpt><trkpt lat="37.9409917" lon="15.9995767"><ele>390.0</ele><time>2026-04-12T12:58:53.958Z</time></trkpt><trkpt lat="37.9409917" lon="15.9994317"><ele>390.0</ele><time>2026-04-12T12:58:54.959Z</time></trkpt><trkpt lat="37.9410233" lon="15.9992967"><ele>390.0</ele><time>2026-04-12T12:58:55.958Z</time></trkpt><trkpt lat="37.941075" lon="15.9991583"><ele>390.0</ele><time>2026-04-12T12:58:56.958Z</time></trkpt><trkpt lat="37.9411383" lon="15.9990183"><ele>390.0</ele><time>2026-04-12T12:58:57.958Z</time></trkpt><trkpt lat="37.941195" lon="15.9988883"><ele>392.25</ele><time>2026-04-12T12:58:58.958Z</time></trkpt><trkpt lat="37.9412217" lon="15.9987583"><ele>394.5</ele><time>2026-04-12T12:58:59.958Z</time></trkpt><trkpt lat="37.9412167" lon="15.9986217"><ele>396.75</ele><time>2026-04-12T12:59:00.958Z</time></trkpt><trkpt lat="37.9411783" lon="15.99846"><ele>399.0</ele><time>2026-04-12T12:59:01.959Z</time></trkpt><trkpt lat="37.9411233" lon="15.9982933"><ele>399.0</ele><time>2026-04-12T12:59:02.958Z</time></trkpt><trkpt lat="37.9410583" lon="15.9981333"><ele>399.0</ele><time>2026-04-12T12:59:03.958Z</time></trkpt><trkpt lat="37.9410233" lon="15.997985"><ele>399.0</ele><time>2026-04-12T12:59:04.958Z</time></trkpt><trkpt lat="37.9409783" lon="15.9978367"><ele>399.0</ele><time>2026-04-12T12:59:05.958Z</time></trkpt><trkpt lat="37.9409367" lon="15.9977"><ele>395.5</ele><time>2026-04-12T12:59:06.958Z</time></trkpt><trkpt lat="37.9408717" lon="15.9975833"><ele>392.0</ele><time>2026-04-12T12:59:07.958Z</time></trkpt><trkpt lat="37.9407767" lon="15.99748"><ele>388.5</ele><time>2026-04-12T12:59:08.959Z</time></trkpt><trkpt lat="37.9406583" lon="15.9973883"><ele>385.0</ele><time>2026-04-12T12:59:09.958Z</time></trkpt><trkpt lat="37.9405317" lon="15.9972967"><ele>384.25</ele><time>2026-04-12T12:59:10.958Z</time></trkpt><trkpt lat="37.9403983" lon="15.99721"><ele>383.5</ele><time>2026-04-12T12:59:11.959Z</time></trkpt><trkpt lat="37.940275" lon="15.99713"><ele>382.75</ele><time>2026-04-12T12:59:12.958Z</time></trkpt><trkpt lat="37.94016" lon="15.9970533"><ele>382.0</ele><time>2026-04-12T12:59:13.959Z</time></trkpt><trkpt lat="37.9400483" lon="15.9969917"><ele>381.20000000000005</ele><time>2026-04-12T12:59:14.958Z</time></trkpt><trkpt lat="37.9399517" lon="15.9969317"><ele>380.4</ele><time>2026-04-12T12:59:15.958Z</time></trkpt><trkpt lat="37.9398633" lon="15.9968783"><ele>379.6</ele><time>2026-04-12T12:59:16.958Z</time></trkpt><trkpt lat="37.9397717" lon="15.99681"><ele>378.79999999999995</ele><time>2026-04-12T12:59:17.958Z</time></trkpt><trkpt lat="37.939695" lon="15.9967417"><ele>378.0</ele><time>2026-04-12T12:59:18.958Z</time></trkpt><trkpt lat="37.9396233" lon="15.9966683"><ele>378.0</ele><time>2026-04-12T12:59:19.958Z</time></trkpt><trkpt lat="37.93954" lon="15.9966283"><ele>378.0</ele><time>2026-04-12T12:59:20.959Z</time></trkpt><trkpt lat="37.9394433" lon="15.996625"><ele>378.0</ele><time>2026-04-12T12:59:21.958Z</time></trkpt><trkpt lat="37.93934" lon="15.99662"><ele>378.0</ele><time>2026-04-12T12:59:22.959Z</time></trkpt><trkpt lat="37.9392367" lon="15.996605"><ele>378.0</ele><time>2026-04-12T12:59:23.958Z</time></trkpt><trkpt lat="37.9391417" lon="15.9965567"><ele>382.25</ele><time>2026-04-12T12:59:24.958Z</time></trkpt><trkpt lat="37.9390483" lon="15.996465"><ele>386.5</ele><time>2026-04-12T12:59:25.958Z</time></trkpt><trkpt lat="37.9389317" lon="15.9963467"><ele>390.75</ele><time>2026-04-12T12:59:26.959Z</time></trkpt><trkpt lat="37.93881" lon="15.99621"><ele>395.0</ele><time>2026-04-12T12:59:27.958Z</time></trkpt><trkpt lat="37.9386767" lon="15.996055"><ele>395.0</ele><time>2026-04-12T12:59:28.958Z</time></trkpt><trkpt lat="37.9385333" lon="15.995865"><ele>395.0</ele><time>2026-04-12T12:59:29.958Z</time></trkpt><trkpt lat="37.93838" lon="15.99565"><ele>395.0</ele><time>2026-04-12T12:59:30.959Z</time></trkpt><trkpt lat="37.938225" lon="15.9954517"><ele>395.0</ele><time>2026-04-12T12:59:31.958Z</time></trkpt><trkpt lat="37.938075" lon="15.995265"><ele>395.0</ele><time>2026-04-12T12:59:32.959Z</time></trkpt><trkpt lat="37.9379467" lon="15.9950967"><ele>395.0</ele><time>2026-04-12T12:59:33.958Z</time></trkpt><trkpt lat="37.937835" lon="15.99494"><ele>395.75</ele><time>2026-04-12T12:59:34.959Z</time></trkpt><trkpt lat="37.9377433" lon="15.9948183"><ele>396.5</ele><time>2026-04-12T12:59:35.958Z</time></trkpt><trkpt lat="37.937665" lon="15.99471"><ele>397.25</ele><time>2026-04-12T12:59:36.959Z</time></trkpt><trkpt lat="37.9375867" lon="15.9946217"><ele>398.0</ele><time>2026-04-12T12:59:37.958Z</time></trkpt><trkpt lat="37.9375033" lon="15.9945483"><ele>398.0</ele><time>2026-04-12T12:59:38.958Z</time></trkpt><trkpt lat="37.9374" lon="15.9945167"><ele>398.0</ele><time>2026-04-12T12:59:39.958Z</time></trkpt><trkpt lat="37.9372783" lon="15.9945167"><ele>398.0</ele><time>2026-04-12T12:59:40.958Z</time></trkpt><trkpt lat="37.9371333" lon="15.9945367"><ele>398.0</ele><time>2026-04-12T12:59:41.958Z</time></trkpt><trkpt lat="37.93699" lon="15.9945683"><ele>398.0</ele><time>2026-04-12T12:59:42.958Z</time></trkpt><trkpt lat="37.9368633" lon="15.99463"><ele>398.0</ele><time>2026-04-12T12:59:43.958Z</time></trkpt><trkpt lat="37.9367317" lon="15.9947083"><ele>398.0</ele><time>2026-04-12T12:59:44.958Z</time></trkpt><trkpt lat="37.9366017" lon="15.99481"><ele>398.0</ele><time>2026-04-12T12:59:45.958Z</time></trkpt><trkpt lat="37.9364717" lon="15.99492"><ele>397.25</ele><time>2026-04-12T12:59:46.958Z</time></trkpt><trkpt lat="37.9363517" lon="15.995015"><ele>396.5</ele><time>2026-04-12T12:59:47.958Z</time></trkpt><trkpt lat="37.936245" lon="15.9950933"><ele>395.75</ele><time>2026-04-12T12:59:48.958Z</time></trkpt><trkpt lat="37.9361483" lon="15.9951533"><ele>395.0</ele><time>2026-04-12T12:59:49.958Z</time></trkpt><trkpt lat="37.9360667" lon="15.9951967"><ele>395.0</ele><time>2026-04-12T12:59:50.958Z</time></trkpt><trkpt lat="37.9359867" lon="15.99521"><ele>395.0</ele><time>2026-04-12T12:59:51.958Z</time></trkpt><trkpt lat="37.9358983" lon="15.9951983"><ele>395.0</ele><time>2026-04-12T12:59:52.958Z</time></trkpt><trkpt lat="37.9358033" lon="15.9951383"><ele>395.0</ele><time>2026-04-12T12:59:53.958Z</time></trkpt><trkpt lat="37.9357" lon="15.9950317"><ele>395.0</ele><time>2026-04-12T12:59:54.958Z</time></trkpt><trkpt lat="37.9355817" lon="15.9949083"><ele>392.5</ele><time>2026-04-12T12:59:55.958Z</time></trkpt><trkpt lat="37.935455" lon="15.994815"><ele>390.0</ele><time>2026-04-12T12:59:56.958Z</time></trkpt><trkpt lat="37.935325" lon="15.9947417"><ele>387.5</ele><time>2026-04-12T12:59:57.958Z</time></trkpt><trkpt lat="37.9352017" lon="15.9946833"><ele>385.0</ele><time>2026-04-12T12:59:58.959Z</time></trkpt><trkpt lat="37.9350783" lon="15.9946533"><ele>382.75</ele><time>2026-04-12T12:59:59.958Z</time></trkpt><trkpt lat="37.9349567" lon="15.99463"><ele>380.5</ele><time>2026-04-12T13:00:00.959Z</time></trkpt><trkpt lat="37.934835" lon="15.9946083"><ele>378.25</ele><time>2026-04-12T13:00:01.958Z</time></trkpt><trkpt lat="37.9347133" lon="15.9946083"><ele>376.0</ele><time>2026-04-12T13:00:02.958Z</time></trkpt><trkpt lat="37.9345967" lon="15.9946367"><ele>376.0</ele><time>2026-04-12T13:00:03.958Z</time></trkpt><trkpt lat="37.9344683" lon="15.9946633"><ele>376.0</ele><time>2026-04-12T13:00:04.958Z</time></trkpt><trkpt lat="37.9343383" lon="15.99467"><ele>376.0</ele><time>2026-04-12T13:00:05.958Z</time></trkpt><trkpt lat="37.9342133" lon="15.9946433"><ele>376.0</ele><time>2026-04-12T13:00:06.958Z</time></trkpt><trkpt lat="37.93408" lon="15.9945917"><ele>370.0</ele><time>2026-04-12T13:00:07.958Z</time></trkpt><trkpt lat="37.9339383" lon="15.9945283"><ele>364.0</ele><time>2026-04-12T13:00:08.958Z</time></trkpt><trkpt lat="37.9337917" lon="15.9944517"><ele>358.0</ele><time>2026-04-12T13:00:09.959Z</time></trkpt><trkpt lat="37.933655" lon="15.9943783"><ele>358.0</ele><time>2026-04-12T13:00:10.958Z</time></trkpt><trkpt lat="37.93353" lon="15.9943133"><ele>358.0</ele><time>2026-04-12T13:00:11.958Z</time></trkpt><trkpt lat="37.9333967" lon="15.994275"><ele>358.0</ele><time>2026-04-12T13:00:12.958Z</time></trkpt><trkpt lat="37.933275" lon="15.9942467"><ele>358.0</ele><time>2026-04-12T13:00:13.958Z</time></trkpt><trkpt lat="37.9331417" lon="15.9942283"><ele>355.0</ele><time>2026-04-12T13:00:14.958Z</time></trkpt><trkpt lat="37.932995" lon="15.9942033"><ele>352.0</ele><time>2026-04-12T13:00:15.958Z</time></trkpt><trkpt lat="37.932855" lon="15.99418"><ele>349.0</ele><time>2026-04-12T13:00:16.958Z</time></trkpt><trkpt lat="37.9327233" lon="15.994165"><ele>346.0</ele><time>2026-04-12T13:00:17.958Z</time></trkpt><trkpt lat="37.9326167" lon="15.9941667"><ele>340.6</ele><time>2026-04-12T13:00:18.958Z</time></trkpt><trkpt lat="37.9325217" lon="15.9942017"><ele>335.20000000000005</ele><time>2026-04-12T13:00:19.958Z</time></trkpt><trkpt lat="37.932425" lon="15.9942483"><ele>329.79999999999995</ele><time>2026-04-12T13:00:20.958Z</time></trkpt><trkpt lat="37.93234" lon="15.99429"><ele>324.4</ele><time>2026-04-12T13:00:21.959Z</time></trkpt><trkpt lat="37.932245" lon="15.994305"><ele>319.0</ele><time>2026-04-12T13:00:22.959Z</time></trkpt><trkpt lat="37.932145" lon="15.99426"><ele>319.0</ele><time>2026-04-12T13:00:23.958Z</time></trkpt><trkpt lat="37.9320567" lon="15.99419"><ele>319.0</ele><time>2026-04-12T13:00:24.958Z</time></trkpt><trkpt lat="37.9319833" lon="15.9941083"><ele>319.0</ele><time>2026-04-12T13:00:25.959Z</time></trkpt><trkpt lat="37.931925" lon="15.9939967"><ele>319.0</ele><time>2026-04-12T13:00:26.959Z</time></trkpt><trkpt lat="37.9318967" lon="15.9938667"><ele>319.0</ele><time>2026-04-12T13:00:27.958Z</time></trkpt><trkpt lat="37.9318867" lon="15.9937367"><ele>318.4</ele><time>2026-04-12T13:00:28.958Z</time></trkpt><trkpt lat="37.9318817" lon="15.9936167"><ele>317.79999999999995</ele><time>2026-04-12T13:00:29.958Z</time></trkpt><trkpt lat="37.9318717" lon="15.993525"><ele>317.20000000000005</ele><time>2026-04-12T13:00:30.958Z</time></trkpt><trkpt lat="37.9318233" lon="15.9934233"><ele>316.6</ele><time>2026-04-12T13:00:32.958Z</time></trkpt><trkpt lat="37.9317433" lon="15.993515"><ele>316.0</ele><time>2026-04-12T13:00:34.958Z</time></trkpt><trkpt lat="37.9316883" lon="15.99367"><ele>316.0</ele><time>2026-04-12T13:00:35.958Z</time></trkpt><trkpt lat="37.9316283" lon="15.9938917"><ele>316.0</ele><time>2026-04-12T13:00:36.958Z</time></trkpt><trkpt lat="37.9315583" lon="15.9940883"><ele>316.0</ele><time>2026-04-12T13:00:37.958Z</time></trkpt><trkpt lat="37.9315" lon="15.9942567"><ele>313.5</ele><time>2026-04-12T13:00:38.959Z</time></trkpt><trkpt lat="37.9314617" lon="15.9943983"><ele>311.0</ele><time>2026-04-12T13:00:39.958Z</time></trkpt><trkpt lat="37.9314567" lon="15.9945383"><ele>308.5</ele><time>2026-04-12T13:00:40.958Z</time></trkpt><trkpt lat="37.9314617" lon="15.994635"><ele>306.0</ele><time>2026-04-12T13:00:41.958Z</time></trkpt><trkpt lat="37.9314567" lon="15.994715"><ele>303.5</ele><time>2026-04-12T13:00:42.958Z</time></trkpt><trkpt lat="37.9314283" lon="15.9947883"><ele>301.0</ele><time>2026-04-12T13:00:43.959Z</time></trkpt><trkpt lat="37.9313217" lon="15.9947967"><ele>301.0</ele><time>2026-04-12T13:00:45.958Z</time></trkpt><trkpt lat="37.931265" lon="15.9947083"><ele>301.0</ele><time>2026-04-12T13:00:46.959Z</time></trkpt><trkpt lat="37.9312" lon="15.9945483"><ele>301.0</ele><time>2026-04-12T13:00:47.958Z</time></trkpt><trkpt lat="37.9311283" lon="15.9943167"><ele>301.0</ele><time>2026-04-12T13:00:48.958Z</time></trkpt><trkpt lat="37.9310467" lon="15.9940467"><ele>306.0</ele><time>2026-04-12T13:00:49.958Z</time></trkpt><trkpt lat="37.9309567" lon="15.9938217"><ele>311.0</ele><time>2026-04-12T13:00:50.958Z</time></trkpt><trkpt lat="37.930875" lon="15.9936317"><ele>316.0</ele><time>2026-04-12T13:00:51.958Z</time></trkpt><trkpt lat="37.9307817" lon="15.9934717"><ele>309.5</ele><time>2026-04-12T13:00:52.958Z</time></trkpt><trkpt lat="37.9306867" lon="15.9933217"><ele>303.0</ele><time>2026-04-12T13:00:53.958Z</time></trkpt><trkpt lat="37.9305983" lon="15.9931983"><ele>296.5</ele><time>2026-04-12T13:00:54.959Z</time></trkpt><trkpt lat="37.9305283" lon="15.9930867"><ele>290.0</ele><time>2026-04-12T13:00:55.958Z</time></trkpt><trkpt lat="37.9304783" lon="15.9930117"><ele>290.0</ele><time>2026-04-12T13:00:56.958Z</time></trkpt><trkpt lat="37.9303967" lon="15.9929817"><ele>290.0</ele><time>2026-04-12T13:00:58.958Z</time></trkpt><trkpt lat="37.9303683" lon="15.9931083"><ele>290.0</ele><time>2026-04-12T13:01:00.958Z</time></trkpt><trkpt lat="37.9304017" lon="15.99325"><ele>290.0</ele><time>2026-04-12T13:01:01.958Z</time></trkpt><trkpt lat="37.9304683" lon="15.9934067"><ele>290.0</ele><time>2026-04-12T13:01:02.958Z</time></trkpt><trkpt lat="37.9305233" lon="15.9935383"><ele>288.4</ele><time>2026-04-12T13:01:03.958Z</time></trkpt><trkpt lat="37.9305417" lon="15.9936333"><ele>286.8</ele><time>2026-04-12T13:01:04.959Z</time></trkpt><trkpt lat="37.9305117" lon="15.9937467"><ele>285.2</ele><time>2026-04-12T13:01:06.959Z</time></trkpt><trkpt lat="37.93042" lon="15.9936667"><ele>283.6</ele><time>2026-04-12T13:01:08.958Z</time></trkpt><trkpt lat="37.9303433" lon="15.9935683"><ele>282.0</ele><time>2026-04-12T13:01:09.958Z</time></trkpt><trkpt lat="37.9302317" lon="15.99344"><ele>284.6666666666667</ele><time>2026-04-12T13:01:10.959Z</time></trkpt><trkpt lat="37.9300817" lon="15.9933167"><ele>287.33333333333337</ele><time>2026-04-12T13:01:11.958Z</time></trkpt><trkpt lat="37.9299217" lon="15.9932283"><ele>290.0</ele><time>2026-04-12T13:01:12.958Z</time></trkpt><trkpt lat="37.92978" lon="15.9931533"><ele>285.4</ele><time>2026-04-12T13:01:13.958Z</time></trkpt><trkpt lat="37.9296733" lon="15.9930983"><ele>280.8</ele><time>2026-04-12T13:01:14.958Z</time></trkpt><trkpt lat="37.9295967" lon="15.99302"><ele>276.2</ele><time>2026-04-12T13:01:15.959Z</time></trkpt><trkpt lat="37.92954" lon="15.9929317"><ele>271.6</ele><time>2026-04-12T13:01:16.958Z</time></trkpt><trkpt lat="37.929495" lon="15.9928067"><ele>267.0</ele><time>2026-04-12T13:01:17.958Z</time></trkpt><trkpt lat="37.9294533" lon="15.9926717"><ele>267.0</ele><time>2026-04-12T13:01:18.958Z</time></trkpt><trkpt lat="37.9294067" lon="15.9925483"><ele>267.0</ele><time>2026-04-12T13:01:19.958Z</time></trkpt><trkpt lat="37.9293417" lon="15.9924417"><ele>267.0</ele><time>2026-04-12T13:01:20.958Z</time></trkpt><trkpt lat="37.9292683" lon="15.9923467"><ele>267.0</ele><time>2026-04-12T13:01:21.958Z</time></trkpt><trkpt lat="37.929205" lon="15.9922783"><ele>267.0</ele><time>2026-04-12T13:01:22.958Z</time></trkpt><trkpt lat="37.929115" lon="15.992225"><ele>263.3333333333333</ele><time>2026-04-12T13:01:23.958Z</time></trkpt><trkpt lat="37.9290233" lon="15.9921867"><ele>259.6666666666667</ele><time>2026-04-12T13:01:24.958Z</time></trkpt><trkpt lat="37.928945" lon="15.9921617"><ele>256.0</ele><time>2026-04-12T13:01:25.958Z</time></trkpt><trkpt lat="37.92888" lon="15.9921617"><ele>252.33333333333334</ele><time>2026-04-12T13:01:26.958Z</time></trkpt><trkpt lat="37.9288167" lon="15.99226"><ele>248.66666666666669</ele><time>2026-04-12T13:01:28.959Z</time></trkpt><trkpt lat="37.9288417" lon="15.9923483"><ele>245.0</ele><time>2026-04-12T13:01:29.958Z</time></trkpt><trkpt lat="37.9289167" lon="15.9924767"><ele>243.5</ele><time>2026-04-12T13:01:30.959Z</time></trkpt><trkpt lat="37.9290183" lon="15.9925983"><ele>242.0</ele><time>2026-04-12T13:01:31.958Z</time></trkpt><trkpt lat="37.9290983" lon="15.992715"><ele>240.5</ele><time>2026-04-12T13:01:32.958Z</time></trkpt><trkpt lat="37.929145" lon="15.9928217"><ele>239.0</ele><time>2026-04-12T13:01:33.958Z</time></trkpt><trkpt lat="37.9291583" lon="15.9929483"><ele>239.0</ele><time>2026-04-12T13:01:34.958Z</time></trkpt><trkpt lat="37.9291617" lon="15.993085"><ele>238.99999999999997</ele><time>2026-04-12T13:01:35.958Z</time></trkpt><trkpt lat="37.929165" lon="15.9932133"><ele>238.99999999999997</ele><time>2026-04-12T13:01:36.959Z</time></trkpt><trkpt lat="37.92916" lon="15.9933083"><ele>239.0</ele><time>2026-04-12T13:01:37.958Z</time></trkpt><trkpt lat="37.92912" lon="15.9934033"><ele>239.0</ele><time>2026-04-12T13:01:39.958Z</time></trkpt><trkpt lat="37.9290633" lon="15.99326"><ele>239.0</ele><time>2026-04-12T13:01:41.958Z</time></trkpt><trkpt lat="37.9290433" lon="15.9931017"><ele>239.0</ele><time>2026-04-12T13:01:42.958Z</time></trkpt><trkpt lat="37.9290083" lon="15.99295"><ele>239.0</ele><time>2026-04-12T13:01:43.958Z</time></trkpt><trkpt lat="37.9289567" lon="15.99283"><ele>239.0</ele><time>2026-04-12T13:01:44.958Z</time></trkpt><trkpt lat="37.9288717" lon="15.99272"><ele>239.0</ele><time>2026-04-12T13:01:45.958Z</time></trkpt><trkpt lat="37.9287633" lon="15.9926483"><ele>238.99999999999997</ele><time>2026-04-12T13:01:46.958Z</time></trkpt><trkpt lat="37.928675" lon="15.9926017"><ele>238.99999999999997</ele><time>2026-04-12T13:01:47.958Z</time></trkpt><trkpt lat="37.9286033" lon="15.99259"><ele>239.0</ele><time>2026-04-12T13:01:48.958Z</time></trkpt><trkpt lat="37.928545" lon="15.9926467"><ele>239.0</ele><time>2026-04-12T13:01:50.959Z</time></trkpt><trkpt lat="37.928635" lon="15.9927617"><ele>239.0</ele><time>2026-04-12T13:01:52.958Z</time></trkpt><trkpt lat="37.9287183" lon="15.992855"><ele>238.99999999999997</ele><time>2026-04-12T13:01:53.958Z</time></trkpt><trkpt lat="37.9287783" lon="15.9929617"><ele>238.99999999999997</ele><time>2026-04-12T13:01:54.958Z</time></trkpt><trkpt lat="37.928805" lon="15.99307"><ele>239.0</ele><time>2026-04-12T13:01:55.959Z</time></trkpt><trkpt lat="37.9288" lon="15.9931817"><ele>239.0</ele><time>2026-04-12T13:01:56.958Z</time></trkpt><trkpt lat="37.928775" lon="15.9932967"><ele>236.39999999999998</ele><time>2026-04-12T13:01:57.958Z</time></trkpt><trkpt lat="37.92875" lon="15.9934117"><ele>233.79999999999998</ele><time>2026-04-12T13:01:58.958Z</time></trkpt><trkpt lat="37.9287283" lon="15.99353"><ele>231.20000000000002</ele><time>2026-04-12T13:01:59.958Z</time></trkpt><trkpt lat="37.9287533" lon="15.9936633"><ele>228.60000000000002</ele><time>2026-04-12T13:02:00.958Z</time></trkpt><trkpt lat="37.9288133" lon="15.9938017"><ele>226.0</ele><time>2026-04-12T13:02:01.958Z</time></trkpt><trkpt lat="37.9288733" lon="15.9939433"><ele>226.0</ele><time>2026-04-12T13:02:02.958Z</time></trkpt><trkpt lat="37.9289083" lon="15.9940783"><ele>226.00000000000003</ele><time>2026-04-12T13:02:03.958Z</time></trkpt><trkpt lat="37.9289217" lon="15.9942117"><ele>226.00000000000003</ele><time>2026-04-12T13:02:04.958Z</time></trkpt><trkpt lat="37.9289233" lon="15.99435"><ele>226.0</ele><time>2026-04-12T13:02:05.959Z</time></trkpt><trkpt lat="37.928935" lon="15.9944867"><ele>226.0</ele><time>2026-04-12T13:02:06.958Z</time></trkpt><trkpt lat="37.9289483" lon="15.9946167"><ele>222.33333333333331</ele><time>2026-04-12T13:02:07.958Z</time></trkpt><trkpt lat="37.9289833" lon="15.994735"><ele>218.66666666666666</ele><time>2026-04-12T13:02:08.959Z</time></trkpt><trkpt lat="37.92904" lon="15.9948067"><ele>215.0</ele><time>2026-04-12T13:02:09.958Z</time></trkpt><trkpt lat="37.9291017" lon="15.994855"><ele>211.33333333333331</ele><time>2026-04-12T13:02:10.959Z</time></trkpt><trkpt lat="37.9291567" lon="15.994895"><ele>207.66666666666666</ele><time>2026-04-12T13:02:11.959Z</time></trkpt><trkpt lat="37.9290967" lon="15.994965"><ele>204.0</ele><time>2026-04-12T13:02:14.959Z</time></trkpt><trkpt lat="37.929015" lon="15.9949317"><ele>204.0</ele><time>2026-04-12T13:02:15.959Z</time></trkpt><trkpt lat="37.9289283" lon="15.994855"><ele>204.0</ele><time>2026-04-12T13:02:16.958Z</time></trkpt><trkpt lat="37.9288567" lon="15.9947383"><ele>204.0</ele><time>2026-04-12T13:02:17.958Z</time></trkpt><trkpt lat="37.9288017" lon="15.9945883"><ele>204.0</ele><time>2026-04-12T13:02:18.959Z</time></trkpt><trkpt lat="37.9287517" lon="15.99443"><ele>204.0</ele><time>2026-04-12T13:02:19.959Z</time></trkpt><trkpt lat="37.9286983" lon="15.994295"><ele>204.0</ele><time>2026-04-12T13:02:20.959Z</time></trkpt><trkpt lat="37.9286567" lon="15.994185"><ele>204.0</ele><time>2026-04-12T13:02:21.958Z</time></trkpt><trkpt lat="37.92859" lon="15.994105"><ele>204.0</ele><time>2026-04-12T13:02:22.958Z</time></trkpt><trkpt lat="37.92849" lon="15.9940333"><ele>204.0</ele><time>2026-04-12T13:02:23.958Z</time></trkpt><trkpt lat="37.9283667" lon="15.99397"><ele>201.0</ele><time>2026-04-12T13:02:24.958Z</time></trkpt><trkpt lat="37.92822" lon="15.9939183"><ele>198.0</ele><time>2026-04-12T13:02:25.959Z</time></trkpt><trkpt lat="37.928075" lon="15.9938717"><ele>195.0</ele><time>2026-04-12T13:02:26.958Z</time></trkpt><trkpt lat="37.927945" lon="15.9938317"><ele>192.0</ele><time>2026-04-12T13:02:27.958Z</time></trkpt><trkpt lat="37.92784" lon="15.9937867"><ele>192.0</ele><time>2026-04-12T13:02:28.958Z</time></trkpt><trkpt lat="37.9277517" lon="15.9937267"><ele>192.0</ele><time>2026-04-12T13:02:29.958Z</time></trkpt><trkpt lat="37.9276767" lon="15.9936333"><ele>192.0</ele><time>2026-04-12T13:02:30.959Z</time></trkpt><trkpt lat="37.9276033" lon="15.993525"><ele>192.0</ele><time>2026-04-12T13:02:31.958Z</time></trkpt><trkpt lat="37.9275383" lon="15.993425"><ele>192.0</ele><time>2026-04-12T13:02:32.958Z</time></trkpt><trkpt lat="37.9274933" lon="15.9933467"><ele>190.2</ele><time>2026-04-12T13:02:33.958Z</time></trkpt><trkpt lat="37.9274017" lon="15.9933067"><ele>188.39999999999998</ele><time>2026-04-12T13:02:35.958Z</time></trkpt><trkpt lat="37.927405" lon="15.99343"><ele>186.60000000000002</ele><time>2026-04-12T13:02:37.958Z</time></trkpt><trkpt lat="37.927455" lon="15.9935533"><ele>184.8</ele><time>2026-04-12T13:02:38.958Z</time></trkpt><trkpt lat="37.927485" lon="15.9936967"><ele>183.0</ele><time>2026-04-12T13:02:39.958Z</time></trkpt><trkpt lat="37.9274917" lon="15.993845"><ele>180.2</ele><time>2026-04-12T13:02:40.958Z</time></trkpt><trkpt lat="37.92749" lon="15.9940033"><ele>177.4</ele><time>2026-04-12T13:02:41.958Z</time></trkpt><trkpt lat="37.927485" lon="15.9941367"><ele>174.6</ele><time>2026-04-12T13:02:42.958Z</time></trkpt><trkpt lat="37.9274733" lon="15.9942333"><ele>171.79999999999998</ele><time>2026-04-12T13:02:43.959Z</time></trkpt><trkpt lat="37.9274117" lon="15.9943283"><ele>169.0</ele><time>2026-04-12T13:02:45.958Z</time></trkpt><trkpt lat="37.92732" lon="15.9942117"><ele>169.0</ele><time>2026-04-12T13:02:47.958Z</time></trkpt><trkpt lat="37.9272733" lon="15.99406"><ele>169.0</ele><time>2026-04-12T13:02:48.958Z</time></trkpt><trkpt lat="37.9272117" lon="15.99387"><ele>169.0</ele><time>2026-04-12T13:02:49.958Z</time></trkpt><trkpt lat="37.9271317" lon="15.993715"><ele>169.0</ele><time>2026-04-12T13:02:50.958Z</time></trkpt><trkpt lat="37.927055" lon="15.9935967"><ele>169.0</ele><time>2026-04-12T13:02:51.958Z</time></trkpt><trkpt lat="37.9269933" lon="15.9935117"><ele>169.0</ele><time>2026-04-12T13:02:52.958Z</time></trkpt><trkpt lat="37.9269083" lon="15.99348"><ele>169.0</ele><time>2026-04-12T13:02:54.958Z</time></trkpt><trkpt lat="37.9269217" lon="15.9936217"><ele>169.0</ele><time>2026-04-12T13:02:56.958Z</time></trkpt><trkpt lat="37.92696" lon="15.9937567"><ele>169.0</ele><time>2026-04-12T13:02:57.958Z</time></trkpt><trkpt lat="37.9269883" lon="15.9938967"><ele>169.0</ele><time>2026-04-12T13:02:58.958Z</time></trkpt><trkpt lat="37.9269767" lon="15.994005"><ele>169.0</ele><time>2026-04-12T13:02:59.958Z</time></trkpt><trkpt lat="37.926935" lon="15.9941217"><ele>169.0</ele><time>2026-04-12T13:03:00.958Z</time></trkpt><trkpt lat="37.92687" lon="15.9942383"><ele>169.0</ele><time>2026-04-12T13:03:01.958Z</time></trkpt><trkpt lat="37.926785" lon="15.9943517"><ele>169.0</ele><time>2026-04-12T13:03:02.958Z</time></trkpt><trkpt lat="37.9267083" lon="15.9944717"><ele>162.5</ele><time>2026-04-12T13:03:03.958Z</time></trkpt><trkpt lat="37.9266533" lon="15.9945833"><ele>156.0</ele><time>2026-04-12T13:03:04.959Z</time></trkpt><trkpt lat="37.9266367" lon="15.994685"><ele>149.5</ele><time>2026-04-12T13:03:05.958Z</time></trkpt><trkpt lat="37.9266433" lon="15.994795"><ele>143.0</ele><time>2026-04-12T13:03:06.958Z</time></trkpt><trkpt lat="37.926675" lon="15.9948917"><ele>136.5</ele><time>2026-04-12T13:03:07.958Z</time></trkpt><trkpt lat="37.9267033" lon="15.9949783"><ele>130.0</ele><time>2026-04-12T13:03:08.958Z</time></trkpt><trkpt lat="37.9266817" lon="15.99508"><ele>130.0</ele><time>2026-04-12T13:03:10.959Z</time></trkpt><trkpt lat="37.926575" lon="15.99504"><ele>130.0</ele><time>2026-04-12T13:03:12.959Z</time></trkpt><trkpt lat="37.9264933" lon="15.9949433"><ele>130.0</ele><time>2026-04-12T13:03:13.958Z</time></trkpt><trkpt lat="37.9264183" lon="15.9948067"><ele>130.0</ele><time>2026-04-12T13:03:14.958Z</time></trkpt><trkpt lat="37.9263783" lon="15.9946883"><ele>130.0</ele><time>2026-04-12T13:03:15.959Z</time></trkpt><trkpt lat="37.9263733" lon="15.9945833"><ele>130.0</ele><time>2026-04-12T13:03:16.959Z</time></trkpt><trkpt lat="37.9263633" lon="15.9944783"><ele>130.0</ele><time>2026-04-12T13:03:17.958Z</time></trkpt><trkpt lat="37.9263383" lon="15.9943883"><ele>130.0</ele><time>2026-04-12T13:03:18.958Z</time></trkpt><trkpt lat="37.926285" lon="15.9943083"><ele>130.0</ele><time>2026-04-12T13:03:19.958Z</time></trkpt><trkpt lat="37.9262033" lon="15.99426"><ele>130.0</ele><time>2026-04-12T13:03:20.958Z</time></trkpt><trkpt lat="37.9260967" lon="15.9942417"><ele>130.0</ele><time>2026-04-12T13:03:21.959Z</time></trkpt><trkpt lat="37.926005" lon="15.9942033"><ele>130.0</ele><time>2026-04-12T13:03:22.958Z</time></trkpt><trkpt lat="37.92593" lon="15.99414"><ele>130.0</ele><time>2026-04-12T13:03:23.958Z</time></trkpt><trkpt lat="37.9258667" lon="15.99405"><ele>130.0</ele><time>2026-04-12T13:03:24.958Z</time></trkpt><trkpt lat="37.925835" lon="15.9939383"><ele>130.0</ele><time>2026-04-12T13:03:25.958Z</time></trkpt><trkpt lat="37.9258283" lon="15.993825"><ele>132.33333333333334</ele><time>2026-04-12T13:03:26.958Z</time></trkpt><trkpt lat="37.9258483" lon="15.9937267"><ele>134.66666666666669</ele><time>2026-04-12T13:03:27.958Z</time></trkpt><trkpt lat="37.925895" lon="15.9936533"><ele>137.0</ele><time>2026-04-12T13:03:28.958Z</time></trkpt><trkpt lat="37.9259533" lon="15.9936083"><ele>139.33333333333334</ele><time>2026-04-12T13:03:29.958Z</time></trkpt><trkpt lat="37.9260067" lon="15.9935067"><ele>141.66666666666666</ele><time>2026-04-12T13:03:31.958Z</time></trkpt><trkpt lat="37.925935" lon="15.9934667"><ele>144.0</ele><time>2026-04-12T13:03:33.958Z</time></trkpt><trkpt lat="37.92587" lon="15.9935217"><ele>137.8</ele><time>2026-04-12T13:03:34.958Z</time></trkpt><trkpt lat="37.9258167" lon="15.9936083"><ele>131.60000000000002</ele><time>2026-04-12T13:03:35.958Z</time></trkpt><trkpt lat="37.92578" lon="15.9937283"><ele>125.4</ele><time>2026-04-12T13:03:36.958Z</time></trkpt><trkpt lat="37.9257617" lon="15.9938767"><ele>119.2</ele><time>2026-04-12T13:03:37.958Z</time></trkpt><trkpt lat="37.9257567" lon="15.9940317"><ele>113.0</ele><time>2026-04-12T13:03:38.958Z</time></trkpt><trkpt lat="37.9257417" lon="15.9941733"><ele>110.83333333333333</ele><time>2026-04-12T13:03:39.958Z</time></trkpt><trkpt lat="37.925725" lon="15.9942983"><ele>108.66666666666666</ele><time>2026-04-12T13:03:40.958Z</time></trkpt><trkpt lat="37.9257033" lon="15.9943983"><ele>106.5</ele><time>2026-04-12T13:03:41.958Z</time></trkpt><trkpt lat="37.9256783" lon="15.9944733"><ele>104.33333333333334</ele><time>2026-04-12T13:03:42.959Z</time></trkpt><trkpt lat="37.9255917" lon="15.9945533"><ele>102.16666666666667</ele><time>2026-04-12T13:03:44.958Z</time></trkpt><trkpt lat="37.9255233" lon="15.99454"><ele>100.0</ele><time>2026-04-12T13:03:45.958Z</time></trkpt><trkpt lat="37.9254433" lon="15.99448"><ele>100.0</ele><time>2026-04-12T13:03:46.959Z</time></trkpt><trkpt lat="37.9253583" lon="15.99439"><ele>100.0</ele><time>2026-04-12T13:03:47.958Z</time></trkpt><trkpt lat="37.9252733" lon="15.9943283"><ele>100.0</ele><time>2026-04-12T13:03:48.958Z</time></trkpt><trkpt lat="37.9252067" lon="15.9943167"><ele>100.0</ele><time>2026-04-12T13:03:49.959Z</time></trkpt><trkpt lat="37.925135" lon="15.9944283"><ele>100.0</ele><time>2026-04-12T13:03:51.959Z</time></trkpt><trkpt lat="37.9251467" lon="15.9945333"><ele>100.0</ele><time>2026-04-12T13:03:52.958Z</time></trkpt><trkpt lat="37.9251833" lon="15.99467"><ele>100.0</ele><time>2026-04-12T13:03:53.958Z</time></trkpt><trkpt lat="37.92521" lon="15.9947917"><ele>100.0</ele><time>2026-04-12T13:03:54.959Z</time></trkpt><trkpt lat="37.9252167" lon="15.9949067"><ele>100.0</ele><time>2026-04-12T13:03:55.958Z</time></trkpt><trkpt lat="37.9252" lon="15.9950333"><ele>100.0</ele><time>2026-04-12T13:03:56.958Z</time></trkpt><trkpt lat="37.9251683" lon="15.9951567"><ele>97.0</ele><time>2026-04-12T13:03:57.958Z</time></trkpt><trkpt lat="37.9251183" lon="15.995285"><ele>94.0</ele><time>2026-04-12T13:03:58.959Z</time></trkpt><trkpt lat="37.9250467" lon="15.995405"><ele>91.0</ele><time>2026-04-12T13:03:59.958Z</time></trkpt><trkpt lat="37.92496" lon="15.9955333"><ele>88.0</ele><time>2026-04-12T13:04:00.958Z</time></trkpt><trkpt lat="37.9248633" lon="15.9956567"><ele>85.25</ele><time>2026-04-12T13:04:01.959Z</time></trkpt><trkpt lat="37.9247717" lon="15.99577"><ele>82.5</ele><time>2026-04-12T13:04:02.958Z</time></trkpt><trkpt lat="37.924685" lon="15.99588"><ele>79.75</ele><time>2026-04-12T13:04:03.959Z</time></trkpt><trkpt lat="37.9246133" lon="15.9959833"><ele>77.0</ele><time>2026-04-12T13:04:04.958Z</time></trkpt><trkpt lat="37.92455" lon="15.9960683"><ele>77.0</ele><time>2026-04-12T13:04:05.958Z</time></trkpt><trkpt lat="37.92449" lon="15.9961217"><ele>77.0</ele><time>2026-04-12T13:04:06.958Z</time></trkpt><trkpt lat="37.9244267" lon="15.9961367"><ele>77.0</ele><time>2026-04-12T13:04:07.959Z</time></trkpt><trkpt lat="37.92433" lon="15.9960533"><ele>77.0</ele><time>2026-04-12T13:04:09.958Z</time></trkpt><trkpt lat="37.924305" lon="15.9959533"><ele>77.0</ele><time>2026-04-12T13:04:10.959Z</time></trkpt><trkpt lat="37.9243017" lon="15.9958167"><ele>77.0</ele><time>2026-04-12T13:04:11.958Z</time></trkpt><trkpt lat="37.9242967" lon="15.9956667"><ele>77.0</ele><time>2026-04-12T13:04:12.958Z</time></trkpt><trkpt lat="37.924275" lon="15.9955417"><ele>77.0</ele><time>2026-04-12T13:04:13.959Z</time></trkpt><trkpt lat="37.9242417" lon="15.9954367"><ele>77.0</ele><time>2026-04-12T13:04:14.958Z</time></trkpt><trkpt lat="37.9241967" lon="15.995355"><ele>77.0</ele><time>2026-04-12T13:04:15.958Z</time></trkpt><trkpt lat="37.9241467" lon="15.9952883"><ele>77.0</ele><time>2026-04-12T13:04:16.958Z</time></trkpt><trkpt lat="37.9240883" lon="15.99523"><ele>77.0</ele><time>2026-04-12T13:04:17.958Z</time></trkpt><trkpt lat="37.92403" lon="15.9951767"><ele>75.66666666666667</ele><time>2026-04-12T13:04:18.959Z</time></trkpt><trkpt lat="37.9239817" lon="15.995125"><ele>74.33333333333334</ele><time>2026-04-12T13:04:19.959Z</time></trkpt><trkpt lat="37.9239217" lon="15.9949917"><ele>73.0</ele><time>2026-04-12T13:04:21.958Z</time></trkpt><trkpt lat="37.9239117" lon="15.9949083"><ele>71.66666666666667</ele><time>2026-04-12T13:04:22.959Z</time></trkpt><trkpt lat="37.923895" lon="15.99482"><ele>70.33333333333333</ele><time>2026-04-12T13:04:23.958Z</time></trkpt><trkpt lat="37.923865" lon="15.9947317"><ele>69.0</ele><time>2026-04-12T13:04:24.958Z</time></trkpt><trkpt lat="37.9237933" lon="15.99463"><ele>69.0</ele><time>2026-04-12T13:04:25.958Z</time></trkpt><trkpt lat="37.9236867" lon="15.9944917"><ele>69.0</ele><time>2026-04-12T13:04:26.958Z</time></trkpt><trkpt lat="37.9235817" lon="15.9943483"><ele>69.0</ele><time>2026-04-12T13:04:27.959Z</time></trkpt><trkpt lat="37.9234867" lon="15.9942083"><ele>70.75</ele><time>2026-04-12T13:04:28.958Z</time></trkpt><trkpt lat="37.923415" lon="15.994075"><ele>72.5</ele><time>2026-04-12T13:04:29.958Z</time></trkpt><trkpt lat="37.92336" lon="15.99394"><ele>74.25</ele><time>2026-04-12T13:04:30.959Z</time></trkpt><trkpt lat="37.92332" lon="15.9937983"><ele>76.0</ele><time>2026-04-12T13:04:31.958Z</time></trkpt><trkpt lat="37.9232883" lon="15.99364"><ele>72.6</ele><time>2026-04-12T13:04:32.958Z</time></trkpt><trkpt lat="37.923255" lon="15.9934883"><ele>69.19999999999999</ele><time>2026-04-12T13:04:33.958Z</time></trkpt><trkpt lat="37.923215" lon="15.9933417"><ele>65.80000000000001</ele><time>2026-04-12T13:04:34.958Z</time></trkpt><trkpt lat="37.9231733" lon="15.993215"><ele>62.400000000000006</ele><time>2026-04-12T13:04:35.958Z</time></trkpt><trkpt lat="37.92313" lon="15.9931133"><ele>59.0</ele><time>2026-04-12T13:04:36.958Z</time></trkpt><trkpt lat="37.9230933" lon="15.99304"><ele>58.800000000000004</ele><time>2026-04-12T13:04:37.958Z</time></trkpt><trkpt lat="37.9230133" lon="15.9929567"><ele>58.60000000000001</ele><time>2026-04-12T13:04:39.959Z</time></trkpt><trkpt lat="37.9228967" lon="15.9930067"><ele>58.4</ele><time>2026-04-12T13:04:41.958Z</time></trkpt><trkpt lat="37.922835" lon="15.993075"><ele>58.2</ele><time>2026-04-12T13:04:42.958Z</time></trkpt><trkpt lat="37.9227933" lon="15.9931583"><ele>58.0</ele><time>2026-04-12T13:04:43.958Z</time></trkpt><trkpt lat="37.9227783" lon="15.9932567"><ele>58.166666666666664</ele><time>2026-04-12T13:04:44.958Z</time></trkpt><trkpt lat="37.92279" lon="15.993355"><ele>58.33333333333333</ele><time>2026-04-12T13:04:45.958Z</time></trkpt><trkpt lat="37.9228233" lon="15.9934383"><ele>58.5</ele><time>2026-04-12T13:04:46.959Z</time></trkpt><trkpt lat="37.92282" lon="15.9935567"><ele>58.66666666666667</ele><time>2026-04-12T13:04:48.958Z</time></trkpt><trkpt lat="37.922735" lon="15.9935717"><ele>58.833333333333336</ele><time>2026-04-12T13:04:50.958Z</time></trkpt><trkpt lat="37.922675" lon="15.9935117"><ele>59.0</ele><time>2026-04-12T13:04:51.958Z</time></trkpt><trkpt lat="37.9225917" lon="15.993415"><ele>55.800000000000004</ele><time>2026-04-12T13:04:52.959Z</time></trkpt><trkpt lat="37.9224983" lon="15.9933417"><ele>52.60000000000001</ele><time>2026-04-12T13:04:53.958Z</time></trkpt><trkpt lat="37.9224033" lon="15.9933067"><ele>49.4</ele><time>2026-04-12T13:04:54.958Z</time></trkpt><trkpt lat="37.9222983" lon="15.9933117"><ele>46.2</ele><time>2026-04-12T13:04:55.958Z</time></trkpt><trkpt lat="37.922175" lon="15.9933433"><ele>43.0</ele><time>2026-04-12T13:04:56.958Z</time></trkpt><trkpt lat="37.9220583" lon="15.9933733"><ele>41.8</ele><time>2026-04-12T13:04:57.958Z</time></trkpt><trkpt lat="37.92195" lon="15.993415"><ele>40.599999999999994</ele><time>2026-04-12T13:04:58.959Z</time></trkpt><trkpt lat="37.92186" lon="15.9934333"><ele>39.400000000000006</ele><time>2026-04-12T13:04:59.958Z</time></trkpt><trkpt lat="37.9217817" lon="15.993425"><ele>38.2</ele><time>2026-04-12T13:05:00.959Z</time></trkpt><trkpt lat="37.921715" lon="15.9933833"><ele>37.0</ele><time>2026-04-12T13:05:01.959Z</time></trkpt><trkpt lat="37.921655" lon="15.9932867"><ele>36.75</ele><time>2026-04-12T13:05:02.958Z</time></trkpt><trkpt lat="37.9216017" lon="15.9931467"><ele>36.5</ele><time>2026-04-12T13:05:03.958Z</time></trkpt><trkpt lat="37.92157" lon="15.9929533"><ele>36.25</ele><time>2026-04-12T13:05:04.958Z</time></trkpt><trkpt lat="37.9215417" lon="15.992745"><ele>36.0</ele><time>2026-04-12T13:05:05.958Z</time></trkpt><trkpt lat="37.9214983" lon="15.9925633"><ele>36.0</ele><time>2026-04-12T13:05:06.958Z</time></trkpt><trkpt lat="37.92146" lon="15.9924083"><ele>36.0</ele><time>2026-04-12T13:05:07.958Z</time></trkpt><trkpt lat="37.9214333" lon="15.9922683"><ele>36.0</ele><time>2026-04-12T13:05:08.958Z</time></trkpt><trkpt lat="37.9214233" lon="15.9921283"><ele>36.0</ele><time>2026-04-12T13:05:09.958Z</time></trkpt><trkpt lat="37.92142" lon="15.9920117"><ele>36.0</ele><time>2026-04-12T13:05:10.958Z</time></trkpt><trkpt lat="37.9214367" lon="15.991885"><ele>36.0</ele><time>2026-04-12T13:05:11.959Z</time></trkpt><trkpt lat="37.9214567" lon="15.9917567"><ele>36.0</ele><time>2026-04-12T13:05:12.958Z</time></trkpt><trkpt lat="37.9214483" lon="15.991635"><ele>36.0</ele><time>2026-04-12T13:05:13.959Z</time></trkpt><trkpt lat="37.9214217" lon="15.991515"><ele>36.0</ele><time>2026-04-12T13:05:14.959Z</time></trkpt><trkpt lat="37.9213867" lon="15.9914033"><ele>36.0</ele><time>2026-04-12T13:05:15.958Z</time></trkpt><trkpt lat="37.9213583" lon="15.9913017"><ele>35.0</ele><time>2026-04-12T13:05:16.958Z</time></trkpt><trkpt lat="37.9213417" lon="15.9912117"><ele>35.0</ele><time>2026-04-12T13:05:17.959Z</time></trkpt><trkpt lat="37.92132" lon="15.9911217"><ele>35.0</ele><time>2026-04-12T13:05:18.958Z</time></trkpt><trkpt lat="37.9212983" lon="15.9910417"><ele>35.0</ele><time>2026-04-12T13:05:19.958Z</time></trkpt><trkpt lat="37.92129" lon="15.9909283"><ele>35.0</ele><time>2026-04-12T13:05:21.958Z</time></trkpt><trkpt lat="37.9212883" lon="15.9908383"><ele>38.0</ele><time>2026-04-12T13:05:25.957Z</time></trkpt></trkseg></trk></gpx>